<?xml version="1.0" encoding="UTF-8"?>
<gpx version="v1.1.5" creator="iTravel Tech Inc. - http://www.itravel-tech.com" xmlns:xsi="http://www.w3.org/2001/XMLSchema-instance" xmlns="http://www.topografix.com/GPX/1/1" xsi:schemaLocation="http://www.topografix.com/GPX/1/1 http://www.topografix.com/GPX/1/1/gpx.xsd http://www.topografix.com/GPX/gpx_overlay/0/3 http://www.topografix.com/GPX/gpx_overlay/0/3/gpx_overlay.xsd http://www.topografix.com/GPX/gpx_modified/0/1 http://www.topografix.com/GPX/gpx_modified/0/1/gpx_modified.xsd">
	<name>day2</name>
	<desc>Export from Prune</desc>
	<trk><name>day2</name><number>1</number><trkseg>
<trkpt lat="22.348923" lon="103.774574">
<ele>1977.860352</ele>
<time>2011-04-23T23:01:03Z</time>
<desc>lat.=22.348923, lon.=103.774574, Alt.=1977.860352m. Speed=0.360000m/h.</desc>
<speed>0.100000</speed>
</trkpt>
<trkpt lat="22.348848" lon="103.774529">
<ele>1975.829102</ele>
<time>2011-04-23T23:01:08Z</time>
<desc>lat.=22.348848, lon.=103.774529, Alt.=1975.829102m. Speed=0.396000m/h.</desc>
<speed>0.110000</speed>
</trkpt>
<trkpt lat="22.348852" lon="103.774529">
<ele>1975.797852</ele>
<time>2011-04-23T23:01:13Z</time>
<desc>lat.=22.348852, lon.=103.774529, Alt.=1975.797852m. Speed=0.180000m/h.</desc>
<speed>0.050000</speed>
</trkpt>
<trkpt lat="22.348852" lon="103.774536">
<ele>1975.672852</ele>
<time>2011-04-23T23:01:18Z</time>
<desc>lat.=22.348852, lon.=103.774536, Alt.=1975.672852m. Speed=0.216000m/h.</desc>
<speed>0.060000</speed>
</trkpt>
<trkpt lat="22.348848" lon="103.774536">
<ele>1975.610352</ele>
<time>2011-04-23T23:01:23Z</time>
<desc>lat.=22.348848, lon.=103.774536, Alt.=1975.610352m. Speed=1.044000m/h.</desc>
<speed>0.290000</speed>
</trkpt>
<trkpt lat="22.348845" lon="103.774544">
<ele>1975.516602</ele>
<time>2011-04-23T23:01:28Z</time>
<desc>lat.=22.348845, lon.=103.774544, Alt.=1975.516602m. Speed=0.252000m/h.</desc>
<speed>0.070000</speed>
</trkpt>
<trkpt lat="22.348833" lon="103.774536">
<ele>1975.672852</ele>
<time>2011-04-23T23:01:33Z</time>
<desc>lat.=22.348833, lon.=103.774536, Alt.=1975.672852m. Speed=0.216000m/h.</desc>
<speed>0.060000</speed>
</trkpt>
<trkpt lat="22.348825" lon="103.774536">
<ele>1975.672852</ele>
<time>2011-04-23T23:01:38Z</time>
<desc>lat.=22.348825, lon.=103.774536, Alt.=1975.672852m. Speed=0.900000m/h.</desc>
<speed>0.250000</speed>
</trkpt>
<trkpt lat="22.348818" lon="103.774544">
<ele>1975.672852</ele>
<time>2011-04-23T23:01:43Z</time>
<desc>lat.=22.348818, lon.=103.774544, Alt.=1975.672852m. Speed=0.864000m/h.</desc>
<speed>0.240000</speed>
</trkpt>
<trkpt lat="22.348782" lon="103.774567">
<ele>1974.891602</ele>
<time>2011-04-23T23:01:48Z</time>
<desc>lat.=22.348782, lon.=103.774567, Alt.=1974.891602m. Speed=1.188000m/h.</desc>
<speed>0.330000</speed>
</trkpt>
<trkpt lat="22.348783" lon="103.774521">
<ele>1973.047852</ele>
<time>2011-04-23T23:01:53Z</time>
<desc>lat.=22.348783, lon.=103.774521, Alt.=1973.047852m. Speed=0.180000m/h.</desc>
<speed>0.050000</speed>
</trkpt>
<trkpt lat="22.348782" lon="103.774521">
<ele>1973.016602</ele>
<time>2011-04-23T23:01:58Z</time>
<desc>lat.=22.348782, lon.=103.774521, Alt.=1973.016602m. Speed=0.036000m/h.</desc>
<speed>0.010000</speed>
</trkpt>
<trkpt lat="22.348783" lon="103.774521">
<ele>1973.047852</ele>
<time>2011-04-23T23:02:03Z</time>
<desc>lat.=22.348783, lon.=103.774521, Alt.=1973.047852m. Speed=0.216000m/h.</desc>
<speed>0.060000</speed>
</trkpt>
<trkpt lat="22.348787" lon="103.774521">
<ele>1973.079102</ele>
<time>2011-04-23T23:02:08Z</time>
<desc>lat.=22.348787, lon.=103.774521, Alt.=1973.079102m. Speed=0.540000m/h.</desc>
<speed>0.150000</speed>
</trkpt>
<trkpt lat="22.348791" lon="103.774521">
<ele>1973.079102</ele>
<time>2011-04-23T23:02:13Z</time>
<desc>lat.=22.348791, lon.=103.774521, Alt.=1973.079102m. Speed=0.216000m/h.</desc>
<speed>0.060000</speed>
</trkpt>
<trkpt lat="22.348791" lon="103.774513">
<ele>1973.079102</ele>
<time>2011-04-23T23:02:18Z</time>
<desc>lat.=22.348791, lon.=103.774513, Alt.=1973.079102m. Speed=0.324000m/h.</desc>
<speed>0.090000</speed>
</trkpt>
<trkpt lat="22.348787" lon="103.774506">
<ele>1972.860352</ele>
<time>2011-04-23T23:02:23Z</time>
<desc>lat.=22.348787, lon.=103.774506, Alt.=1972.860352m. Speed=1.080000m/h.</desc>
<speed>0.300000</speed>
</trkpt>
<trkpt lat="22.348734" lon="103.774506">
<ele>1970.766602</ele>
<time>2011-04-23T23:02:28Z</time>
<desc>lat.=22.348734, lon.=103.774506, Alt.=1970.766602m. Speed=1.044000m/h.</desc>
<speed>0.290000</speed>
</trkpt>
<trkpt lat="22.348730" lon="103.774513">
<ele>1969.860352</ele>
<time>2011-04-23T23:02:33Z</time>
<desc>lat.=22.348730, lon.=103.774513, Alt.=1969.860352m. Speed=1.152000m/h.</desc>
<speed>0.320000</speed>
</trkpt>
<trkpt lat="22.348707" lon="103.774490">
<ele>1969.204102</ele>
<time>2011-04-23T23:02:38Z</time>
<desc>lat.=22.348707, lon.=103.774490, Alt.=1969.204102m. Speed=2.664000m/h.</desc>
<speed>0.740000</speed>
</trkpt>
<trkpt lat="22.348694" lon="103.774483">
<ele>1969.329102</ele>
<time>2011-04-23T23:02:43Z</time>
<desc>lat.=22.348694, lon.=103.774483, Alt.=1969.329102m. Speed=2.052000m/h.</desc>
<speed>0.570000</speed>
</trkpt>
<trkpt lat="22.348665" lon="103.774475">
<ele>1968.766602</ele>
<time>2011-04-23T23:02:48Z</time>
<desc>lat.=22.348665, lon.=103.774475, Alt.=1968.766602m. Speed=2.520000m/h.</desc>
<speed>0.700000</speed>
</trkpt>
<trkpt lat="22.348627" lon="103.774460">
<ele>1968.297852</ele>
<time>2011-04-23T23:02:53Z</time>
<desc>lat.=22.348627, lon.=103.774460, Alt.=1968.297852m. Speed=2.844000m/h.</desc>
<speed>0.790000</speed>
</trkpt>
<trkpt lat="22.348618" lon="103.774445">
<ele>1966.985352</ele>
<time>2011-04-23T23:02:58Z</time>
<desc>lat.=22.348618, lon.=103.774445, Alt.=1966.985352m. Speed=2.556000m/h.</desc>
<speed>0.710000</speed>
</trkpt>
<trkpt lat="22.348576" lon="103.774437">
<ele>1966.516602</ele>
<time>2011-04-23T23:03:03Z</time>
<desc>lat.=22.348576, lon.=103.774437, Alt.=1966.516602m. Speed=2.700000m/h.</desc>
<speed>0.750000</speed>
</trkpt>
<trkpt lat="22.348539" lon="103.774414">
<ele>1966.704102</ele>
<time>2011-04-23T23:03:08Z</time>
<desc>lat.=22.348539, lon.=103.774414, Alt.=1966.704102m. Speed=2.160000m/h.</desc>
<speed>0.600000</speed>
</trkpt>
<trkpt lat="22.348501" lon="103.774414">
<ele>1966.297852</ele>
<time>2011-04-23T23:03:13Z</time>
<desc>lat.=22.348501, lon.=103.774414, Alt.=1966.297852m. Speed=1.872000m/h.</desc>
<speed>0.520000</speed>
</trkpt>
<trkpt lat="22.348444" lon="103.774399">
<ele>1966.016602</ele>
<time>2011-04-23T23:03:18Z</time>
<desc>lat.=22.348444, lon.=103.774399, Alt.=1966.016602m. Speed=2.376000m/h.</desc>
<speed>0.660000</speed>
</trkpt>
<trkpt lat="22.348364" lon="103.774368">
<ele>1965.516602</ele>
<time>2011-04-23T23:03:23Z</time>
<desc>lat.=22.348364, lon.=103.774368, Alt.=1965.516602m. Speed=2.700000m/h.</desc>
<speed>0.750000</speed>
</trkpt>
<trkpt lat="22.348343" lon="103.774338">
<ele>1964.797852</ele>
<time>2011-04-23T23:03:28Z</time>
<desc>lat.=22.348343, lon.=103.774338, Alt.=1964.797852m. Speed=1.872000m/h.</desc>
<speed>0.520000</speed>
</trkpt>
<trkpt lat="22.348289" lon="103.774284">
<ele>1965.297852</ele>
<time>2011-04-23T23:03:33Z</time>
<desc>lat.=22.348289, lon.=103.774284, Alt.=1965.297852m. Speed=2.556000m/h.</desc>
<speed>0.710000</speed>
</trkpt>
<trkpt lat="22.348276" lon="103.774254">
<ele>1964.922852</ele>
<time>2011-04-23T23:03:38Z</time>
<desc>lat.=22.348276, lon.=103.774254, Alt.=1964.922852m. Speed=2.052000m/h.</desc>
<speed>0.570000</speed>
</trkpt>
<trkpt lat="22.348234" lon="103.774208">
<ele>1964.579102</ele>
<time>2011-04-23T23:03:43Z</time>
<desc>lat.=22.348234, lon.=103.774208, Alt.=1964.579102m. Speed=2.268000m/h.</desc>
<speed>0.630000</speed>
</trkpt>
<trkpt lat="22.348221" lon="103.774170">
<ele>1963.547852</ele>
<time>2011-04-23T23:03:48Z</time>
<desc>lat.=22.348221, lon.=103.774170, Alt.=1963.547852m. Speed=1.476000m/h.</desc>
<speed>0.410000</speed>
</trkpt>
<trkpt lat="22.348202" lon="103.774124">
<ele>1962.954102</ele>
<time>2011-04-23T23:03:53Z</time>
<desc>lat.=22.348202, lon.=103.774124, Alt.=1962.954102m. Speed=1.692000m/h.</desc>
<speed>0.470000</speed>
</trkpt>
<trkpt lat="22.348129" lon="103.774109">
<ele>1963.235352</ele>
<time>2011-04-23T23:03:58Z</time>
<desc>lat.=22.348129, lon.=103.774109, Alt.=1963.235352m. Speed=3.132000m/h.</desc>
<speed>0.870000</speed>
</trkpt>
<trkpt lat="22.348072" lon="103.774124">
<ele>1963.579102</ele>
<time>2011-04-23T23:04:03Z</time>
<desc>lat.=22.348072, lon.=103.774124, Alt.=1963.579102m. Speed=2.520000m/h.</desc>
<speed>0.700000</speed>
</trkpt>
<trkpt lat="22.348036" lon="103.774109">
<ele>1963.235352</ele>
<time>2011-04-23T23:04:08Z</time>
<desc>lat.=22.348036, lon.=103.774109, Alt.=1963.235352m. Speed=1.836000m/h.</desc>
<speed>0.510000</speed>
</trkpt>
<trkpt lat="22.348034" lon="103.774078">
<ele>1963.422852</ele>
<time>2011-04-23T23:04:13Z</time>
<desc>lat.=22.348034, lon.=103.774078, Alt.=1963.422852m. Speed=0.324000m/h.</desc>
<speed>0.090000</speed>
</trkpt>
<trkpt lat="22.348013" lon="103.774063">
<ele>1963.360352</ele>
<time>2011-04-23T23:04:18Z</time>
<desc>lat.=22.348013, lon.=103.774063, Alt.=1963.360352m. Speed=3.888000m/h.</desc>
<speed>1.080000</speed>
</trkpt>
<trkpt lat="22.347967" lon="103.774010">
<ele>1964.172852</ele>
<time>2011-04-23T23:04:23Z</time>
<desc>lat.=22.347967, lon.=103.774010, Alt.=1964.172852m. Speed=4.608000m/h.</desc>
<speed>1.280000</speed>
</trkpt>
<trkpt lat="22.347940" lon="103.773972">
<ele>1964.735352</ele>
<time>2011-04-23T23:04:28Z</time>
<desc>lat.=22.347940, lon.=103.773972, Alt.=1964.735352m. Speed=2.952000m/h.</desc>
<speed>0.820000</speed>
</trkpt>
<trkpt lat="22.347895" lon="103.773933">
<ele>1965.141602</ele>
<time>2011-04-23T23:04:33Z</time>
<desc>lat.=22.347895, lon.=103.773933, Alt.=1965.141602m. Speed=3.708000m/h.</desc>
<speed>1.030000</speed>
</trkpt>
<trkpt lat="22.347839" lon="103.773880">
<ele>1965.454102</ele>
<time>2011-04-23T23:04:38Z</time>
<desc>lat.=22.347839, lon.=103.773880, Alt.=1965.454102m. Speed=4.356000m/h.</desc>
<speed>1.210000</speed>
</trkpt>
<trkpt lat="22.347797" lon="103.773827">
<ele>1965.672852</ele>
<time>2011-04-23T23:04:43Z</time>
<desc>lat.=22.347797, lon.=103.773827, Alt.=1965.672852m. Speed=4.176000m/h.</desc>
<speed>1.160000</speed>
</trkpt>
<trkpt lat="22.347765" lon="103.773796">
<ele>1965.735352</ele>
<time>2011-04-23T23:04:48Z</time>
<desc>lat.=22.347765, lon.=103.773796, Alt.=1965.735352m. Speed=3.132000m/h.</desc>
<speed>0.870000</speed>
</trkpt>
<trkpt lat="22.347731" lon="103.773781">
<ele>1965.672852</ele>
<time>2011-04-23T23:04:53Z</time>
<desc>lat.=22.347731, lon.=103.773781, Alt.=1965.672852m. Speed=1.944000m/h.</desc>
<speed>0.540000</speed>
</trkpt>
<trkpt lat="22.347696" lon="103.773766">
<ele>1965.797852</ele>
<time>2011-04-23T23:04:58Z</time>
<desc>lat.=22.347696, lon.=103.773766, Alt.=1965.797852m. Speed=1.656000m/h.</desc>
<speed>0.460000</speed>
</trkpt>
<trkpt lat="22.347692" lon="103.773727">
<ele>1965.672852</ele>
<time>2011-04-23T23:05:03Z</time>
<desc>lat.=22.347692, lon.=103.773727, Alt.=1965.672852m. Speed=0.792000m/h.</desc>
<speed>0.220000</speed>
</trkpt>
<trkpt lat="22.347692" lon="103.773697">
<ele>1965.079102</ele>
<time>2011-04-23T23:05:08Z</time>
<desc>lat.=22.347692, lon.=103.773697, Alt.=1965.079102m. Speed=1.584000m/h.</desc>
<speed>0.440000</speed>
</trkpt>
<trkpt lat="22.347662" lon="103.773697">
<ele>1964.547852</ele>
<time>2011-04-23T23:05:13Z</time>
<desc>lat.=22.347662, lon.=103.773697, Alt.=1964.547852m. Speed=1.728000m/h.</desc>
<speed>0.480000</speed>
</trkpt>
<trkpt lat="22.347616" lon="103.773682">
<ele>1964.735352</ele>
<time>2011-04-23T23:05:18Z</time>
<desc>lat.=22.347616, lon.=103.773682, Alt.=1964.735352m. Speed=3.960000m/h.</desc>
<speed>1.100000</speed>
</trkpt>
<trkpt lat="22.347557" lon="103.773659">
<ele>1964.985352</ele>
<time>2011-04-23T23:05:23Z</time>
<desc>lat.=22.347557, lon.=103.773659, Alt.=1964.985352m. Speed=2.448000m/h.</desc>
<speed>0.680000</speed>
</trkpt>
<trkpt lat="22.347496" lon="103.773636">
<ele>1965.204102</ele>
<time>2011-04-23T23:05:28Z</time>
<desc>lat.=22.347496, lon.=103.773636, Alt.=1965.204102m. Speed=2.340000m/h.</desc>
<speed>0.650000</speed>
</trkpt>
<trkpt lat="22.347492" lon="103.773643">
<ele>1965.329102</ele>
<time>2011-04-23T23:05:33Z</time>
<desc>lat.=22.347492, lon.=103.773643, Alt.=1965.329102m. Speed=0.900000m/h.</desc>
<speed>0.250000</speed>
</trkpt>
<trkpt lat="22.347424" lon="103.773643">
<ele>1965.454102</ele>
<time>2011-04-23T23:05:38Z</time>
<desc>lat.=22.347424, lon.=103.773643, Alt.=1965.454102m. Speed=4.572000m/h.</desc>
<speed>1.270000</speed>
</trkpt>
<trkpt lat="22.347374" lon="103.773666">
<ele>1965.797852</ele>
<time>2011-04-23T23:05:43Z</time>
<desc>lat.=22.347374, lon.=103.773666, Alt.=1965.797852m. Speed=2.736000m/h.</desc>
<speed>0.760000</speed>
</trkpt>
<trkpt lat="22.347328" lon="103.773666">
<ele>1965.922852</ele>
<time>2011-04-23T23:05:48Z</time>
<desc>lat.=22.347328, lon.=103.773666, Alt.=1965.922852m. Speed=3.348000m/h.</desc>
<speed>0.930000</speed>
</trkpt>
<trkpt lat="22.347309" lon="103.773689">
<ele>1965.891602</ele>
<time>2011-04-23T23:05:53Z</time>
<desc>lat.=22.347309, lon.=103.773689, Alt.=1965.891602m. Speed=2.736000m/h.</desc>
<speed>0.760000</speed>
</trkpt>
<trkpt lat="22.347288" lon="103.773712">
<ele>1965.860352</ele>
<time>2011-04-23T23:05:58Z</time>
<desc>lat.=22.347288, lon.=103.773712, Alt.=1965.860352m. Speed=1.908000m/h.</desc>
<speed>0.530000</speed>
</trkpt>
<trkpt lat="22.347282" lon="103.773743">
<ele>1965.954102</ele>
<time>2011-04-23T23:06:03Z</time>
<desc>lat.=22.347282, lon.=103.773743, Alt.=1965.954102m. Speed=2.232000m/h.</desc>
<speed>0.620000</speed>
</trkpt>
<trkpt lat="22.347286" lon="103.773758">
<ele>1966.235352</ele>
<time>2011-04-23T23:06:08Z</time>
<desc>lat.=22.347286, lon.=103.773758, Alt.=1966.235352m. Speed=0.900000m/h.</desc>
<speed>0.250000</speed>
</trkpt>
<trkpt lat="22.347281" lon="103.773766">
<ele>1966.547852</ele>
<time>2011-04-23T23:06:13Z</time>
<desc>lat.=22.347281, lon.=103.773766, Alt.=1966.547852m. Speed=1.764000m/h.</desc>
<speed>0.490000</speed>
</trkpt>
<trkpt lat="22.347279" lon="103.773781">
<ele>1966.985352</ele>
<time>2011-04-23T23:06:18Z</time>
<desc>lat.=22.347279, lon.=103.773781, Alt.=1966.985352m. Speed=1.584000m/h.</desc>
<speed>0.440000</speed>
</trkpt>
<trkpt lat="22.347284" lon="103.773796">
<ele>1968.079102</ele>
<time>2011-04-23T23:06:23Z</time>
<desc>lat.=22.347284, lon.=103.773796, Alt.=1968.079102m. Speed=0.612000m/h.</desc>
<speed>0.170000</speed>
</trkpt>
<trkpt lat="22.347275" lon="103.773788">
<ele>1968.391602</ele>
<time>2011-04-23T23:06:28Z</time>
<desc>lat.=22.347275, lon.=103.773788, Alt.=1968.391602m. Speed=1.008000m/h.</desc>
<speed>0.280000</speed>
</trkpt>
<trkpt lat="22.347265" lon="103.773781">
<ele>1968.766602</ele>
<time>2011-04-23T23:06:33Z</time>
<desc>lat.=22.347265, lon.=103.773781, Alt.=1968.766602m. Speed=1.296000m/h.</desc>
<speed>0.360000</speed>
</trkpt>
<trkpt lat="22.347263" lon="103.773788">
<ele>1969.235352</ele>
<time>2011-04-23T23:06:38Z</time>
<desc>lat.=22.347263, lon.=103.773788, Alt.=1969.235352m. Speed=1.008000m/h.</desc>
<speed>0.280000</speed>
</trkpt>
<trkpt lat="22.347271" lon="103.773895">
<ele>1969.735352</ele>
<time>2011-04-23T23:06:43Z</time>
<desc>lat.=22.347271, lon.=103.773895, Alt.=1969.735352m. Speed=1.512000m/h.</desc>
<speed>0.420000</speed>
</trkpt>
<trkpt lat="22.347256" lon="103.773903">
<ele>1970.047852</ele>
<time>2011-04-23T23:06:48Z</time>
<desc>lat.=22.347256, lon.=103.773903, Alt.=1970.047852m. Speed=1.044000m/h.</desc>
<speed>0.290000</speed>
</trkpt>
<trkpt lat="22.347210" lon="103.773918">
<ele>1970.610352</ele>
<time>2011-04-23T23:06:53Z</time>
<desc>lat.=22.347210, lon.=103.773918, Alt.=1970.610352m. Speed=2.052000m/h.</desc>
<speed>0.570000</speed>
</trkpt>
<trkpt lat="22.347155" lon="103.773911">
<ele>1970.579102</ele>
<time>2011-04-23T23:06:58Z</time>
<desc>lat.=22.347155, lon.=103.773911, Alt.=1970.579102m. Speed=4.104000m/h.</desc>
<speed>1.140000</speed>
</trkpt>
<trkpt lat="22.347109" lon="103.773911">
<ele>1970.766602</ele>
<time>2011-04-23T23:07:03Z</time>
<desc>lat.=22.347109, lon.=103.773911, Alt.=1970.766602m. Speed=2.340000m/h.</desc>
<speed>0.650000</speed>
</trkpt>
<trkpt lat="22.347084" lon="103.773903">
<ele>1970.797852</ele>
<time>2011-04-23T23:07:08Z</time>
<desc>lat.=22.347084, lon.=103.773903, Alt.=1970.797852m. Speed=1.224000m/h.</desc>
<speed>0.340000</speed>
</trkpt>
<trkpt lat="22.347080" lon="103.773895">
<ele>1970.704102</ele>
<time>2011-04-23T23:07:13Z</time>
<desc>lat.=22.347080, lon.=103.773895, Alt.=1970.704102m. Speed=0.684000m/h.</desc>
<speed>0.190000</speed>
</trkpt>
<trkpt lat="22.347044" lon="103.773888">
<ele>1970.704102</ele>
<time>2011-04-23T23:07:18Z</time>
<desc>lat.=22.347044, lon.=103.773888, Alt.=1970.704102m. Speed=1.404000m/h.</desc>
<speed>0.390000</speed>
</trkpt>
<trkpt lat="22.347031" lon="103.773911">
<ele>1970.579102</ele>
<time>2011-04-23T23:07:23Z</time>
<desc>lat.=22.347031, lon.=103.773911, Alt.=1970.579102m. Speed=3.456000m/h.</desc>
<speed>0.960000</speed>
</trkpt>
<trkpt lat="22.347012" lon="103.773918">
<ele>1970.829102</ele>
<time>2011-04-23T23:07:28Z</time>
<desc>lat.=22.347012, lon.=103.773918, Alt.=1970.829102m. Speed=1.980000m/h.</desc>
<speed>0.550000</speed>
</trkpt>
<trkpt lat="22.346981" lon="103.773918">
<ele>1971.047852</ele>
<time>2011-04-23T23:07:33Z</time>
<desc>lat.=22.346981, lon.=103.773918, Alt.=1971.047852m. Speed=2.556000m/h.</desc>
<speed>0.710000</speed>
</trkpt>
<trkpt lat="22.346956" lon="103.773918">
<ele>1971.110352</ele>
<time>2011-04-23T23:07:38Z</time>
<desc>lat.=22.346956, lon.=103.773918, Alt.=1971.110352m. Speed=2.052000m/h.</desc>
<speed>0.570000</speed>
</trkpt>
<trkpt lat="22.346943" lon="103.773933">
<ele>1971.172852</ele>
<time>2011-04-23T23:07:43Z</time>
<desc>lat.=22.346943, lon.=103.773933, Alt.=1971.172852m. Speed=2.772000m/h.</desc>
<speed>0.770000</speed>
</trkpt>
<trkpt lat="22.346951" lon="103.773949">
<ele>1971.297852</ele>
<time>2011-04-23T23:07:48Z</time>
<desc>lat.=22.346951, lon.=103.773949, Alt.=1971.297852m. Speed=1.908000m/h.</desc>
<speed>0.530000</speed>
</trkpt>
<trkpt lat="22.346952" lon="103.773964">
<ele>1971.579102</ele>
<time>2011-04-23T23:07:53Z</time>
<desc>lat.=22.346952, lon.=103.773964, Alt.=1971.579102m. Speed=1.656000m/h.</desc>
<speed>0.460000</speed>
</trkpt>
<trkpt lat="22.346954" lon="103.773972">
<ele>1972.016602</ele>
<time>2011-04-23T23:07:58Z</time>
<desc>lat.=22.346954, lon.=103.773972, Alt.=1972.016602m. Speed=1.044000m/h.</desc>
<speed>0.290000</speed>
</trkpt>
<trkpt lat="22.346937" lon="103.774002">
<ele>1972.141602</ele>
<time>2011-04-23T23:08:03Z</time>
<desc>lat.=22.346937, lon.=103.774002, Alt.=1972.141602m. Speed=1.800000m/h.</desc>
<speed>0.500000</speed>
</trkpt>
<trkpt lat="22.346943" lon="103.774025">
<ele>1972.516602</ele>
<time>2011-04-23T23:08:08Z</time>
<desc>lat.=22.346943, lon.=103.774025, Alt.=1972.516602m. Speed=2.124000m/h.</desc>
<speed>0.590000</speed>
</trkpt>
<trkpt lat="22.346926" lon="103.774055">
<ele>1972.829102</ele>
<time>2011-04-23T23:08:13Z</time>
<desc>lat.=22.346926, lon.=103.774055, Alt.=1972.829102m. Speed=2.592000m/h.</desc>
<speed>0.720000</speed>
</trkpt>
<trkpt lat="22.346851" lon="103.774086">
<ele>1973.047852</ele>
<time>2011-04-23T23:08:18Z</time>
<desc>lat.=22.346851, lon.=103.774086, Alt.=1973.047852m. Speed=3.924000m/h.</desc>
<speed>1.090000</speed>
</trkpt>
<trkpt lat="22.346813" lon="103.774139">
<ele>1973.172852</ele>
<time>2011-04-23T23:08:23Z</time>
<desc>lat.=22.346813, lon.=103.774139, Alt.=1973.172852m. Speed=3.744000m/h.</desc>
<speed>1.040000</speed>
</trkpt>
<trkpt lat="22.346783" lon="103.774147">
<ele>1973.172852</ele>
<time>2011-04-23T23:08:28Z</time>
<desc>lat.=22.346783, lon.=103.774147, Alt.=1973.172852m. Speed=1.476000m/h.</desc>
<speed>0.410000</speed>
</trkpt>
<trkpt lat="22.346785" lon="103.774139">
<ele>1973.141602</ele>
<time>2011-04-23T23:08:33Z</time>
<desc>lat.=22.346785, lon.=103.774139, Alt.=1973.141602m. Speed=0.792000m/h.</desc>
<speed>0.220000</speed>
</trkpt>
<trkpt lat="22.346769" lon="103.774147">
<ele>1973.079102</ele>
<time>2011-04-23T23:08:38Z</time>
<desc>lat.=22.346769, lon.=103.774147, Alt.=1973.079102m. Speed=2.520000m/h.</desc>
<speed>0.700000</speed>
</trkpt>
<trkpt lat="22.346724" lon="103.774162">
<ele>1972.985352</ele>
<time>2011-04-23T23:08:43Z</time>
<desc>lat.=22.346724, lon.=103.774162, Alt.=1972.985352m. Speed=3.240000m/h.</desc>
<speed>0.900000</speed>
</trkpt>
<trkpt lat="22.346687" lon="103.774162">
<ele>1972.922852</ele>
<time>2011-04-23T23:08:48Z</time>
<desc>lat.=22.346687, lon.=103.774162, Alt.=1972.922852m. Speed=2.268000m/h.</desc>
<speed>0.630000</speed>
</trkpt>
<trkpt lat="22.346647" lon="103.774185">
<ele>1972.797852</ele>
<time>2011-04-23T23:08:53Z</time>
<desc>lat.=22.346647, lon.=103.774185, Alt.=1972.797852m. Speed=2.664000m/h.</desc>
<speed>0.740000</speed>
</trkpt>
<trkpt lat="22.346619" lon="103.774185">
<ele>1972.735352</ele>
<time>2011-04-23T23:08:58Z</time>
<desc>lat.=22.346619, lon.=103.774185, Alt.=1972.735352m. Speed=1.260000m/h.</desc>
<speed>0.350000</speed>
</trkpt>
<trkpt lat="22.346600" lon="103.774216">
<ele>1972.704102</ele>
<time>2011-04-23T23:09:03Z</time>
<desc>lat.=22.346600, lon.=103.774216, Alt.=1972.704102m. Speed=1.404000m/h.</desc>
<speed>0.390000</speed>
</trkpt>
<trkpt lat="22.346592" lon="103.774216">
<ele>1972.641602</ele>
<time>2011-04-23T23:09:08Z</time>
<desc>lat.=22.346592, lon.=103.774216, Alt.=1972.641602m. Speed=0.720000m/h.</desc>
<speed>0.200000</speed>
</trkpt>
<trkpt lat="22.346594" lon="103.774223">
<ele>1972.547852</ele>
<time>2011-04-23T23:09:13Z</time>
<desc>lat.=22.346594, lon.=103.774223, Alt.=1972.547852m. Speed=1.116000m/h.</desc>
<speed>0.310000</speed>
</trkpt>
<trkpt lat="22.346560" lon="103.774223">
<ele>1972.422852</ele>
<time>2011-04-23T23:09:18Z</time>
<desc>lat.=22.346560, lon.=103.774223, Alt.=1972.422852m. Speed=1.692000m/h.</desc>
<speed>0.470000</speed>
</trkpt>
<trkpt lat="22.346519" lon="103.774261">
<ele>1972.360352</ele>
<time>2011-04-23T23:09:23Z</time>
<desc>lat.=22.346519, lon.=103.774261, Alt.=1972.360352m. Speed=4.464000m/h.</desc>
<speed>1.240000</speed>
</trkpt>
<trkpt lat="22.346512" lon="103.774292">
<ele>1972.391602</ele>
<time>2011-04-23T23:09:28Z</time>
<desc>lat.=22.346512, lon.=103.774292, Alt.=1972.391602m. Speed=2.628000m/h.</desc>
<speed>0.730000</speed>
</trkpt>
<trkpt lat="22.346478" lon="103.774307">
<ele>1972.454102</ele>
<time>2011-04-23T23:09:33Z</time>
<desc>lat.=22.346478, lon.=103.774307, Alt.=1972.454102m. Speed=2.232000m/h.</desc>
<speed>0.620000</speed>
</trkpt>
<trkpt lat="22.346458" lon="103.774338">
<ele>1972.547852</ele>
<time>2011-04-23T23:09:38Z</time>
<desc>lat.=22.346458, lon.=103.774338, Alt.=1972.547852m. Speed=2.412000m/h.</desc>
<speed>0.670000</speed>
</trkpt>
<trkpt lat="22.346407" lon="103.774368">
<ele>1972.735352</ele>
<time>2011-04-23T23:09:43Z</time>
<desc>lat.=22.346407, lon.=103.774368, Alt.=1972.735352m. Speed=2.268000m/h.</desc>
<speed>0.630000</speed>
</trkpt>
<trkpt lat="22.346399" lon="103.774376">
<ele>1972.672852</ele>
<time>2011-04-23T23:09:48Z</time>
<desc>lat.=22.346399, lon.=103.774376, Alt.=1972.672852m. Speed=0.648000m/h.</desc>
<speed>0.180000</speed>
</trkpt>
<trkpt lat="22.346401" lon="103.774384">
<ele>1972.641602</ele>
<time>2011-04-23T23:09:53Z</time>
<desc>lat.=22.346401, lon.=103.774384, Alt.=1972.641602m. Speed=1.044000m/h.</desc>
<speed>0.290000</speed>
</trkpt>
<trkpt lat="22.346403" lon="103.774406">
<ele>1972.579102</ele>
<time>2011-04-23T23:09:58Z</time>
<desc>lat.=22.346403, lon.=103.774406, Alt.=1972.579102m. Speed=2.160000m/h.</desc>
<speed>0.600000</speed>
</trkpt>
<trkpt lat="22.346407" lon="103.774422">
<ele>1972.516602</ele>
<time>2011-04-23T23:10:03Z</time>
<desc>lat.=22.346407, lon.=103.774422, Alt.=1972.516602m. Speed=1.476000m/h.</desc>
<speed>0.410000</speed>
</trkpt>
<trkpt lat="22.346418" lon="103.774437">
<ele>1972.454102</ele>
<time>2011-04-23T23:10:08Z</time>
<desc>lat.=22.346418, lon.=103.774437, Alt.=1972.454102m. Speed=1.476000m/h.</desc>
<speed>0.410000</speed>
</trkpt>
<trkpt lat="22.346428" lon="103.774452">
<ele>1972.485352</ele>
<time>2011-04-23T23:10:13Z</time>
<desc>lat.=22.346428, lon.=103.774452, Alt.=1972.485352m. Speed=1.296000m/h.</desc>
<speed>0.360000</speed>
</trkpt>
<trkpt lat="22.346437" lon="103.774460">
<ele>1972.641602</ele>
<time>2011-04-23T23:10:18Z</time>
<desc>lat.=22.346437, lon.=103.774460, Alt.=1972.641602m. Speed=0.648000m/h.</desc>
<speed>0.180000</speed>
</trkpt>
<trkpt lat="22.346453" lon="103.774475">
<ele>1972.610352</ele>
<time>2011-04-23T23:10:23Z</time>
<desc>lat.=22.346453, lon.=103.774475, Alt.=1972.610352m. Speed=0.828000m/h.</desc>
<speed>0.230000</speed>
</trkpt>
<trkpt lat="22.346436" lon="103.774529">
<ele>1973.079102</ele>
<time>2011-04-23T23:10:28Z</time>
<desc>lat.=22.346436, lon.=103.774529, Alt.=1973.079102m. Speed=2.376000m/h.</desc>
<speed>0.660000</speed>
</trkpt>
<trkpt lat="22.346390" lon="103.774536">
<ele>1973.610352</ele>
<time>2011-04-23T23:10:33Z</time>
<desc>lat.=22.346390, lon.=103.774536, Alt.=1973.610352m. Speed=3.636000m/h.</desc>
<speed>1.010000</speed>
</trkpt>
<trkpt lat="22.346348" lon="103.774536">
<ele>1974.266602</ele>
<time>2011-04-23T23:10:38Z</time>
<desc>lat.=22.346348, lon.=103.774536, Alt.=1974.266602m. Speed=0.072000m/h.</desc>
<speed>0.020000</speed>
</trkpt>
<trkpt lat="22.346323" lon="103.774551">
<ele>1975.235352</ele>
<time>2011-04-23T23:10:43Z</time>
<desc>lat.=22.346323, lon.=103.774551, Alt.=1975.235352m. Speed=1.980000m/h.</desc>
<speed>0.550000</speed>
</trkpt>
<trkpt lat="22.346321" lon="103.774559">
<ele>1976.141602</ele>
<time>2011-04-23T23:10:48Z</time>
<desc>lat.=22.346321, lon.=103.774559, Alt.=1976.141602m. Speed=1.152000m/h.</desc>
<speed>0.320000</speed>
</trkpt>
<trkpt lat="22.346281" lon="103.774582">
<ele>1977.704102</ele>
<time>2011-04-23T23:10:53Z</time>
<desc>lat.=22.346281, lon.=103.774582, Alt.=1977.704102m. Speed=3.312000m/h.</desc>
<speed>0.920000</speed>
</trkpt>
<trkpt lat="22.346207" lon="103.774605">
<ele>1978.360352</ele>
<time>2011-04-23T23:10:58Z</time>
<desc>lat.=22.346207, lon.=103.774605, Alt.=1978.360352m. Speed=2.592000m/h.</desc>
<speed>0.720000</speed>
</trkpt>
<trkpt lat="22.346157" lon="103.774574">
<ele>1979.141602</ele>
<time>2011-04-23T23:11:03Z</time>
<desc>lat.=22.346157, lon.=103.774574, Alt.=1979.141602m. Speed=1.800000m/h.</desc>
<speed>0.500000</speed>
</trkpt>
<trkpt lat="22.346128" lon="103.774605">
<ele>1980.610352</ele>
<time>2011-04-23T23:11:08Z</time>
<desc>lat.=22.346128, lon.=103.774605, Alt.=1980.610352m. Speed=3.384000m/h.</desc>
<speed>0.940000</speed>
</trkpt>
<trkpt lat="22.346090" lon="103.774620">
<ele>1982.204102</ele>
<time>2011-04-23T23:11:13Z</time>
<desc>lat.=22.346090, lon.=103.774620, Alt.=1982.204102m. Speed=4.428000m/h.</desc>
<speed>1.230000</speed>
</trkpt>
<trkpt lat="22.346069" lon="103.774643">
<ele>1984.266602</ele>
<time>2011-04-23T23:11:18Z</time>
<desc>lat.=22.346069, lon.=103.774643, Alt.=1984.266602m. Speed=2.340000m/h.</desc>
<speed>0.650000</speed>
</trkpt>
<trkpt lat="22.346045" lon="103.774666">
<ele>1986.141602</ele>
<time>2011-04-23T23:11:23Z</time>
<desc>lat.=22.346045, lon.=103.774666, Alt.=1986.141602m. Speed=2.844000m/h.</desc>
<speed>0.790000</speed>
</trkpt>
<trkpt lat="22.346008" lon="103.774673">
<ele>1988.141602</ele>
<time>2011-04-23T23:11:28Z</time>
<desc>lat.=22.346008, lon.=103.774673, Alt.=1988.141602m. Speed=3.204000m/h.</desc>
<speed>0.890000</speed>
</trkpt>
<trkpt lat="22.345976" lon="103.774712">
<ele>1990.235352</ele>
<time>2011-04-23T23:11:33Z</time>
<desc>lat.=22.345976, lon.=103.774712, Alt.=1990.235352m. Speed=2.952000m/h.</desc>
<speed>0.820000</speed>
</trkpt>
<trkpt lat="22.345924" lon="103.774750">
<ele>1991.860352</ele>
<time>2011-04-23T23:11:38Z</time>
<desc>lat.=22.345924, lon.=103.774750, Alt.=1991.860352m. Speed=3.996000m/h.</desc>
<speed>1.110000</speed>
</trkpt>
<trkpt lat="22.345871" lon="103.774788">
<ele>1994.797852</ele>
<time>2011-04-23T23:11:43Z</time>
<desc>lat.=22.345871, lon.=103.774788, Alt.=1994.797852m. Speed=4.140000m/h.</desc>
<speed>1.150000</speed>
</trkpt>
<trkpt lat="22.345850" lon="103.774849">
<ele>1997.016602</ele>
<time>2011-04-23T23:11:48Z</time>
<desc>lat.=22.345850, lon.=103.774849, Alt.=1997.016602m. Speed=4.644000m/h.</desc>
<speed>1.290000</speed>
</trkpt>
<trkpt lat="22.345800" lon="103.774872">
<ele>1999.266602</ele>
<time>2011-04-23T23:11:53Z</time>
<desc>lat.=22.345800, lon.=103.774872, Alt.=1999.266602m. Speed=4.932000m/h.</desc>
<speed>1.370000</speed>
</trkpt>
<trkpt lat="22.345764" lon="103.774895">
<ele>2002.235352</ele>
<time>2011-04-23T23:11:58Z</time>
<desc>lat.=22.345764, lon.=103.774895, Alt.=2002.235352m. Speed=3.888000m/h.</desc>
<speed>1.080000</speed>
</trkpt>
<trkpt lat="22.345732" lon="103.774933">
<ele>2006.360352</ele>
<time>2011-04-23T23:12:03Z</time>
<desc>lat.=22.345732, lon.=103.774933, Alt.=2006.360352m. Speed=3.996000m/h.</desc>
<speed>1.110000</speed>
</trkpt>
<trkpt lat="22.345707" lon="103.774971">
<ele>2010.297852</ele>
<time>2011-04-23T23:12:08Z</time>
<desc>lat.=22.345707, lon.=103.774971, Alt.=2010.297852m. Speed=4.536000m/h.</desc>
<speed>1.260000</speed>
</trkpt>
<trkpt lat="22.345684" lon="103.775024">
<ele>2013.047852</ele>
<time>2011-04-23T23:12:13Z</time>
<desc>lat.=22.345684, lon.=103.775024, Alt.=2013.047852m. Speed=3.816000m/h.</desc>
<speed>1.060000</speed>
</trkpt>
<trkpt lat="22.345663" lon="103.775078">
<ele>2017.016602</ele>
<time>2011-04-23T23:12:18Z</time>
<desc>lat.=22.345663, lon.=103.775078, Alt.=2017.016602m. Speed=4.032000m/h.</desc>
<speed>1.120000</speed>
</trkpt>
<trkpt lat="22.345638" lon="103.775124">
<ele>2020.610352</ele>
<time>2011-04-23T23:12:23Z</time>
<desc>lat.=22.345638, lon.=103.775124, Alt.=2020.610352m. Speed=3.276000m/h.</desc>
<speed>0.910000</speed>
</trkpt>
<trkpt lat="22.345594" lon="103.775146">
<ele>2023.891602</ele>
<time>2011-04-23T23:12:28Z</time>
<desc>lat.=22.345594, lon.=103.775146, Alt.=2023.891602m. Speed=4.428000m/h.</desc>
<speed>1.230000</speed>
</trkpt>
<trkpt lat="22.345537" lon="103.775162">
<ele>2026.235352</ele>
<time>2011-04-23T23:12:33Z</time>
<desc>lat.=22.345537, lon.=103.775162, Alt.=2026.235352m. Speed=3.276000m/h.</desc>
<speed>0.910000</speed>
</trkpt>
<trkpt lat="22.345503" lon="103.775162">
<ele>2027.235352</ele>
<time>2011-04-23T23:12:38Z</time>
<desc>lat.=22.345503, lon.=103.775162, Alt.=2027.235352m. Speed=4.284000m/h.</desc>
<speed>1.190000</speed>
</trkpt>
<trkpt lat="22.345448" lon="103.775177">
<ele>2028.422852</ele>
<time>2011-04-23T23:12:43Z</time>
<desc>lat.=22.345448, lon.=103.775177, Alt.=2028.422852m. Speed=4.392000m/h.</desc>
<speed>1.220000</speed>
</trkpt>
<trkpt lat="22.345392" lon="103.775185">
<ele>2029.079102</ele>
<time>2011-04-23T23:12:48Z</time>
<desc>lat.=22.345392, lon.=103.775185, Alt.=2029.079102m. Speed=4.536000m/h.</desc>
<speed>1.260000</speed>
</trkpt>
<trkpt lat="22.345352" lon="103.775192">
<ele>2029.485352</ele>
<time>2011-04-23T23:12:53Z</time>
<desc>lat.=22.345352, lon.=103.775192, Alt.=2029.485352m. Speed=3.276000m/h.</desc>
<speed>0.910000</speed>
</trkpt>
<trkpt lat="22.345276" lon="103.775223">
<ele>2029.829102</ele>
<time>2011-04-23T23:12:58Z</time>
<desc>lat.=22.345276, lon.=103.775223, Alt.=2029.829102m. Speed=7.344000m/h.</desc>
<speed>2.040000</speed>
</trkpt>
<trkpt lat="22.345243" lon="103.775215">
<ele>2029.610352</ele>
<time>2011-04-23T23:13:03Z</time>
<desc>lat.=22.345243, lon.=103.775215, Alt.=2029.610352m. Speed=0.072000m/h.</desc>
<speed>0.020000</speed>
</trkpt>
<trkpt lat="22.345249" lon="103.775230">
<ele>2030.297852</ele>
<time>2011-04-23T23:13:08Z</time>
<desc>lat.=22.345249, lon.=103.775230, Alt.=2030.297852m. Speed=0.720000m/h.</desc>
<speed>0.200000</speed>
</trkpt>
<trkpt lat="22.345230" lon="103.775208">
<ele>2030.579102</ele>
<time>2011-04-23T23:13:13Z</time>
<desc>lat.=22.345230, lon.=103.775208, Alt.=2030.579102m. Speed=3.204000m/h.</desc>
<speed>0.890000</speed>
</trkpt>
<trkpt lat="22.345190" lon="103.775185">
<ele>2029.704102</ele>
<time>2011-04-23T23:13:18Z</time>
<desc>lat.=22.345190, lon.=103.775185, Alt.=2029.704102m. Speed=3.456000m/h.</desc>
<speed>0.960000</speed>
</trkpt>
<trkpt lat="22.345133" lon="103.775177">
<ele>2029.110352</ele>
<time>2011-04-23T23:13:23Z</time>
<desc>lat.=22.345133, lon.=103.775177, Alt.=2029.110352m. Speed=4.068000m/h.</desc>
<speed>1.130000</speed>
</trkpt>
<trkpt lat="22.345079" lon="103.775192">
<ele>2028.360352</ele>
<time>2011-04-23T23:13:28Z</time>
<desc>lat.=22.345079, lon.=103.775192, Alt.=2028.360352m. Speed=3.384000m/h.</desc>
<speed>0.940000</speed>
</trkpt>
<trkpt lat="22.345028" lon="103.775192">
<ele>2028.422852</ele>
<time>2011-04-23T23:13:33Z</time>
<desc>lat.=22.345028, lon.=103.775192, Alt.=2028.422852m. Speed=4.896000m/h.</desc>
<speed>1.360000</speed>
</trkpt>
<trkpt lat="22.344959" lon="103.775200">
<ele>2028.266602</ele>
<time>2011-04-23T23:13:38Z</time>
<desc>lat.=22.344959, lon.=103.775200, Alt.=2028.266602m. Speed=5.076000m/h.</desc>
<speed>1.410000</speed>
</trkpt>
<trkpt lat="22.344896" lon="103.775200">
<ele>2027.891602</ele>
<time>2011-04-23T23:13:43Z</time>
<desc>lat.=22.344896, lon.=103.775200, Alt.=2027.891602m. Speed=4.608000m/h.</desc>
<speed>1.280000</speed>
</trkpt>
<trkpt lat="22.344837" lon="103.775238">
<ele>2028.204102</ele>
<time>2011-04-23T23:13:48Z</time>
<desc>lat.=22.344837, lon.=103.775238, Alt.=2028.204102m. Speed=5.148000m/h.</desc>
<speed>1.430000</speed>
</trkpt>
<trkpt lat="22.344782" lon="103.775269">
<ele>2028.141602</ele>
<time>2011-04-23T23:13:53Z</time>
<desc>lat.=22.344782, lon.=103.775269, Alt.=2028.141602m. Speed=4.896000m/h.</desc>
<speed>1.360000</speed>
</trkpt>
<trkpt lat="22.344736" lon="103.775291">
<ele>2028.704102</ele>
<time>2011-04-23T23:13:58Z</time>
<desc>lat.=22.344736, lon.=103.775291, Alt.=2028.704102m. Speed=5.040000m/h.</desc>
<speed>1.400000</speed>
</trkpt>
<trkpt lat="22.344687" lon="103.775307">
<ele>2028.766602</ele>
<time>2011-04-23T23:14:03Z</time>
<desc>lat.=22.344687, lon.=103.775307, Alt.=2028.766602m. Speed=4.212000m/h.</desc>
<speed>1.170000</speed>
</trkpt>
<trkpt lat="22.344622" lon="103.775322">
<ele>2028.391602</ele>
<time>2011-04-23T23:14:08Z</time>
<desc>lat.=22.344622, lon.=103.775322, Alt.=2028.391602m. Speed=5.652000m/h.</desc>
<speed>1.570000</speed>
</trkpt>
<trkpt lat="22.344559" lon="103.775337">
<ele>2028.610352</ele>
<time>2011-04-23T23:14:13Z</time>
<desc>lat.=22.344559, lon.=103.775337, Alt.=2028.610352m. Speed=5.364000m/h.</desc>
<speed>1.490000</speed>
</trkpt>
<trkpt lat="22.344492" lon="103.775330">
<ele>2028.672852</ele>
<time>2011-04-23T23:14:18Z</time>
<desc>lat.=22.344492, lon.=103.775330, Alt.=2028.672852m. Speed=4.248000m/h.</desc>
<speed>1.180000</speed>
</trkpt>
<trkpt lat="22.344440" lon="103.775299">
<ele>2028.454102</ele>
<time>2011-04-23T23:14:23Z</time>
<desc>lat.=22.344440, lon.=103.775299, Alt.=2028.454102m. Speed=5.328000m/h.</desc>
<speed>1.480000</speed>
</trkpt>
<trkpt lat="22.344379" lon="103.775330">
<ele>2029.860352</ele>
<time>2011-04-23T23:14:28Z</time>
<desc>lat.=22.344379, lon.=103.775330, Alt.=2029.860352m. Speed=4.860000m/h.</desc>
<speed>1.350000</speed>
</trkpt>
<trkpt lat="22.344326" lon="103.775330">
<ele>2030.079102</ele>
<time>2011-04-23T23:14:33Z</time>
<desc>lat.=22.344326, lon.=103.775330, Alt.=2030.079102m. Speed=4.644000m/h.</desc>
<speed>1.290000</speed>
</trkpt>
<trkpt lat="22.344267" lon="103.775330">
<ele>2030.016602</ele>
<time>2011-04-23T23:14:38Z</time>
<desc>lat.=22.344267, lon.=103.775330, Alt.=2030.016602m. Speed=6.012000m/h.</desc>
<speed>1.670000</speed>
</trkpt>
<trkpt lat="22.344189" lon="103.775337">
<ele>2029.547852</ele>
<time>2011-04-23T23:14:43Z</time>
<desc>lat.=22.344189, lon.=103.775337, Alt.=2029.547852m. Speed=6.120000m/h.</desc>
<speed>1.700000</speed>
</trkpt>
<trkpt lat="22.344116" lon="103.775352">
<ele>2030.422852</ele>
<time>2011-04-23T23:14:48Z</time>
<desc>lat.=22.344116, lon.=103.775352, Alt.=2030.422852m. Speed=5.580000m/h.</desc>
<speed>1.550000</speed>
</trkpt>
<trkpt lat="22.344046" lon="103.775368">
<ele>2031.329102</ele>
<time>2011-04-23T23:14:53Z</time>
<desc>lat.=22.344046, lon.=103.775368, Alt.=2031.329102m. Speed=5.148000m/h.</desc>
<speed>1.430000</speed>
</trkpt>
<trkpt lat="22.343992" lon="103.775383">
<ele>2031.141602</ele>
<time>2011-04-23T23:14:58Z</time>
<desc>lat.=22.343992, lon.=103.775383, Alt.=2031.141602m. Speed=4.572000m/h.</desc>
<speed>1.270000</speed>
</trkpt>
<trkpt lat="22.343937" lon="103.775368">
<ele>2030.797852</ele>
<time>2011-04-23T23:15:03Z</time>
<desc>lat.=22.343937, lon.=103.775368, Alt.=2030.797852m. Speed=4.896000m/h.</desc>
<speed>1.360000</speed>
</trkpt>
<trkpt lat="22.343885" lon="103.775330">
<ele>2028.985352</ele>
<time>2011-04-23T23:15:08Z</time>
<desc>lat.=22.343885, lon.=103.775330, Alt.=2028.985352m. Speed=5.292000m/h.</desc>
<speed>1.470000</speed>
</trkpt>
<trkpt lat="22.343836" lon="103.775291">
<ele>2026.704102</ele>
<time>2011-04-23T23:15:13Z</time>
<desc>lat.=22.343836, lon.=103.775291, Alt.=2026.704102m. Speed=5.904000m/h.</desc>
<speed>1.640000</speed>
</trkpt>
<trkpt lat="22.343760" lon="103.775276">
<ele>2025.172852</ele>
<time>2011-04-23T23:15:18Z</time>
<desc>lat.=22.343760, lon.=103.775276, Alt.=2025.172852m. Speed=5.724000m/h.</desc>
<speed>1.590000</speed>
</trkpt>
<trkpt lat="22.343689" lon="103.775276">
<ele>2023.985352</ele>
<time>2011-04-23T23:15:23Z</time>
<desc>lat.=22.343689, lon.=103.775276, Alt.=2023.985352m. Speed=5.616000m/h.</desc>
<speed>1.560000</speed>
</trkpt>
<trkpt lat="22.343611" lon="103.775276">
<ele>2022.766602</ele>
<time>2011-04-23T23:15:28Z</time>
<desc>lat.=22.343611, lon.=103.775276, Alt.=2022.766602m. Speed=4.644000m/h.</desc>
<speed>1.290000</speed>
</trkpt>
<trkpt lat="22.343559" lon="103.775253">
<ele>2022.672852</ele>
<time>2011-04-23T23:15:33Z</time>
<desc>lat.=22.343559, lon.=103.775253, Alt.=2022.672852m. Speed=5.148000m/h.</desc>
<speed>1.430000</speed>
</trkpt>
<trkpt lat="22.343506" lon="103.775291">
<ele>2023.297852</ele>
<time>2011-04-23T23:15:38Z</time>
<desc>lat.=22.343506, lon.=103.775291, Alt.=2023.297852m. Speed=4.680000m/h.</desc>
<speed>1.300000</speed>
</trkpt>
<trkpt lat="22.343451" lon="103.775330">
<ele>2023.329102</ele>
<time>2011-04-23T23:15:43Z</time>
<desc>lat.=22.343451, lon.=103.775330, Alt.=2023.329102m. Speed=4.896000m/h.</desc>
<speed>1.360000</speed>
</trkpt>
<trkpt lat="22.343403" lon="103.775368">
<ele>2023.141602</ele>
<time>2011-04-23T23:15:48Z</time>
<desc>lat.=22.343403, lon.=103.775368, Alt.=2023.141602m. Speed=5.472000m/h.</desc>
<speed>1.520000</speed>
</trkpt>
<trkpt lat="22.343349" lon="103.775414">
<ele>2022.422852</ele>
<time>2011-04-23T23:15:53Z</time>
<desc>lat.=22.343349, lon.=103.775414, Alt.=2022.422852m. Speed=5.400000m/h.</desc>
<speed>1.500000</speed>
</trkpt>
<trkpt lat="22.343309" lon="103.775467">
<ele>2020.985352</ele>
<time>2011-04-23T23:15:58Z</time>
<desc>lat.=22.343309, lon.=103.775467, Alt.=2020.985352m. Speed=5.580000m/h.</desc>
<speed>1.550000</speed>
</trkpt>
<trkpt lat="22.343260" lon="103.775505">
<ele>2020.891602</ele>
<time>2011-04-23T23:16:03Z</time>
<desc>lat.=22.343260, lon.=103.775505, Alt.=2020.891602m. Speed=3.672000m/h.</desc>
<speed>1.020000</speed>
</trkpt>
<trkpt lat="22.343212" lon="103.775520">
<ele>2020.766602</ele>
<time>2011-04-23T23:16:08Z</time>
<desc>lat.=22.343212, lon.=103.775520, Alt.=2020.766602m. Speed=3.708000m/h.</desc>
<speed>1.030000</speed>
</trkpt>
<trkpt lat="22.343161" lon="103.775551">
<ele>2020.891602</ele>
<time>2011-04-23T23:16:13Z</time>
<desc>lat.=22.343161, lon.=103.775551, Alt.=2020.891602m. Speed=2.772000m/h.</desc>
<speed>0.770000</speed>
</trkpt>
<trkpt lat="22.343126" lon="103.775597">
<ele>2021.016602</ele>
<time>2011-04-23T23:16:18Z</time>
<desc>lat.=22.343126, lon.=103.775597, Alt.=2021.016602m. Speed=3.024000m/h.</desc>
<speed>0.840000</speed>
</trkpt>
<trkpt lat="22.343082" lon="103.775627">
<ele>2022.047852</ele>
<time>2011-04-23T23:16:23Z</time>
<desc>lat.=22.343082, lon.=103.775627, Alt.=2022.047852m. Speed=2.196000m/h.</desc>
<speed>0.610000</speed>
</trkpt>
<trkpt lat="22.343033" lon="103.775665">
<ele>2022.922852</ele>
<time>2011-04-23T23:16:28Z</time>
<desc>lat.=22.343033, lon.=103.775665, Alt.=2022.922852m. Speed=3.384000m/h.</desc>
<speed>0.940000</speed>
</trkpt>
<trkpt lat="22.342979" lon="103.775703">
<ele>2024.704102</ele>
<time>2011-04-23T23:16:33Z</time>
<desc>lat.=22.342979, lon.=103.775703, Alt.=2024.704102m. Speed=2.700000m/h.</desc>
<speed>0.750000</speed>
</trkpt>
<trkpt lat="22.342941" lon="103.775749">
<ele>2025.422852</ele>
<time>2011-04-23T23:16:38Z</time>
<desc>lat.=22.342941, lon.=103.775749, Alt.=2025.422852m. Speed=2.664000m/h.</desc>
<speed>0.740000</speed>
</trkpt>
<trkpt lat="22.342936" lon="103.775780">
<ele>2025.922852</ele>
<time>2011-04-23T23:16:43Z</time>
<desc>lat.=22.342936, lon.=103.775780, Alt.=2025.922852m. Speed=2.016000m/h.</desc>
<speed>0.560000</speed>
</trkpt>
<trkpt lat="22.342915" lon="103.775810">
<ele>2026.266602</ele>
<time>2011-04-23T23:16:48Z</time>
<desc>lat.=22.342915, lon.=103.775810, Alt.=2026.266602m. Speed=2.088000m/h.</desc>
<speed>0.580000</speed>
</trkpt>
<trkpt lat="22.342911" lon="103.775826">
<ele>2026.641602</ele>
<time>2011-04-23T23:16:53Z</time>
<desc>lat.=22.342911, lon.=103.775826, Alt.=2026.641602m. Speed=0.792000m/h.</desc>
<speed>0.220000</speed>
</trkpt>
<trkpt lat="22.342894" lon="103.775856">
<ele>2026.985352</ele>
<time>2011-04-23T23:16:58Z</time>
<desc>lat.=22.342894, lon.=103.775856, Alt.=2026.985352m. Speed=1.404000m/h.</desc>
<speed>0.390000</speed>
</trkpt>
<trkpt lat="22.342907" lon="103.775871">
<ele>2026.641602</ele>
<time>2011-04-23T23:17:03Z</time>
<desc>lat.=22.342907, lon.=103.775871, Alt.=2026.641602m. Speed=1.260000m/h.</desc>
<speed>0.350000</speed>
</trkpt>
<trkpt lat="22.342897" lon="103.775887">
<ele>2027.266602</ele>
<time>2011-04-23T23:17:08Z</time>
<desc>lat.=22.342897, lon.=103.775887, Alt.=2027.266602m. Speed=1.116000m/h.</desc>
<speed>0.310000</speed>
</trkpt>
<trkpt lat="22.342911" lon="103.775932">
<ele>2027.672852</ele>
<time>2011-04-23T23:17:13Z</time>
<desc>lat.=22.342911, lon.=103.775932, Alt.=2027.672852m. Speed=2.808000m/h.</desc>
<speed>0.780000</speed>
</trkpt>
<trkpt lat="22.342913" lon="103.775948">
<ele>2027.954102</ele>
<time>2011-04-23T23:17:18Z</time>
<desc>lat.=22.342913, lon.=103.775948, Alt.=2027.954102m. Speed=1.368000m/h.</desc>
<speed>0.380000</speed>
</trkpt>
<trkpt lat="22.342892" lon="103.775955">
<ele>2028.454102</ele>
<time>2011-04-23T23:17:23Z</time>
<desc>lat.=22.342892, lon.=103.775955, Alt.=2028.454102m. Speed=1.152000m/h.</desc>
<speed>0.320000</speed>
</trkpt>
<trkpt lat="22.342829" lon="103.776031">
<ele>2028.079102</ele>
<time>2011-04-23T23:17:28Z</time>
<desc>lat.=22.342829, lon.=103.776031, Alt.=2028.079102m. Speed=2.736000m/h.</desc>
<speed>0.760000</speed>
</trkpt>
<trkpt lat="22.342827" lon="103.776093">
<ele>2028.141602</ele>
<time>2011-04-23T23:17:33Z</time>
<desc>lat.=22.342827, lon.=103.776093, Alt.=2028.141602m. Speed=1.872000m/h.</desc>
<speed>0.520000</speed>
</trkpt>
<trkpt lat="22.342745" lon="103.776108">
<ele>2028.079102</ele>
<time>2011-04-23T23:17:38Z</time>
<desc>lat.=22.342745, lon.=103.776108, Alt.=2028.079102m. Speed=2.448000m/h.</desc>
<speed>0.680000</speed>
</trkpt>
<trkpt lat="22.342703" lon="103.776161">
<ele>2027.860352</ele>
<time>2011-04-23T23:17:43Z</time>
<desc>lat.=22.342703, lon.=103.776161, Alt.=2027.860352m. Speed=1.656000m/h.</desc>
<speed>0.460000</speed>
</trkpt>
<trkpt lat="22.342672" lon="103.776192">
<ele>2027.141602</ele>
<time>2011-04-23T23:17:48Z</time>
<desc>lat.=22.342672, lon.=103.776192, Alt.=2027.141602m. Speed=3.168000m/h.</desc>
<speed>0.880000</speed>
</trkpt>
<trkpt lat="22.342634" lon="103.776222">
<ele>2026.985352</ele>
<time>2011-04-23T23:17:53Z</time>
<desc>lat.=22.342634, lon.=103.776222, Alt.=2026.985352m. Speed=3.276000m/h.</desc>
<speed>0.910000</speed>
</trkpt>
<trkpt lat="22.342585" lon="103.776230">
<ele>2025.860352</ele>
<time>2011-04-23T23:17:58Z</time>
<desc>lat.=22.342585, lon.=103.776230, Alt.=2025.860352m. Speed=3.852000m/h.</desc>
<speed>1.070000</speed>
</trkpt>
<trkpt lat="22.342556" lon="103.776237">
<ele>2024.360352</ele>
<time>2011-04-23T23:18:03Z</time>
<desc>lat.=22.342556, lon.=103.776237, Alt.=2024.360352m. Speed=3.564000m/h.</desc>
<speed>0.990000</speed>
</trkpt>
<trkpt lat="22.342505" lon="103.776237">
<ele>2023.266602</ele>
<time>2011-04-23T23:18:08Z</time>
<desc>lat.=22.342505, lon.=103.776237, Alt.=2023.266602m. Speed=3.564000m/h.</desc>
<speed>0.990000</speed>
</trkpt>
<trkpt lat="22.342440" lon="103.776276">
<ele>2020.235352</ele>
<time>2011-04-23T23:18:13Z</time>
<desc>lat.=22.342440, lon.=103.776276, Alt.=2020.235352m. Speed=1.944000m/h.</desc>
<speed>0.540000</speed>
</trkpt>
<trkpt lat="22.342400" lon="103.776283">
<ele>2019.204102</ele>
<time>2011-04-23T23:18:18Z</time>
<desc>lat.=22.342400, lon.=103.776283, Alt.=2019.204102m. Speed=2.448000m/h.</desc>
<speed>0.680000</speed>
</trkpt>
<trkpt lat="22.342381" lon="103.776291">
<ele>2018.610352</ele>
<time>2011-04-23T23:18:23Z</time>
<desc>lat.=22.342381, lon.=103.776291, Alt.=2018.610352m. Speed=1.620000m/h.</desc>
<speed>0.450000</speed>
</trkpt>
<trkpt lat="22.342323" lon="103.776344">
<ele>2017.735352</ele>
<time>2011-04-23T23:18:28Z</time>
<desc>lat.=22.342323, lon.=103.776344, Alt.=2017.735352m. Speed=6.120000m/h.</desc>
<speed>1.700000</speed>
</trkpt>
<trkpt lat="22.342287" lon="103.776382">
<ele>2017.704102</ele>
<time>2011-04-23T23:18:33Z</time>
<desc>lat.=22.342287, lon.=103.776382, Alt.=2017.704102m. Speed=3.204000m/h.</desc>
<speed>0.890000</speed>
</trkpt>
<trkpt lat="22.342251" lon="103.776375">
<ele>2014.766602</ele>
<time>2011-04-23T23:18:38Z</time>
<desc>lat.=22.342251, lon.=103.776375, Alt.=2014.766602m. Speed=5.832000m/h.</desc>
<speed>1.620000</speed>
</trkpt>
<trkpt lat="22.342249" lon="103.776352">
<ele>2012.079102</ele>
<time>2011-04-23T23:18:43Z</time>
<desc>lat.=22.342249, lon.=103.776352, Alt.=2012.079102m. Speed=0.432000m/h.</desc>
<speed>0.120000</speed>
</trkpt>
<trkpt lat="22.342234" lon="103.776329">
<ele>2009.985352</ele>
<time>2011-04-23T23:18:48Z</time>
<desc>lat.=22.342234, lon.=103.776329, Alt.=2009.985352m. Speed=2.952000m/h.</desc>
<speed>0.820000</speed>
</trkpt>
<trkpt lat="22.342192" lon="103.776375">
<ele>2007.704102</ele>
<time>2011-04-23T23:18:53Z</time>
<desc>lat.=22.342192, lon.=103.776375, Alt.=2007.704102m. Speed=3.096000m/h.</desc>
<speed>0.860000</speed>
</trkpt>
<trkpt lat="22.342161" lon="103.776390">
<ele>2008.704102</ele>
<time>2011-04-23T23:18:58Z</time>
<desc>lat.=22.342161, lon.=103.776390, Alt.=2008.704102m. Speed=1.224000m/h.</desc>
<speed>0.340000</speed>
</trkpt>
<trkpt lat="22.342150" lon="103.776390">
<ele>2007.422852</ele>
<time>2011-04-23T23:19:03Z</time>
<desc>lat.=22.342150, lon.=103.776390, Alt.=2007.422852m. Speed=2.304000m/h.</desc>
<speed>0.640000</speed>
</trkpt>
<trkpt lat="22.342129" lon="103.776398">
<ele>2007.829102</ele>
<time>2011-04-23T23:19:08Z</time>
<desc>lat.=22.342129, lon.=103.776398, Alt.=2007.829102m. Speed=1.584000m/h.</desc>
<speed>0.440000</speed>
</trkpt>
<trkpt lat="22.342081" lon="103.776405">
<ele>2007.704102</ele>
<time>2011-04-23T23:19:13Z</time>
<desc>lat.=22.342081, lon.=103.776405, Alt.=2007.704102m. Speed=3.492000m/h.</desc>
<speed>0.970000</speed>
</trkpt>
<trkpt lat="22.342045" lon="103.776390">
<ele>2008.047852</ele>
<time>2011-04-23T23:19:18Z</time>
<desc>lat.=22.342045, lon.=103.776390, Alt.=2008.047852m. Speed=6.048000m/h.</desc>
<speed>1.680000</speed>
</trkpt>
<trkpt lat="22.341972" lon="103.776413">
<ele>2007.735352</ele>
<time>2011-04-23T23:19:23Z</time>
<desc>lat.=22.341972, lon.=103.776413, Alt.=2007.735352m. Speed=5.904000m/h.</desc>
<speed>1.640000</speed>
</trkpt>
<trkpt lat="22.341898" lon="103.776405">
<ele>2007.016602</ele>
<time>2011-04-23T23:19:28Z</time>
<desc>lat.=22.341898, lon.=103.776405, Alt.=2007.016602m. Speed=5.940000m/h.</desc>
<speed>1.650000</speed>
</trkpt>
<trkpt lat="22.341829" lon="103.776428">
<ele>2004.797852</ele>
<time>2011-04-23T23:19:33Z</time>
<desc>lat.=22.341829, lon.=103.776428, Alt.=2004.797852m. Speed=4.860000m/h.</desc>
<speed>1.350000</speed>
</trkpt>
<trkpt lat="22.341774" lon="103.776451">
<ele>2004.204102</ele>
<time>2011-04-23T23:19:38Z</time>
<desc>lat.=22.341774, lon.=103.776451, Alt.=2004.204102m. Speed=5.688000m/h.</desc>
<speed>1.580000</speed>
</trkpt>
<trkpt lat="22.341715" lon="103.776459">
<ele>2001.985352</ele>
<time>2011-04-23T23:19:43Z</time>
<desc>lat.=22.341715, lon.=103.776459, Alt.=2001.985352m. Speed=4.392000m/h.</desc>
<speed>1.220000</speed>
</trkpt>
<trkpt lat="22.341660" lon="103.776482">
<ele>1998.985352</ele>
<time>2011-04-23T23:19:48Z</time>
<desc>lat.=22.341660, lon.=103.776482, Alt.=1998.985352m. Speed=5.328000m/h.</desc>
<speed>1.480000</speed>
</trkpt>
<trkpt lat="22.341597" lon="103.776466">
<ele>1997.516602</ele>
<time>2011-04-23T23:19:53Z</time>
<desc>lat.=22.341597, lon.=103.776466, Alt.=1997.516602m. Speed=6.084000m/h.</desc>
<speed>1.690000</speed>
</trkpt>
<trkpt lat="22.341547" lon="103.776466">
<ele>1996.297852</ele>
<time>2011-04-23T23:19:58Z</time>
<desc>lat.=22.341547, lon.=103.776466, Alt.=1996.297852m. Speed=4.572000m/h.</desc>
<speed>1.270000</speed>
</trkpt>
<trkpt lat="22.341522" lon="103.776466">
<ele>1993.547852</ele>
<time>2011-04-23T23:20:03Z</time>
<desc>lat.=22.341522, lon.=103.776466, Alt.=1993.547852m. Speed=1.116000m/h.</desc>
<speed>0.310000</speed>
</trkpt>
<trkpt lat="22.341516" lon="103.776421">
<ele>1991.422852</ele>
<time>2011-04-23T23:20:08Z</time>
<desc>lat.=22.341516, lon.=103.776421, Alt.=1991.422852m. Speed=3.168000m/h.</desc>
<speed>0.880000</speed>
</trkpt>
<trkpt lat="22.341499" lon="103.776405">
<ele>1989.829102</ele>
<time>2011-04-23T23:20:13Z</time>
<desc>lat.=22.341499, lon.=103.776405, Alt.=1989.829102m. Speed=1.188000m/h.</desc>
<speed>0.330000</speed>
</trkpt>
<trkpt lat="22.341494" lon="103.776413">
<ele>1988.360352</ele>
<time>2011-04-23T23:20:18Z</time>
<desc>lat.=22.341494, lon.=103.776413, Alt.=1988.360352m. Speed=1.296000m/h.</desc>
<speed>0.360000</speed>
</trkpt>
<trkpt lat="22.341490" lon="103.776413">
<ele>1987.797852</ele>
<time>2011-04-23T23:20:23Z</time>
<desc>lat.=22.341490, lon.=103.776413, Alt.=1987.797852m. Speed=0.396000m/h.</desc>
<speed>0.110000</speed>
</trkpt>
<trkpt lat="22.341496" lon="103.776413">
<ele>1988.079102</ele>
<time>2011-04-23T23:20:28Z</time>
<desc>lat.=22.341496, lon.=103.776413, Alt.=1988.079102m. Speed=0.468000m/h.</desc>
<speed>0.130000</speed>
</trkpt>
<trkpt lat="22.341503" lon="103.776421">
<ele>1987.860352</ele>
<time>2011-04-23T23:20:33Z</time>
<desc>lat.=22.341503, lon.=103.776421, Alt.=1987.860352m. Speed=1.080000m/h.</desc>
<speed>0.300000</speed>
</trkpt>
<trkpt lat="22.341484" lon="103.776428">
<ele>1988.954102</ele>
<time>2011-04-23T23:20:38Z</time>
<desc>lat.=22.341484, lon.=103.776428, Alt.=1988.954102m. Speed=0.648000m/h.</desc>
<speed>0.180000</speed>
</trkpt>
<trkpt lat="22.341496" lon="103.776443">
<ele>1988.704102</ele>
<time>2011-04-23T23:20:43Z</time>
<desc>lat.=22.341496, lon.=103.776443, Alt.=1988.704102m. Speed=0.360000m/h.</desc>
<speed>0.100000</speed>
</trkpt>
<trkpt lat="22.341497" lon="103.776436">
<ele>1988.360352</ele>
<time>2011-04-23T23:20:48Z</time>
<desc>lat.=22.341497, lon.=103.776436, Alt.=1988.360352m. Speed=0.000000m/h.</desc>
<speed>0.000000</speed>
</trkpt>
<trkpt lat="22.341496" lon="103.776436">
<ele>1988.516602</ele>
<time>2011-04-23T23:20:53Z</time>
<desc>lat.=22.341496, lon.=103.776436, Alt.=1988.516602m. Speed=1.080000m/h.</desc>
<speed>0.300000</speed>
</trkpt>
<trkpt lat="22.341497" lon="103.776428">
<ele>1988.297852</ele>
<time>2011-04-23T23:20:58Z</time>
<desc>lat.=22.341497, lon.=103.776428, Alt.=1988.297852m. Speed=0.396000m/h.</desc>
<speed>0.110000</speed>
</trkpt>
<trkpt lat="22.341499" lon="103.776436">
<ele>1988.329102</ele>
<time>2011-04-23T23:21:03Z</time>
<desc>lat.=22.341499, lon.=103.776436, Alt.=1988.329102m. Speed=0.504000m/h.</desc>
<speed>0.140000</speed>
</trkpt>
<trkpt lat="22.341503" lon="103.776436">
<ele>1988.360352</ele>
<time>2011-04-23T23:21:08Z</time>
<desc>lat.=22.341503, lon.=103.776436, Alt.=1988.360352m. Speed=0.720000m/h.</desc>
<speed>0.200000</speed>
</trkpt>
<trkpt lat="22.341507" lon="103.776436">
<ele>1988.360352</ele>
<time>2011-04-23T23:21:13Z</time>
<desc>lat.=22.341507, lon.=103.776436, Alt.=1988.360352m. Speed=0.072000m/h.</desc>
<speed>0.020000</speed>
</trkpt>
<trkpt lat="22.341507" lon="103.776436">
<ele>1988.360352</ele>
<time>2011-04-23T23:21:18Z</time>
<desc>lat.=22.341507, lon.=103.776436, Alt.=1988.360352m. Speed=0.360000m/h.</desc>
<speed>0.100000</speed>
</trkpt>
<trkpt lat="22.341505" lon="103.776436">
<ele>1988.391602</ele>
<time>2011-04-23T23:21:23Z</time>
<desc>lat.=22.341505, lon.=103.776436, Alt.=1988.391602m. Speed=0.360000m/h.</desc>
<speed>0.100000</speed>
</trkpt>
<trkpt lat="22.341505" lon="103.776443">
<ele>1988.422852</ele>
<time>2011-04-23T23:21:28Z</time>
<desc>lat.=22.341505, lon.=103.776443, Alt.=1988.422852m. Speed=0.540000m/h.</desc>
<speed>0.150000</speed>
</trkpt>
<trkpt lat="22.341511" lon="103.776443">
<ele>1988.454102</ele>
<time>2011-04-23T23:21:33Z</time>
<desc>lat.=22.341511, lon.=103.776443, Alt.=1988.454102m. Speed=0.468000m/h.</desc>
<speed>0.130000</speed>
</trkpt>
<trkpt lat="22.341515" lon="103.776451">
<ele>1988.454102</ele>
<time>2011-04-23T23:21:38Z</time>
<desc>lat.=22.341515, lon.=103.776451, Alt.=1988.454102m. Speed=0.864000m/h.</desc>
<speed>0.240000</speed>
</trkpt>
<trkpt lat="22.341516" lon="103.776451">
<ele>1988.454102</ele>
<time>2011-04-23T23:21:43Z</time>
<desc>lat.=22.341516, lon.=103.776451, Alt.=1988.454102m. Speed=0.072000m/h.</desc>
<speed>0.020000</speed>
</trkpt>
<trkpt lat="22.341515" lon="103.776443">
<ele>1988.360352</ele>
<time>2011-04-23T23:21:48Z</time>
<desc>lat.=22.341515, lon.=103.776443, Alt.=1988.360352m. Speed=1.332000m/h.</desc>
<speed>0.370000</speed>
</trkpt>
<trkpt lat="22.341507" lon="103.776413">
<ele>1987.422852</ele>
<time>2011-04-23T23:21:53Z</time>
<desc>lat.=22.341507, lon.=103.776413, Alt.=1987.422852m. Speed=0.288000m/h.</desc>
<speed>0.080000</speed>
</trkpt>
<trkpt lat="22.341513" lon="103.776421">
<ele>1987.485352</ele>
<time>2011-04-23T23:21:58Z</time>
<desc>lat.=22.341513, lon.=103.776421, Alt.=1987.485352m. Speed=0.216000m/h.</desc>
<speed>0.060000</speed>
</trkpt>
<trkpt lat="22.341509" lon="103.776421">
<ele>1987.485352</ele>
<time>2011-04-23T23:22:03Z</time>
<desc>lat.=22.341509, lon.=103.776421, Alt.=1987.485352m. Speed=0.144000m/h.</desc>
<speed>0.040000</speed>
</trkpt>
<trkpt lat="22.341505" lon="103.776421">
<ele>1987.485352</ele>
<time>2011-04-23T23:22:08Z</time>
<desc>lat.=22.341505, lon.=103.776421, Alt.=1987.485352m. Speed=0.720000m/h.</desc>
<speed>0.200000</speed>
</trkpt>
<trkpt lat="22.341505" lon="103.776421">
<ele>1987.454102</ele>
<time>2011-04-23T23:22:13Z</time>
<desc>lat.=22.341505, lon.=103.776421, Alt.=1987.454102m. Speed=0.252000m/h.</desc>
<speed>0.070000</speed>
</trkpt>
<trkpt lat="22.341503" lon="103.776421">
<ele>1987.422852</ele>
<time>2011-04-23T23:22:18Z</time>
<desc>lat.=22.341503, lon.=103.776421, Alt.=1987.422852m. Speed=0.432000m/h.</desc>
<speed>0.120000</speed>
</trkpt>
<trkpt lat="22.341509" lon="103.776421">
<ele>1987.391602</ele>
<time>2011-04-23T23:22:23Z</time>
<desc>lat.=22.341509, lon.=103.776421, Alt.=1987.391602m. Speed=1.080000m/h.</desc>
<speed>0.300000</speed>
</trkpt>
<trkpt lat="22.341526" lon="103.776405">
<ele>1987.485352</ele>
<time>2011-04-23T23:22:28Z</time>
<desc>lat.=22.341526, lon.=103.776405, Alt.=1987.485352m. Speed=3.132000m/h.</desc>
<speed>0.870000</speed>
</trkpt>
<trkpt lat="22.341536" lon="103.776398">
<ele>1986.672852</ele>
<time>2011-04-23T23:22:33Z</time>
<desc>lat.=22.341536, lon.=103.776398, Alt.=1986.672852m. Speed=2.196000m/h.</desc>
<speed>0.610000</speed>
</trkpt>
<trkpt lat="22.341558" lon="103.776382">
<ele>1985.454102</ele>
<time>2011-04-23T23:22:38Z</time>
<desc>lat.=22.341558, lon.=103.776382, Alt.=1985.454102m. Speed=2.232000m/h.</desc>
<speed>0.620000</speed>
</trkpt>
<trkpt lat="22.341549" lon="103.776382">
<ele>1984.797852</ele>
<time>2011-04-23T23:22:43Z</time>
<desc>lat.=22.341549, lon.=103.776382, Alt.=1984.797852m. Speed=1.260000m/h.</desc>
<speed>0.350000</speed>
</trkpt>
<trkpt lat="22.341524" lon="103.776413">
<ele>1983.360352</ele>
<time>2011-04-23T23:22:48Z</time>
<desc>lat.=22.341524, lon.=103.776413, Alt.=1983.360352m. Speed=0.828000m/h.</desc>
<speed>0.230000</speed>
</trkpt>
<trkpt lat="22.341511" lon="103.776428">
<ele>1983.704102</ele>
<time>2011-04-23T23:22:53Z</time>
<desc>lat.=22.341511, lon.=103.776428, Alt.=1983.704102m. Speed=0.360000m/h.</desc>
<speed>0.100000</speed>
</trkpt>
<trkpt lat="22.341507" lon="103.776428">
<ele>1983.922852</ele>
<time>2011-04-23T23:22:58Z</time>
<desc>lat.=22.341507, lon.=103.776428, Alt.=1983.922852m. Speed=0.144000m/h.</desc>
<speed>0.040000</speed>
</trkpt>
<trkpt lat="22.341501" lon="103.776428">
<ele>1983.766602</ele>
<time>2011-04-23T23:23:03Z</time>
<desc>lat.=22.341501, lon.=103.776428, Alt.=1983.766602m. Speed=0.180000m/h.</desc>
<speed>0.050000</speed>
</trkpt>
<trkpt lat="22.341501" lon="103.776428">
<ele>1983.766602</ele>
<time>2011-04-23T23:23:08Z</time>
<desc>lat.=22.341501, lon.=103.776428, Alt.=1983.766602m. Speed=0.612000m/h.</desc>
<speed>0.170000</speed>
</trkpt>
<trkpt lat="22.341509" lon="103.776428">
<ele>1983.704102</ele>
<time>2011-04-23T23:23:13Z</time>
<desc>lat.=22.341509, lon.=103.776428, Alt.=1983.704102m. Speed=0.576000m/h.</desc>
<speed>0.160000</speed>
</trkpt>
<trkpt lat="22.341516" lon="103.776421">
<ele>1983.579102</ele>
<time>2011-04-23T23:23:18Z</time>
<desc>lat.=22.341516, lon.=103.776421, Alt.=1983.579102m. Speed=0.468000m/h.</desc>
<speed>0.130000</speed>
</trkpt>
<trkpt lat="22.341520" lon="103.776421">
<ele>1983.454102</ele>
<time>2011-04-23T23:23:23Z</time>
<desc>lat.=22.341520, lon.=103.776421, Alt.=1983.454102m. Speed=0.072000m/h.</desc>
<speed>0.020000</speed>
</trkpt>
<trkpt lat="22.341520" lon="103.776421">
<ele>1983.266602</ele>
<time>2011-04-23T23:23:28Z</time>
<desc>lat.=22.341520, lon.=103.776421, Alt.=1983.266602m. Speed=0.108000m/h.</desc>
<speed>0.030000</speed>
</trkpt>
<trkpt lat="22.341520" lon="103.776421">
<ele>1983.172852</ele>
<time>2011-04-23T23:23:33Z</time>
<desc>lat.=22.341520, lon.=103.776421, Alt.=1983.172852m. Speed=0.072000m/h.</desc>
<speed>0.020000</speed>
</trkpt>
<trkpt lat="22.341520" lon="103.776421">
<ele>1983.047852</ele>
<time>2011-04-23T23:23:38Z</time>
<desc>lat.=22.341520, lon.=103.776421, Alt.=1983.047852m. Speed=0.072000m/h.</desc>
<speed>0.020000</speed>
</trkpt>
<trkpt lat="22.341522" lon="103.776421">
<ele>1982.954102</ele>
<time>2011-04-23T23:23:43Z</time>
<desc>lat.=22.341522, lon.=103.776421, Alt.=1982.954102m. Speed=0.108000m/h.</desc>
<speed>0.030000</speed>
</trkpt>
<trkpt lat="22.341522" lon="103.776421">
<ele>1982.860352</ele>
<time>2011-04-23T23:23:48Z</time>
<desc>lat.=22.341522, lon.=103.776421, Alt.=1982.860352m. Speed=0.108000m/h.</desc>
<speed>0.030000</speed>
</trkpt>
<trkpt lat="22.341522" lon="103.776421">
<ele>1982.829102</ele>
<time>2011-04-23T23:23:53Z</time>
<desc>lat.=22.341522, lon.=103.776421, Alt.=1982.829102m. Speed=0.216000m/h.</desc>
<speed>0.060000</speed>
</trkpt>
<trkpt lat="22.341522" lon="103.776421">
<ele>1982.735352</ele>
<time>2011-04-23T23:23:58Z</time>
<desc>lat.=22.341522, lon.=103.776421, Alt.=1982.735352m. Speed=0.000000m/h.</desc>
<speed>0.000000</speed>
</trkpt>
<trkpt lat="22.341522" lon="103.776421">
<ele>1982.641602</ele>
<time>2011-04-23T23:24:03Z</time>
<desc>lat.=22.341522, lon.=103.776421, Alt.=1982.641602m. Speed=0.252000m/h.</desc>
<speed>0.070000</speed>
</trkpt>
<trkpt lat="22.341522" lon="103.776421">
<ele>1982.516602</ele>
<time>2011-04-23T23:24:08Z</time>
<desc>lat.=22.341522, lon.=103.776421, Alt.=1982.516602m. Speed=0.072000m/h.</desc>
<speed>0.020000</speed>
</trkpt>
<trkpt lat="22.341520" lon="103.776428">
<ele>1982.360352</ele>
<time>2011-04-23T23:24:13Z</time>
<desc>lat.=22.341520, lon.=103.776428, Alt.=1982.360352m. Speed=0.540000m/h.</desc>
<speed>0.150000</speed>
</trkpt>
<trkpt lat="22.341520" lon="103.776436">
<ele>1982.329102</ele>
<time>2011-04-23T23:24:18Z</time>
<desc>lat.=22.341520, lon.=103.776436, Alt.=1982.329102m. Speed=0.144000m/h.</desc>
<speed>0.040000</speed>
</trkpt>
<trkpt lat="22.341518" lon="103.776436">
<ele>1982.266602</ele>
<time>2011-04-23T23:24:23Z</time>
<desc>lat.=22.341518, lon.=103.776436, Alt.=1982.266602m. Speed=0.180000m/h.</desc>
<speed>0.050000</speed>
</trkpt>
<trkpt lat="22.341518" lon="103.776436">
<ele>1982.235352</ele>
<time>2011-04-23T23:24:28Z</time>
<desc>lat.=22.341518, lon.=103.776436, Alt.=1982.235352m. Speed=0.324000m/h.</desc>
<speed>0.090000</speed>
</trkpt>
<trkpt lat="22.341520" lon="103.776436">
<ele>1982.204102</ele>
<time>2011-04-23T23:24:33Z</time>
<desc>lat.=22.341520, lon.=103.776436, Alt.=1982.204102m. Speed=0.108000m/h.</desc>
<speed>0.030000</speed>
</trkpt>
<trkpt lat="22.341522" lon="103.776436">
<ele>1982.141602</ele>
<time>2011-04-23T23:24:38Z</time>
<desc>lat.=22.341522, lon.=103.776436, Alt.=1982.141602m. Speed=0.000000m/h.</desc>
<speed>0.000000</speed>
</trkpt>
<trkpt lat="22.341522" lon="103.776436">
<ele>1982.079102</ele>
<time>2011-04-23T23:24:43Z</time>
<desc>lat.=22.341522, lon.=103.776436, Alt.=1982.079102m. Speed=0.000000m/h.</desc>
<speed>0.000000</speed>
</trkpt>
<trkpt lat="22.341522" lon="103.776436">
<ele>1982.047852</ele>
<time>2011-04-23T23:24:48Z</time>
<desc>lat.=22.341522, lon.=103.776436, Alt.=1982.047852m. Speed=0.108000m/h.</desc>
<speed>0.030000</speed>
</trkpt>
<trkpt lat="22.341520" lon="103.776428">
<ele>1981.985352</ele>
<time>2011-04-23T23:24:53Z</time>
<desc>lat.=22.341520, lon.=103.776428, Alt.=1981.985352m. Speed=0.108000m/h.</desc>
<speed>0.030000</speed>
</trkpt>
<trkpt lat="22.341518" lon="103.776428">
<ele>1981.922852</ele>
<time>2011-04-23T23:24:58Z</time>
<desc>lat.=22.341518, lon.=103.776428, Alt.=1981.922852m. Speed=1.008000m/h.</desc>
<speed>0.280000</speed>
</trkpt>
<trkpt lat="22.341518" lon="103.776428">
<ele>1981.954102</ele>
<time>2011-04-23T23:25:03Z</time>
<desc>lat.=22.341518, lon.=103.776428, Alt.=1981.954102m. Speed=0.360000m/h.</desc>
<speed>0.100000</speed>
</trkpt>
<trkpt lat="22.341513" lon="103.776428">
<ele>1981.860352</ele>
<time>2011-04-23T23:25:08Z</time>
<desc>lat.=22.341513, lon.=103.776428, Alt.=1981.860352m. Speed=3.168000m/h.</desc>
<speed>0.880000</speed>
</trkpt>
<trkpt lat="22.341509" lon="103.776421">
<ele>1980.891602</ele>
<time>2011-04-23T23:25:13Z</time>
<desc>lat.=22.341509, lon.=103.776421, Alt.=1980.891602m. Speed=0.252000m/h.</desc>
<speed>0.070000</speed>
</trkpt>
<trkpt lat="22.341509" lon="103.776421">
<ele>1980.641602</ele>
<time>2011-04-23T23:25:18Z</time>
<desc>lat.=22.341509, lon.=103.776421, Alt.=1980.641602m. Speed=0.036000m/h.</desc>
<speed>0.010000</speed>
</trkpt>
<trkpt lat="22.341507" lon="103.776421">
<ele>1980.547852</ele>
<time>2011-04-23T23:25:23Z</time>
<desc>lat.=22.341507, lon.=103.776421, Alt.=1980.547852m. Speed=0.036000m/h.</desc>
<speed>0.010000</speed>
</trkpt>
<trkpt lat="22.341507" lon="103.776421">
<ele>1980.485352</ele>
<time>2011-04-23T23:25:28Z</time>
<desc>lat.=22.341507, lon.=103.776421, Alt.=1980.485352m. Speed=0.072000m/h.</desc>
<speed>0.020000</speed>
</trkpt>
<trkpt lat="22.341507" lon="103.776421">
<ele>1980.454102</ele>
<time>2011-04-23T23:25:33Z</time>
<desc>lat.=22.341507, lon.=103.776421, Alt.=1980.454102m. Speed=0.072000m/h.</desc>
<speed>0.020000</speed>
</trkpt>
<trkpt lat="22.341507" lon="103.776421">
<ele>1980.454102</ele>
<time>2011-04-23T23:25:38Z</time>
<desc>lat.=22.341507, lon.=103.776421, Alt.=1980.454102m. Speed=0.144000m/h.</desc>
<speed>0.040000</speed>
</trkpt>
<trkpt lat="22.341507" lon="103.776421">
<ele>1980.422852</ele>
<time>2011-04-23T23:25:43Z</time>
<desc>lat.=22.341507, lon.=103.776421, Alt.=1980.422852m. Speed=0.468000m/h.</desc>
<speed>0.130000</speed>
</trkpt>
<trkpt lat="22.341497" lon="103.776421">
<ele>1980.204102</ele>
<time>2011-04-23T23:25:48Z</time>
<desc>lat.=22.341497, lon.=103.776421, Alt.=1980.204102m. Speed=0.072000m/h.</desc>
<speed>0.020000</speed>
</trkpt>
<trkpt lat="22.341499" lon="103.776428">
<ele>1979.797852</ele>
<time>2011-04-23T23:25:53Z</time>
<desc>lat.=22.341499, lon.=103.776428, Alt.=1979.797852m. Speed=0.288000m/h.</desc>
<speed>0.080000</speed>
</trkpt>
<trkpt lat="22.341497" lon="103.776428">
<ele>1979.891602</ele>
<time>2011-04-23T23:25:58Z</time>
<desc>lat.=22.341497, lon.=103.776428, Alt.=1979.891602m. Speed=1.224000m/h.</desc>
<speed>0.340000</speed>
</trkpt>
<trkpt lat="22.341476" lon="103.776398">
<ele>1979.829102</ele>
<time>2011-04-23T23:26:03Z</time>
<desc>lat.=22.341476, lon.=103.776398, Alt.=1979.829102m. Speed=3.924000m/h.</desc>
<speed>1.090000</speed>
</trkpt>
<trkpt lat="22.341434" lon="103.776360">
<ele>1979.016602</ele>
<time>2011-04-23T23:26:08Z</time>
<desc>lat.=22.341434, lon.=103.776360, Alt.=1979.016602m. Speed=3.960000m/h.</desc>
<speed>1.100000</speed>
</trkpt>
<trkpt lat="22.341402" lon="103.776306">
<ele>1978.704102</ele>
<time>2011-04-23T23:26:13Z</time>
<desc>lat.=22.341402, lon.=103.776306, Alt.=1978.704102m. Speed=5.040000m/h.</desc>
<speed>1.400000</speed>
</trkpt>
<trkpt lat="22.341354" lon="103.776253">
<ele>1979.797852</ele>
<time>2011-04-23T23:26:18Z</time>
<desc>lat.=22.341354, lon.=103.776253, Alt.=1979.797852m. Speed=5.688000m/h.</desc>
<speed>1.580000</speed>
</trkpt>
<trkpt lat="22.341311" lon="103.776215">
<ele>1980.297852</ele>
<time>2011-04-23T23:26:23Z</time>
<desc>lat.=22.341311, lon.=103.776215, Alt.=1980.297852m. Speed=4.176000m/h.</desc>
<speed>1.160000</speed>
</trkpt>
<trkpt lat="22.341284" lon="103.776169">
<ele>1981.860352</ele>
<time>2011-04-23T23:26:28Z</time>
<desc>lat.=22.341284, lon.=103.776169, Alt.=1981.860352m. Speed=2.700000m/h.</desc>
<speed>0.750000</speed>
</trkpt>
<trkpt lat="22.341238" lon="103.776138">
<ele>1982.766602</ele>
<time>2011-04-23T23:26:33Z</time>
<desc>lat.=22.341238, lon.=103.776138, Alt.=1982.766602m. Speed=4.428000m/h.</desc>
<speed>1.230000</speed>
</trkpt>
<trkpt lat="22.341166" lon="103.776115">
<ele>1983.797852</ele>
<time>2011-04-23T23:26:38Z</time>
<desc>lat.=22.341166, lon.=103.776115, Alt.=1983.797852m. Speed=4.824000m/h.</desc>
<speed>1.340000</speed>
</trkpt>
<trkpt lat="22.341127" lon="103.776093">
<ele>1985.329102</ele>
<time>2011-04-23T23:26:43Z</time>
<desc>lat.=22.341127, lon.=103.776093, Alt.=1985.329102m. Speed=3.924000m/h.</desc>
<speed>1.090000</speed>
</trkpt>
<trkpt lat="22.341057" lon="103.776085">
<ele>1987.047852</ele>
<time>2011-04-23T23:26:48Z</time>
<desc>lat.=22.341057, lon.=103.776085, Alt.=1987.047852m. Speed=3.996000m/h.</desc>
<speed>1.110000</speed>
</trkpt>
<trkpt lat="22.341026" lon="103.776070">
<ele>1989.172852</ele>
<time>2011-04-23T23:26:53Z</time>
<desc>lat.=22.341026, lon.=103.776070, Alt.=1989.172852m. Speed=1.908000m/h.</desc>
<speed>0.530000</speed>
</trkpt>
<trkpt lat="22.341017" lon="103.776085">
<ele>1989.829102</ele>
<time>2011-04-23T23:26:58Z</time>
<desc>lat.=22.341017, lon.=103.776085, Alt.=1989.829102m. Speed=0.468000m/h.</desc>
<speed>0.130000</speed>
</trkpt>
<trkpt lat="22.340984" lon="103.776093">
<ele>1990.110352</ele>
<time>2011-04-23T23:27:03Z</time>
<desc>lat.=22.340984, lon.=103.776093, Alt.=1990.110352m. Speed=1.980000m/h.</desc>
<speed>0.550000</speed>
</trkpt>
<trkpt lat="22.340916" lon="103.776100">
<ele>1991.172852</ele>
<time>2011-04-23T23:27:08Z</time>
<desc>lat.=22.340916, lon.=103.776100, Alt.=1991.172852m. Speed=5.220000m/h.</desc>
<speed>1.450000</speed>
</trkpt>
<trkpt lat="22.340870" lon="103.776131">
<ele>1993.454102</ele>
<time>2011-04-23T23:27:13Z</time>
<desc>lat.=22.340870, lon.=103.776131, Alt.=1993.454102m. Speed=5.760000m/h.</desc>
<speed>1.600000</speed>
</trkpt>
<trkpt lat="22.340818" lon="103.776146">
<ele>1994.110352</ele>
<time>2011-04-23T23:27:18Z</time>
<desc>lat.=22.340818, lon.=103.776146, Alt.=1994.110352m. Speed=2.844000m/h.</desc>
<speed>0.790000</speed>
</trkpt>
<trkpt lat="22.340788" lon="103.776169">
<ele>1994.891602</ele>
<time>2011-04-23T23:27:23Z</time>
<desc>lat.=22.340788, lon.=103.776169, Alt.=1994.891602m. Speed=2.664000m/h.</desc>
<speed>0.740000</speed>
</trkpt>
<trkpt lat="22.340752" lon="103.776230">
<ele>1995.360352</ele>
<time>2011-04-23T23:27:28Z</time>
<desc>lat.=22.340752, lon.=103.776230, Alt.=1995.360352m. Speed=0.792000m/h.</desc>
<speed>0.220000</speed>
</trkpt>
<trkpt lat="22.340727" lon="103.776215">
<ele>1995.891602</ele>
<time>2011-04-23T23:27:33Z</time>
<desc>lat.=22.340727, lon.=103.776215, Alt.=1995.891602m. Speed=2.232000m/h.</desc>
<speed>0.620000</speed>
</trkpt>
<trkpt lat="22.340687" lon="103.776192">
<ele>1997.266602</ele>
<time>2011-04-23T23:27:38Z</time>
<desc>lat.=22.340687, lon.=103.776192, Alt.=1997.266602m. Speed=3.564000m/h.</desc>
<speed>0.990000</speed>
</trkpt>
<trkpt lat="22.340664" lon="103.776192">
<ele>1998.766602</ele>
<time>2011-04-23T23:27:43Z</time>
<desc>lat.=22.340664, lon.=103.776192, Alt.=1998.766602m. Speed=2.520000m/h.</desc>
<speed>0.700000</speed>
</trkpt>
<trkpt lat="22.340645" lon="103.776184">
<ele>2000.329102</ele>
<time>2011-04-23T23:27:48Z</time>
<desc>lat.=22.340645, lon.=103.776184, Alt.=2000.329102m. Speed=2.628000m/h.</desc>
<speed>0.730000</speed>
</trkpt>
<trkpt lat="22.340652" lon="103.776192">
<ele>2001.485352</ele>
<time>2011-04-23T23:27:53Z</time>
<desc>lat.=22.340652, lon.=103.776192, Alt.=2001.485352m. Speed=0.108000m/h.</desc>
<speed>0.030000</speed>
</trkpt>
<trkpt lat="22.340643" lon="103.776184">
<ele>2002.704102</ele>
<time>2011-04-23T23:27:58Z</time>
<desc>lat.=22.340643, lon.=103.776184, Alt.=2002.704102m. Speed=1.044000m/h.</desc>
<speed>0.290000</speed>
</trkpt>
<trkpt lat="22.340641" lon="103.776199">
<ele>2002.766602</ele>
<time>2011-04-23T23:28:03Z</time>
<desc>lat.=22.340641, lon.=103.776199, Alt.=2002.766602m. Speed=2.088000m/h.</desc>
<speed>0.580000</speed>
</trkpt>
<trkpt lat="22.340641" lon="103.776207">
<ele>2003.922852</ele>
<time>2011-04-23T23:28:08Z</time>
<desc>lat.=22.340641, lon.=103.776207, Alt.=2003.922852m. Speed=2.232000m/h.</desc>
<speed>0.620000</speed>
</trkpt>
<trkpt lat="22.340588" lon="103.776237">
<ele>2004.485352</ele>
<time>2011-04-23T23:28:13Z</time>
<desc>lat.=22.340588, lon.=103.776237, Alt.=2004.485352m. Speed=1.152000m/h.</desc>
<speed>0.320000</speed>
</trkpt>
<trkpt lat="22.340546" lon="103.776222">
<ele>2004.954102</ele>
<time>2011-04-23T23:28:18Z</time>
<desc>lat.=22.340546, lon.=103.776222, Alt.=2004.954102m. Speed=1.548000m/h.</desc>
<speed>0.430000</speed>
</trkpt>
<trkpt lat="22.340532" lon="103.776215">
<ele>2006.141602</ele>
<time>2011-04-23T23:28:23Z</time>
<desc>lat.=22.340532, lon.=103.776215, Alt.=2006.141602m. Speed=1.476000m/h.</desc>
<speed>0.410000</speed>
</trkpt>
<trkpt lat="22.340523" lon="103.776207">
<ele>2006.797852</ele>
<time>2011-04-23T23:28:28Z</time>
<desc>lat.=22.340523, lon.=103.776207, Alt.=2006.797852m. Speed=0.864000m/h.</desc>
<speed>0.240000</speed>
</trkpt>
<trkpt lat="22.340504" lon="103.776192">
<ele>2008.079102</ele>
<time>2011-04-23T23:28:33Z</time>
<desc>lat.=22.340504, lon.=103.776192, Alt.=2008.079102m. Speed=1.836000m/h.</desc>
<speed>0.510000</speed>
</trkpt>
<trkpt lat="22.340467" lon="103.776169">
<ele>2010.485352</ele>
<time>2011-04-23T23:28:38Z</time>
<desc>lat.=22.340467, lon.=103.776169, Alt.=2010.485352m. Speed=1.512000m/h.</desc>
<speed>0.420000</speed>
</trkpt>
<trkpt lat="22.340439" lon="103.776169">
<ele>2011.454102</ele>
<time>2011-04-23T23:28:43Z</time>
<desc>lat.=22.340439, lon.=103.776169, Alt.=2011.454102m. Speed=2.052000m/h.</desc>
<speed>0.570000</speed>
</trkpt>
<trkpt lat="22.340406" lon="103.776169">
<ele>2012.735352</ele>
<time>2011-04-23T23:28:48Z</time>
<desc>lat.=22.340406, lon.=103.776169, Alt.=2012.735352m. Speed=2.124000m/h.</desc>
<speed>0.590000</speed>
</trkpt>
<trkpt lat="22.340359" lon="103.776154">
<ele>2014.297852</ele>
<time>2011-04-23T23:28:53Z</time>
<desc>lat.=22.340359, lon.=103.776154, Alt.=2014.297852m. Speed=3.024000m/h.</desc>
<speed>0.840000</speed>
</trkpt>
<trkpt lat="22.340326" lon="103.776146">
<ele>2016.141602</ele>
<time>2011-04-23T23:28:58Z</time>
<desc>lat.=22.340326, lon.=103.776146, Alt.=2016.141602m. Speed=1.908000m/h.</desc>
<speed>0.530000</speed>
</trkpt>
<trkpt lat="22.340317" lon="103.776123">
<ele>2017.454102</ele>
<time>2011-04-23T23:29:03Z</time>
<desc>lat.=22.340317, lon.=103.776123, Alt.=2017.454102m. Speed=2.664000m/h.</desc>
<speed>0.740000</speed>
</trkpt>
<trkpt lat="22.340277" lon="103.776123">
<ele>2018.391602</ele>
<time>2011-04-23T23:29:08Z</time>
<desc>lat.=22.340277, lon.=103.776123, Alt.=2018.391602m. Speed=2.808000m/h.</desc>
<speed>0.780000</speed>
</trkpt>
<trkpt lat="22.340239" lon="103.776123">
<ele>2019.141602</ele>
<time>2011-04-23T23:29:13Z</time>
<desc>lat.=22.340239, lon.=103.776123, Alt.=2019.141602m. Speed=3.348000m/h.</desc>
<speed>0.930000</speed>
</trkpt>
<trkpt lat="22.340219" lon="103.776115">
<ele>2020.672852</ele>
<time>2011-04-23T23:29:18Z</time>
<desc>lat.=22.340219, lon.=103.776115, Alt.=2020.672852m. Speed=2.160000m/h.</desc>
<speed>0.600000</speed>
</trkpt>
<trkpt lat="22.340185" lon="103.776108">
<ele>2022.235352</ele>
<time>2011-04-23T23:29:23Z</time>
<desc>lat.=22.340185, lon.=103.776108, Alt.=2022.235352m. Speed=3.672000m/h.</desc>
<speed>1.020000</speed>
</trkpt>
<trkpt lat="22.340160" lon="103.776108">
<ele>2023.329102</ele>
<time>2011-04-23T23:29:28Z</time>
<desc>lat.=22.340160, lon.=103.776108, Alt.=2023.329102m. Speed=1.404000m/h.</desc>
<speed>0.390000</speed>
</trkpt>
<trkpt lat="22.340149" lon="103.776100">
<ele>2023.985352</ele>
<time>2011-04-23T23:29:33Z</time>
<desc>lat.=22.340149, lon.=103.776100, Alt.=2023.985352m. Speed=1.764000m/h.</desc>
<speed>0.490000</speed>
</trkpt>
<trkpt lat="22.340124" lon="103.776077">
<ele>2024.579102</ele>
<time>2011-04-23T23:29:38Z</time>
<desc>lat.=22.340124, lon.=103.776077, Alt.=2024.579102m. Speed=2.232000m/h.</desc>
<speed>0.620000</speed>
</trkpt>
<trkpt lat="22.340101" lon="103.776062">
<ele>2025.610352</ele>
<time>2011-04-23T23:29:43Z</time>
<desc>lat.=22.340101, lon.=103.776062, Alt.=2025.610352m. Speed=2.592000m/h.</desc>
<speed>0.720000</speed>
</trkpt>
<trkpt lat="22.340065" lon="103.776039">
<ele>2027.172852</ele>
<time>2011-04-23T23:29:48Z</time>
<desc>lat.=22.340065, lon.=103.776039, Alt.=2027.172852m. Speed=2.124000m/h.</desc>
<speed>0.590000</speed>
</trkpt>
<trkpt lat="22.340015" lon="103.776016">
<ele>2026.672852</ele>
<time>2011-04-23T23:29:53Z</time>
<desc>lat.=22.340015, lon.=103.776016, Alt.=2026.672852m. Speed=2.016000m/h.</desc>
<speed>0.560000</speed>
</trkpt>
<trkpt lat="22.339979" lon="103.775993">
<ele>2026.610352</ele>
<time>2011-04-23T23:29:58Z</time>
<desc>lat.=22.339979, lon.=103.775993, Alt.=2026.610352m. Speed=2.844000m/h.</desc>
<speed>0.790000</speed>
</trkpt>
<trkpt lat="22.339947" lon="103.775993">
<ele>2028.016602</ele>
<time>2011-04-23T23:30:03Z</time>
<desc>lat.=22.339947, lon.=103.775993, Alt.=2028.016602m. Speed=2.196000m/h.</desc>
<speed>0.610000</speed>
</trkpt>
<trkpt lat="22.339930" lon="103.775986">
<ele>2029.485352</ele>
<time>2011-04-23T23:30:08Z</time>
<desc>lat.=22.339930, lon.=103.775986, Alt.=2029.485352m. Speed=1.980000m/h.</desc>
<speed>0.550000</speed>
</trkpt>
<trkpt lat="22.339882" lon="103.775986">
<ele>2030.954102</ele>
<time>2011-04-23T23:30:13Z</time>
<desc>lat.=22.339882, lon.=103.775986, Alt.=2030.954102m. Speed=2.556000m/h.</desc>
<speed>0.710000</speed>
</trkpt>
<trkpt lat="22.339834" lon="103.776009">
<ele>2032.297852</ele>
<time>2011-04-23T23:30:18Z</time>
<desc>lat.=22.339834, lon.=103.776009, Alt.=2032.297852m. Speed=3.024000m/h.</desc>
<speed>0.840000</speed>
</trkpt>
<trkpt lat="22.339811" lon="103.775993">
<ele>2032.954102</ele>
<time>2011-04-23T23:30:23Z</time>
<desc>lat.=22.339811, lon.=103.775993, Alt.=2032.954102m. Speed=1.044000m/h.</desc>
<speed>0.290000</speed>
</trkpt>
<trkpt lat="22.339796" lon="103.775970">
<ele>2033.235352</ele>
<time>2011-04-23T23:30:28Z</time>
<desc>lat.=22.339796, lon.=103.775970, Alt.=2033.235352m. Speed=1.080000m/h.</desc>
<speed>0.300000</speed>
</trkpt>
<trkpt lat="22.339771" lon="103.775955">
<ele>2033.641602</ele>
<time>2011-04-23T23:30:33Z</time>
<desc>lat.=22.339771, lon.=103.775955, Alt.=2033.641602m. Speed=1.368000m/h.</desc>
<speed>0.380000</speed>
</trkpt>
<trkpt lat="22.339729" lon="103.775917">
<ele>2033.735352</ele>
<time>2011-04-23T23:30:38Z</time>
<desc>lat.=22.339729, lon.=103.775917, Alt.=2033.735352m. Speed=2.520000m/h.</desc>
<speed>0.700000</speed>
</trkpt>
<trkpt lat="22.339697" lon="103.775909">
<ele>2034.266602</ele>
<time>2011-04-23T23:30:43Z</time>
<desc>lat.=22.339697, lon.=103.775909, Alt.=2034.266602m. Speed=1.836000m/h.</desc>
<speed>0.510000</speed>
</trkpt>
<trkpt lat="22.339687" lon="103.775902">
<ele>2034.954102</ele>
<time>2011-04-23T23:30:48Z</time>
<desc>lat.=22.339687, lon.=103.775902, Alt.=2034.954102m. Speed=1.980000m/h.</desc>
<speed>0.550000</speed>
</trkpt>
<trkpt lat="22.339682" lon="103.775925">
<ele>2035.329102</ele>
<time>2011-04-23T23:30:53Z</time>
<desc>lat.=22.339682, lon.=103.775925, Alt.=2035.329102m. Speed=0.648000m/h.</desc>
<speed>0.180000</speed>
</trkpt>
<trkpt lat="22.339668" lon="103.775932">
<ele>2036.204102</ele>
<time>2011-04-23T23:30:58Z</time>
<desc>lat.=22.339668, lon.=103.775932, Alt.=2036.204102m. Speed=1.332000m/h.</desc>
<speed>0.370000</speed>
</trkpt>
<trkpt lat="22.339651" lon="103.775948">
<ele>2036.829102</ele>
<time>2011-04-23T23:31:03Z</time>
<desc>lat.=22.339651, lon.=103.775948, Alt.=2036.829102m. Speed=2.880000m/h.</desc>
<speed>0.800000</speed>
</trkpt>
<trkpt lat="22.339624" lon="103.775940">
<ele>2039.079102</ele>
<time>2011-04-23T23:31:08Z</time>
<desc>lat.=22.339624, lon.=103.775940, Alt.=2039.079102m. Speed=1.116000m/h.</desc>
<speed>0.310000</speed>
</trkpt>
<trkpt lat="22.339624" lon="103.775940">
<ele>2041.422852</ele>
<time>2011-04-23T23:31:13Z</time>
<desc>lat.=22.339624, lon.=103.775940, Alt.=2041.422852m. Speed=0.576000m/h.</desc>
<speed>0.160000</speed>
</trkpt>
<trkpt lat="22.339613" lon="103.775932">
<ele>2041.735352</ele>
<time>2011-04-23T23:31:18Z</time>
<desc>lat.=22.339613, lon.=103.775932, Alt.=2041.735352m. Speed=2.988000m/h.</desc>
<speed>0.830000</speed>
</trkpt>
<trkpt lat="22.339594" lon="103.775909">
<ele>2044.141602</ele>
<time>2011-04-23T23:31:23Z</time>
<desc>lat.=22.339594, lon.=103.775909, Alt.=2044.141602m. Speed=2.556000m/h.</desc>
<speed>0.710000</speed>
</trkpt>
<trkpt lat="22.339548" lon="103.775925">
<ele>2045.360352</ele>
<time>2011-04-23T23:31:28Z</time>
<desc>lat.=22.339548, lon.=103.775925, Alt.=2045.360352m. Speed=3.492000m/h.</desc>
<speed>0.970000</speed>
</trkpt>
<trkpt lat="22.339510" lon="103.775902">
<ele>2047.454102</ele>
<time>2011-04-23T23:31:33Z</time>
<desc>lat.=22.339510, lon.=103.775902, Alt.=2047.454102m. Speed=2.736000m/h.</desc>
<speed>0.760000</speed>
</trkpt>
<trkpt lat="22.339487" lon="103.775887">
<ele>2051.033203</ele>
<time>2011-04-23T23:31:38Z</time>
<desc>lat.=22.339487, lon.=103.775887, Alt.=2051.033203m. Speed=1.908000m/h.</desc>
<speed>0.530000</speed>
</trkpt>
<trkpt lat="22.339462" lon="103.775894">
<ele>2053.095703</ele>
<time>2011-04-23T23:31:43Z</time>
<desc>lat.=22.339462, lon.=103.775894, Alt.=2053.095703m. Speed=1.440000m/h.</desc>
<speed>0.400000</speed>
</trkpt>
<trkpt lat="22.339441" lon="103.775894">
<ele>2054.158203</ele>
<time>2011-04-23T23:31:48Z</time>
<desc>lat.=22.339441, lon.=103.775894, Alt.=2054.158203m. Speed=1.296000m/h.</desc>
<speed>0.360000</speed>
</trkpt>
<trkpt lat="22.339428" lon="103.775879">
<ele>2055.220703</ele>
<time>2011-04-23T23:31:53Z</time>
<desc>lat.=22.339428, lon.=103.775879, Alt.=2055.220703m. Speed=2.484000m/h.</desc>
<speed>0.690000</speed>
</trkpt>
<trkpt lat="22.339407" lon="103.775879">
<ele>2056.345703</ele>
<time>2011-04-23T23:31:58Z</time>
<desc>lat.=22.339407, lon.=103.775879, Alt.=2056.345703m. Speed=0.900000m/h.</desc>
<speed>0.250000</speed>
</trkpt>
<trkpt lat="22.339394" lon="103.775871">
<ele>2057.595703</ele>
<time>2011-04-23T23:32:03Z</time>
<desc>lat.=22.339394, lon.=103.775871, Alt.=2057.595703m. Speed=1.476000m/h.</desc>
<speed>0.410000</speed>
</trkpt>
<trkpt lat="22.339371" lon="103.775864">
<ele>2059.970703</ele>
<time>2011-04-23T23:32:08Z</time>
<desc>lat.=22.339371, lon.=103.775864, Alt.=2059.970703m. Speed=2.448000m/h.</desc>
<speed>0.680000</speed>
</trkpt>
<trkpt lat="22.339338" lon="103.775864">
<ele>2061.220703</ele>
<time>2011-04-23T23:32:13Z</time>
<desc>lat.=22.339338, lon.=103.775864, Alt.=2061.220703m. Speed=4.176000m/h.</desc>
<speed>1.160000</speed>
</trkpt>
<trkpt lat="22.339321" lon="103.775902">
<ele>2063.158203</ele>
<time>2011-04-23T23:32:18Z</time>
<desc>lat.=22.339321, lon.=103.775902, Alt.=2063.158203m. Speed=3.960000m/h.</desc>
<speed>1.100000</speed>
</trkpt>
<trkpt lat="22.339285" lon="103.775948">
<ele>2065.283203</ele>
<time>2011-04-23T23:32:23Z</time>
<desc>lat.=22.339285, lon.=103.775948, Alt.=2065.283203m. Speed=3.852000m/h.</desc>
<speed>1.070000</speed>
</trkpt>
<trkpt lat="22.339245" lon="103.775986">
<ele>2066.658203</ele>
<time>2011-04-23T23:32:28Z</time>
<desc>lat.=22.339245, lon.=103.775986, Alt.=2066.658203m. Speed=3.996000m/h.</desc>
<speed>1.110000</speed>
</trkpt>
<trkpt lat="22.339212" lon="103.776024">
<ele>2066.845703</ele>
<time>2011-04-23T23:32:33Z</time>
<desc>lat.=22.339212, lon.=103.776024, Alt.=2066.845703m. Speed=2.412000m/h.</desc>
<speed>0.670000</speed>
</trkpt>
<trkpt lat="22.339172" lon="103.776039">
<ele>2068.845703</ele>
<time>2011-04-23T23:32:38Z</time>
<desc>lat.=22.339172, lon.=103.776039, Alt.=2068.845703m. Speed=4.536000m/h.</desc>
<speed>1.260000</speed>
</trkpt>
<trkpt lat="22.339140" lon="103.776085">
<ele>2070.158203</ele>
<time>2011-04-23T23:32:43Z</time>
<desc>lat.=22.339140, lon.=103.776085, Alt.=2070.158203m. Speed=2.952000m/h.</desc>
<speed>0.820000</speed>
</trkpt>
<trkpt lat="22.339121" lon="103.776093">
<ele>2071.845703</ele>
<time>2011-04-23T23:32:48Z</time>
<desc>lat.=22.339121, lon.=103.776093, Alt.=2071.845703m. Speed=1.548000m/h.</desc>
<speed>0.430000</speed>
</trkpt>
<trkpt lat="22.339108" lon="103.776093">
<ele>2072.908203</ele>
<time>2011-04-23T23:32:53Z</time>
<desc>lat.=22.339108, lon.=103.776093, Alt.=2072.908203m. Speed=1.584000m/h.</desc>
<speed>0.440000</speed>
</trkpt>
<trkpt lat="22.339081" lon="103.776093">
<ele>2074.220703</ele>
<time>2011-04-23T23:32:58Z</time>
<desc>lat.=22.339081, lon.=103.776093, Alt.=2074.220703m. Speed=4.896000m/h.</desc>
<speed>1.360000</speed>
</trkpt>
<trkpt lat="22.339041" lon="103.776123">
<ele>2074.658203</ele>
<time>2011-04-23T23:33:03Z</time>
<desc>lat.=22.339041, lon.=103.776123, Alt.=2074.658203m. Speed=4.608000m/h.</desc>
<speed>1.280000</speed>
</trkpt>
<trkpt lat="22.339020" lon="103.776138">
<ele>2076.720703</ele>
<time>2011-04-23T23:33:08Z</time>
<desc>lat.=22.339020, lon.=103.776138, Alt.=2076.720703m. Speed=1.512000m/h.</desc>
<speed>0.420000</speed>
</trkpt>
<trkpt lat="22.339010" lon="103.776176">
<ele>2079.345703</ele>
<time>2011-04-23T23:33:13Z</time>
<desc>lat.=22.339010, lon.=103.776176, Alt.=2079.345703m. Speed=3.204000m/h.</desc>
<speed>0.890000</speed>
</trkpt>
<trkpt lat="22.339003" lon="103.776169">
<ele>2080.408203</ele>
<time>2011-04-23T23:33:18Z</time>
<desc>lat.=22.339003, lon.=103.776169, Alt.=2080.408203m. Speed=0.540000m/h.</desc>
<speed>0.150000</speed>
</trkpt>
<trkpt lat="22.339001" lon="103.776176">
<ele>2081.908203</ele>
<time>2011-04-23T23:33:23Z</time>
<desc>lat.=22.339001, lon.=103.776176, Alt.=2081.908203m. Speed=1.620000m/h.</desc>
<speed>0.450000</speed>
</trkpt>
<trkpt lat="22.338989" lon="103.776184">
<ele>2082.720703</ele>
<time>2011-04-23T23:33:28Z</time>
<desc>lat.=22.338989, lon.=103.776184, Alt.=2082.720703m. Speed=1.404000m/h.</desc>
<speed>0.390000</speed>
</trkpt>
<trkpt lat="22.338993" lon="103.776169">
<ele>2082.345703</ele>
<time>2011-04-23T23:33:33Z</time>
<desc>lat.=22.338993, lon.=103.776169, Alt.=2082.345703m. Speed=0.396000m/h.</desc>
<speed>0.110000</speed>
</trkpt>
<trkpt lat="22.338993" lon="103.776169">
<ele>2083.158203</ele>
<time>2011-04-23T23:33:38Z</time>
<desc>lat.=22.338993, lon.=103.776169, Alt.=2083.158203m. Speed=1.080000m/h.</desc>
<speed>0.300000</speed>
</trkpt>
<trkpt lat="22.338985" lon="103.776237">
<ele>2083.908203</ele>
<time>2011-04-23T23:33:43Z</time>
<desc>lat.=22.338985, lon.=103.776237, Alt.=2083.908203m. Speed=4.320000m/h.</desc>
<speed>1.200000</speed>
</trkpt>
<trkpt lat="22.338980" lon="103.776291">
<ele>2085.470703</ele>
<time>2011-04-23T23:33:48Z</time>
<desc>lat.=22.338980, lon.=103.776291, Alt.=2085.470703m. Speed=5.112000m/h.</desc>
<speed>1.420000</speed>
</trkpt>
<trkpt lat="22.338928" lon="103.776321">
<ele>2086.220703</ele>
<time>2011-04-23T23:33:53Z</time>
<desc>lat.=22.338928, lon.=103.776321, Alt.=2086.220703m. Speed=3.312000m/h.</desc>
<speed>0.920000</speed>
</trkpt>
<trkpt lat="22.338902" lon="103.776337">
<ele>2086.720703</ele>
<time>2011-04-23T23:33:58Z</time>
<desc>lat.=22.338902, lon.=103.776337, Alt.=2086.720703m. Speed=3.888000m/h.</desc>
<speed>1.080000</speed>
</trkpt>
<trkpt lat="22.338911" lon="103.776382">
<ele>2089.033203</ele>
<time>2011-04-23T23:34:03Z</time>
<desc>lat.=22.338911, lon.=103.776382, Alt.=2089.033203m. Speed=4.824000m/h.</desc>
<speed>1.340000</speed>
</trkpt>
<trkpt lat="22.338882" lon="103.776459">
<ele>2091.845703</ele>
<time>2011-04-23T23:34:08Z</time>
<desc>lat.=22.338882, lon.=103.776459, Alt.=2091.845703m. Speed=2.232000m/h.</desc>
<speed>0.620000</speed>
</trkpt>
<trkpt lat="22.338858" lon="103.776505">
<ele>2094.220703</ele>
<time>2011-04-23T23:34:13Z</time>
<desc>lat.=22.338858, lon.=103.776505, Alt.=2094.220703m. Speed=3.780000m/h.</desc>
<speed>1.050000</speed>
</trkpt>
<trkpt lat="22.338848" lon="103.776535">
<ele>2095.658203</ele>
<time>2011-04-23T23:34:18Z</time>
<desc>lat.=22.338848, lon.=103.776535, Alt.=2095.658203m. Speed=2.448000m/h.</desc>
<speed>0.680000</speed>
</trkpt>
<trkpt lat="22.338823" lon="103.776558">
<ele>2096.658203</ele>
<time>2011-04-23T23:34:23Z</time>
<desc>lat.=22.338823, lon.=103.776558, Alt.=2096.658203m. Speed=2.988000m/h.</desc>
<speed>0.830000</speed>
</trkpt>
<trkpt lat="22.338789" lon="103.776588">
<ele>2097.845703</ele>
<time>2011-04-23T23:34:28Z</time>
<desc>lat.=22.338789, lon.=103.776588, Alt.=2097.845703m. Speed=4.428000m/h.</desc>
<speed>1.230000</speed>
</trkpt>
<trkpt lat="22.338774" lon="103.776619">
<ele>2097.283203</ele>
<time>2011-04-23T23:34:33Z</time>
<desc>lat.=22.338774, lon.=103.776619, Alt.=2097.283203m. Speed=0.576000m/h.</desc>
<speed>0.160000</speed>
</trkpt>
<trkpt lat="22.338749" lon="103.776619">
<ele>2097.345703</ele>
<time>2011-04-23T23:34:38Z</time>
<desc>lat.=22.338749, lon.=103.776619, Alt.=2097.345703m. Speed=2.952000m/h.</desc>
<speed>0.820000</speed>
</trkpt>
<trkpt lat="22.338715" lon="103.776604">
<ele>2098.533203</ele>
<time>2011-04-23T23:34:43Z</time>
<desc>lat.=22.338715, lon.=103.776604, Alt.=2098.533203m. Speed=3.240000m/h.</desc>
<speed>0.900000</speed>
</trkpt>
<trkpt lat="22.338673" lon="103.776634">
<ele>2100.095703</ele>
<time>2011-04-23T23:34:48Z</time>
<desc>lat.=22.338673, lon.=103.776634, Alt.=2100.095703m. Speed=3.312000m/h.</desc>
<speed>0.920000</speed>
</trkpt>
<trkpt lat="22.338642" lon="103.776703">
<ele>2100.345703</ele>
<time>2011-04-23T23:34:53Z</time>
<desc>lat.=22.338642, lon.=103.776703, Alt.=2100.345703m. Speed=3.492000m/h.</desc>
<speed>0.970000</speed>
</trkpt>
<trkpt lat="22.338634" lon="103.776726">
<ele>2101.595703</ele>
<time>2011-04-23T23:34:58Z</time>
<desc>lat.=22.338634, lon.=103.776726, Alt.=2101.595703m. Speed=2.088000m/h.</desc>
<speed>0.580000</speed>
</trkpt>
<trkpt lat="22.338602" lon="103.776741">
<ele>2102.970703</ele>
<time>2011-04-23T23:35:03Z</time>
<desc>lat.=22.338602, lon.=103.776741, Alt.=2102.970703m. Speed=3.852000m/h.</desc>
<speed>1.070000</speed>
</trkpt>
<trkpt lat="22.338570" lon="103.776779">
<ele>2103.720703</ele>
<time>2011-04-23T23:35:08Z</time>
<desc>lat.=22.338570, lon.=103.776779, Alt.=2103.720703m. Speed=3.312000m/h.</desc>
<speed>0.920000</speed>
</trkpt>
<trkpt lat="22.338541" lon="103.776817">
<ele>2104.783203</ele>
<time>2011-04-23T23:35:13Z</time>
<desc>lat.=22.338541, lon.=103.776817, Alt.=2104.783203m. Speed=3.420000m/h.</desc>
<speed>0.950000</speed>
</trkpt>
<trkpt lat="22.338533" lon="103.776810">
<ele>2105.408203</ele>
<time>2011-04-23T23:35:18Z</time>
<desc>lat.=22.338533, lon.=103.776810, Alt.=2105.408203m. Speed=0.684000m/h.</desc>
<speed>0.190000</speed>
</trkpt>
<trkpt lat="22.338549" lon="103.776794">
<ele>2105.595703</ele>
<time>2011-04-23T23:35:23Z</time>
<desc>lat.=22.338549, lon.=103.776794, Alt.=2105.595703m. Speed=0.432000m/h.</desc>
<speed>0.120000</speed>
</trkpt>
<trkpt lat="22.338516" lon="103.776787">
<ele>2105.783203</ele>
<time>2011-04-23T23:35:28Z</time>
<desc>lat.=22.338516, lon.=103.776787, Alt.=2105.783203m. Speed=0.540000m/h.</desc>
<speed>0.150000</speed>
</trkpt>
<trkpt lat="22.338522" lon="103.776779">
<ele>2105.658203</ele>
<time>2011-04-23T23:35:33Z</time>
<desc>lat.=22.338522, lon.=103.776779, Alt.=2105.658203m. Speed=1.908000m/h.</desc>
<speed>0.530000</speed>
</trkpt>
<trkpt lat="22.338497" lon="103.776779">
<ele>2105.658203</ele>
<time>2011-04-23T23:35:38Z</time>
<desc>lat.=22.338497, lon.=103.776779, Alt.=2105.658203m. Speed=3.744000m/h.</desc>
<speed>1.040000</speed>
</trkpt>
<trkpt lat="22.338459" lon="103.776810">
<ele>2105.970703</ele>
<time>2011-04-23T23:35:43Z</time>
<desc>lat.=22.338459, lon.=103.776810, Alt.=2105.970703m. Speed=2.808000m/h.</desc>
<speed>0.780000</speed>
</trkpt>
<trkpt lat="22.338428" lon="103.776825">
<ele>2106.908203</ele>
<time>2011-04-23T23:35:48Z</time>
<desc>lat.=22.338428, lon.=103.776825, Alt.=2106.908203m. Speed=2.880000m/h.</desc>
<speed>0.800000</speed>
</trkpt>
<trkpt lat="22.338383" lon="103.776840">
<ele>2107.720703</ele>
<time>2011-04-23T23:35:53Z</time>
<desc>lat.=22.338383, lon.=103.776840, Alt.=2107.720703m. Speed=2.628000m/h.</desc>
<speed>0.730000</speed>
</trkpt>
<trkpt lat="22.338360" lon="103.776917">
<ele>2108.283203</ele>
<time>2011-04-23T23:35:58Z</time>
<desc>lat.=22.338360, lon.=103.776917, Alt.=2108.283203m. Speed=3.744000m/h.</desc>
<speed>1.040000</speed>
</trkpt>
<trkpt lat="22.338348" lon="103.776970">
<ele>2108.970703</ele>
<time>2011-04-23T23:36:03Z</time>
<desc>lat.=22.338348, lon.=103.776970, Alt.=2108.970703m. Speed=2.232000m/h.</desc>
<speed>0.620000</speed>
</trkpt>
<trkpt lat="22.338350" lon="103.777046">
<ele>2108.720703</ele>
<time>2011-04-23T23:36:08Z</time>
<desc>lat.=22.338350, lon.=103.777046, Alt.=2108.720703m. Speed=3.168000m/h.</desc>
<speed>0.880000</speed>
</trkpt>
<trkpt lat="22.338358" lon="103.777145">
<ele>2108.970703</ele>
<time>2011-04-23T23:36:13Z</time>
<desc>lat.=22.338358, lon.=103.777145, Alt.=2108.970703m. Speed=2.088000m/h.</desc>
<speed>0.580000</speed>
</trkpt>
<trkpt lat="22.338327" lon="103.777168">
<ele>2108.033203</ele>
<time>2011-04-23T23:36:18Z</time>
<desc>lat.=22.338327, lon.=103.777168, Alt.=2108.033203m. Speed=5.688000m/h.</desc>
<speed>1.580000</speed>
</trkpt>
<trkpt lat="22.338251" lon="103.777260">
<ele>2108.720703</ele>
<time>2011-04-23T23:36:23Z</time>
<desc>lat.=22.338251, lon.=103.777260, Alt.=2108.720703m. Speed=5.220000m/h.</desc>
<speed>1.450000</speed>
</trkpt>
<trkpt lat="22.338247" lon="103.777313">
<ele>2109.283203</ele>
<time>2011-04-23T23:36:28Z</time>
<desc>lat.=22.338247, lon.=103.777313, Alt.=2109.283203m. Speed=2.772000m/h.</desc>
<speed>0.770000</speed>
</trkpt>
<trkpt lat="22.338228" lon="103.777382">
<ele>2110.470703</ele>
<time>2011-04-23T23:36:33Z</time>
<desc>lat.=22.338228, lon.=103.777382, Alt.=2110.470703m. Speed=3.816000m/h.</desc>
<speed>1.060000</speed>
</trkpt>
<trkpt lat="22.338234" lon="103.777435">
<ele>2111.595703</ele>
<time>2011-04-23T23:36:38Z</time>
<desc>lat.=22.338234, lon.=103.777435, Alt.=2111.595703m. Speed=3.384000m/h.</desc>
<speed>0.940000</speed>
</trkpt>
<trkpt lat="22.338165" lon="103.777489">
<ele>2112.658203</ele>
<time>2011-04-23T23:36:43Z</time>
<desc>lat.=22.338165, lon.=103.777489, Alt.=2112.658203m. Speed=4.536000m/h.</desc>
<speed>1.260000</speed>
</trkpt>
<trkpt lat="22.338133" lon="103.777542">
<ele>2113.345703</ele>
<time>2011-04-23T23:36:48Z</time>
<desc>lat.=22.338133, lon.=103.777542, Alt.=2113.345703m. Speed=3.924000m/h.</desc>
<speed>1.090000</speed>
</trkpt>
<trkpt lat="22.338123" lon="103.777580">
<ele>2112.783203</ele>
<time>2011-04-23T23:36:53Z</time>
<desc>lat.=22.338123, lon.=103.777580, Alt.=2112.783203m. Speed=3.096000m/h.</desc>
<speed>0.860000</speed>
</trkpt>
<trkpt lat="22.338123" lon="103.777664">
<ele>2111.220703</ele>
<time>2011-04-23T23:36:58Z</time>
<desc>lat.=22.338123, lon.=103.777664, Alt.=2111.220703m. Speed=4.284000m/h.</desc>
<speed>1.190000</speed>
</trkpt>
<trkpt lat="22.338104" lon="103.777695">
<ele>2109.470703</ele>
<time>2011-04-23T23:37:03Z</time>
<desc>lat.=22.338104, lon.=103.777695, Alt.=2109.470703m. Speed=2.736000m/h.</desc>
<speed>0.760000</speed>
</trkpt>
<trkpt lat="22.338093" lon="103.777740">
<ele>2109.220703</ele>
<time>2011-04-23T23:37:08Z</time>
<desc>lat.=22.338093, lon.=103.777740, Alt.=2109.220703m. Speed=4.608000m/h.</desc>
<speed>1.280000</speed>
</trkpt>
<trkpt lat="22.338087" lon="103.777779">
<ele>2105.095703</ele>
<time>2011-04-23T23:37:13Z</time>
<desc>lat.=22.338087, lon.=103.777779, Alt.=2105.095703m. Speed=2.556000m/h.</desc>
<speed>0.710000</speed>
</trkpt>
<trkpt lat="22.338074" lon="103.777809">
<ele>2104.283203</ele>
<time>2011-04-23T23:37:18Z</time>
<desc>lat.=22.338074, lon.=103.777809, Alt.=2104.283203m. Speed=0.216000m/h.</desc>
<speed>0.060000</speed>
</trkpt>
<trkpt lat="22.338074" lon="103.777809">
<ele>2104.783203</ele>
<time>2011-04-23T23:37:23Z</time>
<desc>lat.=22.338074, lon.=103.777809, Alt.=2104.783203m. Speed=1.584000m/h.</desc>
<speed>0.440000</speed>
</trkpt>
<trkpt lat="22.338064" lon="103.777809">
<ele>2104.408203</ele>
<time>2011-04-23T23:37:28Z</time>
<desc>lat.=22.338064, lon.=103.777809, Alt.=2104.408203m. Speed=1.476000m/h.</desc>
<speed>0.410000</speed>
</trkpt>
<trkpt lat="22.338058" lon="103.777817">
<ele>2100.908203</ele>
<time>2011-04-23T23:37:33Z</time>
<desc>lat.=22.338058, lon.=103.777817, Alt.=2100.908203m. Speed=2.484000m/h.</desc>
<speed>0.690000</speed>
</trkpt>
<trkpt lat="22.338070" lon="103.777855">
<ele>2100.470703</ele>
<time>2011-04-23T23:37:38Z</time>
<desc>lat.=22.338070, lon.=103.777855, Alt.=2100.470703m. Speed=2.412000m/h.</desc>
<speed>0.670000</speed>
</trkpt>
<trkpt lat="22.338112" lon="103.777908">
<ele>2100.595703</ele>
<time>2011-04-23T23:37:43Z</time>
<desc>lat.=22.338112, lon.=103.777908, Alt.=2100.595703m. Speed=2.772000m/h.</desc>
<speed>0.770000</speed>
</trkpt>
<trkpt lat="22.338133" lon="103.777962">
<ele>2101.658203</ele>
<time>2011-04-23T23:37:48Z</time>
<desc>lat.=22.338133, lon.=103.777962, Alt.=2101.658203m. Speed=3.888000m/h.</desc>
<speed>1.080000</speed>
</trkpt>
<trkpt lat="22.338179" lon="103.778023">
<ele>2102.095703</ele>
<time>2011-04-23T23:37:53Z</time>
<desc>lat.=22.338179, lon.=103.778023, Alt.=2102.095703m. Speed=3.960000m/h.</desc>
<speed>1.100000</speed>
</trkpt>
<trkpt lat="22.338202" lon="103.778076">
<ele>2102.595703</ele>
<time>2011-04-23T23:37:58Z</time>
<desc>lat.=22.338202, lon.=103.778076, Alt.=2102.595703m. Speed=4.536000m/h.</desc>
<speed>1.260000</speed>
</trkpt>
<trkpt lat="22.338236" lon="103.778145">
<ele>2099.970703</ele>
<time>2011-04-23T23:38:03Z</time>
<desc>lat.=22.338236, lon.=103.778145, Alt.=2099.970703m. Speed=4.500000m/h.</desc>
<speed>1.250000</speed>
</trkpt>
<trkpt lat="22.338228" lon="103.778183">
<ele>2099.783203</ele>
<time>2011-04-23T23:38:08Z</time>
<desc>lat.=22.338228, lon.=103.778183, Alt.=2099.783203m. Speed=2.052000m/h.</desc>
<speed>0.570000</speed>
</trkpt>
<trkpt lat="22.338221" lon="103.778214">
<ele>2100.408203</ele>
<time>2011-04-23T23:38:13Z</time>
<desc>lat.=22.338221, lon.=103.778214, Alt.=2100.408203m. Speed=4.608000m/h.</desc>
<speed>1.280000</speed>
</trkpt>
<trkpt lat="22.338198" lon="103.778282">
<ele>2099.345703</ele>
<time>2011-04-23T23:38:18Z</time>
<desc>lat.=22.338198, lon.=103.778282, Alt.=2099.345703m. Speed=1.764000m/h.</desc>
<speed>0.490000</speed>
</trkpt>
<trkpt lat="22.338184" lon="103.778320">
<ele>2100.783203</ele>
<time>2011-04-23T23:38:23Z</time>
<desc>lat.=22.338184, lon.=103.778320, Alt.=2100.783203m. Speed=3.276000m/h.</desc>
<speed>0.910000</speed>
</trkpt>
<trkpt lat="22.338179" lon="103.778366">
<ele>2101.533203</ele>
<time>2011-04-23T23:38:28Z</time>
<desc>lat.=22.338179, lon.=103.778366, Alt.=2101.533203m. Speed=4.968000m/h.</desc>
<speed>1.380000</speed>
</trkpt>
<trkpt lat="22.338156" lon="103.778427">
<ele>2102.595703</ele>
<time>2011-04-23T23:38:33Z</time>
<desc>lat.=22.338156, lon.=103.778427, Alt.=2102.595703m. Speed=4.140000m/h.</desc>
<speed>1.150000</speed>
</trkpt>
<trkpt lat="22.338131" lon="103.778481">
<ele>2102.845703</ele>
<time>2011-04-23T23:38:38Z</time>
<desc>lat.=22.338131, lon.=103.778481, Alt.=2102.845703m. Speed=3.528000m/h.</desc>
<speed>0.980000</speed>
</trkpt>
<trkpt lat="22.338087" lon="103.778496">
<ele>2103.845703</ele>
<time>2011-04-23T23:38:43Z</time>
<desc>lat.=22.338087, lon.=103.778496, Alt.=2103.845703m. Speed=4.140000m/h.</desc>
<speed>1.150000</speed>
</trkpt>
<trkpt lat="22.338039" lon="103.778534">
<ele>2104.595703</ele>
<time>2011-04-23T23:38:48Z</time>
<desc>lat.=22.338039, lon.=103.778534, Alt.=2104.595703m. Speed=3.420000m/h.</desc>
<speed>0.950000</speed>
</trkpt>
<trkpt lat="22.338007" lon="103.778572">
<ele>2103.345703</ele>
<time>2011-04-23T23:38:53Z</time>
<desc>lat.=22.338007, lon.=103.778572, Alt.=2103.345703m. Speed=4.104000m/h.</desc>
<speed>1.140000</speed>
</trkpt>
<trkpt lat="22.337957" lon="103.778603">
<ele>2103.595703</ele>
<time>2011-04-23T23:38:58Z</time>
<desc>lat.=22.337957, lon.=103.778603, Alt.=2103.595703m. Speed=3.384000m/h.</desc>
<speed>0.940000</speed>
</trkpt>
<trkpt lat="22.337906" lon="103.778587">
<ele>2104.970703</ele>
<time>2011-04-23T23:39:03Z</time>
<desc>lat.=22.337906, lon.=103.778587, Alt.=2104.970703m. Speed=4.896000m/h.</desc>
<speed>1.360000</speed>
</trkpt>
<trkpt lat="22.337879" lon="103.778625">
<ele>2105.720703</ele>
<time>2011-04-23T23:39:08Z</time>
<desc>lat.=22.337879, lon.=103.778625, Alt.=2105.720703m. Speed=4.140000m/h.</desc>
<speed>1.150000</speed>
</trkpt>
<trkpt lat="22.337858" lon="103.778679">
<ele>2107.158203</ele>
<time>2011-04-23T23:39:13Z</time>
<desc>lat.=22.337858, lon.=103.778679, Alt.=2107.158203m. Speed=2.808000m/h.</desc>
<speed>0.780000</speed>
</trkpt>
<trkpt lat="22.337837" lon="103.778717">
<ele>2108.783203</ele>
<time>2011-04-23T23:39:18Z</time>
<desc>lat.=22.337837, lon.=103.778717, Alt.=2108.783203m. Speed=3.924000m/h.</desc>
<speed>1.090000</speed>
</trkpt>
<trkpt lat="22.337814" lon="103.778755">
<ele>2108.595703</ele>
<time>2011-04-23T23:39:23Z</time>
<desc>lat.=22.337814, lon.=103.778755, Alt.=2108.595703m. Speed=4.464000m/h.</desc>
<speed>1.240000</speed>
</trkpt>
<trkpt lat="22.337780" lon="103.778786">
<ele>2109.720703</ele>
<time>2011-04-23T23:39:28Z</time>
<desc>lat.=22.337780, lon.=103.778786, Alt.=2109.720703m. Speed=5.076000m/h.</desc>
<speed>1.410000</speed>
</trkpt>
<trkpt lat="22.337719" lon="103.778839">
<ele>2110.908203</ele>
<time>2011-04-23T23:39:33Z</time>
<desc>lat.=22.337719, lon.=103.778839, Alt.=2110.908203m. Speed=4.680000m/h.</desc>
<speed>1.300000</speed>
</trkpt>
<trkpt lat="22.337704" lon="103.778885">
<ele>2113.345703</ele>
<time>2011-04-23T23:39:38Z</time>
<desc>lat.=22.337704, lon.=103.778885, Alt.=2113.345703m. Speed=5.112000m/h.</desc>
<speed>1.420000</speed>
</trkpt>
<trkpt lat="22.337704" lon="103.778938">
<ele>2115.220703</ele>
<time>2011-04-23T23:39:43Z</time>
<desc>lat.=22.337704, lon.=103.778938, Alt.=2115.220703m. Speed=5.004000m/h.</desc>
<speed>1.390000</speed>
</trkpt>
<trkpt lat="22.337673" lon="103.778992">
<ele>2113.658203</ele>
<time>2011-04-23T23:39:48Z</time>
<desc>lat.=22.337673, lon.=103.778992, Alt.=2113.658203m. Speed=5.076000m/h.</desc>
<speed>1.410000</speed>
</trkpt>
<trkpt lat="22.337639" lon="103.779030">
<ele>2112.658203</ele>
<time>2011-04-23T23:39:53Z</time>
<desc>lat.=22.337639, lon.=103.779030, Alt.=2112.658203m. Speed=5.112000m/h.</desc>
<speed>1.420000</speed>
</trkpt>
<trkpt lat="22.337626" lon="103.779060">
<ele>2111.658203</ele>
<time>2011-04-23T23:39:58Z</time>
<desc>lat.=22.337626, lon.=103.779060, Alt.=2111.658203m. Speed=4.644000m/h.</desc>
<speed>1.290000</speed>
</trkpt>
<trkpt lat="22.337626" lon="103.779121">
<ele>2106.283203</ele>
<time>2011-04-23T23:40:03Z</time>
<desc>lat.=22.337626, lon.=103.779121, Alt.=2106.283203m. Speed=4.248000m/h.</desc>
<speed>1.180000</speed>
</trkpt>
<trkpt lat="22.337618" lon="103.779182">
<ele>2106.283203</ele>
<time>2011-04-23T23:40:08Z</time>
<desc>lat.=22.337618, lon.=103.779182, Alt.=2106.283203m. Speed=5.976000m/h.</desc>
<speed>1.660000</speed>
</trkpt>
<trkpt lat="22.337595" lon="103.779243">
<ele>2102.158203</ele>
<time>2011-04-23T23:40:13Z</time>
<desc>lat.=22.337595, lon.=103.779243, Alt.=2102.158203m. Speed=4.320000m/h.</desc>
<speed>1.200000</speed>
</trkpt>
<trkpt lat="22.337584" lon="103.779297">
<ele>2100.658203</ele>
<time>2011-04-23T23:40:18Z</time>
<desc>lat.=22.337584, lon.=103.779297, Alt.=2100.658203m. Speed=4.716000m/h.</desc>
<speed>1.310000</speed>
</trkpt>
<trkpt lat="22.337564" lon="103.779358">
<ele>2098.095703</ele>
<time>2011-04-23T23:40:23Z</time>
<desc>lat.=22.337564, lon.=103.779358, Alt.=2098.095703m. Speed=5.616000m/h.</desc>
<speed>1.560000</speed>
</trkpt>
<trkpt lat="22.337515" lon="103.779404">
<ele>2094.158203</ele>
<time>2011-04-23T23:40:28Z</time>
<desc>lat.=22.337515, lon.=103.779404, Alt.=2094.158203m. Speed=5.256000m/h.</desc>
<speed>1.460000</speed>
</trkpt>
<trkpt lat="22.337477" lon="103.779449">
<ele>2090.033203</ele>
<time>2011-04-23T23:40:33Z</time>
<desc>lat.=22.337477, lon.=103.779449, Alt.=2090.033203m. Speed=4.860000m/h.</desc>
<speed>1.350000</speed>
</trkpt>
<trkpt lat="22.337431" lon="103.779472">
<ele>2084.533203</ele>
<time>2011-04-23T23:40:38Z</time>
<desc>lat.=22.337431, lon.=103.779472, Alt.=2084.533203m. Speed=4.464000m/h.</desc>
<speed>1.240000</speed>
</trkpt>
<trkpt lat="22.337368" lon="103.779465">
<ele>2080.470703</ele>
<time>2011-04-23T23:40:43Z</time>
<desc>lat.=22.337368, lon.=103.779465, Alt.=2080.470703m. Speed=3.024000m/h.</desc>
<speed>0.840000</speed>
</trkpt>
<trkpt lat="22.337313" lon="103.779449">
<ele>2079.408203</ele>
<time>2011-04-23T23:40:48Z</time>
<desc>lat.=22.337313, lon.=103.779449, Alt.=2079.408203m. Speed=4.428000m/h.</desc>
<speed>1.230000</speed>
</trkpt>
<trkpt lat="22.337280" lon="103.779472">
<ele>2077.845703</ele>
<time>2011-04-23T23:40:53Z</time>
<desc>lat.=22.337280, lon.=103.779472, Alt.=2077.845703m. Speed=3.096000m/h.</desc>
<speed>0.860000</speed>
</trkpt>
<trkpt lat="22.337233" lon="103.779488">
<ele>2077.720703</ele>
<time>2011-04-23T23:40:58Z</time>
<desc>lat.=22.337233, lon.=103.779488, Alt.=2077.720703m. Speed=5.040000m/h.</desc>
<speed>1.400000</speed>
</trkpt>
<trkpt lat="22.337185" lon="103.779480">
<ele>2078.345703</ele>
<time>2011-04-23T23:41:03Z</time>
<desc>lat.=22.337185, lon.=103.779480, Alt.=2078.345703m. Speed=2.052000m/h.</desc>
<speed>0.570000</speed>
</trkpt>
<trkpt lat="22.337156" lon="103.779480">
<ele>2079.345703</ele>
<time>2011-04-23T23:41:08Z</time>
<desc>lat.=22.337156, lon.=103.779480, Alt.=2079.345703m. Speed=2.844000m/h.</desc>
<speed>0.790000</speed>
</trkpt>
<trkpt lat="22.337139" lon="103.779495">
<ele>2080.283203</ele>
<time>2011-04-23T23:41:13Z</time>
<desc>lat.=22.337139, lon.=103.779495, Alt.=2080.283203m. Speed=1.368000m/h.</desc>
<speed>0.380000</speed>
</trkpt>
<trkpt lat="22.337112" lon="103.779541">
<ele>2081.283203</ele>
<time>2011-04-23T23:41:18Z</time>
<desc>lat.=22.337112, lon.=103.779541, Alt.=2081.283203m. Speed=2.592000m/h.</desc>
<speed>0.720000</speed>
</trkpt>
<trkpt lat="22.337059" lon="103.779533">
<ele>2082.345703</ele>
<time>2011-04-23T23:41:23Z</time>
<desc>lat.=22.337059, lon.=103.779533, Alt.=2082.345703m. Speed=4.104000m/h.</desc>
<speed>1.140000</speed>
</trkpt>
<trkpt lat="22.336996" lon="103.779503">
<ele>2082.595703</ele>
<time>2011-04-23T23:41:28Z</time>
<desc>lat.=22.336996, lon.=103.779503, Alt.=2082.595703m. Speed=7.020000m/h.</desc>
<speed>1.950000</speed>
</trkpt>
<trkpt lat="22.336946" lon="103.779549">
<ele>2082.970703</ele>
<time>2011-04-23T23:41:33Z</time>
<desc>lat.=22.336946, lon.=103.779549, Alt.=2082.970703m. Speed=6.156000m/h.</desc>
<speed>1.710000</speed>
</trkpt>
<trkpt lat="22.336903" lon="103.779556">
<ele>2082.158203</ele>
<time>2011-04-23T23:41:38Z</time>
<desc>lat.=22.336903, lon.=103.779556, Alt.=2082.158203m. Speed=6.156000m/h.</desc>
<speed>1.710000</speed>
</trkpt>
<trkpt lat="22.336901" lon="103.779579">
<ele>2081.908203</ele>
<time>2011-04-23T23:41:43Z</time>
<desc>lat.=22.336901, lon.=103.779579, Alt.=2081.908203m. Speed=1.116000m/h.</desc>
<speed>0.310000</speed>
</trkpt>
<trkpt lat="22.336893" lon="103.779579">
<ele>2080.345703</ele>
<time>2011-04-23T23:41:48Z</time>
<desc>lat.=22.336893, lon.=103.779579, Alt.=2080.345703m. Speed=2.808000m/h.</desc>
<speed>0.780000</speed>
</trkpt>
<trkpt lat="22.336897" lon="103.779625">
<ele>2079.158203</ele>
<time>2011-04-23T23:41:53Z</time>
<desc>lat.=22.336897, lon.=103.779625, Alt.=2079.158203m. Speed=1.872000m/h.</desc>
<speed>0.520000</speed>
</trkpt>
<trkpt lat="22.336872" lon="103.779633">
<ele>2077.220703</ele>
<time>2011-04-23T23:41:58Z</time>
<desc>lat.=22.336872, lon.=103.779633, Alt.=2077.220703m. Speed=4.428000m/h.</desc>
<speed>1.230000</speed>
</trkpt>
<trkpt lat="22.336815" lon="103.779678">
<ele>2076.033203</ele>
<time>2011-04-23T23:42:03Z</time>
<desc>lat.=22.336815, lon.=103.779678, Alt.=2076.033203m. Speed=4.500000m/h.</desc>
<speed>1.250000</speed>
</trkpt>
<trkpt lat="22.336756" lon="103.779678">
<ele>2075.095703</ele>
<time>2011-04-23T23:42:08Z</time>
<desc>lat.=22.336756, lon.=103.779678, Alt.=2075.095703m. Speed=5.076000m/h.</desc>
<speed>1.410000</speed>
</trkpt>
<trkpt lat="22.336691" lon="103.779709">
<ele>2073.220703</ele>
<time>2011-04-23T23:42:13Z</time>
<desc>lat.=22.336691, lon.=103.779709, Alt.=2073.220703m. Speed=5.328000m/h.</desc>
<speed>1.480000</speed>
</trkpt>
<trkpt lat="22.336634" lon="103.779724">
<ele>2072.408203</ele>
<time>2011-04-23T23:42:18Z</time>
<desc>lat.=22.336634, lon.=103.779724, Alt.=2072.408203m. Speed=4.896000m/h.</desc>
<speed>1.360000</speed>
</trkpt>
<trkpt lat="22.336578" lon="103.779739">
<ele>2071.158203</ele>
<time>2011-04-23T23:42:23Z</time>
<desc>lat.=22.336578, lon.=103.779739, Alt.=2071.158203m. Speed=3.996000m/h.</desc>
<speed>1.110000</speed>
</trkpt>
<trkpt lat="22.336523" lon="103.779747">
<ele>2069.533203</ele>
<time>2011-04-23T23:42:28Z</time>
<desc>lat.=22.336523, lon.=103.779747, Alt.=2069.533203m. Speed=4.788000m/h.</desc>
<speed>1.330000</speed>
</trkpt>
<trkpt lat="22.336458" lon="103.779755">
<ele>2067.908203</ele>
<time>2011-04-23T23:42:33Z</time>
<desc>lat.=22.336458, lon.=103.779755, Alt.=2067.908203m. Speed=4.716000m/h.</desc>
<speed>1.310000</speed>
</trkpt>
<trkpt lat="22.336409" lon="103.779762">
<ele>2067.095703</ele>
<time>2011-04-23T23:42:38Z</time>
<desc>lat.=22.336409, lon.=103.779762, Alt.=2067.095703m. Speed=3.636000m/h.</desc>
<speed>1.010000</speed>
</trkpt>
<trkpt lat="22.336374" lon="103.779747">
<ele>2066.283203</ele>
<time>2011-04-23T23:42:43Z</time>
<desc>lat.=22.336374, lon.=103.779747, Alt.=2066.283203m. Speed=2.124000m/h.</desc>
<speed>0.590000</speed>
</trkpt>
<trkpt lat="22.336329" lon="103.779732">
<ele>2065.220703</ele>
<time>2011-04-23T23:42:48Z</time>
<desc>lat.=22.336329, lon.=103.779732, Alt.=2065.220703m. Speed=2.592000m/h.</desc>
<speed>0.720000</speed>
</trkpt>
<trkpt lat="22.336283" lon="103.779716">
<ele>2063.658203</ele>
<time>2011-04-23T23:42:53Z</time>
<desc>lat.=22.336283, lon.=103.779716, Alt.=2063.658203m. Speed=4.680000m/h.</desc>
<speed>1.300000</speed>
</trkpt>
<trkpt lat="22.336235" lon="103.779678">
<ele>2063.095703</ele>
<time>2011-04-23T23:42:58Z</time>
<desc>lat.=22.336235, lon.=103.779678, Alt.=2063.095703m. Speed=4.572000m/h.</desc>
<speed>1.270000</speed>
</trkpt>
<trkpt lat="22.336184" lon="103.779694">
<ele>2062.845703</ele>
<time>2011-04-23T23:43:03Z</time>
<desc>lat.=22.336184, lon.=103.779694, Alt.=2062.845703m. Speed=3.996000m/h.</desc>
<speed>1.110000</speed>
</trkpt>
<trkpt lat="22.336142" lon="103.779701">
<ele>2061.533203</ele>
<time>2011-04-23T23:43:08Z</time>
<desc>lat.=22.336142, lon.=103.779701, Alt.=2061.533203m. Speed=3.240000m/h.</desc>
<speed>0.900000</speed>
</trkpt>
<trkpt lat="22.336103" lon="103.779701">
<ele>2061.095703</ele>
<time>2011-04-23T23:43:13Z</time>
<desc>lat.=22.336103, lon.=103.779701, Alt.=2061.095703m. Speed=3.492000m/h.</desc>
<speed>0.970000</speed>
</trkpt>
<trkpt lat="22.336063" lon="103.779663">
<ele>2060.970703</ele>
<time>2011-04-23T23:43:18Z</time>
<desc>lat.=22.336063, lon.=103.779663, Alt.=2060.970703m. Speed=4.104000m/h.</desc>
<speed>1.140000</speed>
</trkpt>
<trkpt lat="22.336033" lon="103.779633">
<ele>2061.220703</ele>
<time>2011-04-23T23:43:23Z</time>
<desc>lat.=22.336033, lon.=103.779633, Alt.=2061.220703m. Speed=4.140000m/h.</desc>
<speed>1.150000</speed>
</trkpt>
<trkpt lat="22.335978" lon="103.779594">
<ele>2062.158203</ele>
<time>2011-04-23T23:43:28Z</time>
<desc>lat.=22.335978, lon.=103.779594, Alt.=2062.158203m. Speed=3.168000m/h.</desc>
<speed>0.880000</speed>
</trkpt>
<trkpt lat="22.335938" lon="103.779556">
<ele>2063.033203</ele>
<time>2011-04-23T23:43:33Z</time>
<desc>lat.=22.335938, lon.=103.779556, Alt.=2063.033203m. Speed=3.852000m/h.</desc>
<speed>1.070000</speed>
</trkpt>
<trkpt lat="22.335884" lon="103.779541">
<ele>2063.845703</ele>
<time>2011-04-23T23:43:38Z</time>
<desc>lat.=22.335884, lon.=103.779541, Alt.=2063.845703m. Speed=3.204000m/h.</desc>
<speed>0.890000</speed>
</trkpt>
<trkpt lat="22.335831" lon="103.779594">
<ele>2064.783203</ele>
<time>2011-04-23T23:43:43Z</time>
<desc>lat.=22.335831, lon.=103.779594, Alt.=2064.783203m. Speed=4.248000m/h.</desc>
<speed>1.180000</speed>
</trkpt>
<trkpt lat="22.335768" lon="103.779564">
<ele>2064.783203</ele>
<time>2011-04-23T23:43:48Z</time>
<desc>lat.=22.335768, lon.=103.779564, Alt.=2064.783203m. Speed=3.924000m/h.</desc>
<speed>1.090000</speed>
</trkpt>
<trkpt lat="22.335745" lon="103.779602">
<ele>2065.908203</ele>
<time>2011-04-23T23:43:53Z</time>
<desc>lat.=22.335745, lon.=103.779602, Alt.=2065.908203m. Speed=2.556000m/h.</desc>
<speed>0.710000</speed>
</trkpt>
<trkpt lat="22.335705" lon="103.779633">
<ele>2066.283203</ele>
<time>2011-04-23T23:43:58Z</time>
<desc>lat.=22.335705, lon.=103.779633, Alt.=2066.283203m. Speed=5.148000m/h.</desc>
<speed>1.430000</speed>
</trkpt>
<trkpt lat="22.335669" lon="103.779663">
<ele>2068.220703</ele>
<time>2011-04-23T23:44:03Z</time>
<desc>lat.=22.335669, lon.=103.779663, Alt.=2068.220703m. Speed=2.664000m/h.</desc>
<speed>0.740000</speed>
</trkpt>
<trkpt lat="22.335623" lon="103.779648">
<ele>2069.845703</ele>
<time>2011-04-23T23:44:08Z</time>
<desc>lat.=22.335623, lon.=103.779648, Alt.=2069.845703m. Speed=3.816000m/h.</desc>
<speed>1.060000</speed>
</trkpt>
<trkpt lat="22.335581" lon="103.779671">
<ele>2071.220703</ele>
<time>2011-04-23T23:44:13Z</time>
<desc>lat.=22.335581, lon.=103.779671, Alt.=2071.220703m. Speed=3.528000m/h.</desc>
<speed>0.980000</speed>
</trkpt>
<trkpt lat="22.335524" lon="103.779686">
<ele>2072.845703</ele>
<time>2011-04-23T23:44:18Z</time>
<desc>lat.=22.335524, lon.=103.779686, Alt.=2072.845703m. Speed=3.240000m/h.</desc>
<speed>0.900000</speed>
</trkpt>
<trkpt lat="22.335445" lon="103.779663">
<ele>2073.220703</ele>
<time>2011-04-23T23:44:23Z</time>
<desc>lat.=22.335445, lon.=103.779663, Alt.=2073.220703m. Speed=3.708000m/h.</desc>
<speed>1.030000</speed>
</trkpt>
<trkpt lat="22.335411" lon="103.779625">
<ele>2073.783203</ele>
<time>2011-04-23T23:44:28Z</time>
<desc>lat.=22.335411, lon.=103.779625, Alt.=2073.783203m. Speed=5.436000m/h.</desc>
<speed>1.510000</speed>
</trkpt>
<trkpt lat="22.335367" lon="103.779587">
<ele>2072.345703</ele>
<time>2011-04-23T23:44:33Z</time>
<desc>lat.=22.335367, lon.=103.779587, Alt.=2072.345703m. Speed=4.608000m/h.</desc>
<speed>1.280000</speed>
</trkpt>
<trkpt lat="22.335318" lon="103.779572">
<ele>2071.345703</ele>
<time>2011-04-23T23:44:38Z</time>
<desc>lat.=22.335318, lon.=103.779572, Alt.=2071.345703m. Speed=4.320000m/h.</desc>
<speed>1.200000</speed>
</trkpt>
<trkpt lat="22.335279" lon="103.779549">
<ele>2071.658203</ele>
<time>2011-04-23T23:44:43Z</time>
<desc>lat.=22.335279, lon.=103.779549, Alt.=2071.658203m. Speed=3.636000m/h.</desc>
<speed>1.010000</speed>
</trkpt>
<trkpt lat="22.335243" lon="103.779510">
<ele>2070.783203</ele>
<time>2011-04-23T23:44:48Z</time>
<desc>lat.=22.335243, lon.=103.779510, Alt.=2070.783203m. Speed=3.060000m/h.</desc>
<speed>0.850000</speed>
</trkpt>
<trkpt lat="22.335194" lon="103.779495">
<ele>2070.970703</ele>
<time>2011-04-23T23:44:53Z</time>
<desc>lat.=22.335194, lon.=103.779495, Alt.=2070.970703m. Speed=3.852000m/h.</desc>
<speed>1.070000</speed>
</trkpt>
<trkpt lat="22.335178" lon="103.779465">
<ele>2070.033203</ele>
<time>2011-04-23T23:44:58Z</time>
<desc>lat.=22.335178, lon.=103.779465, Alt.=2070.033203m. Speed=1.980000m/h.</desc>
<speed>0.550000</speed>
</trkpt>
<trkpt lat="22.335167" lon="103.779457">
<ele>2068.408203</ele>
<time>2011-04-23T23:45:03Z</time>
<desc>lat.=22.335167, lon.=103.779457, Alt.=2068.408203m. Speed=0.180000m/h.</desc>
<speed>0.050000</speed>
</trkpt>
<trkpt lat="22.335169" lon="103.779457">
<ele>2068.283203</ele>
<time>2011-04-23T23:45:08Z</time>
<desc>lat.=22.335169, lon.=103.779457, Alt.=2068.283203m. Speed=2.088000m/h.</desc>
<speed>0.580000</speed>
</trkpt>
<trkpt lat="22.335165" lon="103.779442">
<ele>2068.470703</ele>
<time>2011-04-23T23:45:13Z</time>
<desc>lat.=22.335165, lon.=103.779442, Alt.=2068.470703m. Speed=0.072000m/h.</desc>
<speed>0.020000</speed>
</trkpt>
<trkpt lat="22.335165" lon="103.779442">
<ele>2068.720703</ele>
<time>2011-04-23T23:45:18Z</time>
<desc>lat.=22.335165, lon.=103.779442, Alt.=2068.720703m. Speed=0.000000m/h.</desc>
<speed>0.000000</speed>
</trkpt>
<trkpt lat="22.335163" lon="103.779442">
<ele>2068.845703</ele>
<time>2011-04-23T23:45:23Z</time>
<desc>lat.=22.335163, lon.=103.779442, Alt.=2068.845703m. Speed=0.036000m/h.</desc>
<speed>0.010000</speed>
</trkpt>
<trkpt lat="22.335163" lon="103.779442">
<ele>2068.908203</ele>
<time>2011-04-23T23:45:28Z</time>
<desc>lat.=22.335163, lon.=103.779442, Alt.=2068.908203m. Speed=0.000000m/h.</desc>
<speed>0.000000</speed>
</trkpt>
<trkpt lat="22.335163" lon="103.779442">
<ele>2068.845703</ele>
<time>2011-04-23T23:45:33Z</time>
<desc>lat.=22.335163, lon.=103.779442, Alt.=2068.845703m. Speed=0.000000m/h.</desc>
<speed>0.000000</speed>
</trkpt>
<trkpt lat="22.335163" lon="103.779442">
<ele>2068.845703</ele>
<time>2011-04-23T23:45:38Z</time>
<desc>lat.=22.335163, lon.=103.779442, Alt.=2068.845703m. Speed=0.000000m/h.</desc>
<speed>0.000000</speed>
</trkpt>
<trkpt lat="22.335163" lon="103.779442">
<ele>2068.783203</ele>
<time>2011-04-23T23:45:43Z</time>
<desc>lat.=22.335163, lon.=103.779442, Alt.=2068.783203m. Speed=0.000000m/h.</desc>
<speed>0.000000</speed>
</trkpt>
<trkpt lat="22.335163" lon="103.779442">
<ele>2068.783203</ele>
<time>2011-04-23T23:45:48Z</time>
<desc>lat.=22.335163, lon.=103.779442, Alt.=2068.783203m. Speed=0.000000m/h.</desc>
<speed>0.000000</speed>
</trkpt>
<trkpt lat="22.335163" lon="103.779442">
<ele>2068.783203</ele>
<time>2011-04-23T23:45:53Z</time>
<desc>lat.=22.335163, lon.=103.779442, Alt.=2068.783203m. Speed=0.000000m/h.</desc>
<speed>0.000000</speed>
</trkpt>
<trkpt lat="22.335163" lon="103.779434">
<ele>2068.783203</ele>
<time>2011-04-23T23:45:58Z</time>
<desc>lat.=22.335163, lon.=103.779434, Alt.=2068.783203m. Speed=0.000000m/h.</desc>
<speed>0.000000</speed>
</trkpt>
<trkpt lat="22.335163" lon="103.779434">
<ele>2068.783203</ele>
<time>2011-04-23T23:46:03Z</time>
<desc>lat.=22.335163, lon.=103.779434, Alt.=2068.783203m. Speed=0.000000m/h.</desc>
<speed>0.000000</speed>
</trkpt>
<trkpt lat="22.335165" lon="103.779442">
<ele>2068.783203</ele>
<time>2011-04-23T23:46:08Z</time>
<desc>lat.=22.335165, lon.=103.779442, Alt.=2068.783203m. Speed=0.360000m/h.</desc>
<speed>0.100000</speed>
</trkpt>
<trkpt lat="22.335169" lon="103.779449">
<ele>2068.783203</ele>
<time>2011-04-23T23:46:13Z</time>
<desc>lat.=22.335169, lon.=103.779449, Alt.=2068.783203m. Speed=0.504000m/h.</desc>
<speed>0.140000</speed>
</trkpt>
<trkpt lat="22.335169" lon="103.779449">
<ele>2068.658203</ele>
<time>2011-04-23T23:46:18Z</time>
<desc>lat.=22.335169, lon.=103.779449, Alt.=2068.658203m. Speed=0.936000m/h.</desc>
<speed>0.260000</speed>
</trkpt>
<trkpt lat="22.335173" lon="103.779442">
<ele>2068.595703</ele>
<time>2011-04-23T23:46:23Z</time>
<desc>lat.=22.335173, lon.=103.779442, Alt.=2068.595703m. Speed=0.000000m/h.</desc>
<speed>0.000000</speed>
</trkpt>
<trkpt lat="22.335173" lon="103.779442">
<ele>2068.533203</ele>
<time>2011-04-23T23:46:28Z</time>
<desc>lat.=22.335173, lon.=103.779442, Alt.=2068.533203m. Speed=0.000000m/h.</desc>
<speed>0.000000</speed>
</trkpt>
<trkpt lat="22.335173" lon="103.779442">
<ele>2068.533203</ele>
<time>2011-04-23T23:46:33Z</time>
<desc>lat.=22.335173, lon.=103.779442, Alt.=2068.533203m. Speed=0.000000m/h.</desc>
<speed>0.000000</speed>
</trkpt>
<trkpt lat="22.335173" lon="103.779442">
<ele>2068.470703</ele>
<time>2011-04-23T23:46:38Z</time>
<desc>lat.=22.335173, lon.=103.779442, Alt.=2068.470703m. Speed=0.000000m/h.</desc>
<speed>0.000000</speed>
</trkpt>
<trkpt lat="22.335173" lon="103.779442">
<ele>2068.408203</ele>
<time>2011-04-23T23:46:43Z</time>
<desc>lat.=22.335173, lon.=103.779442, Alt.=2068.408203m. Speed=0.000000m/h.</desc>
<speed>0.000000</speed>
</trkpt>
<trkpt lat="22.335173" lon="103.779442">
<ele>2068.408203</ele>
<time>2011-04-23T23:46:48Z</time>
<desc>lat.=22.335173, lon.=103.779442, Alt.=2068.408203m. Speed=0.036000m/h.</desc>
<speed>0.010000</speed>
</trkpt>
<trkpt lat="22.335173" lon="103.779442">
<ele>2068.408203</ele>
<time>2011-04-23T23:46:53Z</time>
<desc>lat.=22.335173, lon.=103.779442, Alt.=2068.408203m. Speed=0.000000m/h.</desc>
<speed>0.000000</speed>
</trkpt>
<trkpt lat="22.335173" lon="103.779442">
<ele>2068.470703</ele>
<time>2011-04-23T23:46:58Z</time>
<desc>lat.=22.335173, lon.=103.779442, Alt.=2068.470703m. Speed=0.000000m/h.</desc>
<speed>0.000000</speed>
</trkpt>
<trkpt lat="22.335173" lon="103.779442">
<ele>2068.470703</ele>
<time>2011-04-23T23:47:03Z</time>
<desc>lat.=22.335173, lon.=103.779442, Alt.=2068.470703m. Speed=0.000000m/h.</desc>
<speed>0.000000</speed>
</trkpt>
<trkpt lat="22.335173" lon="103.779442">
<ele>2068.533203</ele>
<time>2011-04-23T23:47:08Z</time>
<desc>lat.=22.335173, lon.=103.779442, Alt.=2068.533203m. Speed=0.036000m/h.</desc>
<speed>0.010000</speed>
</trkpt>
<trkpt lat="22.335173" lon="103.779442">
<ele>2068.533203</ele>
<time>2011-04-23T23:47:13Z</time>
<desc>lat.=22.335173, lon.=103.779442, Alt.=2068.533203m. Speed=0.036000m/h.</desc>
<speed>0.010000</speed>
</trkpt>
<trkpt lat="22.335173" lon="103.779442">
<ele>2068.595703</ele>
<time>2011-04-23T23:47:18Z</time>
<desc>lat.=22.335173, lon.=103.779442, Alt.=2068.595703m. Speed=0.000000m/h.</desc>
<speed>0.000000</speed>
</trkpt>
<trkpt lat="22.335173" lon="103.779442">
<ele>2068.595703</ele>
<time>2011-04-23T23:47:23Z</time>
<desc>lat.=22.335173, lon.=103.779442, Alt.=2068.595703m. Speed=0.000000m/h.</desc>
<speed>0.000000</speed>
</trkpt>
<trkpt lat="22.335173" lon="103.779442">
<ele>2068.533203</ele>
<time>2011-04-23T23:47:28Z</time>
<desc>lat.=22.335173, lon.=103.779442, Alt.=2068.533203m. Speed=0.036000m/h.</desc>
<speed>0.010000</speed>
</trkpt>
<trkpt lat="22.335171" lon="103.779442">
<ele>2068.533203</ele>
<time>2011-04-23T23:47:33Z</time>
<desc>lat.=22.335171, lon.=103.779442, Alt.=2068.533203m. Speed=0.180000m/h.</desc>
<speed>0.050000</speed>
</trkpt>
<trkpt lat="22.335169" lon="103.779449">
<ele>2068.533203</ele>
<time>2011-04-23T23:47:38Z</time>
<desc>lat.=22.335169, lon.=103.779449, Alt.=2068.533203m. Speed=0.108000m/h.</desc>
<speed>0.030000</speed>
</trkpt>
<trkpt lat="22.335169" lon="103.779449">
<ele>2068.470703</ele>
<time>2011-04-23T23:47:43Z</time>
<desc>lat.=22.335169, lon.=103.779449, Alt.=2068.470703m. Speed=0.144000m/h.</desc>
<speed>0.040000</speed>
</trkpt>
<trkpt lat="22.335169" lon="103.779449">
<ele>2068.470703</ele>
<time>2011-04-23T23:47:48Z</time>
<desc>lat.=22.335169, lon.=103.779449, Alt.=2068.470703m. Speed=0.036000m/h.</desc>
<speed>0.010000</speed>
</trkpt>
<trkpt lat="22.335169" lon="103.779449">
<ele>2068.408203</ele>
<time>2011-04-23T23:47:53Z</time>
<desc>lat.=22.335169, lon.=103.779449, Alt.=2068.408203m. Speed=0.036000m/h.</desc>
<speed>0.010000</speed>
</trkpt>
<trkpt lat="22.335169" lon="103.779449">
<ele>2068.408203</ele>
<time>2011-04-23T23:47:58Z</time>
<desc>lat.=22.335169, lon.=103.779449, Alt.=2068.408203m. Speed=0.036000m/h.</desc>
<speed>0.010000</speed>
</trkpt>
<trkpt lat="22.335169" lon="103.779449">
<ele>2068.345703</ele>
<time>2011-04-23T23:48:03Z</time>
<desc>lat.=22.335169, lon.=103.779449, Alt.=2068.345703m. Speed=0.036000m/h.</desc>
<speed>0.010000</speed>
</trkpt>
<trkpt lat="22.335169" lon="103.779449">
<ele>2068.345703</ele>
<time>2011-04-23T23:48:08Z</time>
<desc>lat.=22.335169, lon.=103.779449, Alt.=2068.345703m. Speed=0.000000m/h.</desc>
<speed>0.000000</speed>
</trkpt>
<trkpt lat="22.335169" lon="103.779449">
<ele>2068.345703</ele>
<time>2011-04-23T23:48:13Z</time>
<desc>lat.=22.335169, lon.=103.779449, Alt.=2068.345703m. Speed=0.036000m/h.</desc>
<speed>0.010000</speed>
</trkpt>
<trkpt lat="22.335169" lon="103.779449">
<ele>2068.283203</ele>
<time>2011-04-23T23:48:18Z</time>
<desc>lat.=22.335169, lon.=103.779449, Alt.=2068.283203m. Speed=0.000000m/h.</desc>
<speed>0.000000</speed>
</trkpt>
<trkpt lat="22.335167" lon="103.779449">
<ele>2068.283203</ele>
<time>2011-04-23T23:48:23Z</time>
<desc>lat.=22.335167, lon.=103.779449, Alt.=2068.283203m. Speed=0.000000m/h.</desc>
<speed>0.000000</speed>
</trkpt>
<trkpt lat="22.335167" lon="103.779449">
<ele>2068.220703</ele>
<time>2011-04-23T23:48:28Z</time>
<desc>lat.=22.335167, lon.=103.779449, Alt.=2068.220703m. Speed=0.000000m/h.</desc>
<speed>0.000000</speed>
</trkpt>
<trkpt lat="22.335167" lon="103.779449">
<ele>2068.220703</ele>
<time>2011-04-23T23:48:33Z</time>
<desc>lat.=22.335167, lon.=103.779449, Alt.=2068.220703m. Speed=0.108000m/h.</desc>
<speed>0.030000</speed>
</trkpt>
<trkpt lat="22.335171" lon="103.779449">
<ele>2068.158203</ele>
<time>2011-04-23T23:48:38Z</time>
<desc>lat.=22.335171, lon.=103.779449, Alt.=2068.158203m. Speed=0.216000m/h.</desc>
<speed>0.060000</speed>
</trkpt>
<trkpt lat="22.335173" lon="103.779442">
<ele>2068.158203</ele>
<time>2011-04-23T23:48:43Z</time>
<desc>lat.=22.335173, lon.=103.779442, Alt.=2068.158203m. Speed=0.360000m/h.</desc>
<speed>0.100000</speed>
</trkpt>
<trkpt lat="22.335176" lon="103.779442">
<ele>2068.095703</ele>
<time>2011-04-23T23:48:48Z</time>
<desc>lat.=22.335176, lon.=103.779442, Alt.=2068.095703m. Speed=0.540000m/h.</desc>
<speed>0.150000</speed>
</trkpt>
<trkpt lat="22.335180" lon="103.779442">
<ele>2068.095703</ele>
<time>2011-04-23T23:48:53Z</time>
<desc>lat.=22.335180, lon.=103.779442, Alt.=2068.095703m. Speed=0.000000m/h.</desc>
<speed>0.000000</speed>
</trkpt>
<trkpt lat="22.335180" lon="103.779442">
<ele>2068.033203</ele>
<time>2011-04-23T23:48:58Z</time>
<desc>lat.=22.335180, lon.=103.779442, Alt.=2068.033203m. Speed=0.036000m/h.</desc>
<speed>0.010000</speed>
</trkpt>
<trkpt lat="22.335178" lon="103.779442">
<ele>2067.970703</ele>
<time>2011-04-23T23:49:03Z</time>
<desc>lat.=22.335178, lon.=103.779442, Alt.=2067.970703m. Speed=0.072000m/h.</desc>
<speed>0.020000</speed>
</trkpt>
<trkpt lat="22.335178" lon="103.779434">
<ele>2067.845703</ele>
<time>2011-04-23T23:49:08Z</time>
<desc>lat.=22.335178, lon.=103.779434, Alt.=2067.845703m. Speed=0.000000m/h.</desc>
<speed>0.000000</speed>
</trkpt>
<trkpt lat="22.335176" lon="103.779434">
<ele>2067.720703</ele>
<time>2011-04-23T23:49:13Z</time>
<desc>lat.=22.335176, lon.=103.779434, Alt.=2067.720703m. Speed=0.000000m/h.</desc>
<speed>0.000000</speed>
</trkpt>
<trkpt lat="22.335173" lon="103.779434">
<ele>2067.720703</ele>
<time>2011-04-23T23:49:18Z</time>
<desc>lat.=22.335173, lon.=103.779434, Alt.=2067.720703m. Speed=0.000000m/h.</desc>
<speed>0.000000</speed>
</trkpt>
<trkpt lat="22.335173" lon="103.779434">
<ele>2067.720703</ele>
<time>2011-04-23T23:49:23Z</time>
<desc>lat.=22.335173, lon.=103.779434, Alt.=2067.720703m. Speed=0.000000m/h.</desc>
<speed>0.000000</speed>
</trkpt>
<trkpt lat="22.335173" lon="103.779434">
<ele>2067.720703</ele>
<time>2011-04-23T23:49:28Z</time>
<desc>lat.=22.335173, lon.=103.779434, Alt.=2067.720703m. Speed=0.000000m/h.</desc>
<speed>0.000000</speed>
</trkpt>
<trkpt lat="22.335173" lon="103.779434">
<ele>2067.720703</ele>
<time>2011-04-23T23:49:33Z</time>
<desc>lat.=22.335173, lon.=103.779434, Alt.=2067.720703m. Speed=0.072000m/h.</desc>
<speed>0.020000</speed>
</trkpt>
<trkpt lat="22.335173" lon="103.779434">
<ele>2067.720703</ele>
<time>2011-04-23T23:49:38Z</time>
<desc>lat.=22.335173, lon.=103.779434, Alt.=2067.720703m. Speed=0.000000m/h.</desc>
<speed>0.000000</speed>
</trkpt>
<trkpt lat="22.335173" lon="103.779434">
<ele>2067.783203</ele>
<time>2011-04-23T23:49:43Z</time>
<desc>lat.=22.335173, lon.=103.779434, Alt.=2067.783203m. Speed=0.036000m/h.</desc>
<speed>0.010000</speed>
</trkpt>
<trkpt lat="22.335173" lon="103.779434">
<ele>2067.783203</ele>
<time>2011-04-23T23:49:48Z</time>
<desc>lat.=22.335173, lon.=103.779434, Alt.=2067.783203m. Speed=0.000000m/h.</desc>
<speed>0.000000</speed>
</trkpt>
<trkpt lat="22.335173" lon="103.779434">
<ele>2067.783203</ele>
<time>2011-04-23T23:49:53Z</time>
<desc>lat.=22.335173, lon.=103.779434, Alt.=2067.783203m. Speed=0.000000m/h.</desc>
<speed>0.000000</speed>
</trkpt>
<trkpt lat="22.335173" lon="103.779434">
<ele>2067.783203</ele>
<time>2011-04-23T23:49:58Z</time>
<desc>lat.=22.335173, lon.=103.779434, Alt.=2067.783203m. Speed=0.036000m/h.</desc>
<speed>0.010000</speed>
</trkpt>
<trkpt lat="22.335173" lon="103.779434">
<ele>2067.783203</ele>
<time>2011-04-23T23:50:03Z</time>
<desc>lat.=22.335173, lon.=103.779434, Alt.=2067.783203m. Speed=0.144000m/h.</desc>
<speed>0.040000</speed>
</trkpt>
<trkpt lat="22.335171" lon="103.779427">
<ele>2067.845703</ele>
<time>2011-04-23T23:50:08Z</time>
<desc>lat.=22.335171, lon.=103.779427, Alt.=2067.845703m. Speed=0.324000m/h.</desc>
<speed>0.090000</speed>
</trkpt>
<trkpt lat="22.335169" lon="103.779427">
<ele>2067.845703</ele>
<time>2011-04-23T23:50:13Z</time>
<desc>lat.=22.335169, lon.=103.779427, Alt.=2067.845703m. Speed=0.288000m/h.</desc>
<speed>0.080000</speed>
</trkpt>
<trkpt lat="22.335167" lon="103.779419">
<ele>2067.783203</ele>
<time>2011-04-23T23:50:18Z</time>
<desc>lat.=22.335167, lon.=103.779419, Alt.=2067.783203m. Speed=0.360000m/h.</desc>
<speed>0.100000</speed>
</trkpt>
<trkpt lat="22.335165" lon="103.779411">
<ele>2067.783203</ele>
<time>2011-04-23T23:50:23Z</time>
<desc>lat.=22.335165, lon.=103.779411, Alt.=2067.783203m. Speed=0.612000m/h.</desc>
<speed>0.170000</speed>
</trkpt>
<trkpt lat="22.335165" lon="103.779411">
<ele>2067.720703</ele>
<time>2011-04-23T23:50:28Z</time>
<desc>lat.=22.335165, lon.=103.779411, Alt.=2067.720703m. Speed=0.396000m/h.</desc>
<speed>0.110000</speed>
</trkpt>
<trkpt lat="22.335161" lon="103.779419">
<ele>2067.720703</ele>
<time>2011-04-23T23:50:33Z</time>
<desc>lat.=22.335161, lon.=103.779419, Alt.=2067.720703m. Speed=0.504000m/h.</desc>
<speed>0.140000</speed>
</trkpt>
<trkpt lat="22.335157" lon="103.779427">
<ele>2068.158203</ele>
<time>2011-04-23T23:50:38Z</time>
<desc>lat.=22.335157, lon.=103.779427, Alt.=2068.158203m. Speed=0.972000m/h.</desc>
<speed>0.270000</speed>
</trkpt>
<trkpt lat="22.335152" lon="103.779427">
<ele>2067.470703</ele>
<time>2011-04-23T23:50:43Z</time>
<desc>lat.=22.335152, lon.=103.779427, Alt.=2067.470703m. Speed=3.132000m/h.</desc>
<speed>0.870000</speed>
</trkpt>
<trkpt lat="22.335104" lon="103.779388">
<ele>2067.783203</ele>
<time>2011-04-23T23:50:48Z</time>
<desc>lat.=22.335104, lon.=103.779388, Alt.=2067.783203m. Speed=5.148000m/h.</desc>
<speed>1.430000</speed>
</trkpt>
<trkpt lat="22.335054" lon="103.779358">
<ele>2068.345703</ele>
<time>2011-04-23T23:50:53Z</time>
<desc>lat.=22.335054, lon.=103.779358, Alt.=2068.345703m. Speed=4.824000m/h.</desc>
<speed>1.340000</speed>
</trkpt>
<trkpt lat="22.335026" lon="103.779297">
<ele>2068.158203</ele>
<time>2011-04-23T23:50:58Z</time>
<desc>lat.=22.335026, lon.=103.779297, Alt.=2068.158203m. Speed=7.524000m/h.</desc>
<speed>2.090000</speed>
</trkpt>
<trkpt lat="22.334990" lon="103.779282">
<ele>2066.908203</ele>
<time>2011-04-23T23:51:03Z</time>
<desc>lat.=22.334990, lon.=103.779282, Alt.=2066.908203m. Speed=1.656000m/h.</desc>
<speed>0.460000</speed>
</trkpt>
<trkpt lat="22.334980" lon="103.779274">
<ele>2066.658203</ele>
<time>2011-04-23T23:51:08Z</time>
<desc>lat.=22.334980, lon.=103.779274, Alt.=2066.658203m. Speed=0.612000m/h.</desc>
<speed>0.170000</speed>
</trkpt>
<trkpt lat="22.334978" lon="103.779266">
<ele>2066.095703</ele>
<time>2011-04-23T23:51:13Z</time>
<desc>lat.=22.334978, lon.=103.779266, Alt.=2066.095703m. Speed=0.144000m/h.</desc>
<speed>0.040000</speed>
</trkpt>
<trkpt lat="22.334980" lon="103.779266">
<ele>2066.158203</ele>
<time>2011-04-23T23:51:18Z</time>
<desc>lat.=22.334980, lon.=103.779266, Alt.=2066.158203m. Speed=0.144000m/h.</desc>
<speed>0.040000</speed>
</trkpt>
<trkpt lat="22.334982" lon="103.779266">
<ele>2066.095703</ele>
<time>2011-04-23T23:51:23Z</time>
<desc>lat.=22.334982, lon.=103.779266, Alt.=2066.095703m. Speed=0.036000m/h.</desc>
<speed>0.010000</speed>
</trkpt>
<trkpt lat="22.334980" lon="103.779259">
<ele>2066.158203</ele>
<time>2011-04-23T23:51:28Z</time>
<desc>lat.=22.334980, lon.=103.779259, Alt.=2066.158203m. Speed=2.916000m/h.</desc>
<speed>0.810000</speed>
</trkpt>
<trkpt lat="22.334974" lon="103.779243">
<ele>2066.033203</ele>
<time>2011-04-23T23:51:33Z</time>
<desc>lat.=22.334974, lon.=103.779243, Alt.=2066.033203m. Speed=3.708000m/h.</desc>
<speed>1.030000</speed>
</trkpt>
<trkpt lat="22.334925" lon="103.779221">
<ele>2066.095703</ele>
<time>2011-04-23T23:51:38Z</time>
<desc>lat.=22.334925, lon.=103.779221, Alt.=2066.095703m. Speed=3.492000m/h.</desc>
<speed>0.970000</speed>
</trkpt>
<trkpt lat="22.334888" lon="103.779205">
<ele>2066.783203</ele>
<time>2011-04-23T23:51:43Z</time>
<desc>lat.=22.334888, lon.=103.779205, Alt.=2066.783203m. Speed=2.880000m/h.</desc>
<speed>0.800000</speed>
</trkpt>
<trkpt lat="22.334867" lon="103.779190">
<ele>2066.845703</ele>
<time>2011-04-23T23:51:48Z</time>
<desc>lat.=22.334867, lon.=103.779190, Alt.=2066.845703m. Speed=0.324000m/h.</desc>
<speed>0.090000</speed>
</trkpt>
<trkpt lat="22.334845" lon="103.779167">
<ele>2066.845703</ele>
<time>2011-04-23T23:51:53Z</time>
<desc>lat.=22.334845, lon.=103.779167, Alt.=2066.845703m. Speed=4.176000m/h.</desc>
<speed>1.160000</speed>
</trkpt>
<trkpt lat="22.334818" lon="103.779121">
<ele>2067.158203</ele>
<time>2011-04-23T23:51:58Z</time>
<desc>lat.=22.334818, lon.=103.779121, Alt.=2067.158203m. Speed=4.536000m/h.</desc>
<speed>1.260000</speed>
</trkpt>
<trkpt lat="22.334764" lon="103.779083">
<ele>2067.783203</ele>
<time>2011-04-23T23:52:03Z</time>
<desc>lat.=22.334764, lon.=103.779083, Alt.=2067.783203m. Speed=3.996000m/h.</desc>
<speed>1.110000</speed>
</trkpt>
<trkpt lat="22.334713" lon="103.779053">
<ele>2068.408203</ele>
<time>2011-04-23T23:52:08Z</time>
<desc>lat.=22.334713, lon.=103.779053, Alt.=2068.408203m. Speed=3.924000m/h.</desc>
<speed>1.090000</speed>
</trkpt>
<trkpt lat="22.334663" lon="103.779030">
<ele>2069.095703</ele>
<time>2011-04-23T23:52:13Z</time>
<desc>lat.=22.334663, lon.=103.779030, Alt.=2069.095703m. Speed=2.772000m/h.</desc>
<speed>0.770000</speed>
</trkpt>
<trkpt lat="22.334616" lon="103.779022">
<ele>2070.283203</ele>
<time>2011-04-23T23:52:18Z</time>
<desc>lat.=22.334616, lon.=103.779022, Alt.=2070.283203m. Speed=3.240000m/h.</desc>
<speed>0.900000</speed>
</trkpt>
<trkpt lat="22.334595" lon="103.779007">
<ele>2071.220703</ele>
<time>2011-04-23T23:52:23Z</time>
<desc>lat.=22.334595, lon.=103.779007, Alt.=2071.220703m. Speed=2.052000m/h.</desc>
<speed>0.570000</speed>
</trkpt>
<trkpt lat="22.334583" lon="103.778984">
<ele>2072.033203</ele>
<time>2011-04-23T23:52:28Z</time>
<desc>lat.=22.334583, lon.=103.778984, Alt.=2072.033203m. Speed=1.512000m/h.</desc>
<speed>0.420000</speed>
</trkpt>
<trkpt lat="22.334553" lon="103.779022">
<ele>2072.783203</ele>
<time>2011-04-23T23:52:33Z</time>
<desc>lat.=22.334553, lon.=103.779022, Alt.=2072.783203m. Speed=3.132000m/h.</desc>
<speed>0.870000</speed>
</trkpt>
<trkpt lat="22.334515" lon="103.779030">
<ele>2073.408203</ele>
<time>2011-04-23T23:52:38Z</time>
<desc>lat.=22.334515, lon.=103.779030, Alt.=2073.408203m. Speed=2.412000m/h.</desc>
<speed>0.670000</speed>
</trkpt>
<trkpt lat="22.334486" lon="103.778999">
<ele>2074.095703</ele>
<time>2011-04-23T23:52:43Z</time>
<desc>lat.=22.334486, lon.=103.778999, Alt.=2074.095703m. Speed=2.196000m/h.</desc>
<speed>0.610000</speed>
</trkpt>
<trkpt lat="22.334467" lon="103.779007">
<ele>2075.158203</ele>
<time>2011-04-23T23:52:48Z</time>
<desc>lat.=22.334467, lon.=103.779007, Alt.=2075.158203m. Speed=1.116000m/h.</desc>
<speed>0.310000</speed>
</trkpt>
<trkpt lat="22.334467" lon="103.778999">
<ele>2075.658203</ele>
<time>2011-04-23T23:52:53Z</time>
<desc>lat.=22.334467, lon.=103.778999, Alt.=2075.658203m. Speed=0.792000m/h.</desc>
<speed>0.220000</speed>
</trkpt>
<trkpt lat="22.334448" lon="103.778999">
<ele>2076.533203</ele>
<time>2011-04-23T23:52:58Z</time>
<desc>lat.=22.334448, lon.=103.778999, Alt.=2076.533203m. Speed=0.900000m/h.</desc>
<speed>0.250000</speed>
</trkpt>
<trkpt lat="22.334421" lon="103.778992">
<ele>2077.033203</ele>
<time>2011-04-23T23:53:03Z</time>
<desc>lat.=22.334421, lon.=103.778992, Alt.=2077.033203m. Speed=1.908000m/h.</desc>
<speed>0.530000</speed>
</trkpt>
<trkpt lat="22.334389" lon="103.778976">
<ele>2077.658203</ele>
<time>2011-04-23T23:53:08Z</time>
<desc>lat.=22.334389, lon.=103.778976, Alt.=2077.658203m. Speed=2.196000m/h.</desc>
<speed>0.610000</speed>
</trkpt>
<trkpt lat="22.334360" lon="103.778976">
<ele>2078.095703</ele>
<time>2011-04-23T23:53:13Z</time>
<desc>lat.=22.334360, lon.=103.778976, Alt.=2078.095703m. Speed=1.944000m/h.</desc>
<speed>0.540000</speed>
</trkpt>
<trkpt lat="22.334332" lon="103.778984">
<ele>2078.783203</ele>
<time>2011-04-23T23:53:18Z</time>
<desc>lat.=22.334332, lon.=103.778984, Alt.=2078.783203m. Speed=1.836000m/h.</desc>
<speed>0.510000</speed>
</trkpt>
<trkpt lat="22.334318" lon="103.779007">
<ele>2079.533203</ele>
<time>2011-04-23T23:53:23Z</time>
<desc>lat.=22.334318, lon.=103.779007, Alt.=2079.533203m. Speed=1.728000m/h.</desc>
<speed>0.480000</speed>
</trkpt>
<trkpt lat="22.334299" lon="103.779076">
<ele>2081.095703</ele>
<time>2011-04-23T23:53:28Z</time>
<desc>lat.=22.334299, lon.=103.779076, Alt.=2081.095703m. Speed=1.980000m/h.</desc>
<speed>0.550000</speed>
</trkpt>
<trkpt lat="22.334259" lon="103.779091">
<ele>2081.908203</ele>
<time>2011-04-23T23:53:33Z</time>
<desc>lat.=22.334259, lon.=103.779091, Alt.=2081.908203m. Speed=1.224000m/h.</desc>
<speed>0.340000</speed>
</trkpt>
<trkpt lat="22.334269" lon="103.779106">
<ele>2082.220703</ele>
<time>2011-04-23T23:53:38Z</time>
<desc>lat.=22.334269, lon.=103.779106, Alt.=2082.220703m. Speed=1.224000m/h.</desc>
<speed>0.340000</speed>
</trkpt>
<trkpt lat="22.334278" lon="103.779106">
<ele>2082.658203</ele>
<time>2011-04-23T23:53:43Z</time>
<desc>lat.=22.334278, lon.=103.779106, Alt.=2082.658203m. Speed=2.016000m/h.</desc>
<speed>0.560000</speed>
</trkpt>
<trkpt lat="22.334278" lon="103.779099">
<ele>2083.095703</ele>
<time>2011-04-23T23:53:48Z</time>
<desc>lat.=22.334278, lon.=103.779099, Alt.=2083.095703m. Speed=1.260000m/h.</desc>
<speed>0.350000</speed>
</trkpt>
<trkpt lat="22.334290" lon="103.779114">
<ele>2083.408203</ele>
<time>2011-04-23T23:53:53Z</time>
<desc>lat.=22.334290, lon.=103.779114, Alt.=2083.408203m. Speed=0.972000m/h.</desc>
<speed>0.270000</speed>
</trkpt>
<trkpt lat="22.334297" lon="103.779114">
<ele>2084.033203</ele>
<time>2011-04-23T23:53:58Z</time>
<desc>lat.=22.334297, lon.=103.779114, Alt.=2084.033203m. Speed=0.792000m/h.</desc>
<speed>0.220000</speed>
</trkpt>
<trkpt lat="22.334305" lon="103.779121">
<ele>2084.595703</ele>
<time>2011-04-23T23:54:03Z</time>
<desc>lat.=22.334305, lon.=103.779121, Alt.=2084.595703m. Speed=0.540000m/h.</desc>
<speed>0.150000</speed>
</trkpt>
<trkpt lat="22.334305" lon="103.779129">
<ele>2085.220703</ele>
<time>2011-04-23T23:54:08Z</time>
<desc>lat.=22.334305, lon.=103.779129, Alt.=2085.220703m. Speed=0.684000m/h.</desc>
<speed>0.190000</speed>
</trkpt>
<trkpt lat="22.334305" lon="103.779144">
<ele>2085.783203</ele>
<time>2011-04-23T23:54:13Z</time>
<desc>lat.=22.334305, lon.=103.779144, Alt.=2085.783203m. Speed=1.116000m/h.</desc>
<speed>0.310000</speed>
</trkpt>
<trkpt lat="22.334282" lon="103.779175">
<ele>2086.158203</ele>
<time>2011-04-23T23:54:18Z</time>
<desc>lat.=22.334282, lon.=103.779175, Alt.=2086.158203m. Speed=1.728000m/h.</desc>
<speed>0.480000</speed>
</trkpt>
<trkpt lat="22.334255" lon="103.779190">
<ele>2086.720703</ele>
<time>2011-04-23T23:54:23Z</time>
<desc>lat.=22.334255, lon.=103.779190, Alt.=2086.720703m. Speed=1.764000m/h.</desc>
<speed>0.490000</speed>
</trkpt>
<trkpt lat="22.334242" lon="103.779205">
<ele>2087.283203</ele>
<time>2011-04-23T23:54:28Z</time>
<desc>lat.=22.334242, lon.=103.779205, Alt.=2087.283203m. Speed=1.980000m/h.</desc>
<speed>0.550000</speed>
</trkpt>
<trkpt lat="22.334230" lon="103.779228">
<ele>2087.595703</ele>
<time>2011-04-23T23:54:33Z</time>
<desc>lat.=22.334230, lon.=103.779228, Alt.=2087.595703m. Speed=1.908000m/h.</desc>
<speed>0.530000</speed>
</trkpt>
<trkpt lat="22.334221" lon="103.779236">
<ele>2088.283203</ele>
<time>2011-04-23T23:54:38Z</time>
<desc>lat.=22.334221, lon.=103.779236, Alt.=2088.283203m. Speed=1.044000m/h.</desc>
<speed>0.290000</speed>
</trkpt>
<trkpt lat="22.334221" lon="103.779266">
<ele>2088.783203</ele>
<time>2011-04-23T23:54:43Z</time>
<desc>lat.=22.334221, lon.=103.779266, Alt.=2088.783203m. Speed=1.368000m/h.</desc>
<speed>0.380000</speed>
</trkpt>
<trkpt lat="22.334230" lon="103.779297">
<ele>2089.095703</ele>
<time>2011-04-23T23:54:48Z</time>
<desc>lat.=22.334230, lon.=103.779297, Alt.=2089.095703m. Speed=1.476000m/h.</desc>
<speed>0.410000</speed>
</trkpt>
<trkpt lat="22.334257" lon="103.779312">
<ele>2089.533203</ele>
<time>2011-04-23T23:54:53Z</time>
<desc>lat.=22.334257, lon.=103.779312, Alt.=2089.533203m. Speed=1.296000m/h.</desc>
<speed>0.360000</speed>
</trkpt>
<trkpt lat="22.334251" lon="103.779327">
<ele>2089.720703</ele>
<time>2011-04-23T23:54:58Z</time>
<desc>lat.=22.334251, lon.=103.779327, Alt.=2089.720703m. Speed=1.224000m/h.</desc>
<speed>0.340000</speed>
</trkpt>
<trkpt lat="22.334263" lon="103.779373">
<ele>2089.783203</ele>
<time>2011-04-23T23:55:03Z</time>
<desc>lat.=22.334263, lon.=103.779373, Alt.=2089.783203m. Speed=1.980000m/h.</desc>
<speed>0.550000</speed>
</trkpt>
<trkpt lat="22.334249" lon="103.779419">
<ele>2089.970703</ele>
<time>2011-04-23T23:55:08Z</time>
<desc>lat.=22.334249, lon.=103.779419, Alt.=2089.970703m. Speed=1.152000m/h.</desc>
<speed>0.320000</speed>
</trkpt>
<trkpt lat="22.334255" lon="103.779434">
<ele>2090.220703</ele>
<time>2011-04-23T23:55:13Z</time>
<desc>lat.=22.334255, lon.=103.779434, Alt.=2090.220703m. Speed=1.188000m/h.</desc>
<speed>0.330000</speed>
</trkpt>
<trkpt lat="22.334269" lon="103.779427">
<ele>2090.533203</ele>
<time>2011-04-23T23:55:18Z</time>
<desc>lat.=22.334269, lon.=103.779427, Alt.=2090.533203m. Speed=0.828000m/h.</desc>
<speed>0.230000</speed>
</trkpt>
<trkpt lat="22.334280" lon="103.779427">
<ele>2091.095703</ele>
<time>2011-04-23T23:55:23Z</time>
<desc>lat.=22.334280, lon.=103.779427, Alt.=2091.095703m. Speed=0.864000m/h.</desc>
<speed>0.240000</speed>
</trkpt>
<trkpt lat="22.334288" lon="103.779427">
<ele>2091.533203</ele>
<time>2011-04-23T23:55:28Z</time>
<desc>lat.=22.334288, lon.=103.779427, Alt.=2091.533203m. Speed=0.900000m/h.</desc>
<speed>0.250000</speed>
</trkpt>
<trkpt lat="22.334280" lon="103.779434">
<ele>2091.970703</ele>
<time>2011-04-23T23:55:33Z</time>
<desc>lat.=22.334280, lon.=103.779434, Alt.=2091.970703m. Speed=0.504000m/h.</desc>
<speed>0.140000</speed>
</trkpt>
<trkpt lat="22.334288" lon="103.779427">
<ele>2092.470703</ele>
<time>2011-04-23T23:55:38Z</time>
<desc>lat.=22.334288, lon.=103.779427, Alt.=2092.470703m. Speed=0.792000m/h.</desc>
<speed>0.220000</speed>
</trkpt>
<trkpt lat="22.334297" lon="103.779449">
<ele>2092.783203</ele>
<time>2011-04-23T23:55:43Z</time>
<desc>lat.=22.334297, lon.=103.779449, Alt.=2092.783203m. Speed=1.368000m/h.</desc>
<speed>0.380000</speed>
</trkpt>
<trkpt lat="22.334343" lon="103.779495">
<ele>2094.158203</ele>
<time>2011-04-23T23:55:48Z</time>
<desc>lat.=22.334343, lon.=103.779495, Alt.=2094.158203m. Speed=2.772000m/h.</desc>
<speed>0.770000</speed>
</trkpt>
<trkpt lat="22.334351" lon="103.779510">
<ele>2095.783203</ele>
<time>2011-04-23T23:55:53Z</time>
<desc>lat.=22.334351, lon.=103.779510, Alt.=2095.783203m. Speed=0.504000m/h.</desc>
<speed>0.140000</speed>
</trkpt>
<trkpt lat="22.334356" lon="103.779556">
<ele>2097.720703</ele>
<time>2011-04-23T23:55:58Z</time>
<desc>lat.=22.334356, lon.=103.779556, Alt.=2097.720703m. Speed=2.844000m/h.</desc>
<speed>0.790000</speed>
</trkpt>
<trkpt lat="22.334358" lon="103.779587">
<ele>2099.033203</ele>
<time>2011-04-23T23:56:03Z</time>
<desc>lat.=22.334358, lon.=103.779587, Alt.=2099.033203m. Speed=0.648000m/h.</desc>
<speed>0.180000</speed>
</trkpt>
<trkpt lat="22.334354" lon="103.779602">
<ele>2099.595703</ele>
<time>2011-04-23T23:56:08Z</time>
<desc>lat.=22.334354, lon.=103.779602, Alt.=2099.595703m. Speed=1.584000m/h.</desc>
<speed>0.440000</speed>
</trkpt>
<trkpt lat="22.334351" lon="103.779617">
<ele>2099.970703</ele>
<time>2011-04-23T23:56:13Z</time>
<desc>lat.=22.334351, lon.=103.779617, Alt.=2099.970703m. Speed=0.720000m/h.</desc>
<speed>0.200000</speed>
</trkpt>
<trkpt lat="22.334345" lon="103.779617">
<ele>2100.908203</ele>
<time>2011-04-23T23:56:18Z</time>
<desc>lat.=22.334345, lon.=103.779617, Alt.=2100.908203m. Speed=0.504000m/h.</desc>
<speed>0.140000</speed>
</trkpt>
<trkpt lat="22.334347" lon="103.779648">
<ele>2101.783203</ele>
<time>2011-04-23T23:56:23Z</time>
<desc>lat.=22.334347, lon.=103.779648, Alt.=2101.783203m. Speed=1.476000m/h.</desc>
<speed>0.410000</speed>
</trkpt>
<trkpt lat="22.334356" lon="103.779671">
<ele>2102.408203</ele>
<time>2011-04-23T23:56:28Z</time>
<desc>lat.=22.334356, lon.=103.779671, Alt.=2102.408203m. Speed=3.312000m/h.</desc>
<speed>0.920000</speed>
</trkpt>
<trkpt lat="22.334354" lon="103.779686">
<ele>2103.095703</ele>
<time>2011-04-23T23:56:33Z</time>
<desc>lat.=22.334354, lon.=103.779686, Alt.=2103.095703m. Speed=0.612000m/h.</desc>
<speed>0.170000</speed>
</trkpt>
<trkpt lat="22.334341" lon="103.779701">
<ele>2103.970703</ele>
<time>2011-04-23T23:56:38Z</time>
<desc>lat.=22.334341, lon.=103.779701, Alt.=2103.970703m. Speed=0.900000m/h.</desc>
<speed>0.250000</speed>
</trkpt>
<trkpt lat="22.334328" lon="103.779694">
<ele>2104.220703</ele>
<time>2011-04-23T23:56:43Z</time>
<desc>lat.=22.334328, lon.=103.779694, Alt.=2104.220703m. Speed=3.024000m/h.</desc>
<speed>0.840000</speed>
</trkpt>
<trkpt lat="22.334314" lon="103.779686">
<ele>2105.533203</ele>
<time>2011-04-23T23:56:48Z</time>
<desc>lat.=22.334314, lon.=103.779686, Alt.=2105.533203m. Speed=2.232000m/h.</desc>
<speed>0.620000</speed>
</trkpt>
<trkpt lat="22.334295" lon="103.779694">
<ele>2106.783203</ele>
<time>2011-04-23T23:56:53Z</time>
<desc>lat.=22.334295, lon.=103.779694, Alt.=2106.783203m. Speed=0.720000m/h.</desc>
<speed>0.200000</speed>
</trkpt>
<trkpt lat="22.334290" lon="103.779716">
<ele>2108.033203</ele>
<time>2011-04-23T23:56:58Z</time>
<desc>lat.=22.334290, lon.=103.779716, Alt.=2108.033203m. Speed=1.944000m/h.</desc>
<speed>0.540000</speed>
</trkpt>
<trkpt lat="22.334284" lon="103.779747">
<ele>2109.720703</ele>
<time>2011-04-23T23:57:03Z</time>
<desc>lat.=22.334284, lon.=103.779747, Alt.=2109.720703m. Speed=1.116000m/h.</desc>
<speed>0.310000</speed>
</trkpt>
<trkpt lat="22.334270" lon="103.779755">
<ele>2110.283203</ele>
<time>2011-04-23T23:57:08Z</time>
<desc>lat.=22.334270, lon.=103.779755, Alt.=2110.283203m. Speed=1.008000m/h.</desc>
<speed>0.280000</speed>
</trkpt>
<trkpt lat="22.334255" lon="103.779755">
<ele>2110.845703</ele>
<time>2011-04-23T23:57:13Z</time>
<desc>lat.=22.334255, lon.=103.779755, Alt.=2110.845703m. Speed=1.008000m/h.</desc>
<speed>0.280000</speed>
</trkpt>
<trkpt lat="22.334227" lon="103.779747">
<ele>2111.158203</ele>
<time>2011-04-23T23:57:18Z</time>
<desc>lat.=22.334227, lon.=103.779747, Alt.=2111.158203m. Speed=1.764000m/h.</desc>
<speed>0.490000</speed>
</trkpt>
<trkpt lat="22.334188" lon="103.779747">
<ele>2111.845703</ele>
<time>2011-04-23T23:57:23Z</time>
<desc>lat.=22.334188, lon.=103.779747, Alt.=2111.845703m. Speed=3.888000m/h.</desc>
<speed>1.080000</speed>
</trkpt>
<trkpt lat="22.334156" lon="103.779724">
<ele>2112.845703</ele>
<time>2011-04-23T23:57:28Z</time>
<desc>lat.=22.334156, lon.=103.779724, Alt.=2112.845703m. Speed=2.340000m/h.</desc>
<speed>0.650000</speed>
</trkpt>
<trkpt lat="22.334145" lon="103.779701">
<ele>2113.720703</ele>
<time>2011-04-23T23:57:33Z</time>
<desc>lat.=22.334145, lon.=103.779701, Alt.=2113.720703m. Speed=1.980000m/h.</desc>
<speed>0.550000</speed>
</trkpt>
<trkpt lat="22.334135" lon="103.779709">
<ele>2113.720703</ele>
<time>2011-04-23T23:57:38Z</time>
<desc>lat.=22.334135, lon.=103.779709, Alt.=2113.720703m. Speed=3.168000m/h.</desc>
<speed>0.880000</speed>
</trkpt>
<trkpt lat="22.334114" lon="103.779724">
<ele>2115.783203</ele>
<time>2011-04-23T23:57:43Z</time>
<desc>lat.=22.334114, lon.=103.779724, Alt.=2115.783203m. Speed=2.772000m/h.</desc>
<speed>0.770000</speed>
</trkpt>
<trkpt lat="22.334087" lon="103.779732">
<ele>2116.783203</ele>
<time>2011-04-23T23:57:48Z</time>
<desc>lat.=22.334087, lon.=103.779732, Alt.=2116.783203m. Speed=1.512000m/h.</desc>
<speed>0.420000</speed>
</trkpt>
<trkpt lat="22.334068" lon="103.779755">
<ele>2117.970703</ele>
<time>2011-04-23T23:57:53Z</time>
<desc>lat.=22.334068, lon.=103.779755, Alt.=2117.970703m. Speed=1.692000m/h.</desc>
<speed>0.470000</speed>
</trkpt>
<trkpt lat="22.334053" lon="103.779755">
<ele>2118.720703</ele>
<time>2011-04-23T23:57:58Z</time>
<desc>lat.=22.334053, lon.=103.779755, Alt.=2118.720703m. Speed=1.908000m/h.</desc>
<speed>0.530000</speed>
</trkpt>
<trkpt lat="22.334019" lon="103.779755">
<ele>2119.470703</ele>
<time>2011-04-23T23:58:03Z</time>
<desc>lat.=22.334019, lon.=103.779755, Alt.=2119.470703m. Speed=1.584000m/h.</desc>
<speed>0.440000</speed>
</trkpt>
<trkpt lat="22.334003" lon="103.779762">
<ele>2120.720703</ele>
<time>2011-04-23T23:58:08Z</time>
<desc>lat.=22.334003, lon.=103.779762, Alt.=2120.720703m. Speed=0.360000m/h.</desc>
<speed>0.100000</speed>
</trkpt>
<trkpt lat="22.334003" lon="103.779755">
<ele>2121.533203</ele>
<time>2011-04-23T23:58:13Z</time>
<desc>lat.=22.334003, lon.=103.779755, Alt.=2121.533203m. Speed=1.440000m/h.</desc>
<speed>0.400000</speed>
</trkpt>
<trkpt lat="22.334055" lon="103.779778">
<ele>2122.970703</ele>
<time>2011-04-23T23:58:18Z</time>
<desc>lat.=22.334055, lon.=103.779778, Alt.=2122.970703m. Speed=4.248000m/h.</desc>
<speed>1.180000</speed>
</trkpt>
<trkpt lat="22.334087" lon="103.779785">
<ele>2124.970703</ele>
<time>2011-04-23T23:58:23Z</time>
<desc>lat.=22.334087, lon.=103.779785, Alt.=2124.970703m. Speed=1.692000m/h.</desc>
<speed>0.470000</speed>
</trkpt>
<trkpt lat="22.334076" lon="103.779800">
<ele>2124.908203</ele>
<time>2011-04-23T23:58:28Z</time>
<desc>lat.=22.334076, lon.=103.779800, Alt.=2124.908203m. Speed=1.800000m/h.</desc>
<speed>0.500000</speed>
</trkpt>
<trkpt lat="22.334057" lon="103.779808">
<ele>2125.970703</ele>
<time>2011-04-23T23:58:33Z</time>
<desc>lat.=22.334057, lon.=103.779808, Alt.=2125.970703m. Speed=2.412000m/h.</desc>
<speed>0.670000</speed>
</trkpt>
<trkpt lat="22.334044" lon="103.779823">
<ele>2126.783203</ele>
<time>2011-04-23T23:58:38Z</time>
<desc>lat.=22.334044, lon.=103.779823, Alt.=2126.783203m. Speed=1.656000m/h.</desc>
<speed>0.460000</speed>
</trkpt>
<trkpt lat="22.334051" lon="103.779839">
<ele>2128.158203</ele>
<time>2011-04-23T23:58:43Z</time>
<desc>lat.=22.334051, lon.=103.779839, Alt.=2128.158203m. Speed=1.584000m/h.</desc>
<speed>0.440000</speed>
</trkpt>
<trkpt lat="22.334045" lon="103.779854">
<ele>2129.345703</ele>
<time>2011-04-23T23:58:48Z</time>
<desc>lat.=22.334045, lon.=103.779854, Alt.=2129.345703m. Speed=3.096000m/h.</desc>
<speed>0.860000</speed>
</trkpt>
<trkpt lat="22.334019" lon="103.779869">
<ele>2130.783203</ele>
<time>2011-04-23T23:58:53Z</time>
<desc>lat.=22.334019, lon.=103.779869, Alt.=2130.783203m. Speed=2.304000m/h.</desc>
<speed>0.640000</speed>
</trkpt>
<trkpt lat="22.333992" lon="103.779869">
<ele>2132.220703</ele>
<time>2011-04-23T23:58:58Z</time>
<desc>lat.=22.333992, lon.=103.779869, Alt.=2132.220703m. Speed=3.780000m/h.</desc>
<speed>1.050000</speed>
</trkpt>
<trkpt lat="22.333977" lon="103.779854">
<ele>2132.970703</ele>
<time>2011-04-23T23:59:03Z</time>
<desc>lat.=22.333977, lon.=103.779854, Alt.=2132.970703m. Speed=1.656000m/h.</desc>
<speed>0.460000</speed>
</trkpt>
<trkpt lat="22.333952" lon="103.779861">
<ele>2134.283203</ele>
<time>2011-04-23T23:59:08Z</time>
<desc>lat.=22.333952, lon.=103.779861, Alt.=2134.283203m. Speed=2.124000m/h.</desc>
<speed>0.590000</speed>
</trkpt>
<trkpt lat="22.333927" lon="103.779854">
<ele>2135.408203</ele>
<time>2011-04-23T23:59:13Z</time>
<desc>lat.=22.333927, lon.=103.779854, Alt.=2135.408203m. Speed=1.260000m/h.</desc>
<speed>0.350000</speed>
</trkpt>
<trkpt lat="22.333921" lon="103.779854">
<ele>2136.970703</ele>
<time>2011-04-23T23:59:18Z</time>
<desc>lat.=22.333921, lon.=103.779854, Alt.=2136.970703m. Speed=0.612000m/h.</desc>
<speed>0.170000</speed>
</trkpt>
<trkpt lat="22.333914" lon="103.779846">
<ele>2138.158203</ele>
<time>2011-04-23T23:59:23Z</time>
<desc>lat.=22.333914, lon.=103.779846, Alt.=2138.158203m. Speed=0.468000m/h.</desc>
<speed>0.130000</speed>
</trkpt>
<trkpt lat="22.333904" lon="103.779846">
<ele>2138.220703</ele>
<time>2011-04-23T23:59:28Z</time>
<desc>lat.=22.333904, lon.=103.779846, Alt.=2138.220703m. Speed=1.584000m/h.</desc>
<speed>0.440000</speed>
</trkpt>
<trkpt lat="22.333881" lon="103.779854">
<ele>2139.658203</ele>
<time>2011-04-23T23:59:33Z</time>
<desc>lat.=22.333881, lon.=103.779854, Alt.=2139.658203m. Speed=2.196000m/h.</desc>
<speed>0.610000</speed>
</trkpt>
<trkpt lat="22.333860" lon="103.779854">
<ele>2140.908203</ele>
<time>2011-04-23T23:59:38Z</time>
<desc>lat.=22.333860, lon.=103.779854, Alt.=2140.908203m. Speed=1.656000m/h.</desc>
<speed>0.460000</speed>
</trkpt>
<trkpt lat="22.333849" lon="103.779869">
<ele>2142.283203</ele>
<time>2011-04-23T23:59:43Z</time>
<desc>lat.=22.333849, lon.=103.779869, Alt.=2142.283203m. Speed=2.412000m/h.</desc>
<speed>0.670000</speed>
</trkpt>
<trkpt lat="22.333838" lon="103.779877">
<ele>2144.283203</ele>
<time>2011-04-23T23:59:48Z</time>
<desc>lat.=22.333838, lon.=103.779877, Alt.=2144.283203m. Speed=1.224000m/h.</desc>
<speed>0.340000</speed>
</trkpt>
<trkpt lat="22.333817" lon="103.779884">
<ele>2144.970703</ele>
<time>2011-04-23T23:59:53Z</time>
<desc>lat.=22.333817, lon.=103.779884, Alt.=2144.970703m. Speed=1.080000m/h.</desc>
<speed>0.300000</speed>
</trkpt>
<trkpt lat="22.333807" lon="103.779892">
<ele>2147.095703</ele>
<time>2011-04-23T23:59:58Z</time>
<desc>lat.=22.333807, lon.=103.779892, Alt.=2147.095703m. Speed=1.944000m/h.</desc>
<speed>0.540000</speed>
</trkpt>
<trkpt lat="22.333813" lon="103.779915">
<ele>2148.908203</ele>
<time>2011-04-24T00:00:03Z</time>
<desc>lat.=22.333813, lon.=103.779915, Alt.=2148.908203m. Speed=1.908000m/h.</desc>
<speed>0.530000</speed>
</trkpt>
<trkpt lat="22.333824" lon="103.779945">
<ele>2150.408203</ele>
<time>2011-04-24T00:00:08Z</time>
<desc>lat.=22.333824, lon.=103.779945, Alt.=2150.408203m. Speed=3.024000m/h.</desc>
<speed>0.840000</speed>
</trkpt>
<trkpt lat="22.333786" lon="103.779961">
<ele>2149.470703</ele>
<time>2011-04-24T00:00:13Z</time>
<desc>lat.=22.333786, lon.=103.779961, Alt.=2149.470703m. Speed=2.700000m/h.</desc>
<speed>0.750000</speed>
</trkpt>
<trkpt lat="22.333761" lon="103.779976">
<ele>2148.658203</ele>
<time>2011-04-24T00:00:18Z</time>
<desc>lat.=22.333761, lon.=103.779976, Alt.=2148.658203m. Speed=3.204000m/h.</desc>
<speed>0.890000</speed>
</trkpt>
<trkpt lat="22.333714" lon="103.779976">
<ele>2148.220703</ele>
<time>2011-04-24T00:00:23Z</time>
<desc>lat.=22.333714, lon.=103.779976, Alt.=2148.220703m. Speed=2.268000m/h.</desc>
<speed>0.630000</speed>
</trkpt>
<trkpt lat="22.333704" lon="103.779976">
<ele>2148.220703</ele>
<time>2011-04-24T00:00:28Z</time>
<desc>lat.=22.333704, lon.=103.779976, Alt.=2148.220703m. Speed=2.016000m/h.</desc>
<speed>0.560000</speed>
</trkpt>
<trkpt lat="22.333700" lon="103.779968">
<ele>2148.158203</ele>
<time>2011-04-24T00:00:33Z</time>
<desc>lat.=22.333700, lon.=103.779968, Alt.=2148.158203m. Speed=0.396000m/h.</desc>
<speed>0.110000</speed>
</trkpt>
<trkpt lat="22.333704" lon="103.779968">
<ele>2148.033203</ele>
<time>2011-04-24T00:00:38Z</time>
<desc>lat.=22.333704, lon.=103.779968, Alt.=2148.033203m. Speed=2.520000m/h.</desc>
<speed>0.700000</speed>
</trkpt>
<trkpt lat="22.333687" lon="103.779953">
<ele>2148.533203</ele>
<time>2011-04-24T00:00:43Z</time>
<desc>lat.=22.333687, lon.=103.779953, Alt.=2148.533203m. Speed=2.016000m/h.</desc>
<speed>0.560000</speed>
</trkpt>
<trkpt lat="22.333670" lon="103.779930">
<ele>2149.845703</ele>
<time>2011-04-24T00:00:48Z</time>
<desc>lat.=22.333670, lon.=103.779930, Alt.=2149.845703m. Speed=2.412000m/h.</desc>
<speed>0.670000</speed>
</trkpt>
<trkpt lat="22.333651" lon="103.779892">
<ele>2151.220703</ele>
<time>2011-04-24T00:00:53Z</time>
<desc>lat.=22.333651, lon.=103.779892, Alt.=2151.220703m. Speed=3.420000m/h.</desc>
<speed>0.950000</speed>
</trkpt>
<trkpt lat="22.333633" lon="103.779839">
<ele>2151.283203</ele>
<time>2011-04-24T00:00:58Z</time>
<desc>lat.=22.333633, lon.=103.779839, Alt.=2151.283203m. Speed=4.896000m/h.</desc>
<speed>1.360000</speed>
</trkpt>
<trkpt lat="22.333607" lon="103.779800">
<ele>2152.283203</ele>
<time>2011-04-24T00:01:03Z</time>
<desc>lat.=22.333607, lon.=103.779800, Alt.=2152.283203m. Speed=3.132000m/h.</desc>
<speed>0.870000</speed>
</trkpt>
<trkpt lat="22.333595" lon="103.779755">
<ele>2152.970703</ele>
<time>2011-04-24T00:01:08Z</time>
<desc>lat.=22.333595, lon.=103.779755, Alt.=2152.970703m. Speed=1.548000m/h.</desc>
<speed>0.430000</speed>
</trkpt>
<trkpt lat="22.333582" lon="103.779747">
<ele>2153.908203</ele>
<time>2011-04-24T00:01:13Z</time>
<desc>lat.=22.333582, lon.=103.779747, Alt.=2153.908203m. Speed=3.024000m/h.</desc>
<speed>0.840000</speed>
</trkpt>
<trkpt lat="22.333563" lon="103.779739">
<ele>2155.470703</ele>
<time>2011-04-24T00:01:18Z</time>
<desc>lat.=22.333563, lon.=103.779739, Alt.=2155.470703m. Speed=1.512000m/h.</desc>
<speed>0.420000</speed>
</trkpt>
<trkpt lat="22.333532" lon="103.779732">
<ele>2156.283203</ele>
<time>2011-04-24T00:01:23Z</time>
<desc>lat.=22.333532, lon.=103.779732, Alt.=2156.283203m. Speed=2.340000m/h.</desc>
<speed>0.650000</speed>
</trkpt>
<trkpt lat="22.333515" lon="103.779709">
<ele>2157.595703</ele>
<time>2011-04-24T00:01:28Z</time>
<desc>lat.=22.333515, lon.=103.779709, Alt.=2157.595703m. Speed=2.196000m/h.</desc>
<speed>0.610000</speed>
</trkpt>
<trkpt lat="22.333496" lon="103.779686">
<ele>2159.283203</ele>
<time>2011-04-24T00:01:33Z</time>
<desc>lat.=22.333496, lon.=103.779686, Alt.=2159.283203m. Speed=2.592000m/h.</desc>
<speed>0.720000</speed>
</trkpt>
<trkpt lat="22.333466" lon="103.779686">
<ele>2160.533203</ele>
<time>2011-04-24T00:01:38Z</time>
<desc>lat.=22.333466, lon.=103.779686, Alt.=2160.533203m. Speed=1.764000m/h.</desc>
<speed>0.490000</speed>
</trkpt>
<trkpt lat="22.333441" lon="103.779663">
<ele>2161.658203</ele>
<time>2011-04-24T00:01:43Z</time>
<desc>lat.=22.333441, lon.=103.779663, Alt.=2161.658203m. Speed=1.836000m/h.</desc>
<speed>0.510000</speed>
</trkpt>
<trkpt lat="22.333412" lon="103.779655">
<ele>2162.908203</ele>
<time>2011-04-24T00:01:48Z</time>
<desc>lat.=22.333412, lon.=103.779655, Alt.=2162.908203m. Speed=2.700000m/h.</desc>
<speed>0.750000</speed>
</trkpt>
<trkpt lat="22.333370" lon="103.779633">
<ele>2162.783203</ele>
<time>2011-04-24T00:01:53Z</time>
<desc>lat.=22.333370, lon.=103.779633, Alt.=2162.783203m. Speed=3.456000m/h.</desc>
<speed>0.960000</speed>
</trkpt>
<trkpt lat="22.333334" lon="103.779617">
<ele>2163.095703</ele>
<time>2011-04-24T00:01:58Z</time>
<desc>lat.=22.333334, lon.=103.779617, Alt.=2163.095703m. Speed=3.168000m/h.</desc>
<speed>0.880000</speed>
</trkpt>
<trkpt lat="22.333290" lon="103.779625">
<ele>2163.408203</ele>
<time>2011-04-24T00:02:03Z</time>
<desc>lat.=22.333290, lon.=103.779625, Alt.=2163.408203m. Speed=4.032000m/h.</desc>
<speed>1.120000</speed>
</trkpt>
<trkpt lat="22.333267" lon="103.779587">
<ele>2164.658203</ele>
<time>2011-04-24T00:02:08Z</time>
<desc>lat.=22.333267, lon.=103.779587, Alt.=2164.658203m. Speed=3.168000m/h.</desc>
<speed>0.880000</speed>
</trkpt>
<trkpt lat="22.333246" lon="103.779556">
<ele>2166.220703</ele>
<time>2011-04-24T00:02:13Z</time>
<desc>lat.=22.333246, lon.=103.779556, Alt.=2166.220703m. Speed=4.212000m/h.</desc>
<speed>1.170000</speed>
</trkpt>
<trkpt lat="22.333199" lon="103.779533">
<ele>2167.033203</ele>
<time>2011-04-24T00:02:18Z</time>
<desc>lat.=22.333199, lon.=103.779533, Alt.=2167.033203m. Speed=3.888000m/h.</desc>
<speed>1.080000</speed>
</trkpt>
<trkpt lat="22.333149" lon="103.779503">
<ele>2167.220703</ele>
<time>2011-04-24T00:02:23Z</time>
<desc>lat.=22.333149, lon.=103.779503, Alt.=2167.220703m. Speed=4.536000m/h.</desc>
<speed>1.260000</speed>
</trkpt>
<trkpt lat="22.333105" lon="103.779488">
<ele>2166.033203</ele>
<time>2011-04-24T00:02:28Z</time>
<desc>lat.=22.333105, lon.=103.779488, Alt.=2166.033203m. Speed=4.500000m/h.</desc>
<speed>1.250000</speed>
</trkpt>
<trkpt lat="22.333059" lon="103.779449">
<ele>2165.720703</ele>
<time>2011-04-24T00:02:33Z</time>
<desc>lat.=22.333059, lon.=103.779449, Alt.=2165.720703m. Speed=3.672000m/h.</desc>
<speed>1.020000</speed>
</trkpt>
<trkpt lat="22.333033" lon="103.779411">
<ele>2166.095703</ele>
<time>2011-04-24T00:02:38Z</time>
<desc>lat.=22.333033, lon.=103.779411, Alt.=2166.095703m. Speed=3.888000m/h.</desc>
<speed>1.080000</speed>
</trkpt>
<trkpt lat="22.332981" lon="103.779388">
<ele>2166.033203</ele>
<time>2011-04-24T00:02:43Z</time>
<desc>lat.=22.332981, lon.=103.779388, Alt.=2166.033203m. Speed=5.328000m/h.</desc>
<speed>1.480000</speed>
</trkpt>
<trkpt lat="22.332947" lon="103.779350">
<ele>2166.095703</ele>
<time>2011-04-24T00:02:48Z</time>
<desc>lat.=22.332947, lon.=103.779350, Alt.=2166.095703m. Speed=3.708000m/h.</desc>
<speed>1.030000</speed>
</trkpt>
<trkpt lat="22.332924" lon="103.779335">
<ele>2166.033203</ele>
<time>2011-04-24T00:02:53Z</time>
<desc>lat.=22.332924, lon.=103.779335, Alt.=2166.033203m. Speed=1.404000m/h.</desc>
<speed>0.390000</speed>
</trkpt>
<trkpt lat="22.332888" lon="103.779297">
<ele>2165.595703</ele>
<time>2011-04-24T00:02:58Z</time>
<desc>lat.=22.332888, lon.=103.779297, Alt.=2165.595703m. Speed=3.348000m/h.</desc>
<speed>0.930000</speed>
</trkpt>
<trkpt lat="22.332857" lon="103.779282">
<ele>2165.908203</ele>
<time>2011-04-24T00:03:03Z</time>
<desc>lat.=22.332857, lon.=103.779282, Alt.=2165.908203m. Speed=2.736000m/h.</desc>
<speed>0.760000</speed>
</trkpt>
<trkpt lat="22.332829" lon="103.779236">
<ele>2165.845703</ele>
<time>2011-04-24T00:03:08Z</time>
<desc>lat.=22.332829, lon.=103.779236, Alt.=2165.845703m. Speed=3.492000m/h.</desc>
<speed>0.970000</speed>
</trkpt>
<trkpt lat="22.332815" lon="103.779205">
<ele>2165.783203</ele>
<time>2011-04-24T00:03:13Z</time>
<desc>lat.=22.332815, lon.=103.779205, Alt.=2165.783203m. Speed=2.700000m/h.</desc>
<speed>0.750000</speed>
</trkpt>
<trkpt lat="22.332781" lon="103.779175">
<ele>2165.970703</ele>
<time>2011-04-24T00:03:18Z</time>
<desc>lat.=22.332781, lon.=103.779175, Alt.=2165.970703m. Speed=2.916000m/h.</desc>
<speed>0.810000</speed>
</trkpt>
<trkpt lat="22.332735" lon="103.779167">
<ele>2166.095703</ele>
<time>2011-04-24T00:03:23Z</time>
<desc>lat.=22.332735, lon.=103.779167, Alt.=2166.095703m. Speed=2.628000m/h.</desc>
<speed>0.730000</speed>
</trkpt>
<trkpt lat="22.332706" lon="103.779167">
<ele>2165.970703</ele>
<time>2011-04-24T00:03:28Z</time>
<desc>lat.=22.332706, lon.=103.779167, Alt.=2165.970703m. Speed=1.764000m/h.</desc>
<speed>0.490000</speed>
</trkpt>
<trkpt lat="22.332684" lon="103.779152">
<ele>2166.470703</ele>
<time>2011-04-24T00:03:33Z</time>
<desc>lat.=22.332684, lon.=103.779152, Alt.=2166.470703m. Speed=0.540000m/h.</desc>
<speed>0.150000</speed>
</trkpt>
<trkpt lat="22.332655" lon="103.779160">
<ele>2166.720703</ele>
<time>2011-04-24T00:03:38Z</time>
<desc>lat.=22.332655, lon.=103.779160, Alt.=2166.720703m. Speed=1.188000m/h.</desc>
<speed>0.330000</speed>
</trkpt>
<trkpt lat="22.332607" lon="103.779175">
<ele>2167.720703</ele>
<time>2011-04-24T00:03:43Z</time>
<desc>lat.=22.332607, lon.=103.779175, Alt.=2167.720703m. Speed=4.860000m/h.</desc>
<speed>1.350000</speed>
</trkpt>
<trkpt lat="22.332582" lon="103.779190">
<ele>2169.095703</ele>
<time>2011-04-24T00:03:48Z</time>
<desc>lat.=22.332582, lon.=103.779190, Alt.=2169.095703m. Speed=1.908000m/h.</desc>
<speed>0.530000</speed>
</trkpt>
<trkpt lat="22.332548" lon="103.779190">
<ele>2170.283203</ele>
<time>2011-04-24T00:03:53Z</time>
<desc>lat.=22.332548, lon.=103.779190, Alt.=2170.283203m. Speed=2.988000m/h.</desc>
<speed>0.830000</speed>
</trkpt>
<trkpt lat="22.332516" lon="103.779182">
<ele>2171.095703</ele>
<time>2011-04-24T00:03:58Z</time>
<desc>lat.=22.332516, lon.=103.779182, Alt.=2171.095703m. Speed=3.024000m/h.</desc>
<speed>0.840000</speed>
</trkpt>
<trkpt lat="22.332470" lon="103.779190">
<ele>2172.283203</ele>
<time>2011-04-24T00:04:03Z</time>
<desc>lat.=22.332470, lon.=103.779190, Alt.=2172.283203m. Speed=2.520000m/h.</desc>
<speed>0.700000</speed>
</trkpt>
<trkpt lat="22.332439" lon="103.779182">
<ele>2173.283203</ele>
<time>2011-04-24T00:04:08Z</time>
<desc>lat.=22.332439, lon.=103.779182, Alt.=2173.283203m. Speed=2.088000m/h.</desc>
<speed>0.580000</speed>
</trkpt>
<trkpt lat="22.332401" lon="103.779198">
<ele>2174.345703</ele>
<time>2011-04-24T00:04:13Z</time>
<desc>lat.=22.332401, lon.=103.779198, Alt.=2174.345703m. Speed=3.276000m/h.</desc>
<speed>0.910000</speed>
</trkpt>
<trkpt lat="22.332357" lon="103.779205">
<ele>2175.283203</ele>
<time>2011-04-24T00:04:18Z</time>
<desc>lat.=22.332357, lon.=103.779205, Alt.=2175.283203m. Speed=3.456000m/h.</desc>
<speed>0.960000</speed>
</trkpt>
<trkpt lat="22.332304" lon="103.779205">
<ele>2176.470703</ele>
<time>2011-04-24T00:04:23Z</time>
<desc>lat.=22.332304, lon.=103.779205, Alt.=2176.470703m. Speed=3.096000m/h.</desc>
<speed>0.860000</speed>
</trkpt>
<trkpt lat="22.332266" lon="103.779198">
<ele>2177.533203</ele>
<time>2011-04-24T00:04:28Z</time>
<desc>lat.=22.332266, lon.=103.779198, Alt.=2177.533203m. Speed=2.088000m/h.</desc>
<speed>0.580000</speed>
</trkpt>
<trkpt lat="22.332222" lon="103.779213">
<ele>2178.283203</ele>
<time>2011-04-24T00:04:33Z</time>
<desc>lat.=22.332222, lon.=103.779213, Alt.=2178.283203m. Speed=2.160000m/h.</desc>
<speed>0.600000</speed>
</trkpt>
<trkpt lat="22.332178" lon="103.779228">
<ele>2179.283203</ele>
<time>2011-04-24T00:04:38Z</time>
<desc>lat.=22.332178, lon.=103.779228, Alt.=2179.283203m. Speed=1.692000m/h.</desc>
<speed>0.470000</speed>
</trkpt>
<trkpt lat="22.332165" lon="103.779259">
<ele>2180.470703</ele>
<time>2011-04-24T00:04:43Z</time>
<desc>lat.=22.332165, lon.=103.779259, Alt.=2180.470703m. Speed=1.044000m/h.</desc>
<speed>0.290000</speed>
</trkpt>
<trkpt lat="22.332140" lon="103.779259">
<ele>2182.220703</ele>
<time>2011-04-24T00:04:48Z</time>
<desc>lat.=22.332140, lon.=103.779259, Alt.=2182.220703m. Speed=1.908000m/h.</desc>
<speed>0.530000</speed>
</trkpt>
<trkpt lat="22.332100" lon="103.779259">
<ele>2183.533203</ele>
<time>2011-04-24T00:04:53Z</time>
<desc>lat.=22.332100, lon.=103.779259, Alt.=2183.533203m. Speed=2.844000m/h.</desc>
<speed>0.790000</speed>
</trkpt>
<trkpt lat="22.332043" lon="103.779243">
<ele>2184.533203</ele>
<time>2011-04-24T00:04:58Z</time>
<desc>lat.=22.332043, lon.=103.779243, Alt.=2184.533203m. Speed=2.664000m/h.</desc>
<speed>0.740000</speed>
</trkpt>
<trkpt lat="22.332012" lon="103.779243">
<ele>2185.283203</ele>
<time>2011-04-24T00:05:03Z</time>
<desc>lat.=22.332012, lon.=103.779243, Alt.=2185.283203m. Speed=1.692000m/h.</desc>
<speed>0.470000</speed>
</trkpt>
<trkpt lat="22.331978" lon="103.779243">
<ele>2186.095703</ele>
<time>2011-04-24T00:05:08Z</time>
<desc>lat.=22.331978, lon.=103.779243, Alt.=2186.095703m. Speed=1.944000m/h.</desc>
<speed>0.540000</speed>
</trkpt>
<trkpt lat="22.331957" lon="103.779243">
<ele>2187.095703</ele>
<time>2011-04-24T00:05:13Z</time>
<desc>lat.=22.331957, lon.=103.779243, Alt.=2187.095703m. Speed=1.872000m/h.</desc>
<speed>0.520000</speed>
</trkpt>
<trkpt lat="22.331923" lon="103.779236">
<ele>2187.908203</ele>
<time>2011-04-24T00:05:18Z</time>
<desc>lat.=22.331923, lon.=103.779236, Alt.=2187.908203m. Speed=2.664000m/h.</desc>
<speed>0.740000</speed>
</trkpt>
<trkpt lat="22.331884" lon="103.779228">
<ele>2188.845703</ele>
<time>2011-04-24T00:05:23Z</time>
<desc>lat.=22.331884, lon.=103.779228, Alt.=2188.845703m. Speed=2.232000m/h.</desc>
<speed>0.620000</speed>
</trkpt>
<trkpt lat="22.331848" lon="103.779221">
<ele>2189.783203</ele>
<time>2011-04-24T00:05:28Z</time>
<desc>lat.=22.331848, lon.=103.779221, Alt.=2189.783203m. Speed=2.124000m/h.</desc>
<speed>0.590000</speed>
</trkpt>
<trkpt lat="22.331839" lon="103.779243">
<ele>2190.658203</ele>
<time>2011-04-24T00:05:33Z</time>
<desc>lat.=22.331839, lon.=103.779243, Alt.=2190.658203m. Speed=1.440000m/h.</desc>
<speed>0.400000</speed>
</trkpt>
<trkpt lat="22.331808" lon="103.779251">
<ele>2191.533203</ele>
<time>2011-04-24T00:05:38Z</time>
<desc>lat.=22.331808, lon.=103.779251, Alt.=2191.533203m. Speed=1.152000m/h.</desc>
<speed>0.320000</speed>
</trkpt>
<trkpt lat="22.331768" lon="103.779236">
<ele>2191.533203</ele>
<time>2011-04-24T00:05:43Z</time>
<desc>lat.=22.331768, lon.=103.779236, Alt.=2191.533203m. Speed=3.276000m/h.</desc>
<speed>0.910000</speed>
</trkpt>
<trkpt lat="22.331724" lon="103.779266">
<ele>2191.908203</ele>
<time>2011-04-24T00:05:48Z</time>
<desc>lat.=22.331724, lon.=103.779266, Alt.=2191.908203m. Speed=2.844000m/h.</desc>
<speed>0.790000</speed>
</trkpt>
<trkpt lat="22.331669" lon="103.779289">
<ele>2192.970703</ele>
<time>2011-04-24T00:05:53Z</time>
<desc>lat.=22.331669, lon.=103.779289, Alt.=2192.970703m. Speed=3.528000m/h.</desc>
<speed>0.980000</speed>
</trkpt>
<trkpt lat="22.331656" lon="103.779266">
<ele>2194.470703</ele>
<time>2011-04-24T00:05:58Z</time>
<desc>lat.=22.331656, lon.=103.779266, Alt.=2194.470703m. Speed=4.068000m/h.</desc>
<speed>1.130000</speed>
</trkpt>
<trkpt lat="22.331610" lon="103.779266">
<ele>2195.095703</ele>
<time>2011-04-24T00:06:03Z</time>
<desc>lat.=22.331610, lon.=103.779266, Alt.=2195.095703m. Speed=3.744000m/h.</desc>
<speed>1.040000</speed>
</trkpt>
<trkpt lat="22.331562" lon="103.779259">
<ele>2196.158203</ele>
<time>2011-04-24T00:06:08Z</time>
<desc>lat.=22.331562, lon.=103.779259, Alt.=2196.158203m. Speed=2.988000m/h.</desc>
<speed>0.830000</speed>
</trkpt>
<trkpt lat="22.331526" lon="103.779251">
<ele>2197.158203</ele>
<time>2011-04-24T00:06:13Z</time>
<desc>lat.=22.331526, lon.=103.779251, Alt.=2197.158203m. Speed=3.060000m/h.</desc>
<speed>0.850000</speed>
</trkpt>
<trkpt lat="22.331463" lon="103.779236">
<ele>2198.158203</ele>
<time>2011-04-24T00:06:18Z</time>
<desc>lat.=22.331463, lon.=103.779236, Alt.=2198.158203m. Speed=2.916000m/h.</desc>
<speed>0.810000</speed>
</trkpt>
<trkpt lat="22.331417" lon="103.779251">
<ele>2198.720703</ele>
<time>2011-04-24T00:06:23Z</time>
<desc>lat.=22.331417, lon.=103.779251, Alt.=2198.720703m. Speed=4.824000m/h.</desc>
<speed>1.340000</speed>
</trkpt>
<trkpt lat="22.331392" lon="103.779266">
<ele>2199.720703</ele>
<time>2011-04-24T00:06:28Z</time>
<desc>lat.=22.331392, lon.=103.779266, Alt.=2199.720703m. Speed=2.880000m/h.</desc>
<speed>0.800000</speed>
</trkpt>
<trkpt lat="22.331337" lon="103.779282">
<ele>2201.345703</ele>
<time>2011-04-24T00:06:33Z</time>
<desc>lat.=22.331337, lon.=103.779282, Alt.=2201.345703m. Speed=3.456000m/h.</desc>
<speed>0.960000</speed>
</trkpt>
<trkpt lat="22.331310" lon="103.779320">
<ele>2202.783203</ele>
<time>2011-04-24T00:06:38Z</time>
<desc>lat.=22.331310, lon.=103.779320, Alt.=2202.783203m. Speed=2.088000m/h.</desc>
<speed>0.580000</speed>
</trkpt>
<trkpt lat="22.331257" lon="103.779327">
<ele>2203.658203</ele>
<time>2011-04-24T00:06:43Z</time>
<desc>lat.=22.331257, lon.=103.779327, Alt.=2203.658203m. Speed=3.024000m/h.</desc>
<speed>0.840000</speed>
</trkpt>
<trkpt lat="22.331230" lon="103.779350">
<ele>2204.720703</ele>
<time>2011-04-24T00:06:48Z</time>
<desc>lat.=22.331230, lon.=103.779350, Alt.=2204.720703m. Speed=3.996000m/h.</desc>
<speed>1.110000</speed>
</trkpt>
<trkpt lat="22.331190" lon="103.779388">
<ele>2205.408203</ele>
<time>2011-04-24T00:06:53Z</time>
<desc>lat.=22.331190, lon.=103.779388, Alt.=2205.408203m. Speed=2.844000m/h.</desc>
<speed>0.790000</speed>
</trkpt>
<trkpt lat="22.331160" lon="103.779411">
<ele>2206.220703</ele>
<time>2011-04-24T00:06:58Z</time>
<desc>lat.=22.331160, lon.=103.779411, Alt.=2206.220703m. Speed=2.484000m/h.</desc>
<speed>0.690000</speed>
</trkpt>
<trkpt lat="22.331133" lon="103.779449">
<ele>2207.095703</ele>
<time>2011-04-24T00:07:03Z</time>
<desc>lat.=22.331133, lon.=103.779449, Alt.=2207.095703m. Speed=2.952000m/h.</desc>
<speed>0.820000</speed>
</trkpt>
<trkpt lat="22.331074" lon="103.779503">
<ele>2207.908203</ele>
<time>2011-04-24T00:07:08Z</time>
<desc>lat.=22.331074, lon.=103.779503, Alt.=2207.908203m. Speed=3.456000m/h.</desc>
<speed>0.960000</speed>
</trkpt>
<trkpt lat="22.331079" lon="103.779518">
<ele>2208.970703</ele>
<time>2011-04-24T00:07:13Z</time>
<desc>lat.=22.331079, lon.=103.779518, Alt.=2208.970703m. Speed=0.576000m/h.</desc>
<speed>0.160000</speed>
</trkpt>
<trkpt lat="22.331072" lon="103.779541">
<ele>2209.408203</ele>
<time>2011-04-24T00:07:18Z</time>
<desc>lat.=22.331072, lon.=103.779541, Alt.=2209.408203m. Speed=0.504000m/h.</desc>
<speed>0.140000</speed>
</trkpt>
<trkpt lat="22.331079" lon="103.779579">
<ele>2209.345703</ele>
<time>2011-04-24T00:07:23Z</time>
<desc>lat.=22.331079, lon.=103.779579, Alt.=2209.345703m. Speed=3.600000m/h.</desc>
<speed>1.000000</speed>
</trkpt>
<trkpt lat="22.331060" lon="103.779617">
<ele>2209.220703</ele>
<time>2011-04-24T00:07:28Z</time>
<desc>lat.=22.331060, lon.=103.779617, Alt.=2209.220703m. Speed=3.600000m/h.</desc>
<speed>1.000000</speed>
</trkpt>
<trkpt lat="22.331074" lon="103.779663">
<ele>2209.283203</ele>
<time>2011-04-24T00:07:33Z</time>
<desc>lat.=22.331074, lon.=103.779663, Alt.=2209.283203m. Speed=3.564000m/h.</desc>
<speed>0.990000</speed>
</trkpt>
<trkpt lat="22.331047" lon="103.779686">
<ele>2209.095703</ele>
<time>2011-04-24T00:07:38Z</time>
<desc>lat.=22.331047, lon.=103.779686, Alt.=2209.095703m. Speed=2.196000m/h.</desc>
<speed>0.610000</speed>
</trkpt>
<trkpt lat="22.331015" lon="103.779701">
<ele>2208.908203</ele>
<time>2011-04-24T00:07:43Z</time>
<desc>lat.=22.331015, lon.=103.779701, Alt.=2208.908203m. Speed=2.808000m/h.</desc>
<speed>0.780000</speed>
</trkpt>
<trkpt lat="22.331009" lon="103.779716">
<ele>2208.720703</ele>
<time>2011-04-24T00:07:48Z</time>
<desc>lat.=22.331009, lon.=103.779716, Alt.=2208.720703m. Speed=1.224000m/h.</desc>
<speed>0.340000</speed>
</trkpt>
<trkpt lat="22.330973" lon="103.779739">
<ele>2208.283203</ele>
<time>2011-04-24T00:07:53Z</time>
<desc>lat.=22.330973, lon.=103.779739, Alt.=2208.283203m. Speed=0.648000m/h.</desc>
<speed>0.180000</speed>
</trkpt>
<trkpt lat="22.330959" lon="103.779770">
<ele>2208.033203</ele>
<time>2011-04-24T00:07:58Z</time>
<desc>lat.=22.330959, lon.=103.779770, Alt.=2208.033203m. Speed=1.332000m/h.</desc>
<speed>0.370000</speed>
</trkpt>
<trkpt lat="22.330933" lon="103.779839">
<ele>2208.033203</ele>
<time>2011-04-24T00:08:03Z</time>
<desc>lat.=22.330933, lon.=103.779839, Alt.=2208.033203m. Speed=2.016000m/h.</desc>
<speed>0.560000</speed>
</trkpt>
<trkpt lat="22.330887" lon="103.779877">
<ele>2208.158203</ele>
<time>2011-04-24T00:08:08Z</time>
<desc>lat.=22.330887, lon.=103.779877, Alt.=2208.158203m. Speed=2.628000m/h.</desc>
<speed>0.730000</speed>
</trkpt>
<trkpt lat="22.330870" lon="103.779922">
<ele>2208.470703</ele>
<time>2011-04-24T00:08:13Z</time>
<desc>lat.=22.330870, lon.=103.779922, Alt.=2208.470703m. Speed=2.916000m/h.</desc>
<speed>0.810000</speed>
</trkpt>
<trkpt lat="22.330833" lon="103.779976">
<ele>2209.408203</ele>
<time>2011-04-24T00:08:18Z</time>
<desc>lat.=22.330833, lon.=103.779976, Alt.=2209.408203m. Speed=2.844000m/h.</desc>
<speed>0.790000</speed>
</trkpt>
<trkpt lat="22.330797" lon="103.780014">
<ele>2210.033203</ele>
<time>2011-04-24T00:08:23Z</time>
<desc>lat.=22.330797, lon.=103.780014, Alt.=2210.033203m. Speed=2.412000m/h.</desc>
<speed>0.670000</speed>
</trkpt>
<trkpt lat="22.330770" lon="103.780037">
<ele>2210.595703</ele>
<time>2011-04-24T00:08:28Z</time>
<desc>lat.=22.330770, lon.=103.780037, Alt.=2210.595703m. Speed=1.188000m/h.</desc>
<speed>0.330000</speed>
</trkpt>
<trkpt lat="22.330730" lon="103.780022">
<ele>2210.845703</ele>
<time>2011-04-24T00:08:33Z</time>
<desc>lat.=22.330730, lon.=103.780022, Alt.=2210.845703m. Speed=2.340000m/h.</desc>
<speed>0.650000</speed>
</trkpt>
<trkpt lat="22.330696" lon="103.780014">
<ele>2211.095703</ele>
<time>2011-04-24T00:08:38Z</time>
<desc>lat.=22.330696, lon.=103.780014, Alt.=2211.095703m. Speed=1.908000m/h.</desc>
<speed>0.530000</speed>
</trkpt>
<trkpt lat="22.330694" lon="103.780014">
<ele>2211.158203</ele>
<time>2011-04-24T00:08:43Z</time>
<desc>lat.=22.330694, lon.=103.780014, Alt.=2211.158203m. Speed=0.576000m/h.</desc>
<speed>0.160000</speed>
</trkpt>
<trkpt lat="22.330666" lon="103.780029">
<ele>2211.158203</ele>
<time>2011-04-24T00:08:48Z</time>
<desc>lat.=22.330666, lon.=103.780029, Alt.=2211.158203m. Speed=0.432000m/h.</desc>
<speed>0.120000</speed>
</trkpt>
<trkpt lat="22.330664" lon="103.780037">
<ele>2211.220703</ele>
<time>2011-04-24T00:08:53Z</time>
<desc>lat.=22.330664, lon.=103.780037, Alt.=2211.220703m. Speed=0.900000m/h.</desc>
<speed>0.250000</speed>
</trkpt>
<trkpt lat="22.330641" lon="103.780083">
<ele>2211.283203</ele>
<time>2011-04-24T00:08:58Z</time>
<desc>lat.=22.330641, lon.=103.780083, Alt.=2211.283203m. Speed=2.664000m/h.</desc>
<speed>0.740000</speed>
</trkpt>
<trkpt lat="22.330593" lon="103.780136">
<ele>2211.783203</ele>
<time>2011-04-24T00:09:03Z</time>
<desc>lat.=22.330593, lon.=103.780136, Alt.=2211.783203m. Speed=2.736000m/h.</desc>
<speed>0.760000</speed>
</trkpt>
<trkpt lat="22.330574" lon="103.780205">
<ele>2211.595703</ele>
<time>2011-04-24T00:09:08Z</time>
<desc>lat.=22.330574, lon.=103.780205, Alt.=2211.595703m. Speed=2.772000m/h.</desc>
<speed>0.770000</speed>
</trkpt>
<trkpt lat="22.330509" lon="103.780235">
<ele>2211.658203</ele>
<time>2011-04-24T00:09:13Z</time>
<desc>lat.=22.330509, lon.=103.780235, Alt.=2211.658203m. Speed=1.008000m/h.</desc>
<speed>0.280000</speed>
</trkpt>
<trkpt lat="22.330488" lon="103.780258">
<ele>2211.595703</ele>
<time>2011-04-24T00:09:18Z</time>
<desc>lat.=22.330488, lon.=103.780258, Alt.=2211.595703m. Speed=2.700000m/h.</desc>
<speed>0.750000</speed>
</trkpt>
<trkpt lat="22.330448" lon="103.780281">
<ele>2211.345703</ele>
<time>2011-04-24T00:09:23Z</time>
<desc>lat.=22.330448, lon.=103.780281, Alt.=2211.345703m. Speed=1.908000m/h.</desc>
<speed>0.530000</speed>
</trkpt>
<trkpt lat="22.330446" lon="103.780296">
<ele>2211.345703</ele>
<time>2011-04-24T00:09:28Z</time>
<desc>lat.=22.330446, lon.=103.780296, Alt.=2211.345703m. Speed=1.980000m/h.</desc>
<speed>0.550000</speed>
</trkpt>
<trkpt lat="22.330433" lon="103.780327">
<ele>2211.095703</ele>
<time>2011-04-24T00:09:33Z</time>
<desc>lat.=22.330433, lon.=103.780327, Alt.=2211.095703m. Speed=1.260000m/h.</desc>
<speed>0.350000</speed>
</trkpt>
<trkpt lat="22.330442" lon="103.780342">
<ele>2211.095703</ele>
<time>2011-04-24T00:09:38Z</time>
<desc>lat.=22.330442, lon.=103.780342, Alt.=2211.095703m. Speed=1.512000m/h.</desc>
<speed>0.420000</speed>
</trkpt>
<trkpt lat="22.330448" lon="103.780357">
<ele>2211.658203</ele>
<time>2011-04-24T00:09:43Z</time>
<desc>lat.=22.330448, lon.=103.780357, Alt.=2211.658203m. Speed=1.260000m/h.</desc>
<speed>0.350000</speed>
</trkpt>
<trkpt lat="22.330435" lon="103.780403">
<ele>2212.095703</ele>
<time>2011-04-24T00:09:48Z</time>
<desc>lat.=22.330435, lon.=103.780403, Alt.=2212.095703m. Speed=2.844000m/h.</desc>
<speed>0.790000</speed>
</trkpt>
<trkpt lat="22.330370" lon="103.780426">
<ele>2212.095703</ele>
<time>2011-04-24T00:09:53Z</time>
<desc>lat.=22.330370, lon.=103.780426, Alt.=2212.095703m. Speed=2.844000m/h.</desc>
<speed>0.790000</speed>
</trkpt>
<trkpt lat="22.330328" lon="103.780441">
<ele>2211.908203</ele>
<time>2011-04-24T00:09:58Z</time>
<desc>lat.=22.330328, lon.=103.780441, Alt.=2211.908203m. Speed=2.628000m/h.</desc>
<speed>0.730000</speed>
</trkpt>
<trkpt lat="22.330307" lon="103.780457">
<ele>2211.970703</ele>
<time>2011-04-24T00:10:03Z</time>
<desc>lat.=22.330307, lon.=103.780457, Alt.=2211.970703m. Speed=1.512000m/h.</desc>
<speed>0.420000</speed>
</trkpt>
<trkpt lat="22.330288" lon="103.780441">
<ele>2212.095703</ele>
<time>2011-04-24T00:10:08Z</time>
<desc>lat.=22.330288, lon.=103.780441, Alt.=2212.095703m. Speed=1.152000m/h.</desc>
<speed>0.320000</speed>
</trkpt>
<trkpt lat="22.330267" lon="103.780457">
<ele>2212.095703</ele>
<time>2011-04-24T00:10:13Z</time>
<desc>lat.=22.330267, lon.=103.780457, Alt.=2212.095703m. Speed=1.116000m/h.</desc>
<speed>0.310000</speed>
</trkpt>
<trkpt lat="22.330256" lon="103.780502">
<ele>2211.970703</ele>
<time>2011-04-24T00:10:18Z</time>
<desc>lat.=22.330256, lon.=103.780502, Alt.=2211.970703m. Speed=0.972000m/h.</desc>
<speed>0.270000</speed>
</trkpt>
<trkpt lat="22.330275" lon="103.780518">
<ele>2211.970703</ele>
<time>2011-04-24T00:10:23Z</time>
<desc>lat.=22.330275, lon.=103.780518, Alt.=2211.970703m. Speed=1.224000m/h.</desc>
<speed>0.340000</speed>
</trkpt>
<trkpt lat="22.330263" lon="103.780525">
<ele>2212.220703</ele>
<time>2011-04-24T00:10:28Z</time>
<desc>lat.=22.330263, lon.=103.780525, Alt.=2212.220703m. Speed=0.108000m/h.</desc>
<speed>0.030000</speed>
</trkpt>
<trkpt lat="22.330263" lon="103.780525">
<ele>2212.220703</ele>
<time>2011-04-24T00:10:33Z</time>
<desc>lat.=22.330263, lon.=103.780525, Alt.=2212.220703m. Speed=0.612000m/h.</desc>
<speed>0.170000</speed>
</trkpt>
<trkpt lat="22.330263" lon="103.780525">
<ele>2212.158203</ele>
<time>2011-04-24T00:10:38Z</time>
<desc>lat.=22.330263, lon.=103.780525, Alt.=2212.158203m. Speed=0.540000m/h.</desc>
<speed>0.150000</speed>
</trkpt>
<trkpt lat="22.330267" lon="103.780533">
<ele>2212.158203</ele>
<time>2011-04-24T00:10:43Z</time>
<desc>lat.=22.330267, lon.=103.780533, Alt.=2212.158203m. Speed=0.252000m/h.</desc>
<speed>0.070000</speed>
</trkpt>
<trkpt lat="22.330263" lon="103.780533">
<ele>2212.158203</ele>
<time>2011-04-24T00:10:48Z</time>
<desc>lat.=22.330263, lon.=103.780533, Alt.=2212.158203m. Speed=0.324000m/h.</desc>
<speed>0.090000</speed>
</trkpt>
<trkpt lat="22.330261" lon="103.780540">
<ele>2212.158203</ele>
<time>2011-04-24T00:10:53Z</time>
<desc>lat.=22.330261, lon.=103.780540, Alt.=2212.158203m. Speed=0.432000m/h.</desc>
<speed>0.120000</speed>
</trkpt>
<trkpt lat="22.330265" lon="103.780540">
<ele>2212.158203</ele>
<time>2011-04-24T00:10:58Z</time>
<desc>lat.=22.330265, lon.=103.780540, Alt.=2212.158203m. Speed=0.540000m/h.</desc>
<speed>0.150000</speed>
</trkpt>
<trkpt lat="22.330273" lon="103.780548">
<ele>2212.220703</ele>
<time>2011-04-24T00:11:03Z</time>
<desc>lat.=22.330273, lon.=103.780548, Alt.=2212.220703m. Speed=0.936000m/h.</desc>
<speed>0.260000</speed>
</trkpt>
<trkpt lat="22.330282" lon="103.780548">
<ele>2212.220703</ele>
<time>2011-04-24T00:11:08Z</time>
<desc>lat.=22.330282, lon.=103.780548, Alt.=2212.220703m. Speed=0.612000m/h.</desc>
<speed>0.170000</speed>
</trkpt>
<trkpt lat="22.330292" lon="103.780548">
<ele>2212.283203</ele>
<time>2011-04-24T00:11:13Z</time>
<desc>lat.=22.330292, lon.=103.780548, Alt.=2212.283203m. Speed=0.720000m/h.</desc>
<speed>0.200000</speed>
</trkpt>
<trkpt lat="22.330299" lon="103.780548">
<ele>2212.408203</ele>
<time>2011-04-24T00:11:18Z</time>
<desc>lat.=22.330299, lon.=103.780548, Alt.=2212.408203m. Speed=0.180000m/h.</desc>
<speed>0.050000</speed>
</trkpt>
<trkpt lat="22.330301" lon="103.780548">
<ele>2212.470703</ele>
<time>2011-04-24T00:11:23Z</time>
<desc>lat.=22.330301, lon.=103.780548, Alt.=2212.470703m. Speed=0.504000m/h.</desc>
<speed>0.140000</speed>
</trkpt>
<trkpt lat="22.330305" lon="103.780540">
<ele>2212.533203</ele>
<time>2011-04-24T00:11:28Z</time>
<desc>lat.=22.330305, lon.=103.780540, Alt.=2212.533203m. Speed=0.540000m/h.</desc>
<speed>0.150000</speed>
</trkpt>
<trkpt lat="22.330307" lon="103.780525">
<ele>2212.658203</ele>
<time>2011-04-24T00:11:33Z</time>
<desc>lat.=22.330307, lon.=103.780525, Alt.=2212.658203m. Speed=0.972000m/h.</desc>
<speed>0.270000</speed>
</trkpt>
<trkpt lat="22.330311" lon="103.780533">
<ele>2212.783203</ele>
<time>2011-04-24T00:11:38Z</time>
<desc>lat.=22.330311, lon.=103.780533, Alt.=2212.783203m. Speed=0.144000m/h.</desc>
<speed>0.040000</speed>
</trkpt>
<trkpt lat="22.330318" lon="103.780525">
<ele>2212.783203</ele>
<time>2011-04-24T00:11:43Z</time>
<desc>lat.=22.330318, lon.=103.780525, Alt.=2212.783203m. Speed=0.540000m/h.</desc>
<speed>0.150000</speed>
</trkpt>
<trkpt lat="22.330326" lon="103.780533">
<ele>2212.720703</ele>
<time>2011-04-24T00:11:48Z</time>
<desc>lat.=22.330326, lon.=103.780533, Alt.=2212.720703m. Speed=0.648000m/h.</desc>
<speed>0.180000</speed>
</trkpt>
<trkpt lat="22.330336" lon="103.780533">
<ele>2212.720703</ele>
<time>2011-04-24T00:11:53Z</time>
<desc>lat.=22.330336, lon.=103.780533, Alt.=2212.720703m. Speed=0.648000m/h.</desc>
<speed>0.180000</speed>
</trkpt>
<trkpt lat="22.330341" lon="103.780533">
<ele>2212.658203</ele>
<time>2011-04-24T00:11:58Z</time>
<desc>lat.=22.330341, lon.=103.780533, Alt.=2212.658203m. Speed=0.540000m/h.</desc>
<speed>0.150000</speed>
</trkpt>
<trkpt lat="22.330345" lon="103.780533">
<ele>2212.783203</ele>
<time>2011-04-24T00:12:03Z</time>
<desc>lat.=22.330345, lon.=103.780533, Alt.=2212.783203m. Speed=0.180000m/h.</desc>
<speed>0.050000</speed>
</trkpt>
<trkpt lat="22.330341" lon="103.780533">
<ele>2212.845703</ele>
<time>2011-04-24T00:12:08Z</time>
<desc>lat.=22.330341, lon.=103.780533, Alt.=2212.845703m. Speed=0.144000m/h.</desc>
<speed>0.040000</speed>
</trkpt>
<trkpt lat="22.330339" lon="103.780533">
<ele>2212.908203</ele>
<time>2011-04-24T00:12:13Z</time>
<desc>lat.=22.330339, lon.=103.780533, Alt.=2212.908203m. Speed=0.144000m/h.</desc>
<speed>0.040000</speed>
</trkpt>
<trkpt lat="22.330338" lon="103.780533">
<ele>2212.970703</ele>
<time>2011-04-24T00:12:18Z</time>
<desc>lat.=22.330338, lon.=103.780533, Alt.=2212.970703m. Speed=0.144000m/h.</desc>
<speed>0.040000</speed>
</trkpt>
<trkpt lat="22.330336" lon="103.780533">
<ele>2212.970703</ele>
<time>2011-04-24T00:12:23Z</time>
<desc>lat.=22.330336, lon.=103.780533, Alt.=2212.970703m. Speed=0.036000m/h.</desc>
<speed>0.010000</speed>
</trkpt>
<trkpt lat="22.330330" lon="103.780533">
<ele>2213.033203</ele>
<time>2011-04-24T00:12:28Z</time>
<desc>lat.=22.330330, lon.=103.780533, Alt.=2213.033203m. Speed=0.648000m/h.</desc>
<speed>0.180000</speed>
</trkpt>
<trkpt lat="22.330322" lon="103.780533">
<ele>2213.095703</ele>
<time>2011-04-24T00:12:33Z</time>
<desc>lat.=22.330322, lon.=103.780533, Alt.=2213.095703m. Speed=0.324000m/h.</desc>
<speed>0.090000</speed>
</trkpt>
<trkpt lat="22.330318" lon="103.780533">
<ele>2213.158203</ele>
<time>2011-04-24T00:12:38Z</time>
<desc>lat.=22.330318, lon.=103.780533, Alt.=2213.158203m. Speed=0.900000m/h.</desc>
<speed>0.250000</speed>
</trkpt>
<trkpt lat="22.330307" lon="103.780556">
<ele>2214.158203</ele>
<time>2011-04-24T00:12:43Z</time>
<desc>lat.=22.330307, lon.=103.780556, Alt.=2214.158203m. Speed=1.152000m/h.</desc>
<speed>0.320000</speed>
</trkpt>
<trkpt lat="22.330303" lon="103.780571">
<ele>2214.783203</ele>
<time>2011-04-24T00:12:48Z</time>
<desc>lat.=22.330303, lon.=103.780571, Alt.=2214.783203m. Speed=0.252000m/h.</desc>
<speed>0.070000</speed>
</trkpt>
<trkpt lat="22.330299" lon="103.780571">
<ele>2214.783203</ele>
<time>2011-04-24T00:12:53Z</time>
<desc>lat.=22.330299, lon.=103.780571, Alt.=2214.783203m. Speed=1.008000m/h.</desc>
<speed>0.280000</speed>
</trkpt>
<trkpt lat="22.330292" lon="103.780579">
<ele>2214.783203</ele>
<time>2011-04-24T00:12:58Z</time>
<desc>lat.=22.330292, lon.=103.780579, Alt.=2214.783203m. Speed=0.684000m/h.</desc>
<speed>0.190000</speed>
</trkpt>
<trkpt lat="22.330290" lon="103.780586">
<ele>2214.720703</ele>
<time>2011-04-24T00:13:03Z</time>
<desc>lat.=22.330290, lon.=103.780586, Alt.=2214.720703m. Speed=0.216000m/h.</desc>
<speed>0.060000</speed>
</trkpt>
<trkpt lat="22.330288" lon="103.780594">
<ele>2214.783203</ele>
<time>2011-04-24T00:13:08Z</time>
<desc>lat.=22.330288, lon.=103.780594, Alt.=2214.783203m. Speed=0.468000m/h.</desc>
<speed>0.130000</speed>
</trkpt>
<trkpt lat="22.330296" lon="103.780594">
<ele>2214.783203</ele>
<time>2011-04-24T00:13:13Z</time>
<desc>lat.=22.330296, lon.=103.780594, Alt.=2214.783203m. Speed=0.684000m/h.</desc>
<speed>0.190000</speed>
</trkpt>
<trkpt lat="22.330299" lon="103.780594">
<ele>2214.783203</ele>
<time>2011-04-24T00:13:18Z</time>
<desc>lat.=22.330299, lon.=103.780594, Alt.=2214.783203m. Speed=0.540000m/h.</desc>
<speed>0.150000</speed>
</trkpt>
<trkpt lat="22.330292" lon="103.780586">
<ele>2214.783203</ele>
<time>2011-04-24T00:13:23Z</time>
<desc>lat.=22.330292, lon.=103.780586, Alt.=2214.783203m. Speed=0.972000m/h.</desc>
<speed>0.270000</speed>
</trkpt>
<trkpt lat="22.330305" lon="103.780602">
<ele>2215.095703</ele>
<time>2011-04-24T00:13:28Z</time>
<desc>lat.=22.330305, lon.=103.780602, Alt.=2215.095703m. Speed=0.792000m/h.</desc>
<speed>0.220000</speed>
</trkpt>
<trkpt lat="22.330294" lon="103.780624">
<ele>2215.908203</ele>
<time>2011-04-24T00:13:33Z</time>
<desc>lat.=22.330294, lon.=103.780624, Alt.=2215.908203m. Speed=0.252000m/h.</desc>
<speed>0.070000</speed>
</trkpt>
<trkpt lat="22.330290" lon="103.780624">
<ele>2215.908203</ele>
<time>2011-04-24T00:13:38Z</time>
<desc>lat.=22.330290, lon.=103.780624, Alt.=2215.908203m. Speed=0.288000m/h.</desc>
<speed>0.080000</speed>
</trkpt>
<trkpt lat="22.330284" lon="103.780624">
<ele>2215.908203</ele>
<time>2011-04-24T00:13:43Z</time>
<desc>lat.=22.330284, lon.=103.780624, Alt.=2215.908203m. Speed=0.468000m/h.</desc>
<speed>0.130000</speed>
</trkpt>
<trkpt lat="22.330278" lon="103.780624">
<ele>2215.970703</ele>
<time>2011-04-24T00:13:48Z</time>
<desc>lat.=22.330278, lon.=103.780624, Alt.=2215.970703m. Speed=0.468000m/h.</desc>
<speed>0.130000</speed>
</trkpt>
<trkpt lat="22.330276" lon="103.780624">
<ele>2215.908203</ele>
<time>2011-04-24T00:13:53Z</time>
<desc>lat.=22.330276, lon.=103.780624, Alt.=2215.908203m. Speed=0.252000m/h.</desc>
<speed>0.070000</speed>
</trkpt>
<trkpt lat="22.330278" lon="103.780632">
<ele>2215.908203</ele>
<time>2011-04-24T00:13:58Z</time>
<desc>lat.=22.330278, lon.=103.780632, Alt.=2215.908203m. Speed=0.396000m/h.</desc>
<speed>0.110000</speed>
</trkpt>
<trkpt lat="22.330280" lon="103.780640">
<ele>2215.908203</ele>
<time>2011-04-24T00:14:03Z</time>
<desc>lat.=22.330280, lon.=103.780640, Alt.=2215.908203m. Speed=0.576000m/h.</desc>
<speed>0.160000</speed>
</trkpt>
<trkpt lat="22.330282" lon="103.780640">
<ele>2215.908203</ele>
<time>2011-04-24T00:14:08Z</time>
<desc>lat.=22.330282, lon.=103.780640, Alt.=2215.908203m. Speed=0.216000m/h.</desc>
<speed>0.060000</speed>
</trkpt>
<trkpt lat="22.330278" lon="103.780647">
<ele>2215.970703</ele>
<time>2011-04-24T00:14:13Z</time>
<desc>lat.=22.330278, lon.=103.780647, Alt.=2215.970703m. Speed=0.576000m/h.</desc>
<speed>0.160000</speed>
</trkpt>
<trkpt lat="22.330280" lon="103.780655">
<ele>2216.033203</ele>
<time>2011-04-24T00:14:18Z</time>
<desc>lat.=22.330280, lon.=103.780655, Alt.=2216.033203m. Speed=0.540000m/h.</desc>
<speed>0.150000</speed>
</trkpt>
<trkpt lat="22.330280" lon="103.780655">
<ele>2216.095703</ele>
<time>2011-04-24T00:14:23Z</time>
<desc>lat.=22.330280, lon.=103.780655, Alt.=2216.095703m. Speed=1.224000m/h.</desc>
<speed>0.340000</speed>
</trkpt>
<trkpt lat="22.330284" lon="103.780678">
<ele>2216.220703</ele>
<time>2011-04-24T00:14:28Z</time>
<desc>lat.=22.330284, lon.=103.780678, Alt.=2216.220703m. Speed=0.432000m/h.</desc>
<speed>0.120000</speed>
</trkpt>
<trkpt lat="22.330284" lon="103.780678">
<ele>2216.220703</ele>
<time>2011-04-24T00:14:33Z</time>
<desc>lat.=22.330284, lon.=103.780678, Alt.=2216.220703m. Speed=0.396000m/h.</desc>
<speed>0.110000</speed>
</trkpt>
<trkpt lat="22.330286" lon="103.780693">
<ele>2216.345703</ele>
<time>2011-04-24T00:14:38Z</time>
<desc>lat.=22.330286, lon.=103.780693, Alt.=2216.345703m. Speed=0.540000m/h.</desc>
<speed>0.150000</speed>
</trkpt>
<trkpt lat="22.330313" lon="103.780701">
<ele>2216.595703</ele>
<time>2011-04-24T00:14:43Z</time>
<desc>lat.=22.330313, lon.=103.780701, Alt.=2216.595703m. Speed=0.900000m/h.</desc>
<speed>0.250000</speed>
</trkpt>
<trkpt lat="22.330328" lon="103.780678">
<ele>2217.345703</ele>
<time>2011-04-24T00:14:48Z</time>
<desc>lat.=22.330328, lon.=103.780678, Alt.=2217.345703m. Speed=0.576000m/h.</desc>
<speed>0.160000</speed>
</trkpt>
<trkpt lat="22.330332" lon="103.780678">
<ele>2217.408203</ele>
<time>2011-04-24T00:14:53Z</time>
<desc>lat.=22.330332, lon.=103.780678, Alt.=2217.408203m. Speed=0.756000m/h.</desc>
<speed>0.210000</speed>
</trkpt>
<trkpt lat="22.330332" lon="103.780670">
<ele>2217.408203</ele>
<time>2011-04-24T00:14:58Z</time>
<desc>lat.=22.330332, lon.=103.780670, Alt.=2217.408203m. Speed=0.612000m/h.</desc>
<speed>0.170000</speed>
</trkpt>
<trkpt lat="22.330334" lon="103.780678">
<ele>2217.470703</ele>
<time>2011-04-24T00:15:03Z</time>
<desc>lat.=22.330334, lon.=103.780678, Alt.=2217.470703m. Speed=0.576000m/h.</desc>
<speed>0.160000</speed>
</trkpt>
<trkpt lat="22.330318" lon="103.780647">
<ele>2218.095703</ele>
<time>2011-04-24T00:15:08Z</time>
<desc>lat.=22.330318, lon.=103.780647, Alt.=2218.095703m. Speed=1.728000m/h.</desc>
<speed>0.480000</speed>
</trkpt>
<trkpt lat="22.330275" lon="103.780632">
<ele>2219.095703</ele>
<time>2011-04-24T00:15:13Z</time>
<desc>lat.=22.330275, lon.=103.780632, Alt.=2219.095703m. Speed=0.972000m/h.</desc>
<speed>0.270000</speed>
</trkpt>
<trkpt lat="22.330261" lon="103.780602">
<ele>2219.408203</ele>
<time>2011-04-24T00:15:18Z</time>
<desc>lat.=22.330261, lon.=103.780602, Alt.=2219.408203m. Speed=1.044000m/h.</desc>
<speed>0.290000</speed>
</trkpt>
<trkpt lat="22.330246" lon="103.780647">
<ele>2219.470703</ele>
<time>2011-04-24T00:15:23Z</time>
<desc>lat.=22.330246, lon.=103.780647, Alt.=2219.470703m. Speed=0.144000m/h.</desc>
<speed>0.040000</speed>
</trkpt>
<trkpt lat="22.330231" lon="103.780609">
<ele>2220.470703</ele>
<time>2011-04-24T00:15:28Z</time>
<desc>lat.=22.330231, lon.=103.780609, Alt.=2220.470703m. Speed=0.684000m/h.</desc>
<speed>0.190000</speed>
</trkpt>
<trkpt lat="22.330227" lon="103.780609">
<ele>2220.783203</ele>
<time>2011-04-24T00:15:33Z</time>
<desc>lat.=22.330227, lon.=103.780609, Alt.=2220.783203m. Speed=0.072000m/h.</desc>
<speed>0.020000</speed>
</trkpt>
<trkpt lat="22.330202" lon="103.780594">
<ele>2221.283203</ele>
<time>2011-04-24T00:15:38Z</time>
<desc>lat.=22.330202, lon.=103.780594, Alt.=2221.283203m. Speed=0.864000m/h.</desc>
<speed>0.240000</speed>
</trkpt>
<trkpt lat="22.330200" lon="103.780586">
<ele>2221.408203</ele>
<time>2011-04-24T00:15:43Z</time>
<desc>lat.=22.330200, lon.=103.780586, Alt.=2221.408203m. Speed=0.000000m/h.</desc>
<speed>0.000000</speed>
</trkpt>
<trkpt lat="22.330202" lon="103.780586">
<ele>2222.533203</ele>
<time>2011-04-24T00:15:48Z</time>
<desc>lat.=22.330202, lon.=103.780586, Alt.=2222.533203m. Speed=0.972000m/h.</desc>
<speed>0.270000</speed>
</trkpt>
<trkpt lat="22.330200" lon="103.780602">
<ele>2223.095703</ele>
<time>2011-04-24T00:15:53Z</time>
<desc>lat.=22.330200, lon.=103.780602, Alt.=2223.095703m. Speed=1.908000m/h.</desc>
<speed>0.530000</speed>
</trkpt>
<trkpt lat="22.330212" lon="103.780624">
<ele>2224.033203</ele>
<time>2011-04-24T00:15:58Z</time>
<desc>lat.=22.330212, lon.=103.780624, Alt.=2224.033203m. Speed=1.512000m/h.</desc>
<speed>0.420000</speed>
</trkpt>
<trkpt lat="22.330225" lon="103.780647">
<ele>2225.345703</ele>
<time>2011-04-24T00:16:03Z</time>
<desc>lat.=22.330225, lon.=103.780647, Alt.=2225.345703m. Speed=1.764000m/h.</desc>
<speed>0.490000</speed>
</trkpt>
<trkpt lat="22.330236" lon="103.780701">
<ele>2227.595703</ele>
<time>2011-04-24T00:16:08Z</time>
<desc>lat.=22.330236, lon.=103.780701, Alt.=2227.595703m. Speed=0.756000m/h.</desc>
<speed>0.210000</speed>
</trkpt>
<trkpt lat="22.330242" lon="103.780754">
<ele>2228.908203</ele>
<time>2011-04-24T00:16:13Z</time>
<desc>lat.=22.330242, lon.=103.780754, Alt.=2228.908203m. Speed=2.088000m/h.</desc>
<speed>0.580000</speed>
</trkpt>
<trkpt lat="22.330225" lon="103.780769">
<ele>2229.345703</ele>
<time>2011-04-24T00:16:18Z</time>
<desc>lat.=22.330225, lon.=103.780769, Alt.=2229.345703m. Speed=1.692000m/h.</desc>
<speed>0.470000</speed>
</trkpt>
<trkpt lat="22.330183" lon="103.780800">
<ele>2230.533203</ele>
<time>2011-04-24T00:16:23Z</time>
<desc>lat.=22.330183, lon.=103.780800, Alt.=2230.533203m. Speed=2.196000m/h.</desc>
<speed>0.610000</speed>
</trkpt>
<trkpt lat="22.330191" lon="103.780853">
<ele>2232.283203</ele>
<time>2011-04-24T00:16:28Z</time>
<desc>lat.=22.330191, lon.=103.780853, Alt.=2232.283203m. Speed=3.564000m/h.</desc>
<speed>0.990000</speed>
</trkpt>
<trkpt lat="22.330172" lon="103.780884">
<ele>2233.220703</ele>
<time>2011-04-24T00:16:33Z</time>
<desc>lat.=22.330172, lon.=103.780884, Alt.=2233.220703m. Speed=1.872000m/h.</desc>
<speed>0.520000</speed>
</trkpt>
<trkpt lat="22.330149" lon="103.780891">
<ele>2234.720703</ele>
<time>2011-04-24T00:16:38Z</time>
<desc>lat.=22.330149, lon.=103.780891, Alt.=2234.720703m. Speed=1.764000m/h.</desc>
<speed>0.490000</speed>
</trkpt>
<trkpt lat="22.330107" lon="103.780930">
<ele>2235.783203</ele>
<time>2011-04-24T00:16:43Z</time>
<desc>lat.=22.330107, lon.=103.780930, Alt.=2235.783203m. Speed=1.548000m/h.</desc>
<speed>0.430000</speed>
</trkpt>
<trkpt lat="22.330137" lon="103.780975">
<ele>2236.845703</ele>
<time>2011-04-24T00:16:48Z</time>
<desc>lat.=22.330137, lon.=103.780975, Alt.=2236.845703m. Speed=1.656000m/h.</desc>
<speed>0.460000</speed>
</trkpt>
<trkpt lat="22.330154" lon="103.781021">
<ele>2237.595703</ele>
<time>2011-04-24T00:16:53Z</time>
<desc>lat.=22.330154, lon.=103.781021, Alt.=2237.595703m. Speed=1.980000m/h.</desc>
<speed>0.550000</speed>
</trkpt>
<trkpt lat="22.330153" lon="103.781059">
<ele>2238.470703</ele>
<time>2011-04-24T00:16:58Z</time>
<desc>lat.=22.330153, lon.=103.781059, Alt.=2238.470703m. Speed=1.980000m/h.</desc>
<speed>0.550000</speed>
</trkpt>
<trkpt lat="22.330153" lon="103.781128">
<ele>2239.533203</ele>
<time>2011-04-24T00:17:03Z</time>
<desc>lat.=22.330153, lon.=103.781128, Alt.=2239.533203m. Speed=1.944000m/h.</desc>
<speed>0.540000</speed>
</trkpt>
<trkpt lat="22.330164" lon="103.781174">
<ele>2240.533203</ele>
<time>2011-04-24T00:17:08Z</time>
<desc>lat.=22.330164, lon.=103.781174, Alt.=2240.533203m. Speed=2.304000m/h.</desc>
<speed>0.640000</speed>
</trkpt>
<trkpt lat="22.330173" lon="103.781242">
<ele>2241.783203</ele>
<time>2011-04-24T00:17:13Z</time>
<desc>lat.=22.330173, lon.=103.781242, Alt.=2241.783203m. Speed=3.276000m/h.</desc>
<speed>0.910000</speed>
</trkpt>
<trkpt lat="22.330179" lon="103.781303">
<ele>2243.033203</ele>
<time>2011-04-24T00:17:18Z</time>
<desc>lat.=22.330179, lon.=103.781303, Alt.=2243.033203m. Speed=1.944000m/h.</desc>
<speed>0.540000</speed>
</trkpt>
<trkpt lat="22.330164" lon="103.781319">
<ele>2243.408203</ele>
<time>2011-04-24T00:17:23Z</time>
<desc>lat.=22.330164, lon.=103.781319, Alt.=2243.408203m. Speed=0.612000m/h.</desc>
<speed>0.170000</speed>
</trkpt>
<trkpt lat="22.330147" lon="103.781342">
<ele>2244.158203</ele>
<time>2011-04-24T00:17:28Z</time>
<desc>lat.=22.330147, lon.=103.781342, Alt.=2244.158203m. Speed=2.592000m/h.</desc>
<speed>0.720000</speed>
</trkpt>
<trkpt lat="22.330141" lon="103.781380">
<ele>2244.908203</ele>
<time>2011-04-24T00:17:33Z</time>
<desc>lat.=22.330141, lon.=103.781380, Alt.=2244.908203m. Speed=2.052000m/h.</desc>
<speed>0.570000</speed>
</trkpt>
<trkpt lat="22.330137" lon="103.781403">
<ele>2245.658203</ele>
<time>2011-04-24T00:17:38Z</time>
<desc>lat.=22.330137, lon.=103.781403, Alt.=2245.658203m. Speed=0.828000m/h.</desc>
<speed>0.230000</speed>
</trkpt>
<trkpt lat="22.330091" lon="103.781433">
<ele>2247.658203</ele>
<time>2011-04-24T00:17:43Z</time>
<desc>lat.=22.330091, lon.=103.781433, Alt.=2247.658203m. Speed=1.260000m/h.</desc>
<speed>0.350000</speed>
</trkpt>
<trkpt lat="22.330082" lon="103.781487">
<ele>2248.595703</ele>
<time>2011-04-24T00:17:48Z</time>
<desc>lat.=22.330082, lon.=103.781487, Alt.=2248.595703m. Speed=2.088000m/h.</desc>
<speed>0.580000</speed>
</trkpt>
<trkpt lat="22.330065" lon="103.781532">
<ele>2249.220703</ele>
<time>2011-04-24T00:17:53Z</time>
<desc>lat.=22.330065, lon.=103.781532, Alt.=2249.220703m. Speed=1.656000m/h.</desc>
<speed>0.460000</speed>
</trkpt>
<trkpt lat="22.330050" lon="103.781563">
<ele>2249.783203</ele>
<time>2011-04-24T00:17:58Z</time>
<desc>lat.=22.330050, lon.=103.781563, Alt.=2249.783203m. Speed=1.332000m/h.</desc>
<speed>0.370000</speed>
</trkpt>
<trkpt lat="22.330067" lon="103.781578">
<ele>2250.408203</ele>
<time>2011-04-24T00:18:03Z</time>
<desc>lat.=22.330067, lon.=103.781578, Alt.=2250.408203m. Speed=0.864000m/h.</desc>
<speed>0.240000</speed>
</trkpt>
<trkpt lat="22.330065" lon="103.781601">
<ele>2251.095703</ele>
<time>2011-04-24T00:18:08Z</time>
<desc>lat.=22.330065, lon.=103.781601, Alt.=2251.095703m. Speed=1.728000m/h.</desc>
<speed>0.480000</speed>
</trkpt>
<trkpt lat="22.330059" lon="103.781647">
<ele>2250.908203</ele>
<time>2011-04-24T00:18:13Z</time>
<desc>lat.=22.330059, lon.=103.781647, Alt.=2250.908203m. Speed=1.512000m/h.</desc>
<speed>0.420000</speed>
</trkpt>
<trkpt lat="22.330038" lon="103.781654">
<ele>2251.220703</ele>
<time>2011-04-24T00:18:18Z</time>
<desc>lat.=22.330038, lon.=103.781654, Alt.=2251.220703m. Speed=1.080000m/h.</desc>
<speed>0.300000</speed>
</trkpt>
<trkpt lat="22.330015" lon="103.781700">
<ele>2249.783203</ele>
<time>2011-04-24T00:18:23Z</time>
<desc>lat.=22.330015, lon.=103.781700, Alt.=2249.783203m. Speed=1.548000m/h.</desc>
<speed>0.430000</speed>
</trkpt>
<trkpt lat="22.330002" lon="103.781700">
<ele>2249.845703</ele>
<time>2011-04-24T00:18:28Z</time>
<desc>lat.=22.330002, lon.=103.781700, Alt.=2249.845703m. Speed=0.864000m/h.</desc>
<speed>0.240000</speed>
</trkpt>
<trkpt lat="22.330002" lon="103.781685">
<ele>2249.533203</ele>
<time>2011-04-24T00:18:33Z</time>
<desc>lat.=22.330002, lon.=103.781685, Alt.=2249.533203m. Speed=1.584000m/h.</desc>
<speed>0.440000</speed>
</trkpt>
<trkpt lat="22.330000" lon="103.781654">
<ele>2249.095703</ele>
<time>2011-04-24T00:18:38Z</time>
<desc>lat.=22.330000, lon.=103.781654, Alt.=2249.095703m. Speed=0.684000m/h.</desc>
<speed>0.190000</speed>
</trkpt>
<trkpt lat="22.330000" lon="103.781647">
<ele>2249.158203</ele>
<time>2011-04-24T00:18:43Z</time>
<desc>lat.=22.330000, lon.=103.781647, Alt.=2249.158203m. Speed=0.540000m/h.</desc>
<speed>0.150000</speed>
</trkpt>
<trkpt lat="22.330004" lon="103.781647">
<ele>2249.158203</ele>
<time>2011-04-24T00:18:48Z</time>
<desc>lat.=22.330004, lon.=103.781647, Alt.=2249.158203m. Speed=0.576000m/h.</desc>
<speed>0.160000</speed>
</trkpt>
<trkpt lat="22.329967" lon="103.781654">
<ele>2249.095703</ele>
<time>2011-04-24T00:18:53Z</time>
<desc>lat.=22.329967, lon.=103.781654, Alt.=2249.095703m. Speed=1.836000m/h.</desc>
<speed>0.510000</speed>
</trkpt>
<trkpt lat="22.329958" lon="103.781647">
<ele>2249.158203</ele>
<time>2011-04-24T00:18:58Z</time>
<desc>lat.=22.329958, lon.=103.781647, Alt.=2249.158203m. Speed=1.512000m/h.</desc>
<speed>0.420000</speed>
</trkpt>
<trkpt lat="22.329918" lon="103.781639">
<ele>2249.095703</ele>
<time>2011-04-24T00:19:03Z</time>
<desc>lat.=22.329918, lon.=103.781639, Alt.=2249.095703m. Speed=1.872000m/h.</desc>
<speed>0.520000</speed>
</trkpt>
<trkpt lat="22.329889" lon="103.781631">
<ele>2249.533203</ele>
<time>2011-04-24T00:19:08Z</time>
<desc>lat.=22.329889, lon.=103.781631, Alt.=2249.533203m. Speed=1.116000m/h.</desc>
<speed>0.310000</speed>
</trkpt>
<trkpt lat="22.329870" lon="103.781609">
<ele>2249.783203</ele>
<time>2011-04-24T00:19:13Z</time>
<desc>lat.=22.329870, lon.=103.781609, Alt.=2249.783203m. Speed=2.124000m/h.</desc>
<speed>0.590000</speed>
</trkpt>
<trkpt lat="22.329882" lon="103.781616">
<ele>2249.595703</ele>
<time>2011-04-24T00:19:18Z</time>
<desc>lat.=22.329882, lon.=103.781616, Alt.=2249.595703m. Speed=1.656000m/h.</desc>
<speed>0.460000</speed>
</trkpt>
<trkpt lat="22.329845" lon="103.781609">
<ele>2249.345703</ele>
<time>2011-04-24T00:19:23Z</time>
<desc>lat.=22.329845, lon.=103.781609, Alt.=2249.345703m. Speed=2.916000m/h.</desc>
<speed>0.810000</speed>
</trkpt>
<trkpt lat="22.329798" lon="103.781570">
<ele>2248.595703</ele>
<time>2011-04-24T00:19:28Z</time>
<desc>lat.=22.329798, lon.=103.781570, Alt.=2248.595703m. Speed=4.284000m/h.</desc>
<speed>1.190000</speed>
</trkpt>
<trkpt lat="22.329729" lon="103.781555">
<ele>2246.908203</ele>
<time>2011-04-24T00:19:33Z</time>
<desc>lat.=22.329729, lon.=103.781555, Alt.=2246.908203m. Speed=1.764000m/h.</desc>
<speed>0.490000</speed>
</trkpt>
<trkpt lat="22.329706" lon="103.781555">
<ele>2247.095703</ele>
<time>2011-04-24T00:19:38Z</time>
<desc>lat.=22.329706, lon.=103.781555, Alt.=2247.095703m. Speed=1.872000m/h.</desc>
<speed>0.520000</speed>
</trkpt>
<trkpt lat="22.329672" lon="103.781548">
<ele>2246.783203</ele>
<time>2011-04-24T00:19:43Z</time>
<desc>lat.=22.329672, lon.=103.781548, Alt.=2246.783203m. Speed=1.620000m/h.</desc>
<speed>0.450000</speed>
</trkpt>
<trkpt lat="22.329647" lon="103.781532">
<ele>2246.533203</ele>
<time>2011-04-24T00:19:48Z</time>
<desc>lat.=22.329647, lon.=103.781532, Alt.=2246.533203m. Speed=2.376000m/h.</desc>
<speed>0.660000</speed>
</trkpt>
<trkpt lat="22.329626" lon="103.781517">
<ele>2247.283203</ele>
<time>2011-04-24T00:19:53Z</time>
<desc>lat.=22.329626, lon.=103.781517, Alt.=2247.283203m. Speed=3.312000m/h.</desc>
<speed>0.920000</speed>
</trkpt>
<trkpt lat="22.329592" lon="103.781509">
<ele>2247.470703</ele>
<time>2011-04-24T00:19:58Z</time>
<desc>lat.=22.329592, lon.=103.781509, Alt.=2247.470703m. Speed=2.196000m/h.</desc>
<speed>0.610000</speed>
</trkpt>
<trkpt lat="22.329563" lon="103.781502">
<ele>2248.658203</ele>
<time>2011-04-24T00:20:03Z</time>
<desc>lat.=22.329563, lon.=103.781502, Alt.=2248.658203m. Speed=2.340000m/h.</desc>
<speed>0.650000</speed>
</trkpt>
<trkpt lat="22.329535" lon="103.781479">
<ele>2248.720703</ele>
<time>2011-04-24T00:20:08Z</time>
<desc>lat.=22.329535, lon.=103.781479, Alt.=2248.720703m. Speed=3.924000m/h.</desc>
<speed>1.090000</speed>
</trkpt>
<trkpt lat="22.329485" lon="103.781448">
<ele>2248.220703</ele>
<time>2011-04-24T00:20:13Z</time>
<desc>lat.=22.329485, lon.=103.781448, Alt.=2248.220703m. Speed=5.256000m/h.</desc>
<speed>1.460000</speed>
</trkpt>
<trkpt lat="22.329430" lon="103.781425">
<ele>2247.720703</ele>
<time>2011-04-24T00:20:18Z</time>
<desc>lat.=22.329430, lon.=103.781425, Alt.=2247.720703m. Speed=5.256000m/h.</desc>
<speed>1.460000</speed>
</trkpt>
<trkpt lat="22.329361" lon="103.781448">
<ele>2247.408203</ele>
<time>2011-04-24T00:20:23Z</time>
<desc>lat.=22.329361, lon.=103.781448, Alt.=2247.408203m. Speed=4.608000m/h.</desc>
<speed>1.280000</speed>
</trkpt>
<trkpt lat="22.329313" lon="103.781471">
<ele>2247.408203</ele>
<time>2011-04-24T00:20:28Z</time>
<desc>lat.=22.329313, lon.=103.781471, Alt.=2247.408203m. Speed=4.104000m/h.</desc>
<speed>1.140000</speed>
</trkpt>
<trkpt lat="22.329260" lon="103.781487">
<ele>2247.095703</ele>
<time>2011-04-24T00:20:33Z</time>
<desc>lat.=22.329260, lon.=103.781487, Alt.=2247.095703m. Speed=3.852000m/h.</desc>
<speed>1.070000</speed>
</trkpt>
<trkpt lat="22.329195" lon="103.781509">
<ele>2245.595703</ele>
<time>2011-04-24T00:20:38Z</time>
<desc>lat.=22.329195, lon.=103.781509, Alt.=2245.595703m. Speed=4.932000m/h.</desc>
<speed>1.370000</speed>
</trkpt>
<trkpt lat="22.329157" lon="103.781532">
<ele>2245.345703</ele>
<time>2011-04-24T00:20:43Z</time>
<desc>lat.=22.329157, lon.=103.781532, Alt.=2245.345703m. Speed=1.332000m/h.</desc>
<speed>0.370000</speed>
</trkpt>
<trkpt lat="22.329123" lon="103.781555">
<ele>2245.283203</ele>
<time>2011-04-24T00:20:48Z</time>
<desc>lat.=22.329123, lon.=103.781555, Alt.=2245.283203m. Speed=2.772000m/h.</desc>
<speed>0.770000</speed>
</trkpt>
<trkpt lat="22.329058" lon="103.781586">
<ele>2244.845703</ele>
<time>2011-04-24T00:20:53Z</time>
<desc>lat.=22.329058, lon.=103.781586, Alt.=2244.845703m. Speed=5.148000m/h.</desc>
<speed>1.430000</speed>
</trkpt>
<trkpt lat="22.328979" lon="103.781609">
<ele>2244.658203</ele>
<time>2011-04-24T00:20:58Z</time>
<desc>lat.=22.328979, lon.=103.781609, Alt.=2244.658203m. Speed=4.824000m/h.</desc>
<speed>1.340000</speed>
</trkpt>
<trkpt lat="22.328907" lon="103.781631">
<ele>2243.720703</ele>
<time>2011-04-24T00:21:03Z</time>
<desc>lat.=22.328907, lon.=103.781631, Alt.=2243.720703m. Speed=5.328000m/h.</desc>
<speed>1.480000</speed>
</trkpt>
<trkpt lat="22.328831" lon="103.781647">
<ele>2241.783203</ele>
<time>2011-04-24T00:21:08Z</time>
<desc>lat.=22.328831, lon.=103.781647, Alt.=2241.783203m. Speed=4.320000m/h.</desc>
<speed>1.200000</speed>
</trkpt>
<trkpt lat="22.328785" lon="103.781654">
<ele>2242.283203</ele>
<time>2011-04-24T00:21:13Z</time>
<desc>lat.=22.328785, lon.=103.781654, Alt.=2242.283203m. Speed=3.384000m/h.</desc>
<speed>0.940000</speed>
</trkpt>
<trkpt lat="22.328743" lon="103.781677">
<ele>2241.783203</ele>
<time>2011-04-24T00:21:18Z</time>
<desc>lat.=22.328743, lon.=103.781677, Alt.=2241.783203m. Speed=2.016000m/h.</desc>
<speed>0.560000</speed>
</trkpt>
<trkpt lat="22.328695" lon="103.781693">
<ele>2241.595703</ele>
<time>2011-04-24T00:21:23Z</time>
<desc>lat.=22.328695, lon.=103.781693, Alt.=2241.595703m. Speed=2.304000m/h.</desc>
<speed>0.640000</speed>
</trkpt>
<trkpt lat="22.328672" lon="103.781693">
<ele>2241.283203</ele>
<time>2011-04-24T00:21:28Z</time>
<desc>lat.=22.328672, lon.=103.781693, Alt.=2241.283203m. Speed=1.764000m/h.</desc>
<speed>0.490000</speed>
</trkpt>
<trkpt lat="22.328634" lon="103.781715">
<ele>2241.095703</ele>
<time>2011-04-24T00:21:33Z</time>
<desc>lat.=22.328634, lon.=103.781715, Alt.=2241.095703m. Speed=2.808000m/h.</desc>
<speed>0.780000</speed>
</trkpt>
<trkpt lat="22.328575" lon="103.781715">
<ele>2241.283203</ele>
<time>2011-04-24T00:21:38Z</time>
<desc>lat.=22.328575, lon.=103.781715, Alt.=2241.283203m. Speed=4.284000m/h.</desc>
<speed>1.190000</speed>
</trkpt>
<trkpt lat="22.328501" lon="103.781723">
<ele>2241.408203</ele>
<time>2011-04-24T00:21:43Z</time>
<desc>lat.=22.328501, lon.=103.781723, Alt.=2241.408203m. Speed=3.240000m/h.</desc>
<speed>0.900000</speed>
</trkpt>
<trkpt lat="22.328468" lon="103.781723">
<ele>2239.658203</ele>
<time>2011-04-24T00:21:48Z</time>
<desc>lat.=22.328468, lon.=103.781723, Alt.=2239.658203m. Speed=1.008000m/h.</desc>
<speed>0.280000</speed>
</trkpt>
<trkpt lat="22.328432" lon="103.781746">
<ele>2238.470703</ele>
<time>2011-04-24T00:21:53Z</time>
<desc>lat.=22.328432, lon.=103.781746, Alt.=2238.470703m. Speed=4.284000m/h.</desc>
<speed>1.190000</speed>
</trkpt>
<trkpt lat="22.328402" lon="103.781754">
<ele>2237.845703</ele>
<time>2011-04-24T00:21:58Z</time>
<desc>lat.=22.328402, lon.=103.781754, Alt.=2237.845703m. Speed=4.572000m/h.</desc>
<speed>1.270000</speed>
</trkpt>
<trkpt lat="22.328367" lon="103.781761">
<ele>2237.158203</ele>
<time>2011-04-24T00:22:03Z</time>
<desc>lat.=22.328367, lon.=103.781761, Alt.=2237.158203m. Speed=4.032000m/h.</desc>
<speed>1.120000</speed>
</trkpt>
<trkpt lat="22.328327" lon="103.781769">
<ele>2236.595703</ele>
<time>2011-04-24T00:22:08Z</time>
<desc>lat.=22.328327, lon.=103.781769, Alt.=2236.595703m. Speed=2.484000m/h.</desc>
<speed>0.690000</speed>
</trkpt>
<trkpt lat="22.328295" lon="103.781769">
<ele>2236.095703</ele>
<time>2011-04-24T00:22:13Z</time>
<desc>lat.=22.328295, lon.=103.781769, Alt.=2236.095703m. Speed=3.708000m/h.</desc>
<speed>1.030000</speed>
</trkpt>
<trkpt lat="22.328274" lon="103.781784">
<ele>2234.595703</ele>
<time>2011-04-24T00:22:18Z</time>
<desc>lat.=22.328274, lon.=103.781784, Alt.=2234.595703m. Speed=1.872000m/h.</desc>
<speed>0.520000</speed>
</trkpt>
<trkpt lat="22.328264" lon="103.781776">
<ele>2234.158203</ele>
<time>2011-04-24T00:22:23Z</time>
<desc>lat.=22.328264, lon.=103.781776, Alt.=2234.158203m. Speed=0.396000m/h.</desc>
<speed>0.110000</speed>
</trkpt>
<trkpt lat="22.328268" lon="103.781799">
<ele>2234.533203</ele>
<time>2011-04-24T00:22:28Z</time>
<desc>lat.=22.328268, lon.=103.781799, Alt.=2234.533203m. Speed=2.520000m/h.</desc>
<speed>0.700000</speed>
</trkpt>
<trkpt lat="22.328270" lon="103.781799">
<ele>2234.845703</ele>
<time>2011-04-24T00:22:33Z</time>
<desc>lat.=22.328270, lon.=103.781799, Alt.=2234.845703m. Speed=0.468000m/h.</desc>
<speed>0.130000</speed>
</trkpt>
<trkpt lat="22.328268" lon="103.781799">
<ele>2234.595703</ele>
<time>2011-04-24T00:22:38Z</time>
<desc>lat.=22.328268, lon.=103.781799, Alt.=2234.595703m. Speed=0.036000m/h.</desc>
<speed>0.010000</speed>
</trkpt>
<trkpt lat="22.328264" lon="103.781799">
<ele>2234.283203</ele>
<time>2011-04-24T00:22:43Z</time>
<desc>lat.=22.328264, lon.=103.781799, Alt.=2234.283203m. Speed=2.340000m/h.</desc>
<speed>0.650000</speed>
</trkpt>
<trkpt lat="22.328247" lon="103.781815">
<ele>2233.033203</ele>
<time>2011-04-24T00:22:48Z</time>
<desc>lat.=22.328247, lon.=103.781815, Alt.=2233.033203m. Speed=2.484000m/h.</desc>
<speed>0.690000</speed>
</trkpt>
<trkpt lat="22.328255" lon="103.781776">
<ele>2232.970703</ele>
<time>2011-04-24T00:22:53Z</time>
<desc>lat.=22.328255, lon.=103.781776, Alt.=2232.970703m. Speed=0.396000m/h.</desc>
<speed>0.110000</speed>
</trkpt>
<trkpt lat="22.328249" lon="103.781784">
<ele>2232.720703</ele>
<time>2011-04-24T00:22:58Z</time>
<desc>lat.=22.328249, lon.=103.781784, Alt.=2232.720703m. Speed=0.072000m/h.</desc>
<speed>0.020000</speed>
</trkpt>
<trkpt lat="22.328247" lon="103.781776">
<ele>2232.595703</ele>
<time>2011-04-24T00:23:03Z</time>
<desc>lat.=22.328247, lon.=103.781776, Alt.=2232.595703m. Speed=0.288000m/h.</desc>
<speed>0.080000</speed>
</trkpt>
<trkpt lat="22.328247" lon="103.781776">
<ele>2232.533203</ele>
<time>2011-04-24T00:23:08Z</time>
<desc>lat.=22.328247, lon.=103.781776, Alt.=2232.533203m. Speed=0.072000m/h.</desc>
<speed>0.020000</speed>
</trkpt>
<trkpt lat="22.328243" lon="103.781784">
<ele>2232.345703</ele>
<time>2011-04-24T00:23:13Z</time>
<desc>lat.=22.328243, lon.=103.781784, Alt.=2232.345703m. Speed=0.036000m/h.</desc>
<speed>0.010000</speed>
</trkpt>
<trkpt lat="22.328239" lon="103.781784">
<ele>2232.033203</ele>
<time>2011-04-24T00:23:18Z</time>
<desc>lat.=22.328239, lon.=103.781784, Alt.=2232.033203m. Speed=1.008000m/h.</desc>
<speed>0.280000</speed>
</trkpt>
<trkpt lat="22.328218" lon="103.781799">
<ele>2232.033203</ele>
<time>2011-04-24T00:23:23Z</time>
<desc>lat.=22.328218, lon.=103.781799, Alt.=2232.033203m. Speed=2.412000m/h.</desc>
<speed>0.670000</speed>
</trkpt>
<trkpt lat="22.328218" lon="103.781784">
<ele>2231.595703</ele>
<time>2011-04-24T00:23:28Z</time>
<desc>lat.=22.328218, lon.=103.781784, Alt.=2231.595703m. Speed=0.540000m/h.</desc>
<speed>0.150000</speed>
</trkpt>
<trkpt lat="22.328224" lon="103.781784">
<ele>2231.345703</ele>
<time>2011-04-24T00:23:33Z</time>
<desc>lat.=22.328224, lon.=103.781784, Alt.=2231.345703m. Speed=0.108000m/h.</desc>
<speed>0.030000</speed>
</trkpt>
<trkpt lat="22.328224" lon="103.781784">
<ele>2231.345703</ele>
<time>2011-04-24T00:23:38Z</time>
<desc>lat.=22.328224, lon.=103.781784, Alt.=2231.345703m. Speed=0.000000m/h.</desc>
<speed>0.000000</speed>
</trkpt>
<trkpt lat="22.328217" lon="103.781776">
<ele>2230.908203</ele>
<time>2011-04-24T00:23:43Z</time>
<desc>lat.=22.328217, lon.=103.781776, Alt.=2230.908203m. Speed=0.612000m/h.</desc>
<speed>0.170000</speed>
</trkpt>
<trkpt lat="22.328213" lon="103.781784">
<ele>2230.470703</ele>
<time>2011-04-24T00:23:48Z</time>
<desc>lat.=22.328213, lon.=103.781784, Alt.=2230.470703m. Speed=0.108000m/h.</desc>
<speed>0.030000</speed>
</trkpt>
<trkpt lat="22.328213" lon="103.781784">
<ele>2230.408203</ele>
<time>2011-04-24T00:23:53Z</time>
<desc>lat.=22.328213, lon.=103.781784, Alt.=2230.408203m. Speed=0.072000m/h.</desc>
<speed>0.020000</speed>
</trkpt>
<trkpt lat="22.328213" lon="103.781784">
<ele>2230.345703</ele>
<time>2011-04-24T00:23:58Z</time>
<desc>lat.=22.328213, lon.=103.781784, Alt.=2230.345703m. Speed=0.252000m/h.</desc>
<speed>0.070000</speed>
</trkpt>
<trkpt lat="22.328213" lon="103.781784">
<ele>2230.345703</ele>
<time>2011-04-24T00:24:03Z</time>
<desc>lat.=22.328213, lon.=103.781784, Alt.=2230.345703m. Speed=0.072000m/h.</desc>
<speed>0.020000</speed>
</trkpt>
<trkpt lat="22.328213" lon="103.781784">
<ele>2230.345703</ele>
<time>2011-04-24T00:24:08Z</time>
<desc>lat.=22.328213, lon.=103.781784, Alt.=2230.345703m. Speed=0.036000m/h.</desc>
<speed>0.010000</speed>
</trkpt>
<trkpt lat="22.328213" lon="103.781784">
<ele>2230.345703</ele>
<time>2011-04-24T00:24:13Z</time>
<desc>lat.=22.328213, lon.=103.781784, Alt.=2230.345703m. Speed=0.468000m/h.</desc>
<speed>0.130000</speed>
</trkpt>
<trkpt lat="22.328215" lon="103.781784">
<ele>2230.345703</ele>
<time>2011-04-24T00:24:18Z</time>
<desc>lat.=22.328215, lon.=103.781784, Alt.=2230.345703m. Speed=1.728000m/h.</desc>
<speed>0.480000</speed>
</trkpt>
<trkpt lat="22.328217" lon="103.781776">
<ele>2230.033203</ele>
<time>2011-04-24T00:24:23Z</time>
<desc>lat.=22.328217, lon.=103.781776, Alt.=2230.033203m. Speed=0.360000m/h.</desc>
<speed>0.100000</speed>
</trkpt>
<trkpt lat="22.328215" lon="103.781776">
<ele>2229.783203</ele>
<time>2011-04-24T00:24:28Z</time>
<desc>lat.=22.328215, lon.=103.781776, Alt.=2229.783203m. Speed=0.108000m/h.</desc>
<speed>0.030000</speed>
</trkpt>
<trkpt lat="22.328215" lon="103.781784">
<ele>2229.845703</ele>
<time>2011-04-24T00:24:33Z</time>
<desc>lat.=22.328215, lon.=103.781784, Alt.=2229.845703m. Speed=0.144000m/h.</desc>
<speed>0.040000</speed>
</trkpt>
<trkpt lat="22.328213" lon="103.781784">
<ele>2229.533203</ele>
<time>2011-04-24T00:24:38Z</time>
<desc>lat.=22.328213, lon.=103.781784, Alt.=2229.533203m. Speed=0.180000m/h.</desc>
<speed>0.050000</speed>
</trkpt>
<trkpt lat="22.328213" lon="103.781792">
<ele>2229.408203</ele>
<time>2011-04-24T00:24:43Z</time>
<desc>lat.=22.328213, lon.=103.781792, Alt.=2229.408203m. Speed=0.036000m/h.</desc>
<speed>0.010000</speed>
</trkpt>
<trkpt lat="22.328215" lon="103.781792">
<ele>2229.658203</ele>
<time>2011-04-24T00:24:48Z</time>
<desc>lat.=22.328215, lon.=103.781792, Alt.=2229.658203m. Speed=0.036000m/h.</desc>
<speed>0.010000</speed>
</trkpt>
<trkpt lat="22.328217" lon="103.781784">
<ele>2229.220703</ele>
<time>2011-04-24T00:24:53Z</time>
<desc>lat.=22.328217, lon.=103.781784, Alt.=2229.220703m. Speed=0.252000m/h.</desc>
<speed>0.070000</speed>
</trkpt>
<trkpt lat="22.328215" lon="103.781776">
<ele>2229.345703</ele>
<time>2011-04-24T00:24:58Z</time>
<desc>lat.=22.328215, lon.=103.781776, Alt.=2229.345703m. Speed=0.576000m/h.</desc>
<speed>0.160000</speed>
</trkpt>
<trkpt lat="22.328207" lon="103.781769">
<ele>2229.720703</ele>
<time>2011-04-24T00:25:03Z</time>
<desc>lat.=22.328207, lon.=103.781769, Alt.=2229.720703m. Speed=0.108000m/h.</desc>
<speed>0.030000</speed>
</trkpt>
<trkpt lat="22.328207" lon="103.781769">
<ele>2229.845703</ele>
<time>2011-04-24T00:25:08Z</time>
<desc>lat.=22.328207, lon.=103.781769, Alt.=2229.845703m. Speed=0.036000m/h.</desc>
<speed>0.010000</speed>
</trkpt>
<trkpt lat="22.328209" lon="103.781769">
<ele>2229.783203</ele>
<time>2011-04-24T00:25:13Z</time>
<desc>lat.=22.328209, lon.=103.781769, Alt.=2229.783203m. Speed=0.072000m/h.</desc>
<speed>0.020000</speed>
</trkpt>
<trkpt lat="22.328209" lon="103.781769">
<ele>2229.783203</ele>
<time>2011-04-24T00:25:18Z</time>
<desc>lat.=22.328209, lon.=103.781769, Alt.=2229.783203m. Speed=0.072000m/h.</desc>
<speed>0.020000</speed>
</trkpt>
<trkpt lat="22.328209" lon="103.781769">
<ele>2229.783203</ele>
<time>2011-04-24T00:25:23Z</time>
<desc>lat.=22.328209, lon.=103.781769, Alt.=2229.783203m. Speed=0.036000m/h.</desc>
<speed>0.010000</speed>
</trkpt>
<trkpt lat="22.328207" lon="103.781754">
<ele>2229.720703</ele>
<time>2011-04-24T00:25:28Z</time>
<desc>lat.=22.328207, lon.=103.781754, Alt.=2229.720703m. Speed=3.816000m/h.</desc>
<speed>1.060000</speed>
</trkpt>
<trkpt lat="22.328182" lon="103.781700">
<ele>2229.720703</ele>
<time>2011-04-24T00:25:33Z</time>
<desc>lat.=22.328182, lon.=103.781700, Alt.=2229.720703m. Speed=4.644000m/h.</desc>
<speed>1.290000</speed>
</trkpt>
<trkpt lat="22.328146" lon="103.781654">
<ele>2229.470703</ele>
<time>2011-04-24T00:25:38Z</time>
<desc>lat.=22.328146, lon.=103.781654, Alt.=2229.470703m. Speed=4.104000m/h.</desc>
<speed>1.140000</speed>
</trkpt>
<trkpt lat="22.328091" lon="103.781616">
<ele>2229.220703</ele>
<time>2011-04-24T00:25:43Z</time>
<desc>lat.=22.328091, lon.=103.781616, Alt.=2229.220703m. Speed=4.824000m/h.</desc>
<speed>1.340000</speed>
</trkpt>
<trkpt lat="22.328058" lon="103.781578">
<ele>2229.033203</ele>
<time>2011-04-24T00:25:48Z</time>
<desc>lat.=22.328058, lon.=103.781578, Alt.=2229.033203m. Speed=2.916000m/h.</desc>
<speed>0.810000</speed>
</trkpt>
<trkpt lat="22.328030" lon="103.781548">
<ele>2229.220703</ele>
<time>2011-04-24T00:25:53Z</time>
<desc>lat.=22.328030, lon.=103.781548, Alt.=2229.220703m. Speed=2.664000m/h.</desc>
<speed>0.740000</speed>
</trkpt>
<trkpt lat="22.328003" lon="103.781532">
<ele>2229.533203</ele>
<time>2011-04-24T00:25:58Z</time>
<desc>lat.=22.328003, lon.=103.781532, Alt.=2229.533203m. Speed=3.348000m/h.</desc>
<speed>0.930000</speed>
</trkpt>
<trkpt lat="22.327967" lon="103.781487">
<ele>2229.720703</ele>
<time>2011-04-24T00:26:03Z</time>
<desc>lat.=22.327967, lon.=103.781487, Alt.=2229.720703m. Speed=4.716000m/h.</desc>
<speed>1.310000</speed>
</trkpt>
<trkpt lat="22.327959" lon="103.781471">
<ele>2229.970703</ele>
<time>2011-04-24T00:26:08Z</time>
<desc>lat.=22.327959, lon.=103.781471, Alt.=2229.970703m. Speed=1.008000m/h.</desc>
<speed>0.280000</speed>
</trkpt>
<trkpt lat="22.327923" lon="103.781471">
<ele>2230.033203</ele>
<time>2011-04-24T00:26:13Z</time>
<desc>lat.=22.327923, lon.=103.781471, Alt.=2230.033203m. Speed=1.080000m/h.</desc>
<speed>0.300000</speed>
</trkpt>
<trkpt lat="22.327866" lon="103.781502">
<ele>2230.533203</ele>
<time>2011-04-24T00:26:18Z</time>
<desc>lat.=22.327866, lon.=103.781502, Alt.=2230.533203m. Speed=1.980000m/h.</desc>
<speed>0.550000</speed>
</trkpt>
<trkpt lat="22.327812" lon="103.781525">
<ele>2230.845703</ele>
<time>2011-04-24T00:26:23Z</time>
<desc>lat.=22.327812, lon.=103.781525, Alt.=2230.845703m. Speed=2.592000m/h.</desc>
<speed>0.720000</speed>
</trkpt>
<trkpt lat="22.327766" lon="103.781570">
<ele>2230.658203</ele>
<time>2011-04-24T00:26:28Z</time>
<desc>lat.=22.327766, lon.=103.781570, Alt.=2230.658203m. Speed=2.376000m/h.</desc>
<speed>0.660000</speed>
</trkpt>
<trkpt lat="22.327711" lon="103.781616">
<ele>2229.158203</ele>
<time>2011-04-24T00:26:33Z</time>
<desc>lat.=22.327711, lon.=103.781616, Alt.=2229.158203m. Speed=1.260000m/h.</desc>
<speed>0.350000</speed>
</trkpt>
<trkpt lat="22.327690" lon="103.781631">
<ele>2229.658203</ele>
<time>2011-04-24T00:26:38Z</time>
<desc>lat.=22.327690, lon.=103.781631, Alt.=2229.658203m. Speed=1.440000m/h.</desc>
<speed>0.400000</speed>
</trkpt>
<trkpt lat="22.327654" lon="103.781670">
<ele>2229.595703</ele>
<time>2011-04-24T00:26:43Z</time>
<desc>lat.=22.327654, lon.=103.781670, Alt.=2229.595703m. Speed=0.720000m/h.</desc>
<speed>0.200000</speed>
</trkpt>
<trkpt lat="22.327612" lon="103.781624">
<ele>2230.408203</ele>
<time>2011-04-24T00:26:48Z</time>
<desc>lat.=22.327612, lon.=103.781624, Alt.=2230.408203m. Speed=2.448000m/h.</desc>
<speed>0.680000</speed>
</trkpt>
<trkpt lat="22.327578" lon="103.781586">
<ele>2230.533203</ele>
<time>2011-04-24T00:26:53Z</time>
<desc>lat.=22.327578, lon.=103.781586, Alt.=2230.533203m. Speed=1.476000m/h.</desc>
<speed>0.410000</speed>
</trkpt>
<trkpt lat="22.327555" lon="103.781578">
<ele>2231.095703</ele>
<time>2011-04-24T00:26:58Z</time>
<desc>lat.=22.327555, lon.=103.781578, Alt.=2231.095703m. Speed=1.836000m/h.</desc>
<speed>0.510000</speed>
</trkpt>
<trkpt lat="22.327549" lon="103.781570">
<ele>2231.408203</ele>
<time>2011-04-24T00:27:03Z</time>
<desc>lat.=22.327549, lon.=103.781570, Alt.=2231.408203m. Speed=0.972000m/h.</desc>
<speed>0.270000</speed>
</trkpt>
<trkpt lat="22.327560" lon="103.781563">
<ele>2231.408203</ele>
<time>2011-04-24T00:27:08Z</time>
<desc>lat.=22.327560, lon.=103.781563, Alt.=2231.408203m. Speed=1.260000m/h.</desc>
<speed>0.350000</speed>
</trkpt>
<trkpt lat="22.327578" lon="103.781555">
<ele>2231.720703</ele>
<time>2011-04-24T00:27:13Z</time>
<desc>lat.=22.327578, lon.=103.781555, Alt.=2231.720703m. Speed=1.044000m/h.</desc>
<speed>0.290000</speed>
</trkpt>
<trkpt lat="22.327593" lon="103.781525">
<ele>2232.033203</ele>
<time>2011-04-24T00:27:18Z</time>
<desc>lat.=22.327593, lon.=103.781525, Alt.=2232.033203m. Speed=1.764000m/h.</desc>
<speed>0.490000</speed>
</trkpt>
<trkpt lat="22.327591" lon="103.781502">
<ele>2231.345703</ele>
<time>2011-04-24T00:27:23Z</time>
<desc>lat.=22.327591, lon.=103.781502, Alt.=2231.345703m. Speed=2.124000m/h.</desc>
<speed>0.590000</speed>
</trkpt>
<trkpt lat="22.327579" lon="103.781487">
<ele>2230.908203</ele>
<time>2011-04-24T00:27:28Z</time>
<desc>lat.=22.327579, lon.=103.781487, Alt.=2230.908203m. Speed=1.800000m/h.</desc>
<speed>0.500000</speed>
</trkpt>
<trkpt lat="22.327564" lon="103.781502">
<ele>2230.658203</ele>
<time>2011-04-24T00:27:33Z</time>
<desc>lat.=22.327564, lon.=103.781502, Alt.=2230.658203m. Speed=1.188000m/h.</desc>
<speed>0.330000</speed>
</trkpt>
<trkpt lat="22.327555" lon="103.781487">
<ele>2230.033203</ele>
<time>2011-04-24T00:27:38Z</time>
<desc>lat.=22.327555, lon.=103.781487, Alt.=2230.033203m. Speed=1.512000m/h.</desc>
<speed>0.420000</speed>
</trkpt>
<trkpt lat="22.327545" lon="103.781479">
<ele>2229.158203</ele>
<time>2011-04-24T00:27:43Z</time>
<desc>lat.=22.327545, lon.=103.781479, Alt.=2229.158203m. Speed=1.332000m/h.</desc>
<speed>0.370000</speed>
</trkpt>
<trkpt lat="22.327547" lon="103.781471">
<ele>2228.720703</ele>
<time>2011-04-24T00:27:48Z</time>
<desc>lat.=22.327547, lon.=103.781471, Alt.=2228.720703m. Speed=0.792000m/h.</desc>
<speed>0.220000</speed>
</trkpt>
<trkpt lat="22.327539" lon="103.781464">
<ele>2227.908203</ele>
<time>2011-04-24T00:27:53Z</time>
<desc>lat.=22.327539, lon.=103.781464, Alt.=2227.908203m. Speed=0.792000m/h.</desc>
<speed>0.220000</speed>
</trkpt>
<trkpt lat="22.327534" lon="103.781441">
<ele>2227.720703</ele>
<time>2011-04-24T00:27:58Z</time>
<desc>lat.=22.327534, lon.=103.781441, Alt.=2227.720703m. Speed=0.972000m/h.</desc>
<speed>0.270000</speed>
</trkpt>
<trkpt lat="22.327520" lon="103.781418">
<ele>2227.470703</ele>
<time>2011-04-24T00:28:03Z</time>
<desc>lat.=22.327520, lon.=103.781418, Alt.=2227.470703m. Speed=1.656000m/h.</desc>
<speed>0.460000</speed>
</trkpt>
<trkpt lat="22.327513" lon="103.781387">
<ele>2227.908203</ele>
<time>2011-04-24T00:28:08Z</time>
<desc>lat.=22.327513, lon.=103.781387, Alt.=2227.908203m. Speed=1.800000m/h.</desc>
<speed>0.500000</speed>
</trkpt>
<trkpt lat="22.327517" lon="103.781364">
<ele>2228.158203</ele>
<time>2011-04-24T00:28:13Z</time>
<desc>lat.=22.327517, lon.=103.781364, Alt.=2228.158203m. Speed=1.440000m/h.</desc>
<speed>0.400000</speed>
</trkpt>
<trkpt lat="22.327507" lon="103.781342">
<ele>2228.533203</ele>
<time>2011-04-24T00:28:18Z</time>
<desc>lat.=22.327507, lon.=103.781342, Alt.=2228.533203m. Speed=1.008000m/h.</desc>
<speed>0.280000</speed>
</trkpt>
<trkpt lat="22.327478" lon="103.781342">
<ele>2228.970703</ele>
<time>2011-04-24T00:28:23Z</time>
<desc>lat.=22.327478, lon.=103.781342, Alt.=2228.970703m. Speed=0.468000m/h.</desc>
<speed>0.130000</speed>
</trkpt>
<trkpt lat="22.327461" lon="103.781349">
<ele>2230.283203</ele>
<time>2011-04-24T00:28:28Z</time>
<desc>lat.=22.327461, lon.=103.781349, Alt.=2230.283203m. Speed=1.152000m/h.</desc>
<speed>0.320000</speed>
</trkpt>
<trkpt lat="22.327448" lon="103.781342">
<ele>2231.470703</ele>
<time>2011-04-24T00:28:33Z</time>
<desc>lat.=22.327448, lon.=103.781342, Alt.=2231.470703m. Speed=1.332000m/h.</desc>
<speed>0.370000</speed>
</trkpt>
<trkpt lat="22.327440" lon="103.781334">
<ele>2234.533203</ele>
<time>2011-04-24T00:28:38Z</time>
<desc>lat.=22.327440, lon.=103.781334, Alt.=2234.533203m. Speed=1.656000m/h.</desc>
<speed>0.460000</speed>
</trkpt>
<trkpt lat="22.327419" lon="103.781342">
<ele>2235.845703</ele>
<time>2011-04-24T00:28:43Z</time>
<desc>lat.=22.327419, lon.=103.781342, Alt.=2235.845703m. Speed=1.800000m/h.</desc>
<speed>0.500000</speed>
</trkpt>
<trkpt lat="22.327419" lon="103.781326">
<ele>2237.658203</ele>
<time>2011-04-24T00:28:48Z</time>
<desc>lat.=22.327419, lon.=103.781326, Alt.=2237.658203m. Speed=1.152000m/h.</desc>
<speed>0.320000</speed>
</trkpt>
<trkpt lat="22.327414" lon="103.781326">
<ele>2238.033203</ele>
<time>2011-04-24T00:28:53Z</time>
<desc>lat.=22.327414, lon.=103.781326, Alt.=2238.033203m. Speed=1.224000m/h.</desc>
<speed>0.340000</speed>
</trkpt>
<trkpt lat="22.327398" lon="103.781319">
<ele>2239.345703</ele>
<time>2011-04-24T00:28:58Z</time>
<desc>lat.=22.327398, lon.=103.781319, Alt.=2239.345703m. Speed=1.692000m/h.</desc>
<speed>0.470000</speed>
</trkpt>
<trkpt lat="22.327402" lon="103.781311">
<ele>2240.783203</ele>
<time>2011-04-24T00:29:03Z</time>
<desc>lat.=22.327402, lon.=103.781311, Alt.=2240.783203m. Speed=1.944000m/h.</desc>
<speed>0.540000</speed>
</trkpt>
<trkpt lat="22.327374" lon="103.781288">
<ele>2241.908203</ele>
<time>2011-04-24T00:29:08Z</time>
<desc>lat.=22.327374, lon.=103.781288, Alt.=2241.908203m. Speed=2.484000m/h.</desc>
<speed>0.690000</speed>
</trkpt>
<trkpt lat="22.327349" lon="103.781296">
<ele>2243.470703</ele>
<time>2011-04-24T00:29:13Z</time>
<desc>lat.=22.327349, lon.=103.781296, Alt.=2243.470703m. Speed=2.088000m/h.</desc>
<speed>0.580000</speed>
</trkpt>
<trkpt lat="22.327326" lon="103.781311">
<ele>2244.658203</ele>
<time>2011-04-24T00:29:18Z</time>
<desc>lat.=22.327326, lon.=103.781311, Alt.=2244.658203m. Speed=2.268000m/h.</desc>
<speed>0.630000</speed>
</trkpt>
<trkpt lat="22.327299" lon="103.781311">
<ele>2246.283203</ele>
<time>2011-04-24T00:29:23Z</time>
<desc>lat.=22.327299, lon.=103.781311, Alt.=2246.283203m. Speed=1.620000m/h.</desc>
<speed>0.450000</speed>
</trkpt>
<trkpt lat="22.327291" lon="103.781288">
<ele>2247.908203</ele>
<time>2011-04-24T00:29:28Z</time>
<desc>lat.=22.327291, lon.=103.781288, Alt.=2247.908203m. Speed=2.520000m/h.</desc>
<speed>0.700000</speed>
</trkpt>
<trkpt lat="22.327274" lon="103.781281">
<ele>2249.845703</ele>
<time>2011-04-24T00:29:33Z</time>
<desc>lat.=22.327274, lon.=103.781281, Alt.=2249.845703m. Speed=3.024000m/h.</desc>
<speed>0.840000</speed>
</trkpt>
<trkpt lat="22.327244" lon="103.781258">
<ele>2251.033203</ele>
<time>2011-04-24T00:29:38Z</time>
<desc>lat.=22.327244, lon.=103.781258, Alt.=2251.033203m. Speed=2.808000m/h.</desc>
<speed>0.780000</speed>
</trkpt>
<trkpt lat="22.327248" lon="103.781235">
<ele>2252.595703</ele>
<time>2011-04-24T00:29:43Z</time>
<desc>lat.=22.327248, lon.=103.781235, Alt.=2252.595703m. Speed=2.628000m/h.</desc>
<speed>0.730000</speed>
</trkpt>
<trkpt lat="22.327253" lon="103.781204">
<ele>2253.658203</ele>
<time>2011-04-24T00:29:48Z</time>
<desc>lat.=22.327253, lon.=103.781204, Alt.=2253.658203m. Speed=2.772000m/h.</desc>
<speed>0.770000</speed>
</trkpt>
<trkpt lat="22.327230" lon="103.781181">
<ele>2255.033203</ele>
<time>2011-04-24T00:29:53Z</time>
<desc>lat.=22.327230, lon.=103.781181, Alt.=2255.033203m. Speed=1.944000m/h.</desc>
<speed>0.540000</speed>
</trkpt>
<trkpt lat="22.327217" lon="103.781158">
<ele>2256.658203</ele>
<time>2011-04-24T00:29:58Z</time>
<desc>lat.=22.327217, lon.=103.781158, Alt.=2256.658203m. Speed=1.944000m/h.</desc>
<speed>0.540000</speed>
</trkpt>
<trkpt lat="22.327200" lon="103.781136">
<ele>2257.470703</ele>
<time>2011-04-24T00:30:03Z</time>
<desc>lat.=22.327200, lon.=103.781136, Alt.=2257.470703m. Speed=2.160000m/h.</desc>
<speed>0.600000</speed>
</trkpt>
<trkpt lat="22.327171" lon="103.781143">
<ele>2258.970703</ele>
<time>2011-04-24T00:30:08Z</time>
<desc>lat.=22.327171, lon.=103.781143, Alt.=2258.970703m. Speed=2.880000m/h.</desc>
<speed>0.800000</speed>
</trkpt>
<trkpt lat="22.327143" lon="103.781136">
<ele>2259.783203</ele>
<time>2011-04-24T00:30:13Z</time>
<desc>lat.=22.327143, lon.=103.781136, Alt.=2259.783203m. Speed=3.060000m/h.</desc>
<speed>0.850000</speed>
</trkpt>
<trkpt lat="22.327103" lon="103.781120">
<ele>2260.845703</ele>
<time>2011-04-24T00:30:18Z</time>
<desc>lat.=22.327103, lon.=103.781120, Alt.=2260.845703m. Speed=2.808000m/h.</desc>
<speed>0.780000</speed>
</trkpt>
<trkpt lat="22.327078" lon="103.781113">
<ele>2262.783203</ele>
<time>2011-04-24T00:30:23Z</time>
<desc>lat.=22.327078, lon.=103.781113, Alt.=2262.783203m. Speed=2.592000m/h.</desc>
<speed>0.720000</speed>
</trkpt>
<trkpt lat="22.327040" lon="103.781090">
<ele>2263.720703</ele>
<time>2011-04-24T00:30:28Z</time>
<desc>lat.=22.327040, lon.=103.781090, Alt.=2263.720703m. Speed=2.448000m/h.</desc>
<speed>0.680000</speed>
</trkpt>
<trkpt lat="22.326998" lon="103.781067">
<ele>2263.783203</ele>
<time>2011-04-24T00:30:33Z</time>
<desc>lat.=22.326998, lon.=103.781067, Alt.=2263.783203m. Speed=4.860000m/h.</desc>
<speed>1.350000</speed>
</trkpt>
<trkpt lat="22.326996" lon="103.781059">
<ele>2263.783203</ele>
<time>2011-04-24T00:30:38Z</time>
<desc>lat.=22.326996, lon.=103.781059, Alt.=2263.783203m. Speed=0.072000m/h.</desc>
<speed>0.020000</speed>
</trkpt>
<trkpt lat="22.326996" lon="103.781059">
<ele>2263.720703</ele>
<time>2011-04-24T00:30:43Z</time>
<desc>lat.=22.326996, lon.=103.781059, Alt.=2263.720703m. Speed=0.144000m/h.</desc>
<speed>0.040000</speed>
</trkpt>
<trkpt lat="22.326994" lon="103.781059">
<ele>2263.845703</ele>
<time>2011-04-24T00:30:48Z</time>
<desc>lat.=22.326994, lon.=103.781059, Alt.=2263.845703m. Speed=0.324000m/h.</desc>
<speed>0.090000</speed>
</trkpt>
<trkpt lat="22.326984" lon="103.781044">
<ele>2264.033203</ele>
<time>2011-04-24T00:30:53Z</time>
<desc>lat.=22.326984, lon.=103.781044, Alt.=2264.033203m. Speed=4.716000m/h.</desc>
<speed>1.310000</speed>
</trkpt>
<trkpt lat="22.326944" lon="103.780998">
<ele>2264.095703</ele>
<time>2011-04-24T00:30:58Z</time>
<desc>lat.=22.326944, lon.=103.780998, Alt.=2264.095703m. Speed=4.644000m/h.</desc>
<speed>1.290000</speed>
</trkpt>
<trkpt lat="22.326904" lon="103.780960">
<ele>2264.658203</ele>
<time>2011-04-24T00:31:03Z</time>
<desc>lat.=22.326904, lon.=103.780960, Alt.=2264.658203m. Speed=3.744000m/h.</desc>
<speed>1.040000</speed>
</trkpt>
<trkpt lat="22.326866" lon="103.780937">
<ele>2266.158203</ele>
<time>2011-04-24T00:31:08Z</time>
<desc>lat.=22.326866, lon.=103.780937, Alt.=2266.158203m. Speed=4.716000m/h.</desc>
<speed>1.310000</speed>
</trkpt>
<trkpt lat="22.326838" lon="103.780907">
<ele>2266.908203</ele>
<time>2011-04-24T00:31:13Z</time>
<desc>lat.=22.326838, lon.=103.780907, Alt.=2266.908203m. Speed=2.412000m/h.</desc>
<speed>0.670000</speed>
</trkpt>
<trkpt lat="22.326826" lon="103.780869">
<ele>2268.345703</ele>
<time>2011-04-24T00:31:18Z</time>
<desc>lat.=22.326826, lon.=103.780869, Alt.=2268.345703m. Speed=3.492000m/h.</desc>
<speed>0.970000</speed>
</trkpt>
<trkpt lat="22.326805" lon="103.780838">
<ele>2269.345703</ele>
<time>2011-04-24T00:31:23Z</time>
<desc>lat.=22.326805, lon.=103.780838, Alt.=2269.345703m. Speed=4.536000m/h.</desc>
<speed>1.260000</speed>
</trkpt>
<trkpt lat="22.326796" lon="103.780785">
<ele>2270.033203</ele>
<time>2011-04-24T00:31:28Z</time>
<desc>lat.=22.326796, lon.=103.780785, Alt.=2270.033203m. Speed=3.204000m/h.</desc>
<speed>0.890000</speed>
</trkpt>
<trkpt lat="22.326786" lon="103.780739">
<ele>2271.283203</ele>
<time>2011-04-24T00:31:33Z</time>
<desc>lat.=22.326786, lon.=103.780739, Alt.=2271.283203m. Speed=3.348000m/h.</desc>
<speed>0.930000</speed>
</trkpt>
<trkpt lat="22.326765" lon="103.780693">
<ele>2271.220703</ele>
<time>2011-04-24T00:31:38Z</time>
<desc>lat.=22.326765, lon.=103.780693, Alt.=2271.220703m. Speed=4.176000m/h.</desc>
<speed>1.160000</speed>
</trkpt>
<trkpt lat="22.326738" lon="103.780647">
<ele>2271.345703</ele>
<time>2011-04-24T00:31:43Z</time>
<desc>lat.=22.326738, lon.=103.780647, Alt.=2271.345703m. Speed=4.140000m/h.</desc>
<speed>1.150000</speed>
</trkpt>
<trkpt lat="22.326733" lon="103.780609">
<ele>2272.095703</ele>
<time>2011-04-24T00:31:48Z</time>
<desc>lat.=22.326733, lon.=103.780609, Alt.=2272.095703m. Speed=3.600000m/h.</desc>
<speed>1.000000</speed>
</trkpt>
<trkpt lat="22.326727" lon="103.780571">
<ele>2272.658203</ele>
<time>2011-04-24T00:31:53Z</time>
<desc>lat.=22.326727, lon.=103.780571, Alt.=2272.658203m. Speed=3.168000m/h.</desc>
<speed>0.880000</speed>
</trkpt>
<trkpt lat="22.326733" lon="103.780533">
<ele>2274.095703</ele>
<time>2011-04-24T00:31:58Z</time>
<desc>lat.=22.326733, lon.=103.780533, Alt.=2274.095703m. Speed=2.664000m/h.</desc>
<speed>0.740000</speed>
</trkpt>
<trkpt lat="22.326729" lon="103.780495">
<ele>2275.095703</ele>
<time>2011-04-24T00:32:03Z</time>
<desc>lat.=22.326729, lon.=103.780495, Alt.=2275.095703m. Speed=3.744000m/h.</desc>
<speed>1.040000</speed>
</trkpt>
<trkpt lat="22.326727" lon="103.780449">
<ele>2276.345703</ele>
<time>2011-04-24T00:32:08Z</time>
<desc>lat.=22.326727, lon.=103.780449, Alt.=2276.345703m. Speed=2.556000m/h.</desc>
<speed>0.710000</speed>
</trkpt>
<trkpt lat="22.326719" lon="103.780411">
<ele>2277.470703</ele>
<time>2011-04-24T00:32:13Z</time>
<desc>lat.=22.326719, lon.=103.780411, Alt.=2277.470703m. Speed=3.168000m/h.</desc>
<speed>0.880000</speed>
</trkpt>
<trkpt lat="22.326717" lon="103.780380">
<ele>2278.595703</ele>
<time>2011-04-24T00:32:18Z</time>
<desc>lat.=22.326717, lon.=103.780380, Alt.=2278.595703m. Speed=1.872000m/h.</desc>
<speed>0.520000</speed>
</trkpt>
<trkpt lat="22.326721" lon="103.780342">
<ele>2279.970703</ele>
<time>2011-04-24T00:32:23Z</time>
<desc>lat.=22.326721, lon.=103.780342, Alt.=2279.970703m. Speed=3.204000m/h.</desc>
<speed>0.890000</speed>
</trkpt>
<trkpt lat="22.326733" lon="103.780312">
<ele>2280.783203</ele>
<time>2011-04-24T00:32:28Z</time>
<desc>lat.=22.326733, lon.=103.780312, Alt.=2280.783203m. Speed=2.304000m/h.</desc>
<speed>0.640000</speed>
</trkpt>
<trkpt lat="22.326723" lon="103.780273">
<ele>2281.345703</ele>
<time>2011-04-24T00:32:33Z</time>
<desc>lat.=22.326723, lon.=103.780273, Alt.=2281.345703m. Speed=3.564000m/h.</desc>
<speed>0.990000</speed>
</trkpt>
<trkpt lat="22.326719" lon="103.780243">
<ele>2281.720703</ele>
<time>2011-04-24T00:32:38Z</time>
<desc>lat.=22.326719, lon.=103.780243, Alt.=2281.720703m. Speed=1.656000m/h.</desc>
<speed>0.460000</speed>
</trkpt>
<trkpt lat="22.326691" lon="103.780251">
<ele>2281.658203</ele>
<time>2011-04-24T00:32:43Z</time>
<desc>lat.=22.326691, lon.=103.780251, Alt.=2281.658203m. Speed=2.808000m/h.</desc>
<speed>0.780000</speed>
</trkpt>
<trkpt lat="22.326654" lon="103.780266">
<ele>2281.908203</ele>
<time>2011-04-24T00:32:48Z</time>
<desc>lat.=22.326654, lon.=103.780266, Alt.=2281.908203m. Speed=3.600000m/h.</desc>
<speed>1.000000</speed>
</trkpt>
<trkpt lat="22.326605" lon="103.780281">
<ele>2281.970703</ele>
<time>2011-04-24T00:32:53Z</time>
<desc>lat.=22.326605, lon.=103.780281, Alt.=2281.970703m. Speed=3.528000m/h.</desc>
<speed>0.980000</speed>
</trkpt>
<trkpt lat="22.326584" lon="103.780258">
<ele>2283.533203</ele>
<time>2011-04-24T00:32:58Z</time>
<desc>lat.=22.326584, lon.=103.780258, Alt.=2283.533203m. Speed=2.340000m/h.</desc>
<speed>0.650000</speed>
</trkpt>
<trkpt lat="22.326572" lon="103.780251">
<ele>2284.533203</ele>
<time>2011-04-24T00:33:03Z</time>
<desc>lat.=22.326572, lon.=103.780251, Alt.=2284.533203m. Speed=1.440000m/h.</desc>
<speed>0.400000</speed>
</trkpt>
<trkpt lat="22.326555" lon="103.780220">
<ele>2286.095703</ele>
<time>2011-04-24T00:33:08Z</time>
<desc>lat.=22.326555, lon.=103.780220, Alt.=2286.095703m. Speed=3.528000m/h.</desc>
<speed>0.980000</speed>
</trkpt>
<trkpt lat="22.326544" lon="103.780182">
<ele>2287.345703</ele>
<time>2011-04-24T00:33:13Z</time>
<desc>lat.=22.326544, lon.=103.780182, Alt.=2287.345703m. Speed=3.420000m/h.</desc>
<speed>0.950000</speed>
</trkpt>
<trkpt lat="22.326498" lon="103.780167">
<ele>2288.470703</ele>
<time>2011-04-24T00:33:18Z</time>
<desc>lat.=22.326498, lon.=103.780167, Alt.=2288.470703m. Speed=3.924000m/h.</desc>
<speed>1.090000</speed>
</trkpt>
<trkpt lat="22.326452" lon="103.780136">
<ele>2289.283203</ele>
<time>2011-04-24T00:33:23Z</time>
<desc>lat.=22.326452, lon.=103.780136, Alt.=2289.283203m. Speed=3.672000m/h.</desc>
<speed>1.020000</speed>
</trkpt>
<trkpt lat="22.326420" lon="103.780098">
<ele>2289.595703</ele>
<time>2011-04-24T00:33:28Z</time>
<desc>lat.=22.326420, lon.=103.780098, Alt.=2289.595703m. Speed=4.716000m/h.</desc>
<speed>1.310000</speed>
</trkpt>
<trkpt lat="22.326385" lon="103.780075">
<ele>2290.220703</ele>
<time>2011-04-24T00:33:33Z</time>
<desc>lat.=22.326385, lon.=103.780075, Alt.=2290.220703m. Speed=3.960000m/h.</desc>
<speed>1.100000</speed>
</trkpt>
<trkpt lat="22.326336" lon="103.780045">
<ele>2290.220703</ele>
<time>2011-04-24T00:33:38Z</time>
<desc>lat.=22.326336, lon.=103.780045, Alt.=2290.220703m. Speed=3.672000m/h.</desc>
<speed>1.020000</speed>
</trkpt>
<trkpt lat="22.326311" lon="103.780006">
<ele>2291.283203</ele>
<time>2011-04-24T00:33:43Z</time>
<desc>lat.=22.326311, lon.=103.780006, Alt.=2291.283203m. Speed=2.808000m/h.</desc>
<speed>0.780000</speed>
</trkpt>
<trkpt lat="22.326296" lon="103.779984">
<ele>2293.033203</ele>
<time>2011-04-24T00:33:48Z</time>
<desc>lat.=22.326296, lon.=103.779984, Alt.=2293.033203m. Speed=3.276000m/h.</desc>
<speed>0.910000</speed>
</trkpt>
<trkpt lat="22.326279" lon="103.779930">
<ele>2294.220703</ele>
<time>2011-04-24T00:33:53Z</time>
<desc>lat.=22.326279, lon.=103.779930, Alt.=2294.220703m. Speed=3.744000m/h.</desc>
<speed>1.040000</speed>
</trkpt>
<trkpt lat="22.326252" lon="103.779892">
<ele>2295.033203</ele>
<time>2011-04-24T00:33:58Z</time>
<desc>lat.=22.326252, lon.=103.779892, Alt.=2295.033203m. Speed=3.312000m/h.</desc>
<speed>0.920000</speed>
</trkpt>
<trkpt lat="22.326235" lon="103.779846">
<ele>2295.095703</ele>
<time>2011-04-24T00:34:03Z</time>
<desc>lat.=22.326235, lon.=103.779846, Alt.=2295.095703m. Speed=3.924000m/h.</desc>
<speed>1.090000</speed>
</trkpt>
<trkpt lat="22.326208" lon="103.779823">
<ele>2296.283203</ele>
<time>2011-04-24T00:34:08Z</time>
<desc>lat.=22.326208, lon.=103.779823, Alt.=2296.283203m. Speed=1.836000m/h.</desc>
<speed>0.510000</speed>
</trkpt>
<trkpt lat="22.326218" lon="103.779793">
<ele>2297.533203</ele>
<time>2011-04-24T00:34:13Z</time>
<desc>lat.=22.326218, lon.=103.779793, Alt.=2297.533203m. Speed=2.988000m/h.</desc>
<speed>0.830000</speed>
</trkpt>
<trkpt lat="22.326246" lon="103.779778">
<ele>2298.595703</ele>
<time>2011-04-24T00:34:18Z</time>
<desc>lat.=22.326246, lon.=103.779778, Alt.=2298.595703m. Speed=2.700000m/h.</desc>
<speed>0.750000</speed>
</trkpt>
<trkpt lat="22.326283" lon="103.779778">
<ele>2300.158203</ele>
<time>2011-04-24T00:34:23Z</time>
<desc>lat.=22.326283, lon.=103.779778, Alt.=2300.158203m. Speed=3.816000m/h.</desc>
<speed>1.060000</speed>
</trkpt>
<trkpt lat="22.326321" lon="103.779755">
<ele>2301.783203</ele>
<time>2011-04-24T00:34:28Z</time>
<desc>lat.=22.326321, lon.=103.779755, Alt.=2301.783203m. Speed=2.664000m/h.</desc>
<speed>0.740000</speed>
</trkpt>
<trkpt lat="22.326357" lon="103.779747">
<ele>2305.658203</ele>
<time>2011-04-24T00:34:33Z</time>
<desc>lat.=22.326357, lon.=103.779747, Alt.=2305.658203m. Speed=1.332000m/h.</desc>
<speed>0.370000</speed>
</trkpt>
<trkpt lat="22.326365" lon="103.779732">
<ele>2307.158203</ele>
<time>2011-04-24T00:34:38Z</time>
<desc>lat.=22.326365, lon.=103.779732, Alt.=2307.158203m. Speed=2.448000m/h.</desc>
<speed>0.680000</speed>
</trkpt>
<trkpt lat="22.326359" lon="103.779716">
<ele>2308.033203</ele>
<time>2011-04-24T00:34:43Z</time>
<desc>lat.=22.326359, lon.=103.779716, Alt.=2308.033203m. Speed=1.548000m/h.</desc>
<speed>0.430000</speed>
</trkpt>
<trkpt lat="22.326330" lon="103.779701">
<ele>2308.908203</ele>
<time>2011-04-24T00:34:48Z</time>
<desc>lat.=22.326330, lon.=103.779701, Alt.=2308.908203m. Speed=2.160000m/h.</desc>
<speed>0.600000</speed>
</trkpt>
<trkpt lat="22.326309" lon="103.779694">
<ele>2309.783203</ele>
<time>2011-04-24T00:34:53Z</time>
<desc>lat.=22.326309, lon.=103.779694, Alt.=2309.783203m. Speed=2.412000m/h.</desc>
<speed>0.670000</speed>
</trkpt>
<trkpt lat="22.326292" lon="103.779671">
<ele>2310.783203</ele>
<time>2011-04-24T00:34:58Z</time>
<desc>lat.=22.326292, lon.=103.779671, Alt.=2310.783203m. Speed=3.456000m/h.</desc>
<speed>0.960000</speed>
</trkpt>
<trkpt lat="22.326290" lon="103.779648">
<ele>2311.470703</ele>
<time>2011-04-24T00:35:03Z</time>
<desc>lat.=22.326290, lon.=103.779648, Alt.=2311.470703m. Speed=2.088000m/h.</desc>
<speed>0.580000</speed>
</trkpt>
<trkpt lat="22.326273" lon="103.779617">
<ele>2312.533203</ele>
<time>2011-04-24T00:35:08Z</time>
<desc>lat.=22.326273, lon.=103.779617, Alt.=2312.533203m. Speed=1.332000m/h.</desc>
<speed>0.370000</speed>
</trkpt>
<trkpt lat="22.326269" lon="103.779610">
<ele>2313.220703</ele>
<time>2011-04-24T00:35:13Z</time>
<desc>lat.=22.326269, lon.=103.779610, Alt.=2313.220703m. Speed=2.556000m/h.</desc>
<speed>0.710000</speed>
</trkpt>
<trkpt lat="22.326248" lon="103.779579">
<ele>2313.220703</ele>
<time>2011-04-24T00:35:18Z</time>
<desc>lat.=22.326248, lon.=103.779579, Alt.=2313.220703m. Speed=2.304000m/h.</desc>
<speed>0.640000</speed>
</trkpt>
<trkpt lat="22.326258" lon="103.779564">
<ele>2314.908203</ele>
<time>2011-04-24T00:35:23Z</time>
<desc>lat.=22.326258, lon.=103.779564, Alt.=2314.908203m. Speed=0.612000m/h.</desc>
<speed>0.170000</speed>
</trkpt>
<trkpt lat="22.326258" lon="103.779564">
<ele>2315.720703</ele>
<time>2011-04-24T00:35:28Z</time>
<desc>lat.=22.326258, lon.=103.779564, Alt.=2315.720703m. Speed=0.144000m/h.</desc>
<speed>0.040000</speed>
</trkpt>
<trkpt lat="22.326262" lon="103.779564">
<ele>2315.720703</ele>
<time>2011-04-24T00:35:33Z</time>
<desc>lat.=22.326262, lon.=103.779564, Alt.=2315.720703m. Speed=2.952000m/h.</desc>
<speed>0.820000</speed>
</trkpt>
<trkpt lat="22.326263" lon="103.779503">
<ele>2317.220703</ele>
<time>2011-04-24T00:35:38Z</time>
<desc>lat.=22.326263, lon.=103.779503, Alt.=2317.220703m. Speed=3.276000m/h.</desc>
<speed>0.910000</speed>
</trkpt>
<trkpt lat="22.326227" lon="103.779465">
<ele>2317.345703</ele>
<time>2011-04-24T00:35:43Z</time>
<desc>lat.=22.326227, lon.=103.779465, Alt.=2317.345703m. Speed=3.780000m/h.</desc>
<speed>1.050000</speed>
</trkpt>
<trkpt lat="22.326187" lon="103.779411">
<ele>2318.345703</ele>
<time>2011-04-24T00:35:48Z</time>
<desc>lat.=22.326187, lon.=103.779411, Alt.=2318.345703m. Speed=4.932000m/h.</desc>
<speed>1.370000</speed>
</trkpt>
<trkpt lat="22.326155" lon="103.779358">
<ele>2319.408203</ele>
<time>2011-04-24T00:35:53Z</time>
<desc>lat.=22.326155, lon.=103.779358, Alt.=2319.408203m. Speed=4.104000m/h.</desc>
<speed>1.140000</speed>
</trkpt>
<trkpt lat="22.326117" lon="103.779312">
<ele>2320.595703</ele>
<time>2011-04-24T00:35:58Z</time>
<desc>lat.=22.326117, lon.=103.779312, Alt.=2320.595703m. Speed=4.464000m/h.</desc>
<speed>1.240000</speed>
</trkpt>
<trkpt lat="22.326109" lon="103.779243">
<ele>2322.283203</ele>
<time>2011-04-24T00:36:03Z</time>
<desc>lat.=22.326109, lon.=103.779243, Alt.=2322.283203m. Speed=5.076000m/h.</desc>
<speed>1.410000</speed>
</trkpt>
<trkpt lat="22.326094" lon="103.779213">
<ele>2323.095703</ele>
<time>2011-04-24T00:36:08Z</time>
<desc>lat.=22.326094, lon.=103.779213, Alt.=2323.095703m. Speed=4.932000m/h.</desc>
<speed>1.370000</speed>
</trkpt>
<trkpt lat="22.326056" lon="103.779160">
<ele>2325.158203</ele>
<time>2011-04-24T00:36:13Z</time>
<desc>lat.=22.326056, lon.=103.779160, Alt.=2325.158203m. Speed=5.292000m/h.</desc>
<speed>1.470000</speed>
</trkpt>
<trkpt lat="22.326052" lon="103.779129">
<ele>2327.158203</ele>
<time>2011-04-24T00:36:18Z</time>
<desc>lat.=22.326052, lon.=103.779129, Alt.=2327.158203m. Speed=3.960000m/h.</desc>
<speed>1.100000</speed>
</trkpt>
<trkpt lat="22.326044" lon="103.779083">
<ele>2328.720703</ele>
<time>2011-04-24T00:36:23Z</time>
<desc>lat.=22.326044, lon.=103.779083, Alt.=2328.720703m. Speed=5.328000m/h.</desc>
<speed>1.480000</speed>
</trkpt>
<trkpt lat="22.326036" lon="103.779030">
<ele>2330.408203</ele>
<time>2011-04-24T00:36:28Z</time>
<desc>lat.=22.326036, lon.=103.779030, Alt.=2330.408203m. Speed=4.896000m/h.</desc>
<speed>1.360000</speed>
</trkpt>
<trkpt lat="22.326010" lon="103.778984">
<ele>2332.408203</ele>
<time>2011-04-24T00:36:33Z</time>
<desc>lat.=22.326010, lon.=103.778984, Alt.=2332.408203m. Speed=4.572000m/h.</desc>
<speed>1.270000</speed>
</trkpt>
<trkpt lat="22.326012" lon="103.778923">
<ele>2333.658203</ele>
<time>2011-04-24T00:36:38Z</time>
<desc>lat.=22.326012, lon.=103.778923, Alt.=2333.658203m. Speed=3.384000m/h.</desc>
<speed>0.940000</speed>
</trkpt>
<trkpt lat="22.326017" lon="103.778908">
<ele>2332.720703</ele>
<time>2011-04-24T00:36:43Z</time>
<desc>lat.=22.326017, lon.=103.778908, Alt.=2332.720703m. Speed=3.708000m/h.</desc>
<speed>1.030000</speed>
</trkpt>
<trkpt lat="22.326010" lon="103.778847">
<ele>2333.408203</ele>
<time>2011-04-24T00:36:48Z</time>
<desc>lat.=22.326010, lon.=103.778847, Alt.=2333.408203m. Speed=5.364000m/h.</desc>
<speed>1.490000</speed>
</trkpt>
<trkpt lat="22.326002" lon="103.778786">
<ele>2334.095703</ele>
<time>2011-04-24T00:36:53Z</time>
<desc>lat.=22.326002, lon.=103.778786, Alt.=2334.095703m. Speed=3.888000m/h.</desc>
<speed>1.080000</speed>
</trkpt>
<trkpt lat="22.325983" lon="103.778740">
<ele>2334.595703</ele>
<time>2011-04-24T00:36:58Z</time>
<desc>lat.=22.325983, lon.=103.778740, Alt.=2334.595703m. Speed=5.616000m/h.</desc>
<speed>1.560000</speed>
</trkpt>
<trkpt lat="22.325970" lon="103.778694">
<ele>2336.033203</ele>
<time>2011-04-24T00:37:03Z</time>
<desc>lat.=22.325970, lon.=103.778694, Alt.=2336.033203m. Speed=3.276000m/h.</desc>
<speed>0.910000</speed>
</trkpt>
<trkpt lat="22.325958" lon="103.778648">
<ele>2337.845703</ele>
<time>2011-04-24T00:37:08Z</time>
<desc>lat.=22.325958, lon.=103.778648, Alt.=2337.845703m. Speed=1.116000m/h.</desc>
<speed>0.310000</speed>
</trkpt>
<trkpt lat="22.325960" lon="103.778625">
<ele>2336.345703</ele>
<time>2011-04-24T00:37:13Z</time>
<desc>lat.=22.325960, lon.=103.778625, Alt.=2336.345703m. Speed=0.468000m/h.</desc>
<speed>0.130000</speed>
</trkpt>
<trkpt lat="22.325953" lon="103.778603">
<ele>2336.845703</ele>
<time>2011-04-24T00:37:18Z</time>
<desc>lat.=22.325953, lon.=103.778603, Alt.=2336.845703m. Speed=3.240000m/h.</desc>
<speed>0.900000</speed>
</trkpt>
<trkpt lat="22.325958" lon="103.778557">
<ele>2337.470703</ele>
<time>2011-04-24T00:37:23Z</time>
<desc>lat.=22.325958, lon.=103.778557, Alt.=2337.470703m. Speed=3.312000m/h.</desc>
<speed>0.920000</speed>
</trkpt>
<trkpt lat="22.325970" lon="103.778511">
<ele>2335.720703</ele>
<time>2011-04-24T00:37:28Z</time>
<desc>lat.=22.325970, lon.=103.778511, Alt.=2335.720703m. Speed=1.584000m/h.</desc>
<speed>0.440000</speed>
</trkpt>
<trkpt lat="22.325975" lon="103.778481">
<ele>2334.845703</ele>
<time>2011-04-24T00:37:33Z</time>
<desc>lat.=22.325975, lon.=103.778481, Alt.=2334.845703m. Speed=3.708000m/h.</desc>
<speed>1.030000</speed>
</trkpt>
<trkpt lat="22.325981" lon="103.778435">
<ele>2335.970703</ele>
<time>2011-04-24T00:37:38Z</time>
<desc>lat.=22.325981, lon.=103.778435, Alt.=2335.970703m. Speed=3.780000m/h.</desc>
<speed>1.050000</speed>
</trkpt>
<trkpt lat="22.325983" lon="103.778389">
<ele>2337.033203</ele>
<time>2011-04-24T00:37:43Z</time>
<desc>lat.=22.325983, lon.=103.778389, Alt.=2337.033203m. Speed=3.312000m/h.</desc>
<speed>0.920000</speed>
</trkpt>
<trkpt lat="22.325987" lon="103.778343">
<ele>2338.220703</ele>
<time>2011-04-24T00:37:48Z</time>
<desc>lat.=22.325987, lon.=103.778343, Alt.=2338.220703m. Speed=3.312000m/h.</desc>
<speed>0.920000</speed>
</trkpt>
<trkpt lat="22.325996" lon="103.778290">
<ele>2337.908203</ele>
<time>2011-04-24T00:37:53Z</time>
<desc>lat.=22.325996, lon.=103.778290, Alt.=2337.908203m. Speed=3.996000m/h.</desc>
<speed>1.110000</speed>
</trkpt>
<trkpt lat="22.326015" lon="103.778252">
<ele>2338.533203</ele>
<time>2011-04-24T00:37:58Z</time>
<desc>lat.=22.326015, lon.=103.778252, Alt.=2338.533203m. Speed=0.432000m/h.</desc>
<speed>0.120000</speed>
</trkpt>
<trkpt lat="22.326015" lon="103.778259">
<ele>2338.470703</ele>
<time>2011-04-24T00:38:03Z</time>
<desc>lat.=22.326015, lon.=103.778259, Alt.=2338.470703m. Speed=0.144000m/h.</desc>
<speed>0.040000</speed>
</trkpt>
<trkpt lat="22.326033" lon="103.778236">
<ele>2337.720703</ele>
<time>2011-04-24T00:38:08Z</time>
<desc>lat.=22.326033, lon.=103.778236, Alt.=2337.720703m. Speed=2.844000m/h.</desc>
<speed>0.790000</speed>
</trkpt>
<trkpt lat="22.326042" lon="103.778214">
<ele>2336.095703</ele>
<time>2011-04-24T00:38:13Z</time>
<desc>lat.=22.326042, lon.=103.778214, Alt.=2336.095703m. Speed=0.540000m/h.</desc>
<speed>0.150000</speed>
</trkpt>
<trkpt lat="22.326042" lon="103.778214">
<ele>2335.970703</ele>
<time>2011-04-24T00:38:18Z</time>
<desc>lat.=22.326042, lon.=103.778214, Alt.=2335.970703m. Speed=0.180000m/h.</desc>
<speed>0.050000</speed>
</trkpt>
<trkpt lat="22.326025" lon="103.778214">
<ele>2334.720703</ele>
<time>2011-04-24T00:38:23Z</time>
<desc>lat.=22.326025, lon.=103.778214, Alt.=2334.720703m. Speed=2.124000m/h.</desc>
<speed>0.590000</speed>
</trkpt>
<trkpt lat="22.326023" lon="103.778206">
<ele>2334.345703</ele>
<time>2011-04-24T00:38:28Z</time>
<desc>lat.=22.326023, lon.=103.778206, Alt.=2334.345703m. Speed=0.216000m/h.</desc>
<speed>0.060000</speed>
</trkpt>
<trkpt lat="22.326029" lon="103.778198">
<ele>2334.220703</ele>
<time>2011-04-24T00:38:33Z</time>
<desc>lat.=22.326029, lon.=103.778198, Alt.=2334.220703m. Speed=1.476000m/h.</desc>
<speed>0.410000</speed>
</trkpt>
<trkpt lat="22.326033" lon="103.778198">
<ele>2333.845703</ele>
<time>2011-04-24T00:38:38Z</time>
<desc>lat.=22.326033, lon.=103.778198, Alt.=2333.845703m. Speed=0.144000m/h.</desc>
<speed>0.040000</speed>
</trkpt>
<trkpt lat="22.326033" lon="103.778198">
<ele>2333.845703</ele>
<time>2011-04-24T00:38:43Z</time>
<desc>lat.=22.326033, lon.=103.778198, Alt.=2333.845703m. Speed=0.144000m/h.</desc>
<speed>0.040000</speed>
</trkpt>
<trkpt lat="22.326033" lon="103.778183">
<ele>2333.783203</ele>
<time>2011-04-24T00:38:48Z</time>
<desc>lat.=22.326033, lon.=103.778183, Alt.=2333.783203m. Speed=1.440000m/h.</desc>
<speed>0.400000</speed>
</trkpt>
<trkpt lat="22.326042" lon="103.778137">
<ele>2332.970703</ele>
<time>2011-04-24T00:38:53Z</time>
<desc>lat.=22.326042, lon.=103.778137, Alt.=2332.970703m. Speed=4.716000m/h.</desc>
<speed>1.310000</speed>
</trkpt>
<trkpt lat="22.326065" lon="103.778061">
<ele>2332.783203</ele>
<time>2011-04-24T00:38:58Z</time>
<desc>lat.=22.326065, lon.=103.778061, Alt.=2332.783203m. Speed=5.724000m/h.</desc>
<speed>1.590000</speed>
</trkpt>
<trkpt lat="22.326071" lon="103.778000">
<ele>2333.283203</ele>
<time>2011-04-24T00:39:03Z</time>
<desc>lat.=22.326071, lon.=103.778000, Alt.=2333.283203m. Speed=5.940000m/h.</desc>
<speed>1.650000</speed>
</trkpt>
<trkpt lat="22.326069" lon="103.777916">
<ele>2334.220703</ele>
<time>2011-04-24T00:39:08Z</time>
<desc>lat.=22.326069, lon.=103.777916, Alt.=2334.220703m. Speed=6.156000m/h.</desc>
<speed>1.710000</speed>
</trkpt>
<trkpt lat="22.326057" lon="103.777847">
<ele>2336.720703</ele>
<time>2011-04-24T00:39:13Z</time>
<desc>lat.=22.326057, lon.=103.777847, Alt.=2336.720703m. Speed=4.968000m/h.</desc>
<speed>1.380000</speed>
</trkpt>
<trkpt lat="22.326040" lon="103.777786">
<ele>2337.658203</ele>
<time>2011-04-24T00:39:18Z</time>
<desc>lat.=22.326040, lon.=103.777786, Alt.=2337.658203m. Speed=4.608000m/h.</desc>
<speed>1.280000</speed>
</trkpt>
<trkpt lat="22.326042" lon="103.777710">
<ele>2340.408203</ele>
<time>2011-04-24T00:39:23Z</time>
<desc>lat.=22.326042, lon.=103.777710, Alt.=2340.408203m. Speed=5.076000m/h.</desc>
<speed>1.410000</speed>
</trkpt>
<trkpt lat="22.326040" lon="103.777634">
<ele>2340.970703</ele>
<time>2011-04-24T00:39:28Z</time>
<desc>lat.=22.326040, lon.=103.777634, Alt.=2340.970703m. Speed=6.156000m/h.</desc>
<speed>1.710000</speed>
</trkpt>
<trkpt lat="22.326029" lon="103.777573">
<ele>2341.158203</ele>
<time>2011-04-24T00:39:33Z</time>
<desc>lat.=22.326029, lon.=103.777573, Alt.=2341.158203m. Speed=3.492000m/h.</desc>
<speed>0.970000</speed>
</trkpt>
<trkpt lat="22.326019" lon="103.777512">
<ele>2340.408203</ele>
<time>2011-04-24T00:39:38Z</time>
<desc>lat.=22.326019, lon.=103.777512, Alt.=2340.408203m. Speed=3.780000m/h.</desc>
<speed>1.050000</speed>
</trkpt>
<trkpt lat="22.326019" lon="103.777466">
<ele>2339.533203</ele>
<time>2011-04-24T00:39:43Z</time>
<desc>lat.=22.326019, lon.=103.777466, Alt.=2339.533203m. Speed=1.908000m/h.</desc>
<speed>0.530000</speed>
</trkpt>
<trkpt lat="22.326019" lon="103.777412">
<ele>2338.220703</ele>
<time>2011-04-24T00:39:48Z</time>
<desc>lat.=22.326019, lon.=103.777412, Alt.=2338.220703m. Speed=2.592000m/h.</desc>
<speed>0.720000</speed>
</trkpt>
<trkpt lat="22.326054" lon="103.777344">
<ele>2336.658203</ele>
<time>2011-04-24T00:39:53Z</time>
<desc>lat.=22.326054, lon.=103.777344, Alt.=2336.658203m. Speed=5.112000m/h.</desc>
<speed>1.420000</speed>
</trkpt>
<trkpt lat="22.326086" lon="103.777283">
<ele>2336.470703</ele>
<time>2011-04-24T00:39:58Z</time>
<desc>lat.=22.326086, lon.=103.777283, Alt.=2336.470703m. Speed=3.672000m/h.</desc>
<speed>1.020000</speed>
</trkpt>
<trkpt lat="22.326126" lon="103.777229">
<ele>2334.095703</ele>
<time>2011-04-24T00:40:03Z</time>
<desc>lat.=22.326126, lon.=103.777229, Alt.=2334.095703m. Speed=4.608000m/h.</desc>
<speed>1.280000</speed>
</trkpt>
<trkpt lat="22.326145" lon="103.777191">
<ele>2332.345703</ele>
<time>2011-04-24T00:40:08Z</time>
<desc>lat.=22.326145, lon.=103.777191, Alt.=2332.345703m. Speed=4.536000m/h.</desc>
<speed>1.260000</speed>
</trkpt>
<trkpt lat="22.326185" lon="103.777153">
<ele>2330.470703</ele>
<time>2011-04-24T00:40:13Z</time>
<desc>lat.=22.326185, lon.=103.777153, Alt.=2330.470703m. Speed=3.816000m/h.</desc>
<speed>1.060000</speed>
</trkpt>
<trkpt lat="22.326214" lon="103.777130">
<ele>2329.345703</ele>
<time>2011-04-24T00:40:18Z</time>
<desc>lat.=22.326214, lon.=103.777130, Alt.=2329.345703m. Speed=3.960000m/h.</desc>
<speed>1.100000</speed>
</trkpt>
<trkpt lat="22.326244" lon="103.777092">
<ele>2328.783203</ele>
<time>2011-04-24T00:40:23Z</time>
<desc>lat.=22.326244, lon.=103.777092, Alt.=2328.783203m. Speed=4.500000m/h.</desc>
<speed>1.250000</speed>
</trkpt>
<trkpt lat="22.326267" lon="103.777031">
<ele>2328.095703</ele>
<time>2011-04-24T00:40:28Z</time>
<desc>lat.=22.326267, lon.=103.777031, Alt.=2328.095703m. Speed=5.148000m/h.</desc>
<speed>1.430000</speed>
</trkpt>
<trkpt lat="22.326284" lon="103.776955">
<ele>2328.033203</ele>
<time>2011-04-24T00:40:33Z</time>
<desc>lat.=22.326284, lon.=103.776955, Alt.=2328.033203m. Speed=4.392000m/h.</desc>
<speed>1.220000</speed>
</trkpt>
<trkpt lat="22.326321" lon="103.776894">
<ele>2329.283203</ele>
<time>2011-04-24T00:40:38Z</time>
<desc>lat.=22.326321, lon.=103.776894, Alt.=2329.283203m. Speed=5.184000m/h.</desc>
<speed>1.440000</speed>
</trkpt>
<trkpt lat="22.326349" lon="103.776848">
<ele>2331.345703</ele>
<time>2011-04-24T00:40:43Z</time>
<desc>lat.=22.326349, lon.=103.776848, Alt.=2331.345703m. Speed=4.284000m/h.</desc>
<speed>1.190000</speed>
</trkpt>
<trkpt lat="22.326370" lon="103.776817">
<ele>2333.095703</ele>
<time>2011-04-24T00:40:48Z</time>
<desc>lat.=22.326370, lon.=103.776817, Alt.=2333.095703m. Speed=2.412000m/h.</desc>
<speed>0.670000</speed>
</trkpt>
<trkpt lat="22.326399" lon="103.776817">
<ele>2335.470703</ele>
<time>2011-04-24T00:40:53Z</time>
<desc>lat.=22.326399, lon.=103.776817, Alt.=2335.470703m. Speed=2.916000m/h.</desc>
<speed>0.810000</speed>
</trkpt>
<trkpt lat="22.326429" lon="103.776794">
<ele>2336.845703</ele>
<time>2011-04-24T00:40:58Z</time>
<desc>lat.=22.326429, lon.=103.776794, Alt.=2336.845703m. Speed=2.916000m/h.</desc>
<speed>0.810000</speed>
</trkpt>
<trkpt lat="22.326466" lon="103.776787">
<ele>2337.845703</ele>
<time>2011-04-24T00:41:03Z</time>
<desc>lat.=22.326466, lon.=103.776787, Alt.=2337.845703m. Speed=2.664000m/h.</desc>
<speed>0.740000</speed>
</trkpt>
<trkpt lat="22.326496" lon="103.776779">
<ele>2339.845703</ele>
<time>2011-04-24T00:41:08Z</time>
<desc>lat.=22.326496, lon.=103.776779, Alt.=2339.845703m. Speed=3.024000m/h.</desc>
<speed>0.840000</speed>
</trkpt>
<trkpt lat="22.326530" lon="103.776779">
<ele>2341.908203</ele>
<time>2011-04-24T00:41:13Z</time>
<desc>lat.=22.326530, lon.=103.776779, Alt.=2341.908203m. Speed=3.276000m/h.</desc>
<speed>0.910000</speed>
</trkpt>
<trkpt lat="22.326563" lon="103.776779">
<ele>2343.345703</ele>
<time>2011-04-24T00:41:18Z</time>
<desc>lat.=22.326563, lon.=103.776779, Alt.=2343.345703m. Speed=3.636000m/h.</desc>
<speed>1.010000</speed>
</trkpt>
<trkpt lat="22.326597" lon="103.776779">
<ele>2344.845703</ele>
<time>2011-04-24T00:41:23Z</time>
<desc>lat.=22.326597, lon.=103.776779, Alt.=2344.845703m. Speed=3.600000m/h.</desc>
<speed>1.000000</speed>
</trkpt>
<trkpt lat="22.326633" lon="103.776787">
<ele>2346.095703</ele>
<time>2011-04-24T00:41:28Z</time>
<desc>lat.=22.326633, lon.=103.776787, Alt.=2346.095703m. Speed=2.448000m/h.</desc>
<speed>0.680000</speed>
</trkpt>
<trkpt lat="22.326653" lon="103.776779">
<ele>2346.345703</ele>
<time>2011-04-24T00:41:33Z</time>
<desc>lat.=22.326653, lon.=103.776779, Alt.=2346.345703m. Speed=1.872000m/h.</desc>
<speed>0.520000</speed>
</trkpt>
<trkpt lat="22.326662" lon="103.776741">
<ele>2345.970703</ele>
<time>2011-04-24T00:41:38Z</time>
<desc>lat.=22.326662, lon.=103.776741, Alt.=2345.970703m. Speed=3.456000m/h.</desc>
<speed>0.960000</speed>
</trkpt>
<trkpt lat="22.326689" lon="103.776718">
<ele>2347.095703</ele>
<time>2011-04-24T00:41:43Z</time>
<desc>lat.=22.326689, lon.=103.776718, Alt.=2347.095703m. Speed=2.700000m/h.</desc>
<speed>0.750000</speed>
</trkpt>
<trkpt lat="22.326706" lon="103.776695">
<ele>2348.720703</ele>
<time>2011-04-24T00:41:48Z</time>
<desc>lat.=22.326706, lon.=103.776695, Alt.=2348.720703m. Speed=3.240000m/h.</desc>
<speed>0.900000</speed>
</trkpt>
<trkpt lat="22.326746" lon="103.776665">
<ele>2349.283203</ele>
<time>2011-04-24T00:41:53Z</time>
<desc>lat.=22.326746, lon.=103.776665, Alt.=2349.283203m. Speed=3.492000m/h.</desc>
<speed>0.970000</speed>
</trkpt>
<trkpt lat="22.326788" lon="103.776649">
<ele>2350.533203</ele>
<time>2011-04-24T00:41:58Z</time>
<desc>lat.=22.326788, lon.=103.776649, Alt.=2350.533203m. Speed=3.096000m/h.</desc>
<speed>0.860000</speed>
</trkpt>
<trkpt lat="22.326820" lon="103.776627">
<ele>2350.783203</ele>
<time>2011-04-24T00:42:03Z</time>
<desc>lat.=22.326820, lon.=103.776627, Alt.=2350.783203m. Speed=3.816000m/h.</desc>
<speed>1.060000</speed>
</trkpt>
<trkpt lat="22.326845" lon="103.776596">
<ele>2351.033203</ele>
<time>2011-04-24T00:42:08Z</time>
<desc>lat.=22.326845, lon.=103.776596, Alt.=2351.033203m. Speed=2.556000m/h.</desc>
<speed>0.710000</speed>
</trkpt>
<trkpt lat="22.326859" lon="103.776558">
<ele>2351.658203</ele>
<time>2011-04-24T00:42:13Z</time>
<desc>lat.=22.326859, lon.=103.776558, Alt.=2351.658203m. Speed=4.392000m/h.</desc>
<speed>1.220000</speed>
</trkpt>
<trkpt lat="22.326899" lon="103.776512">
<ele>2351.220703</ele>
<time>2011-04-24T00:42:18Z</time>
<desc>lat.=22.326899, lon.=103.776512, Alt.=2351.220703m. Speed=3.924000m/h.</desc>
<speed>1.090000</speed>
</trkpt>
<trkpt lat="22.326923" lon="103.776474">
<ele>2351.783203</ele>
<time>2011-04-24T00:42:23Z</time>
<desc>lat.=22.326923, lon.=103.776474, Alt.=2351.783203m. Speed=4.212000m/h.</desc>
<speed>1.170000</speed>
</trkpt>
<trkpt lat="22.326939" lon="103.776436">
<ele>2351.783203</ele>
<time>2011-04-24T00:42:28Z</time>
<desc>lat.=22.326939, lon.=103.776436, Alt.=2351.783203m. Speed=3.672000m/h.</desc>
<speed>1.020000</speed>
</trkpt>
<trkpt lat="22.326941" lon="103.776398">
<ele>2351.595703</ele>
<time>2011-04-24T00:42:33Z</time>
<desc>lat.=22.326941, lon.=103.776398, Alt.=2351.595703m. Speed=3.384000m/h.</desc>
<speed>0.940000</speed>
</trkpt>
<trkpt lat="22.326935" lon="103.776352">
<ele>2350.283203</ele>
<time>2011-04-24T00:42:38Z</time>
<desc>lat.=22.326935, lon.=103.776352, Alt.=2350.283203m. Speed=1.260000m/h.</desc>
<speed>0.350000</speed>
</trkpt>
<trkpt lat="22.326929" lon="103.776306">
<ele>2348.158203</ele>
<time>2011-04-24T00:42:43Z</time>
<desc>lat.=22.326929, lon.=103.776306, Alt.=2348.158203m. Speed=5.220000m/h.</desc>
<speed>1.450000</speed>
</trkpt>
<trkpt lat="22.326921" lon="103.776268">
<ele>2347.470703</ele>
<time>2011-04-24T00:42:48Z</time>
<desc>lat.=22.326921, lon.=103.776268, Alt.=2347.470703m. Speed=2.160000m/h.</desc>
<speed>0.600000</speed>
</trkpt>
<trkpt lat="22.326918" lon="103.776215">
<ele>2346.033203</ele>
<time>2011-04-24T00:42:53Z</time>
<desc>lat.=22.326918, lon.=103.776215, Alt.=2346.033203m. Speed=4.500000m/h.</desc>
<speed>1.250000</speed>
</trkpt>
<trkpt lat="22.326910" lon="103.776161">
<ele>2346.595703</ele>
<time>2011-04-24T00:42:58Z</time>
<desc>lat.=22.326910, lon.=103.776161, Alt.=2346.595703m. Speed=3.276000m/h.</desc>
<speed>0.910000</speed>
</trkpt>
<trkpt lat="22.326910" lon="103.776115">
<ele>2346.408203</ele>
<time>2011-04-24T00:43:03Z</time>
<desc>lat.=22.326910, lon.=103.776115, Alt.=2346.408203m. Speed=3.600000m/h.</desc>
<speed>1.000000</speed>
</trkpt>
<trkpt lat="22.326927" lon="103.776047">
<ele>2345.408203</ele>
<time>2011-04-24T00:43:08Z</time>
<desc>lat.=22.326927, lon.=103.776047, Alt.=2345.408203m. Speed=4.356000m/h.</desc>
<speed>1.210000</speed>
</trkpt>
<trkpt lat="22.326883" lon="103.776009">
<ele>2344.283203</ele>
<time>2011-04-24T00:43:13Z</time>
<desc>lat.=22.326883, lon.=103.776009, Alt.=2344.283203m. Speed=3.492000m/h.</desc>
<speed>0.970000</speed>
</trkpt>
<trkpt lat="22.326872" lon="103.775970">
<ele>2343.470703</ele>
<time>2011-04-24T00:43:18Z</time>
<desc>lat.=22.326872, lon.=103.775970, Alt.=2343.470703m. Speed=3.456000m/h.</desc>
<speed>0.960000</speed>
</trkpt>
<trkpt lat="22.326897" lon="103.775902">
<ele>2343.095703</ele>
<time>2011-04-24T00:43:23Z</time>
<desc>lat.=22.326897, lon.=103.775902, Alt.=2343.095703m. Speed=5.292000m/h.</desc>
<speed>1.470000</speed>
</trkpt>
<trkpt lat="22.326906" lon="103.775833">
<ele>2343.345703</ele>
<time>2011-04-24T00:43:28Z</time>
<desc>lat.=22.326906, lon.=103.775833, Alt.=2343.345703m. Speed=4.320000m/h.</desc>
<speed>1.200000</speed>
</trkpt>
<trkpt lat="22.326910" lon="103.775772">
<ele>2343.783203</ele>
<time>2011-04-24T00:43:33Z</time>
<desc>lat.=22.326910, lon.=103.775772, Alt.=2343.783203m. Speed=4.500000m/h.</desc>
<speed>1.250000</speed>
</trkpt>
<trkpt lat="22.326923" lon="103.775742">
<ele>2344.783203</ele>
<time>2011-04-24T00:43:38Z</time>
<desc>lat.=22.326923, lon.=103.775742, Alt.=2344.783203m. Speed=2.376000m/h.</desc>
<speed>0.660000</speed>
</trkpt>
<trkpt lat="22.326918" lon="103.775711">
<ele>2346.283203</ele>
<time>2011-04-24T00:43:43Z</time>
<desc>lat.=22.326918, lon.=103.775711, Alt.=2346.283203m. Speed=3.168000m/h.</desc>
<speed>0.880000</speed>
</trkpt>
<trkpt lat="22.326908" lon="103.775681">
<ele>2347.095703</ele>
<time>2011-04-24T00:43:48Z</time>
<desc>lat.=22.326908, lon.=103.775681, Alt.=2347.095703m. Speed=3.132000m/h.</desc>
<speed>0.870000</speed>
</trkpt>
<trkpt lat="22.326904" lon="103.775642">
<ele>2348.533203</ele>
<time>2011-04-24T00:43:53Z</time>
<desc>lat.=22.326904, lon.=103.775642, Alt.=2348.533203m. Speed=1.620000m/h.</desc>
<speed>0.450000</speed>
</trkpt>
<trkpt lat="22.326895" lon="103.775604">
<ele>2349.533203</ele>
<time>2011-04-24T00:43:58Z</time>
<desc>lat.=22.326895, lon.=103.775604, Alt.=2349.533203m. Speed=3.528000m/h.</desc>
<speed>0.980000</speed>
</trkpt>
<trkpt lat="22.326906" lon="103.775558">
<ele>2350.908203</ele>
<time>2011-04-24T00:44:03Z</time>
<desc>lat.=22.326906, lon.=103.775558, Alt.=2350.908203m. Speed=2.772000m/h.</desc>
<speed>0.770000</speed>
</trkpt>
<trkpt lat="22.326929" lon="103.775513">
<ele>2351.783203</ele>
<time>2011-04-24T00:44:08Z</time>
<desc>lat.=22.326929, lon.=103.775513, Alt.=2351.783203m. Speed=3.636000m/h.</desc>
<speed>1.010000</speed>
</trkpt>
<trkpt lat="22.326942" lon="103.775459">
<ele>2351.095703</ele>
<time>2011-04-24T00:44:13Z</time>
<desc>lat.=22.326942, lon.=103.775459, Alt.=2351.095703m. Speed=4.428000m/h.</desc>
<speed>1.230000</speed>
</trkpt>
<trkpt lat="22.326946" lon="103.775406">
<ele>2350.470703</ele>
<time>2011-04-24T00:44:18Z</time>
<desc>lat.=22.326946, lon.=103.775406, Alt.=2350.470703m. Speed=3.420000m/h.</desc>
<speed>0.950000</speed>
</trkpt>
<trkpt lat="22.326960" lon="103.775368">
<ele>2351.283203</ele>
<time>2011-04-24T00:44:23Z</time>
<desc>lat.=22.326960, lon.=103.775368, Alt.=2351.283203m. Speed=2.952000m/h.</desc>
<speed>0.820000</speed>
</trkpt>
<trkpt lat="22.326952" lon="103.775345">
<ele>2351.533203</ele>
<time>2011-04-24T00:44:28Z</time>
<desc>lat.=22.326952, lon.=103.775345, Alt.=2351.533203m. Speed=2.448000m/h.</desc>
<speed>0.680000</speed>
</trkpt>
<trkpt lat="22.326962" lon="103.775307">
<ele>2352.970703</ele>
<time>2011-04-24T00:44:33Z</time>
<desc>lat.=22.326962, lon.=103.775307, Alt.=2352.970703m. Speed=2.700000m/h.</desc>
<speed>0.750000</speed>
</trkpt>
<trkpt lat="22.326952" lon="103.775269">
<ele>2354.033203</ele>
<time>2011-04-24T00:44:38Z</time>
<desc>lat.=22.326952, lon.=103.775269, Alt.=2354.033203m. Speed=2.448000m/h.</desc>
<speed>0.680000</speed>
</trkpt>
<trkpt lat="22.326963" lon="103.775223">
<ele>2354.658203</ele>
<time>2011-04-24T00:44:43Z</time>
<desc>lat.=22.326963, lon.=103.775223, Alt.=2354.658203m. Speed=3.240000m/h.</desc>
<speed>0.900000</speed>
</trkpt>
<trkpt lat="22.326994" lon="103.775185">
<ele>2356.033203</ele>
<time>2011-04-24T00:44:48Z</time>
<desc>lat.=22.326994, lon.=103.775185, Alt.=2356.033203m. Speed=4.176000m/h.</desc>
<speed>1.160000</speed>
</trkpt>
<trkpt lat="22.327024" lon="103.775162">
<ele>2357.095703</ele>
<time>2011-04-24T00:44:53Z</time>
<desc>lat.=22.327024, lon.=103.775162, Alt.=2357.095703m. Speed=0.864000m/h.</desc>
<speed>0.240000</speed>
</trkpt>
<trkpt lat="22.327026" lon="103.775139">
<ele>2357.658203</ele>
<time>2011-04-24T00:44:58Z</time>
<desc>lat.=22.327026, lon.=103.775139, Alt.=2357.658203m. Speed=2.016000m/h.</desc>
<speed>0.560000</speed>
</trkpt>
<trkpt lat="22.327013" lon="103.775101">
<ele>2358.408203</ele>
<time>2011-04-24T00:45:03Z</time>
<desc>lat.=22.327013, lon.=103.775101, Alt.=2358.408203m. Speed=2.484000m/h.</desc>
<speed>0.690000</speed>
</trkpt>
<trkpt lat="22.327009" lon="103.775070">
<ele>2359.658203</ele>
<time>2011-04-24T00:45:08Z</time>
<desc>lat.=22.327009, lon.=103.775070, Alt.=2359.658203m. Speed=2.340000m/h.</desc>
<speed>0.650000</speed>
</trkpt>
<trkpt lat="22.327015" lon="103.775047">
<ele>2360.658203</ele>
<time>2011-04-24T00:45:13Z</time>
<desc>lat.=22.327015, lon.=103.775047, Alt.=2360.658203m. Speed=2.844000m/h.</desc>
<speed>0.790000</speed>
</trkpt>
<trkpt lat="22.327009" lon="103.775032">
<ele>2361.783203</ele>
<time>2011-04-24T00:45:18Z</time>
<desc>lat.=22.327009, lon.=103.775032, Alt.=2361.783203m. Speed=1.440000m/h.</desc>
<speed>0.400000</speed>
</trkpt>
<trkpt lat="22.327005" lon="103.775009">
<ele>2361.033203</ele>
<time>2011-04-24T00:45:23Z</time>
<desc>lat.=22.327005, lon.=103.775009, Alt.=2361.033203m. Speed=1.836000m/h.</desc>
<speed>0.510000</speed>
</trkpt>
<trkpt lat="22.326994" lon="103.774971">
<ele>2362.470703</ele>
<time>2011-04-24T00:45:28Z</time>
<desc>lat.=22.326994, lon.=103.774971, Alt.=2362.470703m. Speed=2.988000m/h.</desc>
<speed>0.830000</speed>
</trkpt>
<trkpt lat="22.327000" lon="103.774933">
<ele>2363.470703</ele>
<time>2011-04-24T00:45:33Z</time>
<desc>lat.=22.327000, lon.=103.774933, Alt.=2363.470703m. Speed=2.448000m/h.</desc>
<speed>0.680000</speed>
</trkpt>
<trkpt lat="22.327000" lon="103.774902">
<ele>2363.845703</ele>
<time>2011-04-24T00:45:38Z</time>
<desc>lat.=22.327000, lon.=103.774902, Alt.=2363.845703m. Speed=3.528000m/h.</desc>
<speed>0.980000</speed>
</trkpt>
<trkpt lat="22.326998" lon="103.774857">
<ele>2364.595703</ele>
<time>2011-04-24T00:45:43Z</time>
<desc>lat.=22.326998, lon.=103.774857, Alt.=2364.595703m. Speed=2.520000m/h.</desc>
<speed>0.700000</speed>
</trkpt>
<trkpt lat="22.327000" lon="103.774849">
<ele>2364.720703</ele>
<time>2011-04-24T00:45:48Z</time>
<desc>lat.=22.327000, lon.=103.774849, Alt.=2364.720703m. Speed=0.144000m/h.</desc>
<speed>0.040000</speed>
</trkpt>
<trkpt lat="22.326996" lon="103.774834">
<ele>2365.033203</ele>
<time>2011-04-24T00:45:53Z</time>
<desc>lat.=22.326996, lon.=103.774834, Alt.=2365.033203m. Speed=2.700000m/h.</desc>
<speed>0.750000</speed>
</trkpt>
<trkpt lat="22.327005" lon="103.774796">
<ele>2365.408203</ele>
<time>2011-04-24T00:45:58Z</time>
<desc>lat.=22.327005, lon.=103.774796, Alt.=2365.408203m. Speed=2.376000m/h.</desc>
<speed>0.660000</speed>
</trkpt>
<trkpt lat="22.327015" lon="103.774757">
<ele>2365.095703</ele>
<time>2011-04-24T00:46:03Z</time>
<desc>lat.=22.327015, lon.=103.774757, Alt.=2365.095703m. Speed=1.044000m/h.</desc>
<speed>0.290000</speed>
</trkpt>
<trkpt lat="22.327013" lon="103.774765">
<ele>2364.970703</ele>
<time>2011-04-24T00:46:08Z</time>
<desc>lat.=22.327013, lon.=103.774765, Alt.=2364.970703m. Speed=0.576000m/h.</desc>
<speed>0.160000</speed>
</trkpt>
<trkpt lat="22.327015" lon="103.774765">
<ele>2365.158203</ele>
<time>2011-04-24T00:46:13Z</time>
<desc>lat.=22.327015, lon.=103.774765, Alt.=2365.158203m. Speed=1.656000m/h.</desc>
<speed>0.460000</speed>
</trkpt>
<trkpt lat="22.327019" lon="103.774757">
<ele>2365.783203</ele>
<time>2011-04-24T00:46:18Z</time>
<desc>lat.=22.327019, lon.=103.774757, Alt.=2365.783203m. Speed=0.108000m/h.</desc>
<speed>0.030000</speed>
</trkpt>
<trkpt lat="22.327019" lon="103.774757">
<ele>2365.908203</ele>
<time>2011-04-24T00:46:23Z</time>
<desc>lat.=22.327019, lon.=103.774757, Alt.=2365.908203m. Speed=0.072000m/h.</desc>
<speed>0.020000</speed>
</trkpt>
<trkpt lat="22.327017" lon="103.774757">
<ele>2365.970703</ele>
<time>2011-04-24T00:46:28Z</time>
<desc>lat.=22.327017, lon.=103.774757, Alt.=2365.970703m. Speed=0.036000m/h.</desc>
<speed>0.010000</speed>
</trkpt>
<trkpt lat="22.327017" lon="103.774757">
<ele>2365.970703</ele>
<time>2011-04-24T00:46:33Z</time>
<desc>lat.=22.327017, lon.=103.774757, Alt.=2365.970703m. Speed=0.000000m/h.</desc>
<speed>0.000000</speed>
</trkpt>
<trkpt lat="22.327017" lon="103.774757">
<ele>2366.033203</ele>
<time>2011-04-24T00:46:38Z</time>
<desc>lat.=22.327017, lon.=103.774757, Alt.=2366.033203m. Speed=0.036000m/h.</desc>
<speed>0.010000</speed>
</trkpt>
<trkpt lat="22.327017" lon="103.774757">
<ele>2366.033203</ele>
<time>2011-04-24T00:46:43Z</time>
<desc>lat.=22.327017, lon.=103.774757, Alt.=2366.033203m. Speed=0.036000m/h.</desc>
<speed>0.010000</speed>
</trkpt>
<trkpt lat="22.327017" lon="103.774757">
<ele>2366.033203</ele>
<time>2011-04-24T00:46:48Z</time>
<desc>lat.=22.327017, lon.=103.774757, Alt.=2366.033203m. Speed=0.036000m/h.</desc>
<speed>0.010000</speed>
</trkpt>
<trkpt lat="22.327017" lon="103.774757">
<ele>2366.095703</ele>
<time>2011-04-24T00:46:53Z</time>
<desc>lat.=22.327017, lon.=103.774757, Alt.=2366.095703m. Speed=0.036000m/h.</desc>
<speed>0.010000</speed>
</trkpt>
<trkpt lat="22.327017" lon="103.774757">
<ele>2366.095703</ele>
<time>2011-04-24T00:46:58Z</time>
<desc>lat.=22.327017, lon.=103.774757, Alt.=2366.095703m. Speed=0.000000m/h.</desc>
<speed>0.000000</speed>
</trkpt>
<trkpt lat="22.327017" lon="103.774757">
<ele>2366.095703</ele>
<time>2011-04-24T00:47:03Z</time>
<desc>lat.=22.327017, lon.=103.774757, Alt.=2366.095703m. Speed=0.036000m/h.</desc>
<speed>0.010000</speed>
</trkpt>
<trkpt lat="22.327017" lon="103.774757">
<ele>2366.095703</ele>
<time>2011-04-24T00:47:08Z</time>
<desc>lat.=22.327017, lon.=103.774757, Alt.=2366.095703m. Speed=0.036000m/h.</desc>
<speed>0.010000</speed>
</trkpt>
<trkpt lat="22.327017" lon="103.774757">
<ele>2366.158203</ele>
<time>2011-04-24T00:47:13Z</time>
<desc>lat.=22.327017, lon.=103.774757, Alt.=2366.158203m. Speed=0.036000m/h.</desc>
<speed>0.010000</speed>
</trkpt>
<trkpt lat="22.327017" lon="103.774757">
<ele>2366.158203</ele>
<time>2011-04-24T00:47:18Z</time>
<desc>lat.=22.327017, lon.=103.774757, Alt.=2366.158203m. Speed=0.036000m/h.</desc>
<speed>0.010000</speed>
</trkpt>
<trkpt lat="22.327017" lon="103.774757">
<ele>2366.158203</ele>
<time>2011-04-24T00:47:23Z</time>
<desc>lat.=22.327017, lon.=103.774757, Alt.=2366.158203m. Speed=0.000000m/h.</desc>
<speed>0.000000</speed>
</trkpt>
<trkpt lat="22.327017" lon="103.774757">
<ele>2366.158203</ele>
<time>2011-04-24T00:47:28Z</time>
<desc>lat.=22.327017, lon.=103.774757, Alt.=2366.158203m. Speed=0.036000m/h.</desc>
<speed>0.010000</speed>
</trkpt>
<trkpt lat="22.327017" lon="103.774757">
<ele>2366.158203</ele>
<time>2011-04-24T00:47:33Z</time>
<desc>lat.=22.327017, lon.=103.774757, Alt.=2366.158203m. Speed=0.000000m/h.</desc>
<speed>0.000000</speed>
</trkpt>
<trkpt lat="22.327017" lon="103.774757">
<ele>2366.158203</ele>
<time>2011-04-24T00:47:38Z</time>
<desc>lat.=22.327017, lon.=103.774757, Alt.=2366.158203m. Speed=0.036000m/h.</desc>
<speed>0.010000</speed>
</trkpt>
<trkpt lat="22.327017" lon="103.774757">
<ele>2366.158203</ele>
<time>2011-04-24T00:47:43Z</time>
<desc>lat.=22.327017, lon.=103.774757, Alt.=2366.158203m. Speed=0.036000m/h.</desc>
<speed>0.010000</speed>
</trkpt>
<trkpt lat="22.327017" lon="103.774757">
<ele>2366.158203</ele>
<time>2011-04-24T00:47:48Z</time>
<desc>lat.=22.327017, lon.=103.774757, Alt.=2366.158203m. Speed=0.000000m/h.</desc>
<speed>0.000000</speed>
</trkpt>
<trkpt lat="22.327019" lon="103.774757">
<ele>2366.158203</ele>
<time>2011-04-24T00:47:53Z</time>
<desc>lat.=22.327019, lon.=103.774757, Alt.=2366.158203m. Speed=0.072000m/h.</desc>
<speed>0.020000</speed>
</trkpt>
<trkpt lat="22.327019" lon="103.774757">
<ele>2366.158203</ele>
<time>2011-04-24T00:47:58Z</time>
<desc>lat.=22.327019, lon.=103.774757, Alt.=2366.158203m. Speed=0.180000m/h.</desc>
<speed>0.050000</speed>
</trkpt>
<trkpt lat="22.327017" lon="103.774757">
<ele>2366.158203</ele>
<time>2011-04-24T00:48:03Z</time>
<desc>lat.=22.327017, lon.=103.774757, Alt.=2366.158203m. Speed=0.108000m/h.</desc>
<speed>0.030000</speed>
</trkpt>
<trkpt lat="22.327017" lon="103.774757">
<ele>2366.158203</ele>
<time>2011-04-24T00:48:08Z</time>
<desc>lat.=22.327017, lon.=103.774757, Alt.=2366.158203m. Speed=0.072000m/h.</desc>
<speed>0.020000</speed>
</trkpt>
<trkpt lat="22.327017" lon="103.774757">
<ele>2366.158203</ele>
<time>2011-04-24T00:48:13Z</time>
<desc>lat.=22.327017, lon.=103.774757, Alt.=2366.158203m. Speed=0.000000m/h.</desc>
<speed>0.000000</speed>
</trkpt>
<trkpt lat="22.327017" lon="103.774757">
<ele>2366.158203</ele>
<time>2011-04-24T00:48:18Z</time>
<desc>lat.=22.327017, lon.=103.774757, Alt.=2366.158203m. Speed=0.000000m/h.</desc>
<speed>0.000000</speed>
</trkpt>
<trkpt lat="22.327017" lon="103.774757">
<ele>2366.158203</ele>
<time>2011-04-24T00:48:23Z</time>
<desc>lat.=22.327017, lon.=103.774757, Alt.=2366.158203m. Speed=0.000000m/h.</desc>
<speed>0.000000</speed>
</trkpt>
<trkpt lat="22.327017" lon="103.774757">
<ele>2366.158203</ele>
<time>2011-04-24T00:48:28Z</time>
<desc>lat.=22.327017, lon.=103.774757, Alt.=2366.158203m. Speed=0.000000m/h.</desc>
<speed>0.000000</speed>
</trkpt>
<trkpt lat="22.327017" lon="103.774757">
<ele>2366.158203</ele>
<time>2011-04-24T00:48:33Z</time>
<desc>lat.=22.327017, lon.=103.774757, Alt.=2366.158203m. Speed=0.000000m/h.</desc>
<speed>0.000000</speed>
</trkpt>
<trkpt lat="22.327017" lon="103.774757">
<ele>2366.158203</ele>
<time>2011-04-24T00:48:38Z</time>
<desc>lat.=22.327017, lon.=103.774757, Alt.=2366.158203m. Speed=0.288000m/h.</desc>
<speed>0.080000</speed>
</trkpt>
<trkpt lat="22.327017" lon="103.774757">
<ele>2366.158203</ele>
<time>2011-04-24T00:48:43Z</time>
<desc>lat.=22.327017, lon.=103.774757, Alt.=2366.158203m. Speed=0.036000m/h.</desc>
<speed>0.010000</speed>
</trkpt>
<trkpt lat="22.327017" lon="103.774757">
<ele>2366.158203</ele>
<time>2011-04-24T00:48:48Z</time>
<desc>lat.=22.327017, lon.=103.774757, Alt.=2366.158203m. Speed=0.000000m/h.</desc>
<speed>0.000000</speed>
</trkpt>
<trkpt lat="22.327017" lon="103.774757">
<ele>2366.158203</ele>
<time>2011-04-24T00:48:53Z</time>
<desc>lat.=22.327017, lon.=103.774757, Alt.=2366.158203m. Speed=0.000000m/h.</desc>
<speed>0.000000</speed>
</trkpt>
<trkpt lat="22.327017" lon="103.774757">
<ele>2366.220703</ele>
<time>2011-04-24T00:48:58Z</time>
<desc>lat.=22.327017, lon.=103.774757, Alt.=2366.220703m. Speed=0.000000m/h.</desc>
<speed>0.000000</speed>
</trkpt>
<trkpt lat="22.327017" lon="103.774757">
<ele>2366.220703</ele>
<time>2011-04-24T00:49:03Z</time>
<desc>lat.=22.327017, lon.=103.774757, Alt.=2366.220703m. Speed=0.072000m/h.</desc>
<speed>0.020000</speed>
</trkpt>
<trkpt lat="22.327017" lon="103.774757">
<ele>2366.220703</ele>
<time>2011-04-24T00:49:08Z</time>
<desc>lat.=22.327017, lon.=103.774757, Alt.=2366.220703m. Speed=0.000000m/h.</desc>
<speed>0.000000</speed>
</trkpt>
<trkpt lat="22.327017" lon="103.774757">
<ele>2366.220703</ele>
<time>2011-04-24T00:49:13Z</time>
<desc>lat.=22.327017, lon.=103.774757, Alt.=2366.220703m. Speed=0.036000m/h.</desc>
<speed>0.010000</speed>
</trkpt>
<trkpt lat="22.327017" lon="103.774757">
<ele>2366.220703</ele>
<time>2011-04-24T00:49:18Z</time>
<desc>lat.=22.327017, lon.=103.774757, Alt.=2366.220703m. Speed=0.000000m/h.</desc>
<speed>0.000000</speed>
</trkpt>
<trkpt lat="22.327017" lon="103.774757">
<ele>2366.220703</ele>
<time>2011-04-24T00:49:23Z</time>
<desc>lat.=22.327017, lon.=103.774757, Alt.=2366.220703m. Speed=0.036000m/h.</desc>
<speed>0.010000</speed>
</trkpt>
<trkpt lat="22.327017" lon="103.774757">
<ele>2366.220703</ele>
<time>2011-04-24T00:49:28Z</time>
<desc>lat.=22.327017, lon.=103.774757, Alt.=2366.220703m. Speed=0.036000m/h.</desc>
<speed>0.010000</speed>
</trkpt>
<trkpt lat="22.327017" lon="103.774757">
<ele>2366.220703</ele>
<time>2011-04-24T00:49:33Z</time>
<desc>lat.=22.327017, lon.=103.774757, Alt.=2366.220703m. Speed=0.000000m/h.</desc>
<speed>0.000000</speed>
</trkpt>
<trkpt lat="22.327017" lon="103.774757">
<ele>2366.220703</ele>
<time>2011-04-24T00:49:38Z</time>
<desc>lat.=22.327017, lon.=103.774757, Alt.=2366.220703m. Speed=0.072000m/h.</desc>
<speed>0.020000</speed>
</trkpt>
<trkpt lat="22.327017" lon="103.774757">
<ele>2366.220703</ele>
<time>2011-04-24T00:49:43Z</time>
<desc>lat.=22.327017, lon.=103.774757, Alt.=2366.220703m. Speed=0.036000m/h.</desc>
<speed>0.010000</speed>
</trkpt>
<trkpt lat="22.327017" lon="103.774757">
<ele>2366.220703</ele>
<time>2011-04-24T00:49:48Z</time>
<desc>lat.=22.327017, lon.=103.774757, Alt.=2366.220703m. Speed=0.108000m/h.</desc>
<speed>0.030000</speed>
</trkpt>
<trkpt lat="22.327017" lon="103.774757">
<ele>2366.220703</ele>
<time>2011-04-24T00:49:53Z</time>
<desc>lat.=22.327017, lon.=103.774757, Alt.=2366.220703m. Speed=0.000000m/h.</desc>
<speed>0.000000</speed>
</trkpt>
<trkpt lat="22.327017" lon="103.774757">
<ele>2366.283203</ele>
<time>2011-04-24T00:49:58Z</time>
<desc>lat.=22.327017, lon.=103.774757, Alt.=2366.283203m. Speed=0.000000m/h.</desc>
<speed>0.000000</speed>
</trkpt>
<trkpt lat="22.327017" lon="103.774757">
<ele>2366.283203</ele>
<time>2011-04-24T00:50:03Z</time>
<desc>lat.=22.327017, lon.=103.774757, Alt.=2366.283203m. Speed=0.000000m/h.</desc>
<speed>0.000000</speed>
</trkpt>
<trkpt lat="22.327017" lon="103.774757">
<ele>2366.283203</ele>
<time>2011-04-24T00:50:08Z</time>
<desc>lat.=22.327017, lon.=103.774757, Alt.=2366.283203m. Speed=0.036000m/h.</desc>
<speed>0.010000</speed>
</trkpt>
<trkpt lat="22.327017" lon="103.774757">
<ele>2366.345703</ele>
<time>2011-04-24T00:50:13Z</time>
<desc>lat.=22.327017, lon.=103.774757, Alt.=2366.345703m. Speed=0.000000m/h.</desc>
<speed>0.000000</speed>
</trkpt>
<trkpt lat="22.327017" lon="103.774757">
<ele>2366.345703</ele>
<time>2011-04-24T00:50:18Z</time>
<desc>lat.=22.327017, lon.=103.774757, Alt.=2366.345703m. Speed=0.000000m/h.</desc>
<speed>0.000000</speed>
</trkpt>
<trkpt lat="22.327017" lon="103.774757">
<ele>2366.345703</ele>
<time>2011-04-24T00:50:23Z</time>
<desc>lat.=22.327017, lon.=103.774757, Alt.=2366.345703m. Speed=0.000000m/h.</desc>
<speed>0.000000</speed>
</trkpt>
<trkpt lat="22.327017" lon="103.774757">
<ele>2366.345703</ele>
<time>2011-04-24T00:50:28Z</time>
<desc>lat.=22.327017, lon.=103.774757, Alt.=2366.345703m. Speed=0.036000m/h.</desc>
<speed>0.010000</speed>
</trkpt>
<trkpt lat="22.327017" lon="103.774757">
<ele>2366.345703</ele>
<time>2011-04-24T00:50:33Z</time>
<desc>lat.=22.327017, lon.=103.774757, Alt.=2366.345703m. Speed=0.000000m/h.</desc>
<speed>0.000000</speed>
</trkpt>
<trkpt lat="22.327017" lon="103.774757">
<ele>2366.345703</ele>
<time>2011-04-24T00:50:38Z</time>
<desc>lat.=22.327017, lon.=103.774757, Alt.=2366.345703m. Speed=0.036000m/h.</desc>
<speed>0.010000</speed>
</trkpt>
<trkpt lat="22.327017" lon="103.774750">
<ele>2366.345703</ele>
<time>2011-04-24T00:50:43Z</time>
<desc>lat.=22.327017, lon.=103.774750, Alt.=2366.345703m. Speed=0.000000m/h.</desc>
<speed>0.000000</speed>
</trkpt>
<trkpt lat="22.327017" lon="103.774750">
<ele>2366.345703</ele>
<time>2011-04-24T00:50:48Z</time>
<desc>lat.=22.327017, lon.=103.774750, Alt.=2366.345703m. Speed=0.036000m/h.</desc>
<speed>0.010000</speed>
</trkpt>
<trkpt lat="22.327017" lon="103.774750">
<ele>2366.345703</ele>
<time>2011-04-24T00:50:53Z</time>
<desc>lat.=22.327017, lon.=103.774750, Alt.=2366.345703m. Speed=0.036000m/h.</desc>
<speed>0.010000</speed>
</trkpt>
<trkpt lat="22.327017" lon="103.774750">
<ele>2366.345703</ele>
<time>2011-04-24T00:50:58Z</time>
<desc>lat.=22.327017, lon.=103.774750, Alt.=2366.345703m. Speed=0.000000m/h.</desc>
<speed>0.000000</speed>
</trkpt>
<trkpt lat="22.327017" lon="103.774750">
<ele>2366.408203</ele>
<time>2011-04-24T00:51:03Z</time>
<desc>lat.=22.327017, lon.=103.774750, Alt.=2366.408203m. Speed=0.252000m/h.</desc>
<speed>0.070000</speed>
</trkpt>
<trkpt lat="22.327017" lon="103.774750">
<ele>2366.345703</ele>
<time>2011-04-24T00:51:08Z</time>
<desc>lat.=22.327017, lon.=103.774750, Alt.=2366.345703m. Speed=0.036000m/h.</desc>
<speed>0.010000</speed>
</trkpt>
<trkpt lat="22.327017" lon="103.774750">
<ele>2366.408203</ele>
<time>2011-04-24T00:51:13Z</time>
<desc>lat.=22.327017, lon.=103.774750, Alt.=2366.408203m. Speed=0.000000m/h.</desc>
<speed>0.000000</speed>
</trkpt>
<trkpt lat="22.327017" lon="103.774750">
<ele>2366.408203</ele>
<time>2011-04-24T00:51:18Z</time>
<desc>lat.=22.327017, lon.=103.774750, Alt.=2366.408203m. Speed=0.000000m/h.</desc>
<speed>0.000000</speed>
</trkpt>
<trkpt lat="22.327017" lon="103.774750">
<ele>2366.408203</ele>
<time>2011-04-24T00:51:23Z</time>
<desc>lat.=22.327017, lon.=103.774750, Alt.=2366.408203m. Speed=0.000000m/h.</desc>
<speed>0.000000</speed>
</trkpt>
<trkpt lat="22.327017" lon="103.774750">
<ele>2366.408203</ele>
<time>2011-04-24T00:51:28Z</time>
<desc>lat.=22.327017, lon.=103.774750, Alt.=2366.408203m. Speed=0.000000m/h.</desc>
<speed>0.000000</speed>
</trkpt>
<trkpt lat="22.327017" lon="103.774750">
<ele>2366.408203</ele>
<time>2011-04-24T00:51:33Z</time>
<desc>lat.=22.327017, lon.=103.774750, Alt.=2366.408203m. Speed=0.000000m/h.</desc>
<speed>0.000000</speed>
</trkpt>
<trkpt lat="22.327017" lon="103.774750">
<ele>2366.408203</ele>
<time>2011-04-24T00:51:38Z</time>
<desc>lat.=22.327017, lon.=103.774750, Alt.=2366.408203m. Speed=0.000000m/h.</desc>
<speed>0.000000</speed>
</trkpt>
<trkpt lat="22.327017" lon="103.774750">
<ele>2366.408203</ele>
<time>2011-04-24T00:51:43Z</time>
<desc>lat.=22.327017, lon.=103.774750, Alt.=2366.408203m. Speed=0.000000m/h.</desc>
<speed>0.000000</speed>
</trkpt>
<trkpt lat="22.327017" lon="103.774750">
<ele>2366.408203</ele>
<time>2011-04-24T00:51:48Z</time>
<desc>lat.=22.327017, lon.=103.774750, Alt.=2366.408203m. Speed=0.000000m/h.</desc>
<speed>0.000000</speed>
</trkpt>
<trkpt lat="22.327017" lon="103.774750">
<ele>2366.408203</ele>
<time>2011-04-24T00:51:53Z</time>
<desc>lat.=22.327017, lon.=103.774750, Alt.=2366.408203m. Speed=0.000000m/h.</desc>
<speed>0.000000</speed>
</trkpt>
<trkpt lat="22.327017" lon="103.774750">
<ele>2366.408203</ele>
<time>2011-04-24T00:51:58Z</time>
<desc>lat.=22.327017, lon.=103.774750, Alt.=2366.408203m. Speed=0.000000m/h.</desc>
<speed>0.000000</speed>
</trkpt>
<trkpt lat="22.327017" lon="103.774750">
<ele>2366.408203</ele>
<time>2011-04-24T00:52:03Z</time>
<desc>lat.=22.327017, lon.=103.774750, Alt.=2366.408203m. Speed=0.000000m/h.</desc>
<speed>0.000000</speed>
</trkpt>
<trkpt lat="22.327017" lon="103.774750">
<ele>2366.408203</ele>
<time>2011-04-24T00:52:08Z</time>
<desc>lat.=22.327017, lon.=103.774750, Alt.=2366.408203m. Speed=0.036000m/h.</desc>
<speed>0.010000</speed>
</trkpt>
<trkpt lat="22.327017" lon="103.774750">
<ele>2366.408203</ele>
<time>2011-04-24T00:52:13Z</time>
<desc>lat.=22.327017, lon.=103.774750, Alt.=2366.408203m. Speed=0.144000m/h.</desc>
<speed>0.040000</speed>
</trkpt>
<trkpt lat="22.327017" lon="103.774750">
<ele>2366.408203</ele>
<time>2011-04-24T00:52:18Z</time>
<desc>lat.=22.327017, lon.=103.774750, Alt.=2366.408203m. Speed=0.036000m/h.</desc>
<speed>0.010000</speed>
</trkpt>
<trkpt lat="22.327017" lon="103.774750">
<ele>2366.408203</ele>
<time>2011-04-24T00:52:23Z</time>
<desc>lat.=22.327017, lon.=103.774750, Alt.=2366.408203m. Speed=0.072000m/h.</desc>
<speed>0.020000</speed>
</trkpt>
<trkpt lat="22.327015" lon="103.774750">
<ele>2366.408203</ele>
<time>2011-04-24T00:52:28Z</time>
<desc>lat.=22.327015, lon.=103.774750, Alt.=2366.408203m. Speed=0.036000m/h.</desc>
<speed>0.010000</speed>
</trkpt>
<trkpt lat="22.327015" lon="103.774750">
<ele>2366.408203</ele>
<time>2011-04-24T00:52:33Z</time>
<desc>lat.=22.327015, lon.=103.774750, Alt.=2366.408203m. Speed=0.000000m/h.</desc>
<speed>0.000000</speed>
</trkpt>
<trkpt lat="22.327015" lon="103.774750">
<ele>2366.408203</ele>
<time>2011-04-24T00:52:38Z</time>
<desc>lat.=22.327015, lon.=103.774750, Alt.=2366.408203m. Speed=0.000000m/h.</desc>
<speed>0.000000</speed>
</trkpt>
<trkpt lat="22.327015" lon="103.774750">
<ele>2366.470703</ele>
<time>2011-04-24T00:52:43Z</time>
<desc>lat.=22.327015, lon.=103.774750, Alt.=2366.470703m. Speed=0.000000m/h.</desc>
<speed>0.000000</speed>
</trkpt>
<trkpt lat="22.327017" lon="103.774750">
<ele>2366.408203</ele>
<time>2011-04-24T00:52:48Z</time>
<desc>lat.=22.327017, lon.=103.774750, Alt.=2366.408203m. Speed=0.036000m/h.</desc>
<speed>0.010000</speed>
</trkpt>
<trkpt lat="22.327017" lon="103.774750">
<ele>2366.408203</ele>
<time>2011-04-24T00:52:53Z</time>
<desc>lat.=22.327017, lon.=103.774750, Alt.=2366.408203m. Speed=0.000000m/h.</desc>
<speed>0.000000</speed>
</trkpt>
<trkpt lat="22.327017" lon="103.774750">
<ele>2366.408203</ele>
<time>2011-04-24T00:52:58Z</time>
<desc>lat.=22.327017, lon.=103.774750, Alt.=2366.408203m. Speed=0.036000m/h.</desc>
<speed>0.010000</speed>
</trkpt>
<trkpt lat="22.327017" lon="103.774750">
<ele>2366.408203</ele>
<time>2011-04-24T00:53:03Z</time>
<desc>lat.=22.327017, lon.=103.774750, Alt.=2366.408203m. Speed=0.000000m/h.</desc>
<speed>0.000000</speed>
</trkpt>
<trkpt lat="22.327017" lon="103.774750">
<ele>2366.408203</ele>
<time>2011-04-24T00:53:08Z</time>
<desc>lat.=22.327017, lon.=103.774750, Alt.=2366.408203m. Speed=0.000000m/h.</desc>
<speed>0.000000</speed>
</trkpt>
<trkpt lat="22.327017" lon="103.774750">
<ele>2366.345703</ele>
<time>2011-04-24T00:53:13Z</time>
<desc>lat.=22.327017, lon.=103.774750, Alt.=2366.345703m. Speed=0.000000m/h.</desc>
<speed>0.000000</speed>
</trkpt>
<trkpt lat="22.327017" lon="103.774750">
<ele>2366.345703</ele>
<time>2011-04-24T00:53:18Z</time>
<desc>lat.=22.327017, lon.=103.774750, Alt.=2366.345703m. Speed=0.000000m/h.</desc>
<speed>0.000000</speed>
</trkpt>
<trkpt lat="22.327017" lon="103.774750">
<ele>2366.345703</ele>
<time>2011-04-24T00:53:23Z</time>
<desc>lat.=22.327017, lon.=103.774750, Alt.=2366.345703m. Speed=0.036000m/h.</desc>
<speed>0.010000</speed>
</trkpt>
<trkpt lat="22.327017" lon="103.774750">
<ele>2366.283203</ele>
<time>2011-04-24T00:53:28Z</time>
<desc>lat.=22.327017, lon.=103.774750, Alt.=2366.283203m. Speed=0.000000m/h.</desc>
<speed>0.000000</speed>
</trkpt>
<trkpt lat="22.327017" lon="103.774750">
<ele>2366.283203</ele>
<time>2011-04-24T00:53:33Z</time>
<desc>lat.=22.327017, lon.=103.774750, Alt.=2366.283203m. Speed=0.000000m/h.</desc>
<speed>0.000000</speed>
</trkpt>
<trkpt lat="22.327017" lon="103.774750">
<ele>2366.283203</ele>
<time>2011-04-24T00:53:38Z</time>
<desc>lat.=22.327017, lon.=103.774750, Alt.=2366.283203m. Speed=0.000000m/h.</desc>
<speed>0.000000</speed>
</trkpt>
<trkpt lat="22.327017" lon="103.774750">
<ele>2366.283203</ele>
<time>2011-04-24T00:53:43Z</time>
<desc>lat.=22.327017, lon.=103.774750, Alt.=2366.283203m. Speed=0.000000m/h.</desc>
<speed>0.000000</speed>
</trkpt>
<trkpt lat="22.327017" lon="103.774750">
<ele>2366.283203</ele>
<time>2011-04-24T00:53:48Z</time>
<desc>lat.=22.327017, lon.=103.774750, Alt.=2366.283203m. Speed=0.000000m/h.</desc>
<speed>0.000000</speed>
</trkpt>
<trkpt lat="22.327017" lon="103.774750">
<ele>2366.283203</ele>
<time>2011-04-24T00:53:53Z</time>
<desc>lat.=22.327017, lon.=103.774750, Alt.=2366.283203m. Speed=0.000000m/h.</desc>
<speed>0.000000</speed>
</trkpt>
<trkpt lat="22.327017" lon="103.774750">
<ele>2366.283203</ele>
<time>2011-04-24T00:53:58Z</time>
<desc>lat.=22.327017, lon.=103.774750, Alt.=2366.283203m. Speed=0.036000m/h.</desc>
<speed>0.010000</speed>
</trkpt>
<trkpt lat="22.327017" lon="103.774750">
<ele>2366.220703</ele>
<time>2011-04-24T00:54:03Z</time>
<desc>lat.=22.327017, lon.=103.774750, Alt.=2366.220703m. Speed=0.000000m/h.</desc>
<speed>0.000000</speed>
</trkpt>
<trkpt lat="22.327017" lon="103.774750">
<ele>2366.220703</ele>
<time>2011-04-24T00:54:08Z</time>
<desc>lat.=22.327017, lon.=103.774750, Alt.=2366.220703m. Speed=0.036000m/h.</desc>
<speed>0.010000</speed>
</trkpt>
<trkpt lat="22.327017" lon="103.774750">
<ele>2366.220703</ele>
<time>2011-04-24T00:54:13Z</time>
<desc>lat.=22.327017, lon.=103.774750, Alt.=2366.220703m. Speed=0.000000m/h.</desc>
<speed>0.000000</speed>
</trkpt>
<trkpt lat="22.327017" lon="103.774750">
<ele>2366.220703</ele>
<time>2011-04-24T00:54:18Z</time>
<desc>lat.=22.327017, lon.=103.774750, Alt.=2366.220703m. Speed=0.036000m/h.</desc>
<speed>0.010000</speed>
</trkpt>
<trkpt lat="22.327017" lon="103.774750">
<ele>2366.220703</ele>
<time>2011-04-24T00:54:23Z</time>
<desc>lat.=22.327017, lon.=103.774750, Alt.=2366.220703m. Speed=0.036000m/h.</desc>
<speed>0.010000</speed>
</trkpt>
<trkpt lat="22.327017" lon="103.774750">
<ele>2366.220703</ele>
<time>2011-04-24T00:54:28Z</time>
<desc>lat.=22.327017, lon.=103.774750, Alt.=2366.220703m. Speed=0.000000m/h.</desc>
<speed>0.000000</speed>
</trkpt>
<trkpt lat="22.327017" lon="103.774750">
<ele>2366.220703</ele>
<time>2011-04-24T00:54:33Z</time>
<desc>lat.=22.327017, lon.=103.774750, Alt.=2366.220703m. Speed=0.000000m/h.</desc>
<speed>0.000000</speed>
</trkpt>
<trkpt lat="22.327017" lon="103.774750">
<ele>2366.158203</ele>
<time>2011-04-24T00:54:38Z</time>
<desc>lat.=22.327017, lon.=103.774750, Alt.=2366.158203m. Speed=0.000000m/h.</desc>
<speed>0.000000</speed>
</trkpt>
<trkpt lat="22.327017" lon="103.774750">
<ele>2366.158203</ele>
<time>2011-04-24T00:54:43Z</time>
<desc>lat.=22.327017, lon.=103.774750, Alt.=2366.158203m. Speed=0.036000m/h.</desc>
<speed>0.010000</speed>
</trkpt>
<trkpt lat="22.327017" lon="103.774750">
<ele>2366.158203</ele>
<time>2011-04-24T00:54:48Z</time>
<desc>lat.=22.327017, lon.=103.774750, Alt.=2366.158203m. Speed=0.000000m/h.</desc>
<speed>0.000000</speed>
</trkpt>
<trkpt lat="22.327017" lon="103.774750">
<ele>2366.158203</ele>
<time>2011-04-24T00:54:53Z</time>
<desc>lat.=22.327017, lon.=103.774750, Alt.=2366.158203m. Speed=0.036000m/h.</desc>
<speed>0.010000</speed>
</trkpt>
<trkpt lat="22.327017" lon="103.774750">
<ele>2366.158203</ele>
<time>2011-04-24T00:54:58Z</time>
<desc>lat.=22.327017, lon.=103.774750, Alt.=2366.158203m. Speed=0.000000m/h.</desc>
<speed>0.000000</speed>
</trkpt>
<trkpt lat="22.327017" lon="103.774750">
<ele>2366.158203</ele>
<time>2011-04-24T00:55:03Z</time>
<desc>lat.=22.327017, lon.=103.774750, Alt.=2366.158203m. Speed=0.000000m/h.</desc>
<speed>0.000000</speed>
</trkpt>
<trkpt lat="22.327017" lon="103.774750">
<ele>2366.158203</ele>
<time>2011-04-24T00:55:08Z</time>
<desc>lat.=22.327017, lon.=103.774750, Alt.=2366.158203m. Speed=0.036000m/h.</desc>
<speed>0.010000</speed>
</trkpt>
<trkpt lat="22.327017" lon="103.774750">
<ele>2366.158203</ele>
<time>2011-04-24T00:55:13Z</time>
<desc>lat.=22.327017, lon.=103.774750, Alt.=2366.158203m. Speed=0.000000m/h.</desc>
<speed>0.000000</speed>
</trkpt>
<trkpt lat="22.327017" lon="103.774750">
<ele>2366.158203</ele>
<time>2011-04-24T00:55:18Z</time>
<desc>lat.=22.327017, lon.=103.774750, Alt.=2366.158203m. Speed=0.036000m/h.</desc>
<speed>0.010000</speed>
</trkpt>
<trkpt lat="22.327017" lon="103.774750">
<ele>2366.158203</ele>
<time>2011-04-24T00:55:23Z</time>
<desc>lat.=22.327017, lon.=103.774750, Alt.=2366.158203m. Speed=0.000000m/h.</desc>
<speed>0.000000</speed>
</trkpt>
<trkpt lat="22.327017" lon="103.774750">
<ele>2366.158203</ele>
<time>2011-04-24T00:55:28Z</time>
<desc>lat.=22.327017, lon.=103.774750, Alt.=2366.158203m. Speed=0.036000m/h.</desc>
<speed>0.010000</speed>
</trkpt>
<trkpt lat="22.327017" lon="103.774750">
<ele>2366.158203</ele>
<time>2011-04-24T00:55:33Z</time>
<desc>lat.=22.327017, lon.=103.774750, Alt.=2366.158203m. Speed=0.000000m/h.</desc>
<speed>0.000000</speed>
</trkpt>
<trkpt lat="22.327017" lon="103.774750">
<ele>2366.095703</ele>
<time>2011-04-24T00:55:38Z</time>
<desc>lat.=22.327017, lon.=103.774750, Alt.=2366.095703m. Speed=0.000000m/h.</desc>
<speed>0.000000</speed>
</trkpt>
<trkpt lat="22.327017" lon="103.774750">
<ele>2366.095703</ele>
<time>2011-04-24T00:55:43Z</time>
<desc>lat.=22.327017, lon.=103.774750, Alt.=2366.095703m. Speed=0.000000m/h.</desc>
<speed>0.000000</speed>
</trkpt>
<trkpt lat="22.327017" lon="103.774750">
<ele>2366.095703</ele>
<time>2011-04-24T00:55:48Z</time>
<desc>lat.=22.327017, lon.=103.774750, Alt.=2366.095703m. Speed=0.396000m/h.</desc>
<speed>0.110000</speed>
</trkpt>
<trkpt lat="22.327009" lon="103.774719">
<ele>2366.720703</ele>
<time>2011-04-24T00:55:53Z</time>
<desc>lat.=22.327009, lon.=103.774719, Alt.=2366.720703m. Speed=0.360000m/h.</desc>
<speed>0.100000</speed>
</trkpt>
<trkpt lat="22.327007" lon="103.774712">
<ele>2366.783203</ele>
<time>2011-04-24T00:55:58Z</time>
<desc>lat.=22.327007, lon.=103.774712, Alt.=2366.783203m. Speed=2.376000m/h.</desc>
<speed>0.660000</speed>
</trkpt>
<trkpt lat="22.326992" lon="103.774673">
<ele>2367.095703</ele>
<time>2011-04-24T00:56:03Z</time>
<desc>lat.=22.326992, lon.=103.774673, Alt.=2367.095703m. Speed=3.276000m/h.</desc>
<speed>0.910000</speed>
</trkpt>
<trkpt lat="22.326977" lon="103.774612">
<ele>2367.095703</ele>
<time>2011-04-24T00:56:08Z</time>
<desc>lat.=22.326977, lon.=103.774612, Alt.=2367.095703m. Speed=4.572000m/h.</desc>
<speed>1.270000</speed>
</trkpt>
<trkpt lat="22.326954" lon="103.774544">
<ele>2366.220703</ele>
<time>2011-04-24T00:56:13Z</time>
<desc>lat.=22.326954, lon.=103.774544, Alt.=2366.220703m. Speed=5.508000m/h.</desc>
<speed>1.530000</speed>
</trkpt>
<trkpt lat="22.326944" lon="103.774483">
<ele>2366.658203</ele>
<time>2011-04-24T00:56:18Z</time>
<desc>lat.=22.326944, lon.=103.774483, Alt.=2366.658203m. Speed=2.376000m/h.</desc>
<speed>0.660000</speed>
</trkpt>
<trkpt lat="22.326918" lon="103.774437">
<ele>2366.533203</ele>
<time>2011-04-24T00:56:23Z</time>
<desc>lat.=22.326918, lon.=103.774437, Alt.=2366.533203m. Speed=3.312000m/h.</desc>
<speed>0.920000</speed>
</trkpt>
<trkpt lat="22.326902" lon="103.774391">
<ele>2366.595703</ele>
<time>2011-04-24T00:56:28Z</time>
<desc>lat.=22.326902, lon.=103.774391, Alt.=2366.595703m. Speed=4.644000m/h.</desc>
<speed>1.290000</speed>
</trkpt>
<trkpt lat="22.326885" lon="103.774330">
<ele>2367.283203</ele>
<time>2011-04-24T00:56:33Z</time>
<desc>lat.=22.326885, lon.=103.774330, Alt.=2367.283203m. Speed=3.780000m/h.</desc>
<speed>1.050000</speed>
</trkpt>
<trkpt lat="22.326887" lon="103.774292">
<ele>2367.783203</ele>
<time>2011-04-24T00:56:38Z</time>
<desc>lat.=22.326887, lon.=103.774292, Alt.=2367.783203m. Speed=3.528000m/h.</desc>
<speed>0.980000</speed>
</trkpt>
<trkpt lat="22.326885" lon="103.774231">
<ele>2368.533203</ele>
<time>2011-04-24T00:56:43Z</time>
<desc>lat.=22.326885, lon.=103.774231, Alt.=2368.533203m. Speed=2.736000m/h.</desc>
<speed>0.760000</speed>
</trkpt>
<trkpt lat="22.326883" lon="103.774185">
<ele>2369.658203</ele>
<time>2011-04-24T00:56:48Z</time>
<desc>lat.=22.326883, lon.=103.774185, Alt.=2369.658203m. Speed=2.736000m/h.</desc>
<speed>0.760000</speed>
</trkpt>
<trkpt lat="22.326870" lon="103.774170">
<ele>2371.533203</ele>
<time>2011-04-24T00:56:53Z</time>
<desc>lat.=22.326870, lon.=103.774170, Alt.=2371.533203m. Speed=1.260000m/h.</desc>
<speed>0.350000</speed>
</trkpt>
<trkpt lat="22.326853" lon="103.774139">
<ele>2372.345703</ele>
<time>2011-04-24T00:56:58Z</time>
<desc>lat.=22.326853, lon.=103.774139, Alt.=2372.345703m. Speed=3.456000m/h.</desc>
<speed>0.960000</speed>
</trkpt>
<trkpt lat="22.326834" lon="103.774094">
<ele>2372.533203</ele>
<time>2011-04-24T00:57:03Z</time>
<desc>lat.=22.326834, lon.=103.774094, Alt.=2372.533203m. Speed=3.852000m/h.</desc>
<speed>1.070000</speed>
</trkpt>
<trkpt lat="22.326828" lon="103.774071">
<ele>2372.908203</ele>
<time>2011-04-24T00:57:08Z</time>
<desc>lat.=22.326828, lon.=103.774071, Alt.=2372.908203m. Speed=1.404000m/h.</desc>
<speed>0.390000</speed>
</trkpt>
<trkpt lat="22.326820" lon="103.774048">
<ele>2373.533203</ele>
<time>2011-04-24T00:57:13Z</time>
<desc>lat.=22.326820, lon.=103.774048, Alt.=2373.533203m. Speed=1.908000m/h.</desc>
<speed>0.530000</speed>
</trkpt>
<trkpt lat="22.326796" lon="103.774010">
<ele>2374.408203</ele>
<time>2011-04-24T00:57:18Z</time>
<desc>lat.=22.326796, lon.=103.774010, Alt.=2374.408203m. Speed=4.104000m/h.</desc>
<speed>1.140000</speed>
</trkpt>
<trkpt lat="22.326771" lon="103.773964">
<ele>2373.908203</ele>
<time>2011-04-24T00:57:23Z</time>
<desc>lat.=22.326771, lon.=103.773964, Alt.=2373.908203m. Speed=5.652000m/h.</desc>
<speed>1.570000</speed>
</trkpt>
<trkpt lat="22.326736" lon="103.773911">
<ele>2372.783203</ele>
<time>2011-04-24T00:57:28Z</time>
<desc>lat.=22.326736, lon.=103.773911, Alt.=2372.783203m. Speed=4.248000m/h.</desc>
<speed>1.180000</speed>
</trkpt>
<trkpt lat="22.326712" lon="103.773872">
<ele>2371.595703</ele>
<time>2011-04-24T00:57:33Z</time>
<desc>lat.=22.326712, lon.=103.773872, Alt.=2371.595703m. Speed=3.420000m/h.</desc>
<speed>0.950000</speed>
</trkpt>
<trkpt lat="22.326675" lon="103.773842">
<ele>2370.970703</ele>
<time>2011-04-24T00:57:38Z</time>
<desc>lat.=22.326675, lon.=103.773842, Alt.=2370.970703m. Speed=5.400000m/h.</desc>
<speed>1.500000</speed>
</trkpt>
<trkpt lat="22.326656" lon="103.773773">
<ele>2370.533203</ele>
<time>2011-04-24T00:57:43Z</time>
<desc>lat.=22.326656, lon.=103.773773, Alt.=2370.533203m. Speed=4.356000m/h.</desc>
<speed>1.210000</speed>
</trkpt>
<trkpt lat="22.326653" lon="103.773727">
<ele>2369.658203</ele>
<time>2011-04-24T00:57:48Z</time>
<desc>lat.=22.326653, lon.=103.773727, Alt.=2369.658203m. Speed=3.420000m/h.</desc>
<speed>0.950000</speed>
</trkpt>
<trkpt lat="22.326639" lon="103.773689">
<ele>2367.970703</ele>
<time>2011-04-24T00:57:53Z</time>
<desc>lat.=22.326639, lon.=103.773689, Alt.=2367.970703m. Speed=2.196000m/h.</desc>
<speed>0.610000</speed>
</trkpt>
<trkpt lat="22.326637" lon="103.773659">
<ele>2367.533203</ele>
<time>2011-04-24T00:57:58Z</time>
<desc>lat.=22.326637, lon.=103.773659, Alt.=2367.533203m. Speed=2.520000m/h.</desc>
<speed>0.700000</speed>
</trkpt>
<trkpt lat="22.326618" lon="103.773582">
<ele>2367.158203</ele>
<time>2011-04-24T00:58:03Z</time>
<desc>lat.=22.326618, lon.=103.773582, Alt.=2367.158203m. Speed=5.796000m/h.</desc>
<speed>1.610000</speed>
</trkpt>
<trkpt lat="22.326632" lon="103.773529">
<ele>2367.095703</ele>
<time>2011-04-24T00:58:08Z</time>
<desc>lat.=22.326632, lon.=103.773529, Alt.=2367.095703m. Speed=3.852000m/h.</desc>
<speed>1.070000</speed>
</trkpt>
<trkpt lat="22.326624" lon="103.773491">
<ele>2367.033203</ele>
<time>2011-04-24T00:58:13Z</time>
<desc>lat.=22.326624, lon.=103.773491, Alt.=2367.033203m. Speed=3.960000m/h.</desc>
<speed>1.100000</speed>
</trkpt>
<trkpt lat="22.326590" lon="103.773430">
<ele>2366.908203</ele>
<time>2011-04-24T00:58:18Z</time>
<desc>lat.=22.326590, lon.=103.773430, Alt.=2366.908203m. Speed=5.112000m/h.</desc>
<speed>1.420000</speed>
</trkpt>
<trkpt lat="22.326572" lon="103.773369">
<ele>2365.595703</ele>
<time>2011-04-24T00:58:23Z</time>
<desc>lat.=22.326572, lon.=103.773369, Alt.=2365.595703m. Speed=6.588000m/h.</desc>
<speed>1.830000</speed>
</trkpt>
<trkpt lat="22.326563" lon="103.773300">
<ele>2365.345703</ele>
<time>2011-04-24T00:58:28Z</time>
<desc>lat.=22.326563, lon.=103.773300, Alt.=2365.345703m. Speed=3.672000m/h.</desc>
<speed>1.020000</speed>
</trkpt>
<trkpt lat="22.326544" lon="103.773254">
<ele>2364.158203</ele>
<time>2011-04-24T00:58:33Z</time>
<desc>lat.=22.326544, lon.=103.773254, Alt.=2364.158203m. Speed=3.204000m/h.</desc>
<speed>0.890000</speed>
</trkpt>
<trkpt lat="22.326559" lon="103.773201">
<ele>2362.033203</ele>
<time>2011-04-24T00:58:38Z</time>
<desc>lat.=22.326559, lon.=103.773201, Alt.=2362.033203m. Speed=4.140000m/h.</desc>
<speed>1.150000</speed>
</trkpt>
<trkpt lat="22.326576" lon="103.773140">
<ele>2359.720703</ele>
<time>2011-04-24T00:58:43Z</time>
<desc>lat.=22.326576, lon.=103.773140, Alt.=2359.720703m. Speed=4.752000m/h.</desc>
<speed>1.320000</speed>
</trkpt>
<trkpt lat="22.326605" lon="103.773071">
<ele>2359.220703</ele>
<time>2011-04-24T00:58:48Z</time>
<desc>lat.=22.326605, lon.=103.773071, Alt.=2359.220703m. Speed=6.624000m/h.</desc>
<speed>1.840000</speed>
</trkpt>
<trkpt lat="22.326630" lon="103.772995">
<ele>2359.845703</ele>
<time>2011-04-24T00:58:53Z</time>
<desc>lat.=22.326630, lon.=103.772995, Alt.=2359.845703m. Speed=5.148000m/h.</desc>
<speed>1.430000</speed>
</trkpt>
<trkpt lat="22.326654" lon="103.772926">
<ele>2359.408203</ele>
<time>2011-04-24T00:58:58Z</time>
<desc>lat.=22.326654, lon.=103.772926, Alt.=2359.408203m. Speed=4.608000m/h.</desc>
<speed>1.280000</speed>
</trkpt>
<trkpt lat="22.326643" lon="103.772865">
<ele>2358.720703</ele>
<time>2011-04-24T00:59:03Z</time>
<desc>lat.=22.326643, lon.=103.772865, Alt.=2358.720703m. Speed=3.672000m/h.</desc>
<speed>1.020000</speed>
</trkpt>
<trkpt lat="22.326641" lon="103.772812">
<ele>2358.095703</ele>
<time>2011-04-24T00:59:08Z</time>
<desc>lat.=22.326641, lon.=103.772812, Alt.=2358.095703m. Speed=4.608000m/h.</desc>
<speed>1.280000</speed>
</trkpt>
<trkpt lat="22.326632" lon="103.772751">
<ele>2357.470703</ele>
<time>2011-04-24T00:59:13Z</time>
<desc>lat.=22.326632, lon.=103.772751, Alt.=2357.470703m. Speed=5.040000m/h.</desc>
<speed>1.400000</speed>
</trkpt>
<trkpt lat="22.326637" lon="103.772682">
<ele>2355.970703</ele>
<time>2011-04-24T00:59:18Z</time>
<desc>lat.=22.326637, lon.=103.772682, Alt.=2355.970703m. Speed=3.456000m/h.</desc>
<speed>0.960000</speed>
</trkpt>
<trkpt lat="22.326637" lon="103.772652">
<ele>2354.970703</ele>
<time>2011-04-24T00:59:23Z</time>
<desc>lat.=22.326637, lon.=103.772652, Alt.=2354.970703m. Speed=3.348000m/h.</desc>
<speed>0.930000</speed>
</trkpt>
<trkpt lat="22.326590" lon="103.772621">
<ele>2351.845703</ele>
<time>2011-04-24T00:59:28Z</time>
<desc>lat.=22.326590, lon.=103.772621, Alt.=2351.845703m. Speed=4.644000m/h.</desc>
<speed>1.290000</speed>
</trkpt>
<trkpt lat="22.326551" lon="103.772636">
<ele>2350.845703</ele>
<time>2011-04-24T00:59:33Z</time>
<desc>lat.=22.326551, lon.=103.772636, Alt.=2350.845703m. Speed=2.232000m/h.</desc>
<speed>0.620000</speed>
</trkpt>
<trkpt lat="22.326513" lon="103.772644">
<ele>2351.283203</ele>
<time>2011-04-24T00:59:38Z</time>
<desc>lat.=22.326513, lon.=103.772644, Alt.=2351.283203m. Speed=2.016000m/h.</desc>
<speed>0.560000</speed>
</trkpt>
<trkpt lat="22.326483" lon="103.772629">
<ele>2351.845703</ele>
<time>2011-04-24T00:59:43Z</time>
<desc>lat.=22.326483, lon.=103.772629, Alt.=2351.845703m. Speed=3.204000m/h.</desc>
<speed>0.890000</speed>
</trkpt>
<trkpt lat="22.326469" lon="103.772659">
<ele>2352.533203</ele>
<time>2011-04-24T00:59:48Z</time>
<desc>lat.=22.326469, lon.=103.772659, Alt.=2352.533203m. Speed=2.520000m/h.</desc>
<speed>0.700000</speed>
</trkpt>
<trkpt lat="22.326450" lon="103.772675">
<ele>2353.658203</ele>
<time>2011-04-24T00:59:53Z</time>
<desc>lat.=22.326450, lon.=103.772675, Alt.=2353.658203m. Speed=2.304000m/h.</desc>
<speed>0.640000</speed>
</trkpt>
<trkpt lat="22.326435" lon="103.772682">
<ele>2354.970703</ele>
<time>2011-04-24T00:59:58Z</time>
<desc>lat.=22.326435, lon.=103.772682, Alt.=2354.970703m. Speed=1.044000m/h.</desc>
<speed>0.290000</speed>
</trkpt>
<trkpt lat="22.326401" lon="103.772675">
<ele>2355.720703</ele>
<time>2011-04-24T01:00:03Z</time>
<desc>lat.=22.326401, lon.=103.772675, Alt.=2355.720703m. Speed=2.448000m/h.</desc>
<speed>0.680000</speed>
</trkpt>
<trkpt lat="22.326387" lon="103.772697">
<ele>2356.720703</ele>
<time>2011-04-24T01:00:08Z</time>
<desc>lat.=22.326387, lon.=103.772697, Alt.=2356.720703m. Speed=2.520000m/h.</desc>
<speed>0.700000</speed>
</trkpt>
<trkpt lat="22.326361" lon="103.772728">
<ele>2357.345703</ele>
<time>2011-04-24T01:00:13Z</time>
<desc>lat.=22.326361, lon.=103.772728, Alt.=2357.345703m. Speed=3.024000m/h.</desc>
<speed>0.840000</speed>
</trkpt>
<trkpt lat="22.326336" lon="103.772743">
<ele>2358.345703</ele>
<time>2011-04-24T01:00:18Z</time>
<desc>lat.=22.326336, lon.=103.772743, Alt.=2358.345703m. Speed=1.008000m/h.</desc>
<speed>0.280000</speed>
</trkpt>
<trkpt lat="22.326307" lon="103.772736">
<ele>2358.720703</ele>
<time>2011-04-24T01:00:23Z</time>
<desc>lat.=22.326307, lon.=103.772736, Alt.=2358.720703m. Speed=1.656000m/h.</desc>
<speed>0.460000</speed>
</trkpt>
<trkpt lat="22.326311" lon="103.772736">
<ele>2359.283203</ele>
<time>2011-04-24T01:00:28Z</time>
<desc>lat.=22.326311, lon.=103.772736, Alt.=2359.283203m. Speed=0.360000m/h.</desc>
<speed>0.100000</speed>
</trkpt>
<trkpt lat="22.326313" lon="103.772736">
<ele>2359.658203</ele>
<time>2011-04-24T01:00:33Z</time>
<desc>lat.=22.326313, lon.=103.772736, Alt.=2359.658203m. Speed=0.324000m/h.</desc>
<speed>0.090000</speed>
</trkpt>
<trkpt lat="22.326315" lon="103.772736">
<ele>2359.720703</ele>
<time>2011-04-24T01:00:38Z</time>
<desc>lat.=22.326315, lon.=103.772736, Alt.=2359.720703m. Speed=0.000000m/h.</desc>
<speed>0.000000</speed>
</trkpt>
<trkpt lat="22.326294" lon="103.772720">
<ele>2359.533203</ele>
<time>2011-04-24T01:00:43Z</time>
<desc>lat.=22.326294, lon.=103.772720, Alt.=2359.533203m. Speed=2.304000m/h.</desc>
<speed>0.640000</speed>
</trkpt>
<trkpt lat="22.326254" lon="103.772705">
<ele>2360.845703</ele>
<time>2011-04-24T01:00:48Z</time>
<desc>lat.=22.326254, lon.=103.772705, Alt.=2360.845703m. Speed=3.420000m/h.</desc>
<speed>0.950000</speed>
</trkpt>
<trkpt lat="22.326221" lon="103.772713">
<ele>2361.658203</ele>
<time>2011-04-24T01:00:53Z</time>
<desc>lat.=22.326221, lon.=103.772713, Alt.=2361.658203m. Speed=2.376000m/h.</desc>
<speed>0.660000</speed>
</trkpt>
<trkpt lat="22.326208" lon="103.772728">
<ele>2363.158203</ele>
<time>2011-04-24T01:00:58Z</time>
<desc>lat.=22.326208, lon.=103.772728, Alt.=2363.158203m. Speed=2.952000m/h.</desc>
<speed>0.820000</speed>
</trkpt>
<trkpt lat="22.326185" lon="103.772728">
<ele>2364.595703</ele>
<time>2011-04-24T01:01:03Z</time>
<desc>lat.=22.326185, lon.=103.772728, Alt.=2364.595703m. Speed=1.440000m/h.</desc>
<speed>0.400000</speed>
</trkpt>
<trkpt lat="22.326166" lon="103.772713">
<ele>2365.658203</ele>
<time>2011-04-24T01:01:08Z</time>
<desc>lat.=22.326166, lon.=103.772713, Alt.=2365.658203m. Speed=0.144000m/h.</desc>
<speed>0.040000</speed>
</trkpt>
<trkpt lat="22.326157" lon="103.772705">
<ele>2366.720703</ele>
<time>2011-04-24T01:01:13Z</time>
<desc>lat.=22.326157, lon.=103.772705, Alt.=2366.720703m. Speed=1.224000m/h.</desc>
<speed>0.340000</speed>
</trkpt>
<trkpt lat="22.326162" lon="103.772690">
<ele>2368.033203</ele>
<time>2011-04-24T01:01:18Z</time>
<desc>lat.=22.326162, lon.=103.772690, Alt.=2368.033203m. Speed=1.296000m/h.</desc>
<speed>0.360000</speed>
</trkpt>
<trkpt lat="22.326139" lon="103.772682">
<ele>2369.283203</ele>
<time>2011-04-24T01:01:23Z</time>
<desc>lat.=22.326139, lon.=103.772682, Alt.=2369.283203m. Speed=1.692000m/h.</desc>
<speed>0.470000</speed>
</trkpt>
<trkpt lat="22.326130" lon="103.772659">
<ele>2370.283203</ele>
<time>2011-04-24T01:01:28Z</time>
<desc>lat.=22.326130, lon.=103.772659, Alt.=2370.283203m. Speed=1.620000m/h.</desc>
<speed>0.450000</speed>
</trkpt>
<trkpt lat="22.326130" lon="103.772652">
<ele>2370.408203</ele>
<time>2011-04-24T01:01:33Z</time>
<desc>lat.=22.326130, lon.=103.772652, Alt.=2370.408203m. Speed=0.180000m/h.</desc>
<speed>0.050000</speed>
</trkpt>
<trkpt lat="22.326130" lon="103.772659">
<ele>2370.658203</ele>
<time>2011-04-24T01:01:38Z</time>
<desc>lat.=22.326130, lon.=103.772659, Alt.=2370.658203m. Speed=0.504000m/h.</desc>
<speed>0.140000</speed>
</trkpt>
<trkpt lat="22.326118" lon="103.772636">
<ele>2370.783203</ele>
<time>2011-04-24T01:01:43Z</time>
<desc>lat.=22.326118, lon.=103.772636, Alt.=2370.783203m. Speed=2.952000m/h.</desc>
<speed>0.820000</speed>
</trkpt>
<trkpt lat="22.326099" lon="103.772598">
<ele>2370.720703</ele>
<time>2011-04-24T01:01:48Z</time>
<desc>lat.=22.326099, lon.=103.772598, Alt.=2370.720703m. Speed=4.068000m/h.</desc>
<speed>1.130000</speed>
</trkpt>
<trkpt lat="22.326063" lon="103.772545">
<ele>2370.345703</ele>
<time>2011-04-24T01:01:53Z</time>
<desc>lat.=22.326063, lon.=103.772545, Alt.=2370.345703m. Speed=4.680000m/h.</desc>
<speed>1.300000</speed>
</trkpt>
<trkpt lat="22.326029" lon="103.772514">
<ele>2371.283203</ele>
<time>2011-04-24T01:01:58Z</time>
<desc>lat.=22.326029, lon.=103.772514, Alt.=2371.283203m. Speed=1.260000m/h.</desc>
<speed>0.350000</speed>
</trkpt>
<trkpt lat="22.326025" lon="103.772507">
<ele>2371.283203</ele>
<time>2011-04-24T01:02:03Z</time>
<desc>lat.=22.326025, lon.=103.772507, Alt.=2371.283203m. Speed=0.396000m/h.</desc>
<speed>0.110000</speed>
</trkpt>
<trkpt lat="22.325996" lon="103.772507">
<ele>2371.720703</ele>
<time>2011-04-24T01:02:08Z</time>
<desc>lat.=22.325996, lon.=103.772507, Alt.=2371.720703m. Speed=2.844000m/h.</desc>
<speed>0.790000</speed>
</trkpt>
<trkpt lat="22.325993" lon="103.772514">
<ele>2371.970703</ele>
<time>2011-04-24T01:02:13Z</time>
<desc>lat.=22.325993, lon.=103.772514, Alt.=2371.970703m. Speed=0.288000m/h.</desc>
<speed>0.080000</speed>
</trkpt>
<trkpt lat="22.325979" lon="103.772514">
<ele>2372.033203</ele>
<time>2011-04-24T01:02:18Z</time>
<desc>lat.=22.325979, lon.=103.772514, Alt.=2372.033203m. Speed=0.468000m/h.</desc>
<speed>0.130000</speed>
</trkpt>
<trkpt lat="22.325972" lon="103.772545">
<ele>2373.158203</ele>
<time>2011-04-24T01:02:23Z</time>
<desc>lat.=22.325972, lon.=103.772545, Alt.=2373.158203m. Speed=3.240000m/h.</desc>
<speed>0.900000</speed>
</trkpt>
<trkpt lat="22.325911" lon="103.772522">
<ele>2373.033203</ele>
<time>2011-04-24T01:02:28Z</time>
<desc>lat.=22.325911, lon.=103.772522, Alt.=2373.033203m. Speed=6.624000m/h.</desc>
<speed>1.840000</speed>
</trkpt>
<trkpt lat="22.325840" lon="103.772514">
<ele>2373.220703</ele>
<time>2011-04-24T01:02:33Z</time>
<desc>lat.=22.325840, lon.=103.772514, Alt.=2373.220703m. Speed=4.320000m/h.</desc>
<speed>1.200000</speed>
</trkpt>
<trkpt lat="22.325785" lon="103.772530">
<ele>2372.033203</ele>
<time>2011-04-24T01:02:38Z</time>
<desc>lat.=22.325785, lon.=103.772530, Alt.=2372.033203m. Speed=6.264000m/h.</desc>
<speed>1.740000</speed>
</trkpt>
<trkpt lat="22.325714" lon="103.772522">
<ele>2372.095703</ele>
<time>2011-04-24T01:02:43Z</time>
<desc>lat.=22.325714, lon.=103.772522, Alt.=2372.095703m. Speed=6.156000m/h.</desc>
<speed>1.710000</speed>
</trkpt>
<trkpt lat="22.325661" lon="103.772530">
<ele>2374.283203</ele>
<time>2011-04-24T01:02:48Z</time>
<desc>lat.=22.325661, lon.=103.772530, Alt.=2374.283203m. Speed=3.960000m/h.</desc>
<speed>1.100000</speed>
</trkpt>
<trkpt lat="22.325613" lon="103.772545">
<ele>2374.095703</ele>
<time>2011-04-24T01:02:53Z</time>
<desc>lat.=22.325613, lon.=103.772545, Alt.=2374.095703m. Speed=3.132000m/h.</desc>
<speed>0.870000</speed>
</trkpt>
<trkpt lat="22.325565" lon="103.772560">
<ele>2373.033203</ele>
<time>2011-04-24T01:02:58Z</time>
<desc>lat.=22.325565, lon.=103.772560, Alt.=2373.033203m. Speed=5.724000m/h.</desc>
<speed>1.590000</speed>
</trkpt>
<trkpt lat="22.325521" lon="103.772583">
<ele>2373.095703</ele>
<time>2011-04-24T01:03:03Z</time>
<desc>lat.=22.325521, lon.=103.772583, Alt.=2373.095703m. Speed=2.952000m/h.</desc>
<speed>0.820000</speed>
</trkpt>
<trkpt lat="22.325481" lon="103.772598">
<ele>2374.658203</ele>
<time>2011-04-24T01:03:08Z</time>
<desc>lat.=22.325481, lon.=103.772598, Alt.=2374.658203m. Speed=4.572000m/h.</desc>
<speed>1.270000</speed>
</trkpt>
<trkpt lat="22.325439" lon="103.772606">
<ele>2376.720703</ele>
<time>2011-04-24T01:03:13Z</time>
<desc>lat.=22.325439, lon.=103.772606, Alt.=2376.720703m. Speed=3.888000m/h.</desc>
<speed>1.080000</speed>
</trkpt>
<trkpt lat="22.325384" lon="103.772591">
<ele>2378.220703</ele>
<time>2011-04-24T01:03:18Z</time>
<desc>lat.=22.325384, lon.=103.772591, Alt.=2378.220703m. Speed=3.456000m/h.</desc>
<speed>0.960000</speed>
</trkpt>
<trkpt lat="22.325327" lon="103.772575">
<ele>2379.595703</ele>
<time>2011-04-24T01:03:23Z</time>
<desc>lat.=22.325327, lon.=103.772575, Alt.=2379.595703m. Speed=3.276000m/h.</desc>
<speed>0.910000</speed>
</trkpt>
<trkpt lat="22.325294" lon="103.772545">
<ele>2380.970703</ele>
<time>2011-04-24T01:03:28Z</time>
<desc>lat.=22.325294, lon.=103.772545, Alt.=2380.970703m. Speed=3.132000m/h.</desc>
<speed>0.870000</speed>
</trkpt>
<trkpt lat="22.325293" lon="103.772491">
<ele>2380.470703</ele>
<time>2011-04-24T01:03:33Z</time>
<desc>lat.=22.325293, lon.=103.772491, Alt.=2380.470703m. Speed=3.060000m/h.</desc>
<speed>0.850000</speed>
</trkpt>
<trkpt lat="22.325291" lon="103.772453">
<ele>2379.095703</ele>
<time>2011-04-24T01:03:38Z</time>
<desc>lat.=22.325291, lon.=103.772453, Alt.=2379.095703m. Speed=2.520000m/h.</desc>
<speed>0.700000</speed>
</trkpt>
<trkpt lat="22.325253" lon="103.772408">
<ele>2378.220703</ele>
<time>2011-04-24T01:03:43Z</time>
<desc>lat.=22.325253, lon.=103.772408, Alt.=2378.220703m. Speed=5.364000m/h.</desc>
<speed>1.490000</speed>
</trkpt>
<trkpt lat="22.325230" lon="103.772385">
<ele>2378.033203</ele>
<time>2011-04-24T01:03:48Z</time>
<desc>lat.=22.325230, lon.=103.772385, Alt.=2378.033203m. Speed=2.088000m/h.</desc>
<speed>0.580000</speed>
</trkpt>
<trkpt lat="22.325197" lon="103.772369">
<ele>2378.408203</ele>
<time>2011-04-24T01:03:53Z</time>
<desc>lat.=22.325197, lon.=103.772369, Alt.=2378.408203m. Speed=2.916000m/h.</desc>
<speed>0.810000</speed>
</trkpt>
<trkpt lat="22.325182" lon="103.772362">
<ele>2378.845703</ele>
<time>2011-04-24T01:03:58Z</time>
<desc>lat.=22.325182, lon.=103.772362, Alt.=2378.845703m. Speed=1.548000m/h.</desc>
<speed>0.430000</speed>
</trkpt>
<trkpt lat="22.325159" lon="103.772369">
<ele>2379.470703</ele>
<time>2011-04-24T01:04:03Z</time>
<desc>lat.=22.325159, lon.=103.772369, Alt.=2379.470703m. Speed=1.944000m/h.</desc>
<speed>0.540000</speed>
</trkpt>
<trkpt lat="22.325150" lon="103.772392">
<ele>2380.533203</ele>
<time>2011-04-24T01:04:08Z</time>
<desc>lat.=22.325150, lon.=103.772392, Alt.=2380.533203m. Speed=1.908000m/h.</desc>
<speed>0.530000</speed>
</trkpt>
<trkpt lat="22.325127" lon="103.772415">
<ele>2381.095703</ele>
<time>2011-04-24T01:04:13Z</time>
<desc>lat.=22.325127, lon.=103.772415, Alt.=2381.095703m. Speed=2.844000m/h.</desc>
<speed>0.790000</speed>
</trkpt>
<trkpt lat="22.325111" lon="103.772415">
<ele>2381.783203</ele>
<time>2011-04-24T01:04:18Z</time>
<desc>lat.=22.325111, lon.=103.772415, Alt.=2381.783203m. Speed=1.008000m/h.</desc>
<speed>0.280000</speed>
</trkpt>
<trkpt lat="22.325108" lon="103.772415">
<ele>2382.158203</ele>
<time>2011-04-24T01:04:23Z</time>
<desc>lat.=22.325108, lon.=103.772415, Alt.=2382.158203m. Speed=0.828000m/h.</desc>
<speed>0.230000</speed>
</trkpt>
<trkpt lat="22.325111" lon="103.772408">
<ele>2382.595703</ele>
<time>2011-04-24T01:04:28Z</time>
<desc>lat.=22.325111, lon.=103.772408, Alt.=2382.595703m. Speed=0.108000m/h.</desc>
<speed>0.030000</speed>
</trkpt>
<trkpt lat="22.325119" lon="103.772408">
<ele>2382.470703</ele>
<time>2011-04-24T01:04:33Z</time>
<desc>lat.=22.325119, lon.=103.772408, Alt.=2382.470703m. Speed=0.612000m/h.</desc>
<speed>0.170000</speed>
</trkpt>
<trkpt lat="22.325096" lon="103.772408">
<ele>2383.470703</ele>
<time>2011-04-24T01:04:38Z</time>
<desc>lat.=22.325096, lon.=103.772408, Alt.=2383.470703m. Speed=2.376000m/h.</desc>
<speed>0.660000</speed>
</trkpt>
<trkpt lat="22.325050" lon="103.772408">
<ele>2385.220703</ele>
<time>2011-04-24T01:04:43Z</time>
<desc>lat.=22.325050, lon.=103.772408, Alt.=2385.220703m. Speed=3.492000m/h.</desc>
<speed>0.970000</speed>
</trkpt>
<trkpt lat="22.325010" lon="103.772415">
<ele>2385.908203</ele>
<time>2011-04-24T01:04:48Z</time>
<desc>lat.=22.325010, lon.=103.772415, Alt.=2385.908203m. Speed=4.608000m/h.</desc>
<speed>1.280000</speed>
</trkpt>
<trkpt lat="22.324951" lon="103.772423">
<ele>2385.783203</ele>
<time>2011-04-24T01:04:53Z</time>
<desc>lat.=22.324951, lon.=103.772423, Alt.=2385.783203m. Speed=4.644000m/h.</desc>
<speed>1.290000</speed>
</trkpt>
<trkpt lat="22.324911" lon="103.772461">
<ele>2387.970703</ele>
<time>2011-04-24T01:04:58Z</time>
<desc>lat.=22.324911, lon.=103.772461, Alt.=2387.970703m. Speed=3.816000m/h.</desc>
<speed>1.060000</speed>
</trkpt>
<trkpt lat="22.324888" lon="103.772484">
<ele>2390.345703</ele>
<time>2011-04-24T01:05:03Z</time>
<desc>lat.=22.324888, lon.=103.772484, Alt.=2390.345703m. Speed=2.664000m/h.</desc>
<speed>0.740000</speed>
</trkpt>
<trkpt lat="22.324867" lon="103.772499">
<ele>2392.720703</ele>
<time>2011-04-24T01:05:08Z</time>
<desc>lat.=22.324867, lon.=103.772499, Alt.=2392.720703m. Speed=3.168000m/h.</desc>
<speed>0.880000</speed>
</trkpt>
<trkpt lat="22.324829" lon="103.772507">
<ele>2392.658203</ele>
<time>2011-04-24T01:05:13Z</time>
<desc>lat.=22.324829, lon.=103.772507, Alt.=2392.658203m. Speed=1.728000m/h.</desc>
<speed>0.480000</speed>
</trkpt>
<trkpt lat="22.324802" lon="103.772514">
<ele>2393.845703</ele>
<time>2011-04-24T01:05:18Z</time>
<desc>lat.=22.324802, lon.=103.772514, Alt.=2393.845703m. Speed=3.600000m/h.</desc>
<speed>1.000000</speed>
</trkpt>
<trkpt lat="22.324753" lon="103.772476">
<ele>2394.720703</ele>
<time>2011-04-24T01:05:23Z</time>
<desc>lat.=22.324753, lon.=103.772476, Alt.=2394.720703m. Speed=4.500000m/h.</desc>
<speed>1.250000</speed>
</trkpt>
<trkpt lat="22.324724" lon="103.772430">
<ele>2396.845703</ele>
<time>2011-04-24T01:05:28Z</time>
<desc>lat.=22.324724, lon.=103.772430, Alt.=2396.845703m. Speed=3.456000m/h.</desc>
<speed>0.960000</speed>
</trkpt>
<trkpt lat="22.324707" lon="103.772385">
<ele>2397.595703</ele>
<time>2011-04-24T01:05:33Z</time>
<desc>lat.=22.324707, lon.=103.772385, Alt.=2397.595703m. Speed=1.548000m/h.</desc>
<speed>0.430000</speed>
</trkpt>
<trkpt lat="22.324722" lon="103.772362">
<ele>2398.158203</ele>
<time>2011-04-24T01:05:38Z</time>
<desc>lat.=22.324722, lon.=103.772362, Alt.=2398.158203m. Speed=2.376000m/h.</desc>
<speed>0.660000</speed>
</trkpt>
<trkpt lat="22.324757" lon="103.772339">
<ele>2398.908203</ele>
<time>2011-04-24T01:05:43Z</time>
<desc>lat.=22.324757, lon.=103.772339, Alt.=2398.908203m. Speed=2.520000m/h.</desc>
<speed>0.700000</speed>
</trkpt>
<trkpt lat="22.324760" lon="103.772293">
<ele>2400.033203</ele>
<time>2011-04-24T01:05:48Z</time>
<desc>lat.=22.324760, lon.=103.772293, Alt.=2400.033203m. Speed=2.880000m/h.</desc>
<speed>0.800000</speed>
</trkpt>
<trkpt lat="22.324734" lon="103.772255">
<ele>2399.033203</ele>
<time>2011-04-24T01:05:53Z</time>
<desc>lat.=22.324734, lon.=103.772255, Alt.=2399.033203m. Speed=5.400000m/h.</desc>
<speed>1.500000</speed>
</trkpt>
<trkpt lat="22.324709" lon="103.772240">
<ele>2398.283203</ele>
<time>2011-04-24T01:05:58Z</time>
<desc>lat.=22.324709, lon.=103.772240, Alt.=2398.283203m. Speed=1.692000m/h.</desc>
<speed>0.470000</speed>
</trkpt>
<trkpt lat="22.324686" lon="103.772217">
<ele>2398.095703</ele>
<time>2011-04-24T01:06:03Z</time>
<desc>lat.=22.324686, lon.=103.772217, Alt.=2398.095703m. Speed=1.692000m/h.</desc>
<speed>0.470000</speed>
</trkpt>
<trkpt lat="22.324656" lon="103.772202">
<ele>2398.783203</ele>
<time>2011-04-24T01:06:08Z</time>
<desc>lat.=22.324656, lon.=103.772202, Alt.=2398.783203m. Speed=3.528000m/h.</desc>
<speed>0.980000</speed>
</trkpt>
<trkpt lat="22.324621" lon="103.772179">
<ele>2398.595703</ele>
<time>2011-04-24T01:06:13Z</time>
<desc>lat.=22.324621, lon.=103.772179, Alt.=2398.595703m. Speed=3.600000m/h.</desc>
<speed>1.000000</speed>
</trkpt>
<trkpt lat="22.324579" lon="103.772141">
<ele>2397.158203</ele>
<time>2011-04-24T01:06:18Z</time>
<desc>lat.=22.324579, lon.=103.772141, Alt.=2397.158203m. Speed=5.472000m/h.</desc>
<speed>1.520000</speed>
</trkpt>
<trkpt lat="22.324553" lon="103.772102">
<ele>2397.158203</ele>
<time>2011-04-24T01:06:23Z</time>
<desc>lat.=22.324553, lon.=103.772102, Alt.=2397.158203m. Speed=2.484000m/h.</desc>
<speed>0.690000</speed>
</trkpt>
<trkpt lat="22.324530" lon="103.772057">
<ele>2396.908203</ele>
<time>2011-04-24T01:06:28Z</time>
<desc>lat.=22.324530, lon.=103.772057, Alt.=2396.908203m. Speed=4.068000m/h.</desc>
<speed>1.130000</speed>
</trkpt>
<trkpt lat="22.324509" lon="103.771996">
<ele>2395.595703</ele>
<time>2011-04-24T01:06:33Z</time>
<desc>lat.=22.324509, lon.=103.771996, Alt.=2395.595703m. Speed=6.588000m/h.</desc>
<speed>1.830000</speed>
</trkpt>
<trkpt lat="22.324478" lon="103.771957">
<ele>2395.220703</ele>
<time>2011-04-24T01:06:38Z</time>
<desc>lat.=22.324478, lon.=103.771957, Alt.=2395.220703m. Speed=4.140000m/h.</desc>
<speed>1.150000</speed>
</trkpt>
<trkpt lat="22.324429" lon="103.771942">
<ele>2395.595703</ele>
<time>2011-04-24T01:06:43Z</time>
<desc>lat.=22.324429, lon.=103.771942, Alt.=2395.595703m. Speed=3.564000m/h.</desc>
<speed>0.990000</speed>
</trkpt>
<trkpt lat="22.324413" lon="103.771904">
<ele>2396.658203</ele>
<time>2011-04-24T01:06:48Z</time>
<desc>lat.=22.324413, lon.=103.771904, Alt.=2396.658203m. Speed=4.104000m/h.</desc>
<speed>1.140000</speed>
</trkpt>
<trkpt lat="22.324396" lon="103.771835">
<ele>2397.595703</ele>
<time>2011-04-24T01:06:53Z</time>
<desc>lat.=22.324396, lon.=103.771835, Alt.=2397.595703m. Speed=4.932000m/h.</desc>
<speed>1.370000</speed>
</trkpt>
<trkpt lat="22.324333" lon="103.771812">
<ele>2398.783203</ele>
<time>2011-04-24T01:06:58Z</time>
<desc>lat.=22.324333, lon.=103.771812, Alt.=2398.783203m. Speed=4.932000m/h.</desc>
<speed>1.370000</speed>
</trkpt>
<trkpt lat="22.324282" lon="103.771782">
<ele>2399.783203</ele>
<time>2011-04-24T01:07:03Z</time>
<desc>lat.=22.324282, lon.=103.771782, Alt.=2399.783203m. Speed=4.356000m/h.</desc>
<speed>1.210000</speed>
</trkpt>
<trkpt lat="22.324265" lon="103.771744">
<ele>2399.845703</ele>
<time>2011-04-24T01:07:08Z</time>
<desc>lat.=22.324265, lon.=103.771744, Alt.=2399.845703m. Speed=2.160000m/h.</desc>
<speed>0.600000</speed>
</trkpt>
<trkpt lat="22.324242" lon="103.771713">
<ele>2401.908203</ele>
<time>2011-04-24T01:07:13Z</time>
<desc>lat.=22.324242, lon.=103.771713, Alt.=2401.908203m. Speed=3.564000m/h.</desc>
<speed>0.990000</speed>
</trkpt>
<trkpt lat="22.324196" lon="103.771690">
<ele>2403.158203</ele>
<time>2011-04-24T01:07:18Z</time>
<desc>lat.=22.324196, lon.=103.771690, Alt.=2403.158203m. Speed=4.608000m/h.</desc>
<speed>1.280000</speed>
</trkpt>
<trkpt lat="22.324160" lon="103.771652">
<ele>2404.033203</ele>
<time>2011-04-24T01:07:23Z</time>
<desc>lat.=22.324160, lon.=103.771652, Alt.=2404.033203m. Speed=1.800000m/h.</desc>
<speed>0.500000</speed>
</trkpt>
<trkpt lat="22.324169" lon="103.771622">
<ele>2404.533203</ele>
<time>2011-04-24T01:07:28Z</time>
<desc>lat.=22.324169, lon.=103.771622, Alt.=2404.533203m. Speed=2.628000m/h.</desc>
<speed>0.730000</speed>
</trkpt>
<trkpt lat="22.324188" lon="103.771576">
<ele>2405.095703</ele>
<time>2011-04-24T01:07:33Z</time>
<desc>lat.=22.324188, lon.=103.771576, Alt.=2405.095703m. Speed=4.356000m/h.</desc>
<speed>1.210000</speed>
</trkpt>
<trkpt lat="22.324167" lon="103.771530">
<ele>2405.533203</ele>
<time>2011-04-24T01:07:38Z</time>
<desc>lat.=22.324167, lon.=103.771530, Alt.=2405.533203m. Speed=3.132000m/h.</desc>
<speed>0.870000</speed>
</trkpt>
<trkpt lat="22.324160" lon="103.771507">
<ele>2406.595703</ele>
<time>2011-04-24T01:07:43Z</time>
<desc>lat.=22.324160, lon.=103.771507, Alt.=2406.595703m. Speed=3.240000m/h.</desc>
<speed>0.900000</speed>
</trkpt>
<trkpt lat="22.324177" lon="103.771461">
<ele>2407.658203</ele>
<time>2011-04-24T01:07:48Z</time>
<desc>lat.=22.324177, lon.=103.771461, Alt.=2407.658203m. Speed=2.556000m/h.</desc>
<speed>0.710000</speed>
</trkpt>
<trkpt lat="22.324175" lon="103.771446">
<ele>2408.595703</ele>
<time>2011-04-24T01:07:53Z</time>
<desc>lat.=22.324175, lon.=103.771446, Alt.=2408.595703m. Speed=1.188000m/h.</desc>
<speed>0.330000</speed>
</trkpt>
<trkpt lat="22.324167" lon="103.771446">
<ele>2408.845703</ele>
<time>2011-04-24T01:07:58Z</time>
<desc>lat.=22.324167, lon.=103.771446, Alt.=2408.845703m. Speed=0.216000m/h.</desc>
<speed>0.060000</speed>
</trkpt>
<trkpt lat="22.324148" lon="103.771439">
<ele>2409.783203</ele>
<time>2011-04-24T01:08:03Z</time>
<desc>lat.=22.324148, lon.=103.771439, Alt.=2409.783203m. Speed=2.232000m/h.</desc>
<speed>0.620000</speed>
</trkpt>
<trkpt lat="22.324141" lon="103.771439">
<ele>2411.095703</ele>
<time>2011-04-24T01:08:08Z</time>
<desc>lat.=22.324141, lon.=103.771439, Alt.=2411.095703m. Speed=0.468000m/h.</desc>
<speed>0.130000</speed>
</trkpt>
<trkpt lat="22.324137" lon="103.771454">
<ele>2411.220703</ele>
<time>2011-04-24T01:08:13Z</time>
<desc>lat.=22.324137, lon.=103.771454, Alt.=2411.220703m. Speed=1.620000m/h.</desc>
<speed>0.450000</speed>
</trkpt>
<trkpt lat="22.324118" lon="103.771446">
<ele>2412.033203</ele>
<time>2011-04-24T01:08:18Z</time>
<desc>lat.=22.324118, lon.=103.771446, Alt.=2412.033203m. Speed=1.476000m/h.</desc>
<speed>0.410000</speed>
</trkpt>
<trkpt lat="22.324085" lon="103.771439">
<ele>2412.970703</ele>
<time>2011-04-24T01:08:23Z</time>
<desc>lat.=22.324085, lon.=103.771439, Alt.=2412.970703m. Speed=2.268000m/h.</desc>
<speed>0.630000</speed>
</trkpt>
<trkpt lat="22.324053" lon="103.771431">
<ele>2413.658203</ele>
<time>2011-04-24T01:08:28Z</time>
<desc>lat.=22.324053, lon.=103.771431, Alt.=2413.658203m. Speed=3.204000m/h.</desc>
<speed>0.890000</speed>
</trkpt>
<trkpt lat="22.324030" lon="103.771431">
<ele>2414.470703</ele>
<time>2011-04-24T01:08:33Z</time>
<desc>lat.=22.324030, lon.=103.771431, Alt.=2414.470703m. Speed=1.872000m/h.</desc>
<speed>0.520000</speed>
</trkpt>
<trkpt lat="22.324030" lon="103.771454">
<ele>2415.470703</ele>
<time>2011-04-24T01:08:38Z</time>
<desc>lat.=22.324030, lon.=103.771454, Alt.=2415.470703m. Speed=2.772000m/h.</desc>
<speed>0.770000</speed>
</trkpt>
<trkpt lat="22.324024" lon="103.771454">
<ele>2416.345703</ele>
<time>2011-04-24T01:08:43Z</time>
<desc>lat.=22.324024, lon.=103.771454, Alt.=2416.345703m. Speed=1.512000m/h.</desc>
<speed>0.420000</speed>
</trkpt>
<trkpt lat="22.323992" lon="103.771446">
<ele>2417.095703</ele>
<time>2011-04-24T01:08:48Z</time>
<desc>lat.=22.323992, lon.=103.771446, Alt.=2417.095703m. Speed=1.476000m/h.</desc>
<speed>0.410000</speed>
</trkpt>
<trkpt lat="22.323994" lon="103.771454">
<ele>2417.970703</ele>
<time>2011-04-24T01:08:53Z</time>
<desc>lat.=22.323994, lon.=103.771454, Alt.=2417.970703m. Speed=0.612000m/h.</desc>
<speed>0.170000</speed>
</trkpt>
<trkpt lat="22.323992" lon="103.771461">
<ele>2418.408203</ele>
<time>2011-04-24T01:08:58Z</time>
<desc>lat.=22.323992, lon.=103.771461, Alt.=2418.408203m. Speed=1.476000m/h.</desc>
<speed>0.410000</speed>
</trkpt>
<trkpt lat="22.323961" lon="103.771477">
<ele>2419.595703</ele>
<time>2011-04-24T01:09:03Z</time>
<desc>lat.=22.323961, lon.=103.771477, Alt.=2419.595703m. Speed=2.520000m/h.</desc>
<speed>0.700000</speed>
</trkpt>
<trkpt lat="22.323927" lon="103.771500">
<ele>2421.283203</ele>
<time>2011-04-24T01:09:08Z</time>
<desc>lat.=22.323927, lon.=103.771500, Alt.=2421.283203m. Speed=3.240000m/h.</desc>
<speed>0.900000</speed>
</trkpt>
<trkpt lat="22.323925" lon="103.771507">
<ele>2422.095703</ele>
<time>2011-04-24T01:09:13Z</time>
<desc>lat.=22.323925, lon.=103.771507, Alt.=2422.095703m. Speed=1.620000m/h.</desc>
<speed>0.450000</speed>
</trkpt>
<trkpt lat="22.323921" lon="103.771523">
<ele>2422.908203</ele>
<time>2011-04-24T01:09:18Z</time>
<desc>lat.=22.323921, lon.=103.771523, Alt.=2422.908203m. Speed=1.260000m/h.</desc>
<speed>0.350000</speed>
</trkpt>
<trkpt lat="22.323893" lon="103.771523">
<ele>2423.720703</ele>
<time>2011-04-24T01:09:23Z</time>
<desc>lat.=22.323893, lon.=103.771523, Alt.=2423.720703m. Speed=1.512000m/h.</desc>
<speed>0.420000</speed>
</trkpt>
<trkpt lat="22.323883" lon="103.771523">
<ele>2424.470703</ele>
<time>2011-04-24T01:09:28Z</time>
<desc>lat.=22.323883, lon.=103.771523, Alt.=2424.470703m. Speed=0.828000m/h.</desc>
<speed>0.230000</speed>
</trkpt>
<trkpt lat="22.323851" lon="103.771500">
<ele>2425.658203</ele>
<time>2011-04-24T01:09:33Z</time>
<desc>lat.=22.323851, lon.=103.771500, Alt.=2425.658203m. Speed=1.908000m/h.</desc>
<speed>0.530000</speed>
</trkpt>
<trkpt lat="22.323847" lon="103.771500">
<ele>2426.033203</ele>
<time>2011-04-24T01:09:38Z</time>
<desc>lat.=22.323847, lon.=103.771500, Alt.=2426.033203m. Speed=0.144000m/h.</desc>
<speed>0.040000</speed>
</trkpt>
<trkpt lat="22.323853" lon="103.771500">
<ele>2426.033203</ele>
<time>2011-04-24T01:09:43Z</time>
<desc>lat.=22.323853, lon.=103.771500, Alt.=2426.033203m. Speed=0.180000m/h.</desc>
<speed>0.050000</speed>
</trkpt>
<trkpt lat="22.323837" lon="103.771507">
<ele>2426.470703</ele>
<time>2011-04-24T01:09:48Z</time>
<desc>lat.=22.323837, lon.=103.771507, Alt.=2426.470703m. Speed=1.728000m/h.</desc>
<speed>0.480000</speed>
</trkpt>
<trkpt lat="22.323847" lon="103.771492">
<ele>2426.345703</ele>
<time>2011-04-24T01:09:53Z</time>
<desc>lat.=22.323847, lon.=103.771492, Alt.=2426.345703m. Speed=0.612000m/h.</desc>
<speed>0.170000</speed>
</trkpt>
<trkpt lat="22.323845" lon="103.771492">
<ele>2426.345703</ele>
<time>2011-04-24T01:09:58Z</time>
<desc>lat.=22.323845, lon.=103.771492, Alt.=2426.345703m. Speed=0.396000m/h.</desc>
<speed>0.110000</speed>
</trkpt>
<trkpt lat="22.323837" lon="103.771484">
<ele>2426.345703</ele>
<time>2011-04-24T01:10:03Z</time>
<desc>lat.=22.323837, lon.=103.771484, Alt.=2426.345703m. Speed=1.728000m/h.</desc>
<speed>0.480000</speed>
</trkpt>
<trkpt lat="22.323797" lon="103.771492">
<ele>2427.283203</ele>
<time>2011-04-24T01:10:08Z</time>
<desc>lat.=22.323797, lon.=103.771492, Alt.=2427.283203m. Speed=2.772000m/h.</desc>
<speed>0.770000</speed>
</trkpt>
<trkpt lat="22.323769" lon="103.771477">
<ele>2428.595703</ele>
<time>2011-04-24T01:10:13Z</time>
<desc>lat.=22.323769, lon.=103.771477, Alt.=2428.595703m. Speed=1.656000m/h.</desc>
<speed>0.460000</speed>
</trkpt>
<trkpt lat="22.323740" lon="103.771484">
<ele>2429.345703</ele>
<time>2011-04-24T01:10:18Z</time>
<desc>lat.=22.323740, lon.=103.771484, Alt.=2429.345703m. Speed=3.132000m/h.</desc>
<speed>0.870000</speed>
</trkpt>
<trkpt lat="22.323715" lon="103.771454">
<ele>2429.970703</ele>
<time>2011-04-24T01:10:23Z</time>
<desc>lat.=22.323715, lon.=103.771454, Alt.=2429.970703m. Speed=3.276000m/h.</desc>
<speed>0.910000</speed>
</trkpt>
<trkpt lat="22.323711" lon="103.771454">
<ele>2430.845703</ele>
<time>2011-04-24T01:10:28Z</time>
<desc>lat.=22.323711, lon.=103.771454, Alt.=2430.845703m. Speed=0.576000m/h.</desc>
<speed>0.160000</speed>
</trkpt>
<trkpt lat="22.323732" lon="103.771446">
<ele>2432.158203</ele>
<time>2011-04-24T01:10:33Z</time>
<desc>lat.=22.323732, lon.=103.771446, Alt.=2432.158203m. Speed=0.432000m/h.</desc>
<speed>0.120000</speed>
</trkpt>
<trkpt lat="22.323740" lon="103.771454">
<ele>2433.033203</ele>
<time>2011-04-24T01:10:38Z</time>
<desc>lat.=22.323740, lon.=103.771454, Alt.=2433.033203m. Speed=0.792000m/h.</desc>
<speed>0.220000</speed>
</trkpt>
<trkpt lat="22.323721" lon="103.771461">
<ele>2433.595703</ele>
<time>2011-04-24T01:10:43Z</time>
<desc>lat.=22.323721, lon.=103.771461, Alt.=2433.595703m. Speed=0.396000m/h.</desc>
<speed>0.110000</speed>
</trkpt>
<trkpt lat="22.323721" lon="103.771477">
<ele>2435.408203</ele>
<time>2011-04-24T01:10:48Z</time>
<desc>lat.=22.323721, lon.=103.771477, Alt.=2435.408203m. Speed=1.512000m/h.</desc>
<speed>0.420000</speed>
</trkpt>
<trkpt lat="22.323708" lon="103.771477">
<ele>2437.283203</ele>
<time>2011-04-24T01:10:53Z</time>
<desc>lat.=22.323708, lon.=103.771477, Alt.=2437.283203m. Speed=2.052000m/h.</desc>
<speed>0.570000</speed>
</trkpt>
<trkpt lat="22.323702" lon="103.771477">
<ele>2438.158203</ele>
<time>2011-04-24T01:10:58Z</time>
<desc>lat.=22.323702, lon.=103.771477, Alt.=2438.158203m. Speed=0.504000m/h.</desc>
<speed>0.140000</speed>
</trkpt>
<trkpt lat="22.323685" lon="103.771454">
<ele>2439.595703</ele>
<time>2011-04-24T01:11:03Z</time>
<desc>lat.=22.323685, lon.=103.771454, Alt.=2439.595703m. Speed=2.052000m/h.</desc>
<speed>0.570000</speed>
</trkpt>
<trkpt lat="22.323668" lon="103.771423">
<ele>2440.408203</ele>
<time>2011-04-24T01:11:08Z</time>
<desc>lat.=22.323668, lon.=103.771423, Alt.=2440.408203m. Speed=1.188000m/h.</desc>
<speed>0.330000</speed>
</trkpt>
<trkpt lat="22.323664" lon="103.771416">
<ele>2441.720703</ele>
<time>2011-04-24T01:11:13Z</time>
<desc>lat.=22.323664, lon.=103.771416, Alt.=2441.720703m. Speed=0.324000m/h.</desc>
<speed>0.090000</speed>
</trkpt>
<trkpt lat="22.323662" lon="103.771416">
<ele>2441.783203</ele>
<time>2011-04-24T01:11:18Z</time>
<desc>lat.=22.323662, lon.=103.771416, Alt.=2441.783203m. Speed=0.720000m/h.</desc>
<speed>0.200000</speed>
</trkpt>
<trkpt lat="22.323660" lon="103.771416">
<ele>2441.783203</ele>
<time>2011-04-24T01:11:23Z</time>
<desc>lat.=22.323660, lon.=103.771416, Alt.=2441.783203m. Speed=0.828000m/h.</desc>
<speed>0.230000</speed>
</trkpt>
<trkpt lat="22.323658" lon="103.771416">
<ele>2441.783203</ele>
<time>2011-04-24T01:11:28Z</time>
<desc>lat.=22.323658, lon.=103.771416, Alt.=2441.783203m. Speed=0.180000m/h.</desc>
<speed>0.050000</speed>
</trkpt>
<trkpt lat="22.323658" lon="103.771416">
<ele>2441.720703</ele>
<time>2011-04-24T01:11:33Z</time>
<desc>lat.=22.323658, lon.=103.771416, Alt.=2441.720703m. Speed=0.936000m/h.</desc>
<speed>0.260000</speed>
</trkpt>
<trkpt lat="22.323660" lon="103.771423">
<ele>2441.970703</ele>
<time>2011-04-24T01:11:38Z</time>
<desc>lat.=22.323660, lon.=103.771423, Alt.=2441.970703m. Speed=0.576000m/h.</desc>
<speed>0.160000</speed>
</trkpt>
<trkpt lat="22.323654" lon="103.771423">
<ele>2442.095703</ele>
<time>2011-04-24T01:11:43Z</time>
<desc>lat.=22.323654, lon.=103.771423, Alt.=2442.095703m. Speed=0.072000m/h.</desc>
<speed>0.020000</speed>
</trkpt>
<trkpt lat="22.323652" lon="103.771423">
<ele>2442.220703</ele>
<time>2011-04-24T01:11:48Z</time>
<desc>lat.=22.323652, lon.=103.771423, Alt.=2442.220703m. Speed=0.432000m/h.</desc>
<speed>0.120000</speed>
</trkpt>
<trkpt lat="22.323648" lon="103.771423">
<ele>2442.220703</ele>
<time>2011-04-24T01:11:53Z</time>
<desc>lat.=22.323648, lon.=103.771423, Alt.=2442.220703m. Speed=0.072000m/h.</desc>
<speed>0.020000</speed>
</trkpt>
<trkpt lat="22.323650" lon="103.771423">
<ele>2442.283203</ele>
<time>2011-04-24T01:11:58Z</time>
<desc>lat.=22.323650, lon.=103.771423, Alt.=2442.283203m. Speed=0.036000m/h.</desc>
<speed>0.010000</speed>
</trkpt>
<trkpt lat="22.323650" lon="103.771423">
<ele>2442.283203</ele>
<time>2011-04-24T01:12:03Z</time>
<desc>lat.=22.323650, lon.=103.771423, Alt.=2442.283203m. Speed=0.000000m/h.</desc>
<speed>0.000000</speed>
</trkpt>
<trkpt lat="22.323650" lon="103.771423">
<ele>2442.283203</ele>
<time>2011-04-24T01:12:08Z</time>
<desc>lat.=22.323650, lon.=103.771423, Alt.=2442.283203m. Speed=0.000000m/h.</desc>
<speed>0.000000</speed>
</trkpt>
<trkpt lat="22.323650" lon="103.771423">
<ele>2442.283203</ele>
<time>2011-04-24T01:12:13Z</time>
<desc>lat.=22.323650, lon.=103.771423, Alt.=2442.283203m. Speed=0.000000m/h.</desc>
<speed>0.000000</speed>
</trkpt>
<trkpt lat="22.323650" lon="103.771423">
<ele>2442.283203</ele>
<time>2011-04-24T01:12:18Z</time>
<desc>lat.=22.323650, lon.=103.771423, Alt.=2442.283203m. Speed=0.108000m/h.</desc>
<speed>0.030000</speed>
</trkpt>
<trkpt lat="22.323650" lon="103.771423">
<ele>2442.283203</ele>
<time>2011-04-24T01:12:23Z</time>
<desc>lat.=22.323650, lon.=103.771423, Alt.=2442.283203m. Speed=0.072000m/h.</desc>
<speed>0.020000</speed>
</trkpt>
<trkpt lat="22.323647" lon="103.771423">
<ele>2442.345703</ele>
<time>2011-04-24T01:12:28Z</time>
<desc>lat.=22.323647, lon.=103.771423, Alt.=2442.345703m. Speed=0.036000m/h.</desc>
<speed>0.010000</speed>
</trkpt>
<trkpt lat="22.323647" lon="103.771423">
<ele>2442.345703</ele>
<time>2011-04-24T01:12:33Z</time>
<desc>lat.=22.323647, lon.=103.771423, Alt.=2442.345703m. Speed=0.324000m/h.</desc>
<speed>0.090000</speed>
</trkpt>
<trkpt lat="22.323647" lon="103.771423">
<ele>2442.345703</ele>
<time>2011-04-24T01:12:38Z</time>
<desc>lat.=22.323647, lon.=103.771423, Alt.=2442.345703m. Speed=0.000000m/h.</desc>
<speed>0.000000</speed>
</trkpt>
<trkpt lat="22.323647" lon="103.771423">
<ele>2442.408203</ele>
<time>2011-04-24T01:12:43Z</time>
<desc>lat.=22.323647, lon.=103.771423, Alt.=2442.408203m. Speed=0.180000m/h.</desc>
<speed>0.050000</speed>
</trkpt>
<trkpt lat="22.323647" lon="103.771423">
<ele>2442.408203</ele>
<time>2011-04-24T01:12:48Z</time>
<desc>lat.=22.323647, lon.=103.771423, Alt.=2442.408203m. Speed=0.036000m/h.</desc>
<speed>0.010000</speed>
</trkpt>
<trkpt lat="22.323647" lon="103.771423">
<ele>2442.408203</ele>
<time>2011-04-24T01:12:53Z</time>
<desc>lat.=22.323647, lon.=103.771423, Alt.=2442.408203m. Speed=0.000000m/h.</desc>
<speed>0.000000</speed>
</trkpt>
<trkpt lat="22.323647" lon="103.771423">
<ele>2442.408203</ele>
<time>2011-04-24T01:12:58Z</time>
<desc>lat.=22.323647, lon.=103.771423, Alt.=2442.408203m. Speed=0.072000m/h.</desc>
<speed>0.020000</speed>
</trkpt>
<trkpt lat="22.323647" lon="103.771423">
<ele>2442.408203</ele>
<time>2011-04-24T01:13:03Z</time>
<desc>lat.=22.323647, lon.=103.771423, Alt.=2442.408203m. Speed=0.180000m/h.</desc>
<speed>0.050000</speed>
</trkpt>
<trkpt lat="22.323647" lon="103.771416">
<ele>2442.345703</ele>
<time>2011-04-24T01:13:08Z</time>
<desc>lat.=22.323647, lon.=103.771416, Alt.=2442.345703m. Speed=0.324000m/h.</desc>
<speed>0.090000</speed>
</trkpt>
<trkpt lat="22.323648" lon="103.771416">
<ele>2442.470703</ele>
<time>2011-04-24T01:13:13Z</time>
<desc>lat.=22.323648, lon.=103.771416, Alt.=2442.470703m. Speed=0.072000m/h.</desc>
<speed>0.020000</speed>
</trkpt>
<trkpt lat="22.323648" lon="103.771416">
<ele>2442.595703</ele>
<time>2011-04-24T01:13:18Z</time>
<desc>lat.=22.323648, lon.=103.771416, Alt.=2442.595703m. Speed=0.072000m/h.</desc>
<speed>0.020000</speed>
</trkpt>
<trkpt lat="22.323648" lon="103.771416">
<ele>2442.595703</ele>
<time>2011-04-24T01:13:23Z</time>
<desc>lat.=22.323648, lon.=103.771416, Alt.=2442.595703m. Speed=0.000000m/h.</desc>
<speed>0.000000</speed>
</trkpt>
<trkpt lat="22.323648" lon="103.771416">
<ele>2442.595703</ele>
<time>2011-04-24T01:13:28Z</time>
<desc>lat.=22.323648, lon.=103.771416, Alt.=2442.595703m. Speed=0.072000m/h.</desc>
<speed>0.020000</speed>
</trkpt>
<trkpt lat="22.323648" lon="103.771416">
<ele>2442.595703</ele>
<time>2011-04-24T01:13:33Z</time>
<desc>lat.=22.323648, lon.=103.771416, Alt.=2442.595703m. Speed=0.000000m/h.</desc>
<speed>0.000000</speed>
</trkpt>
<trkpt lat="22.323648" lon="103.771416">
<ele>2442.595703</ele>
<time>2011-04-24T01:13:38Z</time>
<desc>lat.=22.323648, lon.=103.771416, Alt.=2442.595703m. Speed=0.036000m/h.</desc>
<speed>0.010000</speed>
</trkpt>
<trkpt lat="22.323648" lon="103.771416">
<ele>2442.595703</ele>
<time>2011-04-24T01:13:43Z</time>
<desc>lat.=22.323648, lon.=103.771416, Alt.=2442.595703m. Speed=0.000000m/h.</desc>
<speed>0.000000</speed>
</trkpt>
<trkpt lat="22.323648" lon="103.771416">
<ele>2442.595703</ele>
<time>2011-04-24T01:13:48Z</time>
<desc>lat.=22.323648, lon.=103.771416, Alt.=2442.595703m. Speed=0.000000m/h.</desc>
<speed>0.000000</speed>
</trkpt>
<trkpt lat="22.323648" lon="103.771416">
<ele>2442.595703</ele>
<time>2011-04-24T01:13:53Z</time>
<desc>lat.=22.323648, lon.=103.771416, Alt.=2442.595703m. Speed=0.036000m/h.</desc>
<speed>0.010000</speed>
</trkpt>
<trkpt lat="22.323648" lon="103.771416">
<ele>2442.658203</ele>
<time>2011-04-24T01:13:58Z</time>
<desc>lat.=22.323648, lon.=103.771416, Alt.=2442.658203m. Speed=0.036000m/h.</desc>
<speed>0.010000</speed>
</trkpt>
<trkpt lat="22.323648" lon="103.771416">
<ele>2442.595703</ele>
<time>2011-04-24T01:14:03Z</time>
<desc>lat.=22.323648, lon.=103.771416, Alt.=2442.595703m. Speed=0.000000m/h.</desc>
<speed>0.000000</speed>
</trkpt>
<trkpt lat="22.323648" lon="103.771416">
<ele>2442.595703</ele>
<time>2011-04-24T01:14:08Z</time>
<desc>lat.=22.323648, lon.=103.771416, Alt.=2442.595703m. Speed=0.000000m/h.</desc>
<speed>0.000000</speed>
</trkpt>
<trkpt lat="22.323648" lon="103.771416">
<ele>2442.595703</ele>
<time>2011-04-24T01:14:13Z</time>
<desc>lat.=22.323648, lon.=103.771416, Alt.=2442.595703m. Speed=0.036000m/h.</desc>
<speed>0.010000</speed>
</trkpt>
<trkpt lat="22.323648" lon="103.771416">
<ele>2442.595703</ele>
<time>2011-04-24T01:14:18Z</time>
<desc>lat.=22.323648, lon.=103.771416, Alt.=2442.595703m. Speed=0.072000m/h.</desc>
<speed>0.020000</speed>
</trkpt>
<trkpt lat="22.323648" lon="103.771416">
<ele>2442.595703</ele>
<time>2011-04-24T01:14:23Z</time>
<desc>lat.=22.323648, lon.=103.771416, Alt.=2442.595703m. Speed=0.036000m/h.</desc>
<speed>0.010000</speed>
</trkpt>
<trkpt lat="22.323648" lon="103.771416">
<ele>2442.595703</ele>
<time>2011-04-24T01:14:28Z</time>
<desc>lat.=22.323648, lon.=103.771416, Alt.=2442.595703m. Speed=0.036000m/h.</desc>
<speed>0.010000</speed>
</trkpt>
<trkpt lat="22.323648" lon="103.771416">
<ele>2442.595703</ele>
<time>2011-04-24T01:14:33Z</time>
<desc>lat.=22.323648, lon.=103.771416, Alt.=2442.595703m. Speed=0.036000m/h.</desc>
<speed>0.010000</speed>
</trkpt>
<trkpt lat="22.323648" lon="103.771416">
<ele>2442.595703</ele>
<time>2011-04-24T01:14:38Z</time>
<desc>lat.=22.323648, lon.=103.771416, Alt.=2442.595703m. Speed=0.036000m/h.</desc>
<speed>0.010000</speed>
</trkpt>
<trkpt lat="22.323648" lon="103.771416">
<ele>2442.595703</ele>
<time>2011-04-24T01:14:43Z</time>
<desc>lat.=22.323648, lon.=103.771416, Alt.=2442.595703m. Speed=0.036000m/h.</desc>
<speed>0.010000</speed>
</trkpt>
<trkpt lat="22.323648" lon="103.771416">
<ele>2442.595703</ele>
<time>2011-04-24T01:14:48Z</time>
<desc>lat.=22.323648, lon.=103.771416, Alt.=2442.595703m. Speed=0.072000m/h.</desc>
<speed>0.020000</speed>
</trkpt>
<trkpt lat="22.323648" lon="103.771416">
<ele>2442.595703</ele>
<time>2011-04-24T01:14:53Z</time>
<desc>lat.=22.323648, lon.=103.771416, Alt.=2442.595703m. Speed=0.036000m/h.</desc>
<speed>0.010000</speed>
</trkpt>
<trkpt lat="22.323648" lon="103.771416">
<ele>2442.595703</ele>
<time>2011-04-24T01:14:58Z</time>
<desc>lat.=22.323648, lon.=103.771416, Alt.=2442.595703m. Speed=0.000000m/h.</desc>
<speed>0.000000</speed>
</trkpt>
<trkpt lat="22.323648" lon="103.771416">
<ele>2442.533203</ele>
<time>2011-04-24T01:15:03Z</time>
<desc>lat.=22.323648, lon.=103.771416, Alt.=2442.533203m. Speed=0.036000m/h.</desc>
<speed>0.010000</speed>
</trkpt>
<trkpt lat="22.323648" lon="103.771416">
<ele>2442.533203</ele>
<time>2011-04-24T01:15:08Z</time>
<desc>lat.=22.323648, lon.=103.771416, Alt.=2442.533203m. Speed=0.036000m/h.</desc>
<speed>0.010000</speed>
</trkpt>
<trkpt lat="22.323648" lon="103.771416">
<ele>2442.533203</ele>
<time>2011-04-24T01:15:13Z</time>
<desc>lat.=22.323648, lon.=103.771416, Alt.=2442.533203m. Speed=0.036000m/h.</desc>
<speed>0.010000</speed>
</trkpt>
<trkpt lat="22.323648" lon="103.771416">
<ele>2442.533203</ele>
<time>2011-04-24T01:15:18Z</time>
<desc>lat.=22.323648, lon.=103.771416, Alt.=2442.533203m. Speed=0.036000m/h.</desc>
<speed>0.010000</speed>
</trkpt>
<trkpt lat="22.323648" lon="103.771416">
<ele>2442.595703</ele>
<time>2011-04-24T01:15:23Z</time>
<desc>lat.=22.323648, lon.=103.771416, Alt.=2442.595703m. Speed=0.072000m/h.</desc>
<speed>0.020000</speed>
</trkpt>
<trkpt lat="22.323648" lon="103.771416">
<ele>2442.658203</ele>
<time>2011-04-24T01:15:28Z</time>
<desc>lat.=22.323648, lon.=103.771416, Alt.=2442.658203m. Speed=0.000000m/h.</desc>
<speed>0.000000</speed>
</trkpt>
<trkpt lat="22.323648" lon="103.771416">
<ele>2442.658203</ele>
<time>2011-04-24T01:15:33Z</time>
<desc>lat.=22.323648, lon.=103.771416, Alt.=2442.658203m. Speed=0.072000m/h.</desc>
<speed>0.020000</speed>
</trkpt>
<trkpt lat="22.323648" lon="103.771416">
<ele>2442.658203</ele>
<time>2011-04-24T01:15:38Z</time>
<desc>lat.=22.323648, lon.=103.771416, Alt.=2442.658203m. Speed=0.000000m/h.</desc>
<speed>0.000000</speed>
</trkpt>
<trkpt lat="22.323648" lon="103.771416">
<ele>2442.658203</ele>
<time>2011-04-24T01:15:43Z</time>
<desc>lat.=22.323648, lon.=103.771416, Alt.=2442.658203m. Speed=0.000000m/h.</desc>
<speed>0.000000</speed>
</trkpt>
<trkpt lat="22.323648" lon="103.771416">
<ele>2442.658203</ele>
<time>2011-04-24T01:15:48Z</time>
<desc>lat.=22.323648, lon.=103.771416, Alt.=2442.658203m. Speed=0.036000m/h.</desc>
<speed>0.010000</speed>
</trkpt>
<trkpt lat="22.323648" lon="103.771416">
<ele>2442.658203</ele>
<time>2011-04-24T01:15:53Z</time>
<desc>lat.=22.323648, lon.=103.771416, Alt.=2442.658203m. Speed=0.108000m/h.</desc>
<speed>0.030000</speed>
</trkpt>
<trkpt lat="22.323648" lon="103.771416">
<ele>2442.658203</ele>
<time>2011-04-24T01:15:58Z</time>
<desc>lat.=22.323648, lon.=103.771416, Alt.=2442.658203m. Speed=0.036000m/h.</desc>
<speed>0.010000</speed>
</trkpt>
<trkpt lat="22.323648" lon="103.771416">
<ele>2442.658203</ele>
<time>2011-04-24T01:16:03Z</time>
<desc>lat.=22.323648, lon.=103.771416, Alt.=2442.658203m. Speed=0.036000m/h.</desc>
<speed>0.010000</speed>
</trkpt>
<trkpt lat="22.323647" lon="103.771416">
<ele>2442.658203</ele>
<time>2011-04-24T01:16:08Z</time>
<desc>lat.=22.323647, lon.=103.771416, Alt.=2442.658203m. Speed=0.000000m/h.</desc>
<speed>0.000000</speed>
</trkpt>
<trkpt lat="22.323648" lon="103.771416">
<ele>2442.658203</ele>
<time>2011-04-24T01:16:13Z</time>
<desc>lat.=22.323648, lon.=103.771416, Alt.=2442.658203m. Speed=0.072000m/h.</desc>
<speed>0.020000</speed>
</trkpt>
<trkpt lat="22.323648" lon="103.771416">
<ele>2442.658203</ele>
<time>2011-04-24T01:16:18Z</time>
<desc>lat.=22.323648, lon.=103.771416, Alt.=2442.658203m. Speed=0.036000m/h.</desc>
<speed>0.010000</speed>
</trkpt>
<trkpt lat="22.323648" lon="103.771416">
<ele>2442.658203</ele>
<time>2011-04-24T01:16:23Z</time>
<desc>lat.=22.323648, lon.=103.771416, Alt.=2442.658203m. Speed=0.072000m/h.</desc>
<speed>0.020000</speed>
</trkpt>
<trkpt lat="22.323648" lon="103.771416">
<ele>2442.658203</ele>
<time>2011-04-24T01:16:28Z</time>
<desc>lat.=22.323648, lon.=103.771416, Alt.=2442.658203m. Speed=0.036000m/h.</desc>
<speed>0.010000</speed>
</trkpt>
<trkpt lat="22.323648" lon="103.771423">
<ele>2442.658203</ele>
<time>2011-04-24T01:16:33Z</time>
<desc>lat.=22.323648, lon.=103.771423, Alt.=2442.658203m. Speed=0.000000m/h.</desc>
<speed>0.000000</speed>
</trkpt>
<trkpt lat="22.323647" lon="103.771423">
<ele>2442.658203</ele>
<time>2011-04-24T01:16:38Z</time>
<desc>lat.=22.323647, lon.=103.771423, Alt.=2442.658203m. Speed=0.072000m/h.</desc>
<speed>0.020000</speed>
</trkpt>
<trkpt lat="22.323647" lon="103.771423">
<ele>2442.658203</ele>
<time>2011-04-24T01:16:43Z</time>
<desc>lat.=22.323647, lon.=103.771423, Alt.=2442.658203m. Speed=0.000000m/h.</desc>
<speed>0.000000</speed>
</trkpt>
<trkpt lat="22.323647" lon="103.771423">
<ele>2442.720703</ele>
<time>2011-04-24T01:16:48Z</time>
<desc>lat.=22.323647, lon.=103.771423, Alt.=2442.720703m. Speed=0.036000m/h.</desc>
<speed>0.010000</speed>
</trkpt>
<trkpt lat="22.323647" lon="103.771423">
<ele>2442.720703</ele>
<time>2011-04-24T01:16:53Z</time>
<desc>lat.=22.323647, lon.=103.771423, Alt.=2442.720703m. Speed=0.000000m/h.</desc>
<speed>0.000000</speed>
</trkpt>
<trkpt lat="22.323647" lon="103.771423">
<ele>2442.658203</ele>
<time>2011-04-24T01:16:58Z</time>
<desc>lat.=22.323647, lon.=103.771423, Alt.=2442.658203m. Speed=0.000000m/h.</desc>
<speed>0.000000</speed>
</trkpt>
<trkpt lat="22.323647" lon="103.771423">
<ele>2442.720703</ele>
<time>2011-04-24T01:17:03Z</time>
<desc>lat.=22.323647, lon.=103.771423, Alt.=2442.720703m. Speed=0.000000m/h.</desc>
<speed>0.000000</speed>
</trkpt>
<trkpt lat="22.323648" lon="103.771423">
<ele>2442.720703</ele>
<time>2011-04-24T01:17:08Z</time>
<desc>lat.=22.323648, lon.=103.771423, Alt.=2442.720703m. Speed=0.072000m/h.</desc>
<speed>0.020000</speed>
</trkpt>
<trkpt lat="22.323648" lon="103.771423">
<ele>2442.720703</ele>
<time>2011-04-24T01:17:13Z</time>
<desc>lat.=22.323648, lon.=103.771423, Alt.=2442.720703m. Speed=0.036000m/h.</desc>
<speed>0.010000</speed>
</trkpt>
<trkpt lat="22.323648" lon="103.771423">
<ele>2442.720703</ele>
<time>2011-04-24T01:17:18Z</time>
<desc>lat.=22.323648, lon.=103.771423, Alt.=2442.720703m. Speed=0.036000m/h.</desc>
<speed>0.010000</speed>
</trkpt>
<trkpt lat="22.323648" lon="103.771423">
<ele>2442.720703</ele>
<time>2011-04-24T01:17:23Z</time>
<desc>lat.=22.323648, lon.=103.771423, Alt.=2442.720703m. Speed=0.036000m/h.</desc>
<speed>0.010000</speed>
</trkpt>
<trkpt lat="22.323648" lon="103.771423">
<ele>2442.720703</ele>
<time>2011-04-24T01:17:28Z</time>
<desc>lat.=22.323648, lon.=103.771423, Alt.=2442.720703m. Speed=0.000000m/h.</desc>
<speed>0.000000</speed>
</trkpt>
<trkpt lat="22.323648" lon="103.771423">
<ele>2442.720703</ele>
<time>2011-04-24T01:17:33Z</time>
<desc>lat.=22.323648, lon.=103.771423, Alt.=2442.720703m. Speed=0.072000m/h.</desc>
<speed>0.020000</speed>
</trkpt>
<trkpt lat="22.323648" lon="103.771423">
<ele>2442.720703</ele>
<time>2011-04-24T01:17:38Z</time>
<desc>lat.=22.323648, lon.=103.771423, Alt.=2442.720703m. Speed=0.072000m/h.</desc>
<speed>0.020000</speed>
</trkpt>
<trkpt lat="22.323647" lon="103.771423">
<ele>2442.720703</ele>
<time>2011-04-24T01:17:43Z</time>
<desc>lat.=22.323647, lon.=103.771423, Alt.=2442.720703m. Speed=0.036000m/h.</desc>
<speed>0.010000</speed>
</trkpt>
<trkpt lat="22.323648" lon="103.771423">
<ele>2442.720703</ele>
<time>2011-04-24T01:17:48Z</time>
<desc>lat.=22.323648, lon.=103.771423, Alt.=2442.720703m. Speed=0.072000m/h.</desc>
<speed>0.020000</speed>
</trkpt>
<trkpt lat="22.323648" lon="103.771423">
<ele>2442.720703</ele>
<time>2011-04-24T01:17:53Z</time>
<desc>lat.=22.323648, lon.=103.771423, Alt.=2442.720703m. Speed=0.000000m/h.</desc>
<speed>0.000000</speed>
</trkpt>
<trkpt lat="22.323648" lon="103.771423">
<ele>2442.720703</ele>
<time>2011-04-24T01:17:58Z</time>
<desc>lat.=22.323648, lon.=103.771423, Alt.=2442.720703m. Speed=0.000000m/h.</desc>
<speed>0.000000</speed>
</trkpt>
<trkpt lat="22.323648" lon="103.771423">
<ele>2442.720703</ele>
<time>2011-04-24T01:18:03Z</time>
<desc>lat.=22.323648, lon.=103.771423, Alt.=2442.720703m. Speed=0.072000m/h.</desc>
<speed>0.020000</speed>
</trkpt>
<trkpt lat="22.323647" lon="103.771423">
<ele>2442.720703</ele>
<time>2011-04-24T01:18:08Z</time>
<desc>lat.=22.323647, lon.=103.771423, Alt.=2442.720703m. Speed=0.396000m/h.</desc>
<speed>0.110000</speed>
</trkpt>
<trkpt lat="22.323650" lon="103.771416">
<ele>2442.658203</ele>
<time>2011-04-24T01:18:13Z</time>
<desc>lat.=22.323650, lon.=103.771416, Alt.=2442.658203m. Speed=0.648000m/h.</desc>
<speed>0.180000</speed>
</trkpt>
<trkpt lat="22.323656" lon="103.771416">
<ele>2442.595703</ele>
<time>2011-04-24T01:18:18Z</time>
<desc>lat.=22.323656, lon.=103.771416, Alt.=2442.595703m. Speed=0.756000m/h.</desc>
<speed>0.210000</speed>
</trkpt>
<trkpt lat="22.323652" lon="103.771408">
<ele>2442.345703</ele>
<time>2011-04-24T01:18:23Z</time>
<desc>lat.=22.323652, lon.=103.771408, Alt.=2442.345703m. Speed=1.224000m/h.</desc>
<speed>0.340000</speed>
</trkpt>
<trkpt lat="22.323650" lon="103.771408">
<ele>2442.158203</ele>
<time>2011-04-24T01:18:28Z</time>
<desc>lat.=22.323650, lon.=103.771408, Alt.=2442.158203m. Speed=0.504000m/h.</desc>
<speed>0.140000</speed>
</trkpt>
<trkpt lat="22.323650" lon="103.771408">
<ele>2442.158203</ele>
<time>2011-04-24T01:18:33Z</time>
<desc>lat.=22.323650, lon.=103.771408, Alt.=2442.158203m. Speed=0.432000m/h.</desc>
<speed>0.120000</speed>
</trkpt>
<trkpt lat="22.323650" lon="103.771408">
<ele>2442.220703</ele>
<time>2011-04-24T01:18:38Z</time>
<desc>lat.=22.323650, lon.=103.771408, Alt.=2442.220703m. Speed=0.216000m/h.</desc>
<speed>0.060000</speed>
</trkpt>
<trkpt lat="22.323650" lon="103.771408">
<ele>2442.220703</ele>
<time>2011-04-24T01:18:43Z</time>
<desc>lat.=22.323650, lon.=103.771408, Alt.=2442.220703m. Speed=0.252000m/h.</desc>
<speed>0.070000</speed>
</trkpt>
<trkpt lat="22.323650" lon="103.771408">
<ele>2442.220703</ele>
<time>2011-04-24T01:18:48Z</time>
<desc>lat.=22.323650, lon.=103.771408, Alt.=2442.220703m. Speed=0.180000m/h.</desc>
<speed>0.050000</speed>
</trkpt>
<trkpt lat="22.323639" lon="103.771416">
<ele>2442.283203</ele>
<time>2011-04-24T01:18:53Z</time>
<desc>lat.=22.323639, lon.=103.771416, Alt.=2442.283203m. Speed=2.988000m/h.</desc>
<speed>0.830000</speed>
</trkpt>
<trkpt lat="22.323593" lon="103.771423">
<ele>2441.220703</ele>
<time>2011-04-24T01:18:58Z</time>
<desc>lat.=22.323593, lon.=103.771423, Alt.=2441.220703m. Speed=2.772000m/h.</desc>
<speed>0.770000</speed>
</trkpt>
<trkpt lat="22.323584" lon="103.771423">
<ele>2441.470703</ele>
<time>2011-04-24T01:19:03Z</time>
<desc>lat.=22.323584, lon.=103.771423, Alt.=2441.470703m. Speed=0.108000m/h.</desc>
<speed>0.030000</speed>
</trkpt>
<trkpt lat="22.323563" lon="103.771416">
<ele>2441.283203</ele>
<time>2011-04-24T01:19:08Z</time>
<desc>lat.=22.323563, lon.=103.771416, Alt.=2441.283203m. Speed=2.160000m/h.</desc>
<speed>0.600000</speed>
</trkpt>
<trkpt lat="22.323534" lon="103.771408">
<ele>2441.658203</ele>
<time>2011-04-24T01:19:13Z</time>
<desc>lat.=22.323534, lon.=103.771408, Alt.=2441.658203m. Speed=1.332000m/h.</desc>
<speed>0.370000</speed>
</trkpt>
<trkpt lat="22.323521" lon="103.771378">
<ele>2441.845703</ele>
<time>2011-04-24T01:19:18Z</time>
<desc>lat.=22.323521, lon.=103.771378, Alt.=2441.845703m. Speed=0.972000m/h.</desc>
<speed>0.270000</speed>
</trkpt>
<trkpt lat="22.323515" lon="103.771347">
<ele>2442.408203</ele>
<time>2011-04-24T01:19:23Z</time>
<desc>lat.=22.323515, lon.=103.771347, Alt.=2442.408203m. Speed=2.268000m/h.</desc>
<speed>0.630000</speed>
</trkpt>
<trkpt lat="22.323492" lon="103.771339">
<ele>2443.345703</ele>
<time>2011-04-24T01:19:28Z</time>
<desc>lat.=22.323492, lon.=103.771339, Alt.=2443.345703m. Speed=1.260000m/h.</desc>
<speed>0.350000</speed>
</trkpt>
<trkpt lat="22.323490" lon="103.771332">
<ele>2444.220703</ele>
<time>2011-04-24T01:19:33Z</time>
<desc>lat.=22.323490, lon.=103.771332, Alt.=2444.220703m. Speed=1.152000m/h.</desc>
<speed>0.320000</speed>
</trkpt>
<trkpt lat="22.323488" lon="103.771324">
<ele>2445.533203</ele>
<time>2011-04-24T01:19:38Z</time>
<desc>lat.=22.323488, lon.=103.771324, Alt.=2445.533203m. Speed=1.512000m/h.</desc>
<speed>0.420000</speed>
</trkpt>
<trkpt lat="22.323467" lon="103.771309">
<ele>2446.533203</ele>
<time>2011-04-24T01:19:43Z</time>
<desc>lat.=22.323467, lon.=103.771309, Alt.=2446.533203m. Speed=1.836000m/h.</desc>
<speed>0.510000</speed>
</trkpt>
<trkpt lat="22.323456" lon="103.771301">
<ele>2448.533203</ele>
<time>2011-04-24T01:19:48Z</time>
<desc>lat.=22.323456, lon.=103.771301, Alt.=2448.533203m. Speed=0.720000m/h.</desc>
<speed>0.200000</speed>
</trkpt>
<trkpt lat="22.323454" lon="103.771294">
<ele>2449.095703</ele>
<time>2011-04-24T01:19:53Z</time>
<desc>lat.=22.323454, lon.=103.771294, Alt.=2449.095703m. Speed=0.792000m/h.</desc>
<speed>0.220000</speed>
</trkpt>
<trkpt lat="22.323446" lon="103.771278">
<ele>2449.345703</ele>
<time>2011-04-24T01:19:58Z</time>
<desc>lat.=22.323446, lon.=103.771278, Alt.=2449.345703m. Speed=1.404000m/h.</desc>
<speed>0.390000</speed>
</trkpt>
<trkpt lat="22.323429" lon="103.771255">
<ele>2449.720703</ele>
<time>2011-04-24T01:20:03Z</time>
<desc>lat.=22.323429, lon.=103.771255, Alt.=2449.720703m. Speed=0.864000m/h.</desc>
<speed>0.240000</speed>
</trkpt>
<trkpt lat="22.323421" lon="103.771233">
<ele>2449.845703</ele>
<time>2011-04-24T01:20:08Z</time>
<desc>lat.=22.323421, lon.=103.771233, Alt.=2449.845703m. Speed=1.404000m/h.</desc>
<speed>0.390000</speed>
</trkpt>
<trkpt lat="22.323406" lon="103.771210">
<ele>2450.720703</ele>
<time>2011-04-24T01:20:13Z</time>
<desc>lat.=22.323406, lon.=103.771210, Alt.=2450.720703m. Speed=1.260000m/h.</desc>
<speed>0.350000</speed>
</trkpt>
<trkpt lat="22.323395" lon="103.771187">
<ele>2452.470703</ele>
<time>2011-04-24T01:20:18Z</time>
<desc>lat.=22.323395, lon.=103.771187, Alt.=2452.470703m. Speed=1.620000m/h.</desc>
<speed>0.450000</speed>
</trkpt>
<trkpt lat="22.323387" lon="103.771164">
<ele>2453.345703</ele>
<time>2011-04-24T01:20:23Z</time>
<desc>lat.=22.323387, lon.=103.771164, Alt.=2453.345703m. Speed=1.620000m/h.</desc>
<speed>0.450000</speed>
</trkpt>
<trkpt lat="22.323372" lon="103.771179">
<ele>2454.658203</ele>
<time>2011-04-24T01:20:28Z</time>
<desc>lat.=22.323372, lon.=103.771179, Alt.=2454.658203m. Speed=2.628000m/h.</desc>
<speed>0.730000</speed>
</trkpt>
<trkpt lat="22.323347" lon="103.771179">
<ele>2455.908203</ele>
<time>2011-04-24T01:20:33Z</time>
<desc>lat.=22.323347, lon.=103.771179, Alt.=2455.908203m. Speed=0.792000m/h.</desc>
<speed>0.220000</speed>
</trkpt>
<trkpt lat="22.323328" lon="103.771172">
<ele>2456.783203</ele>
<time>2011-04-24T01:20:38Z</time>
<desc>lat.=22.323328, lon.=103.771172, Alt.=2456.783203m. Speed=1.224000m/h.</desc>
<speed>0.340000</speed>
</trkpt>
<trkpt lat="22.323330" lon="103.771172">
<ele>2457.095703</ele>
<time>2011-04-24T01:20:43Z</time>
<desc>lat.=22.323330, lon.=103.771172, Alt.=2457.095703m. Speed=0.864000m/h.</desc>
<speed>0.240000</speed>
</trkpt>
<trkpt lat="22.323317" lon="103.771164">
<ele>2457.220703</ele>
<time>2011-04-24T01:20:48Z</time>
<desc>lat.=22.323317, lon.=103.771164, Alt.=2457.220703m. Speed=1.728000m/h.</desc>
<speed>0.480000</speed>
</trkpt>
<trkpt lat="22.323309" lon="103.771149">
<ele>2457.720703</ele>
<time>2011-04-24T01:20:53Z</time>
<desc>lat.=22.323309, lon.=103.771149, Alt.=2457.720703m. Speed=0.432000m/h.</desc>
<speed>0.120000</speed>
</trkpt>
<trkpt lat="22.323299" lon="103.771156">
<ele>2457.908203</ele>
<time>2011-04-24T01:20:58Z</time>
<desc>lat.=22.323299, lon.=103.771156, Alt.=2457.908203m. Speed=1.260000m/h.</desc>
<speed>0.350000</speed>
</trkpt>
<trkpt lat="22.323273" lon="103.771156">
<ele>2457.908203</ele>
<time>2011-04-24T01:21:03Z</time>
<desc>lat.=22.323273, lon.=103.771156, Alt.=2457.908203m. Speed=2.448000m/h.</desc>
<speed>0.680000</speed>
</trkpt>
<trkpt lat="22.323269" lon="103.771164">
<ele>2458.408203</ele>
<time>2011-04-24T01:21:08Z</time>
<desc>lat.=22.323269, lon.=103.771164, Alt.=2458.408203m. Speed=1.188000m/h.</desc>
<speed>0.330000</speed>
</trkpt>
<trkpt lat="22.323261" lon="103.771179">
<ele>2459.345703</ele>
<time>2011-04-24T01:21:13Z</time>
<desc>lat.=22.323261, lon.=103.771179, Alt.=2459.345703m. Speed=1.008000m/h.</desc>
<speed>0.280000</speed>
</trkpt>
<trkpt lat="22.323240" lon="103.771187">
<ele>2459.970703</ele>
<time>2011-04-24T01:21:18Z</time>
<desc>lat.=22.323240, lon.=103.771187, Alt.=2459.970703m. Speed=0.540000m/h.</desc>
<speed>0.150000</speed>
</trkpt>
<trkpt lat="22.323227" lon="103.771179">
<ele>2460.845703</ele>
<time>2011-04-24T01:21:23Z</time>
<desc>lat.=22.323227, lon.=103.771179, Alt.=2460.845703m. Speed=0.432000m/h.</desc>
<speed>0.120000</speed>
</trkpt>
<trkpt lat="22.323221" lon="103.771172">
<ele>2461.220703</ele>
<time>2011-04-24T01:21:28Z</time>
<desc>lat.=22.323221, lon.=103.771172, Alt.=2461.220703m. Speed=1.080000m/h.</desc>
<speed>0.300000</speed>
</trkpt>
<trkpt lat="22.323206" lon="103.771156">
<ele>2461.845703</ele>
<time>2011-04-24T01:21:33Z</time>
<desc>lat.=22.323206, lon.=103.771156, Alt.=2461.845703m. Speed=1.656000m/h.</desc>
<speed>0.460000</speed>
</trkpt>
<trkpt lat="22.323191" lon="103.771133">
<ele>2462.908203</ele>
<time>2011-04-24T01:21:38Z</time>
<desc>lat.=22.323191, lon.=103.771133, Alt.=2462.908203m. Speed=1.908000m/h.</desc>
<speed>0.530000</speed>
</trkpt>
<trkpt lat="22.323154" lon="103.771118">
<ele>2464.283203</ele>
<time>2011-04-24T01:21:43Z</time>
<desc>lat.=22.323154, lon.=103.771118, Alt.=2464.283203m. Speed=2.988000m/h.</desc>
<speed>0.830000</speed>
</trkpt>
<trkpt lat="22.323143" lon="103.771126">
<ele>2465.345703</ele>
<time>2011-04-24T01:21:48Z</time>
<desc>lat.=22.323143, lon.=103.771126, Alt.=2465.345703m. Speed=0.144000m/h.</desc>
<speed>0.040000</speed>
</trkpt>
<trkpt lat="22.323139" lon="103.771118">
<ele>2465.658203</ele>
<time>2011-04-24T01:21:53Z</time>
<desc>lat.=22.323139, lon.=103.771118, Alt.=2465.658203m. Speed=1.404000m/h.</desc>
<speed>0.390000</speed>
</trkpt>
<trkpt lat="22.323126" lon="103.771111">
<ele>2466.283203</ele>
<time>2011-04-24T01:21:58Z</time>
<desc>lat.=22.323126, lon.=103.771111, Alt.=2466.283203m. Speed=0.288000m/h.</desc>
<speed>0.080000</speed>
</trkpt>
<trkpt lat="22.323099" lon="103.771080">
<ele>2466.970703</ele>
<time>2011-04-24T01:22:03Z</time>
<desc>lat.=22.323099, lon.=103.771080, Alt.=2466.970703m. Speed=3.240000m/h.</desc>
<speed>0.900000</speed>
</trkpt>
<trkpt lat="22.323080" lon="103.771065">
<ele>2467.408203</ele>
<time>2011-04-24T01:22:08Z</time>
<desc>lat.=22.323080, lon.=103.771065, Alt.=2467.408203m. Speed=1.764000m/h.</desc>
<speed>0.490000</speed>
</trkpt>
<trkpt lat="22.323053" lon="103.771049">
<ele>2467.783203</ele>
<time>2011-04-24T01:22:13Z</time>
<desc>lat.=22.323053, lon.=103.771049, Alt.=2467.783203m. Speed=1.836000m/h.</desc>
<speed>0.510000</speed>
</trkpt>
<trkpt lat="22.323034" lon="103.771042">
<ele>2468.283203</ele>
<time>2011-04-24T01:22:18Z</time>
<desc>lat.=22.323034, lon.=103.771042, Alt.=2468.283203m. Speed=1.944000m/h.</desc>
<speed>0.540000</speed>
</trkpt>
<trkpt lat="22.323011" lon="103.771004">
<ele>2468.970703</ele>
<time>2011-04-24T01:22:23Z</time>
<desc>lat.=22.323011, lon.=103.771004, Alt.=2468.970703m. Speed=2.952000m/h.</desc>
<speed>0.820000</speed>
</trkpt>
<trkpt lat="22.322952" lon="103.771004">
<ele>2467.908203</ele>
<time>2011-04-24T01:22:28Z</time>
<desc>lat.=22.322952, lon.=103.771004, Alt.=2467.908203m. Speed=5.004000m/h.</desc>
<speed>1.390000</speed>
</trkpt>
<trkpt lat="22.322916" lon="103.770958">
<ele>2468.283203</ele>
<time>2011-04-24T01:22:33Z</time>
<desc>lat.=22.322916, lon.=103.770958, Alt.=2468.283203m. Speed=3.240000m/h.</desc>
<speed>0.900000</speed>
</trkpt>
<trkpt lat="22.322876" lon="103.770935">
<ele>2470.220703</ele>
<time>2011-04-24T01:22:38Z</time>
<desc>lat.=22.322876, lon.=103.770935, Alt.=2470.220703m. Speed=2.880000m/h.</desc>
<speed>0.800000</speed>
</trkpt>
<trkpt lat="22.322828" lon="103.770935">
<ele>2469.595703</ele>
<time>2011-04-24T01:22:43Z</time>
<desc>lat.=22.322828, lon.=103.770935, Alt.=2469.595703m. Speed=5.076000m/h.</desc>
<speed>1.410000</speed>
</trkpt>
<trkpt lat="22.322781" lon="103.770943">
<ele>2469.095703</ele>
<time>2011-04-24T01:22:48Z</time>
<desc>lat.=22.322781, lon.=103.770943, Alt.=2469.095703m. Speed=2.376000m/h.</desc>
<speed>0.660000</speed>
</trkpt>
<trkpt lat="22.322758" lon="103.770943">
<ele>2468.658203</ele>
<time>2011-04-24T01:22:53Z</time>
<desc>lat.=22.322758, lon.=103.770943, Alt.=2468.658203m. Speed=0.324000m/h.</desc>
<speed>0.090000</speed>
</trkpt>
<trkpt lat="22.322758" lon="103.770943">
<ele>2468.158203</ele>
<time>2011-04-24T01:22:58Z</time>
<desc>lat.=22.322758, lon.=103.770943, Alt.=2468.158203m. Speed=0.324000m/h.</desc>
<speed>0.090000</speed>
</trkpt>
<trkpt lat="22.322721" lon="103.770927">
<ele>2468.533203</ele>
<time>2011-04-24T01:23:03Z</time>
<desc>lat.=22.322721, lon.=103.770927, Alt.=2468.533203m. Speed=5.400000m/h.</desc>
<speed>1.500000</speed>
</trkpt>
<trkpt lat="22.322691" lon="103.770874">
<ele>2469.845703</ele>
<time>2011-04-24T01:23:08Z</time>
<desc>lat.=22.322691, lon.=103.770874, Alt.=2469.845703m. Speed=3.744000m/h.</desc>
<speed>1.040000</speed>
</trkpt>
<trkpt lat="22.322668" lon="103.770836">
<ele>2471.033203</ele>
<time>2011-04-24T01:23:13Z</time>
<desc>lat.=22.322668, lon.=103.770836, Alt.=2471.033203m. Speed=2.520000m/h.</desc>
<speed>0.700000</speed>
</trkpt>
<trkpt lat="22.322649" lon="103.770805">
<ele>2472.720703</ele>
<time>2011-04-24T01:23:18Z</time>
<desc>lat.=22.322649, lon.=103.770805, Alt.=2472.720703m. Speed=2.736000m/h.</desc>
<speed>0.760000</speed>
</trkpt>
<trkpt lat="22.322624" lon="103.770775">
<ele>2473.970703</ele>
<time>2011-04-24T01:23:23Z</time>
<desc>lat.=22.322624, lon.=103.770775, Alt.=2473.970703m. Speed=3.204000m/h.</desc>
<speed>0.890000</speed>
</trkpt>
<trkpt lat="22.322613" lon="103.770752">
<ele>2475.095703</ele>
<time>2011-04-24T01:23:28Z</time>
<desc>lat.=22.322613, lon.=103.770752, Alt.=2475.095703m. Speed=1.512000m/h.</desc>
<speed>0.420000</speed>
</trkpt>
<trkpt lat="22.322594" lon="103.770744">
<ele>2476.158203</ele>
<time>2011-04-24T01:23:33Z</time>
<desc>lat.=22.322594, lon.=103.770744, Alt.=2476.158203m. Speed=1.692000m/h.</desc>
<speed>0.470000</speed>
</trkpt>
<trkpt lat="22.322605" lon="103.770721">
<ele>2477.908203</ele>
<time>2011-04-24T01:23:38Z</time>
<desc>lat.=22.322605, lon.=103.770721, Alt.=2477.908203m. Speed=1.512000m/h.</desc>
<speed>0.420000</speed>
</trkpt>
<trkpt lat="22.322582" lon="103.770706">
<ele>2478.533203</ele>
<time>2011-04-24T01:23:43Z</time>
<desc>lat.=22.322582, lon.=103.770706, Alt.=2478.533203m. Speed=2.700000m/h.</desc>
<speed>0.750000</speed>
</trkpt>
<trkpt lat="22.322573" lon="103.770683">
<ele>2478.970703</ele>
<time>2011-04-24T01:23:48Z</time>
<desc>lat.=22.322573, lon.=103.770683, Alt.=2478.970703m. Speed=1.548000m/h.</desc>
<speed>0.430000</speed>
</trkpt>
<trkpt lat="22.322563" lon="103.770676">
<ele>2479.158203</ele>
<time>2011-04-24T01:23:53Z</time>
<desc>lat.=22.322563, lon.=103.770676, Alt.=2479.158203m. Speed=0.756000m/h.</desc>
<speed>0.210000</speed>
</trkpt>
<trkpt lat="22.322546" lon="103.770668">
<ele>2479.595703</ele>
<time>2011-04-24T01:23:58Z</time>
<desc>lat.=22.322546, lon.=103.770668, Alt.=2479.595703m. Speed=1.296000m/h.</desc>
<speed>0.360000</speed>
</trkpt>
<trkpt lat="22.322523" lon="103.770699">
<ele>2479.720703</ele>
<time>2011-04-24T01:24:03Z</time>
<desc>lat.=22.322523, lon.=103.770699, Alt.=2479.720703m. Speed=2.016000m/h.</desc>
<speed>0.560000</speed>
</trkpt>
<trkpt lat="22.322504" lon="103.770729">
<ele>2479.783203</ele>
<time>2011-04-24T01:24:08Z</time>
<desc>lat.=22.322504, lon.=103.770729, Alt.=2479.783203m. Speed=1.584000m/h.</desc>
<speed>0.440000</speed>
</trkpt>
<trkpt lat="22.322523" lon="103.770752">
<ele>2480.658203</ele>
<time>2011-04-24T01:24:13Z</time>
<desc>lat.=22.322523, lon.=103.770752, Alt.=2480.658203m. Speed=1.188000m/h.</desc>
<speed>0.330000</speed>
</trkpt>
<trkpt lat="22.322512" lon="103.770767">
<ele>2480.533203</ele>
<time>2011-04-24T01:24:18Z</time>
<desc>lat.=22.322512, lon.=103.770767, Alt.=2480.533203m. Speed=1.440000m/h.</desc>
<speed>0.400000</speed>
</trkpt>
<trkpt lat="22.322527" lon="103.770775">
<ele>2480.970703</ele>
<time>2011-04-24T01:24:23Z</time>
<desc>lat.=22.322527, lon.=103.770775, Alt.=2480.970703m. Speed=1.440000m/h.</desc>
<speed>0.400000</speed>
</trkpt>
<trkpt lat="22.322525" lon="103.770805">
<ele>2481.033203</ele>
<time>2011-04-24T01:24:28Z</time>
<desc>lat.=22.322525, lon.=103.770805, Alt.=2481.033203m. Speed=1.980000m/h.</desc>
<speed>0.550000</speed>
</trkpt>
<trkpt lat="22.322496" lon="103.770866">
<ele>2481.470703</ele>
<time>2011-04-24T01:24:33Z</time>
<desc>lat.=22.322496, lon.=103.770866, Alt.=2481.470703m. Speed=2.592000m/h.</desc>
<speed>0.720000</speed>
</trkpt>
<trkpt lat="22.322493" lon="103.770874">
<ele>2481.845703</ele>
<time>2011-04-24T01:24:38Z</time>
<desc>lat.=22.322493, lon.=103.770874, Alt.=2481.845703m. Speed=1.044000m/h.</desc>
<speed>0.290000</speed>
</trkpt>
<trkpt lat="22.322495" lon="103.770882">
<ele>2482.095703</ele>
<time>2011-04-24T01:24:43Z</time>
<desc>lat.=22.322495, lon.=103.770882, Alt.=2482.095703m. Speed=0.972000m/h.</desc>
<speed>0.270000</speed>
</trkpt>
<trkpt lat="22.322500" lon="103.770912">
<ele>2482.283203</ele>
<time>2011-04-24T01:24:48Z</time>
<desc>lat.=22.322500, lon.=103.770912, Alt.=2482.283203m. Speed=2.844000m/h.</desc>
<speed>0.790000</speed>
</trkpt>
<trkpt lat="22.322504" lon="103.770935">
<ele>2482.533203</ele>
<time>2011-04-24T01:24:53Z</time>
<desc>lat.=22.322504, lon.=103.770935, Alt.=2482.533203m. Speed=0.792000m/h.</desc>
<speed>0.220000</speed>
</trkpt>
<trkpt lat="22.322502" lon="103.770935">
<ele>2482.845703</ele>
<time>2011-04-24T01:24:58Z</time>
<desc>lat.=22.322502, lon.=103.770935, Alt.=2482.845703m. Speed=0.756000m/h.</desc>
<speed>0.210000</speed>
</trkpt>
<trkpt lat="22.322498" lon="103.770935">
<ele>2482.845703</ele>
<time>2011-04-24T01:25:03Z</time>
<desc>lat.=22.322498, lon.=103.770935, Alt.=2482.845703m. Speed=0.144000m/h.</desc>
<speed>0.040000</speed>
</trkpt>
<trkpt lat="22.322495" lon="103.770935">
<ele>2482.783203</ele>
<time>2011-04-24T01:25:08Z</time>
<desc>lat.=22.322495, lon.=103.770935, Alt.=2482.783203m. Speed=0.540000m/h.</desc>
<speed>0.150000</speed>
</trkpt>
<trkpt lat="22.322495" lon="103.770927">
<ele>2482.783203</ele>
<time>2011-04-24T01:25:13Z</time>
<desc>lat.=22.322495, lon.=103.770927, Alt.=2482.783203m. Speed=1.260000m/h.</desc>
<speed>0.350000</speed>
</trkpt>
<trkpt lat="22.322502" lon="103.770935">
<ele>2482.720703</ele>
<time>2011-04-24T01:25:18Z</time>
<desc>lat.=22.322502, lon.=103.770935, Alt.=2482.720703m. Speed=0.108000m/h.</desc>
<speed>0.030000</speed>
</trkpt>
<trkpt lat="22.322504" lon="103.770943">
<ele>2482.845703</ele>
<time>2011-04-24T01:25:23Z</time>
<desc>lat.=22.322504, lon.=103.770943, Alt.=2482.845703m. Speed=0.864000m/h.</desc>
<speed>0.240000</speed>
</trkpt>
<trkpt lat="22.322493" lon="103.770966">
<ele>2483.033203</ele>
<time>2011-04-24T01:25:28Z</time>
<desc>lat.=22.322493, lon.=103.770966, Alt.=2483.033203m. Speed=0.864000m/h.</desc>
<speed>0.240000</speed>
</trkpt>
<trkpt lat="22.322487" lon="103.770981">
<ele>2483.158203</ele>
<time>2011-04-24T01:25:33Z</time>
<desc>lat.=22.322487, lon.=103.770981, Alt.=2483.158203m. Speed=0.828000m/h.</desc>
<speed>0.230000</speed>
</trkpt>
<trkpt lat="22.322472" lon="103.770966">
<ele>2483.470703</ele>
<time>2011-04-24T01:25:38Z</time>
<desc>lat.=22.322472, lon.=103.770966, Alt.=2483.470703m. Speed=0.720000m/h.</desc>
<speed>0.200000</speed>
</trkpt>
<trkpt lat="22.322468" lon="103.770966">
<ele>2484.720703</ele>
<time>2011-04-24T01:25:43Z</time>
<desc>lat.=22.322468, lon.=103.770966, Alt.=2484.720703m. Speed=0.288000m/h.</desc>
<speed>0.080000</speed>
</trkpt>
<trkpt lat="22.322466" lon="103.770966">
<ele>2484.908203</ele>
<time>2011-04-24T01:25:48Z</time>
<desc>lat.=22.322466, lon.=103.770966, Alt.=2484.908203m. Speed=0.108000m/h.</desc>
<speed>0.030000</speed>
</trkpt>
<trkpt lat="22.322466" lon="103.770966">
<ele>2484.970703</ele>
<time>2011-04-24T01:25:53Z</time>
<desc>lat.=22.322466, lon.=103.770966, Alt.=2484.970703m. Speed=0.144000m/h.</desc>
<speed>0.040000</speed>
</trkpt>
<trkpt lat="22.322466" lon="103.770966">
<ele>2485.033203</ele>
<time>2011-04-24T01:25:58Z</time>
<desc>lat.=22.322466, lon.=103.770966, Alt.=2485.033203m. Speed=0.036000m/h.</desc>
<speed>0.010000</speed>
</trkpt>
<trkpt lat="22.322466" lon="103.770966">
<ele>2485.033203</ele>
<time>2011-04-24T01:26:03Z</time>
<desc>lat.=22.322466, lon.=103.770966, Alt.=2485.033203m. Speed=0.000000m/h.</desc>
<speed>0.000000</speed>
</trkpt>
<trkpt lat="22.322466" lon="103.770966">
<ele>2485.033203</ele>
<time>2011-04-24T01:26:08Z</time>
<desc>lat.=22.322466, lon.=103.770966, Alt.=2485.033203m. Speed=0.252000m/h.</desc>
<speed>0.070000</speed>
</trkpt>
<trkpt lat="22.322466" lon="103.770966">
<ele>2485.095703</ele>
<time>2011-04-24T01:26:13Z</time>
<desc>lat.=22.322466, lon.=103.770966, Alt.=2485.095703m. Speed=0.036000m/h.</desc>
<speed>0.010000</speed>
</trkpt>
<trkpt lat="22.322466" lon="103.770966">
<ele>2485.095703</ele>
<time>2011-04-24T01:26:18Z</time>
<desc>lat.=22.322466, lon.=103.770966, Alt.=2485.095703m. Speed=0.036000m/h.</desc>
<speed>0.010000</speed>
</trkpt>
<trkpt lat="22.322466" lon="103.770966">
<ele>2485.095703</ele>
<time>2011-04-24T01:26:23Z</time>
<desc>lat.=22.322466, lon.=103.770966, Alt.=2485.095703m. Speed=0.000000m/h.</desc>
<speed>0.000000</speed>
</trkpt>
<trkpt lat="22.322466" lon="103.770966">
<ele>2485.158203</ele>
<time>2011-04-24T01:26:28Z</time>
<desc>lat.=22.322466, lon.=103.770966, Alt.=2485.158203m. Speed=0.144000m/h.</desc>
<speed>0.040000</speed>
</trkpt>
<trkpt lat="22.322460" lon="103.770966">
<ele>2485.220703</ele>
<time>2011-04-24T01:26:33Z</time>
<desc>lat.=22.322460, lon.=103.770966, Alt.=2485.220703m. Speed=0.576000m/h.</desc>
<speed>0.160000</speed>
</trkpt>
<trkpt lat="22.322449" lon="103.770958">
<ele>2485.845703</ele>
<time>2011-04-24T01:26:38Z</time>
<desc>lat.=22.322449, lon.=103.770958, Alt.=2485.845703m. Speed=1.080000m/h.</desc>
<speed>0.300000</speed>
</trkpt>
<trkpt lat="22.322422" lon="103.770943">
<ele>2488.158203</ele>
<time>2011-04-24T01:26:43Z</time>
<desc>lat.=22.322422, lon.=103.770943, Alt.=2488.158203m. Speed=1.620000m/h.</desc>
<speed>0.450000</speed>
</trkpt>
<trkpt lat="22.322397" lon="103.770927">
<ele>2489.970703</ele>
<time>2011-04-24T01:26:48Z</time>
<desc>lat.=22.322397, lon.=103.770927, Alt.=2489.970703m. Speed=1.332000m/h.</desc>
<speed>0.370000</speed>
</trkpt>
<trkpt lat="22.322380" lon="103.770920">
<ele>2492.345703</ele>
<time>2011-04-24T01:26:53Z</time>
<desc>lat.=22.322380, lon.=103.770920, Alt.=2492.345703m. Speed=0.720000m/h.</desc>
<speed>0.200000</speed>
</trkpt>
<trkpt lat="22.322357" lon="103.770912">
<ele>2493.158203</ele>
<time>2011-04-24T01:26:58Z</time>
<desc>lat.=22.322357, lon.=103.770912, Alt.=2493.158203m. Speed=2.088000m/h.</desc>
<speed>0.580000</speed>
</trkpt>
<trkpt lat="22.322353" lon="103.770905">
<ele>2494.345703</ele>
<time>2011-04-24T01:27:03Z</time>
<desc>lat.=22.322353, lon.=103.770905, Alt.=2494.345703m. Speed=0.216000m/h.</desc>
<speed>0.060000</speed>
</trkpt>
<trkpt lat="22.322344" lon="103.770897">
<ele>2496.533203</ele>
<time>2011-04-24T01:27:08Z</time>
<desc>lat.=22.322344, lon.=103.770897, Alt.=2496.533203m. Speed=0.180000m/h.</desc>
<speed>0.050000</speed>
</trkpt>
<trkpt lat="22.322327" lon="103.770882">
<ele>2498.033203</ele>
<time>2011-04-24T01:27:13Z</time>
<desc>lat.=22.322327, lon.=103.770882, Alt.=2498.033203m. Speed=1.296000m/h.</desc>
<speed>0.360000</speed>
</trkpt>
<trkpt lat="22.322315" lon="103.770851">
<ele>2499.408203</ele>
<time>2011-04-24T01:27:18Z</time>
<desc>lat.=22.322315, lon.=103.770851, Alt.=2499.408203m. Speed=2.412000m/h.</desc>
<speed>0.670000</speed>
</trkpt>
<trkpt lat="22.322300" lon="103.770828">
<ele>2500.095703</ele>
<time>2011-04-24T01:27:23Z</time>
<desc>lat.=22.322300, lon.=103.770828, Alt.=2500.095703m. Speed=2.340000m/h.</desc>
<speed>0.650000</speed>
</trkpt>
<trkpt lat="22.322294" lon="103.770805">
<ele>2500.720703</ele>
<time>2011-04-24T01:27:28Z</time>
<desc>lat.=22.322294, lon.=103.770805, Alt.=2500.720703m. Speed=1.728000m/h.</desc>
<speed>0.480000</speed>
</trkpt>
<trkpt lat="22.322287" lon="103.770790">
<ele>2501.408203</ele>
<time>2011-04-24T01:27:33Z</time>
<desc>lat.=22.322287, lon.=103.770790, Alt.=2501.408203m. Speed=1.296000m/h.</desc>
<speed>0.360000</speed>
</trkpt>
<trkpt lat="22.322287" lon="103.770782">
<ele>2502.470703</ele>
<time>2011-04-24T01:27:38Z</time>
<desc>lat.=22.322287, lon.=103.770782, Alt.=2502.470703m. Speed=1.332000m/h.</desc>
<speed>0.370000</speed>
</trkpt>
<trkpt lat="22.322290" lon="103.770782">
<ele>2503.095703</ele>
<time>2011-04-24T01:27:43Z</time>
<desc>lat.=22.322290, lon.=103.770782, Alt.=2503.095703m. Speed=0.468000m/h.</desc>
<speed>0.130000</speed>
</trkpt>
<trkpt lat="22.322290" lon="103.770782">
<ele>2503.095703</ele>
<time>2011-04-24T01:27:48Z</time>
<desc>lat.=22.322290, lon.=103.770782, Alt.=2503.095703m. Speed=0.144000m/h.</desc>
<speed>0.040000</speed>
</trkpt>
<trkpt lat="22.322256" lon="103.770782">
<ele>2503.533203</ele>
<time>2011-04-24T01:27:53Z</time>
<desc>lat.=22.322256, lon.=103.770782, Alt.=2503.533203m. Speed=2.520000m/h.</desc>
<speed>0.700000</speed>
</trkpt>
<trkpt lat="22.322239" lon="103.770798">
<ele>2503.533203</ele>
<time>2011-04-24T01:27:58Z</time>
<desc>lat.=22.322239, lon.=103.770798, Alt.=2503.533203m. Speed=2.520000m/h.</desc>
<speed>0.700000</speed>
</trkpt>
<trkpt lat="22.322187" lon="103.770821">
<ele>2504.345703</ele>
<time>2011-04-24T01:28:03Z</time>
<desc>lat.=22.322187, lon.=103.770821, Alt.=2504.345703m. Speed=3.960000m/h.</desc>
<speed>1.100000</speed>
</trkpt>
<trkpt lat="22.322153" lon="103.770828">
<ele>2505.158203</ele>
<time>2011-04-24T01:28:08Z</time>
<desc>lat.=22.322153, lon.=103.770828, Alt.=2505.158203m. Speed=2.988000m/h.</desc>
<speed>0.830000</speed>
</trkpt>
<trkpt lat="22.322119" lon="103.770821">
<ele>2505.533203</ele>
<time>2011-04-24T01:28:13Z</time>
<desc>lat.=22.322119, lon.=103.770821, Alt.=2505.533203m. Speed=2.340000m/h.</desc>
<speed>0.650000</speed>
</trkpt>
<trkpt lat="22.322090" lon="103.770805">
<ele>2506.720703</ele>
<time>2011-04-24T01:28:18Z</time>
<desc>lat.=22.322090, lon.=103.770805, Alt.=2506.720703m. Speed=1.872000m/h.</desc>
<speed>0.520000</speed>
</trkpt>
<trkpt lat="22.322081" lon="103.770805">
<ele>2508.158203</ele>
<time>2011-04-24T01:28:23Z</time>
<desc>lat.=22.322081, lon.=103.770805, Alt.=2508.158203m. Speed=0.648000m/h.</desc>
<speed>0.180000</speed>
</trkpt>
<trkpt lat="22.322060" lon="103.770821">
<ele>2508.845703</ele>
<time>2011-04-24T01:28:28Z</time>
<desc>lat.=22.322060, lon.=103.770821, Alt.=2508.845703m. Speed=2.484000m/h.</desc>
<speed>0.690000</speed>
</trkpt>
<trkpt lat="22.322042" lon="103.770859">
<ele>2510.408203</ele>
<time>2011-04-24T01:28:33Z</time>
<desc>lat.=22.322042, lon.=103.770859, Alt.=2510.408203m. Speed=2.916000m/h.</desc>
<speed>0.810000</speed>
</trkpt>
<trkpt lat="22.322029" lon="103.770859">
<ele>2511.783203</ele>
<time>2011-04-24T01:28:38Z</time>
<desc>lat.=22.322029, lon.=103.770859, Alt.=2511.783203m. Speed=2.628000m/h.</desc>
<speed>0.730000</speed>
</trkpt>
<trkpt lat="22.322025" lon="103.770874">
<ele>2512.533203</ele>
<time>2011-04-24T01:28:43Z</time>
<desc>lat.=22.322025, lon.=103.770874, Alt.=2512.533203m. Speed=1.656000m/h.</desc>
<speed>0.460000</speed>
</trkpt>
<trkpt lat="22.322020" lon="103.770897">
<ele>2514.720703</ele>
<time>2011-04-24T01:28:48Z</time>
<desc>lat.=22.322020, lon.=103.770897, Alt.=2514.720703m. Speed=1.836000m/h.</desc>
<speed>0.510000</speed>
</trkpt>
<trkpt lat="22.321993" lon="103.770905">
<ele>2515.595703</ele>
<time>2011-04-24T01:28:53Z</time>
<desc>lat.=22.321993, lon.=103.770905, Alt.=2515.595703m. Speed=3.492000m/h.</desc>
<speed>0.970000</speed>
</trkpt>
<trkpt lat="22.321959" lon="103.770905">
<ele>2516.470703</ele>
<time>2011-04-24T01:28:58Z</time>
<desc>lat.=22.321959, lon.=103.770905, Alt.=2516.470703m. Speed=1.548000m/h.</desc>
<speed>0.430000</speed>
</trkpt>
<trkpt lat="22.321949" lon="103.770897">
<ele>2516.595703</ele>
<time>2011-04-24T01:29:03Z</time>
<desc>lat.=22.321949, lon.=103.770897, Alt.=2516.595703m. Speed=0.864000m/h.</desc>
<speed>0.240000</speed>
</trkpt>
<trkpt lat="22.321918" lon="103.770889">
<ele>2517.595703</ele>
<time>2011-04-24T01:29:08Z</time>
<desc>lat.=22.321918, lon.=103.770889, Alt.=2517.595703m. Speed=2.412000m/h.</desc>
<speed>0.670000</speed>
</trkpt>
<trkpt lat="22.321905" lon="103.770889">
<ele>2518.908203</ele>
<time>2011-04-24T01:29:13Z</time>
<desc>lat.=22.321905, lon.=103.770889, Alt.=2518.908203m. Speed=0.432000m/h.</desc>
<speed>0.120000</speed>
</trkpt>
<trkpt lat="22.321888" lon="103.770889">
<ele>2520.845703</ele>
<time>2011-04-24T01:29:18Z</time>
<desc>lat.=22.321888, lon.=103.770889, Alt.=2520.845703m. Speed=1.656000m/h.</desc>
<speed>0.460000</speed>
</trkpt>
<trkpt lat="22.321871" lon="103.770889">
<ele>2522.845703</ele>
<time>2011-04-24T01:29:23Z</time>
<desc>lat.=22.321871, lon.=103.770889, Alt.=2522.845703m. Speed=1.008000m/h.</desc>
<speed>0.280000</speed>
</trkpt>
<trkpt lat="22.321871" lon="103.770897">
<ele>2523.408203</ele>
<time>2011-04-24T01:29:28Z</time>
<desc>lat.=22.321871, lon.=103.770897, Alt.=2523.408203m. Speed=0.540000m/h.</desc>
<speed>0.150000</speed>
</trkpt>
<trkpt lat="22.321865" lon="103.770905">
<ele>2523.970703</ele>
<time>2011-04-24T01:29:33Z</time>
<desc>lat.=22.321865, lon.=103.770905, Alt.=2523.970703m. Speed=1.872000m/h.</desc>
<speed>0.520000</speed>
</trkpt>
<trkpt lat="22.321850" lon="103.770920">
<ele>2524.783203</ele>
<time>2011-04-24T01:29:38Z</time>
<desc>lat.=22.321850, lon.=103.770920, Alt.=2524.783203m. Speed=2.196000m/h.</desc>
<speed>0.610000</speed>
</trkpt>
<trkpt lat="22.321833" lon="103.770935">
<ele>2525.158203</ele>
<time>2011-04-24T01:29:43Z</time>
<desc>lat.=22.321833, lon.=103.770935, Alt.=2525.158203m. Speed=1.368000m/h.</desc>
<speed>0.380000</speed>
</trkpt>
<trkpt lat="22.321815" lon="103.770935">
<ele>2526.033203</ele>
<time>2011-04-24T01:29:48Z</time>
<desc>lat.=22.321815, lon.=103.770935, Alt.=2526.033203m. Speed=1.044000m/h.</desc>
<speed>0.290000</speed>
</trkpt>
<trkpt lat="22.321789" lon="103.770943">
<ele>2527.783203</ele>
<time>2011-04-24T01:29:53Z</time>
<desc>lat.=22.321789, lon.=103.770943, Alt.=2527.783203m. Speed=1.260000m/h.</desc>
<speed>0.350000</speed>
</trkpt>
<trkpt lat="22.321775" lon="103.770950">
<ele>2528.970703</ele>
<time>2011-04-24T01:29:58Z</time>
<desc>lat.=22.321775, lon.=103.770950, Alt.=2528.970703m. Speed=0.900000m/h.</desc>
<speed>0.250000</speed>
</trkpt>
<trkpt lat="22.321762" lon="103.770950">
<ele>2529.658203</ele>
<time>2011-04-24T01:30:03Z</time>
<desc>lat.=22.321762, lon.=103.770950, Alt.=2529.658203m. Speed=0.432000m/h.</desc>
<speed>0.120000</speed>
</trkpt>
<trkpt lat="22.321745" lon="103.770950">
<ele>2530.220703</ele>
<time>2011-04-24T01:30:08Z</time>
<desc>lat.=22.321745, lon.=103.770950, Alt.=2530.220703m. Speed=2.016000m/h.</desc>
<speed>0.560000</speed>
</trkpt>
<trkpt lat="22.321730" lon="103.770958">
<ele>2531.970703</ele>
<time>2011-04-24T01:30:13Z</time>
<desc>lat.=22.321730, lon.=103.770958, Alt.=2531.970703m. Speed=0.360000m/h.</desc>
<speed>0.100000</speed>
</trkpt>
<trkpt lat="22.321728" lon="103.770958">
<ele>2532.283203</ele>
<time>2011-04-24T01:30:18Z</time>
<desc>lat.=22.321728, lon.=103.770958, Alt.=2532.283203m. Speed=1.368000m/h.</desc>
<speed>0.380000</speed>
</trkpt>
<trkpt lat="22.321711" lon="103.770950">
<ele>2532.970703</ele>
<time>2011-04-24T01:30:23Z</time>
<desc>lat.=22.321711, lon.=103.770950, Alt.=2532.970703m. Speed=1.656000m/h.</desc>
<speed>0.460000</speed>
</trkpt>
<trkpt lat="22.321711" lon="103.770950">
<ele>2533.595703</ele>
<time>2011-04-24T01:30:28Z</time>
<desc>lat.=22.321711, lon.=103.770950, Alt.=2533.595703m. Speed=0.396000m/h.</desc>
<speed>0.110000</speed>
</trkpt>
<trkpt lat="22.321707" lon="103.770950">
<ele>2533.720703</ele>
<time>2011-04-24T01:30:33Z</time>
<desc>lat.=22.321707, lon.=103.770950, Alt.=2533.720703m. Speed=0.576000m/h.</desc>
<speed>0.160000</speed>
</trkpt>
<trkpt lat="22.321701" lon="103.770943">
<ele>2533.970703</ele>
<time>2011-04-24T01:30:38Z</time>
<desc>lat.=22.321701, lon.=103.770943, Alt.=2533.970703m. Speed=0.720000m/h.</desc>
<speed>0.200000</speed>
</trkpt>
<trkpt lat="22.321688" lon="103.770950">
<ele>2534.658203</ele>
<time>2011-04-24T01:30:43Z</time>
<desc>lat.=22.321688, lon.=103.770950, Alt.=2534.658203m. Speed=2.124000m/h.</desc>
<speed>0.590000</speed>
</trkpt>
<trkpt lat="22.321678" lon="103.770943">
<ele>2535.408203</ele>
<time>2011-04-24T01:30:48Z</time>
<desc>lat.=22.321678, lon.=103.770943, Alt.=2535.408203m. Speed=1.044000m/h.</desc>
<speed>0.290000</speed>
</trkpt>
<trkpt lat="22.321659" lon="103.770943">
<ele>2535.908203</ele>
<time>2011-04-24T01:30:53Z</time>
<desc>lat.=22.321659, lon.=103.770943, Alt.=2535.908203m. Speed=1.836000m/h.</desc>
<speed>0.510000</speed>
</trkpt>
<trkpt lat="22.321650" lon="103.770935">
<ele>2536.783203</ele>
<time>2011-04-24T01:30:58Z</time>
<desc>lat.=22.321650, lon.=103.770935, Alt.=2536.783203m. Speed=1.260000m/h.</desc>
<speed>0.350000</speed>
</trkpt>
<trkpt lat="22.321640" lon="103.770935">
<ele>2537.908203</ele>
<time>2011-04-24T01:31:03Z</time>
<desc>lat.=22.321640, lon.=103.770935, Alt.=2537.908203m. Speed=0.720000m/h.</desc>
<speed>0.200000</speed>
</trkpt>
<trkpt lat="22.321627" lon="103.770920">
<ele>2538.533203</ele>
<time>2011-04-24T01:31:08Z</time>
<desc>lat.=22.321627, lon.=103.770920, Alt.=2538.533203m. Speed=1.332000m/h.</desc>
<speed>0.370000</speed>
</trkpt>
<trkpt lat="22.321602" lon="103.770905">
<ele>2539.595703</ele>
<time>2011-04-24T01:31:13Z</time>
<desc>lat.=22.321602, lon.=103.770905, Alt.=2539.595703m. Speed=1.224000m/h.</desc>
<speed>0.340000</speed>
</trkpt>
<trkpt lat="22.321585" lon="103.770897">
<ele>2540.658203</ele>
<time>2011-04-24T01:31:18Z</time>
<desc>lat.=22.321585, lon.=103.770897, Alt.=2540.658203m. Speed=1.116000m/h.</desc>
<speed>0.310000</speed>
</trkpt>
<trkpt lat="22.321583" lon="103.770905">
<ele>2541.658203</ele>
<time>2011-04-24T01:31:23Z</time>
<desc>lat.=22.321583, lon.=103.770905, Alt.=2541.658203m. Speed=0.144000m/h.</desc>
<speed>0.040000</speed>
</trkpt>
<trkpt lat="22.321556" lon="103.770912">
<ele>2542.658203</ele>
<time>2011-04-24T01:31:28Z</time>
<desc>lat.=22.321556, lon.=103.770912, Alt.=2542.658203m. Speed=2.484000m/h.</desc>
<speed>0.690000</speed>
</trkpt>
<trkpt lat="22.321543" lon="103.770912">
<ele>2543.095703</ele>
<time>2011-04-24T01:31:33Z</time>
<desc>lat.=22.321543, lon.=103.770912, Alt.=2543.095703m. Speed=1.224000m/h.</desc>
<speed>0.340000</speed>
</trkpt>
<trkpt lat="22.321539" lon="103.770912">
<ele>2543.470703</ele>
<time>2011-04-24T01:31:38Z</time>
<desc>lat.=22.321539, lon.=103.770912, Alt.=2543.470703m. Speed=0.828000m/h.</desc>
<speed>0.230000</speed>
</trkpt>
<trkpt lat="22.321533" lon="103.770935">
<ele>2543.845703</ele>
<time>2011-04-24T01:31:43Z</time>
<desc>lat.=22.321533, lon.=103.770935, Alt.=2543.845703m. Speed=1.656000m/h.</desc>
<speed>0.460000</speed>
</trkpt>
<trkpt lat="22.321522" lon="103.770927">
<ele>2545.033203</ele>
<time>2011-04-24T01:31:48Z</time>
<desc>lat.=22.321522, lon.=103.770927, Alt.=2545.033203m. Speed=0.504000m/h.</desc>
<speed>0.140000</speed>
</trkpt>
<trkpt lat="22.321520" lon="103.770920">
<ele>2545.283203</ele>
<time>2011-04-24T01:31:53Z</time>
<desc>lat.=22.321520, lon.=103.770920, Alt.=2545.283203m. Speed=1.080000m/h.</desc>
<speed>0.300000</speed>
</trkpt>
<trkpt lat="22.321480" lon="103.770905">
<ele>2545.783203</ele>
<time>2011-04-24T01:31:58Z</time>
<desc>lat.=22.321480, lon.=103.770905, Alt.=2545.783203m. Speed=2.376000m/h.</desc>
<speed>0.660000</speed>
</trkpt>
<trkpt lat="22.321442" lon="103.770897">
<ele>2547.470703</ele>
<time>2011-04-24T01:32:03Z</time>
<desc>lat.=22.321442, lon.=103.770897, Alt.=2547.470703m. Speed=2.268000m/h.</desc>
<speed>0.630000</speed>
</trkpt>
<trkpt lat="22.321424" lon="103.770920">
<ele>2549.908203</ele>
<time>2011-04-24T01:32:08Z</time>
<desc>lat.=22.321424, lon.=103.770920, Alt.=2549.908203m. Speed=1.764000m/h.</desc>
<speed>0.490000</speed>
</trkpt>
<trkpt lat="22.321400" lon="103.770927">
<ele>2551.220703</ele>
<time>2011-04-24T01:32:13Z</time>
<desc>lat.=22.321400, lon.=103.770927, Alt.=2551.220703m. Speed=1.332000m/h.</desc>
<speed>0.370000</speed>
</trkpt>
<trkpt lat="22.321386" lon="103.770927">
<ele>2552.033203</ele>
<time>2011-04-24T01:32:18Z</time>
<desc>lat.=22.321386, lon.=103.770927, Alt.=2552.033203m. Speed=0.432000m/h.</desc>
<speed>0.120000</speed>
</trkpt>
<trkpt lat="22.321363" lon="103.770927">
<ele>2552.283203</ele>
<time>2011-04-24T01:32:23Z</time>
<desc>lat.=22.321363, lon.=103.770927, Alt.=2552.283203m. Speed=1.116000m/h.</desc>
<speed>0.310000</speed>
</trkpt>
<trkpt lat="22.321362" lon="103.770927">
<ele>2552.970703</ele>
<time>2011-04-24T01:32:28Z</time>
<desc>lat.=22.321362, lon.=103.770927, Alt.=2552.970703m. Speed=0.432000m/h.</desc>
<speed>0.120000</speed>
</trkpt>
<trkpt lat="22.321352" lon="103.770927">
<ele>2553.345703</ele>
<time>2011-04-24T01:32:33Z</time>
<desc>lat.=22.321352, lon.=103.770927, Alt.=2553.345703m. Speed=0.468000m/h.</desc>
<speed>0.130000</speed>
</trkpt>
<trkpt lat="22.321339" lon="103.770935">
<ele>2553.408203</ele>
<time>2011-04-24T01:32:38Z</time>
<desc>lat.=22.321339, lon.=103.770935, Alt.=2553.408203m. Speed=2.196000m/h.</desc>
<speed>0.610000</speed>
</trkpt>
<trkpt lat="22.321316" lon="103.770935">
<ele>2554.908203</ele>
<time>2011-04-24T01:32:43Z</time>
<desc>lat.=22.321316, lon.=103.770935, Alt.=2554.908203m. Speed=1.296000m/h.</desc>
<speed>0.360000</speed>
</trkpt>
<trkpt lat="22.321283" lon="103.770950">
<ele>2555.533203</ele>
<time>2011-04-24T01:32:48Z</time>
<desc>lat.=22.321283, lon.=103.770950, Alt.=2555.533203m. Speed=1.512000m/h.</desc>
<speed>0.420000</speed>
</trkpt>
<trkpt lat="22.321281" lon="103.770966">
<ele>2556.908203</ele>
<time>2011-04-24T01:32:53Z</time>
<desc>lat.=22.321281, lon.=103.770966, Alt.=2556.908203m. Speed=1.008000m/h.</desc>
<speed>0.280000</speed>
</trkpt>
<trkpt lat="22.321280" lon="103.770966">
<ele>2557.845703</ele>
<time>2011-04-24T01:32:58Z</time>
<desc>lat.=22.321280, lon.=103.770966, Alt.=2557.845703m. Speed=0.540000m/h.</desc>
<speed>0.150000</speed>
</trkpt>
<trkpt lat="22.321270" lon="103.770973">
<ele>2558.033203</ele>
<time>2011-04-24T01:33:03Z</time>
<desc>lat.=22.321270, lon.=103.770973, Alt.=2558.033203m. Speed=0.648000m/h.</desc>
<speed>0.180000</speed>
</trkpt>
<trkpt lat="22.321243" lon="103.770973">
<ele>2558.720703</ele>
<time>2011-04-24T01:33:08Z</time>
<desc>lat.=22.321243, lon.=103.770973, Alt.=2558.720703m. Speed=2.160000m/h.</desc>
<speed>0.600000</speed>
</trkpt>
<trkpt lat="22.321218" lon="103.770950">
<ele>2559.783203</ele>
<time>2011-04-24T01:33:13Z</time>
<desc>lat.=22.321218, lon.=103.770950, Alt.=2559.783203m. Speed=1.584000m/h.</desc>
<speed>0.440000</speed>
</trkpt>
<trkpt lat="22.321194" lon="103.770935">
<ele>2560.408203</ele>
<time>2011-04-24T01:33:18Z</time>
<desc>lat.=22.321194, lon.=103.770935, Alt.=2560.408203m. Speed=1.332000m/h.</desc>
<speed>0.370000</speed>
</trkpt>
<trkpt lat="22.321173" lon="103.770912">
<ele>2561.845703</ele>
<time>2011-04-24T01:33:23Z</time>
<desc>lat.=22.321173, lon.=103.770912, Alt.=2561.845703m. Speed=2.304000m/h.</desc>
<speed>0.640000</speed>
</trkpt>
<trkpt lat="22.321146" lon="103.770905">
<ele>2563.970703</ele>
<time>2011-04-24T01:33:28Z</time>
<desc>lat.=22.321146, lon.=103.770905, Alt.=2563.970703m. Speed=1.980000m/h.</desc>
<speed>0.550000</speed>
</trkpt>
<trkpt lat="22.321133" lon="103.770905">
<ele>2565.408203</ele>
<time>2011-04-24T01:33:33Z</time>
<desc>lat.=22.321133, lon.=103.770905, Alt.=2565.408203m. Speed=1.404000m/h.</desc>
<speed>0.390000</speed>
</trkpt>
<trkpt lat="22.321131" lon="103.770897">
<ele>2566.033203</ele>
<time>2011-04-24T01:33:38Z</time>
<desc>lat.=22.321131, lon.=103.770897, Alt.=2566.033203m. Speed=0.720000m/h.</desc>
<speed>0.200000</speed>
</trkpt>
<trkpt lat="22.321112" lon="103.770905">
<ele>2566.408203</ele>
<time>2011-04-24T01:33:43Z</time>
<desc>lat.=22.321112, lon.=103.770905, Alt.=2566.408203m. Speed=3.384000m/h.</desc>
<speed>0.940000</speed>
</trkpt>
<trkpt lat="22.321095" lon="103.770912">
<ele>2567.408203</ele>
<time>2011-04-24T01:33:48Z</time>
<desc>lat.=22.321095, lon.=103.770912, Alt.=2567.408203m. Speed=0.324000m/h.</desc>
<speed>0.090000</speed>
</trkpt>
<trkpt lat="22.321075" lon="103.770897">
<ele>2568.345703</ele>
<time>2011-04-24T01:33:53Z</time>
<desc>lat.=22.321075, lon.=103.770897, Alt.=2568.345703m. Speed=1.980000m/h.</desc>
<speed>0.550000</speed>
</trkpt>
<trkpt lat="22.321058" lon="103.770905">
<ele>2569.283203</ele>
<time>2011-04-24T01:33:58Z</time>
<desc>lat.=22.321058, lon.=103.770905, Alt.=2569.283203m. Speed=1.296000m/h.</desc>
<speed>0.360000</speed>
</trkpt>
<trkpt lat="22.321054" lon="103.770905">
<ele>2570.658203</ele>
<time>2011-04-24T01:34:03Z</time>
<desc>lat.=22.321054, lon.=103.770905, Alt.=2570.658203m. Speed=0.684000m/h.</desc>
<speed>0.190000</speed>
</trkpt>
<trkpt lat="22.321047" lon="103.770905">
<ele>2570.908203</ele>
<time>2011-04-24T01:34:08Z</time>
<desc>lat.=22.321047, lon.=103.770905, Alt.=2570.908203m. Speed=1.260000m/h.</desc>
<speed>0.350000</speed>
</trkpt>
<trkpt lat="22.321026" lon="103.770905">
<ele>2571.345703</ele>
<time>2011-04-24T01:34:13Z</time>
<desc>lat.=22.321026, lon.=103.770905, Alt.=2571.345703m. Speed=1.512000m/h.</desc>
<speed>0.420000</speed>
</trkpt>
<trkpt lat="22.321001" lon="103.770897">
<ele>2571.720703</ele>
<time>2011-04-24T01:34:18Z</time>
<desc>lat.=22.321001, lon.=103.770897, Alt.=2571.720703m. Speed=0.936000m/h.</desc>
<speed>0.260000</speed>
</trkpt>
<trkpt lat="22.320972" lon="103.770882">
<ele>2572.595703</ele>
<time>2011-04-24T01:34:23Z</time>
<desc>lat.=22.320972, lon.=103.770882, Alt.=2572.595703m. Speed=1.512000m/h.</desc>
<speed>0.420000</speed>
</trkpt>
<trkpt lat="22.320957" lon="103.770874">
<ele>2573.283203</ele>
<time>2011-04-24T01:34:28Z</time>
<desc>lat.=22.320957, lon.=103.770874, Alt.=2573.283203m. Speed=1.620000m/h.</desc>
<speed>0.450000</speed>
</trkpt>
<trkpt lat="22.320940" lon="103.770844">
<ele>2573.783203</ele>
<time>2011-04-24T01:34:33Z</time>
<desc>lat.=22.320940, lon.=103.770844, Alt.=2573.783203m. Speed=2.088000m/h.</desc>
<speed>0.580000</speed>
</trkpt>
<trkpt lat="22.320910" lon="103.770836">
<ele>2574.345703</ele>
<time>2011-04-24T01:34:38Z</time>
<desc>lat.=22.320910, lon.=103.770836, Alt.=2574.345703m. Speed=1.872000m/h.</desc>
<speed>0.520000</speed>
</trkpt>
<trkpt lat="22.320881" lon="103.770805">
<ele>2575.345703</ele>
<time>2011-04-24T01:34:43Z</time>
<desc>lat.=22.320881, lon.=103.770805, Alt.=2575.345703m. Speed=2.232000m/h.</desc>
<speed>0.620000</speed>
</trkpt>
<trkpt lat="22.320862" lon="103.770782">
<ele>2575.095703</ele>
<time>2011-04-24T01:34:48Z</time>
<desc>lat.=22.320862, lon.=103.770782, Alt.=2575.095703m. Speed=3.420000m/h.</desc>
<speed>0.950000</speed>
</trkpt>
<trkpt lat="22.320827" lon="103.770760">
<ele>2574.595703</ele>
<time>2011-04-24T01:34:53Z</time>
<desc>lat.=22.320827, lon.=103.770760, Alt.=2574.595703m. Speed=3.276000m/h.</desc>
<speed>0.910000</speed>
</trkpt>
<trkpt lat="22.320805" lon="103.770752">
<ele>2575.283203</ele>
<time>2011-04-24T01:34:58Z</time>
<desc>lat.=22.320805, lon.=103.770752, Alt.=2575.283203m. Speed=1.980000m/h.</desc>
<speed>0.550000</speed>
</trkpt>
<trkpt lat="22.320768" lon="103.770760">
<ele>2575.908203</ele>
<time>2011-04-24T01:35:03Z</time>
<desc>lat.=22.320768, lon.=103.770760, Alt.=2575.908203m. Speed=3.348000m/h.</desc>
<speed>0.930000</speed>
</trkpt>
<trkpt lat="22.320738" lon="103.770752">
<ele>2575.845703</ele>
<time>2011-04-24T01:35:08Z</time>
<desc>lat.=22.320738, lon.=103.770752, Alt.=2575.845703m. Speed=2.124000m/h.</desc>
<speed>0.590000</speed>
</trkpt>
<trkpt lat="22.320696" lon="103.770729">
<ele>2575.158203</ele>
<time>2011-04-24T01:35:13Z</time>
<desc>lat.=22.320696, lon.=103.770729, Alt.=2575.158203m. Speed=3.096000m/h.</desc>
<speed>0.860000</speed>
</trkpt>
<trkpt lat="22.320660" lon="103.770714">
<ele>2575.283203</ele>
<time>2011-04-24T01:35:18Z</time>
<desc>lat.=22.320660, lon.=103.770714, Alt.=2575.283203m. Speed=2.916000m/h.</desc>
<speed>0.810000</speed>
</trkpt>
<trkpt lat="22.320646" lon="103.770706">
<ele>2575.658203</ele>
<time>2011-04-24T01:35:23Z</time>
<desc>lat.=22.320646, lon.=103.770706, Alt.=2575.658203m. Speed=0.540000m/h.</desc>
<speed>0.150000</speed>
</trkpt>
<trkpt lat="22.320642" lon="103.770676">
<ele>2575.533203</ele>
<time>2011-04-24T01:35:28Z</time>
<desc>lat.=22.320642, lon.=103.770676, Alt.=2575.533203m. Speed=4.068000m/h.</desc>
<speed>1.130000</speed>
</trkpt>
<trkpt lat="22.320627" lon="103.770607">
<ele>2575.783203</ele>
<time>2011-04-24T01:35:33Z</time>
<desc>lat.=22.320627, lon.=103.770607, Alt.=2575.783203m. Speed=4.176000m/h.</desc>
<speed>1.160000</speed>
</trkpt>
<trkpt lat="22.320627" lon="103.770569">
<ele>2577.158203</ele>
<time>2011-04-24T01:35:38Z</time>
<desc>lat.=22.320627, lon.=103.770569, Alt.=2577.158203m. Speed=3.348000m/h.</desc>
<speed>0.930000</speed>
</trkpt>
<trkpt lat="22.320614" lon="103.770531">
<ele>2577.283203</ele>
<time>2011-04-24T01:35:43Z</time>
<desc>lat.=22.320614, lon.=103.770531, Alt.=2577.283203m. Speed=1.476000m/h.</desc>
<speed>0.410000</speed>
</trkpt>
<trkpt lat="22.320610" lon="103.770508">
<ele>2577.095703</ele>
<time>2011-04-24T01:35:48Z</time>
<desc>lat.=22.320610, lon.=103.770508, Alt.=2577.095703m. Speed=1.152000m/h.</desc>
<speed>0.320000</speed>
</trkpt>
<trkpt lat="22.320610" lon="103.770485">
<ele>2576.533203</ele>
<time>2011-04-24T01:35:53Z</time>
<desc>lat.=22.320610, lon.=103.770485, Alt.=2576.533203m. Speed=3.096000m/h.</desc>
<speed>0.860000</speed>
</trkpt>
<trkpt lat="22.320612" lon="103.770454">
<ele>2575.283203</ele>
<time>2011-04-24T01:35:58Z</time>
<desc>lat.=22.320612, lon.=103.770454, Alt.=2575.283203m. Speed=2.232000m/h.</desc>
<speed>0.620000</speed>
</trkpt>
<trkpt lat="22.320595" lon="103.770432">
<ele>2574.658203</ele>
<time>2011-04-24T01:36:03Z</time>
<desc>lat.=22.320595, lon.=103.770432, Alt.=2574.658203m. Speed=1.476000m/h.</desc>
<speed>0.410000</speed>
</trkpt>
<trkpt lat="22.320608" lon="103.770370">
<ele>2574.533203</ele>
<time>2011-04-24T01:36:08Z</time>
<desc>lat.=22.320608, lon.=103.770370, Alt.=2574.533203m. Speed=2.520000m/h.</desc>
<speed>0.700000</speed>
</trkpt>
<trkpt lat="22.320599" lon="103.770325">
<ele>2574.345703</ele>
<time>2011-04-24T01:36:13Z</time>
<desc>lat.=22.320599, lon.=103.770325, Alt.=2574.345703m. Speed=2.232000m/h.</desc>
<speed>0.620000</speed>
</trkpt>
<trkpt lat="22.320610" lon="103.770294">
<ele>2574.095703</ele>
<time>2011-04-24T01:36:18Z</time>
<desc>lat.=22.320610, lon.=103.770294, Alt.=2574.095703m. Speed=1.044000m/h.</desc>
<speed>0.290000</speed>
</trkpt>
<trkpt lat="22.320604" lon="103.770271">
<ele>2574.845703</ele>
<time>2011-04-24T01:36:23Z</time>
<desc>lat.=22.320604, lon.=103.770271, Alt.=2574.845703m. Speed=1.476000m/h.</desc>
<speed>0.410000</speed>
</trkpt>
<trkpt lat="22.320606" lon="103.770264">
<ele>2575.908203</ele>
<time>2011-04-24T01:36:28Z</time>
<desc>lat.=22.320606, lon.=103.770264, Alt.=2575.908203m. Speed=0.216000m/h.</desc>
<speed>0.060000</speed>
</trkpt>
<trkpt lat="22.320602" lon="103.770256">
<ele>2575.908203</ele>
<time>2011-04-24T01:36:33Z</time>
<desc>lat.=22.320602, lon.=103.770256, Alt.=2575.908203m. Speed=1.224000m/h.</desc>
<speed>0.340000</speed>
</trkpt>
<trkpt lat="22.320585" lon="103.770226">
<ele>2576.220703</ele>
<time>2011-04-24T01:36:38Z</time>
<desc>lat.=22.320585, lon.=103.770226, Alt.=2576.220703m. Speed=1.980000m/h.</desc>
<speed>0.550000</speed>
</trkpt>
<trkpt lat="22.320562" lon="103.770203">
<ele>2576.658203</ele>
<time>2011-04-24T01:36:43Z</time>
<desc>lat.=22.320562, lon.=103.770203, Alt.=2576.658203m. Speed=2.412000m/h.</desc>
<speed>0.670000</speed>
</trkpt>
<trkpt lat="22.320539" lon="103.770187">
<ele>2577.158203</ele>
<time>2011-04-24T01:36:48Z</time>
<desc>lat.=22.320539, lon.=103.770187, Alt.=2577.158203m. Speed=2.052000m/h.</desc>
<speed>0.570000</speed>
</trkpt>
<trkpt lat="22.320528" lon="103.770164">
<ele>2578.470703</ele>
<time>2011-04-24T01:36:53Z</time>
<desc>lat.=22.320528, lon.=103.770164, Alt.=2578.470703m. Speed=1.908000m/h.</desc>
<speed>0.530000</speed>
</trkpt>
<trkpt lat="22.320530" lon="103.770157">
<ele>2579.220703</ele>
<time>2011-04-24T01:36:58Z</time>
<desc>lat.=22.320530, lon.=103.770157, Alt.=2579.220703m. Speed=1.548000m/h.</desc>
<speed>0.430000</speed>
</trkpt>
<trkpt lat="22.320507" lon="103.770149">
<ele>2579.845703</ele>
<time>2011-04-24T01:37:03Z</time>
<desc>lat.=22.320507, lon.=103.770149, Alt.=2579.845703m. Speed=1.728000m/h.</desc>
<speed>0.480000</speed>
</trkpt>
<trkpt lat="22.320490" lon="103.770126">
<ele>2580.158203</ele>
<time>2011-04-24T01:37:08Z</time>
<desc>lat.=22.320490, lon.=103.770126, Alt.=2580.158203m. Speed=1.980000m/h.</desc>
<speed>0.550000</speed>
</trkpt>
<trkpt lat="22.320482" lon="103.770096">
<ele>2581.095703</ele>
<time>2011-04-24T01:37:13Z</time>
<desc>lat.=22.320482, lon.=103.770096, Alt.=2581.095703m. Speed=1.800000m/h.</desc>
<speed>0.500000</speed>
</trkpt>
<trkpt lat="22.320471" lon="103.770073">
<ele>2581.533203</ele>
<time>2011-04-24T01:37:18Z</time>
<desc>lat.=22.320471, lon.=103.770073, Alt.=2581.533203m. Speed=1.512000m/h.</desc>
<speed>0.420000</speed>
</trkpt>
<trkpt lat="22.320454" lon="103.770081">
<ele>2582.970703</ele>
<time>2011-04-24T01:37:23Z</time>
<desc>lat.=22.320454, lon.=103.770081, Alt.=2582.970703m. Speed=1.224000m/h.</desc>
<speed>0.340000</speed>
</trkpt>
<trkpt lat="22.320444" lon="103.770073">
<ele>2584.095703</ele>
<time>2011-04-24T01:37:28Z</time>
<desc>lat.=22.320444, lon.=103.770073, Alt.=2584.095703m. Speed=0.864000m/h.</desc>
<speed>0.240000</speed>
</trkpt>
<trkpt lat="22.320429" lon="103.770058">
<ele>2584.783203</ele>
<time>2011-04-24T01:37:33Z</time>
<desc>lat.=22.320429, lon.=103.770058, Alt.=2584.783203m. Speed=0.648000m/h.</desc>
<speed>0.180000</speed>
</trkpt>
<trkpt lat="22.320421" lon="103.770058">
<ele>2585.283203</ele>
<time>2011-04-24T01:37:38Z</time>
<desc>lat.=22.320421, lon.=103.770058, Alt.=2585.283203m. Speed=0.792000m/h.</desc>
<speed>0.220000</speed>
</trkpt>
<trkpt lat="22.320412" lon="103.770050">
<ele>2585.845703</ele>
<time>2011-04-24T01:37:43Z</time>
<desc>lat.=22.320412, lon.=103.770050, Alt.=2585.845703m. Speed=0.936000m/h.</desc>
<speed>0.260000</speed>
</trkpt>
<trkpt lat="22.320410" lon="103.770058">
<ele>2588.533203</ele>
<time>2011-04-24T01:37:48Z</time>
<desc>lat.=22.320410, lon.=103.770058, Alt.=2588.533203m. Speed=0.972000m/h.</desc>
<speed>0.270000</speed>
</trkpt>
<trkpt lat="22.320414" lon="103.770050">
<ele>2589.908203</ele>
<time>2011-04-24T01:37:53Z</time>
<desc>lat.=22.320414, lon.=103.770050, Alt.=2589.908203m. Speed=0.792000m/h.</desc>
<speed>0.220000</speed>
</trkpt>
<trkpt lat="22.320408" lon="103.770042">
<ele>2590.720703</ele>
<time>2011-04-24T01:37:58Z</time>
<desc>lat.=22.320408, lon.=103.770042, Alt.=2590.720703m. Speed=0.504000m/h.</desc>
<speed>0.140000</speed>
</trkpt>
<trkpt lat="22.320404" lon="103.770035">
<ele>2591.595703</ele>
<time>2011-04-24T01:38:03Z</time>
<desc>lat.=22.320404, lon.=103.770035, Alt.=2591.595703m. Speed=0.612000m/h.</desc>
<speed>0.170000</speed>
</trkpt>
<trkpt lat="22.320383" lon="103.770020">
<ele>2592.470703</ele>
<time>2011-04-24T01:38:08Z</time>
<desc>lat.=22.320383, lon.=103.770020, Alt.=2592.470703m. Speed=1.296000m/h.</desc>
<speed>0.360000</speed>
</trkpt>
<trkpt lat="22.320354" lon="103.770004">
<ele>2592.783203</ele>
<time>2011-04-24T01:38:13Z</time>
<desc>lat.=22.320354, lon.=103.770004, Alt.=2592.783203m. Speed=1.512000m/h.</desc>
<speed>0.420000</speed>
</trkpt>
<trkpt lat="22.320353" lon="103.769981">
<ele>2594.095703</ele>
<time>2011-04-24T01:38:18Z</time>
<desc>lat.=22.320353, lon.=103.769981, Alt.=2594.095703m. Speed=0.972000m/h.</desc>
<speed>0.270000</speed>
</trkpt>
<trkpt lat="22.320335" lon="103.769981">
<ele>2595.220703</ele>
<time>2011-04-24T01:38:23Z</time>
<desc>lat.=22.320335, lon.=103.769981, Alt.=2595.220703m. Speed=0.828000m/h.</desc>
<speed>0.230000</speed>
</trkpt>
<trkpt lat="22.320328" lon="103.769981">
<ele>2596.158203</ele>
<time>2011-04-24T01:38:28Z</time>
<desc>lat.=22.320328, lon.=103.769981, Alt.=2596.158203m. Speed=0.540000m/h.</desc>
<speed>0.150000</speed>
</trkpt>
<trkpt lat="22.320326" lon="103.769981">
<ele>2597.095703</ele>
<time>2011-04-24T01:38:33Z</time>
<desc>lat.=22.320326, lon.=103.769981, Alt.=2597.095703m. Speed=0.180000m/h.</desc>
<speed>0.050000</speed>
</trkpt>
<trkpt lat="22.320322" lon="103.769981">
<ele>2598.095703</ele>
<time>2011-04-24T01:38:38Z</time>
<desc>lat.=22.320322, lon.=103.769981, Alt.=2598.095703m. Speed=0.360000m/h.</desc>
<speed>0.100000</speed>
</trkpt>
<trkpt lat="22.320322" lon="103.769981">
<ele>2599.158203</ele>
<time>2011-04-24T01:38:43Z</time>
<desc>lat.=22.320322, lon.=103.769981, Alt.=2599.158203m. Speed=0.108000m/h.</desc>
<speed>0.030000</speed>
</trkpt>
<trkpt lat="22.320324" lon="103.769974">
<ele>2600.283203</ele>
<time>2011-04-24T01:38:48Z</time>
<desc>lat.=22.320324, lon.=103.769974, Alt.=2600.283203m. Speed=0.324000m/h.</desc>
<speed>0.090000</speed>
</trkpt>
<trkpt lat="22.320322" lon="103.769974">
<ele>2601.345703</ele>
<time>2011-04-24T01:38:53Z</time>
<desc>lat.=22.320322, lon.=103.769974, Alt.=2601.345703m. Speed=0.360000m/h.</desc>
<speed>0.100000</speed>
</trkpt>
<trkpt lat="22.320324" lon="103.769966">
<ele>2602.345703</ele>
<time>2011-04-24T01:38:58Z</time>
<desc>lat.=22.320324, lon.=103.769966, Alt.=2602.345703m. Speed=0.288000m/h.</desc>
<speed>0.080000</speed>
</trkpt>
<trkpt lat="22.320324" lon="103.769966">
<ele>2603.345703</ele>
<time>2011-04-24T01:39:03Z</time>
<desc>lat.=22.320324, lon.=103.769966, Alt.=2603.345703m. Speed=0.144000m/h.</desc>
<speed>0.040000</speed>
</trkpt>
<trkpt lat="22.320322" lon="103.769958">
<ele>2604.345703</ele>
<time>2011-04-24T01:39:08Z</time>
<desc>lat.=22.320322, lon.=103.769958, Alt.=2604.345703m. Speed=0.216000m/h.</desc>
<speed>0.060000</speed>
</trkpt>
<trkpt lat="22.320324" lon="103.769958">
<ele>2605.283203</ele>
<time>2011-04-24T01:39:13Z</time>
<desc>lat.=22.320324, lon.=103.769958, Alt.=2605.283203m. Speed=0.108000m/h.</desc>
<speed>0.030000</speed>
</trkpt>
<trkpt lat="22.320324" lon="103.769958">
<ele>2606.095703</ele>
<time>2011-04-24T01:39:18Z</time>
<desc>lat.=22.320324, lon.=103.769958, Alt.=2606.095703m. Speed=0.180000m/h.</desc>
<speed>0.050000</speed>
</trkpt>
<trkpt lat="22.320326" lon="103.769966">
<ele>2606.908203</ele>
<time>2011-04-24T01:39:23Z</time>
<desc>lat.=22.320326, lon.=103.769966, Alt.=2606.908203m. Speed=0.288000m/h.</desc>
<speed>0.080000</speed>
</trkpt>
<trkpt lat="22.320326" lon="103.769966">
<ele>2607.720703</ele>
<time>2011-04-24T01:39:28Z</time>
<desc>lat.=22.320326, lon.=103.769966, Alt.=2607.720703m. Speed=0.108000m/h.</desc>
<speed>0.030000</speed>
</trkpt>
<trkpt lat="22.320328" lon="103.769966">
<ele>2608.345703</ele>
<time>2011-04-24T01:39:33Z</time>
<desc>lat.=22.320328, lon.=103.769966, Alt.=2608.345703m. Speed=0.180000m/h.</desc>
<speed>0.050000</speed>
</trkpt>
<trkpt lat="22.320330" lon="103.769958">
<ele>2608.845703</ele>
<time>2011-04-24T01:39:38Z</time>
<desc>lat.=22.320330, lon.=103.769958, Alt.=2608.845703m. Speed=0.216000m/h.</desc>
<speed>0.060000</speed>
</trkpt>
<trkpt lat="22.320333" lon="103.769958">
<ele>2609.283203</ele>
<time>2011-04-24T01:39:43Z</time>
<desc>lat.=22.320333, lon.=103.769958, Alt.=2609.283203m. Speed=0.468000m/h.</desc>
<speed>0.130000</speed>
</trkpt>
<trkpt lat="22.320339" lon="103.769966">
<ele>2609.533203</ele>
<time>2011-04-24T01:39:48Z</time>
<desc>lat.=22.320339, lon.=103.769966, Alt.=2609.533203m. Speed=0.540000m/h.</desc>
<speed>0.150000</speed>
</trkpt>
<trkpt lat="22.320347" lon="103.769966">
<ele>2609.720703</ele>
<time>2011-04-24T01:39:53Z</time>
<desc>lat.=22.320347, lon.=103.769966, Alt.=2609.720703m. Speed=0.432000m/h.</desc>
<speed>0.120000</speed>
</trkpt>
<trkpt lat="22.320351" lon="103.769966">
<ele>2609.908203</ele>
<time>2011-04-24T01:39:58Z</time>
<desc>lat.=22.320351, lon.=103.769966, Alt.=2609.908203m. Speed=0.396000m/h.</desc>
<speed>0.110000</speed>
</trkpt>
<trkpt lat="22.320354" lon="103.769966">
<ele>2610.033203</ele>
<time>2011-04-24T01:40:03Z</time>
<desc>lat.=22.320354, lon.=103.769966, Alt.=2610.033203m. Speed=0.288000m/h.</desc>
<speed>0.080000</speed>
</trkpt>
<trkpt lat="22.320358" lon="103.769966">
<ele>2610.095703</ele>
<time>2011-04-24T01:40:08Z</time>
<desc>lat.=22.320358, lon.=103.769966, Alt.=2610.095703m. Speed=0.252000m/h.</desc>
<speed>0.070000</speed>
</trkpt>
<trkpt lat="22.320360" lon="103.769974">
<ele>2610.158203</ele>
<time>2011-04-24T01:40:13Z</time>
<desc>lat.=22.320360, lon.=103.769974, Alt.=2610.158203m. Speed=0.180000m/h.</desc>
<speed>0.050000</speed>
</trkpt>
<trkpt lat="22.320364" lon="103.769974">
<ele>2610.158203</ele>
<time>2011-04-24T01:40:18Z</time>
<desc>lat.=22.320364, lon.=103.769974, Alt.=2610.158203m. Speed=0.180000m/h.</desc>
<speed>0.050000</speed>
</trkpt>
<trkpt lat="22.320364" lon="103.769974">
<ele>2610.158203</ele>
<time>2011-04-24T01:40:23Z</time>
<desc>lat.=22.320364, lon.=103.769974, Alt.=2610.158203m. Speed=0.072000m/h.</desc>
<speed>0.020000</speed>
</trkpt>
<trkpt lat="22.320364" lon="103.769974">
<ele>2610.158203</ele>
<time>2011-04-24T01:40:28Z</time>
<desc>lat.=22.320364, lon.=103.769974, Alt.=2610.158203m. Speed=0.000000m/h.</desc>
<speed>0.000000</speed>
</trkpt>
<trkpt lat="22.320364" lon="103.769974">
<ele>2610.158203</ele>
<time>2011-04-24T01:40:33Z</time>
<desc>lat.=22.320364, lon.=103.769974, Alt.=2610.158203m. Speed=0.216000m/h.</desc>
<speed>0.060000</speed>
</trkpt>
<trkpt lat="22.320364" lon="103.769974">
<ele>2610.095703</ele>
<time>2011-04-24T01:40:38Z</time>
<desc>lat.=22.320364, lon.=103.769974, Alt.=2610.095703m. Speed=0.036000m/h.</desc>
<speed>0.010000</speed>
</trkpt>
<trkpt lat="22.320364" lon="103.769974">
<ele>2610.095703</ele>
<time>2011-04-24T01:40:43Z</time>
<desc>lat.=22.320364, lon.=103.769974, Alt.=2610.095703m. Speed=0.036000m/h.</desc>
<speed>0.010000</speed>
</trkpt>
<trkpt lat="22.320364" lon="103.769974">
<ele>2610.033203</ele>
<time>2011-04-24T01:40:48Z</time>
<desc>lat.=22.320364, lon.=103.769974, Alt.=2610.033203m. Speed=0.036000m/h.</desc>
<speed>0.010000</speed>
</trkpt>
<trkpt lat="22.320364" lon="103.769974">
<ele>2610.033203</ele>
<time>2011-04-24T01:40:53Z</time>
<desc>lat.=22.320364, lon.=103.769974, Alt.=2610.033203m. Speed=0.000000m/h.</desc>
<speed>0.000000</speed>
</trkpt>
<trkpt lat="22.320364" lon="103.769974">
<ele>2609.970703</ele>
<time>2011-04-24T01:40:58Z</time>
<desc>lat.=22.320364, lon.=103.769974, Alt.=2609.970703m. Speed=0.036000m/h.</desc>
<speed>0.010000</speed>
</trkpt>
<trkpt lat="22.320364" lon="103.769974">
<ele>2609.908203</ele>
<time>2011-04-24T01:41:03Z</time>
<desc>lat.=22.320364, lon.=103.769974, Alt.=2609.908203m. Speed=0.108000m/h.</desc>
<speed>0.030000</speed>
</trkpt>
<trkpt lat="22.320364" lon="103.769974">
<ele>2609.908203</ele>
<time>2011-04-24T01:41:08Z</time>
<desc>lat.=22.320364, lon.=103.769974, Alt.=2609.908203m. Speed=0.072000m/h.</desc>
<speed>0.020000</speed>
</trkpt>
<trkpt lat="22.320364" lon="103.769974">
<ele>2609.908203</ele>
<time>2011-04-24T01:41:13Z</time>
<desc>lat.=22.320364, lon.=103.769974, Alt.=2609.908203m. Speed=0.036000m/h.</desc>
<speed>0.010000</speed>
</trkpt>
<trkpt lat="22.320364" lon="103.769974">
<ele>2609.845703</ele>
<time>2011-04-24T01:41:18Z</time>
<desc>lat.=22.320364, lon.=103.769974, Alt.=2609.845703m. Speed=0.000000m/h.</desc>
<speed>0.000000</speed>
</trkpt>
<trkpt lat="22.320362" lon="103.769974">
<ele>2609.845703</ele>
<time>2011-04-24T01:41:23Z</time>
<desc>lat.=22.320362, lon.=103.769974, Alt.=2609.845703m. Speed=0.036000m/h.</desc>
<speed>0.010000</speed>
</trkpt>
<trkpt lat="22.320364" lon="103.769974">
<ele>2609.783203</ele>
<time>2011-04-24T01:41:28Z</time>
<desc>lat.=22.320364, lon.=103.769974, Alt.=2609.783203m. Speed=0.072000m/h.</desc>
<speed>0.020000</speed>
</trkpt>
<trkpt lat="22.320364" lon="103.769974">
<ele>2609.783203</ele>
<time>2011-04-24T01:41:33Z</time>
<desc>lat.=22.320364, lon.=103.769974, Alt.=2609.783203m. Speed=0.072000m/h.</desc>
<speed>0.020000</speed>
</trkpt>
<trkpt lat="22.320364" lon="103.769974">
<ele>2609.720703</ele>
<time>2011-04-24T01:41:38Z</time>
<desc>lat.=22.320364, lon.=103.769974, Alt.=2609.720703m. Speed=0.000000m/h.</desc>
<speed>0.000000</speed>
</trkpt>
<trkpt lat="22.320364" lon="103.769974">
<ele>2609.720703</ele>
<time>2011-04-24T01:41:43Z</time>
<desc>lat.=22.320364, lon.=103.769974, Alt.=2609.720703m. Speed=0.072000m/h.</desc>
<speed>0.020000</speed>
</trkpt>
<trkpt lat="22.320364" lon="103.769974">
<ele>2609.720703</ele>
<time>2011-04-24T01:41:48Z</time>
<desc>lat.=22.320364, lon.=103.769974, Alt.=2609.720703m. Speed=0.036000m/h.</desc>
<speed>0.010000</speed>
</trkpt>
<trkpt lat="22.320364" lon="103.769974">
<ele>2609.658203</ele>
<time>2011-04-24T01:41:53Z</time>
<desc>lat.=22.320364, lon.=103.769974, Alt.=2609.658203m. Speed=0.000000m/h.</desc>
<speed>0.000000</speed>
</trkpt>
<trkpt lat="22.320364" lon="103.769974">
<ele>2609.658203</ele>
<time>2011-04-24T01:41:58Z</time>
<desc>lat.=22.320364, lon.=103.769974, Alt.=2609.658203m. Speed=0.000000m/h.</desc>
<speed>0.000000</speed>
</trkpt>
<trkpt lat="22.320364" lon="103.769974">
<ele>2609.658203</ele>
<time>2011-04-24T01:42:03Z</time>
<desc>lat.=22.320364, lon.=103.769974, Alt.=2609.658203m. Speed=0.036000m/h.</desc>
<speed>0.010000</speed>
</trkpt>
<trkpt lat="22.320364" lon="103.769974">
<ele>2609.595703</ele>
<time>2011-04-24T01:42:08Z</time>
<desc>lat.=22.320364, lon.=103.769974, Alt.=2609.595703m. Speed=0.072000m/h.</desc>
<speed>0.020000</speed>
</trkpt>
<trkpt lat="22.320364" lon="103.769974">
<ele>2609.595703</ele>
<time>2011-04-24T01:42:13Z</time>
<desc>lat.=22.320364, lon.=103.769974, Alt.=2609.595703m. Speed=0.072000m/h.</desc>
<speed>0.020000</speed>
</trkpt>
<trkpt lat="22.320364" lon="103.769974">
<ele>2609.595703</ele>
<time>2011-04-24T01:42:18Z</time>
<desc>lat.=22.320364, lon.=103.769974, Alt.=2609.595703m. Speed=0.000000m/h.</desc>
<speed>0.000000</speed>
</trkpt>
<trkpt lat="22.320364" lon="103.769974">
<ele>2609.533203</ele>
<time>2011-04-24T01:42:23Z</time>
<desc>lat.=22.320364, lon.=103.769974, Alt.=2609.533203m. Speed=0.036000m/h.</desc>
<speed>0.010000</speed>
</trkpt>
<trkpt lat="22.320364" lon="103.769974">
<ele>2609.470703</ele>
<time>2011-04-24T01:42:28Z</time>
<desc>lat.=22.320364, lon.=103.769974, Alt.=2609.470703m. Speed=0.072000m/h.</desc>
<speed>0.020000</speed>
</trkpt>
<trkpt lat="22.320364" lon="103.769974">
<ele>2609.408203</ele>
<time>2011-04-24T01:42:33Z</time>
<desc>lat.=22.320364, lon.=103.769974, Alt.=2609.408203m. Speed=0.252000m/h.</desc>
<speed>0.070000</speed>
</trkpt>
<trkpt lat="22.320364" lon="103.769974">
<ele>2609.408203</ele>
<time>2011-04-24T01:42:38Z</time>
<desc>lat.=22.320364, lon.=103.769974, Alt.=2609.408203m. Speed=0.036000m/h.</desc>
<speed>0.010000</speed>
</trkpt>
<trkpt lat="22.320364" lon="103.769974">
<ele>2609.345703</ele>
<time>2011-04-24T01:42:43Z</time>
<desc>lat.=22.320364, lon.=103.769974, Alt.=2609.345703m. Speed=0.036000m/h.</desc>
<speed>0.010000</speed>
</trkpt>
<trkpt lat="22.320364" lon="103.769974">
<ele>2609.345703</ele>
<time>2011-04-24T01:42:48Z</time>
<desc>lat.=22.320364, lon.=103.769974, Alt.=2609.345703m. Speed=0.000000m/h.</desc>
<speed>0.000000</speed>
</trkpt>
<trkpt lat="22.320364" lon="103.769974">
<ele>2609.345703</ele>
<time>2011-04-24T01:42:53Z</time>
<desc>lat.=22.320364, lon.=103.769974, Alt.=2609.345703m. Speed=0.108000m/h.</desc>
<speed>0.030000</speed>
</trkpt>
<trkpt lat="22.320364" lon="103.769974">
<ele>2609.345703</ele>
<time>2011-04-24T01:42:58Z</time>
<desc>lat.=22.320364, lon.=103.769974, Alt.=2609.345703m. Speed=0.000000m/h.</desc>
<speed>0.000000</speed>
</trkpt>
<trkpt lat="22.320362" lon="103.769974">
<ele>2609.345703</ele>
<time>2011-04-24T01:43:03Z</time>
<desc>lat.=22.320362, lon.=103.769974, Alt.=2609.345703m. Speed=0.000000m/h.</desc>
<speed>0.000000</speed>
</trkpt>
<trkpt lat="22.320362" lon="103.769974">
<ele>2609.345703</ele>
<time>2011-04-24T01:43:08Z</time>
<desc>lat.=22.320362, lon.=103.769974, Alt.=2609.345703m. Speed=0.072000m/h.</desc>
<speed>0.020000</speed>
</trkpt>
<trkpt lat="22.320362" lon="103.769974">
<ele>2609.345703</ele>
<time>2011-04-24T01:43:13Z</time>
<desc>lat.=22.320362, lon.=103.769974, Alt.=2609.345703m. Speed=0.036000m/h.</desc>
<speed>0.010000</speed>
</trkpt>
<trkpt lat="22.320362" lon="103.769974">
<ele>2609.345703</ele>
<time>2011-04-24T01:43:18Z</time>
<desc>lat.=22.320362, lon.=103.769974, Alt.=2609.345703m. Speed=0.036000m/h.</desc>
<speed>0.010000</speed>
</trkpt>
<trkpt lat="22.320362" lon="103.769974">
<ele>2609.345703</ele>
<time>2011-04-24T01:43:23Z</time>
<desc>lat.=22.320362, lon.=103.769974, Alt.=2609.345703m. Speed=0.000000m/h.</desc>
<speed>0.000000</speed>
</trkpt>
<trkpt lat="22.320362" lon="103.769974">
<ele>2609.283203</ele>
<time>2011-04-24T01:43:28Z</time>
<desc>lat.=22.320362, lon.=103.769974, Alt.=2609.283203m. Speed=0.000000m/h.</desc>
<speed>0.000000</speed>
</trkpt>
<trkpt lat="22.320362" lon="103.769974">
<ele>2609.283203</ele>
<time>2011-04-24T01:43:33Z</time>
<desc>lat.=22.320362, lon.=103.769974, Alt.=2609.283203m. Speed=0.036000m/h.</desc>
<speed>0.010000</speed>
</trkpt>
<trkpt lat="22.320362" lon="103.769974">
<ele>2609.283203</ele>
<time>2011-04-24T01:43:38Z</time>
<desc>lat.=22.320362, lon.=103.769974, Alt.=2609.283203m. Speed=0.036000m/h.</desc>
<speed>0.010000</speed>
</trkpt>
<trkpt lat="22.320362" lon="103.769974">
<ele>2609.220703</ele>
<time>2011-04-24T01:43:43Z</time>
<desc>lat.=22.320362, lon.=103.769974, Alt.=2609.220703m. Speed=0.072000m/h.</desc>
<speed>0.020000</speed>
</trkpt>
<trkpt lat="22.320360" lon="103.769974">
<ele>2609.220703</ele>
<time>2011-04-24T01:43:48Z</time>
<desc>lat.=22.320360, lon.=103.769974, Alt.=2609.220703m. Speed=0.144000m/h.</desc>
<speed>0.040000</speed>
</trkpt>
<trkpt lat="22.320360" lon="103.769974">
<ele>2609.220703</ele>
<time>2011-04-24T01:43:53Z</time>
<desc>lat.=22.320360, lon.=103.769974, Alt.=2609.220703m. Speed=0.036000m/h.</desc>
<speed>0.010000</speed>
</trkpt>
<trkpt lat="22.320360" lon="103.769974">
<ele>2609.220703</ele>
<time>2011-04-24T01:43:58Z</time>
<desc>lat.=22.320360, lon.=103.769974, Alt.=2609.220703m. Speed=0.000000m/h.</desc>
<speed>0.000000</speed>
</trkpt>
<trkpt lat="22.320360" lon="103.769974">
<ele>2609.220703</ele>
<time>2011-04-24T01:44:03Z</time>
<desc>lat.=22.320360, lon.=103.769974, Alt.=2609.220703m. Speed=0.072000m/h.</desc>
<speed>0.020000</speed>
</trkpt>
<trkpt lat="22.320360" lon="103.769974">
<ele>2609.220703</ele>
<time>2011-04-24T01:44:08Z</time>
<desc>lat.=22.320360, lon.=103.769974, Alt.=2609.220703m. Speed=0.000000m/h.</desc>
<speed>0.000000</speed>
</trkpt>
<trkpt lat="22.320360" lon="103.769974">
<ele>2609.158203</ele>
<time>2011-04-24T01:44:13Z</time>
<desc>lat.=22.320360, lon.=103.769974, Alt.=2609.158203m. Speed=0.036000m/h.</desc>
<speed>0.010000</speed>
</trkpt>
<trkpt lat="22.320360" lon="103.769974">
<ele>2609.158203</ele>
<time>2011-04-24T01:44:18Z</time>
<desc>lat.=22.320360, lon.=103.769974, Alt.=2609.158203m. Speed=0.072000m/h.</desc>
<speed>0.020000</speed>
</trkpt>
<trkpt lat="22.320360" lon="103.769974">
<ele>2609.158203</ele>
<time>2011-04-24T01:44:23Z</time>
<desc>lat.=22.320360, lon.=103.769974, Alt.=2609.158203m. Speed=0.108000m/h.</desc>
<speed>0.030000</speed>
</trkpt>
<trkpt lat="22.320360" lon="103.769974">
<ele>2609.095703</ele>
<time>2011-04-24T01:44:28Z</time>
<desc>lat.=22.320360, lon.=103.769974, Alt.=2609.095703m. Speed=0.000000m/h.</desc>
<speed>0.000000</speed>
</trkpt>
<trkpt lat="22.320360" lon="103.769974">
<ele>2609.095703</ele>
<time>2011-04-24T01:44:33Z</time>
<desc>lat.=22.320360, lon.=103.769974, Alt.=2609.095703m. Speed=0.036000m/h.</desc>
<speed>0.010000</speed>
</trkpt>
<trkpt lat="22.320360" lon="103.769974">
<ele>2609.095703</ele>
<time>2011-04-24T01:44:38Z</time>
<desc>lat.=22.320360, lon.=103.769974, Alt.=2609.095703m. Speed=0.036000m/h.</desc>
<speed>0.010000</speed>
</trkpt>
<trkpt lat="22.320360" lon="103.769974">
<ele>2609.095703</ele>
<time>2011-04-24T01:44:43Z</time>
<desc>lat.=22.320360, lon.=103.769974, Alt.=2609.095703m. Speed=0.000000m/h.</desc>
<speed>0.000000</speed>
</trkpt>
<trkpt lat="22.320360" lon="103.769974">
<ele>2609.033203</ele>
<time>2011-04-24T01:44:48Z</time>
<desc>lat.=22.320360, lon.=103.769974, Alt.=2609.033203m. Speed=0.216000m/h.</desc>
<speed>0.060000</speed>
</trkpt>
<trkpt lat="22.320360" lon="103.769974">
<ele>2609.033203</ele>
<time>2011-04-24T01:44:53Z</time>
<desc>lat.=22.320360, lon.=103.769974, Alt.=2609.033203m. Speed=0.072000m/h.</desc>
<speed>0.020000</speed>
</trkpt>
<trkpt lat="22.320360" lon="103.769974">
<ele>2609.033203</ele>
<time>2011-04-24T01:44:58Z</time>
<desc>lat.=22.320360, lon.=103.769974, Alt.=2609.033203m. Speed=0.000000m/h.</desc>
<speed>0.000000</speed>
</trkpt>
<trkpt lat="22.320360" lon="103.769974">
<ele>2609.033203</ele>
<time>2011-04-24T01:45:03Z</time>
<desc>lat.=22.320360, lon.=103.769974, Alt.=2609.033203m. Speed=0.000000m/h.</desc>
<speed>0.000000</speed>
</trkpt>
<trkpt lat="22.320360" lon="103.769974">
<ele>2608.970703</ele>
<time>2011-04-24T01:45:08Z</time>
<desc>lat.=22.320360, lon.=103.769974, Alt.=2608.970703m. Speed=0.000000m/h.</desc>
<speed>0.000000</speed>
</trkpt>
<trkpt lat="22.320360" lon="103.769974">
<ele>2608.908203</ele>
<time>2011-04-24T01:45:13Z</time>
<desc>lat.=22.320360, lon.=103.769974, Alt.=2608.908203m. Speed=0.000000m/h.</desc>
<speed>0.000000</speed>
</trkpt>
<trkpt lat="22.320360" lon="103.769974">
<ele>2608.908203</ele>
<time>2011-04-24T01:45:18Z</time>
<desc>lat.=22.320360, lon.=103.769974, Alt.=2608.908203m. Speed=0.000000m/h.</desc>
<speed>0.000000</speed>
</trkpt>
<trkpt lat="22.320360" lon="103.769974">
<ele>2608.908203</ele>
<time>2011-04-24T01:45:23Z</time>
<desc>lat.=22.320360, lon.=103.769974, Alt.=2608.908203m. Speed=0.036000m/h.</desc>
<speed>0.010000</speed>
</trkpt>
<trkpt lat="22.320360" lon="103.769974">
<ele>2608.845703</ele>
<time>2011-04-24T01:45:28Z</time>
<desc>lat.=22.320360, lon.=103.769974, Alt.=2608.845703m. Speed=0.000000m/h.</desc>
<speed>0.000000</speed>
</trkpt>
<trkpt lat="22.320360" lon="103.769974">
<ele>2608.783203</ele>
<time>2011-04-24T01:45:33Z</time>
<desc>lat.=22.320360, lon.=103.769974, Alt.=2608.783203m. Speed=0.072000m/h.</desc>
<speed>0.020000</speed>
</trkpt>
<trkpt lat="22.320360" lon="103.769974">
<ele>2608.720703</ele>
<time>2011-04-24T01:45:38Z</time>
<desc>lat.=22.320360, lon.=103.769974, Alt.=2608.720703m. Speed=0.000000m/h.</desc>
<speed>0.000000</speed>
</trkpt>
<trkpt lat="22.320358" lon="103.769974">
<ele>2608.658203</ele>
<time>2011-04-24T01:45:43Z</time>
<desc>lat.=22.320358, lon.=103.769974, Alt.=2608.658203m. Speed=0.000000m/h.</desc>
<speed>0.000000</speed>
</trkpt>
<trkpt lat="22.320358" lon="103.769974">
<ele>2608.658203</ele>
<time>2011-04-24T01:45:48Z</time>
<desc>lat.=22.320358, lon.=103.769974, Alt.=2608.658203m. Speed=0.072000m/h.</desc>
<speed>0.020000</speed>
</trkpt>
<trkpt lat="22.320358" lon="103.769974">
<ele>2608.658203</ele>
<time>2011-04-24T01:45:53Z</time>
<desc>lat.=22.320358, lon.=103.769974, Alt.=2608.658203m. Speed=0.000000m/h.</desc>
<speed>0.000000</speed>
</trkpt>
<trkpt lat="22.320358" lon="103.769974">
<ele>2608.595703</ele>
<time>2011-04-24T01:45:58Z</time>
<desc>lat.=22.320358, lon.=103.769974, Alt.=2608.595703m. Speed=0.000000m/h.</desc>
<speed>0.000000</speed>
</trkpt>
<trkpt lat="22.320358" lon="103.769974">
<ele>2608.470703</ele>
<time>2011-04-24T01:46:03Z</time>
<desc>lat.=22.320358, lon.=103.769974, Alt.=2608.470703m. Speed=0.036000m/h.</desc>
<speed>0.010000</speed>
</trkpt>
<trkpt lat="22.320358" lon="103.769974">
<ele>2608.408203</ele>
<time>2011-04-24T01:46:08Z</time>
<desc>lat.=22.320358, lon.=103.769974, Alt.=2608.408203m. Speed=0.000000m/h.</desc>
<speed>0.000000</speed>
</trkpt>
<trkpt lat="22.320358" lon="103.769974">
<ele>2608.345703</ele>
<time>2011-04-24T01:46:13Z</time>
<desc>lat.=22.320358, lon.=103.769974, Alt.=2608.345703m. Speed=0.000000m/h.</desc>
<speed>0.000000</speed>
</trkpt>
<trkpt lat="22.320358" lon="103.769974">
<ele>2608.220703</ele>
<time>2011-04-24T01:46:18Z</time>
<desc>lat.=22.320358, lon.=103.769974, Alt.=2608.220703m. Speed=0.000000m/h.</desc>
<speed>0.000000</speed>
</trkpt>
<trkpt lat="22.320358" lon="103.769974">
<ele>2608.220703</ele>
<time>2011-04-24T01:46:23Z</time>
<desc>lat.=22.320358, lon.=103.769974, Alt.=2608.220703m. Speed=0.036000m/h.</desc>
<speed>0.010000</speed>
</trkpt>
<trkpt lat="22.320358" lon="103.769974">
<ele>2608.158203</ele>
<time>2011-04-24T01:46:28Z</time>
<desc>lat.=22.320358, lon.=103.769974, Alt.=2608.158203m. Speed=0.072000m/h.</desc>
<speed>0.020000</speed>
</trkpt>
<trkpt lat="22.320358" lon="103.769974">
<ele>2608.095703</ele>
<time>2011-04-24T01:46:33Z</time>
<desc>lat.=22.320358, lon.=103.769974, Alt.=2608.095703m. Speed=0.000000m/h.</desc>
<speed>0.000000</speed>
</trkpt>
<trkpt lat="22.320358" lon="103.769974">
<ele>2608.095703</ele>
<time>2011-04-24T01:46:38Z</time>
<desc>lat.=22.320358, lon.=103.769974, Alt.=2608.095703m. Speed=0.000000m/h.</desc>
<speed>0.000000</speed>
</trkpt>
<trkpt lat="22.320358" lon="103.769974">
<ele>2608.033203</ele>
<time>2011-04-24T01:46:43Z</time>
<desc>lat.=22.320358, lon.=103.769974, Alt.=2608.033203m. Speed=0.036000m/h.</desc>
<speed>0.010000</speed>
</trkpt>
<trkpt lat="22.320358" lon="103.769974">
<ele>2608.033203</ele>
<time>2011-04-24T01:46:48Z</time>
<desc>lat.=22.320358, lon.=103.769974, Alt.=2608.033203m. Speed=0.072000m/h.</desc>
<speed>0.020000</speed>
</trkpt>
<trkpt lat="22.320358" lon="103.769974">
<ele>2608.033203</ele>
<time>2011-04-24T01:46:53Z</time>
<desc>lat.=22.320358, lon.=103.769974, Alt.=2608.033203m. Speed=0.036000m/h.</desc>
<speed>0.010000</speed>
</trkpt>
<trkpt lat="22.320358" lon="103.769974">
<ele>2607.970703</ele>
<time>2011-04-24T01:46:58Z</time>
<desc>lat.=22.320358, lon.=103.769974, Alt.=2607.970703m. Speed=0.000000m/h.</desc>
<speed>0.000000</speed>
</trkpt>
<trkpt lat="22.320358" lon="103.769974">
<ele>2607.970703</ele>
<time>2011-04-24T01:47:03Z</time>
<desc>lat.=22.320358, lon.=103.769974, Alt.=2607.970703m. Speed=0.108000m/h.</desc>
<speed>0.030000</speed>
</trkpt>
<trkpt lat="22.320358" lon="103.769974">
<ele>2607.970703</ele>
<time>2011-04-24T01:47:08Z</time>
<desc>lat.=22.320358, lon.=103.769974, Alt.=2607.970703m. Speed=0.036000m/h.</desc>
<speed>0.010000</speed>
</trkpt>
<trkpt lat="22.320358" lon="103.769974">
<ele>2607.908203</ele>
<time>2011-04-24T01:47:13Z</time>
<desc>lat.=22.320358, lon.=103.769974, Alt.=2607.908203m. Speed=0.108000m/h.</desc>
<speed>0.030000</speed>
</trkpt>
<trkpt lat="22.320358" lon="103.769974">
<ele>2607.908203</ele>
<time>2011-04-24T01:47:18Z</time>
<desc>lat.=22.320358, lon.=103.769974, Alt.=2607.908203m. Speed=0.072000m/h.</desc>
<speed>0.020000</speed>
</trkpt>
<trkpt lat="22.320358" lon="103.769974">
<ele>2607.908203</ele>
<time>2011-04-24T01:47:23Z</time>
<desc>lat.=22.320358, lon.=103.769974, Alt.=2607.908203m. Speed=0.000000m/h.</desc>
<speed>0.000000</speed>
</trkpt>
<trkpt lat="22.320358" lon="103.769974">
<ele>2607.908203</ele>
<time>2011-04-24T01:47:28Z</time>
<desc>lat.=22.320358, lon.=103.769974, Alt.=2607.908203m. Speed=0.000000m/h.</desc>
<speed>0.000000</speed>
</trkpt>
<trkpt lat="22.320358" lon="103.769974">
<ele>2607.845703</ele>
<time>2011-04-24T01:47:33Z</time>
<desc>lat.=22.320358, lon.=103.769974, Alt.=2607.845703m. Speed=0.144000m/h.</desc>
<speed>0.040000</speed>
</trkpt>
<trkpt lat="22.320358" lon="103.769981">
<ele>2607.783203</ele>
<time>2011-04-24T01:47:38Z</time>
<desc>lat.=22.320358, lon.=103.769981, Alt.=2607.783203m. Speed=0.000000m/h.</desc>
<speed>0.000000</speed>
</trkpt>
<trkpt lat="22.320358" lon="103.769981">
<ele>2607.783203</ele>
<time>2011-04-24T01:47:43Z</time>
<desc>lat.=22.320358, lon.=103.769981, Alt.=2607.783203m. Speed=0.036000m/h.</desc>
<speed>0.010000</speed>
</trkpt>
<trkpt lat="22.320358" lon="103.769981">
<ele>2607.783203</ele>
<time>2011-04-24T01:47:48Z</time>
<desc>lat.=22.320358, lon.=103.769981, Alt.=2607.783203m. Speed=0.036000m/h.</desc>
<speed>0.010000</speed>
</trkpt>
<trkpt lat="22.320358" lon="103.769981">
<ele>2607.783203</ele>
<time>2011-04-24T01:47:53Z</time>
<desc>lat.=22.320358, lon.=103.769981, Alt.=2607.783203m. Speed=0.036000m/h.</desc>
<speed>0.010000</speed>
</trkpt>
<trkpt lat="22.320358" lon="103.769981">
<ele>2607.783203</ele>
<time>2011-04-24T01:47:58Z</time>
<desc>lat.=22.320358, lon.=103.769981, Alt.=2607.783203m. Speed=0.000000m/h.</desc>
<speed>0.000000</speed>
</trkpt>
<trkpt lat="22.320358" lon="103.769981">
<ele>2607.720703</ele>
<time>2011-04-24T01:48:03Z</time>
<desc>lat.=22.320358, lon.=103.769981, Alt.=2607.720703m. Speed=0.072000m/h.</desc>
<speed>0.020000</speed>
</trkpt>
<trkpt lat="22.320358" lon="103.769981">
<ele>2607.720703</ele>
<time>2011-04-24T01:48:08Z</time>
<desc>lat.=22.320358, lon.=103.769981, Alt.=2607.720703m. Speed=0.036000m/h.</desc>
<speed>0.010000</speed>
</trkpt>
<trkpt lat="22.320358" lon="103.769981">
<ele>2607.720703</ele>
<time>2011-04-24T01:48:13Z</time>
<desc>lat.=22.320358, lon.=103.769981, Alt.=2607.720703m. Speed=0.036000m/h.</desc>
<speed>0.010000</speed>
</trkpt>
<trkpt lat="22.320358" lon="103.769981">
<ele>2607.720703</ele>
<time>2011-04-24T01:48:18Z</time>
<desc>lat.=22.320358, lon.=103.769981, Alt.=2607.720703m. Speed=0.072000m/h.</desc>
<speed>0.020000</speed>
</trkpt>
<trkpt lat="22.320358" lon="103.769981">
<ele>2607.658203</ele>
<time>2011-04-24T01:48:23Z</time>
<desc>lat.=22.320358, lon.=103.769981, Alt.=2607.658203m. Speed=0.072000m/h.</desc>
<speed>0.020000</speed>
</trkpt>
<trkpt lat="22.320358" lon="103.769981">
<ele>2607.658203</ele>
<time>2011-04-24T01:48:28Z</time>
<desc>lat.=22.320358, lon.=103.769981, Alt.=2607.658203m. Speed=0.108000m/h.</desc>
<speed>0.030000</speed>
</trkpt>
<trkpt lat="22.320358" lon="103.769981">
<ele>2607.658203</ele>
<time>2011-04-24T01:48:33Z</time>
<desc>lat.=22.320358, lon.=103.769981, Alt.=2607.658203m. Speed=0.036000m/h.</desc>
<speed>0.010000</speed>
</trkpt>
<trkpt lat="22.320356" lon="103.769981">
<ele>2607.595703</ele>
<time>2011-04-24T01:48:38Z</time>
<desc>lat.=22.320356, lon.=103.769981, Alt.=2607.595703m. Speed=0.216000m/h.</desc>
<speed>0.060000</speed>
</trkpt>
<trkpt lat="22.320358" lon="103.769981">
<ele>2607.595703</ele>
<time>2011-04-24T01:48:43Z</time>
<desc>lat.=22.320358, lon.=103.769981, Alt.=2607.595703m. Speed=0.180000m/h.</desc>
<speed>0.050000</speed>
</trkpt>
<trkpt lat="22.320356" lon="103.769981">
<ele>2607.595703</ele>
<time>2011-04-24T01:48:48Z</time>
<desc>lat.=22.320356, lon.=103.769981, Alt.=2607.595703m. Speed=0.036000m/h.</desc>
<speed>0.010000</speed>
</trkpt>
<trkpt lat="22.320356" lon="103.769981">
<ele>2607.533203</ele>
<time>2011-04-24T01:48:53Z</time>
<desc>lat.=22.320356, lon.=103.769981, Alt.=2607.533203m. Speed=0.108000m/h.</desc>
<speed>0.030000</speed>
</trkpt>
<trkpt lat="22.320356" lon="103.769974">
<ele>2607.533203</ele>
<time>2011-04-24T01:48:58Z</time>
<desc>lat.=22.320356, lon.=103.769974, Alt.=2607.533203m. Speed=0.144000m/h.</desc>
<speed>0.040000</speed>
</trkpt>
<trkpt lat="22.320354" lon="103.769974">
<ele>2607.470703</ele>
<time>2011-04-24T01:49:03Z</time>
<desc>lat.=22.320354, lon.=103.769974, Alt.=2607.470703m. Speed=0.684000m/h.</desc>
<speed>0.190000</speed>
</trkpt>
<trkpt lat="22.320333" lon="103.769966">
<ele>2605.470703</ele>
<time>2011-04-24T01:49:08Z</time>
<desc>lat.=22.320333, lon.=103.769966, Alt.=2605.470703m. Speed=1.116000m/h.</desc>
<speed>0.310000</speed>
</trkpt>
<trkpt lat="22.320324" lon="103.769943">
<ele>2605.220703</ele>
<time>2011-04-24T01:49:13Z</time>
<desc>lat.=22.320324, lon.=103.769943, Alt.=2605.220703m. Speed=1.188000m/h.</desc>
<speed>0.330000</speed>
</trkpt>
<trkpt lat="22.320313" lon="103.769943">
<ele>2605.095703</ele>
<time>2011-04-24T01:49:18Z</time>
<desc>lat.=22.320313, lon.=103.769943, Alt.=2605.095703m. Speed=0.756000m/h.</desc>
<speed>0.210000</speed>
</trkpt>
<trkpt lat="22.320303" lon="103.769936">
<ele>2605.033203</ele>
<time>2011-04-24T01:49:23Z</time>
<desc>lat.=22.320303, lon.=103.769936, Alt.=2605.033203m. Speed=0.828000m/h.</desc>
<speed>0.230000</speed>
</trkpt>
<trkpt lat="22.320295" lon="103.769928">
<ele>2604.908203</ele>
<time>2011-04-24T01:49:28Z</time>
<desc>lat.=22.320295, lon.=103.769928, Alt.=2604.908203m. Speed=1.080000m/h.</desc>
<speed>0.300000</speed>
</trkpt>
<trkpt lat="22.320297" lon="103.769882">
<ele>2604.970703</ele>
<time>2011-04-24T01:49:33Z</time>
<desc>lat.=22.320297, lon.=103.769882, Alt.=2604.970703m. Speed=1.440000m/h.</desc>
<speed>0.400000</speed>
</trkpt>
<trkpt lat="22.320293" lon="103.769844">
<ele>2605.533203</ele>
<time>2011-04-24T01:49:38Z</time>
<desc>lat.=22.320293, lon.=103.769844, Alt.=2605.533203m. Speed=1.584000m/h.</desc>
<speed>0.440000</speed>
</trkpt>
<trkpt lat="22.320278" lon="103.769821">
<ele>2606.158203</ele>
<time>2011-04-24T01:49:43Z</time>
<desc>lat.=22.320278, lon.=103.769821, Alt.=2606.158203m. Speed=1.512000m/h.</desc>
<speed>0.420000</speed>
</trkpt>
<trkpt lat="22.320267" lon="103.769806">
<ele>2606.220703</ele>
<time>2011-04-24T01:49:48Z</time>
<desc>lat.=22.320267, lon.=103.769806, Alt.=2606.220703m. Speed=0.972000m/h.</desc>
<speed>0.270000</speed>
</trkpt>
<trkpt lat="22.320257" lon="103.769798">
<ele>2606.408203</ele>
<time>2011-04-24T01:49:53Z</time>
<desc>lat.=22.320257, lon.=103.769798, Alt.=2606.408203m. Speed=0.720000m/h.</desc>
<speed>0.200000</speed>
</trkpt>
<trkpt lat="22.320248" lon="103.769775">
<ele>2606.470703</ele>
<time>2011-04-24T01:49:58Z</time>
<desc>lat.=22.320248, lon.=103.769775, Alt.=2606.470703m. Speed=1.296000m/h.</desc>
<speed>0.360000</speed>
</trkpt>
<trkpt lat="22.320238" lon="103.769753">
<ele>2606.470703</ele>
<time>2011-04-24T01:50:03Z</time>
<desc>lat.=22.320238, lon.=103.769753, Alt.=2606.470703m. Speed=1.440000m/h.</desc>
<speed>0.400000</speed>
</trkpt>
<trkpt lat="22.320246" lon="103.769699">
<ele>2606.408203</ele>
<time>2011-04-24T01:50:08Z</time>
<desc>lat.=22.320246, lon.=103.769699, Alt.=2606.408203m. Speed=1.548000m/h.</desc>
<speed>0.430000</speed>
</trkpt>
<trkpt lat="22.320255" lon="103.769707">
<ele>2606.533203</ele>
<time>2011-04-24T01:50:13Z</time>
<desc>lat.=22.320255, lon.=103.769707, Alt.=2606.533203m. Speed=0.792000m/h.</desc>
<speed>0.220000</speed>
</trkpt>
<trkpt lat="22.320253" lon="103.769730">
<ele>2606.595703</ele>
<time>2011-04-24T01:50:18Z</time>
<desc>lat.=22.320253, lon.=103.769730, Alt.=2606.595703m. Speed=0.324000m/h.</desc>
<speed>0.090000</speed>
</trkpt>
<trkpt lat="22.320250" lon="103.769730">
<ele>2606.658203</ele>
<time>2011-04-24T01:50:23Z</time>
<desc>lat.=22.320250, lon.=103.769730, Alt.=2606.658203m. Speed=0.612000m/h.</desc>
<speed>0.170000</speed>
</trkpt>
<trkpt lat="22.320234" lon="103.769714">
<ele>2606.658203</ele>
<time>2011-04-24T01:50:28Z</time>
<desc>lat.=22.320234, lon.=103.769714, Alt.=2606.658203m. Speed=1.224000m/h.</desc>
<speed>0.340000</speed>
</trkpt>
<trkpt lat="22.320215" lon="103.769707">
<ele>2606.595703</ele>
<time>2011-04-24T01:50:33Z</time>
<desc>lat.=22.320215, lon.=103.769707, Alt.=2606.595703m. Speed=0.972000m/h.</desc>
<speed>0.270000</speed>
</trkpt>
<trkpt lat="22.320225" lon="103.769714">
<ele>2606.658203</ele>
<time>2011-04-24T01:50:38Z</time>
<desc>lat.=22.320225, lon.=103.769714, Alt.=2606.658203m. Speed=0.180000m/h.</desc>
<speed>0.050000</speed>
</trkpt>
<trkpt lat="22.320223" lon="103.769714">
<ele>2606.720703</ele>
<time>2011-04-24T01:50:43Z</time>
<desc>lat.=22.320223, lon.=103.769714, Alt.=2606.720703m. Speed=0.108000m/h.</desc>
<speed>0.030000</speed>
</trkpt>
<trkpt lat="22.320223" lon="103.769714">
<ele>2606.720703</ele>
<time>2011-04-24T01:50:48Z</time>
<desc>lat.=22.320223, lon.=103.769714, Alt.=2606.720703m. Speed=0.324000m/h.</desc>
<speed>0.090000</speed>
</trkpt>
<trkpt lat="22.320225" lon="103.769707">
<ele>2606.783203</ele>
<time>2011-04-24T01:50:53Z</time>
<desc>lat.=22.320225, lon.=103.769707, Alt.=2606.783203m. Speed=0.324000m/h.</desc>
<speed>0.090000</speed>
</trkpt>
<trkpt lat="22.320230" lon="103.769707">
<ele>2606.845703</ele>
<time>2011-04-24T01:50:58Z</time>
<desc>lat.=22.320230, lon.=103.769707, Alt.=2606.845703m. Speed=0.072000m/h.</desc>
<speed>0.020000</speed>
</trkpt>
<trkpt lat="22.320230" lon="103.769707">
<ele>2606.908203</ele>
<time>2011-04-24T01:51:03Z</time>
<desc>lat.=22.320230, lon.=103.769707, Alt.=2606.908203m. Speed=0.108000m/h.</desc>
<speed>0.030000</speed>
</trkpt>
<trkpt lat="22.320230" lon="103.769707">
<ele>2606.970703</ele>
<time>2011-04-24T01:51:08Z</time>
<desc>lat.=22.320230, lon.=103.769707, Alt.=2606.970703m. Speed=0.108000m/h.</desc>
<speed>0.030000</speed>
</trkpt>
<trkpt lat="22.320229" lon="103.769707">
<ele>2607.095703</ele>
<time>2011-04-24T01:51:13Z</time>
<desc>lat.=22.320229, lon.=103.769707, Alt.=2607.095703m. Speed=0.324000m/h.</desc>
<speed>0.090000</speed>
</trkpt>
<trkpt lat="22.320208" lon="103.769699">
<ele>2607.158203</ele>
<time>2011-04-24T01:51:18Z</time>
<desc>lat.=22.320208, lon.=103.769699, Alt.=2607.158203m. Speed=1.548000m/h.</desc>
<speed>0.430000</speed>
</trkpt>
<trkpt lat="22.320168" lon="103.769730">
<ele>2606.970703</ele>
<time>2011-04-24T01:51:23Z</time>
<desc>lat.=22.320168, lon.=103.769730, Alt.=2606.970703m. Speed=1.728000m/h.</desc>
<speed>0.480000</speed>
</trkpt>
<trkpt lat="22.320166" lon="103.769775">
<ele>2607.408203</ele>
<time>2011-04-24T01:51:28Z</time>
<desc>lat.=22.320166, lon.=103.769775, Alt.=2607.408203m. Speed=1.512000m/h.</desc>
<speed>0.420000</speed>
</trkpt>
<trkpt lat="22.320141" lon="103.769775">
<ele>2607.158203</ele>
<time>2011-04-24T01:51:33Z</time>
<desc>lat.=22.320141, lon.=103.769775, Alt.=2607.158203m. Speed=1.620000m/h.</desc>
<speed>0.450000</speed>
</trkpt>
<trkpt lat="22.320118" lon="103.769798">
<ele>2607.408203</ele>
<time>2011-04-24T01:51:38Z</time>
<desc>lat.=22.320118, lon.=103.769798, Alt.=2607.408203m. Speed=1.692000m/h.</desc>
<speed>0.470000</speed>
</trkpt>
<trkpt lat="22.320099" lon="103.769806">
<ele>2607.658203</ele>
<time>2011-04-24T01:51:43Z</time>
<desc>lat.=22.320099, lon.=103.769806, Alt.=2607.658203m. Speed=1.620000m/h.</desc>
<speed>0.450000</speed>
</trkpt>
<trkpt lat="22.320105" lon="103.769836">
<ele>2608.345703</ele>
<time>2011-04-24T01:51:48Z</time>
<desc>lat.=22.320105, lon.=103.769836, Alt.=2608.345703m. Speed=1.440000m/h.</desc>
<speed>0.400000</speed>
</trkpt>
<trkpt lat="22.320131" lon="103.769821">
<ele>2608.470703</ele>
<time>2011-04-24T01:51:53Z</time>
<desc>lat.=22.320131, lon.=103.769821, Alt.=2608.470703m. Speed=0.288000m/h.</desc>
<speed>0.080000</speed>
</trkpt>
<trkpt lat="22.320133" lon="103.769814">
<ele>2608.595703</ele>
<time>2011-04-24T01:51:58Z</time>
<desc>lat.=22.320133, lon.=103.769814, Alt.=2608.595703m. Speed=0.432000m/h.</desc>
<speed>0.120000</speed>
</trkpt>
<trkpt lat="22.320139" lon="103.769814">
<ele>2608.658203</ele>
<time>2011-04-24T01:52:03Z</time>
<desc>lat.=22.320139, lon.=103.769814, Alt.=2608.658203m. Speed=0.612000m/h.</desc>
<speed>0.170000</speed>
</trkpt>
<trkpt lat="22.320147" lon="103.769821">
<ele>2608.658203</ele>
<time>2011-04-24T01:52:08Z</time>
<desc>lat.=22.320147, lon.=103.769821, Alt.=2608.658203m. Speed=0.540000m/h.</desc>
<speed>0.150000</speed>
</trkpt>
<trkpt lat="22.320156" lon="103.769821">
<ele>2608.595703</ele>
<time>2011-04-24T01:52:13Z</time>
<desc>lat.=22.320156, lon.=103.769821, Alt.=2608.595703m. Speed=1.368000m/h.</desc>
<speed>0.380000</speed>
</trkpt>
<trkpt lat="22.320171" lon="103.769821">
<ele>2608.095703</ele>
<time>2011-04-24T01:52:18Z</time>
<desc>lat.=22.320171, lon.=103.769821, Alt.=2608.095703m. Speed=1.224000m/h.</desc>
<speed>0.340000</speed>
</trkpt>
<trkpt lat="22.320185" lon="103.769821">
<ele>2607.908203</ele>
<time>2011-04-24T01:52:23Z</time>
<desc>lat.=22.320185, lon.=103.769821, Alt.=2607.908203m. Speed=1.044000m/h.</desc>
<speed>0.290000</speed>
</trkpt>
<trkpt lat="22.320230" lon="103.769844">
<ele>2604.095703</ele>
<time>2011-04-24T01:52:28Z</time>
<desc>lat.=22.320230, lon.=103.769844, Alt.=2604.095703m. Speed=1.476000m/h.</desc>
<speed>0.410000</speed>
</trkpt>
<trkpt lat="22.320248" lon="103.769844">
<ele>2603.720703</ele>
<time>2011-04-24T01:52:33Z</time>
<desc>lat.=22.320248, lon.=103.769844, Alt.=2603.720703m. Speed=1.512000m/h.</desc>
<speed>0.420000</speed>
</trkpt>
<trkpt lat="22.320248" lon="103.769844">
<ele>2603.220703</ele>
<time>2011-04-24T01:52:38Z</time>
<desc>lat.=22.320248, lon.=103.769844, Alt.=2603.220703m. Speed=1.080000m/h.</desc>
<speed>0.300000</speed>
</trkpt>
<trkpt lat="22.320255" lon="103.769844">
<ele>2603.658203</ele>
<time>2011-04-24T01:52:43Z</time>
<desc>lat.=22.320255, lon.=103.769844, Alt.=2603.658203m. Speed=1.296000m/h.</desc>
<speed>0.360000</speed>
</trkpt>
<trkpt lat="22.320253" lon="103.769844">
<ele>2603.470703</ele>
<time>2011-04-24T01:52:48Z</time>
<desc>lat.=22.320253, lon.=103.769844, Alt.=2603.470703m. Speed=1.044000m/h.</desc>
<speed>0.290000</speed>
</trkpt>
<trkpt lat="22.320253" lon="103.769852">
<ele>2603.720703</ele>
<time>2011-04-24T01:52:53Z</time>
<desc>lat.=22.320253, lon.=103.769852, Alt.=2603.720703m. Speed=0.756000m/h.</desc>
<speed>0.210000</speed>
</trkpt>
<trkpt lat="22.320261" lon="103.769859">
<ele>2603.720703</ele>
<time>2011-04-24T01:52:58Z</time>
<desc>lat.=22.320261, lon.=103.769859, Alt.=2603.720703m. Speed=0.972000m/h.</desc>
<speed>0.270000</speed>
</trkpt>
<trkpt lat="22.320246" lon="103.769913">
<ele>2603.658203</ele>
<time>2011-04-24T01:53:03Z</time>
<desc>lat.=22.320246, lon.=103.769913, Alt.=2603.658203m. Speed=2.412000m/h.</desc>
<speed>0.670000</speed>
</trkpt>
<trkpt lat="22.320213" lon="103.769928">
<ele>2603.720703</ele>
<time>2011-04-24T01:53:08Z</time>
<desc>lat.=22.320213, lon.=103.769928, Alt.=2603.720703m. Speed=1.512000m/h.</desc>
<speed>0.420000</speed>
</trkpt>
<trkpt lat="22.320171" lon="103.769913">
<ele>2603.783203</ele>
<time>2011-04-24T01:53:13Z</time>
<desc>lat.=22.320171, lon.=103.769913, Alt.=2603.783203m. Speed=0.828000m/h.</desc>
<speed>0.230000</speed>
</trkpt>
<trkpt lat="22.320160" lon="103.769913">
<ele>2603.908203</ele>
<time>2011-04-24T01:53:18Z</time>
<desc>lat.=22.320160, lon.=103.769913, Alt.=2603.908203m. Speed=0.396000m/h.</desc>
<speed>0.110000</speed>
</trkpt>
<trkpt lat="22.320154" lon="103.769920">
<ele>2603.970703</ele>
<time>2011-04-24T01:53:23Z</time>
<desc>lat.=22.320154, lon.=103.769920, Alt.=2603.970703m. Speed=0.648000m/h.</desc>
<speed>0.180000</speed>
</trkpt>
<trkpt lat="22.320148" lon="103.769928">
<ele>2604.095703</ele>
<time>2011-04-24T01:53:28Z</time>
<desc>lat.=22.320148, lon.=103.769928, Alt.=2604.095703m. Speed=0.720000m/h.</desc>
<speed>0.200000</speed>
</trkpt>
<trkpt lat="22.320139" lon="103.769913">
<ele>2604.658203</ele>
<time>2011-04-24T01:53:33Z</time>
<desc>lat.=22.320139, lon.=103.769913, Alt.=2604.658203m. Speed=1.188000m/h.</desc>
<speed>0.330000</speed>
</trkpt>
<trkpt lat="22.320131" lon="103.769913">
<ele>2604.658203</ele>
<time>2011-04-24T01:53:38Z</time>
<desc>lat.=22.320131, lon.=103.769913, Alt.=2604.658203m. Speed=0.576000m/h.</desc>
<speed>0.160000</speed>
</trkpt>
<trkpt lat="22.320129" lon="103.769913">
<ele>2604.783203</ele>
<time>2011-04-24T01:53:43Z</time>
<desc>lat.=22.320129, lon.=103.769913, Alt.=2604.783203m. Speed=0.144000m/h.</desc>
<speed>0.040000</speed>
</trkpt>
<trkpt lat="22.320124" lon="103.769913">
<ele>2605.220703</ele>
<time>2011-04-24T01:53:48Z</time>
<desc>lat.=22.320124, lon.=103.769913, Alt.=2605.220703m. Speed=0.792000m/h.</desc>
<speed>0.220000</speed>
</trkpt>
<trkpt lat="22.320120" lon="103.769920">
<ele>2605.345703</ele>
<time>2011-04-24T01:53:53Z</time>
<desc>lat.=22.320120, lon.=103.769920, Alt.=2605.345703m. Speed=0.648000m/h.</desc>
<speed>0.180000</speed>
</trkpt>
<trkpt lat="22.320116" lon="103.769920">
<ele>2605.533203</ele>
<time>2011-04-24T01:53:58Z</time>
<desc>lat.=22.320116, lon.=103.769920, Alt.=2605.533203m. Speed=0.504000m/h.</desc>
<speed>0.140000</speed>
</trkpt>
<trkpt lat="22.320108" lon="103.769928">
<ele>2605.720703</ele>
<time>2011-04-24T01:54:03Z</time>
<desc>lat.=22.320108, lon.=103.769928, Alt.=2605.720703m. Speed=0.648000m/h.</desc>
<speed>0.180000</speed>
</trkpt>
<trkpt lat="22.320101" lon="103.769920">
<ele>2605.908203</ele>
<time>2011-04-24T01:54:08Z</time>
<desc>lat.=22.320101, lon.=103.769920, Alt.=2605.908203m. Speed=0.720000m/h.</desc>
<speed>0.200000</speed>
</trkpt>
<trkpt lat="22.320091" lon="103.769920">
<ele>2606.095703</ele>
<time>2011-04-24T01:54:13Z</time>
<desc>lat.=22.320091, lon.=103.769920, Alt.=2606.095703m. Speed=0.756000m/h.</desc>
<speed>0.210000</speed>
</trkpt>
<trkpt lat="22.320082" lon="103.769920">
<ele>2606.283203</ele>
<time>2011-04-24T01:54:18Z</time>
<desc>lat.=22.320082, lon.=103.769920, Alt.=2606.283203m. Speed=0.540000m/h.</desc>
<speed>0.150000</speed>
</trkpt>
<trkpt lat="22.320084" lon="103.769928">
<ele>2606.533203</ele>
<time>2011-04-24T01:54:23Z</time>
<desc>lat.=22.320084, lon.=103.769928, Alt.=2606.533203m. Speed=0.432000m/h.</desc>
<speed>0.120000</speed>
</trkpt>
<trkpt lat="22.320084" lon="103.769920">
<ele>2606.908203</ele>
<time>2011-04-24T01:54:28Z</time>
<desc>lat.=22.320084, lon.=103.769920, Alt.=2606.908203m. Speed=0.396000m/h.</desc>
<speed>0.110000</speed>
</trkpt>
<trkpt lat="22.320082" lon="103.769913">
<ele>2607.283203</ele>
<time>2011-04-24T01:54:33Z</time>
<desc>lat.=22.320082, lon.=103.769913, Alt.=2607.283203m. Speed=0.216000m/h.</desc>
<speed>0.060000</speed>
</trkpt>
<trkpt lat="22.320082" lon="103.769913">
<ele>2607.720703</ele>
<time>2011-04-24T01:54:38Z</time>
<desc>lat.=22.320082, lon.=103.769913, Alt.=2607.720703m. Speed=0.252000m/h.</desc>
<speed>0.070000</speed>
</trkpt>
<trkpt lat="22.320082" lon="103.769913">
<ele>2608.283203</ele>
<time>2011-04-24T01:54:43Z</time>
<desc>lat.=22.320082, lon.=103.769913, Alt.=2608.283203m. Speed=0.144000m/h.</desc>
<speed>0.040000</speed>
</trkpt>
<trkpt lat="22.320082" lon="103.769913">
<ele>2608.845703</ele>
<time>2011-04-24T01:54:48Z</time>
<desc>lat.=22.320082, lon.=103.769913, Alt.=2608.845703m. Speed=0.360000m/h.</desc>
<speed>0.100000</speed>
</trkpt>
<trkpt lat="22.320080" lon="103.769905">
<ele>2609.408203</ele>
<time>2011-04-24T01:54:53Z</time>
<desc>lat.=22.320080, lon.=103.769905, Alt.=2609.408203m. Speed=0.396000m/h.</desc>
<speed>0.110000</speed>
</trkpt>
<trkpt lat="22.320076" lon="103.769905">
<ele>2610.033203</ele>
<time>2011-04-24T01:54:58Z</time>
<desc>lat.=22.320076, lon.=103.769905, Alt.=2610.033203m. Speed=0.540000m/h.</desc>
<speed>0.150000</speed>
</trkpt>
<trkpt lat="22.320068" lon="103.769897">
<ele>2610.658203</ele>
<time>2011-04-24T01:55:03Z</time>
<desc>lat.=22.320068, lon.=103.769897, Alt.=2610.658203m. Speed=0.180000m/h.</desc>
<speed>0.050000</speed>
</trkpt>
<trkpt lat="22.320068" lon="103.769897">
<ele>2611.283203</ele>
<time>2011-04-24T01:55:08Z</time>
<desc>lat.=22.320068, lon.=103.769897, Alt.=2611.283203m. Speed=0.504000m/h.</desc>
<speed>0.140000</speed>
</trkpt>
<trkpt lat="22.320070" lon="103.769905">
<ele>2611.845703</ele>
<time>2011-04-24T01:55:13Z</time>
<desc>lat.=22.320070, lon.=103.769905, Alt.=2611.845703m. Speed=0.432000m/h.</desc>
<speed>0.120000</speed>
</trkpt>
<trkpt lat="22.320074" lon="103.769913">
<ele>2612.408203</ele>
<time>2011-04-24T01:55:18Z</time>
<desc>lat.=22.320074, lon.=103.769913, Alt.=2612.408203m. Speed=0.360000m/h.</desc>
<speed>0.100000</speed>
</trkpt>
<trkpt lat="22.320078" lon="103.769913">
<ele>2613.033203</ele>
<time>2011-04-24T01:55:23Z</time>
<desc>lat.=22.320078, lon.=103.769913, Alt.=2613.033203m. Speed=0.540000m/h.</desc>
<speed>0.150000</speed>
</trkpt>
<trkpt lat="22.320086" lon="103.769920">
<ele>2613.595703</ele>
<time>2011-04-24T01:55:28Z</time>
<desc>lat.=22.320086, lon.=103.769920, Alt.=2613.595703m. Speed=0.540000m/h.</desc>
<speed>0.150000</speed>
</trkpt>
<trkpt lat="22.320091" lon="103.769920">
<ele>2614.158203</ele>
<time>2011-04-24T01:55:33Z</time>
<desc>lat.=22.320091, lon.=103.769920, Alt.=2614.158203m. Speed=0.396000m/h.</desc>
<speed>0.110000</speed>
</trkpt>
<trkpt lat="22.320097" lon="103.769913">
<ele>2614.720703</ele>
<time>2011-04-24T01:55:38Z</time>
<desc>lat.=22.320097, lon.=103.769913, Alt.=2614.720703m. Speed=0.684000m/h.</desc>
<speed>0.190000</speed>
</trkpt>
<trkpt lat="22.320097" lon="103.769897">
<ele>2615.033203</ele>
<time>2011-04-24T01:55:43Z</time>
<desc>lat.=22.320097, lon.=103.769897, Alt.=2615.033203m. Speed=1.152000m/h.</desc>
<speed>0.320000</speed>
</trkpt>
<trkpt lat="22.320087" lon="103.769867">
<ele>2615.220703</ele>
<time>2011-04-24T01:55:48Z</time>
<desc>lat.=22.320087, lon.=103.769867, Alt.=2615.220703m. Speed=1.116000m/h.</desc>
<speed>0.310000</speed>
</trkpt>
<trkpt lat="22.320066" lon="103.769844">
<ele>2616.345703</ele>
<time>2011-04-24T01:55:53Z</time>
<desc>lat.=22.320066, lon.=103.769844, Alt.=2616.345703m. Speed=1.584000m/h.</desc>
<speed>0.440000</speed>
</trkpt>
<trkpt lat="22.320026" lon="103.769829">
<ele>2617.345703</ele>
<time>2011-04-24T01:55:58Z</time>
<desc>lat.=22.320026, lon.=103.769829, Alt.=2617.345703m. Speed=1.332000m/h.</desc>
<speed>0.370000</speed>
</trkpt>
<trkpt lat="22.320009" lon="103.769806">
<ele>2617.908203</ele>
<time>2011-04-24T01:56:03Z</time>
<desc>lat.=22.320009, lon.=103.769806, Alt.=2617.908203m. Speed=0.936000m/h.</desc>
<speed>0.260000</speed>
</trkpt>
<trkpt lat="22.320007" lon="103.769798">
<ele>2618.283203</ele>
<time>2011-04-24T01:56:08Z</time>
<desc>lat.=22.320007, lon.=103.769798, Alt.=2618.283203m. Speed=0.720000m/h.</desc>
<speed>0.200000</speed>
</trkpt>
<trkpt lat="22.319996" lon="103.769775">
<ele>2618.908203</ele>
<time>2011-04-24T01:56:13Z</time>
<desc>lat.=22.319996, lon.=103.769775, Alt.=2618.908203m. Speed=1.332000m/h.</desc>
<speed>0.370000</speed>
</trkpt>
<trkpt lat="22.319983" lon="103.769730">
<ele>2619.408203</ele>
<time>2011-04-24T01:56:18Z</time>
<desc>lat.=22.319983, lon.=103.769730, Alt.=2619.408203m. Speed=1.332000m/h.</desc>
<speed>0.370000</speed>
</trkpt>
<trkpt lat="22.319973" lon="103.769707">
<ele>2619.658203</ele>
<time>2011-04-24T01:56:23Z</time>
<desc>lat.=22.319973, lon.=103.769707, Alt.=2619.658203m. Speed=1.476000m/h.</desc>
<speed>0.410000</speed>
</trkpt>
<trkpt lat="22.319969" lon="103.769684">
<ele>2620.408203</ele>
<time>2011-04-24T01:56:28Z</time>
<desc>lat.=22.319969, lon.=103.769684, Alt.=2620.408203m. Speed=1.188000m/h.</desc>
<speed>0.330000</speed>
</trkpt>
<trkpt lat="22.319952" lon="103.769661">
<ele>2621.033203</ele>
<time>2011-04-24T01:56:33Z</time>
<desc>lat.=22.319952, lon.=103.769661, Alt.=2621.033203m. Speed=1.404000m/h.</desc>
<speed>0.390000</speed>
</trkpt>
<trkpt lat="22.319962" lon="103.769653">
<ele>2621.283203</ele>
<time>2011-04-24T01:56:38Z</time>
<desc>lat.=22.319962, lon.=103.769653, Alt.=2621.283203m. Speed=0.612000m/h.</desc>
<speed>0.170000</speed>
</trkpt>
<trkpt lat="22.319960" lon="103.769638">
<ele>2621.970703</ele>
<time>2011-04-24T01:56:43Z</time>
<desc>lat.=22.319960, lon.=103.769638, Alt.=2621.970703m. Speed=0.792000m/h.</desc>
<speed>0.220000</speed>
</trkpt>
<trkpt lat="22.319965" lon="103.769630">
<ele>2622.845703</ele>
<time>2011-04-24T01:56:48Z</time>
<desc>lat.=22.319965, lon.=103.769630, Alt.=2622.845703m. Speed=0.936000m/h.</desc>
<speed>0.260000</speed>
</trkpt>
<trkpt lat="22.319967" lon="103.769615">
<ele>2623.658203</ele>
<time>2011-04-24T01:56:53Z</time>
<desc>lat.=22.319967, lon.=103.769615, Alt.=2623.658203m. Speed=0.648000m/h.</desc>
<speed>0.180000</speed>
</trkpt>
<trkpt lat="22.319967" lon="103.769608">
<ele>2624.283203</ele>
<time>2011-04-24T01:56:58Z</time>
<desc>lat.=22.319967, lon.=103.769608, Alt.=2624.283203m. Speed=0.360000m/h.</desc>
<speed>0.100000</speed>
</trkpt>
<trkpt lat="22.319962" lon="103.769615">
<ele>2624.970703</ele>
<time>2011-04-24T01:57:03Z</time>
<desc>lat.=22.319962, lon.=103.769615, Alt.=2624.970703m. Speed=0.576000m/h.</desc>
<speed>0.160000</speed>
</trkpt>
<trkpt lat="22.319952" lon="103.769623">
<ele>2625.845703</ele>
<time>2011-04-24T01:57:08Z</time>
<desc>lat.=22.319952, lon.=103.769623, Alt.=2625.845703m. Speed=1.008000m/h.</desc>
<speed>0.280000</speed>
</trkpt>
<trkpt lat="22.319946" lon="103.769615">
<ele>2626.720703</ele>
<time>2011-04-24T01:57:13Z</time>
<desc>lat.=22.319946, lon.=103.769615, Alt.=2626.720703m. Speed=0.576000m/h.</desc>
<speed>0.160000</speed>
</trkpt>
<trkpt lat="22.319944" lon="103.769608">
<ele>2627.408203</ele>
<time>2011-04-24T01:57:18Z</time>
<desc>lat.=22.319944, lon.=103.769608, Alt.=2627.408203m. Speed=0.288000m/h.</desc>
<speed>0.080000</speed>
</trkpt>
<trkpt lat="22.319944" lon="103.769608">
<ele>2628.095703</ele>
<time>2011-04-24T01:57:23Z</time>
<desc>lat.=22.319944, lon.=103.769608, Alt.=2628.095703m. Speed=0.360000m/h.</desc>
<speed>0.100000</speed>
</trkpt>
<trkpt lat="22.319941" lon="103.769600">
<ele>2628.783203</ele>
<time>2011-04-24T01:57:28Z</time>
<desc>lat.=22.319941, lon.=103.769600, Alt.=2628.783203m. Speed=0.216000m/h.</desc>
<speed>0.060000</speed>
</trkpt>
<trkpt lat="22.319935" lon="103.769608">
<ele>2629.470703</ele>
<time>2011-04-24T01:57:33Z</time>
<desc>lat.=22.319935, lon.=103.769608, Alt.=2629.470703m. Speed=0.504000m/h.</desc>
<speed>0.140000</speed>
</trkpt>
<trkpt lat="22.319927" lon="103.769608">
<ele>2630.158203</ele>
<time>2011-04-24T01:57:38Z</time>
<desc>lat.=22.319927, lon.=103.769608, Alt.=2630.158203m. Speed=0.864000m/h.</desc>
<speed>0.240000</speed>
</trkpt>
<trkpt lat="22.319918" lon="103.769608">
<ele>2630.845703</ele>
<time>2011-04-24T01:57:43Z</time>
<desc>lat.=22.319918, lon.=103.769608, Alt.=2630.845703m. Speed=0.144000m/h.</desc>
<speed>0.040000</speed>
</trkpt>
<trkpt lat="22.319916" lon="103.769608">
<ele>2631.470703</ele>
<time>2011-04-24T01:57:48Z</time>
<desc>lat.=22.319916, lon.=103.769608, Alt.=2631.470703m. Speed=0.684000m/h.</desc>
<speed>0.190000</speed>
</trkpt>
<trkpt lat="22.319902" lon="103.769600">
<ele>2631.970703</ele>
<time>2011-04-24T01:57:53Z</time>
<desc>lat.=22.319902, lon.=103.769600, Alt.=2631.970703m. Speed=1.188000m/h.</desc>
<speed>0.330000</speed>
</trkpt>
<trkpt lat="22.319876" lon="103.769585">
<ele>2632.908203</ele>
<time>2011-04-24T01:57:58Z</time>
<desc>lat.=22.319876, lon.=103.769585, Alt.=2632.908203m. Speed=1.368000m/h.</desc>
<speed>0.380000</speed>
</trkpt>
<trkpt lat="22.319870" lon="103.769569">
<ele>2633.783203</ele>
<time>2011-04-24T01:58:03Z</time>
<desc>lat.=22.319870, lon.=103.769569, Alt.=2633.783203m. Speed=1.260000m/h.</desc>
<speed>0.350000</speed>
</trkpt>
<trkpt lat="22.319853" lon="103.769569">
<ele>2634.345703</ele>
<time>2011-04-24T01:58:08Z</time>
<desc>lat.=22.319853, lon.=103.769569, Alt.=2634.345703m. Speed=1.224000m/h.</desc>
<speed>0.340000</speed>
</trkpt>
<trkpt lat="22.319860" lon="103.769577">
<ele>2634.845703</ele>
<time>2011-04-24T01:58:13Z</time>
<desc>lat.=22.319860, lon.=103.769577, Alt.=2634.845703m. Speed=0.576000m/h.</desc>
<speed>0.160000</speed>
</trkpt>
<trkpt lat="22.319845" lon="103.769585">
<ele>2635.845703</ele>
<time>2011-04-24T01:58:18Z</time>
<desc>lat.=22.319845, lon.=103.769585, Alt.=2635.845703m. Speed=0.432000m/h.</desc>
<speed>0.120000</speed>
</trkpt>
<trkpt lat="22.319841" lon="103.769577">
<ele>2636.470703</ele>
<time>2011-04-24T01:58:23Z</time>
<desc>lat.=22.319841, lon.=103.769577, Alt.=2636.470703m. Speed=0.720000m/h.</desc>
<speed>0.200000</speed>
</trkpt>
<trkpt lat="22.319839" lon="103.769569">
<ele>2637.158203</ele>
<time>2011-04-24T01:58:28Z</time>
<desc>lat.=22.319839, lon.=103.769569, Alt.=2637.158203m. Speed=0.828000m/h.</desc>
<speed>0.230000</speed>
</trkpt>
<trkpt lat="22.319822" lon="103.769554">
<ele>2638.095703</ele>
<time>2011-04-24T01:58:33Z</time>
<desc>lat.=22.319822, lon.=103.769554, Alt.=2638.095703m. Speed=1.008000m/h.</desc>
<speed>0.280000</speed>
</trkpt>
<trkpt lat="22.319828" lon="103.769554">
<ele>2638.533203</ele>
<time>2011-04-24T01:58:38Z</time>
<desc>lat.=22.319828, lon.=103.769554, Alt.=2638.533203m. Speed=0.792000m/h.</desc>
<speed>0.220000</speed>
</trkpt>
<trkpt lat="22.319826" lon="103.769554">
<ele>2639.095703</ele>
<time>2011-04-24T01:58:43Z</time>
<desc>lat.=22.319826, lon.=103.769554, Alt.=2639.095703m. Speed=0.288000m/h.</desc>
<speed>0.080000</speed>
</trkpt>
<trkpt lat="22.319820" lon="103.769547">
<ele>2639.658203</ele>
<time>2011-04-24T01:58:48Z</time>
<desc>lat.=22.319820, lon.=103.769547, Alt.=2639.658203m. Speed=0.252000m/h.</desc>
<speed>0.070000</speed>
</trkpt>
<trkpt lat="22.319822" lon="103.769547">
<ele>2640.283203</ele>
<time>2011-04-24T01:58:53Z</time>
<desc>lat.=22.319822, lon.=103.769547, Alt.=2640.283203m. Speed=0.288000m/h.</desc>
<speed>0.080000</speed>
</trkpt>
<trkpt lat="22.319824" lon="103.769547">
<ele>2640.908203</ele>
<time>2011-04-24T01:58:58Z</time>
<desc>lat.=22.319824, lon.=103.769547, Alt.=2640.908203m. Speed=0.324000m/h.</desc>
<speed>0.090000</speed>
</trkpt>
<trkpt lat="22.319826" lon="103.769539">
<ele>2641.220703</ele>
<time>2011-04-24T01:59:03Z</time>
<desc>lat.=22.319826, lon.=103.769539, Alt.=2641.220703m. Speed=0.144000m/h.</desc>
<speed>0.040000</speed>
</trkpt>
<trkpt lat="22.319824" lon="103.769547">
<ele>2641.408203</ele>
<time>2011-04-24T01:59:08Z</time>
<desc>lat.=22.319824, lon.=103.769547, Alt.=2641.408203m. Speed=0.396000m/h.</desc>
<speed>0.110000</speed>
</trkpt>
<trkpt lat="22.319820" lon="103.769547">
<ele>2641.533203</ele>
<time>2011-04-24T01:59:13Z</time>
<desc>lat.=22.319820, lon.=103.769547, Alt.=2641.533203m. Speed=0.792000m/h.</desc>
<speed>0.220000</speed>
</trkpt>
<trkpt lat="22.319815" lon="103.769554">
<ele>2641.783203</ele>
<time>2011-04-24T01:59:18Z</time>
<desc>lat.=22.319815, lon.=103.769554, Alt.=2641.783203m. Speed=0.900000m/h.</desc>
<speed>0.250000</speed>
</trkpt>
<trkpt lat="22.319807" lon="103.769539">
<ele>2642.533203</ele>
<time>2011-04-24T01:59:23Z</time>
<desc>lat.=22.319807, lon.=103.769539, Alt.=2642.533203m. Speed=0.684000m/h.</desc>
<speed>0.190000</speed>
</trkpt>
<trkpt lat="22.319803" lon="103.769539">
<ele>2642.658203</ele>
<time>2011-04-24T01:59:28Z</time>
<desc>lat.=22.319803, lon.=103.769539, Alt.=2642.658203m. Speed=0.072000m/h.</desc>
<speed>0.020000</speed>
</trkpt>
<trkpt lat="22.319782" lon="103.769539">
<ele>2642.720703</ele>
<time>2011-04-24T01:59:33Z</time>
<desc>lat.=22.319782, lon.=103.769539, Alt.=2642.720703m. Speed=1.008000m/h.</desc>
<speed>0.280000</speed>
</trkpt>
<trkpt lat="22.319750" lon="103.769516">
<ele>2642.783203</ele>
<time>2011-04-24T01:59:38Z</time>
<desc>lat.=22.319750, lon.=103.769516, Alt.=2642.783203m. Speed=1.440000m/h.</desc>
<speed>0.400000</speed>
</trkpt>
<trkpt lat="22.319746" lon="103.769493">
<ele>2642.470703</ele>
<time>2011-04-24T01:59:43Z</time>
<desc>lat.=22.319746, lon.=103.769493, Alt.=2642.470703m. Speed=1.260000m/h.</desc>
<speed>0.350000</speed>
</trkpt>
<trkpt lat="22.319736" lon="103.769485">
<ele>2642.408203</ele>
<time>2011-04-24T01:59:48Z</time>
<desc>lat.=22.319736, lon.=103.769485, Alt.=2642.408203m. Speed=0.828000m/h.</desc>
<speed>0.230000</speed>
</trkpt>
<trkpt lat="22.319735" lon="103.769478">
<ele>2642.408203</ele>
<time>2011-04-24T01:59:53Z</time>
<desc>lat.=22.319735, lon.=103.769478, Alt.=2642.408203m. Speed=1.224000m/h.</desc>
<speed>0.340000</speed>
</trkpt>
<trkpt lat="22.319733" lon="103.769455">
<ele>2642.783203</ele>
<time>2011-04-24T01:59:58Z</time>
<desc>lat.=22.319733, lon.=103.769455, Alt.=2642.783203m. Speed=1.008000m/h.</desc>
<speed>0.280000</speed>
</trkpt>
<trkpt lat="22.319731" lon="103.769440">
<ele>2642.970703</ele>
<time>2011-04-24T02:00:03Z</time>
<desc>lat.=22.319731, lon.=103.769440, Alt.=2642.970703m. Speed=1.080000m/h.</desc>
<speed>0.300000</speed>
</trkpt>
<trkpt lat="22.319727" lon="103.769417">
<ele>2644.283203</ele>
<time>2011-04-24T02:00:08Z</time>
<desc>lat.=22.319727, lon.=103.769417, Alt.=2644.283203m. Speed=1.116000m/h.</desc>
<speed>0.310000</speed>
</trkpt>
<trkpt lat="22.319708" lon="103.769417">
<ele>2644.783203</ele>
<time>2011-04-24T02:00:13Z</time>
<desc>lat.=22.319708, lon.=103.769417, Alt.=2644.783203m. Speed=0.900000m/h.</desc>
<speed>0.250000</speed>
</trkpt>
<trkpt lat="22.319704" lon="103.769417">
<ele>2644.908203</ele>
<time>2011-04-24T02:00:18Z</time>
<desc>lat.=22.319704, lon.=103.769417, Alt.=2644.908203m. Speed=1.188000m/h.</desc>
<speed>0.330000</speed>
</trkpt>
<trkpt lat="22.319687" lon="103.769402">
<ele>2645.283203</ele>
<time>2011-04-24T02:00:23Z</time>
<desc>lat.=22.319687, lon.=103.769402, Alt.=2645.283203m. Speed=1.044000m/h.</desc>
<speed>0.290000</speed>
</trkpt>
<trkpt lat="22.319675" lon="103.769394">
<ele>2646.220703</ele>
<time>2011-04-24T02:00:28Z</time>
<desc>lat.=22.319675, lon.=103.769394, Alt.=2646.220703m. Speed=1.836000m/h.</desc>
<speed>0.510000</speed>
</trkpt>
<trkpt lat="22.319662" lon="103.769371">
<ele>2647.158203</ele>
<time>2011-04-24T02:00:33Z</time>
<desc>lat.=22.319662, lon.=103.769371, Alt.=2647.158203m. Speed=1.008000m/h.</desc>
<speed>0.280000</speed>
</trkpt>
<trkpt lat="22.319656" lon="103.769333">
<ele>2647.408203</ele>
<time>2011-04-24T02:00:38Z</time>
<desc>lat.=22.319656, lon.=103.769333, Alt.=2647.408203m. Speed=1.980000m/h.</desc>
<speed>0.550000</speed>
</trkpt>
<trkpt lat="22.319656" lon="103.769302">
<ele>2648.408203</ele>
<time>2011-04-24T02:00:43Z</time>
<desc>lat.=22.319656, lon.=103.769302, Alt.=2648.408203m. Speed=4.104000m/h.</desc>
<speed>1.140000</speed>
</trkpt>
<trkpt lat="22.319647" lon="103.769279">
<ele>2648.283203</ele>
<time>2011-04-24T02:00:48Z</time>
<desc>lat.=22.319647, lon.=103.769279, Alt.=2648.283203m. Speed=2.520000m/h.</desc>
<speed>0.700000</speed>
</trkpt>
<trkpt lat="22.319637" lon="103.769257">
<ele>2649.345703</ele>
<time>2011-04-24T02:00:53Z</time>
<desc>lat.=22.319637, lon.=103.769257, Alt.=2649.345703m. Speed=0.288000m/h.</desc>
<speed>0.080000</speed>
</trkpt>
<trkpt lat="22.319643" lon="103.769257">
<ele>2650.158203</ele>
<time>2011-04-24T02:00:58Z</time>
<desc>lat.=22.319643, lon.=103.769257, Alt.=2650.158203m. Speed=0.144000m/h.</desc>
<speed>0.040000</speed>
</trkpt>
<trkpt lat="22.319641" lon="103.769257">
<ele>2650.220703</ele>
<time>2011-04-24T02:01:03Z</time>
<desc>lat.=22.319641, lon.=103.769257, Alt.=2650.220703m. Speed=1.224000m/h.</desc>
<speed>0.340000</speed>
</trkpt>
<trkpt lat="22.319630" lon="103.769249">
<ele>2650.783203</ele>
<time>2011-04-24T02:01:08Z</time>
<desc>lat.=22.319630, lon.=103.769249, Alt.=2650.783203m. Speed=1.728000m/h.</desc>
<speed>0.480000</speed>
</trkpt>
<trkpt lat="22.319620" lon="103.769218">
<ele>2651.345703</ele>
<time>2011-04-24T02:01:13Z</time>
<desc>lat.=22.319620, lon.=103.769218, Alt.=2651.345703m. Speed=3.996000m/h.</desc>
<speed>1.110000</speed>
</trkpt>
<trkpt lat="22.319633" lon="103.769165">
<ele>2650.908203</ele>
<time>2011-04-24T02:01:18Z</time>
<desc>lat.=22.319633, lon.=103.769165, Alt.=2650.908203m. Speed=3.780000m/h.</desc>
<speed>1.050000</speed>
</trkpt>
<trkpt lat="22.319630" lon="103.769119">
<ele>2650.220703</ele>
<time>2011-04-24T02:01:23Z</time>
<desc>lat.=22.319630, lon.=103.769119, Alt.=2650.220703m. Speed=0.648000m/h.</desc>
<speed>0.180000</speed>
</trkpt>
<trkpt lat="22.319635" lon="103.769096">
<ele>2650.408203</ele>
<time>2011-04-24T02:01:28Z</time>
<desc>lat.=22.319635, lon.=103.769096, Alt.=2650.408203m. Speed=3.348000m/h.</desc>
<speed>0.930000</speed>
</trkpt>
<trkpt lat="22.319666" lon="103.769058">
<ele>2651.533203</ele>
<time>2011-04-24T02:01:33Z</time>
<desc>lat.=22.319666, lon.=103.769058, Alt.=2651.533203m. Speed=3.420000m/h.</desc>
<speed>0.950000</speed>
</trkpt>
<trkpt lat="22.319677" lon="103.769028">
<ele>2652.658203</ele>
<time>2011-04-24T02:01:38Z</time>
<desc>lat.=22.319677, lon.=103.769028, Alt.=2652.658203m. Speed=2.448000m/h.</desc>
<speed>0.680000</speed>
</trkpt>
<trkpt lat="22.319691" lon="103.768997">
<ele>2652.658203</ele>
<time>2011-04-24T02:01:43Z</time>
<desc>lat.=22.319691, lon.=103.768997, Alt.=2652.658203m. Speed=4.644000m/h.</desc>
<speed>1.290000</speed>
</trkpt>
<trkpt lat="22.319674" lon="103.768959">
<ele>2653.908203</ele>
<time>2011-04-24T02:01:48Z</time>
<desc>lat.=22.319674, lon.=103.768959, Alt.=2653.908203m. Speed=1.692000m/h.</desc>
<speed>0.470000</speed>
</trkpt>
<trkpt lat="22.319666" lon="103.768929">
<ele>2655.033203</ele>
<time>2011-04-24T02:01:53Z</time>
<desc>lat.=22.319666, lon.=103.768929, Alt.=2655.033203m. Speed=1.800000m/h.</desc>
<speed>0.500000</speed>
</trkpt>
<trkpt lat="22.319664" lon="103.768913">
<ele>2654.720703</ele>
<time>2011-04-24T02:01:58Z</time>
<desc>lat.=22.319664, lon.=103.768913, Alt.=2654.720703m. Speed=1.080000m/h.</desc>
<speed>0.300000</speed>
</trkpt>
<trkpt lat="22.319666" lon="103.768890">
<ele>2654.158203</ele>
<time>2011-04-24T02:02:03Z</time>
<desc>lat.=22.319666, lon.=103.768890, Alt.=2654.158203m. Speed=2.556000m/h.</desc>
<speed>0.710000</speed>
</trkpt>
<trkpt lat="22.319658" lon="103.768837">
<ele>2654.470703</ele>
<time>2011-04-24T02:02:08Z</time>
<desc>lat.=22.319658, lon.=103.768837, Alt.=2654.470703m. Speed=2.628000m/h.</desc>
<speed>0.730000</speed>
</trkpt>
<trkpt lat="22.319662" lon="103.768829">
<ele>2654.533203</ele>
<time>2011-04-24T02:02:13Z</time>
<desc>lat.=22.319662, lon.=103.768829, Alt.=2654.533203m. Speed=0.720000m/h.</desc>
<speed>0.200000</speed>
</trkpt>
<trkpt lat="22.319662" lon="103.768814">
<ele>2654.720703</ele>
<time>2011-04-24T02:02:18Z</time>
<desc>lat.=22.319662, lon.=103.768814, Alt.=2654.720703m. Speed=1.872000m/h.</desc>
<speed>0.520000</speed>
</trkpt>
<trkpt lat="22.319641" lon="103.768791">
<ele>2654.595703</ele>
<time>2011-04-24T02:02:23Z</time>
<desc>lat.=22.319641, lon.=103.768791, Alt.=2654.595703m. Speed=1.656000m/h.</desc>
<speed>0.460000</speed>
</trkpt>
<trkpt lat="22.319611" lon="103.768738">
<ele>2654.595703</ele>
<time>2011-04-24T02:02:28Z</time>
<desc>lat.=22.319611, lon.=103.768738, Alt.=2654.595703m. Speed=3.780000m/h.</desc>
<speed>1.050000</speed>
</trkpt>
<trkpt lat="22.319576" lon="103.768715">
<ele>2654.595703</ele>
<time>2011-04-24T02:02:33Z</time>
<desc>lat.=22.319576, lon.=103.768715, Alt.=2654.595703m. Speed=1.728000m/h.</desc>
<speed>0.480000</speed>
</trkpt>
<trkpt lat="22.319555" lon="103.768707">
<ele>2654.595703</ele>
<time>2011-04-24T02:02:38Z</time>
<desc>lat.=22.319555, lon.=103.768707, Alt.=2654.595703m. Speed=1.260000m/h.</desc>
<speed>0.350000</speed>
</trkpt>
<trkpt lat="22.319519" lon="103.768707">
<ele>2654.720703</ele>
<time>2011-04-24T02:02:43Z</time>
<desc>lat.=22.319519, lon.=103.768707, Alt.=2654.720703m. Speed=3.528000m/h.</desc>
<speed>0.980000</speed>
</trkpt>
<trkpt lat="22.319498" lon="103.768684">
<ele>2655.283203</ele>
<time>2011-04-24T02:02:48Z</time>
<desc>lat.=22.319498, lon.=103.768684, Alt.=2655.283203m. Speed=2.988000m/h.</desc>
<speed>0.830000</speed>
</trkpt>
<trkpt lat="22.319471" lon="103.768639">
<ele>2655.158203</ele>
<time>2011-04-24T02:02:53Z</time>
<desc>lat.=22.319471, lon.=103.768639, Alt.=2655.158203m. Speed=3.492000m/h.</desc>
<speed>0.970000</speed>
</trkpt>
<trkpt lat="22.319450" lon="103.768608">
<ele>2655.783203</ele>
<time>2011-04-24T02:02:58Z</time>
<desc>lat.=22.319450, lon.=103.768608, Alt.=2655.783203m. Speed=2.556000m/h.</desc>
<speed>0.710000</speed>
</trkpt>
<trkpt lat="22.319424" lon="103.768578">
<ele>2656.408203</ele>
<time>2011-04-24T02:03:03Z</time>
<desc>lat.=22.319424, lon.=103.768578, Alt.=2656.408203m. Speed=2.304000m/h.</desc>
<speed>0.640000</speed>
</trkpt>
<trkpt lat="22.319435" lon="103.768562">
<ele>2656.220703</ele>
<time>2011-04-24T02:03:08Z</time>
<desc>lat.=22.319435, lon.=103.768562, Alt.=2656.220703m. Speed=0.720000m/h.</desc>
<speed>0.200000</speed>
</trkpt>
<trkpt lat="22.319450" lon="103.768539">
<ele>2656.408203</ele>
<time>2011-04-24T02:03:13Z</time>
<desc>lat.=22.319450, lon.=103.768539, Alt.=2656.408203m. Speed=1.548000m/h.</desc>
<speed>0.430000</speed>
</trkpt>
<trkpt lat="22.319448" lon="103.768509">
<ele>2656.595703</ele>
<time>2011-04-24T02:03:18Z</time>
<desc>lat.=22.319448, lon.=103.768509, Alt.=2656.595703m. Speed=1.152000m/h.</desc>
<speed>0.320000</speed>
</trkpt>
<trkpt lat="22.319466" lon="103.768494">
<ele>2656.283203</ele>
<time>2011-04-24T02:03:23Z</time>
<desc>lat.=22.319466, lon.=103.768494, Alt.=2656.283203m. Speed=1.764000m/h.</desc>
<speed>0.490000</speed>
</trkpt>
<trkpt lat="22.319454" lon="103.768456">
<ele>2655.595703</ele>
<time>2011-04-24T02:03:28Z</time>
<desc>lat.=22.319454, lon.=103.768456, Alt.=2655.595703m. Speed=2.736000m/h.</desc>
<speed>0.760000</speed>
</trkpt>
<trkpt lat="22.319445" lon="103.768425">
<ele>2655.283203</ele>
<time>2011-04-24T02:03:33Z</time>
<desc>lat.=22.319445, lon.=103.768425, Alt.=2655.283203m. Speed=1.080000m/h.</desc>
<speed>0.300000</speed>
</trkpt>
<trkpt lat="22.319414" lon="103.768394">
<ele>2653.970703</ele>
<time>2011-04-24T02:03:38Z</time>
<desc>lat.=22.319414, lon.=103.768394, Alt.=2653.970703m. Speed=2.844000m/h.</desc>
<speed>0.790000</speed>
</trkpt>
<trkpt lat="22.319391" lon="103.768349">
<ele>2653.658203</ele>
<time>2011-04-24T02:03:43Z</time>
<desc>lat.=22.319391, lon.=103.768349, Alt.=2653.658203m. Speed=2.016000m/h.</desc>
<speed>0.560000</speed>
</trkpt>
<trkpt lat="22.319372" lon="103.768326">
<ele>2653.470703</ele>
<time>2011-04-24T02:03:48Z</time>
<desc>lat.=22.319372, lon.=103.768326, Alt.=2653.470703m. Speed=0.900000m/h.</desc>
<speed>0.250000</speed>
</trkpt>
<trkpt lat="22.319368" lon="103.768318">
<ele>2653.470703</ele>
<time>2011-04-24T02:03:53Z</time>
<desc>lat.=22.319368, lon.=103.768318, Alt.=2653.470703m. Speed=1.368000m/h.</desc>
<speed>0.380000</speed>
</trkpt>
<trkpt lat="22.319344" lon="103.768303">
<ele>2653.970703</ele>
<time>2011-04-24T02:03:58Z</time>
<desc>lat.=22.319344, lon.=103.768303, Alt.=2653.970703m. Speed=1.188000m/h.</desc>
<speed>0.330000</speed>
</trkpt>
<trkpt lat="22.319328" lon="103.768311">
<ele>2654.408203</ele>
<time>2011-04-24T02:04:03Z</time>
<desc>lat.=22.319328, lon.=103.768311, Alt.=2654.408203m. Speed=0.756000m/h.</desc>
<speed>0.210000</speed>
</trkpt>
<trkpt lat="22.319324" lon="103.768311">
<ele>2654.595703</ele>
<time>2011-04-24T02:04:08Z</time>
<desc>lat.=22.319324, lon.=103.768311, Alt.=2654.595703m. Speed=0.216000m/h.</desc>
<speed>0.060000</speed>
</trkpt>
<trkpt lat="22.319323" lon="103.768318">
<ele>2654.533203</ele>
<time>2011-04-24T02:04:13Z</time>
<desc>lat.=22.319323, lon.=103.768318, Alt.=2654.533203m. Speed=0.216000m/h.</desc>
<speed>0.060000</speed>
</trkpt>
<trkpt lat="22.319321" lon="103.768318">
<ele>2654.533203</ele>
<time>2011-04-24T02:04:18Z</time>
<desc>lat.=22.319321, lon.=103.768318, Alt.=2654.533203m. Speed=0.072000m/h.</desc>
<speed>0.020000</speed>
</trkpt>
<trkpt lat="22.319321" lon="103.768318">
<ele>2654.533203</ele>
<time>2011-04-24T02:04:23Z</time>
<desc>lat.=22.319321, lon.=103.768318, Alt.=2654.533203m. Speed=0.216000m/h.</desc>
<speed>0.060000</speed>
</trkpt>
<trkpt lat="22.319321" lon="103.768318">
<ele>2654.595703</ele>
<time>2011-04-24T02:04:28Z</time>
<desc>lat.=22.319321, lon.=103.768318, Alt.=2654.595703m. Speed=0.000000m/h.</desc>
<speed>0.000000</speed>
</trkpt>
<trkpt lat="22.319323" lon="103.768318">
<ele>2654.595703</ele>
<time>2011-04-24T02:04:33Z</time>
<desc>lat.=22.319323, lon.=103.768318, Alt.=2654.595703m. Speed=0.000000m/h.</desc>
<speed>0.000000</speed>
</trkpt>
<trkpt lat="22.319323" lon="103.768318">
<ele>2654.658203</ele>
<time>2011-04-24T02:04:38Z</time>
<desc>lat.=22.319323, lon.=103.768318, Alt.=2654.658203m. Speed=0.000000m/h.</desc>
<speed>0.000000</speed>
</trkpt>
<trkpt lat="22.319323" lon="103.768318">
<ele>2654.658203</ele>
<time>2011-04-24T02:04:43Z</time>
<desc>lat.=22.319323, lon.=103.768318, Alt.=2654.658203m. Speed=0.180000m/h.</desc>
<speed>0.050000</speed>
</trkpt>
<trkpt lat="22.319323" lon="103.768318">
<ele>2654.658203</ele>
<time>2011-04-24T02:04:48Z</time>
<desc>lat.=22.319323, lon.=103.768318, Alt.=2654.658203m. Speed=0.036000m/h.</desc>
<speed>0.010000</speed>
</trkpt>
<trkpt lat="22.319323" lon="103.768318">
<ele>2654.658203</ele>
<time>2011-04-24T02:04:53Z</time>
<desc>lat.=22.319323, lon.=103.768318, Alt.=2654.658203m. Speed=0.360000m/h.</desc>
<speed>0.100000</speed>
</trkpt>
<trkpt lat="22.319323" lon="103.768318">
<ele>2654.720703</ele>
<time>2011-04-24T02:04:58Z</time>
<desc>lat.=22.319323, lon.=103.768318, Alt.=2654.720703m. Speed=0.072000m/h.</desc>
<speed>0.020000</speed>
</trkpt>
<trkpt lat="22.319323" lon="103.768318">
<ele>2654.720703</ele>
<time>2011-04-24T02:05:03Z</time>
<desc>lat.=22.319323, lon.=103.768318, Alt.=2654.720703m. Speed=0.324000m/h.</desc>
<speed>0.090000</speed>
</trkpt>
<trkpt lat="22.319323" lon="103.768318">
<ele>2654.783203</ele>
<time>2011-04-24T02:05:08Z</time>
<desc>lat.=22.319323, lon.=103.768318, Alt.=2654.783203m. Speed=0.216000m/h.</desc>
<speed>0.060000</speed>
</trkpt>
<trkpt lat="22.319321" lon="103.768311">
<ele>2654.845703</ele>
<time>2011-04-24T02:05:13Z</time>
<desc>lat.=22.319321, lon.=103.768311, Alt.=2654.845703m. Speed=0.432000m/h.</desc>
<speed>0.120000</speed>
</trkpt>
<trkpt lat="22.319317" lon="103.768303">
<ele>2654.908203</ele>
<time>2011-04-24T02:05:18Z</time>
<desc>lat.=22.319317, lon.=103.768303, Alt.=2654.908203m. Speed=1.260000m/h.</desc>
<speed>0.350000</speed>
</trkpt>
<trkpt lat="22.319292" lon="103.768265">
<ele>2656.408203</ele>
<time>2011-04-24T02:05:23Z</time>
<desc>lat.=22.319292, lon.=103.768265, Alt.=2656.408203m. Speed=1.764000m/h.</desc>
<speed>0.490000</speed>
</trkpt>
<trkpt lat="22.319288" lon="103.768211">
<ele>2658.095703</ele>
<time>2011-04-24T02:05:28Z</time>
<desc>lat.=22.319288, lon.=103.768211, Alt.=2658.095703m. Speed=2.088000m/h.</desc>
<speed>0.580000</speed>
</trkpt>
<trkpt lat="22.319273" lon="103.768173">
<ele>2659.220703</ele>
<time>2011-04-24T02:05:33Z</time>
<desc>lat.=22.319273, lon.=103.768173, Alt.=2659.220703m. Speed=1.728000m/h.</desc>
<speed>0.480000</speed>
</trkpt>
<trkpt lat="22.319263" lon="103.768143">
<ele>2660.095703</ele>
<time>2011-04-24T02:05:38Z</time>
<desc>lat.=22.319263, lon.=103.768143, Alt.=2660.095703m. Speed=1.620000m/h.</desc>
<speed>0.450000</speed>
</trkpt>
<trkpt lat="22.319248" lon="103.768127">
<ele>2661.908203</ele>
<time>2011-04-24T02:05:43Z</time>
<desc>lat.=22.319248, lon.=103.768127, Alt.=2661.908203m. Speed=0.936000m/h.</desc>
<speed>0.260000</speed>
</trkpt>
<trkpt lat="22.319242" lon="103.768135">
<ele>2663.283203</ele>
<time>2011-04-24T02:05:48Z</time>
<desc>lat.=22.319242, lon.=103.768135, Alt.=2663.283203m. Speed=0.540000m/h.</desc>
<speed>0.150000</speed>
</trkpt>
<trkpt lat="22.319239" lon="103.768127">
<ele>2663.908203</ele>
<time>2011-04-24T02:05:53Z</time>
<desc>lat.=22.319239, lon.=103.768127, Alt.=2663.908203m. Speed=0.972000m/h.</desc>
<speed>0.270000</speed>
</trkpt>
<trkpt lat="22.319231" lon="103.768127">
<ele>2665.345703</ele>
<time>2011-04-24T02:05:58Z</time>
<desc>lat.=22.319231, lon.=103.768127, Alt.=2665.345703m. Speed=0.648000m/h.</desc>
<speed>0.180000</speed>
</trkpt>
<trkpt lat="22.319218" lon="103.768120">
<ele>2666.095703</ele>
<time>2011-04-24T02:06:03Z</time>
<desc>lat.=22.319218, lon.=103.768120, Alt.=2666.095703m. Speed=0.468000m/h.</desc>
<speed>0.130000</speed>
</trkpt>
<trkpt lat="22.319212" lon="103.768112">
<ele>2666.908203</ele>
<time>2011-04-24T02:06:08Z</time>
<desc>lat.=22.319212, lon.=103.768112, Alt.=2666.908203m. Speed=1.476000m/h.</desc>
<speed>0.410000</speed>
</trkpt>
<trkpt lat="22.319204" lon="103.768105">
<ele>2667.720703</ele>
<time>2011-04-24T02:06:13Z</time>
<desc>lat.=22.319204, lon.=103.768105, Alt.=2667.720703m. Speed=2.772000m/h.</desc>
<speed>0.770000</speed>
</trkpt>
<trkpt lat="22.319191" lon="103.768097">
<ele>2668.408203</ele>
<time>2011-04-24T02:06:18Z</time>
<desc>lat.=22.319191, lon.=103.768097, Alt.=2668.408203m. Speed=1.116000m/h.</desc>
<speed>0.310000</speed>
</trkpt>
<trkpt lat="22.319166" lon="103.768074">
<ele>2669.095703</ele>
<time>2011-04-24T02:06:23Z</time>
<desc>lat.=22.319166, lon.=103.768074, Alt.=2669.095703m. Speed=3.384000m/h.</desc>
<speed>0.940000</speed>
</trkpt>
<trkpt lat="22.319174" lon="103.768044">
<ele>2669.720703</ele>
<time>2011-04-24T02:06:28Z</time>
<desc>lat.=22.319174, lon.=103.768044, Alt.=2669.720703m. Speed=1.368000m/h.</desc>
<speed>0.380000</speed>
</trkpt>
<trkpt lat="22.319172" lon="103.768005">
<ele>2669.783203</ele>
<time>2011-04-24T02:06:33Z</time>
<desc>lat.=22.319172, lon.=103.768005, Alt.=2669.783203m. Speed=2.088000m/h.</desc>
<speed>0.580000</speed>
</trkpt>
<trkpt lat="22.319181" lon="103.767975">
<ele>2670.220703</ele>
<time>2011-04-24T02:06:38Z</time>
<desc>lat.=22.319181, lon.=103.767975, Alt.=2670.220703m. Speed=2.376000m/h.</desc>
<speed>0.660000</speed>
</trkpt>
<trkpt lat="22.319189" lon="103.767952">
<ele>2671.095703</ele>
<time>2011-04-24T02:06:43Z</time>
<desc>lat.=22.319189, lon.=103.767952, Alt.=2671.095703m. Speed=0.792000m/h.</desc>
<speed>0.220000</speed>
</trkpt>
<trkpt lat="22.319183" lon="103.767929">
<ele>2671.220703</ele>
<time>2011-04-24T02:06:48Z</time>
<desc>lat.=22.319183, lon.=103.767929, Alt.=2671.220703m. Speed=1.476000m/h.</desc>
<speed>0.410000</speed>
</trkpt>
<trkpt lat="22.319181" lon="103.767899">
<ele>2671.283203</ele>
<time>2011-04-24T02:06:53Z</time>
<desc>lat.=22.319181, lon.=103.767899, Alt.=2671.283203m. Speed=1.188000m/h.</desc>
<speed>0.330000</speed>
</trkpt>
<trkpt lat="22.319168" lon="103.767899">
<ele>2671.720703</ele>
<time>2011-04-24T02:06:58Z</time>
<desc>lat.=22.319168, lon.=103.767899, Alt.=2671.720703m. Speed=0.180000m/h.</desc>
<speed>0.050000</speed>
</trkpt>
<trkpt lat="22.319164" lon="103.767891">
<ele>2671.720703</ele>
<time>2011-04-24T02:07:03Z</time>
<desc>lat.=22.319164, lon.=103.767891, Alt.=2671.720703m. Speed=0.612000m/h.</desc>
<speed>0.170000</speed>
</trkpt>
<trkpt lat="22.319162" lon="103.767883">
<ele>2671.783203</ele>
<time>2011-04-24T02:07:08Z</time>
<desc>lat.=22.319162, lon.=103.767883, Alt.=2671.783203m. Speed=0.936000m/h.</desc>
<speed>0.260000</speed>
</trkpt>
<trkpt lat="22.319162" lon="103.767853">
<ele>2671.783203</ele>
<time>2011-04-24T02:07:13Z</time>
<desc>lat.=22.319162, lon.=103.767853, Alt.=2671.783203m. Speed=0.936000m/h.</desc>
<speed>0.260000</speed>
</trkpt>
<trkpt lat="22.319162" lon="103.767853">
<ele>2671.970703</ele>
<time>2011-04-24T02:07:18Z</time>
<desc>lat.=22.319162, lon.=103.767853, Alt.=2671.970703m. Speed=0.828000m/h.</desc>
<speed>0.230000</speed>
</trkpt>
<trkpt lat="22.319151" lon="103.767822">
<ele>2671.720703</ele>
<time>2011-04-24T02:07:23Z</time>
<desc>lat.=22.319151, lon.=103.767822, Alt.=2671.720703m. Speed=1.584000m/h.</desc>
<speed>0.440000</speed>
</trkpt>
<trkpt lat="22.319111" lon="103.767807">
<ele>2671.533203</ele>
<time>2011-04-24T02:07:28Z</time>
<desc>lat.=22.319111, lon.=103.767807, Alt.=2671.533203m. Speed=2.160000m/h.</desc>
<speed>0.600000</speed>
</trkpt>
<trkpt lat="22.319078" lon="103.767792">
<ele>2671.970703</ele>
<time>2011-04-24T02:07:33Z</time>
<desc>lat.=22.319078, lon.=103.767792, Alt.=2671.970703m. Speed=1.728000m/h.</desc>
<speed>0.480000</speed>
</trkpt>
<trkpt lat="22.319057" lon="103.767784">
<ele>2672.158203</ele>
<time>2011-04-24T02:07:38Z</time>
<desc>lat.=22.319057, lon.=103.767784, Alt.=2672.158203m. Speed=0.648000m/h.</desc>
<speed>0.180000</speed>
</trkpt>
<trkpt lat="22.319033" lon="103.767754">
<ele>2672.158203</ele>
<time>2011-04-24T02:07:43Z</time>
<desc>lat.=22.319033, lon.=103.767754, Alt.=2672.158203m. Speed=1.296000m/h.</desc>
<speed>0.360000</speed>
</trkpt>
<trkpt lat="22.319004" lon="103.767700">
<ele>2672.095703</ele>
<time>2011-04-24T02:07:48Z</time>
<desc>lat.=22.319004, lon.=103.767700, Alt.=2672.095703m. Speed=1.152000m/h.</desc>
<speed>0.320000</speed>
</trkpt>
<trkpt lat="22.318985" lon="103.767670">
<ele>2672.658203</ele>
<time>2011-04-24T02:07:53Z</time>
<desc>lat.=22.318985, lon.=103.767670, Alt.=2672.658203m. Speed=1.332000m/h.</desc>
<speed>0.370000</speed>
</trkpt>
<trkpt lat="22.318996" lon="103.767647">
<ele>2673.220703</ele>
<time>2011-04-24T02:07:58Z</time>
<desc>lat.=22.318996, lon.=103.767647, Alt.=2673.220703m. Speed=2.412000m/h.</desc>
<speed>0.670000</speed>
</trkpt>
<trkpt lat="22.318991" lon="103.767632">
<ele>2673.220703</ele>
<time>2011-04-24T02:08:03Z</time>
<desc>lat.=22.318991, lon.=103.767632, Alt.=2673.220703m. Speed=1.116000m/h.</desc>
<speed>0.310000</speed>
</trkpt>
<trkpt lat="22.318981" lon="103.767601">
<ele>2674.345703</ele>
<time>2011-04-24T02:08:08Z</time>
<desc>lat.=22.318981, lon.=103.767601, Alt.=2674.345703m. Speed=2.592000m/h.</desc>
<speed>0.720000</speed>
</trkpt>
<trkpt lat="22.318974" lon="103.767601">
<ele>2675.033203</ele>
<time>2011-04-24T02:08:13Z</time>
<desc>lat.=22.318974, lon.=103.767601, Alt.=2675.033203m. Speed=1.080000m/h.</desc>
<speed>0.300000</speed>
</trkpt>
<trkpt lat="22.318968" lon="103.767586">
<ele>2676.283203</ele>
<time>2011-04-24T02:08:18Z</time>
<desc>lat.=22.318968, lon.=103.767586, Alt.=2676.283203m. Speed=0.504000m/h.</desc>
<speed>0.140000</speed>
</trkpt>
<trkpt lat="22.318966" lon="103.767593">
<ele>2676.283203</ele>
<time>2011-04-24T02:08:23Z</time>
<desc>lat.=22.318966, lon.=103.767593, Alt.=2676.283203m. Speed=0.180000m/h.</desc>
<speed>0.050000</speed>
</trkpt>
<trkpt lat="22.318972" lon="103.767593">
<ele>2676.720703</ele>
<time>2011-04-24T02:08:28Z</time>
<desc>lat.=22.318972, lon.=103.767593, Alt.=2676.720703m. Speed=0.144000m/h.</desc>
<speed>0.040000</speed>
</trkpt>
<trkpt lat="22.318972" lon="103.767586">
<ele>2676.783203</ele>
<time>2011-04-24T02:08:33Z</time>
<desc>lat.=22.318972, lon.=103.767586, Alt.=2676.783203m. Speed=1.476000m/h.</desc>
<speed>0.410000</speed>
</trkpt>
<trkpt lat="22.318979" lon="103.767586">
<ele>2677.533203</ele>
<time>2011-04-24T02:08:38Z</time>
<desc>lat.=22.318979, lon.=103.767586, Alt.=2677.533203m. Speed=0.036000m/h.</desc>
<speed>0.010000</speed>
</trkpt>
<trkpt lat="22.318974" lon="103.767578">
<ele>2679.033203</ele>
<time>2011-04-24T02:08:43Z</time>
<desc>lat.=22.318974, lon.=103.767578, Alt.=2679.033203m. Speed=0.432000m/h.</desc>
<speed>0.120000</speed>
</trkpt>
<trkpt lat="22.318977" lon="103.767563">
<ele>2679.220703</ele>
<time>2011-04-24T02:08:48Z</time>
<desc>lat.=22.318977, lon.=103.767563, Alt.=2679.220703m. Speed=0.900000m/h.</desc>
<speed>0.250000</speed>
</trkpt>
<trkpt lat="22.318974" lon="103.767563">
<ele>2679.158203</ele>
<time>2011-04-24T02:08:53Z</time>
<desc>lat.=22.318974, lon.=103.767563, Alt.=2679.158203m. Speed=0.252000m/h.</desc>
<speed>0.070000</speed>
</trkpt>
<trkpt lat="22.318979" lon="103.767570">
<ele>2679.408203</ele>
<time>2011-04-24T02:08:58Z</time>
<desc>lat.=22.318979, lon.=103.767570, Alt.=2679.408203m. Speed=0.144000m/h.</desc>
<speed>0.040000</speed>
</trkpt>
<trkpt lat="22.318977" lon="103.767570">
<ele>2679.658203</ele>
<time>2011-04-24T02:09:03Z</time>
<desc>lat.=22.318977, lon.=103.767570, Alt.=2679.658203m. Speed=0.252000m/h.</desc>
<speed>0.070000</speed>
</trkpt>
<trkpt lat="22.318979" lon="103.767563">
<ele>2680.845703</ele>
<time>2011-04-24T02:09:08Z</time>
<desc>lat.=22.318979, lon.=103.767563, Alt.=2680.845703m. Speed=0.072000m/h.</desc>
<speed>0.020000</speed>
</trkpt>
<trkpt lat="22.318979" lon="103.767563">
<ele>2681.033203</ele>
<time>2011-04-24T02:09:13Z</time>
<desc>lat.=22.318979, lon.=103.767563, Alt.=2681.033203m. Speed=0.000000m/h.</desc>
<speed>0.000000</speed>
</trkpt>
<trkpt lat="22.318977" lon="103.767563">
<ele>2681.220703</ele>
<time>2011-04-24T02:09:18Z</time>
<desc>lat.=22.318977, lon.=103.767563, Alt.=2681.220703m. Speed=0.000000m/h.</desc>
<speed>0.000000</speed>
</trkpt>
<trkpt lat="22.318974" lon="103.767555">
<ele>2681.033203</ele>
<time>2011-04-24T02:09:23Z</time>
<desc>lat.=22.318974, lon.=103.767555, Alt.=2681.033203m. Speed=0.036000m/h.</desc>
<speed>0.010000</speed>
</trkpt>
<trkpt lat="22.318972" lon="103.767563">
<ele>2681.908203</ele>
<time>2011-04-24T02:09:28Z</time>
<desc>lat.=22.318972, lon.=103.767563, Alt.=2681.908203m. Speed=0.000000m/h.</desc>
<speed>0.000000</speed>
</trkpt>
<trkpt lat="22.318979" lon="103.767570">
<ele>2682.283203</ele>
<time>2011-04-24T02:09:33Z</time>
<desc>lat.=22.318979, lon.=103.767570, Alt.=2682.283203m. Speed=0.000000m/h.</desc>
<speed>0.000000</speed>
</trkpt>
<trkpt lat="22.318970" lon="103.767555">
<ele>2682.533203</ele>
<time>2011-04-24T02:09:38Z</time>
<desc>lat.=22.318970, lon.=103.767555, Alt.=2682.533203m. Speed=0.036000m/h.</desc>
<speed>0.010000</speed>
</trkpt>
<trkpt lat="22.318972" lon="103.767563">
<ele>2681.970703</ele>
<time>2011-04-24T02:09:43Z</time>
<desc>lat.=22.318972, lon.=103.767563, Alt.=2681.970703m. Speed=0.000000m/h.</desc>
<speed>0.000000</speed>
</trkpt>
<trkpt lat="22.318972" lon="103.767570">
<ele>2680.720703</ele>
<time>2011-04-24T02:09:48Z</time>
<desc>lat.=22.318972, lon.=103.767570, Alt.=2680.720703m. Speed=0.036000m/h.</desc>
<speed>0.010000</speed>
</trkpt>
<trkpt lat="22.318964" lon="103.767570">
<ele>2680.720703</ele>
<time>2011-04-24T02:09:53Z</time>
<desc>lat.=22.318964, lon.=103.767570, Alt.=2680.720703m. Speed=0.036000m/h.</desc>
<speed>0.010000</speed>
</trkpt>
<trkpt lat="22.318962" lon="103.767578">
<ele>2681.095703</ele>
<time>2011-04-24T02:09:58Z</time>
<desc>lat.=22.318962, lon.=103.767578, Alt.=2681.095703m. Speed=0.000000m/h.</desc>
<speed>0.000000</speed>
</trkpt>
<trkpt lat="22.318960" lon="103.767570">
<ele>2681.283203</ele>
<time>2011-04-24T02:10:03Z</time>
<desc>lat.=22.318960, lon.=103.767570, Alt.=2681.283203m. Speed=0.000000m/h.</desc>
<speed>0.000000</speed>
</trkpt>
<trkpt lat="22.318960" lon="103.767570">
<ele>2681.283203</ele>
<time>2011-04-24T02:10:08Z</time>
<desc>lat.=22.318960, lon.=103.767570, Alt.=2681.283203m. Speed=0.072000m/h.</desc>
<speed>0.020000</speed>
</trkpt>
<trkpt lat="22.318960" lon="103.767570">
<ele>2681.283203</ele>
<time>2011-04-24T02:10:13Z</time>
<desc>lat.=22.318960, lon.=103.767570, Alt.=2681.283203m. Speed=0.000000m/h.</desc>
<speed>0.000000</speed>
</trkpt>
<trkpt lat="22.318960" lon="103.767570">
<ele>2681.283203</ele>
<time>2011-04-24T02:10:18Z</time>
<desc>lat.=22.318960, lon.=103.767570, Alt.=2681.283203m. Speed=0.036000m/h.</desc>
<speed>0.010000</speed>
</trkpt>
<trkpt lat="22.318960" lon="103.767570">
<ele>2681.283203</ele>
<time>2011-04-24T02:10:23Z</time>
<desc>lat.=22.318960, lon.=103.767570, Alt.=2681.283203m. Speed=0.036000m/h.</desc>
<speed>0.010000</speed>
</trkpt>
<trkpt lat="22.318960" lon="103.767570">
<ele>2681.283203</ele>
<time>2011-04-24T02:10:28Z</time>
<desc>lat.=22.318960, lon.=103.767570, Alt.=2681.283203m. Speed=0.072000m/h.</desc>
<speed>0.020000</speed>
</trkpt>
<trkpt lat="22.318960" lon="103.767570">
<ele>2681.283203</ele>
<time>2011-04-24T02:10:33Z</time>
<desc>lat.=22.318960, lon.=103.767570, Alt.=2681.283203m. Speed=0.108000m/h.</desc>
<speed>0.030000</speed>
</trkpt>
<trkpt lat="22.318960" lon="103.767578">
<ele>2681.283203</ele>
<time>2011-04-24T02:10:38Z</time>
<desc>lat.=22.318960, lon.=103.767578, Alt.=2681.283203m. Speed=0.000000m/h.</desc>
<speed>0.000000</speed>
</trkpt>
<trkpt lat="22.318960" lon="103.767578">
<ele>2681.283203</ele>
<time>2011-04-24T02:10:43Z</time>
<desc>lat.=22.318960, lon.=103.767578, Alt.=2681.283203m. Speed=0.000000m/h.</desc>
<speed>0.000000</speed>
</trkpt>
<trkpt lat="22.318960" lon="103.767578">
<ele>2681.283203</ele>
<time>2011-04-24T02:10:48Z</time>
<desc>lat.=22.318960, lon.=103.767578, Alt.=2681.283203m. Speed=0.036000m/h.</desc>
<speed>0.010000</speed>
</trkpt>
<trkpt lat="22.318960" lon="103.767578">
<ele>2681.283203</ele>
<time>2011-04-24T02:10:53Z</time>
<desc>lat.=22.318960, lon.=103.767578, Alt.=2681.283203m. Speed=0.000000m/h.</desc>
<speed>0.000000</speed>
</trkpt>
<trkpt lat="22.318962" lon="103.767578">
<ele>2681.283203</ele>
<time>2011-04-24T02:10:58Z</time>
<desc>lat.=22.318962, lon.=103.767578, Alt.=2681.283203m. Speed=0.036000m/h.</desc>
<speed>0.010000</speed>
</trkpt>
<trkpt lat="22.318962" lon="103.767578">
<ele>2681.283203</ele>
<time>2011-04-24T02:11:03Z</time>
<desc>lat.=22.318962, lon.=103.767578, Alt.=2681.283203m. Speed=0.036000m/h.</desc>
<speed>0.010000</speed>
</trkpt>
<trkpt lat="22.318962" lon="103.767578">
<ele>2681.283203</ele>
<time>2011-04-24T02:11:08Z</time>
<desc>lat.=22.318962, lon.=103.767578, Alt.=2681.283203m. Speed=0.000000m/h.</desc>
<speed>0.000000</speed>
</trkpt>
<trkpt lat="22.318962" lon="103.767578">
<ele>2681.283203</ele>
<time>2011-04-24T02:11:13Z</time>
<desc>lat.=22.318962, lon.=103.767578, Alt.=2681.283203m. Speed=0.036000m/h.</desc>
<speed>0.010000</speed>
</trkpt>
<trkpt lat="22.318962" lon="103.767578">
<ele>2681.283203</ele>
<time>2011-04-24T02:11:18Z</time>
<desc>lat.=22.318962, lon.=103.767578, Alt.=2681.283203m. Speed=0.000000m/h.</desc>
<speed>0.000000</speed>
</trkpt>
<trkpt lat="22.318962" lon="103.767578">
<ele>2681.283203</ele>
<time>2011-04-24T02:11:23Z</time>
<desc>lat.=22.318962, lon.=103.767578, Alt.=2681.283203m. Speed=0.000000m/h.</desc>
<speed>0.000000</speed>
</trkpt>
<trkpt lat="22.318962" lon="103.767578">
<ele>2681.345703</ele>
<time>2011-04-24T02:11:28Z</time>
<desc>lat.=22.318962, lon.=103.767578, Alt.=2681.345703m. Speed=0.000000m/h.</desc>
<speed>0.000000</speed>
</trkpt>
<trkpt lat="22.318962" lon="103.767578">
<ele>2681.345703</ele>
<time>2011-04-24T02:11:33Z</time>
<desc>lat.=22.318962, lon.=103.767578, Alt.=2681.345703m. Speed=0.000000m/h.</desc>
<speed>0.000000</speed>
</trkpt>
<trkpt lat="22.318962" lon="103.767578">
<ele>2681.345703</ele>
<time>2011-04-24T02:11:38Z</time>
<desc>lat.=22.318962, lon.=103.767578, Alt.=2681.345703m. Speed=0.000000m/h.</desc>
<speed>0.000000</speed>
</trkpt>
<trkpt lat="22.318962" lon="103.767578">
<ele>2681.345703</ele>
<time>2011-04-24T02:11:43Z</time>
<desc>lat.=22.318962, lon.=103.767578, Alt.=2681.345703m. Speed=0.036000m/h.</desc>
<speed>0.010000</speed>
</trkpt>
<trkpt lat="22.318962" lon="103.767578">
<ele>2681.345703</ele>
<time>2011-04-24T02:11:48Z</time>
<desc>lat.=22.318962, lon.=103.767578, Alt.=2681.345703m. Speed=0.072000m/h.</desc>
<speed>0.020000</speed>
</trkpt>
<trkpt lat="22.318962" lon="103.767578">
<ele>2681.345703</ele>
<time>2011-04-24T02:11:53Z</time>
<desc>lat.=22.318962, lon.=103.767578, Alt.=2681.345703m. Speed=0.036000m/h.</desc>
<speed>0.010000</speed>
</trkpt>
<trkpt lat="22.318962" lon="103.767578">
<ele>2681.345703</ele>
<time>2011-04-24T02:11:58Z</time>
<desc>lat.=22.318962, lon.=103.767578, Alt.=2681.345703m. Speed=0.036000m/h.</desc>
<speed>0.010000</speed>
</trkpt>
<trkpt lat="22.318962" lon="103.767578">
<ele>2681.345703</ele>
<time>2011-04-24T02:12:03Z</time>
<desc>lat.=22.318962, lon.=103.767578, Alt.=2681.345703m. Speed=0.108000m/h.</desc>
<speed>0.030000</speed>
</trkpt>
<trkpt lat="22.318964" lon="103.767578">
<ele>2681.345703</ele>
<time>2011-04-24T02:12:08Z</time>
<desc>lat.=22.318964, lon.=103.767578, Alt.=2681.345703m. Speed=0.072000m/h.</desc>
<speed>0.020000</speed>
</trkpt>
<trkpt lat="22.318964" lon="103.767578">
<ele>2681.345703</ele>
<time>2011-04-24T02:12:13Z</time>
<desc>lat.=22.318964, lon.=103.767578, Alt.=2681.345703m. Speed=0.000000m/h.</desc>
<speed>0.000000</speed>
</trkpt>
<trkpt lat="22.318964" lon="103.767578">
<ele>2681.345703</ele>
<time>2011-04-24T02:12:18Z</time>
<desc>lat.=22.318964, lon.=103.767578, Alt.=2681.345703m. Speed=0.072000m/h.</desc>
<speed>0.020000</speed>
</trkpt>
<trkpt lat="22.318964" lon="103.767570">
<ele>2681.408203</ele>
<time>2011-04-24T02:12:23Z</time>
<desc>lat.=22.318964, lon.=103.767570, Alt.=2681.408203m. Speed=0.000000m/h.</desc>
<speed>0.000000</speed>
</trkpt>
<trkpt lat="22.318964" lon="103.767570">
<ele>2681.408203</ele>
<time>2011-04-24T02:12:28Z</time>
<desc>lat.=22.318964, lon.=103.767570, Alt.=2681.408203m. Speed=0.072000m/h.</desc>
<speed>0.020000</speed>
</trkpt>
<trkpt lat="22.318964" lon="103.767570">
<ele>2681.408203</ele>
<time>2011-04-24T02:12:33Z</time>
<desc>lat.=22.318964, lon.=103.767570, Alt.=2681.408203m. Speed=0.972000m/h.</desc>
<speed>0.270000</speed>
</trkpt>
<trkpt lat="22.318960" lon="103.767548">
<ele>2681.658203</ele>
<time>2011-04-24T02:12:38Z</time>
<desc>lat.=22.318960, lon.=103.767548, Alt.=2681.658203m. Speed=0.936000m/h.</desc>
<speed>0.260000</speed>
</trkpt>
<trkpt lat="22.318956" lon="103.767540">
<ele>2681.845703</ele>
<time>2011-04-24T02:12:43Z</time>
<desc>lat.=22.318956, lon.=103.767540, Alt.=2681.845703m. Speed=0.936000m/h.</desc>
<speed>0.260000</speed>
</trkpt>
<trkpt lat="22.318954" lon="103.767525">
<ele>2681.970703</ele>
<time>2011-04-24T02:12:48Z</time>
<desc>lat.=22.318954, lon.=103.767525, Alt.=2681.970703m. Speed=0.504000m/h.</desc>
<speed>0.140000</speed>
</trkpt>
<trkpt lat="22.318951" lon="103.767525">
<ele>2682.158203</ele>
<time>2011-04-24T02:12:53Z</time>
<desc>lat.=22.318951, lon.=103.767525, Alt.=2682.158203m. Speed=0.360000m/h.</desc>
<speed>0.100000</speed>
</trkpt>
<trkpt lat="22.318951" lon="103.767532">
<ele>2682.283203</ele>
<time>2011-04-24T02:12:58Z</time>
<desc>lat.=22.318951, lon.=103.767532, Alt.=2682.283203m. Speed=0.360000m/h.</desc>
<speed>0.100000</speed>
</trkpt>
<trkpt lat="22.318954" lon="103.767540">
<ele>2682.283203</ele>
<time>2011-04-24T02:13:03Z</time>
<desc>lat.=22.318954, lon.=103.767540, Alt.=2682.283203m. Speed=0.396000m/h.</desc>
<speed>0.110000</speed>
</trkpt>
<trkpt lat="22.318962" lon="103.767540">
<ele>2682.220703</ele>
<time>2011-04-24T02:13:08Z</time>
<desc>lat.=22.318962, lon.=103.767540, Alt.=2682.220703m. Speed=0.432000m/h.</desc>
<speed>0.120000</speed>
</trkpt>
<trkpt lat="22.318968" lon="103.767548">
<ele>2682.220703</ele>
<time>2011-04-24T02:13:13Z</time>
<desc>lat.=22.318968, lon.=103.767548, Alt.=2682.220703m. Speed=0.684000m/h.</desc>
<speed>0.190000</speed>
</trkpt>
<trkpt lat="22.318975" lon="103.767548">
<ele>2682.158203</ele>
<time>2011-04-24T02:13:18Z</time>
<desc>lat.=22.318975, lon.=103.767548, Alt.=2682.158203m. Speed=0.720000m/h.</desc>
<speed>0.200000</speed>
</trkpt>
<trkpt lat="22.318985" lon="103.767555">
<ele>2682.158203</ele>
<time>2011-04-24T02:13:23Z</time>
<desc>lat.=22.318985, lon.=103.767555, Alt.=2682.158203m. Speed=0.936000m/h.</desc>
<speed>0.260000</speed>
</trkpt>
<trkpt lat="22.319006" lon="103.767570">
<ele>2682.095703</ele>
<time>2011-04-24T02:13:28Z</time>
<desc>lat.=22.319006, lon.=103.767570, Alt.=2682.095703m. Speed=1.296000m/h.</desc>
<speed>0.360000</speed>
</trkpt>
<trkpt lat="22.319014" lon="103.767593">
<ele>2681.970703</ele>
<time>2011-04-24T02:13:33Z</time>
<desc>lat.=22.319014, lon.=103.767593, Alt.=2681.970703m. Speed=1.152000m/h.</desc>
<speed>0.320000</speed>
</trkpt>
<trkpt lat="22.319017" lon="103.767601">
<ele>2681.970703</ele>
<time>2011-04-24T02:13:38Z</time>
<desc>lat.=22.319017, lon.=103.767601, Alt.=2681.970703m. Speed=0.720000m/h.</desc>
<speed>0.200000</speed>
</trkpt>
<trkpt lat="22.319023" lon="103.767601">
<ele>2681.970703</ele>
<time>2011-04-24T02:13:43Z</time>
<desc>lat.=22.319023, lon.=103.767601, Alt.=2681.970703m. Speed=0.612000m/h.</desc>
<speed>0.170000</speed>
</trkpt>
<trkpt lat="22.319029" lon="103.767609">
<ele>2681.908203</ele>
<time>2011-04-24T02:13:48Z</time>
<desc>lat.=22.319029, lon.=103.767609, Alt.=2681.908203m. Speed=0.720000m/h.</desc>
<speed>0.200000</speed>
</trkpt>
<trkpt lat="22.319035" lon="103.767616">
<ele>2681.908203</ele>
<time>2011-04-24T02:13:53Z</time>
<desc>lat.=22.319035, lon.=103.767616, Alt.=2681.908203m. Speed=0.684000m/h.</desc>
<speed>0.190000</speed>
</trkpt>
<trkpt lat="22.319042" lon="103.767624">
<ele>2681.845703</ele>
<time>2011-04-24T02:13:58Z</time>
<desc>lat.=22.319042, lon.=103.767624, Alt.=2681.845703m. Speed=0.936000m/h.</desc>
<speed>0.260000</speed>
</trkpt>
<trkpt lat="22.319050" lon="103.767632">
<ele>2681.845703</ele>
<time>2011-04-24T02:14:03Z</time>
<desc>lat.=22.319050, lon.=103.767632, Alt.=2681.845703m. Speed=0.576000m/h.</desc>
<speed>0.160000</speed>
</trkpt>
<trkpt lat="22.319054" lon="103.767639">
<ele>2681.845703</ele>
<time>2011-04-24T02:14:08Z</time>
<desc>lat.=22.319054, lon.=103.767639, Alt.=2681.845703m. Speed=0.180000m/h.</desc>
<speed>0.050000</speed>
</trkpt>
<trkpt lat="22.319056" lon="103.767639">
<ele>2681.908203</ele>
<time>2011-04-24T02:14:13Z</time>
<desc>lat.=22.319056, lon.=103.767639, Alt.=2681.908203m. Speed=0.000000m/h.</desc>
<speed>0.000000</speed>
</trkpt>
<trkpt lat="22.319056" lon="103.767639">
<ele>2681.908203</ele>
<time>2011-04-24T02:14:18Z</time>
<desc>lat.=22.319056, lon.=103.767639, Alt.=2681.908203m. Speed=0.432000m/h.</desc>
<speed>0.120000</speed>
</trkpt>
<trkpt lat="22.319057" lon="103.767632">
<ele>2682.033203</ele>
<time>2011-04-24T02:14:23Z</time>
<desc>lat.=22.319057, lon.=103.767632, Alt.=2682.033203m. Speed=0.612000m/h.</desc>
<speed>0.170000</speed>
</trkpt>
<trkpt lat="22.319056" lon="103.767624">
<ele>2682.220703</ele>
<time>2011-04-24T02:14:28Z</time>
<desc>lat.=22.319056, lon.=103.767624, Alt.=2682.220703m. Speed=0.684000m/h.</desc>
<speed>0.190000</speed>
</trkpt>
<trkpt lat="22.319048" lon="103.767616">
<ele>2682.345703</ele>
<time>2011-04-24T02:14:33Z</time>
<desc>lat.=22.319048, lon.=103.767616, Alt.=2682.345703m. Speed=0.792000m/h.</desc>
<speed>0.220000</speed>
</trkpt>
<trkpt lat="22.319036" lon="103.767609">
<ele>2682.595703</ele>
<time>2011-04-24T02:14:38Z</time>
<desc>lat.=22.319036, lon.=103.767609, Alt.=2682.595703m. Speed=0.936000m/h.</desc>
<speed>0.260000</speed>
</trkpt>
<trkpt lat="22.319035" lon="103.767578">
<ele>2683.095703</ele>
<time>2011-04-24T02:14:43Z</time>
<desc>lat.=22.319035, lon.=103.767578, Alt.=2683.095703m. Speed=0.216000m/h.</desc>
<speed>0.060000</speed>
</trkpt>
<trkpt lat="22.319035" lon="103.767578">
<ele>2683.283203</ele>
<time>2011-04-24T02:14:48Z</time>
<desc>lat.=22.319035, lon.=103.767578, Alt.=2683.283203m. Speed=0.000000m/h.</desc>
<speed>0.000000</speed>
</trkpt>
<trkpt lat="22.319033" lon="103.767578">
<ele>2683.345703</ele>
<time>2011-04-24T02:14:53Z</time>
<desc>lat.=22.319033, lon.=103.767578, Alt.=2683.345703m. Speed=0.252000m/h.</desc>
<speed>0.070000</speed>
</trkpt>
<trkpt lat="22.319029" lon="103.767578">
<ele>2683.283203</ele>
<time>2011-04-24T02:14:58Z</time>
<desc>lat.=22.319029, lon.=103.767578, Alt.=2683.283203m. Speed=0.036000m/h.</desc>
<speed>0.010000</speed>
</trkpt>
<trkpt lat="22.319029" lon="103.767578">
<ele>2683.283203</ele>
<time>2011-04-24T02:15:03Z</time>
<desc>lat.=22.319029, lon.=103.767578, Alt.=2683.283203m. Speed=0.036000m/h.</desc>
<speed>0.010000</speed>
</trkpt>
<trkpt lat="22.319029" lon="103.767578">
<ele>2683.283203</ele>
<time>2011-04-24T02:15:08Z</time>
<desc>lat.=22.319029, lon.=103.767578, Alt.=2683.283203m. Speed=0.324000m/h.</desc>
<speed>0.090000</speed>
</trkpt>
<trkpt lat="22.319029" lon="103.767578">
<ele>2683.283203</ele>
<time>2011-04-24T02:15:13Z</time>
<desc>lat.=22.319029, lon.=103.767578, Alt.=2683.283203m. Speed=0.036000m/h.</desc>
<speed>0.010000</speed>
</trkpt>
<trkpt lat="22.319029" lon="103.767578">
<ele>2683.283203</ele>
<time>2011-04-24T02:15:18Z</time>
<desc>lat.=22.319029, lon.=103.767578, Alt.=2683.283203m. Speed=0.072000m/h.</desc>
<speed>0.020000</speed>
</trkpt>
<trkpt lat="22.319029" lon="103.767578">
<ele>2683.345703</ele>
<time>2011-04-24T02:15:23Z</time>
<desc>lat.=22.319029, lon.=103.767578, Alt.=2683.345703m. Speed=0.072000m/h.</desc>
<speed>0.020000</speed>
</trkpt>
<trkpt lat="22.319029" lon="103.767578">
<ele>2683.345703</ele>
<time>2011-04-24T02:15:28Z</time>
<desc>lat.=22.319029, lon.=103.767578, Alt.=2683.345703m. Speed=0.000000m/h.</desc>
<speed>0.000000</speed>
</trkpt>
<trkpt lat="22.319029" lon="103.767578">
<ele>2683.345703</ele>
<time>2011-04-24T02:15:33Z</time>
<desc>lat.=22.319029, lon.=103.767578, Alt.=2683.345703m. Speed=0.036000m/h.</desc>
<speed>0.010000</speed>
</trkpt>
<trkpt lat="22.319029" lon="103.767578">
<ele>2683.345703</ele>
<time>2011-04-24T02:15:38Z</time>
<desc>lat.=22.319029, lon.=103.767578, Alt.=2683.345703m. Speed=0.036000m/h.</desc>
<speed>0.010000</speed>
</trkpt>
<trkpt lat="22.319027" lon="103.767578">
<ele>2683.345703</ele>
<time>2011-04-24T02:15:43Z</time>
<desc>lat.=22.319027, lon.=103.767578, Alt.=2683.345703m. Speed=0.000000m/h.</desc>
<speed>0.000000</speed>
</trkpt>
<trkpt lat="22.319027" lon="103.767578">
<ele>2683.345703</ele>
<time>2011-04-24T02:15:48Z</time>
<desc>lat.=22.319027, lon.=103.767578, Alt.=2683.345703m. Speed=0.036000m/h.</desc>
<speed>0.010000</speed>
</trkpt>
<trkpt lat="22.319027" lon="103.767578">
<ele>2683.345703</ele>
<time>2011-04-24T02:15:53Z</time>
<desc>lat.=22.319027, lon.=103.767578, Alt.=2683.345703m. Speed=0.072000m/h.</desc>
<speed>0.020000</speed>
</trkpt>
<trkpt lat="22.319027" lon="103.767578">
<ele>2683.345703</ele>
<time>2011-04-24T02:15:58Z</time>
<desc>lat.=22.319027, lon.=103.767578, Alt.=2683.345703m. Speed=0.000000m/h.</desc>
<speed>0.000000</speed>
</trkpt>
<trkpt lat="22.319027" lon="103.767578">
<ele>2683.345703</ele>
<time>2011-04-24T02:16:03Z</time>
<desc>lat.=22.319027, lon.=103.767578, Alt.=2683.345703m. Speed=0.072000m/h.</desc>
<speed>0.020000</speed>
</trkpt>
<trkpt lat="22.319027" lon="103.767578">
<ele>2683.408203</ele>
<time>2011-04-24T02:16:08Z</time>
<desc>lat.=22.319027, lon.=103.767578, Alt.=2683.408203m. Speed=0.108000m/h.</desc>
<speed>0.030000</speed>
</trkpt>
<trkpt lat="22.319027" lon="103.767578">
<ele>2683.408203</ele>
<time>2011-04-24T02:16:13Z</time>
<desc>lat.=22.319027, lon.=103.767578, Alt.=2683.408203m. Speed=0.360000m/h.</desc>
<speed>0.100000</speed>
</trkpt>
<trkpt lat="22.319027" lon="103.767570">
<ele>2683.783203</ele>
<time>2011-04-24T02:16:18Z</time>
<desc>lat.=22.319027, lon.=103.767570, Alt.=2683.783203m. Speed=0.324000m/h.</desc>
<speed>0.090000</speed>
</trkpt>
<trkpt lat="22.319008" lon="103.767570">
<ele>2684.220703</ele>
<time>2011-04-24T02:16:23Z</time>
<desc>lat.=22.319008, lon.=103.767570, Alt.=2684.220703m. Speed=3.096000m/h.</desc>
<speed>0.860000</speed>
</trkpt>
<trkpt lat="22.318983" lon="103.767563">
<ele>2684.533203</ele>
<time>2011-04-24T02:16:28Z</time>
<desc>lat.=22.318983, lon.=103.767563, Alt.=2684.533203m. Speed=0.936000m/h.</desc>
<speed>0.260000</speed>
</trkpt>
<trkpt lat="22.318970" lon="103.767555">
<ele>2684.033203</ele>
<time>2011-04-24T02:16:33Z</time>
<desc>lat.=22.318970, lon.=103.767555, Alt.=2684.033203m. Speed=2.592000m/h.</desc>
<speed>0.720000</speed>
</trkpt>
<trkpt lat="22.318939" lon="103.767532">
<ele>2684.533203</ele>
<time>2011-04-24T02:16:38Z</time>
<desc>lat.=22.318939, lon.=103.767532, Alt.=2684.533203m. Speed=2.592000m/h.</desc>
<speed>0.720000</speed>
</trkpt>
<trkpt lat="22.318920" lon="103.767517">
<ele>2685.595703</ele>
<time>2011-04-24T02:16:43Z</time>
<desc>lat.=22.318920, lon.=103.767517, Alt.=2685.595703m. Speed=2.556000m/h.</desc>
<speed>0.710000</speed>
</trkpt>
<trkpt lat="22.318892" lon="103.767502">
<ele>2686.033203</ele>
<time>2011-04-24T02:16:48Z</time>
<desc>lat.=22.318892, lon.=103.767502, Alt.=2686.033203m. Speed=1.008000m/h.</desc>
<speed>0.280000</speed>
</trkpt>
<trkpt lat="22.318859" lon="103.767502">
<ele>2685.970703</ele>
<time>2011-04-24T02:16:53Z</time>
<desc>lat.=22.318859, lon.=103.767502, Alt.=2685.970703m. Speed=3.024000m/h.</desc>
<speed>0.840000</speed>
</trkpt>
<trkpt lat="22.318842" lon="103.767494">
<ele>2686.783203</ele>
<time>2011-04-24T02:16:58Z</time>
<desc>lat.=22.318842, lon.=103.767494, Alt.=2686.783203m. Speed=2.376000m/h.</desc>
<speed>0.660000</speed>
</trkpt>
<trkpt lat="22.318819" lon="103.767494">
<ele>2687.533203</ele>
<time>2011-04-24T02:17:03Z</time>
<desc>lat.=22.318819, lon.=103.767494, Alt.=2687.533203m. Speed=1.008000m/h.</desc>
<speed>0.280000</speed>
</trkpt>
<trkpt lat="22.318808" lon="103.767479">
<ele>2687.408203</ele>
<time>2011-04-24T02:17:08Z</time>
<desc>lat.=22.318808, lon.=103.767479, Alt.=2687.408203m. Speed=2.196000m/h.</desc>
<speed>0.610000</speed>
</trkpt>
<trkpt lat="22.318798" lon="103.767464">
<ele>2687.970703</ele>
<time>2011-04-24T02:17:13Z</time>
<desc>lat.=22.318798, lon.=103.767464, Alt.=2687.970703m. Speed=0.324000m/h.</desc>
<speed>0.090000</speed>
</trkpt>
<trkpt lat="22.318796" lon="103.767456">
<ele>2688.595703</ele>
<time>2011-04-24T02:17:18Z</time>
<desc>lat.=22.318796, lon.=103.767456, Alt.=2688.595703m. Speed=1.584000m/h.</desc>
<speed>0.440000</speed>
</trkpt>
<trkpt lat="22.318792" lon="103.767456">
<ele>2689.095703</ele>
<time>2011-04-24T02:17:23Z</time>
<desc>lat.=22.318792, lon.=103.767456, Alt.=2689.095703m. Speed=0.864000m/h.</desc>
<speed>0.240000</speed>
</trkpt>
<trkpt lat="22.318785" lon="103.767456">
<ele>2689.533203</ele>
<time>2011-04-24T02:17:28Z</time>
<desc>lat.=22.318785, lon.=103.767456, Alt.=2689.533203m. Speed=0.828000m/h.</desc>
<speed>0.230000</speed>
</trkpt>
<trkpt lat="22.318783" lon="103.767448">
<ele>2689.845703</ele>
<time>2011-04-24T02:17:33Z</time>
<desc>lat.=22.318783, lon.=103.767448, Alt.=2689.845703m. Speed=1.260000m/h.</desc>
<speed>0.350000</speed>
</trkpt>
<trkpt lat="22.318768" lon="103.767441">
<ele>2690.845703</ele>
<time>2011-04-24T02:17:38Z</time>
<desc>lat.=22.318768, lon.=103.767441, Alt.=2690.845703m. Speed=1.332000m/h.</desc>
<speed>0.370000</speed>
</trkpt>
<trkpt lat="22.318754" lon="103.767433">
<ele>2691.158203</ele>
<time>2011-04-24T02:17:43Z</time>
<desc>lat.=22.318754, lon.=103.767433, Alt.=2691.158203m. Speed=1.080000m/h.</desc>
<speed>0.300000</speed>
</trkpt>
<trkpt lat="22.318754" lon="103.767426">
<ele>2692.158203</ele>
<time>2011-04-24T02:17:48Z</time>
<desc>lat.=22.318754, lon.=103.767426, Alt.=2692.158203m. Speed=0.576000m/h.</desc>
<speed>0.160000</speed>
</trkpt>
<trkpt lat="22.318743" lon="103.767418">
<ele>2692.470703</ele>
<time>2011-04-24T02:17:53Z</time>
<desc>lat.=22.318743, lon.=103.767418, Alt.=2692.470703m. Speed=0.756000m/h.</desc>
<speed>0.210000</speed>
</trkpt>
<trkpt lat="22.318718" lon="103.767403">
<ele>2692.595703</ele>
<time>2011-04-24T02:17:58Z</time>
<desc>lat.=22.318718, lon.=103.767403, Alt.=2692.595703m. Speed=1.116000m/h.</desc>
<speed>0.310000</speed>
</trkpt>
<trkpt lat="22.318699" lon="103.767380">
<ele>2693.095703</ele>
<time>2011-04-24T02:18:03Z</time>
<desc>lat.=22.318699, lon.=103.767380, Alt.=2693.095703m. Speed=1.692000m/h.</desc>
<speed>0.470000</speed>
</trkpt>
<trkpt lat="22.318686" lon="103.767380">
<ele>2693.720703</ele>
<time>2011-04-24T02:18:08Z</time>
<desc>lat.=22.318686, lon.=103.767380, Alt.=2693.720703m. Speed=1.764000m/h.</desc>
<speed>0.490000</speed>
</trkpt>
<trkpt lat="22.318661" lon="103.767372">
<ele>2695.033203</ele>
<time>2011-04-24T02:18:13Z</time>
<desc>lat.=22.318661, lon.=103.767372, Alt.=2695.033203m. Speed=1.296000m/h.</desc>
<speed>0.360000</speed>
</trkpt>
<trkpt lat="22.318647" lon="103.767380">
<ele>2695.658203</ele>
<time>2011-04-24T02:18:18Z</time>
<desc>lat.=22.318647, lon.=103.767380, Alt.=2695.658203m. Speed=1.944000m/h.</desc>
<speed>0.540000</speed>
</trkpt>
<trkpt lat="22.318636" lon="103.767395">
<ele>2696.908203</ele>
<time>2011-04-24T02:18:23Z</time>
<desc>lat.=22.318636, lon.=103.767395, Alt.=2696.908203m. Speed=1.080000m/h.</desc>
<speed>0.300000</speed>
</trkpt>
<trkpt lat="22.318628" lon="103.767403">
<ele>2697.470703</ele>
<time>2011-04-24T02:18:28Z</time>
<desc>lat.=22.318628, lon.=103.767403, Alt.=2697.470703m. Speed=1.044000m/h.</desc>
<speed>0.290000</speed>
</trkpt>
<trkpt lat="22.318607" lon="103.767410">
<ele>2698.158203</ele>
<time>2011-04-24T02:18:33Z</time>
<desc>lat.=22.318607, lon.=103.767410, Alt.=2698.158203m. Speed=1.656000m/h.</desc>
<speed>0.460000</speed>
</trkpt>
<trkpt lat="22.318590" lon="103.767395">
<ele>2698.470703</ele>
<time>2011-04-24T02:18:38Z</time>
<desc>lat.=22.318590, lon.=103.767395, Alt.=2698.470703m. Speed=1.116000m/h.</desc>
<speed>0.310000</speed>
</trkpt>
<trkpt lat="22.318579" lon="103.767387">
<ele>2698.845703</ele>
<time>2011-04-24T02:18:43Z</time>
<desc>lat.=22.318579, lon.=103.767387, Alt.=2698.845703m. Speed=0.936000m/h.</desc>
<speed>0.260000</speed>
</trkpt>
<trkpt lat="22.318571" lon="103.767387">
<ele>2698.970703</ele>
<time>2011-04-24T02:18:48Z</time>
<desc>lat.=22.318571, lon.=103.767387, Alt.=2698.970703m. Speed=0.648000m/h.</desc>
<speed>0.180000</speed>
</trkpt>
<trkpt lat="22.318563" lon="103.767387">
<ele>2699.033203</ele>
<time>2011-04-24T02:18:53Z</time>
<desc>lat.=22.318563, lon.=103.767387, Alt.=2699.033203m. Speed=1.116000m/h.</desc>
<speed>0.310000</speed>
</trkpt>
<trkpt lat="22.318537" lon="103.767395">
<ele>2699.283203</ele>
<time>2011-04-24T02:18:58Z</time>
<desc>lat.=22.318537, lon.=103.767395, Alt.=2699.283203m. Speed=1.476000m/h.</desc>
<speed>0.410000</speed>
</trkpt>
<trkpt lat="22.318541" lon="103.767403">
<ele>2699.533203</ele>
<time>2011-04-24T02:19:03Z</time>
<desc>lat.=22.318541, lon.=103.767403, Alt.=2699.533203m. Speed=0.504000m/h.</desc>
<speed>0.140000</speed>
</trkpt>
<trkpt lat="22.318541" lon="103.767410">
<ele>2700.033203</ele>
<time>2011-04-24T02:19:08Z</time>
<desc>lat.=22.318541, lon.=103.767410, Alt.=2700.033203m. Speed=0.792000m/h.</desc>
<speed>0.220000</speed>
</trkpt>
<trkpt lat="22.318548" lon="103.767418">
<ele>2700.720703</ele>
<time>2011-04-24T02:19:13Z</time>
<desc>lat.=22.318548, lon.=103.767418, Alt.=2700.720703m. Speed=0.324000m/h.</desc>
<speed>0.090000</speed>
</trkpt>
<trkpt lat="22.318541" lon="103.767403">
<ele>2701.408203</ele>
<time>2011-04-24T02:19:18Z</time>
<desc>lat.=22.318541, lon.=103.767403, Alt.=2701.408203m. Speed=1.440000m/h.</desc>
<speed>0.400000</speed>
</trkpt>
<trkpt lat="22.318502" lon="103.767380">
<ele>2702.783203</ele>
<time>2011-04-24T02:19:23Z</time>
<desc>lat.=22.318502, lon.=103.767380, Alt.=2702.783203m. Speed=1.440000m/h.</desc>
<speed>0.400000</speed>
</trkpt>
<trkpt lat="22.318497" lon="103.767365">
<ele>2704.033203</ele>
<time>2011-04-24T02:19:28Z</time>
<desc>lat.=22.318497, lon.=103.767365, Alt.=2704.033203m. Speed=1.080000m/h.</desc>
<speed>0.300000</speed>
</trkpt>
<trkpt lat="22.318493" lon="103.767349">
<ele>2705.283203</ele>
<time>2011-04-24T02:19:33Z</time>
<desc>lat.=22.318493, lon.=103.767349, Alt.=2705.283203m. Speed=0.972000m/h.</desc>
<speed>0.270000</speed>
</trkpt>
<trkpt lat="22.318499" lon="103.767319">
<ele>2707.033203</ele>
<time>2011-04-24T02:19:38Z</time>
<desc>lat.=22.318499, lon.=103.767319, Alt.=2707.033203m. Speed=1.044000m/h.</desc>
<speed>0.290000</speed>
</trkpt>
<trkpt lat="22.318497" lon="103.767303">
<ele>2708.283203</ele>
<time>2011-04-24T02:19:43Z</time>
<desc>lat.=22.318497, lon.=103.767303, Alt.=2708.283203m. Speed=0.936000m/h.</desc>
<speed>0.260000</speed>
</trkpt>
<trkpt lat="22.318493" lon="103.767288">
<ele>2709.158203</ele>
<time>2011-04-24T02:19:48Z</time>
<desc>lat.=22.318493, lon.=103.767288, Alt.=2709.158203m. Speed=2.052000m/h.</desc>
<speed>0.570000</speed>
</trkpt>
<trkpt lat="22.318501" lon="103.767296">
<ele>2709.720703</ele>
<time>2011-04-24T02:19:53Z</time>
<desc>lat.=22.318501, lon.=103.767296, Alt.=2709.720703m. Speed=0.432000m/h.</desc>
<speed>0.120000</speed>
</trkpt>
<trkpt lat="22.318502" lon="103.767296">
<ele>2709.845703</ele>
<time>2011-04-24T02:19:58Z</time>
<desc>lat.=22.318502, lon.=103.767296, Alt.=2709.845703m. Speed=0.756000m/h.</desc>
<speed>0.210000</speed>
</trkpt>
<trkpt lat="22.318497" lon="103.767288">
<ele>2710.033203</ele>
<time>2011-04-24T02:20:03Z</time>
<desc>lat.=22.318497, lon.=103.767288, Alt.=2710.033203m. Speed=0.576000m/h.</desc>
<speed>0.160000</speed>
</trkpt>
<trkpt lat="22.318466" lon="103.767281">
<ele>2710.533203</ele>
<time>2011-04-24T02:20:08Z</time>
<desc>lat.=22.318466, lon.=103.767281, Alt.=2710.533203m. Speed=1.440000m/h.</desc>
<speed>0.400000</speed>
</trkpt>
<trkpt lat="22.318455" lon="103.767265">
<ele>2711.283203</ele>
<time>2011-04-24T02:20:13Z</time>
<desc>lat.=22.318455, lon.=103.767265, Alt.=2711.283203m. Speed=1.044000m/h.</desc>
<speed>0.290000</speed>
</trkpt>
<trkpt lat="22.318441" lon="103.767258">
<ele>2711.908203</ele>
<time>2011-04-24T02:20:18Z</time>
<desc>lat.=22.318441, lon.=103.767258, Alt.=2711.908203m. Speed=1.332000m/h.</desc>
<speed>0.370000</speed>
</trkpt>
<trkpt lat="22.318411" lon="103.767250">
<ele>2713.158203</ele>
<time>2011-04-24T02:20:23Z</time>
<desc>lat.=22.318411, lon.=103.767250, Alt.=2713.158203m. Speed=1.620000m/h.</desc>
<speed>0.450000</speed>
</trkpt>
<trkpt lat="22.318388" lon="103.767242">
<ele>2713.220703</ele>
<time>2011-04-24T02:20:28Z</time>
<desc>lat.=22.318388, lon.=103.767242, Alt.=2713.220703m. Speed=0.864000m/h.</desc>
<speed>0.240000</speed>
</trkpt>
<trkpt lat="22.318375" lon="103.767242">
<ele>2713.970703</ele>
<time>2011-04-24T02:20:33Z</time>
<desc>lat.=22.318375, lon.=103.767242, Alt.=2713.970703m. Speed=1.116000m/h.</desc>
<speed>0.310000</speed>
</trkpt>
<trkpt lat="22.318369" lon="103.767235">
<ele>2714.533203</ele>
<time>2011-04-24T02:20:38Z</time>
<desc>lat.=22.318369, lon.=103.767235, Alt.=2714.533203m. Speed=0.180000m/h.</desc>
<speed>0.050000</speed>
</trkpt>
<trkpt lat="22.318365" lon="103.767235">
<ele>2714.783203</ele>
<time>2011-04-24T02:20:43Z</time>
<desc>lat.=22.318365, lon.=103.767235, Alt.=2714.783203m. Speed=0.540000m/h.</desc>
<speed>0.150000</speed>
</trkpt>
<trkpt lat="22.318373" lon="103.767235">
<ele>2715.283203</ele>
<time>2011-04-24T02:20:48Z</time>
<desc>lat.=22.318373, lon.=103.767235, Alt.=2715.283203m. Speed=0.900000m/h.</desc>
<speed>0.250000</speed>
</trkpt>
<trkpt lat="22.318378" lon="103.767227">
<ele>2715.845703</ele>
<time>2011-04-24T02:20:53Z</time>
<desc>lat.=22.318378, lon.=103.767227, Alt.=2715.845703m. Speed=0.900000m/h.</desc>
<speed>0.250000</speed>
</trkpt>
<trkpt lat="22.318382" lon="103.767220">
<ele>2716.470703</ele>
<time>2011-04-24T02:20:58Z</time>
<desc>lat.=22.318382, lon.=103.767220, Alt.=2716.470703m. Speed=0.828000m/h.</desc>
<speed>0.230000</speed>
</trkpt>
<trkpt lat="22.318371" lon="103.767197">
<ele>2718.533203</ele>
<time>2011-04-24T02:21:03Z</time>
<desc>lat.=22.318371, lon.=103.767197, Alt.=2718.533203m. Speed=1.620000m/h.</desc>
<speed>0.450000</speed>
</trkpt>
<trkpt lat="22.318335" lon="103.767189">
<ele>2719.658203</ele>
<time>2011-04-24T02:21:08Z</time>
<desc>lat.=22.318335, lon.=103.767189, Alt.=2719.658203m. Speed=2.700000m/h.</desc>
<speed>0.750000</speed>
</trkpt>
<trkpt lat="22.318306" lon="103.767189">
<ele>2720.470703</ele>
<time>2011-04-24T02:21:13Z</time>
<desc>lat.=22.318306, lon.=103.767189, Alt.=2720.470703m. Speed=0.504000m/h.</desc>
<speed>0.140000</speed>
</trkpt>
<trkpt lat="22.318302" lon="103.767189">
<ele>2720.908203</ele>
<time>2011-04-24T02:21:18Z</time>
<desc>lat.=22.318302, lon.=103.767189, Alt.=2720.908203m. Speed=0.288000m/h.</desc>
<speed>0.080000</speed>
</trkpt>
<trkpt lat="22.318293" lon="103.767197">
<ele>2721.408203</ele>
<time>2011-04-24T02:21:23Z</time>
<desc>lat.=22.318293, lon.=103.767197, Alt.=2721.408203m. Speed=0.972000m/h.</desc>
<speed>0.270000</speed>
</trkpt>
<trkpt lat="22.318275" lon="103.767197">
<ele>2722.033203</ele>
<time>2011-04-24T02:21:28Z</time>
<desc>lat.=22.318275, lon.=103.767197, Alt.=2722.033203m. Speed=1.044000m/h.</desc>
<speed>0.290000</speed>
</trkpt>
<trkpt lat="22.318264" lon="103.767204">
<ele>2722.345703</ele>
<time>2011-04-24T02:21:33Z</time>
<desc>lat.=22.318264, lon.=103.767204, Alt.=2722.345703m. Speed=1.008000m/h.</desc>
<speed>0.280000</speed>
</trkpt>
<trkpt lat="22.318253" lon="103.767197">
<ele>2722.845703</ele>
<time>2011-04-24T02:21:38Z</time>
<desc>lat.=22.318253, lon.=103.767197, Alt.=2722.845703m. Speed=0.576000m/h.</desc>
<speed>0.160000</speed>
</trkpt>
<trkpt lat="22.318249" lon="103.767197">
<ele>2723.658203</ele>
<time>2011-04-24T02:21:43Z</time>
<desc>lat.=22.318249, lon.=103.767197, Alt.=2723.658203m. Speed=0.648000m/h.</desc>
<speed>0.180000</speed>
</trkpt>
<trkpt lat="22.318243" lon="103.767197">
<ele>2723.908203</ele>
<time>2011-04-24T02:21:48Z</time>
<desc>lat.=22.318243, lon.=103.767197, Alt.=2723.908203m. Speed=0.504000m/h.</desc>
<speed>0.140000</speed>
</trkpt>
<trkpt lat="22.318239" lon="103.767197">
<ele>2723.970703</ele>
<time>2011-04-24T02:21:53Z</time>
<desc>lat.=22.318239, lon.=103.767197, Alt.=2723.970703m. Speed=0.360000m/h.</desc>
<speed>0.100000</speed>
</trkpt>
<trkpt lat="22.318218" lon="103.767197">
<ele>2724.783203</ele>
<time>2011-04-24T02:21:58Z</time>
<desc>lat.=22.318218, lon.=103.767197, Alt.=2724.783203m. Speed=1.908000m/h.</desc>
<speed>0.530000</speed>
</trkpt>
<trkpt lat="22.318199" lon="103.767189">
<ele>2725.408203</ele>
<time>2011-04-24T02:22:03Z</time>
<desc>lat.=22.318199, lon.=103.767189, Alt.=2725.408203m. Speed=2.700000m/h.</desc>
<speed>0.750000</speed>
</trkpt>
<trkpt lat="22.318169" lon="103.767189">
<ele>2726.658203</ele>
<time>2011-04-24T02:22:08Z</time>
<desc>lat.=22.318169, lon.=103.767189, Alt.=2726.658203m. Speed=1.440000m/h.</desc>
<speed>0.400000</speed>
</trkpt>
<trkpt lat="22.318140" lon="103.767181">
<ele>2728.033203</ele>
<time>2011-04-24T02:22:13Z</time>
<desc>lat.=22.318140, lon.=103.767181, Alt.=2728.033203m. Speed=1.620000m/h.</desc>
<speed>0.450000</speed>
</trkpt>
<trkpt lat="22.318125" lon="103.767189">
<ele>2729.970703</ele>
<time>2011-04-24T02:22:18Z</time>
<desc>lat.=22.318125, lon.=103.767189, Alt.=2729.970703m. Speed=2.268000m/h.</desc>
<speed>0.630000</speed>
</trkpt>
<trkpt lat="22.318110" lon="103.767181">
<ele>2730.533203</ele>
<time>2011-04-24T02:22:23Z</time>
<desc>lat.=22.318110, lon.=103.767181, Alt.=2730.533203m. Speed=2.448000m/h.</desc>
<speed>0.680000</speed>
</trkpt>
<trkpt lat="22.318098" lon="103.767174">
<ele>2731.408203</ele>
<time>2011-04-24T02:22:28Z</time>
<desc>lat.=22.318098, lon.=103.767174, Alt.=2731.408203m. Speed=0.396000m/h.</desc>
<speed>0.110000</speed>
</trkpt>
<trkpt lat="22.318079" lon="103.767166">
<ele>2732.033203</ele>
<time>2011-04-24T02:22:33Z</time>
<desc>lat.=22.318079, lon.=103.767166, Alt.=2732.033203m. Speed=2.160000m/h.</desc>
<speed>0.600000</speed>
</trkpt>
<trkpt lat="22.318060" lon="103.767159">
<ele>2733.408203</ele>
<time>2011-04-24T02:22:38Z</time>
<desc>lat.=22.318060, lon.=103.767159, Alt.=2733.408203m. Speed=1.260000m/h.</desc>
<speed>0.350000</speed>
</trkpt>
<trkpt lat="22.318048" lon="103.767151">
<ele>2734.470703</ele>
<time>2011-04-24T02:22:43Z</time>
<desc>lat.=22.318048, lon.=103.767151, Alt.=2734.470703m. Speed=1.764000m/h.</desc>
<speed>0.490000</speed>
</trkpt>
<trkpt lat="22.318029" lon="103.767143">
<ele>2735.095703</ele>
<time>2011-04-24T02:22:48Z</time>
<desc>lat.=22.318029, lon.=103.767143, Alt.=2735.095703m. Speed=1.800000m/h.</desc>
<speed>0.500000</speed>
</trkpt>
<trkpt lat="22.318007" lon="103.767143">
<ele>2735.720703</ele>
<time>2011-04-24T02:22:53Z</time>
<desc>lat.=22.318007, lon.=103.767143, Alt.=2735.720703m. Speed=4.032000m/h.</desc>
<speed>1.120000</speed>
</trkpt>
<trkpt lat="22.317986" lon="103.767136">
<ele>2737.658203</ele>
<time>2011-04-24T02:22:58Z</time>
<desc>lat.=22.317986, lon.=103.767136, Alt.=2737.658203m. Speed=0.432000m/h.</desc>
<speed>0.120000</speed>
</trkpt>
<trkpt lat="22.317976" lon="103.767143">
<ele>2737.595703</ele>
<time>2011-04-24T02:23:03Z</time>
<desc>lat.=22.317976, lon.=103.767143, Alt.=2737.595703m. Speed=1.152000m/h.</desc>
<speed>0.320000</speed>
</trkpt>
<trkpt lat="22.317953" lon="103.767128">
<ele>2738.095703</ele>
<time>2011-04-24T02:23:08Z</time>
<desc>lat.=22.317953, lon.=103.767128, Alt.=2738.095703m. Speed=2.376000m/h.</desc>
<speed>0.660000</speed>
</trkpt>
<trkpt lat="22.317924" lon="103.767120">
<ele>2738.908203</ele>
<time>2011-04-24T02:23:13Z</time>
<desc>lat.=22.317924, lon.=103.767120, Alt.=2738.908203m. Speed=0.828000m/h.</desc>
<speed>0.230000</speed>
</trkpt>
<trkpt lat="22.317913" lon="103.767113">
<ele>2739.408203</ele>
<time>2011-04-24T02:23:18Z</time>
<desc>lat.=22.317913, lon.=103.767113, Alt.=2739.408203m. Speed=1.476000m/h.</desc>
<speed>0.410000</speed>
</trkpt>
<trkpt lat="22.317911" lon="103.767113">
<ele>2740.095703</ele>
<time>2011-04-24T02:23:23Z</time>
<desc>lat.=22.317911, lon.=103.767113, Alt.=2740.095703m. Speed=0.900000m/h.</desc>
<speed>0.250000</speed>
</trkpt>
<trkpt lat="22.317881" lon="103.767105">
<ele>2741.033203</ele>
<time>2011-04-24T02:23:28Z</time>
<desc>lat.=22.317881, lon.=103.767105, Alt.=2741.033203m. Speed=2.988000m/h.</desc>
<speed>0.830000</speed>
</trkpt>
<trkpt lat="22.317852" lon="103.767105">
<ele>2741.908203</ele>
<time>2011-04-24T02:23:33Z</time>
<desc>lat.=22.317852, lon.=103.767105, Alt.=2741.908203m. Speed=2.808000m/h.</desc>
<speed>0.780000</speed>
</trkpt>
<trkpt lat="22.317827" lon="103.767090">
<ele>2742.283203</ele>
<time>2011-04-24T02:23:38Z</time>
<desc>lat.=22.317827, lon.=103.767090, Alt.=2742.283203m. Speed=2.232000m/h.</desc>
<speed>0.620000</speed>
</trkpt>
<trkpt lat="22.317804" lon="103.767082">
<ele>2743.845703</ele>
<time>2011-04-24T02:23:43Z</time>
<desc>lat.=22.317804, lon.=103.767082, Alt.=2743.845703m. Speed=2.304000m/h.</desc>
<speed>0.640000</speed>
</trkpt>
<trkpt lat="22.317778" lon="103.767082">
<ele>2744.658203</ele>
<time>2011-04-24T02:23:48Z</time>
<desc>lat.=22.317778, lon.=103.767082, Alt.=2744.658203m. Speed=2.700000m/h.</desc>
<speed>0.750000</speed>
</trkpt>
<trkpt lat="22.317762" lon="103.767082">
<ele>2745.595703</ele>
<time>2011-04-24T02:23:53Z</time>
<desc>lat.=22.317762, lon.=103.767082, Alt.=2745.595703m. Speed=2.664000m/h.</desc>
<speed>0.740000</speed>
</trkpt>
<trkpt lat="22.317745" lon="103.767067">
<ele>2745.408203</ele>
<time>2011-04-24T02:23:58Z</time>
<desc>lat.=22.317745, lon.=103.767067, Alt.=2745.408203m. Speed=1.044000m/h.</desc>
<speed>0.290000</speed>
</trkpt>
<trkpt lat="22.317743" lon="103.767067">
<ele>2745.908203</ele>
<time>2011-04-24T02:24:03Z</time>
<desc>lat.=22.317743, lon.=103.767067, Alt.=2745.908203m. Speed=0.792000m/h.</desc>
<speed>0.220000</speed>
</trkpt>
<trkpt lat="22.317741" lon="103.767067">
<ele>2745.908203</ele>
<time>2011-04-24T02:24:08Z</time>
<desc>lat.=22.317741, lon.=103.767067, Alt.=2745.908203m. Speed=0.432000m/h.</desc>
<speed>0.120000</speed>
</trkpt>
<trkpt lat="22.317724" lon="103.767067">
<ele>2746.158203</ele>
<time>2011-04-24T02:24:13Z</time>
<desc>lat.=22.317724, lon.=103.767067, Alt.=2746.158203m. Speed=1.440000m/h.</desc>
<speed>0.400000</speed>
</trkpt>
<trkpt lat="22.317711" lon="103.767059">
<ele>2746.033203</ele>
<time>2011-04-24T02:24:18Z</time>
<desc>lat.=22.317711, lon.=103.767059, Alt.=2746.033203m. Speed=3.492000m/h.</desc>
<speed>0.970000</speed>
</trkpt>
<trkpt lat="22.317671" lon="103.767052">
<ele>2747.095703</ele>
<time>2011-04-24T02:24:23Z</time>
<desc>lat.=22.317671, lon.=103.767052, Alt.=2747.095703m. Speed=4.428000m/h.</desc>
<speed>1.230000</speed>
</trkpt>
<trkpt lat="22.317638" lon="103.767052">
<ele>2746.970703</ele>
<time>2011-04-24T02:24:28Z</time>
<desc>lat.=22.317638, lon.=103.767052, Alt.=2746.970703m. Speed=1.332000m/h.</desc>
<speed>0.370000</speed>
</trkpt>
<trkpt lat="22.317640" lon="103.767044">
<ele>2746.908203</ele>
<time>2011-04-24T02:24:33Z</time>
<desc>lat.=22.317640, lon.=103.767044, Alt.=2746.908203m. Speed=0.360000m/h.</desc>
<speed>0.100000</speed>
</trkpt>
<trkpt lat="22.317629" lon="103.767052">
<ele>2747.783203</ele>
<time>2011-04-24T02:24:38Z</time>
<desc>lat.=22.317629, lon.=103.767052, Alt.=2747.783203m. Speed=2.232000m/h.</desc>
<speed>0.620000</speed>
</trkpt>
<trkpt lat="22.317621" lon="103.767059">
<ele>2748.408203</ele>
<time>2011-04-24T02:24:43Z</time>
<desc>lat.=22.317621, lon.=103.767059, Alt.=2748.408203m. Speed=2.160000m/h.</desc>
<speed>0.600000</speed>
</trkpt>
<trkpt lat="22.317608" lon="103.767067">
<ele>2749.283203</ele>
<time>2011-04-24T02:24:48Z</time>
<desc>lat.=22.317608, lon.=103.767067, Alt.=2749.283203m. Speed=1.260000m/h.</desc>
<speed>0.350000</speed>
</trkpt>
<trkpt lat="22.317606" lon="103.767059">
<ele>2750.595703</ele>
<time>2011-04-24T02:24:53Z</time>
<desc>lat.=22.317606, lon.=103.767059, Alt.=2750.595703m. Speed=0.144000m/h.</desc>
<speed>0.040000</speed>
</trkpt>
<trkpt lat="22.317610" lon="103.767067">
<ele>2750.908203</ele>
<time>2011-04-24T02:24:58Z</time>
<desc>lat.=22.317610, lon.=103.767067, Alt.=2750.908203m. Speed=0.180000m/h.</desc>
<speed>0.050000</speed>
</trkpt>
<trkpt lat="22.317604" lon="103.767067">
<ele>2751.158203</ele>
<time>2011-04-24T02:25:03Z</time>
<desc>lat.=22.317604, lon.=103.767067, Alt.=2751.158203m. Speed=1.908000m/h.</desc>
<speed>0.530000</speed>
</trkpt>
<trkpt lat="22.317589" lon="103.767075">
<ele>2751.845703</ele>
<time>2011-04-24T02:25:08Z</time>
<desc>lat.=22.317589, lon.=103.767075, Alt.=2751.845703m. Speed=0.540000m/h.</desc>
<speed>0.150000</speed>
</trkpt>
<trkpt lat="22.317581" lon="103.767075">
<ele>2752.220703</ele>
<time>2011-04-24T02:25:13Z</time>
<desc>lat.=22.317581, lon.=103.767075, Alt.=2752.220703m. Speed=0.072000m/h.</desc>
<speed>0.020000</speed>
</trkpt>
<trkpt lat="22.317577" lon="103.767075">
<ele>2753.033203</ele>
<time>2011-04-24T02:25:18Z</time>
<desc>lat.=22.317577, lon.=103.767075, Alt.=2753.033203m. Speed=1.152000m/h.</desc>
<speed>0.320000</speed>
</trkpt>
<trkpt lat="22.317553" lon="103.767082">
<ele>2754.283203</ele>
<time>2011-04-24T02:25:23Z</time>
<desc>lat.=22.317553, lon.=103.767082, Alt.=2754.283203m. Speed=2.556000m/h.</desc>
<speed>0.710000</speed>
</trkpt>
<trkpt lat="22.317528" lon="103.767075">
<ele>2755.220703</ele>
<time>2011-04-24T02:25:28Z</time>
<desc>lat.=22.317528, lon.=103.767075, Alt.=2755.220703m. Speed=2.268000m/h.</desc>
<speed>0.630000</speed>
</trkpt>
<trkpt lat="22.317516" lon="103.767075">
<ele>2755.845703</ele>
<time>2011-04-24T02:25:33Z</time>
<desc>lat.=22.317516, lon.=103.767075, Alt.=2755.845703m. Speed=1.044000m/h.</desc>
<speed>0.290000</speed>
</trkpt>
<trkpt lat="22.317497" lon="103.767082">
<ele>2756.908203</ele>
<time>2011-04-24T02:25:38Z</time>
<desc>lat.=22.317497, lon.=103.767082, Alt.=2756.908203m. Speed=1.764000m/h.</desc>
<speed>0.490000</speed>
</trkpt>
<trkpt lat="22.317505" lon="103.767067">
<ele>2758.095703</ele>
<time>2011-04-24T02:25:43Z</time>
<desc>lat.=22.317505, lon.=103.767067, Alt.=2758.095703m. Speed=1.044000m/h.</desc>
<speed>0.290000</speed>
</trkpt>
<trkpt lat="22.317493" lon="103.767067">
<ele>2759.158203</ele>
<time>2011-04-24T02:25:48Z</time>
<desc>lat.=22.317493, lon.=103.767067, Alt.=2759.158203m. Speed=1.368000m/h.</desc>
<speed>0.380000</speed>
</trkpt>
<trkpt lat="22.317469" lon="103.767052">
<ele>2760.220703</ele>
<time>2011-04-24T02:25:53Z</time>
<desc>lat.=22.317469, lon.=103.767052, Alt.=2760.220703m. Speed=1.692000m/h.</desc>
<speed>0.470000</speed>
</trkpt>
<trkpt lat="22.317448" lon="103.767021">
<ele>2760.408203</ele>
<time>2011-04-24T02:25:58Z</time>
<desc>lat.=22.317448, lon.=103.767021, Alt.=2760.408203m. Speed=3.060000m/h.</desc>
<speed>0.850000</speed>
</trkpt>
<trkpt lat="22.317430" lon="103.767006">
<ele>2760.720703</ele>
<time>2011-04-24T02:26:03Z</time>
<desc>lat.=22.317430, lon.=103.767006, Alt.=2760.720703m. Speed=2.376000m/h.</desc>
<speed>0.660000</speed>
</trkpt>
<trkpt lat="22.317421" lon="103.766998">
<ele>2761.408203</ele>
<time>2011-04-24T02:26:08Z</time>
<desc>lat.=22.317421, lon.=103.766998, Alt.=2761.408203m. Speed=1.188000m/h.</desc>
<speed>0.330000</speed>
</trkpt>
<trkpt lat="22.317415" lon="103.766991">
<ele>2762.220703</ele>
<time>2011-04-24T02:26:13Z</time>
<desc>lat.=22.317415, lon.=103.766991, Alt.=2762.220703m. Speed=1.008000m/h.</desc>
<speed>0.280000</speed>
</trkpt>
<trkpt lat="22.317404" lon="103.766968">
<ele>2762.783203</ele>
<time>2011-04-24T02:26:18Z</time>
<desc>lat.=22.317404, lon.=103.766968, Alt.=2762.783203m. Speed=1.800000m/h.</desc>
<speed>0.500000</speed>
</trkpt>
<trkpt lat="22.317402" lon="103.766945">
<ele>2763.533203</ele>
<time>2011-04-24T02:26:23Z</time>
<desc>lat.=22.317402, lon.=103.766945, Alt.=2763.533203m. Speed=1.116000m/h.</desc>
<speed>0.310000</speed>
</trkpt>
<trkpt lat="22.317398" lon="103.766937">
<ele>2764.908203</ele>
<time>2011-04-24T02:26:28Z</time>
<desc>lat.=22.317398, lon.=103.766937, Alt.=2764.908203m. Speed=0.936000m/h.</desc>
<speed>0.260000</speed>
</trkpt>
<trkpt lat="22.317390" lon="103.766930">
<ele>2765.595703</ele>
<time>2011-04-24T02:26:33Z</time>
<desc>lat.=22.317390, lon.=103.766930, Alt.=2765.595703m. Speed=0.936000m/h.</desc>
<speed>0.260000</speed>
</trkpt>
<trkpt lat="22.317387" lon="103.766930">
<ele>2765.845703</ele>
<time>2011-04-24T02:26:38Z</time>
<desc>lat.=22.317387, lon.=103.766930, Alt.=2765.845703m. Speed=0.216000m/h.</desc>
<speed>0.060000</speed>
</trkpt>
<trkpt lat="22.317383" lon="103.766922">
<ele>2767.283203</ele>
<time>2011-04-24T02:26:43Z</time>
<desc>lat.=22.317383, lon.=103.766922, Alt.=2767.283203m. Speed=1.620000m/h.</desc>
<speed>0.450000</speed>
</trkpt>
<trkpt lat="22.317368" lon="103.766914">
<ele>2767.595703</ele>
<time>2011-04-24T02:26:48Z</time>
<desc>lat.=22.317368, lon.=103.766914, Alt.=2767.595703m. Speed=1.476000m/h.</desc>
<speed>0.410000</speed>
</trkpt>
<trkpt lat="22.317352" lon="103.766899">
<ele>2768.908203</ele>
<time>2011-04-24T02:26:53Z</time>
<desc>lat.=22.317352, lon.=103.766899, Alt.=2768.908203m. Speed=1.332000m/h.</desc>
<speed>0.370000</speed>
</trkpt>
<trkpt lat="22.317327" lon="103.766891">
<ele>2770.220703</ele>
<time>2011-04-24T02:26:58Z</time>
<desc>lat.=22.317327, lon.=103.766891, Alt.=2770.220703m. Speed=2.448000m/h.</desc>
<speed>0.680000</speed>
</trkpt>
<trkpt lat="22.317297" lon="103.766891">
<ele>2770.908203</ele>
<time>2011-04-24T02:27:03Z</time>
<desc>lat.=22.317297, lon.=103.766891, Alt.=2770.908203m. Speed=1.692000m/h.</desc>
<speed>0.470000</speed>
</trkpt>
<trkpt lat="22.317291" lon="103.766891">
<ele>2771.470703</ele>
<time>2011-04-24T02:27:08Z</time>
<desc>lat.=22.317291, lon.=103.766891, Alt.=2771.470703m. Speed=0.468000m/h.</desc>
<speed>0.130000</speed>
</trkpt>
<trkpt lat="22.317286" lon="103.766891">
<ele>2771.970703</ele>
<time>2011-04-24T02:27:13Z</time>
<desc>lat.=22.317286, lon.=103.766891, Alt.=2771.970703m. Speed=1.368000m/h.</desc>
<speed>0.380000</speed>
</trkpt>
<trkpt lat="22.317261" lon="103.766884">
<ele>2772.658203</ele>
<time>2011-04-24T02:27:18Z</time>
<desc>lat.=22.317261, lon.=103.766884, Alt.=2772.658203m. Speed=1.692000m/h.</desc>
<speed>0.470000</speed>
</trkpt>
<trkpt lat="22.317247" lon="103.766876">
<ele>2773.470703</ele>
<time>2011-04-24T02:27:23Z</time>
<desc>lat.=22.317247, lon.=103.766876, Alt.=2773.470703m. Speed=1.368000m/h.</desc>
<speed>0.380000</speed>
</trkpt>
<trkpt lat="22.317240" lon="103.766869">
<ele>2774.845703</ele>
<time>2011-04-24T02:27:28Z</time>
<desc>lat.=22.317240, lon.=103.766869, Alt.=2774.845703m. Speed=1.476000m/h.</desc>
<speed>0.410000</speed>
</trkpt>
<trkpt lat="22.317223" lon="103.766861">
<ele>2776.595703</ele>
<time>2011-04-24T02:27:33Z</time>
<desc>lat.=22.317223, lon.=103.766861, Alt.=2776.595703m. Speed=1.152000m/h.</desc>
<speed>0.320000</speed>
</trkpt>
<trkpt lat="22.317215" lon="103.766853">
<ele>2777.283203</ele>
<time>2011-04-24T02:27:38Z</time>
<desc>lat.=22.317215, lon.=103.766853, Alt.=2777.283203m. Speed=1.080000m/h.</desc>
<speed>0.300000</speed>
</trkpt>
<trkpt lat="22.317207" lon="103.766846">
<ele>2778.033203</ele>
<time>2011-04-24T02:27:43Z</time>
<desc>lat.=22.317207, lon.=103.766846, Alt.=2778.033203m. Speed=1.080000m/h.</desc>
<speed>0.300000</speed>
</trkpt>
<trkpt lat="22.317192" lon="103.766838">
<ele>2779.220703</ele>
<time>2011-04-24T02:27:48Z</time>
<desc>lat.=22.317192, lon.=103.766838, Alt.=2779.220703m. Speed=1.116000m/h.</desc>
<speed>0.310000</speed>
</trkpt>
<trkpt lat="22.317179" lon="103.766830">
<ele>2779.908203</ele>
<time>2011-04-24T02:27:53Z</time>
<desc>lat.=22.317179, lon.=103.766830, Alt.=2779.908203m. Speed=2.160000m/h.</desc>
<speed>0.600000</speed>
</trkpt>
<trkpt lat="22.317156" lon="103.766815">
<ele>2781.345703</ele>
<time>2011-04-24T02:27:58Z</time>
<desc>lat.=22.317156, lon.=103.766815, Alt.=2781.345703m. Speed=2.520000m/h.</desc>
<speed>0.700000</speed>
</trkpt>
<trkpt lat="22.317139" lon="103.766792">
<ele>2782.220703</ele>
<time>2011-04-24T02:28:03Z</time>
<desc>lat.=22.317139, lon.=103.766792, Alt.=2782.220703m. Speed=0.684000m/h.</desc>
<speed>0.190000</speed>
</trkpt>
<trkpt lat="22.317135" lon="103.766785">
<ele>2782.283203</ele>
<time>2011-04-24T02:28:08Z</time>
<desc>lat.=22.317135, lon.=103.766785, Alt.=2782.283203m. Speed=0.612000m/h.</desc>
<speed>0.170000</speed>
</trkpt>
<trkpt lat="22.317129" lon="103.766769">
<ele>2782.658203</ele>
<time>2011-04-24T02:28:13Z</time>
<desc>lat.=22.317129, lon.=103.766769, Alt.=2782.658203m. Speed=0.972000m/h.</desc>
<speed>0.270000</speed>
</trkpt>
<trkpt lat="22.317118" lon="103.766769">
<ele>2783.158203</ele>
<time>2011-04-24T02:28:18Z</time>
<desc>lat.=22.317118, lon.=103.766769, Alt.=2783.158203m. Speed=3.276000m/h.</desc>
<speed>0.910000</speed>
</trkpt>
<trkpt lat="22.317093" lon="103.766747">
<ele>2783.658203</ele>
<time>2011-04-24T02:28:23Z</time>
<desc>lat.=22.317093, lon.=103.766747, Alt.=2783.658203m. Speed=1.836000m/h.</desc>
<speed>0.510000</speed>
</trkpt>
<trkpt lat="22.317074" lon="103.766724">
<ele>2784.283203</ele>
<time>2011-04-24T02:28:28Z</time>
<desc>lat.=22.317074, lon.=103.766724, Alt.=2784.283203m. Speed=3.384000m/h.</desc>
<speed>0.940000</speed>
</trkpt>
<trkpt lat="22.317038" lon="103.766701">
<ele>2785.158203</ele>
<time>2011-04-24T02:28:33Z</time>
<desc>lat.=22.317038, lon.=103.766701, Alt.=2785.158203m. Speed=2.016000m/h.</desc>
<speed>0.560000</speed>
</trkpt>
<trkpt lat="22.317028" lon="103.766701">
<ele>2785.970703</ele>
<time>2011-04-24T02:28:38Z</time>
<desc>lat.=22.317028, lon.=103.766701, Alt.=2785.970703m. Speed=1.404000m/h.</desc>
<speed>0.390000</speed>
</trkpt>
<trkpt lat="22.317013" lon="103.766701">
<ele>2786.845703</ele>
<time>2011-04-24T02:28:43Z</time>
<desc>lat.=22.317013, lon.=103.766701, Alt.=2786.845703m. Speed=0.972000m/h.</desc>
<speed>0.270000</speed>
</trkpt>
<trkpt lat="22.317001" lon="103.766701">
<ele>2787.095703</ele>
<time>2011-04-24T02:28:48Z</time>
<desc>lat.=22.317001, lon.=103.766701, Alt.=2787.095703m. Speed=0.792000m/h.</desc>
<speed>0.220000</speed>
</trkpt>
<trkpt lat="22.316992" lon="103.766708">
<ele>2787.533203</ele>
<time>2011-04-24T02:28:53Z</time>
<desc>lat.=22.316992, lon.=103.766708, Alt.=2787.533203m. Speed=0.864000m/h.</desc>
<speed>0.240000</speed>
</trkpt>
<trkpt lat="22.316982" lon="103.766708">
<ele>2787.970703</ele>
<time>2011-04-24T02:28:58Z</time>
<desc>lat.=22.316982, lon.=103.766708, Alt.=2787.970703m. Speed=1.008000m/h.</desc>
<speed>0.280000</speed>
</trkpt>
<trkpt lat="22.316982" lon="103.766693">
<ele>2788.970703</ele>
<time>2011-04-24T02:29:03Z</time>
<desc>lat.=22.316982, lon.=103.766693, Alt.=2788.970703m. Speed=1.080000m/h.</desc>
<speed>0.300000</speed>
</trkpt>
<trkpt lat="22.316980" lon="103.766685">
<ele>2789.783203</ele>
<time>2011-04-24T02:29:08Z</time>
<desc>lat.=22.316980, lon.=103.766685, Alt.=2789.783203m. Speed=0.504000m/h.</desc>
<speed>0.140000</speed>
</trkpt>
<trkpt lat="22.316957" lon="103.766685">
<ele>2792.533203</ele>
<time>2011-04-24T02:29:13Z</time>
<desc>lat.=22.316957, lon.=103.766685, Alt.=2792.533203m. Speed=1.548000m/h.</desc>
<speed>0.430000</speed>
</trkpt>
<trkpt lat="22.316942" lon="103.766670">
<ele>2794.533203</ele>
<time>2011-04-24T02:29:18Z</time>
<desc>lat.=22.316942, lon.=103.766670, Alt.=2794.533203m. Speed=3.852000m/h.</desc>
<speed>1.070000</speed>
</trkpt>
<trkpt lat="22.316931" lon="103.766663">
<ele>2794.220703</ele>
<time>2011-04-24T02:29:23Z</time>
<desc>lat.=22.316931, lon.=103.766663, Alt.=2794.220703m. Speed=0.684000m/h.</desc>
<speed>0.190000</speed>
</trkpt>
<trkpt lat="22.316921" lon="103.766663">
<ele>2794.533203</ele>
<time>2011-04-24T02:29:28Z</time>
<desc>lat.=22.316921, lon.=103.766663, Alt.=2794.533203m. Speed=0.612000m/h.</desc>
<speed>0.170000</speed>
</trkpt>
<trkpt lat="22.316912" lon="103.766655">
<ele>2794.533203</ele>
<time>2011-04-24T02:29:33Z</time>
<desc>lat.=22.316912, lon.=103.766655, Alt.=2794.533203m. Speed=0.684000m/h.</desc>
<speed>0.190000</speed>
</trkpt>
<trkpt lat="22.316923" lon="103.766647">
<ele>2795.533203</ele>
<time>2011-04-24T02:29:38Z</time>
<desc>lat.=22.316923, lon.=103.766647, Alt.=2795.533203m. Speed=1.296000m/h.</desc>
<speed>0.360000</speed>
</trkpt>
<trkpt lat="22.316910" lon="103.766647">
<ele>2796.033203</ele>
<time>2011-04-24T02:29:43Z</time>
<desc>lat.=22.316910, lon.=103.766647, Alt.=2796.033203m. Speed=1.368000m/h.</desc>
<speed>0.380000</speed>
</trkpt>
<trkpt lat="22.316898" lon="103.766640">
<ele>2796.470703</ele>
<time>2011-04-24T02:29:48Z</time>
<desc>lat.=22.316898, lon.=103.766640, Alt.=2796.470703m. Speed=2.304000m/h.</desc>
<speed>0.640000</speed>
</trkpt>
<trkpt lat="22.316875" lon="103.766624">
<ele>2797.345703</ele>
<time>2011-04-24T02:29:53Z</time>
<desc>lat.=22.316875, lon.=103.766624, Alt.=2797.345703m. Speed=2.160000m/h.</desc>
<speed>0.600000</speed>
</trkpt>
<trkpt lat="22.316851" lon="103.766602">
<ele>2797.533203</ele>
<time>2011-04-24T02:29:58Z</time>
<desc>lat.=22.316851, lon.=103.766602, Alt.=2797.533203m. Speed=1.908000m/h.</desc>
<speed>0.530000</speed>
</trkpt>
<trkpt lat="22.316828" lon="103.766602">
<ele>2799.095703</ele>
<time>2011-04-24T02:30:03Z</time>
<desc>lat.=22.316828, lon.=103.766602, Alt.=2799.095703m. Speed=0.972000m/h.</desc>
<speed>0.270000</speed>
</trkpt>
<trkpt lat="22.316805" lon="103.766602">
<ele>2799.220703</ele>
<time>2011-04-24T02:30:08Z</time>
<desc>lat.=22.316805, lon.=103.766602, Alt.=2799.220703m. Speed=2.664000m/h.</desc>
<speed>0.740000</speed>
</trkpt>
<trkpt lat="22.316786" lon="103.766579">
<ele>2799.345703</ele>
<time>2011-04-24T02:30:13Z</time>
<desc>lat.=22.316786, lon.=103.766579, Alt.=2799.345703m. Speed=1.080000m/h.</desc>
<speed>0.300000</speed>
</trkpt>
<trkpt lat="22.316755" lon="103.766571">
<ele>2799.845703</ele>
<time>2011-04-24T02:30:18Z</time>
<desc>lat.=22.316755, lon.=103.766571, Alt.=2799.845703m. Speed=2.520000m/h.</desc>
<speed>0.700000</speed>
</trkpt>
<trkpt lat="22.316738" lon="103.766556">
<ele>2800.345703</ele>
<time>2011-04-24T02:30:23Z</time>
<desc>lat.=22.316738, lon.=103.766556, Alt.=2800.345703m. Speed=1.800000m/h.</desc>
<speed>0.500000</speed>
</trkpt>
<trkpt lat="22.316727" lon="103.766548">
<ele>2800.158203</ele>
<time>2011-04-24T02:30:28Z</time>
<desc>lat.=22.316727, lon.=103.766548, Alt.=2800.158203m. Speed=0.324000m/h.</desc>
<speed>0.090000</speed>
</trkpt>
<trkpt lat="22.316715" lon="103.766548">
<ele>2800.345703</ele>
<time>2011-04-24T02:30:33Z</time>
<desc>lat.=22.316715, lon.=103.766548, Alt.=2800.345703m. Speed=0.396000m/h.</desc>
<speed>0.110000</speed>
</trkpt>
<trkpt lat="22.316711" lon="103.766556">
<ele>2800.720703</ele>
<time>2011-04-24T02:30:38Z</time>
<desc>lat.=22.316711, lon.=103.766556, Alt.=2800.720703m. Speed=0.576000m/h.</desc>
<speed>0.160000</speed>
</trkpt>
<trkpt lat="22.316708" lon="103.766541">
<ele>2800.345703</ele>
<time>2011-04-24T02:30:43Z</time>
<desc>lat.=22.316708, lon.=103.766541, Alt.=2800.345703m. Speed=1.080000m/h.</desc>
<speed>0.300000</speed>
</trkpt>
<trkpt lat="22.316706" lon="103.766541">
<ele>2799.908203</ele>
<time>2011-04-24T02:30:48Z</time>
<desc>lat.=22.316706, lon.=103.766541, Alt.=2799.908203m. Speed=0.720000m/h.</desc>
<speed>0.200000</speed>
</trkpt>
<trkpt lat="22.316696" lon="103.766548">
<ele>2799.533203</ele>
<time>2011-04-24T02:30:53Z</time>
<desc>lat.=22.316696, lon.=103.766548, Alt.=2799.533203m. Speed=0.036000m/h.</desc>
<speed>0.010000</speed>
</trkpt>
<trkpt lat="22.316690" lon="103.766548">
<ele>2799.345703</ele>
<time>2011-04-24T02:30:58Z</time>
<desc>lat.=22.316690, lon.=103.766548, Alt.=2799.345703m. Speed=1.080000m/h.</desc>
<speed>0.300000</speed>
</trkpt>
<trkpt lat="22.316673" lon="103.766563">
<ele>2798.533203</ele>
<time>2011-04-24T02:31:03Z</time>
<desc>lat.=22.316673, lon.=103.766563, Alt.=2798.533203m. Speed=1.368000m/h.</desc>
<speed>0.380000</speed>
</trkpt>
<trkpt lat="22.316652" lon="103.766571">
<ele>2797.908203</ele>
<time>2011-04-24T02:31:08Z</time>
<desc>lat.=22.316652, lon.=103.766571, Alt.=2797.908203m. Speed=1.476000m/h.</desc>
<speed>0.410000</speed>
</trkpt>
<trkpt lat="22.316631" lon="103.766579">
<ele>2797.595703</ele>
<time>2011-04-24T02:31:13Z</time>
<desc>lat.=22.316631, lon.=103.766579, Alt.=2797.595703m. Speed=1.548000m/h.</desc>
<speed>0.430000</speed>
</trkpt>
<trkpt lat="22.316608" lon="103.766586">
<ele>2797.345703</ele>
<time>2011-04-24T02:31:18Z</time>
<desc>lat.=22.316608, lon.=103.766586, Alt.=2797.345703m. Speed=0.576000m/h.</desc>
<speed>0.160000</speed>
</trkpt>
<trkpt lat="22.316589" lon="103.766579">
<ele>2797.158203</ele>
<time>2011-04-24T02:31:23Z</time>
<desc>lat.=22.316589, lon.=103.766579, Alt.=2797.158203m. Speed=0.936000m/h.</desc>
<speed>0.260000</speed>
</trkpt>
<trkpt lat="22.316572" lon="103.766548">
<ele>2797.095703</ele>
<time>2011-04-24T02:31:28Z</time>
<desc>lat.=22.316572, lon.=103.766548, Alt.=2797.095703m. Speed=1.656000m/h.</desc>
<speed>0.460000</speed>
</trkpt>
<trkpt lat="22.316536" lon="103.766533">
<ele>2797.845703</ele>
<time>2011-04-24T02:31:33Z</time>
<desc>lat.=22.316536, lon.=103.766533, Alt.=2797.845703m. Speed=1.836000m/h.</desc>
<speed>0.510000</speed>
</trkpt>
<trkpt lat="22.316502" lon="103.766525">
<ele>2798.220703</ele>
<time>2011-04-24T02:31:38Z</time>
<desc>lat.=22.316502, lon.=103.766525, Alt.=2798.220703m. Speed=2.376000m/h.</desc>
<speed>0.660000</speed>
</trkpt>
<trkpt lat="22.316463" lon="103.766518">
<ele>2797.658203</ele>
<time>2011-04-24T02:31:43Z</time>
<desc>lat.=22.316463, lon.=103.766518, Alt.=2797.658203m. Speed=3.240000m/h.</desc>
<speed>0.900000</speed>
</trkpt>
<trkpt lat="22.316437" lon="103.766479">
<ele>2796.283203</ele>
<time>2011-04-24T02:31:48Z</time>
<desc>lat.=22.316437, lon.=103.766479, Alt.=2796.283203m. Speed=3.096000m/h.</desc>
<speed>0.860000</speed>
</trkpt>
<trkpt lat="22.316439" lon="103.766449">
<ele>2795.658203</ele>
<time>2011-04-24T02:31:53Z</time>
<desc>lat.=22.316439, lon.=103.766449, Alt.=2795.658203m. Speed=1.728000m/h.</desc>
<speed>0.480000</speed>
</trkpt>
<trkpt lat="22.316420" lon="103.766411">
<ele>2794.908203</ele>
<time>2011-04-24T02:31:58Z</time>
<desc>lat.=22.316420, lon.=103.766411, Alt.=2794.908203m. Speed=3.132000m/h.</desc>
<speed>0.870000</speed>
</trkpt>
<trkpt lat="22.316402" lon="103.766350">
<ele>2794.033203</ele>
<time>2011-04-24T02:32:03Z</time>
<desc>lat.=22.316402, lon.=103.766350, Alt.=2794.033203m. Speed=3.312000m/h.</desc>
<speed>0.920000</speed>
</trkpt>
<trkpt lat="22.316378" lon="103.766319">
<ele>2794.158203</ele>
<time>2011-04-24T02:32:08Z</time>
<desc>lat.=22.316378, lon.=103.766319, Alt.=2794.158203m. Speed=2.628000m/h.</desc>
<speed>0.730000</speed>
</trkpt>
<trkpt lat="22.316343" lon="103.766281">
<ele>2793.470703</ele>
<time>2011-04-24T02:32:13Z</time>
<desc>lat.=22.316343, lon.=103.766281, Alt.=2793.470703m. Speed=3.564000m/h.</desc>
<speed>0.990000</speed>
</trkpt>
<trkpt lat="22.316290" lon="103.766258">
<ele>2792.970703</ele>
<time>2011-04-24T02:32:18Z</time>
<desc>lat.=22.316290, lon.=103.766258, Alt.=2792.970703m. Speed=3.528000m/h.</desc>
<speed>0.980000</speed>
</trkpt>
<trkpt lat="22.316240" lon="103.766235">
<ele>2793.158203</ele>
<time>2011-04-24T02:32:23Z</time>
<desc>lat.=22.316240, lon.=103.766235, Alt.=2793.158203m. Speed=2.880000m/h.</desc>
<speed>0.800000</speed>
</trkpt>
<trkpt lat="22.316200" lon="103.766205">
<ele>2792.533203</ele>
<time>2011-04-24T02:32:28Z</time>
<desc>lat.=22.316200, lon.=103.766205, Alt.=2792.533203m. Speed=2.340000m/h.</desc>
<speed>0.650000</speed>
</trkpt>
<trkpt lat="22.316175" lon="103.766174">
<ele>2791.720703</ele>
<time>2011-04-24T02:32:33Z</time>
<desc>lat.=22.316175, lon.=103.766174, Alt.=2791.720703m. Speed=0.396000m/h.</desc>
<speed>0.110000</speed>
</trkpt>
<trkpt lat="22.316164" lon="103.766174">
<ele>2791.908203</ele>
<time>2011-04-24T02:32:38Z</time>
<desc>lat.=22.316164, lon.=103.766174, Alt.=2791.908203m. Speed=0.972000m/h.</desc>
<speed>0.270000</speed>
</trkpt>
<trkpt lat="22.316154" lon="103.766167">
<ele>2791.970703</ele>
<time>2011-04-24T02:32:43Z</time>
<desc>lat.=22.316154, lon.=103.766167, Alt.=2791.970703m. Speed=1.404000m/h.</desc>
<speed>0.390000</speed>
</trkpt>
<trkpt lat="22.316141" lon="103.766167">
<ele>2791.408203</ele>
<time>2011-04-24T02:32:48Z</time>
<desc>lat.=22.316141, lon.=103.766167, Alt.=2791.408203m. Speed=1.224000m/h.</desc>
<speed>0.340000</speed>
</trkpt>
<trkpt lat="22.316120" lon="103.766098">
<ele>2789.783203</ele>
<time>2011-04-24T02:32:53Z</time>
<desc>lat.=22.316120, lon.=103.766098, Alt.=2789.783203m. Speed=3.132000m/h.</desc>
<speed>0.870000</speed>
</trkpt>
<trkpt lat="22.316111" lon="103.766068">
<ele>2789.408203</ele>
<time>2011-04-24T02:32:58Z</time>
<desc>lat.=22.316111, lon.=103.766068, Alt.=2789.408203m. Speed=0.504000m/h.</desc>
<speed>0.140000</speed>
</trkpt>
<trkpt lat="22.316097" lon="103.766029">
<ele>2788.470703</ele>
<time>2011-04-24T02:33:03Z</time>
<desc>lat.=22.316097, lon.=103.766029, Alt.=2788.470703m. Speed=3.564000m/h.</desc>
<speed>0.990000</speed>
</trkpt>
<trkpt lat="22.316076" lon="103.766006">
<ele>2786.845703</ele>
<time>2011-04-24T02:33:08Z</time>
<desc>lat.=22.316076, lon.=103.766006, Alt.=2786.845703m. Speed=1.800000m/h.</desc>
<speed>0.500000</speed>
</trkpt>
<trkpt lat="22.316055" lon="103.765968">
<ele>2786.658203</ele>
<time>2011-04-24T02:33:13Z</time>
<desc>lat.=22.316055, lon.=103.765968, Alt.=2786.658203m. Speed=2.628000m/h.</desc>
<speed>0.730000</speed>
</trkpt>
<trkpt lat="22.316023" lon="103.765915">
<ele>2785.720703</ele>
<time>2011-04-24T02:33:18Z</time>
<desc>lat.=22.316023, lon.=103.765915, Alt.=2785.720703m. Speed=2.232000m/h.</desc>
<speed>0.620000</speed>
</trkpt>
<trkpt lat="22.315998" lon="103.765892">
<ele>2784.595703</ele>
<time>2011-04-24T02:33:23Z</time>
<desc>lat.=22.315998, lon.=103.765892, Alt.=2784.595703m. Speed=1.872000m/h.</desc>
<speed>0.520000</speed>
</trkpt>
<trkpt lat="22.315964" lon="103.765892">
<ele>2784.033203</ele>
<time>2011-04-24T02:33:28Z</time>
<desc>lat.=22.315964, lon.=103.765892, Alt.=2784.033203m. Speed=2.592000m/h.</desc>
<speed>0.720000</speed>
</trkpt>
<trkpt lat="22.315916" lon="103.765907">
<ele>2783.345703</ele>
<time>2011-04-24T02:33:33Z</time>
<desc>lat.=22.315916, lon.=103.765907, Alt.=2783.345703m. Speed=1.800000m/h.</desc>
<speed>0.500000</speed>
</trkpt>
<trkpt lat="22.315865" lon="103.765900">
<ele>2782.970703</ele>
<time>2011-04-24T02:33:38Z</time>
<desc>lat.=22.315865, lon.=103.765900, Alt.=2782.970703m. Speed=4.392000m/h.</desc>
<speed>1.220000</speed>
</trkpt>
<trkpt lat="22.315819" lon="103.765854">
<ele>2783.033203</ele>
<time>2011-04-24T02:33:43Z</time>
<desc>lat.=22.315819, lon.=103.765854, Alt.=2783.033203m. Speed=4.572000m/h.</desc>
<speed>1.270000</speed>
</trkpt>
<trkpt lat="22.315804" lon="103.765846">
<ele>2784.220703</ele>
<time>2011-04-24T02:33:48Z</time>
<desc>lat.=22.315804, lon.=103.765846, Alt.=2784.220703m. Speed=1.764000m/h.</desc>
<speed>0.490000</speed>
</trkpt>
<trkpt lat="22.315777" lon="103.765831">
<ele>2784.033203</ele>
<time>2011-04-24T02:33:53Z</time>
<desc>lat.=22.315777, lon.=103.765831, Alt.=2784.033203m. Speed=2.124000m/h.</desc>
<speed>0.590000</speed>
</trkpt>
<trkpt lat="22.315750" lon="103.765808">
<ele>2783.783203</ele>
<time>2011-04-24T02:33:58Z</time>
<desc>lat.=22.315750, lon.=103.765808, Alt.=2783.783203m. Speed=1.116000m/h.</desc>
<speed>0.310000</speed>
</trkpt>
<trkpt lat="22.315741" lon="103.765816">
<ele>2783.783203</ele>
<time>2011-04-24T02:34:03Z</time>
<desc>lat.=22.315741, lon.=103.765816, Alt.=2783.783203m. Speed=2.556000m/h.</desc>
<speed>0.710000</speed>
</trkpt>
<trkpt lat="22.315680" lon="103.765823">
<ele>2783.783203</ele>
<time>2011-04-24T02:34:08Z</time>
<desc>lat.=22.315680, lon.=103.765823, Alt.=2783.783203m. Speed=2.304000m/h.</desc>
<speed>0.640000</speed>
</trkpt>
<trkpt lat="22.315628" lon="103.765839">
<ele>2784.845703</ele>
<time>2011-04-24T02:34:13Z</time>
<desc>lat.=22.315628, lon.=103.765839, Alt.=2784.845703m. Speed=3.492000m/h.</desc>
<speed>0.970000</speed>
</trkpt>
<trkpt lat="22.315567" lon="103.765869">
<ele>2784.595703</ele>
<time>2011-04-24T02:34:18Z</time>
<desc>lat.=22.315567, lon.=103.765869, Alt.=2784.595703m. Speed=5.364000m/h.</desc>
<speed>1.490000</speed>
</trkpt>
<trkpt lat="22.315521" lon="103.765900">
<ele>2784.970703</ele>
<time>2011-04-24T02:34:23Z</time>
<desc>lat.=22.315521, lon.=103.765900, Alt.=2784.970703m. Speed=1.800000m/h.</desc>
<speed>0.500000</speed>
</trkpt>
<trkpt lat="22.315498" lon="103.765945">
<ele>2785.658203</ele>
<time>2011-04-24T02:34:28Z</time>
<desc>lat.=22.315498, lon.=103.765945, Alt.=2785.658203m. Speed=3.132000m/h.</desc>
<speed>0.870000</speed>
</trkpt>
<trkpt lat="22.315475" lon="103.765984">
<ele>2786.345703</ele>
<time>2011-04-24T02:34:33Z</time>
<desc>lat.=22.315475, lon.=103.765984, Alt.=2786.345703m. Speed=1.260000m/h.</desc>
<speed>0.350000</speed>
</trkpt>
<trkpt lat="22.315456" lon="103.765999">
<ele>2786.408203</ele>
<time>2011-04-24T02:34:38Z</time>
<desc>lat.=22.315456, lon.=103.765999, Alt.=2786.408203m. Speed=4.968000m/h.</desc>
<speed>1.380000</speed>
</trkpt>
<trkpt lat="22.315416" lon="103.766029">
<ele>2786.908203</ele>
<time>2011-04-24T02:34:43Z</time>
<desc>lat.=22.315416, lon.=103.766029, Alt.=2786.908203m. Speed=3.924000m/h.</desc>
<speed>1.090000</speed>
</trkpt>
<trkpt lat="22.315363" lon="103.766045">
<ele>2787.595703</ele>
<time>2011-04-24T02:34:48Z</time>
<desc>lat.=22.315363, lon.=103.766045, Alt.=2787.595703m. Speed=4.392000m/h.</desc>
<speed>1.220000</speed>
</trkpt>
<trkpt lat="22.315325" lon="103.766037">
<ele>2788.033203</ele>
<time>2011-04-24T02:34:53Z</time>
<desc>lat.=22.315325, lon.=103.766037, Alt.=2788.033203m. Speed=1.800000m/h.</desc>
<speed>0.500000</speed>
</trkpt>
<trkpt lat="22.315323" lon="103.766022">
<ele>2788.220703</ele>
<time>2011-04-24T02:34:58Z</time>
<desc>lat.=22.315323, lon.=103.766022, Alt.=2788.220703m. Speed=0.540000m/h.</desc>
<speed>0.150000</speed>
</trkpt>
<trkpt lat="22.315292" lon="103.766014">
<ele>2788.595703</ele>
<time>2011-04-24T02:35:03Z</time>
<desc>lat.=22.315292, lon.=103.766014, Alt.=2788.595703m. Speed=2.304000m/h.</desc>
<speed>0.640000</speed>
</trkpt>
<trkpt lat="22.315271" lon="103.766006">
<ele>2788.158203</ele>
<time>2011-04-24T02:35:08Z</time>
<desc>lat.=22.315271, lon.=103.766006, Alt.=2788.158203m. Speed=1.620000m/h.</desc>
<speed>0.450000</speed>
</trkpt>
<trkpt lat="22.315245" lon="103.765984">
<ele>2788.033203</ele>
<time>2011-04-24T02:35:13Z</time>
<desc>lat.=22.315245, lon.=103.765984, Alt.=2788.033203m. Speed=4.176000m/h.</desc>
<speed>1.160000</speed>
</trkpt>
<trkpt lat="22.315216" lon="103.765938">
<ele>2787.720703</ele>
<time>2011-04-24T02:35:18Z</time>
<desc>lat.=22.315216, lon.=103.765938, Alt.=2787.720703m. Speed=5.472000m/h.</desc>
<speed>1.520000</speed>
</trkpt>
<trkpt lat="22.315176" lon="103.765915">
<ele>2787.470703</ele>
<time>2011-04-24T02:35:23Z</time>
<desc>lat.=22.315176, lon.=103.765915, Alt.=2787.470703m. Speed=0.792000m/h.</desc>
<speed>0.220000</speed>
</trkpt>
<trkpt lat="22.315142" lon="103.765862">
<ele>2787.533203</ele>
<time>2011-04-24T02:35:28Z</time>
<desc>lat.=22.315142, lon.=103.765862, Alt.=2787.533203m. Speed=4.968000m/h.</desc>
<speed>1.380000</speed>
</trkpt>
<trkpt lat="22.315090" lon="103.765831">
<ele>2787.220703</ele>
<time>2011-04-24T02:35:33Z</time>
<desc>lat.=22.315090, lon.=103.765831, Alt.=2787.220703m. Speed=3.960000m/h.</desc>
<speed>1.100000</speed>
</trkpt>
<trkpt lat="22.315081" lon="103.765823">
<ele>2786.720703</ele>
<time>2011-04-24T02:35:38Z</time>
<desc>lat.=22.315081, lon.=103.765823, Alt.=2786.720703m. Speed=0.864000m/h.</desc>
<speed>0.240000</speed>
</trkpt>
<trkpt lat="22.315067" lon="103.765816">
<ele>2785.970703</ele>
<time>2011-04-24T02:35:43Z</time>
<desc>lat.=22.315067, lon.=103.765816, Alt.=2785.970703m. Speed=6.228000m/h.</desc>
<speed>1.730000</speed>
</trkpt>
<trkpt lat="22.315042" lon="103.765762">
<ele>2785.033203</ele>
<time>2011-04-24T02:35:48Z</time>
<desc>lat.=22.315042, lon.=103.765762, Alt.=2785.033203m. Speed=4.320000m/h.</desc>
<speed>1.200000</speed>
</trkpt>
<trkpt lat="22.315035" lon="103.765724">
<ele>2783.408203</ele>
<time>2011-04-24T02:35:53Z</time>
<desc>lat.=22.315035, lon.=103.765724, Alt.=2783.408203m. Speed=1.332000m/h.</desc>
<speed>0.370000</speed>
</trkpt>
<trkpt lat="22.315029" lon="103.765717">
<ele>2782.720703</ele>
<time>2011-04-24T02:35:58Z</time>
<desc>lat.=22.315029, lon.=103.765717, Alt.=2782.720703m. Speed=0.396000m/h.</desc>
<speed>0.110000</speed>
</trkpt>
<trkpt lat="22.315027" lon="103.765709">
<ele>2782.720703</ele>
<time>2011-04-24T02:36:03Z</time>
<desc>lat.=22.315027, lon.=103.765709, Alt.=2782.720703m. Speed=0.036000m/h.</desc>
<speed>0.010000</speed>
</trkpt>
<trkpt lat="22.315029" lon="103.765724">
<ele>2782.845703</ele>
<time>2011-04-24T02:36:08Z</time>
<desc>lat.=22.315029, lon.=103.765724, Alt.=2782.845703m. Speed=0.612000m/h.</desc>
<speed>0.170000</speed>
</trkpt>
<trkpt lat="22.315027" lon="103.765724">
<ele>2782.595703</ele>
<time>2011-04-24T02:36:13Z</time>
<desc>lat.=22.315027, lon.=103.765724, Alt.=2782.595703m. Speed=0.828000m/h.</desc>
<speed>0.230000</speed>
</trkpt>
<trkpt lat="22.315027" lon="103.765717">
<ele>2782.845703</ele>
<time>2011-04-24T02:36:18Z</time>
<desc>lat.=22.315027, lon.=103.765717, Alt.=2782.845703m. Speed=2.304000m/h.</desc>
<speed>0.640000</speed>
</trkpt>
<trkpt lat="22.315002" lon="103.765694">
<ele>2783.095703</ele>
<time>2011-04-24T02:36:23Z</time>
<desc>lat.=22.315002, lon.=103.765694, Alt.=2783.095703m. Speed=2.448000m/h.</desc>
<speed>0.680000</speed>
</trkpt>
<trkpt lat="22.314976" lon="103.765633">
<ele>2783.908203</ele>
<time>2011-04-24T02:36:28Z</time>
<desc>lat.=22.314976, lon.=103.765633, Alt.=2783.908203m. Speed=4.248000m/h.</desc>
<speed>1.180000</speed>
</trkpt>
<trkpt lat="22.314926" lon="103.765633">
<ele>2784.658203</ele>
<time>2011-04-24T02:36:33Z</time>
<desc>lat.=22.314926, lon.=103.765633, Alt.=2784.658203m. Speed=3.816000m/h.</desc>
<speed>1.060000</speed>
</trkpt>
<trkpt lat="22.314877" lon="103.765663">
<ele>2785.158203</ele>
<time>2011-04-24T02:36:38Z</time>
<desc>lat.=22.314877, lon.=103.765663, Alt.=2785.158203m. Speed=4.968000m/h.</desc>
<speed>1.380000</speed>
</trkpt>
<trkpt lat="22.314827" lon="103.765678">
<ele>2786.095703</ele>
<time>2011-04-24T02:36:43Z</time>
<desc>lat.=22.314827, lon.=103.765678, Alt.=2786.095703m. Speed=3.564000m/h.</desc>
<speed>0.990000</speed>
</trkpt>
<trkpt lat="22.314796" lon="103.765694">
<ele>2785.470703</ele>
<time>2011-04-24T02:36:48Z</time>
<desc>lat.=22.314796, lon.=103.765694, Alt.=2785.470703m. Speed=2.484000m/h.</desc>
<speed>0.690000</speed>
</trkpt>
<trkpt lat="22.314762" lon="103.765686">
<ele>2784.033203</ele>
<time>2011-04-24T02:36:53Z</time>
<desc>lat.=22.314762, lon.=103.765686, Alt.=2784.033203m. Speed=1.944000m/h.</desc>
<speed>0.540000</speed>
</trkpt>
<trkpt lat="22.314734" lon="103.765701">
<ele>2783.033203</ele>
<time>2011-04-24T02:36:58Z</time>
<desc>lat.=22.314734, lon.=103.765701, Alt.=2783.033203m. Speed=3.384000m/h.</desc>
<speed>0.940000</speed>
</trkpt>
<trkpt lat="22.314709" lon="103.765694">
<ele>2782.720703</ele>
<time>2011-04-24T02:37:03Z</time>
<desc>lat.=22.314709, lon.=103.765694, Alt.=2782.720703m. Speed=2.196000m/h.</desc>
<speed>0.610000</speed>
</trkpt>
<trkpt lat="22.314669" lon="103.765686">
<ele>2782.033203</ele>
<time>2011-04-24T02:37:08Z</time>
<desc>lat.=22.314669, lon.=103.765686, Alt.=2782.033203m. Speed=2.592000m/h.</desc>
<speed>0.720000</speed>
</trkpt>
<trkpt lat="22.314663" lon="103.765694">
<ele>2781.345703</ele>
<time>2011-04-24T02:37:13Z</time>
<desc>lat.=22.314663, lon.=103.765694, Alt.=2781.345703m. Speed=0.252000m/h.</desc>
<speed>0.070000</speed>
</trkpt>
<trkpt lat="22.314642" lon="103.765701">
<ele>2781.408203</ele>
<time>2011-04-24T02:37:18Z</time>
<desc>lat.=22.314642, lon.=103.765701, Alt.=2781.408203m. Speed=1.512000m/h.</desc>
<speed>0.420000</speed>
</trkpt>
<trkpt lat="22.314627" lon="103.765717">
<ele>2781.720703</ele>
<time>2011-04-24T02:37:23Z</time>
<desc>lat.=22.314627, lon.=103.765717, Alt.=2781.720703m. Speed=2.628000m/h.</desc>
<speed>0.730000</speed>
</trkpt>
<trkpt lat="22.314615" lon="103.765739">
<ele>2781.845703</ele>
<time>2011-04-24T02:37:28Z</time>
<desc>lat.=22.314615, lon.=103.765739, Alt.=2781.845703m. Speed=1.620000m/h.</desc>
<speed>0.450000</speed>
</trkpt>
<trkpt lat="22.314608" lon="103.765755">
<ele>2782.408203</ele>
<time>2011-04-24T02:37:33Z</time>
<desc>lat.=22.314608, lon.=103.765755, Alt.=2782.408203m. Speed=1.404000m/h.</desc>
<speed>0.390000</speed>
</trkpt>
<trkpt lat="22.314594" lon="103.765755">
<ele>2782.470703</ele>
<time>2011-04-24T02:37:38Z</time>
<desc>lat.=22.314594, lon.=103.765755, Alt.=2782.470703m. Speed=1.152000m/h.</desc>
<speed>0.320000</speed>
</trkpt>
<trkpt lat="22.314579" lon="103.765755">
<ele>2782.533203</ele>
<time>2011-04-24T02:37:43Z</time>
<desc>lat.=22.314579, lon.=103.765755, Alt.=2782.533203m. Speed=0.972000m/h.</desc>
<speed>0.270000</speed>
</trkpt>
<trkpt lat="22.314566" lon="103.765747">
<ele>2782.533203</ele>
<time>2011-04-24T02:37:48Z</time>
<desc>lat.=22.314566, lon.=103.765747, Alt.=2782.533203m. Speed=1.008000m/h.</desc>
<speed>0.280000</speed>
</trkpt>
<trkpt lat="22.314552" lon="103.765747">
<ele>2782.533203</ele>
<time>2011-04-24T02:37:53Z</time>
<desc>lat.=22.314552, lon.=103.765747, Alt.=2782.533203m. Speed=1.008000m/h.</desc>
<speed>0.280000</speed>
</trkpt>
<trkpt lat="22.314541" lon="103.765739">
<ele>2782.595703</ele>
<time>2011-04-24T02:37:58Z</time>
<desc>lat.=22.314541, lon.=103.765739, Alt.=2782.595703m. Speed=0.756000m/h.</desc>
<speed>0.210000</speed>
</trkpt>
<trkpt lat="22.314537" lon="103.765724">
<ele>2782.658203</ele>
<time>2011-04-24T02:38:03Z</time>
<desc>lat.=22.314537, lon.=103.765724, Alt.=2782.658203m. Speed=1.116000m/h.</desc>
<speed>0.310000</speed>
</trkpt>
<trkpt lat="22.314528" lon="103.765709">
<ele>2782.720703</ele>
<time>2011-04-24T02:38:08Z</time>
<desc>lat.=22.314528, lon.=103.765709, Alt.=2782.720703m. Speed=1.260000m/h.</desc>
<speed>0.350000</speed>
</trkpt>
<trkpt lat="22.314518" lon="103.765678">
<ele>2782.783203</ele>
<time>2011-04-24T02:38:13Z</time>
<desc>lat.=22.314518, lon.=103.765678, Alt.=2782.783203m. Speed=1.332000m/h.</desc>
<speed>0.370000</speed>
</trkpt>
<trkpt lat="22.314465" lon="103.765610">
<ele>2783.033203</ele>
<time>2011-04-24T02:38:18Z</time>
<desc>lat.=22.314465, lon.=103.765610, Alt.=2783.033203m. Speed=1.728000m/h.</desc>
<speed>0.480000</speed>
</trkpt>
<trkpt lat="22.314402" lon="103.765556">
<ele>2783.220703</ele>
<time>2011-04-24T02:38:23Z</time>
<desc>lat.=22.314402, lon.=103.765556, Alt.=2783.220703m. Speed=2.340000m/h.</desc>
<speed>0.650000</speed>
</trkpt>
<trkpt lat="22.314358" lon="103.765503">
<ele>2783.408203</ele>
<time>2011-04-24T02:38:28Z</time>
<desc>lat.=22.314358, lon.=103.765503, Alt.=2783.408203m. Speed=2.736000m/h.</desc>
<speed>0.760000</speed>
</trkpt>
<trkpt lat="22.314358" lon="103.765480">
<ele>2783.595703</ele>
<time>2011-04-24T02:38:33Z</time>
<desc>lat.=22.314358, lon.=103.765480, Alt.=2783.595703m. Speed=2.340000m/h.</desc>
<speed>0.650000</speed>
</trkpt>
<trkpt lat="22.314369" lon="103.765480">
<ele>2783.595703</ele>
<time>2011-04-24T02:38:38Z</time>
<desc>lat.=22.314369, lon.=103.765480, Alt.=2783.595703m. Speed=2.016000m/h.</desc>
<speed>0.560000</speed>
</trkpt>
<trkpt lat="22.314402" lon="103.765541">
<ele>2783.658203</ele>
<time>2011-04-24T02:38:43Z</time>
<desc>lat.=22.314402, lon.=103.765541, Alt.=2783.658203m. Speed=0.648000m/h.</desc>
<speed>0.180000</speed>
</trkpt>
<trkpt lat="22.314398" lon="103.765564">
<ele>2783.720703</ele>
<time>2011-04-24T02:38:48Z</time>
<desc>lat.=22.314398, lon.=103.765564, Alt.=2783.720703m. Speed=1.044000m/h.</desc>
<speed>0.290000</speed>
</trkpt>
<trkpt lat="22.314417" lon="103.765633">
<ele>2783.783203</ele>
<time>2011-04-24T02:38:53Z</time>
<desc>lat.=22.314417, lon.=103.765633, Alt.=2783.783203m. Speed=2.088000m/h.</desc>
<speed>0.580000</speed>
</trkpt>
<trkpt lat="22.314468" lon="103.765678">
<ele>2783.783203</ele>
<time>2011-04-24T02:38:58Z</time>
<desc>lat.=22.314468, lon.=103.765678, Alt.=2783.783203m. Speed=2.376000m/h.</desc>
<speed>0.660000</speed>
</trkpt>
<trkpt lat="22.314514" lon="103.765717">
<ele>2783.845703</ele>
<time>2011-04-24T02:39:03Z</time>
<desc>lat.=22.314514, lon.=103.765717, Alt.=2783.845703m. Speed=2.376000m/h.</desc>
<speed>0.660000</speed>
</trkpt>
<trkpt lat="22.314543" lon="103.765785">
<ele>2783.908203</ele>
<time>2011-04-24T02:39:08Z</time>
<desc>lat.=22.314543, lon.=103.765785, Alt.=2783.908203m. Speed=2.448000m/h.</desc>
<speed>0.680000</speed>
</trkpt>
<trkpt lat="22.314558" lon="103.765839">
<ele>2783.908203</ele>
<time>2011-04-24T02:39:13Z</time>
<desc>lat.=22.314558, lon.=103.765839, Alt.=2783.908203m. Speed=2.196000m/h.</desc>
<speed>0.610000</speed>
</trkpt>
<trkpt lat="22.314589" lon="103.765869">
<ele>2783.970703</ele>
<time>2011-04-24T02:39:18Z</time>
<desc>lat.=22.314589, lon.=103.765869, Alt.=2783.970703m. Speed=2.160000m/h.</desc>
<speed>0.600000</speed>
</trkpt>
<trkpt lat="22.314631" lon="103.765877">
<ele>2783.970703</ele>
<time>2011-04-24T02:39:23Z</time>
<desc>lat.=22.314631, lon.=103.765877, Alt.=2783.970703m. Speed=1.872000m/h.</desc>
<speed>0.520000</speed>
</trkpt>
<trkpt lat="22.314640" lon="103.765907">
<ele>2784.033203</ele>
<time>2011-04-24T02:39:28Z</time>
<desc>lat.=22.314640, lon.=103.765907, Alt.=2784.033203m. Speed=2.016000m/h.</desc>
<speed>0.560000</speed>
</trkpt>
<trkpt lat="22.314659" lon="103.765938">
<ele>2784.033203</ele>
<time>2011-04-24T02:39:33Z</time>
<desc>lat.=22.314659, lon.=103.765938, Alt.=2784.033203m. Speed=1.908000m/h.</desc>
<speed>0.530000</speed>
</trkpt>
<trkpt lat="22.314693" lon="103.765907">
<ele>2784.095703</ele>
<time>2011-04-24T02:39:38Z</time>
<desc>lat.=22.314693, lon.=103.765907, Alt.=2784.095703m. Speed=1.764000m/h.</desc>
<speed>0.490000</speed>
</trkpt>
<trkpt lat="22.314745" lon="103.765854">
<ele>2784.095703</ele>
<time>2011-04-24T02:39:43Z</time>
<desc>lat.=22.314745, lon.=103.765854, Alt.=2784.095703m. Speed=2.016000m/h.</desc>
<speed>0.560000</speed>
</trkpt>
<trkpt lat="22.314783" lon="103.765839">
<ele>2784.095703</ele>
<time>2011-04-24T02:39:48Z</time>
<desc>lat.=22.314783, lon.=103.765839, Alt.=2784.095703m. Speed=2.196000m/h.</desc>
<speed>0.610000</speed>
</trkpt>
<trkpt lat="22.314796" lon="103.765816">
<ele>2784.158203</ele>
<time>2011-04-24T02:39:53Z</time>
<desc>lat.=22.314796, lon.=103.765816, Alt.=2784.158203m. Speed=1.908000m/h.</desc>
<speed>0.530000</speed>
</trkpt>
<trkpt lat="22.314814" lon="103.765808">
<ele>2784.158203</ele>
<time>2011-04-24T02:39:58Z</time>
<desc>lat.=22.314814, lon.=103.765808, Alt.=2784.158203m. Speed=1.548000m/h.</desc>
<speed>0.430000</speed>
</trkpt>
<trkpt lat="22.314829" lon="103.765823">
<ele>2784.158203</ele>
<time>2011-04-24T02:40:03Z</time>
<desc>lat.=22.314829, lon.=103.765823, Alt.=2784.158203m. Speed=1.440000m/h.</desc>
<speed>0.400000</speed>
</trkpt>
<trkpt lat="22.314819" lon="103.765816">
<ele>2784.095703</ele>
<time>2011-04-24T02:40:08Z</time>
<desc>lat.=22.314819, lon.=103.765816, Alt.=2784.095703m. Speed=1.152000m/h.</desc>
<speed>0.320000</speed>
</trkpt>
<trkpt lat="22.314814" lon="103.765785">
<ele>2784.095703</ele>
<time>2011-04-24T02:40:13Z</time>
<desc>lat.=22.314814, lon.=103.765785, Alt.=2784.095703m. Speed=1.080000m/h.</desc>
<speed>0.300000</speed>
</trkpt>
<trkpt lat="22.314795" lon="103.765785">
<ele>2784.095703</ele>
<time>2011-04-24T02:40:18Z</time>
<desc>lat.=22.314795, lon.=103.765785, Alt.=2784.095703m. Speed=0.648000m/h.</desc>
<speed>0.180000</speed>
</trkpt>
<trkpt lat="22.314791" lon="103.765793">
<ele>2784.095703</ele>
<time>2011-04-24T02:40:23Z</time>
<desc>lat.=22.314791, lon.=103.765793, Alt.=2784.095703m. Speed=0.324000m/h.</desc>
<speed>0.090000</speed>
</trkpt>
<trkpt lat="22.314774" lon="103.765785">
<ele>2784.095703</ele>
<time>2011-04-24T02:40:28Z</time>
<desc>lat.=22.314774, lon.=103.765785, Alt.=2784.095703m. Speed=0.072000m/h.</desc>
<speed>0.020000</speed>
</trkpt>
<trkpt lat="22.314734" lon="103.765793">
<ele>2784.095703</ele>
<time>2011-04-24T02:40:33Z</time>
<desc>lat.=22.314734, lon.=103.765793, Alt.=2784.095703m. Speed=0.540000m/h.</desc>
<speed>0.150000</speed>
</trkpt>
<trkpt lat="22.314741" lon="103.765816">
<ele>2784.033203</ele>
<time>2011-04-24T02:40:38Z</time>
<desc>lat.=22.314741, lon.=103.765816, Alt.=2784.033203m. Speed=0.684000m/h.</desc>
<speed>0.190000</speed>
</trkpt>
<trkpt lat="22.314718" lon="103.765808">
<ele>2783.970703</ele>
<time>2011-04-24T02:40:43Z</time>
<desc>lat.=22.314718, lon.=103.765808, Alt.=2783.970703m. Speed=0.828000m/h.</desc>
<speed>0.230000</speed>
</trkpt>
<trkpt lat="22.314682" lon="103.765816">
<ele>2783.845703</ele>
<time>2011-04-24T02:40:48Z</time>
<desc>lat.=22.314682, lon.=103.765816, Alt.=2783.845703m. Speed=1.044000m/h.</desc>
<speed>0.290000</speed>
</trkpt>
<trkpt lat="22.314653" lon="103.765808">
<ele>2783.783203</ele>
<time>2011-04-24T02:40:53Z</time>
<desc>lat.=22.314653, lon.=103.765808, Alt.=2783.783203m. Speed=0.972000m/h.</desc>
<speed>0.270000</speed>
</trkpt>
<trkpt lat="22.314634" lon="103.765793">
<ele>2783.658203</ele>
<time>2011-04-24T02:40:58Z</time>
<desc>lat.=22.314634, lon.=103.765793, Alt.=2783.658203m. Speed=0.972000m/h.</desc>
<speed>0.270000</speed>
</trkpt>
<trkpt lat="22.314665" lon="103.765808">
<ele>2783.595703</ele>
<time>2011-04-24T02:41:03Z</time>
<desc>lat.=22.314665, lon.=103.765808, Alt.=2783.595703m. Speed=0.252000m/h.</desc>
<speed>0.070000</speed>
</trkpt>
<trkpt lat="22.314705" lon="103.765846">
<ele>2783.533203</ele>
<time>2011-04-24T02:41:08Z</time>
<desc>lat.=22.314705, lon.=103.765846, Alt.=2783.533203m. Speed=0.540000m/h.</desc>
<speed>0.150000</speed>
</trkpt>
<trkpt lat="22.314716" lon="103.765862">
<ele>2783.533203</ele>
<time>2011-04-24T02:41:13Z</time>
<desc>lat.=22.314716, lon.=103.765862, Alt.=2783.533203m. Speed=0.648000m/h.</desc>
<speed>0.180000</speed>
</trkpt>
<trkpt lat="22.314714" lon="103.765869">
<ele>2783.533203</ele>
<time>2011-04-24T02:41:18Z</time>
<desc>lat.=22.314714, lon.=103.765869, Alt.=2783.533203m. Speed=0.396000m/h.</desc>
<speed>0.110000</speed>
</trkpt>
<trkpt lat="22.314713" lon="103.765877">
<ele>2783.533203</ele>
<time>2011-04-24T02:41:23Z</time>
<desc>lat.=22.314713, lon.=103.765877, Alt.=2783.533203m. Speed=0.360000m/h.</desc>
<speed>0.100000</speed>
</trkpt>
<trkpt lat="22.314707" lon="103.765877">
<ele>2783.533203</ele>
<time>2011-04-24T02:41:28Z</time>
<desc>lat.=22.314707, lon.=103.765877, Alt.=2783.533203m. Speed=0.540000m/h.</desc>
<speed>0.150000</speed>
</trkpt>
<trkpt lat="22.314699" lon="103.765869">
<ele>2783.533203</ele>
<time>2011-04-24T02:41:33Z</time>
<desc>lat.=22.314699, lon.=103.765869, Alt.=2783.533203m. Speed=1.080000m/h.</desc>
<speed>0.300000</speed>
</trkpt>
<trkpt lat="22.314688" lon="103.765816">
<ele>2783.470703</ele>
<time>2011-04-24T02:41:38Z</time>
<desc>lat.=22.314688, lon.=103.765816, Alt.=2783.470703m. Speed=1.224000m/h.</desc>
<speed>0.340000</speed>
</trkpt>
<trkpt lat="22.314692" lon="103.765854">
<ele>2783.408203</ele>
<time>2011-04-24T02:41:43Z</time>
<desc>lat.=22.314692, lon.=103.765854, Alt.=2783.408203m. Speed=0.720000m/h.</desc>
<speed>0.200000</speed>
</trkpt>
<trkpt lat="22.314686" lon="103.765854">
<ele>2783.408203</ele>
<time>2011-04-24T02:41:48Z</time>
<desc>lat.=22.314686, lon.=103.765854, Alt.=2783.408203m. Speed=0.360000m/h.</desc>
<speed>0.100000</speed>
</trkpt>
<trkpt lat="22.314682" lon="103.765854">
<ele>2783.408203</ele>
<time>2011-04-24T02:41:53Z</time>
<desc>lat.=22.314682, lon.=103.765854, Alt.=2783.408203m. Speed=0.216000m/h.</desc>
<speed>0.060000</speed>
</trkpt>
<trkpt lat="22.314680" lon="103.765854">
<ele>2783.408203</ele>
<time>2011-04-24T02:41:58Z</time>
<desc>lat.=22.314680, lon.=103.765854, Alt.=2783.408203m. Speed=0.252000m/h.</desc>
<speed>0.070000</speed>
</trkpt>
<trkpt lat="22.314678" lon="103.765839">
<ele>2783.345703</ele>
<time>2011-04-24T02:42:03Z</time>
<desc>lat.=22.314678, lon.=103.765839, Alt.=2783.345703m. Speed=1.116000m/h.</desc>
<speed>0.310000</speed>
</trkpt>
<trkpt lat="22.314682" lon="103.765755">
<ele>2783.345703</ele>
<time>2011-04-24T02:42:08Z</time>
<desc>lat.=22.314682, lon.=103.765755, Alt.=2783.345703m. Speed=1.584000m/h.</desc>
<speed>0.440000</speed>
</trkpt>
<trkpt lat="22.314672" lon="103.765686">
<ele>2783.345703</ele>
<time>2011-04-24T02:42:13Z</time>
<desc>lat.=22.314672, lon.=103.765686, Alt.=2783.345703m. Speed=1.980000m/h.</desc>
<speed>0.550000</speed>
</trkpt>
<trkpt lat="22.314661" lon="103.765610">
<ele>2783.345703</ele>
<time>2011-04-24T02:42:18Z</time>
<desc>lat.=22.314661, lon.=103.765610, Alt.=2783.345703m. Speed=2.232000m/h.</desc>
<speed>0.620000</speed>
</trkpt>
<trkpt lat="22.314653" lon="103.765594">
<ele>2783.345703</ele>
<time>2011-04-24T02:42:23Z</time>
<desc>lat.=22.314653, lon.=103.765594, Alt.=2783.345703m. Speed=1.620000m/h.</desc>
<speed>0.450000</speed>
</trkpt>
<trkpt lat="22.314634" lon="103.765610">
<ele>2783.345703</ele>
<time>2011-04-24T02:42:28Z</time>
<desc>lat.=22.314634, lon.=103.765610, Alt.=2783.345703m. Speed=1.296000m/h.</desc>
<speed>0.360000</speed>
</trkpt>
<trkpt lat="22.314617" lon="103.765656">
<ele>2783.345703</ele>
<time>2011-04-24T02:42:33Z</time>
<desc>lat.=22.314617, lon.=103.765656, Alt.=2783.345703m. Speed=0.972000m/h.</desc>
<speed>0.270000</speed>
</trkpt>
<trkpt lat="22.314613" lon="103.765663">
<ele>2783.345703</ele>
<time>2011-04-24T02:42:38Z</time>
<desc>lat.=22.314613, lon.=103.765663, Alt.=2783.345703m. Speed=0.900000m/h.</desc>
<speed>0.250000</speed>
</trkpt>
<trkpt lat="22.314632" lon="103.765656">
<ele>2783.345703</ele>
<time>2011-04-24T02:42:43Z</time>
<desc>lat.=22.314632, lon.=103.765656, Alt.=2783.345703m. Speed=0.360000m/h.</desc>
<speed>0.100000</speed>
</trkpt>
<trkpt lat="22.314648" lon="103.765671">
<ele>2783.408203</ele>
<time>2011-04-24T02:42:48Z</time>
<desc>lat.=22.314648, lon.=103.765671, Alt.=2783.408203m. Speed=0.324000m/h.</desc>
<speed>0.090000</speed>
</trkpt>
<trkpt lat="22.314692" lon="103.765709">
<ele>2783.408203</ele>
<time>2011-04-24T02:42:53Z</time>
<desc>lat.=22.314692, lon.=103.765709, Alt.=2783.408203m. Speed=0.864000m/h.</desc>
<speed>0.240000</speed>
</trkpt>
<trkpt lat="22.314688" lon="103.765724">
<ele>2783.533203</ele>
<time>2011-04-24T02:42:58Z</time>
<desc>lat.=22.314688, lon.=103.765724, Alt.=2783.533203m. Speed=0.900000m/h.</desc>
<speed>0.250000</speed>
</trkpt>
<trkpt lat="22.314713" lon="103.765724">
<ele>2783.533203</ele>
<time>2011-04-24T02:43:03Z</time>
<desc>lat.=22.314713, lon.=103.765724, Alt.=2783.533203m. Speed=1.008000m/h.</desc>
<speed>0.280000</speed>
</trkpt>
<trkpt lat="22.314672" lon="103.765709">
<ele>2783.470703</ele>
<time>2011-04-24T02:43:08Z</time>
<desc>lat.=22.314672, lon.=103.765709, Alt.=2783.470703m. Speed=0.360000m/h.</desc>
<speed>0.100000</speed>
</trkpt>
<trkpt lat="22.314644" lon="103.765732">
<ele>2783.533203</ele>
<time>2011-04-24T02:43:13Z</time>
<desc>lat.=22.314644, lon.=103.765732, Alt.=2783.533203m. Speed=0.540000m/h.</desc>
<speed>0.150000</speed>
</trkpt>
<trkpt lat="22.314642" lon="103.765770">
<ele>2783.470703</ele>
<time>2011-04-24T02:43:18Z</time>
<desc>lat.=22.314642, lon.=103.765770, Alt.=2783.470703m. Speed=0.936000m/h.</desc>
<speed>0.260000</speed>
</trkpt>
<trkpt lat="22.314669" lon="103.765785">
<ele>2783.470703</ele>
<time>2011-04-24T02:43:23Z</time>
<desc>lat.=22.314669, lon.=103.765785, Alt.=2783.470703m. Speed=0.792000m/h.</desc>
<speed>0.220000</speed>
</trkpt>
<trkpt lat="22.314693" lon="103.765800">
<ele>2783.470703</ele>
<time>2011-04-24T02:43:28Z</time>
<desc>lat.=22.314693, lon.=103.765800, Alt.=2783.470703m. Speed=0.756000m/h.</desc>
<speed>0.210000</speed>
</trkpt>
<trkpt lat="22.314695" lon="103.765808">
<ele>2783.533203</ele>
<time>2011-04-24T02:43:33Z</time>
<desc>lat.=22.314695, lon.=103.765808, Alt.=2783.533203m. Speed=0.684000m/h.</desc>
<speed>0.190000</speed>
</trkpt>
<trkpt lat="22.314690" lon="103.765800">
<ele>2783.533203</ele>
<time>2011-04-24T02:43:38Z</time>
<desc>lat.=22.314690, lon.=103.765800, Alt.=2783.533203m. Speed=0.324000m/h.</desc>
<speed>0.090000</speed>
</trkpt>
<trkpt lat="22.314690" lon="103.765808">
<ele>2783.533203</ele>
<time>2011-04-24T02:43:43Z</time>
<desc>lat.=22.314690, lon.=103.765808, Alt.=2783.533203m. Speed=0.324000m/h.</desc>
<speed>0.090000</speed>
</trkpt>
<trkpt lat="22.314693" lon="103.765808">
<ele>2783.533203</ele>
<time>2011-04-24T02:43:48Z</time>
<desc>lat.=22.314693, lon.=103.765808, Alt.=2783.533203m. Speed=0.288000m/h.</desc>
<speed>0.080000</speed>
</trkpt>
<trkpt lat="22.314699" lon="103.765808">
<ele>2783.533203</ele>
<time>2011-04-24T02:43:53Z</time>
<desc>lat.=22.314699, lon.=103.765808, Alt.=2783.533203m. Speed=0.360000m/h.</desc>
<speed>0.100000</speed>
</trkpt>
<trkpt lat="22.314703" lon="103.765808">
<ele>2783.533203</ele>
<time>2011-04-24T02:43:58Z</time>
<desc>lat.=22.314703, lon.=103.765808, Alt.=2783.533203m. Speed=0.288000m/h.</desc>
<speed>0.080000</speed>
</trkpt>
<trkpt lat="22.314709" lon="103.765808">
<ele>2783.595703</ele>
<time>2011-04-24T02:44:03Z</time>
<desc>lat.=22.314709, lon.=103.765808, Alt.=2783.595703m. Speed=0.432000m/h.</desc>
<speed>0.120000</speed>
</trkpt>
<trkpt lat="22.314711" lon="103.765808">
<ele>2783.595703</ele>
<time>2011-04-24T02:44:08Z</time>
<desc>lat.=22.314711, lon.=103.765808, Alt.=2783.595703m. Speed=0.216000m/h.</desc>
<speed>0.060000</speed>
</trkpt>
<trkpt lat="22.314716" lon="103.765808">
<ele>2783.658203</ele>
<time>2011-04-24T02:44:13Z</time>
<desc>lat.=22.314716, lon.=103.765808, Alt.=2783.658203m. Speed=0.648000m/h.</desc>
<speed>0.180000</speed>
</trkpt>
<trkpt lat="22.314722" lon="103.765793">
<ele>2783.720703</ele>
<time>2011-04-24T02:44:18Z</time>
<desc>lat.=22.314722, lon.=103.765793, Alt.=2783.720703m. Speed=1.188000m/h.</desc>
<speed>0.330000</speed>
</trkpt>
<trkpt lat="22.314743" lon="103.765823">
<ele>2783.845703</ele>
<time>2011-04-24T02:44:23Z</time>
<desc>lat.=22.314743, lon.=103.765823, Alt.=2783.845703m. Speed=0.864000m/h.</desc>
<speed>0.240000</speed>
</trkpt>
<trkpt lat="22.314766" lon="103.765839">
<ele>2783.845703</ele>
<time>2011-04-24T02:44:28Z</time>
<desc>lat.=22.314766, lon.=103.765839, Alt.=2783.845703m. Speed=1.008000m/h.</desc>
<speed>0.280000</speed>
</trkpt>
<trkpt lat="22.314785" lon="103.765854">
<ele>2784.158203</ele>
<time>2011-04-24T02:44:33Z</time>
<desc>lat.=22.314785, lon.=103.765854, Alt.=2784.158203m. Speed=1.332000m/h.</desc>
<speed>0.370000</speed>
</trkpt>
<trkpt lat="22.314775" lon="103.765839">
<ele>2784.658203</ele>
<time>2011-04-24T02:44:38Z</time>
<desc>lat.=22.314775, lon.=103.765839, Alt.=2784.658203m. Speed=0.864000m/h.</desc>
<speed>0.240000</speed>
</trkpt>
<trkpt lat="22.314791" lon="103.765823">
<ele>2784.783203</ele>
<time>2011-04-24T02:44:43Z</time>
<desc>lat.=22.314791, lon.=103.765823, Alt.=2784.783203m. Speed=0.792000m/h.</desc>
<speed>0.220000</speed>
</trkpt>
<trkpt lat="22.314796" lon="103.765823">
<ele>2784.845703</ele>
<time>2011-04-24T02:44:48Z</time>
<desc>lat.=22.314796, lon.=103.765823, Alt.=2784.845703m. Speed=0.108000m/h.</desc>
<speed>0.030000</speed>
</trkpt>
<trkpt lat="22.314795" lon="103.765823">
<ele>2784.970703</ele>
<time>2011-04-24T02:44:53Z</time>
<desc>lat.=22.314795, lon.=103.765823, Alt.=2784.970703m. Speed=0.252000m/h.</desc>
<speed>0.070000</speed>
</trkpt>
<trkpt lat="22.314791" lon="103.765823">
<ele>2785.095703</ele>
<time>2011-04-24T02:44:58Z</time>
<desc>lat.=22.314791, lon.=103.765823, Alt.=2785.095703m. Speed=0.504000m/h.</desc>
<speed>0.140000</speed>
</trkpt>
<trkpt lat="22.314785" lon="103.765816">
<ele>2785.220703</ele>
<time>2011-04-24T02:45:03Z</time>
<desc>lat.=22.314785, lon.=103.765816, Alt.=2785.220703m. Speed=0.972000m/h.</desc>
<speed>0.270000</speed>
</trkpt>
<trkpt lat="22.314756" lon="103.765808">
<ele>2785.658203</ele>
<time>2011-04-24T02:45:08Z</time>
<desc>lat.=22.314756, lon.=103.765808, Alt.=2785.658203m. Speed=0.936000m/h.</desc>
<speed>0.260000</speed>
</trkpt>
<trkpt lat="22.314718" lon="103.765823">
<ele>2786.220703</ele>
<time>2011-04-24T02:45:13Z</time>
<desc>lat.=22.314718, lon.=103.765823, Alt.=2786.220703m. Speed=1.044000m/h.</desc>
<speed>0.290000</speed>
</trkpt>
<trkpt lat="22.314665" lon="103.765808">
<ele>2786.720703</ele>
<time>2011-04-24T02:45:18Z</time>
<desc>lat.=22.314665, lon.=103.765808, Alt.=2786.720703m. Speed=1.512000m/h.</desc>
<speed>0.420000</speed>
</trkpt>
<trkpt lat="22.314632" lon="103.765778">
<ele>2787.158203</ele>
<time>2011-04-24T02:45:23Z</time>
<desc>lat.=22.314632, lon.=103.765778, Alt.=2787.158203m. Speed=1.620000m/h.</desc>
<speed>0.450000</speed>
</trkpt>
<trkpt lat="22.314650" lon="103.765770">
<ele>2787.470703</ele>
<time>2011-04-24T02:45:28Z</time>
<desc>lat.=22.314650, lon.=103.765770, Alt.=2787.470703m. Speed=0.864000m/h.</desc>
<speed>0.240000</speed>
</trkpt>
<trkpt lat="22.314636" lon="103.765755">
<ele>2787.845703</ele>
<time>2011-04-24T02:45:33Z</time>
<desc>lat.=22.314636, lon.=103.765755, Alt.=2787.845703m. Speed=0.972000m/h.</desc>
<speed>0.270000</speed>
</trkpt>
<trkpt lat="22.314631" lon="103.765747">
<ele>2788.033203</ele>
<time>2011-04-24T02:45:38Z</time>
<desc>lat.=22.314631, lon.=103.765747, Alt.=2788.033203m. Speed=0.540000m/h.</desc>
<speed>0.150000</speed>
</trkpt>
<trkpt lat="22.314631" lon="103.765739">
<ele>2788.220703</ele>
<time>2011-04-24T02:45:43Z</time>
<desc>lat.=22.314631, lon.=103.765739, Alt.=2788.220703m. Speed=0.288000m/h.</desc>
<speed>0.080000</speed>
</trkpt>
<trkpt lat="22.314634" lon="103.765739">
<ele>2788.408203</ele>
<time>2011-04-24T02:45:48Z</time>
<desc>lat.=22.314634, lon.=103.765739, Alt.=2788.408203m. Speed=0.540000m/h.</desc>
<speed>0.150000</speed>
</trkpt>
<trkpt lat="22.314640" lon="103.765739">
<ele>2788.658203</ele>
<time>2011-04-24T02:45:53Z</time>
<desc>lat.=22.314640, lon.=103.765739, Alt.=2788.658203m. Speed=0.972000m/h.</desc>
<speed>0.270000</speed>
</trkpt>
<trkpt lat="22.314650" lon="103.765732">
<ele>2788.845703</ele>
<time>2011-04-24T02:45:58Z</time>
<desc>lat.=22.314650, lon.=103.765732, Alt.=2788.845703m. Speed=0.936000m/h.</desc>
<speed>0.260000</speed>
</trkpt>
<trkpt lat="22.314657" lon="103.765724">
<ele>2789.033203</ele>
<time>2011-04-24T02:46:03Z</time>
<desc>lat.=22.314657, lon.=103.765724, Alt.=2789.033203m. Speed=0.684000m/h.</desc>
<speed>0.190000</speed>
</trkpt>
<trkpt lat="22.314743" lon="103.765739">
<ele>2789.345703</ele>
<time>2011-04-24T02:46:08Z</time>
<desc>lat.=22.314743, lon.=103.765739, Alt.=2789.345703m. Speed=1.980000m/h.</desc>
<speed>0.550000</speed>
</trkpt>
<trkpt lat="22.314785" lon="103.765762">
<ele>2789.470703</ele>
<time>2011-04-24T02:46:13Z</time>
<desc>lat.=22.314785, lon.=103.765762, Alt.=2789.470703m. Speed=1.656000m/h.</desc>
<speed>0.460000</speed>
</trkpt>
<trkpt lat="22.314796" lon="103.765747">
<ele>2789.408203</ele>
<time>2011-04-24T02:46:18Z</time>
<desc>lat.=22.314796, lon.=103.765747, Alt.=2789.408203m. Speed=1.368000m/h.</desc>
<speed>0.380000</speed>
</trkpt>
<trkpt lat="22.314802" lon="103.765747">
<ele>2789.220703</ele>
<time>2011-04-24T02:46:23Z</time>
<desc>lat.=22.314802, lon.=103.765747, Alt.=2789.220703m. Speed=1.152000m/h.</desc>
<speed>0.320000</speed>
</trkpt>
<trkpt lat="22.314831" lon="103.765739">
<ele>2789.158203</ele>
<time>2011-04-24T02:46:28Z</time>
<desc>lat.=22.314831, lon.=103.765739, Alt.=2789.158203m. Speed=1.404000m/h.</desc>
<speed>0.390000</speed>
</trkpt>
<trkpt lat="22.314857" lon="103.765747">
<ele>2789.095703</ele>
<time>2011-04-24T02:46:33Z</time>
<desc>lat.=22.314857, lon.=103.765747, Alt.=2789.095703m. Speed=1.584000m/h.</desc>
<speed>0.440000</speed>
</trkpt>
<trkpt lat="22.314844" lon="103.765709">
<ele>2789.283203</ele>
<time>2011-04-24T02:46:38Z</time>
<desc>lat.=22.314844, lon.=103.765709, Alt.=2789.283203m. Speed=1.260000m/h.</desc>
<speed>0.350000</speed>
</trkpt>
<trkpt lat="22.314871" lon="103.765709">
<ele>2789.470703</ele>
<time>2011-04-24T02:46:43Z</time>
<desc>lat.=22.314871, lon.=103.765709, Alt.=2789.470703m. Speed=1.476000m/h.</desc>
<speed>0.410000</speed>
</trkpt>
<trkpt lat="22.314915" lon="103.765701">
<ele>2789.845703</ele>
<time>2011-04-24T02:46:48Z</time>
<desc>lat.=22.314915, lon.=103.765701, Alt.=2789.845703m. Speed=1.692000m/h.</desc>
<speed>0.470000</speed>
</trkpt>
<trkpt lat="22.314928" lon="103.765701">
<ele>2790.220703</ele>
<time>2011-04-24T02:46:53Z</time>
<desc>lat.=22.314928, lon.=103.765701, Alt.=2790.220703m. Speed=1.512000m/h.</desc>
<speed>0.420000</speed>
</trkpt>
<trkpt lat="22.314932" lon="103.765671">
<ele>2790.533203</ele>
<time>2011-04-24T02:46:58Z</time>
<desc>lat.=22.314932, lon.=103.765671, Alt.=2790.533203m. Speed=1.548000m/h.</desc>
<speed>0.430000</speed>
</trkpt>
<trkpt lat="22.314919" lon="103.765663">
<ele>2790.908203</ele>
<time>2011-04-24T02:47:03Z</time>
<desc>lat.=22.314919, lon.=103.765663, Alt.=2790.908203m. Speed=1.152000m/h.</desc>
<speed>0.320000</speed>
</trkpt>
<trkpt lat="22.314913" lon="103.765617">
<ele>2791.283203</ele>
<time>2011-04-24T02:47:08Z</time>
<desc>lat.=22.314913, lon.=103.765617, Alt.=2791.283203m. Speed=1.476000m/h.</desc>
<speed>0.410000</speed>
</trkpt>
<trkpt lat="22.314932" lon="103.765594">
<ele>2791.470703</ele>
<time>2011-04-24T02:47:13Z</time>
<desc>lat.=22.314932, lon.=103.765594, Alt.=2791.470703m. Speed=1.620000m/h.</desc>
<speed>0.450000</speed>
</trkpt>
<trkpt lat="22.314930" lon="103.765602">
<ele>2792.158203</ele>
<time>2011-04-24T02:47:18Z</time>
<desc>lat.=22.314930, lon.=103.765602, Alt.=2792.158203m. Speed=1.116000m/h.</desc>
<speed>0.310000</speed>
</trkpt>
<trkpt lat="22.314945" lon="103.765610">
<ele>2792.720703</ele>
<time>2011-04-24T02:47:23Z</time>
<desc>lat.=22.314945, lon.=103.765610, Alt.=2792.720703m. Speed=0.900000m/h.</desc>
<speed>0.250000</speed>
</trkpt>
<trkpt lat="22.314955" lon="103.765602">
<ele>2792.908203</ele>
<time>2011-04-24T02:47:28Z</time>
<desc>lat.=22.314955, lon.=103.765602, Alt.=2792.908203m. Speed=0.720000m/h.</desc>
<speed>0.200000</speed>
</trkpt>
<trkpt lat="22.314957" lon="103.765610">
<ele>2793.095703</ele>
<time>2011-04-24T02:47:33Z</time>
<desc>lat.=22.314957, lon.=103.765610, Alt.=2793.095703m. Speed=0.864000m/h.</desc>
<speed>0.240000</speed>
</trkpt>
<trkpt lat="22.314951" lon="103.765617">
<ele>2793.283203</ele>
<time>2011-04-24T02:47:38Z</time>
<desc>lat.=22.314951, lon.=103.765617, Alt.=2793.283203m. Speed=0.396000m/h.</desc>
<speed>0.110000</speed>
</trkpt>
<trkpt lat="22.314949" lon="103.765625">
<ele>2793.470703</ele>
<time>2011-04-24T02:47:43Z</time>
<desc>lat.=22.314949, lon.=103.765625, Alt.=2793.470703m. Speed=0.900000m/h.</desc>
<speed>0.250000</speed>
</trkpt>
<trkpt lat="22.314960" lon="103.765671">
<ele>2793.845703</ele>
<time>2011-04-24T02:47:48Z</time>
<desc>lat.=22.314960, lon.=103.765671, Alt.=2793.845703m. Speed=1.332000m/h.</desc>
<speed>0.370000</speed>
</trkpt>
<trkpt lat="22.314968" lon="103.765709">
<ele>2794.095703</ele>
<time>2011-04-24T02:47:53Z</time>
<desc>lat.=22.314968, lon.=103.765709, Alt.=2794.095703m. Speed=1.512000m/h.</desc>
<speed>0.420000</speed>
</trkpt>
<trkpt lat="22.314951" lon="103.765755">
<ele>2794.345703</ele>
<time>2011-04-24T02:47:58Z</time>
<desc>lat.=22.314951, lon.=103.765755, Alt.=2794.345703m. Speed=1.692000m/h.</desc>
<speed>0.470000</speed>
</trkpt>
<trkpt lat="22.314936" lon="103.765770">
<ele>2794.720703</ele>
<time>2011-04-24T02:48:03Z</time>
<desc>lat.=22.314936, lon.=103.765770, Alt.=2794.720703m. Speed=1.188000m/h.</desc>
<speed>0.330000</speed>
</trkpt>
<trkpt lat="22.314934" lon="103.765778">
<ele>2795.095703</ele>
<time>2011-04-24T02:48:08Z</time>
<desc>lat.=22.314934, lon.=103.765778, Alt.=2795.095703m. Speed=0.900000m/h.</desc>
<speed>0.250000</speed>
</trkpt>
<trkpt lat="22.314932" lon="103.765785">
<ele>2795.345703</ele>
<time>2011-04-24T02:48:13Z</time>
<desc>lat.=22.314932, lon.=103.765785, Alt.=2795.345703m. Speed=0.432000m/h.</desc>
<speed>0.120000</speed>
</trkpt>
<trkpt lat="22.314930" lon="103.765793">
<ele>2795.533203</ele>
<time>2011-04-24T02:48:18Z</time>
<desc>lat.=22.314930, lon.=103.765793, Alt.=2795.533203m. Speed=0.360000m/h.</desc>
<speed>0.100000</speed>
</trkpt>
<trkpt lat="22.314926" lon="103.765800">
<ele>2795.720703</ele>
<time>2011-04-24T02:48:23Z</time>
<desc>lat.=22.314926, lon.=103.765800, Alt.=2795.720703m. Speed=1.080000m/h.</desc>
<speed>0.300000</speed>
</trkpt>
<trkpt lat="22.314922" lon="103.765823">
<ele>2795.658203</ele>
<time>2011-04-24T02:48:28Z</time>
<desc>lat.=22.314922, lon.=103.765823, Alt.=2795.658203m. Speed=1.008000m/h.</desc>
<speed>0.280000</speed>
</trkpt>
<trkpt lat="22.314898" lon="103.765816">
<ele>2795.720703</ele>
<time>2011-04-24T02:48:33Z</time>
<desc>lat.=22.314898, lon.=103.765816, Alt.=2795.720703m. Speed=0.900000m/h.</desc>
<speed>0.250000</speed>
</trkpt>
<trkpt lat="22.314886" lon="103.765823">
<ele>2795.908203</ele>
<time>2011-04-24T02:48:38Z</time>
<desc>lat.=22.314886, lon.=103.765823, Alt.=2795.908203m. Speed=0.792000m/h.</desc>
<speed>0.220000</speed>
</trkpt>
<trkpt lat="22.314878" lon="103.765831">
<ele>2796.095703</ele>
<time>2011-04-24T02:48:43Z</time>
<desc>lat.=22.314878, lon.=103.765831, Alt.=2796.095703m. Speed=0.504000m/h.</desc>
<speed>0.140000</speed>
</trkpt>
<trkpt lat="22.314877" lon="103.765831">
<ele>2796.283203</ele>
<time>2011-04-24T02:48:48Z</time>
<desc>lat.=22.314877, lon.=103.765831, Alt.=2796.283203m. Speed=0.216000m/h.</desc>
<speed>0.060000</speed>
</trkpt>
<trkpt lat="22.314873" lon="103.765831">
<ele>2796.470703</ele>
<time>2011-04-24T02:48:53Z</time>
<desc>lat.=22.314873, lon.=103.765831, Alt.=2796.470703m. Speed=0.468000m/h.</desc>
<speed>0.130000</speed>
</trkpt>
<trkpt lat="22.314869" lon="103.765823">
<ele>2796.595703</ele>
<time>2011-04-24T02:48:58Z</time>
<desc>lat.=22.314869, lon.=103.765823, Alt.=2796.595703m. Speed=0.576000m/h.</desc>
<speed>0.160000</speed>
</trkpt>
<trkpt lat="22.314865" lon="103.765800">
<ele>2796.845703</ele>
<time>2011-04-24T02:49:03Z</time>
<desc>lat.=22.314865, lon.=103.765800, Alt.=2796.845703m. Speed=1.332000m/h.</desc>
<speed>0.370000</speed>
</trkpt>
<trkpt lat="22.314863" lon="103.765800">
<ele>2797.345703</ele>
<time>2011-04-24T02:49:08Z</time>
<desc>lat.=22.314863, lon.=103.765800, Alt.=2797.345703m. Speed=0.684000m/h.</desc>
<speed>0.190000</speed>
</trkpt>
<trkpt lat="22.314854" lon="103.765755">
<ele>2797.908203</ele>
<time>2011-04-24T02:49:13Z</time>
<desc>lat.=22.314854, lon.=103.765755, Alt.=2797.908203m. Speed=1.548000m/h.</desc>
<speed>0.430000</speed>
</trkpt>
<trkpt lat="22.314816" lon="103.765717">
<ele>2798.345703</ele>
<time>2011-04-24T02:49:18Z</time>
<desc>lat.=22.314816, lon.=103.765717, Alt.=2798.345703m. Speed=1.728000m/h.</desc>
<speed>0.480000</speed>
</trkpt>
<trkpt lat="22.314804" lon="103.765671">
<ele>2798.595703</ele>
<time>2011-04-24T02:49:23Z</time>
<desc>lat.=22.314804, lon.=103.765671, Alt.=2798.595703m. Speed=1.872000m/h.</desc>
<speed>0.520000</speed>
</trkpt>
<trkpt lat="22.314808" lon="103.765663">
<ele>2799.533203</ele>
<time>2011-04-24T02:49:28Z</time>
<desc>lat.=22.314808, lon.=103.765663, Alt.=2799.533203m. Speed=1.296000m/h.</desc>
<speed>0.360000</speed>
</trkpt>
<trkpt lat="22.314787" lon="103.765656">
<ele>2800.158203</ele>
<time>2011-04-24T02:49:33Z</time>
<desc>lat.=22.314787, lon.=103.765656, Alt.=2800.158203m. Speed=1.332000m/h.</desc>
<speed>0.370000</speed>
</trkpt>
<trkpt lat="22.314768" lon="103.765656">
<ele>2800.408203</ele>
<time>2011-04-24T02:49:38Z</time>
<desc>lat.=22.314768, lon.=103.765656, Alt.=2800.408203m. Speed=1.512000m/h.</desc>
<speed>0.420000</speed>
</trkpt>
<trkpt lat="22.314764" lon="103.765625">
<ele>2800.408203</ele>
<time>2011-04-24T02:49:43Z</time>
<desc>lat.=22.314764, lon.=103.765625, Alt.=2800.408203m. Speed=1.728000m/h.</desc>
<speed>0.480000</speed>
</trkpt>
<trkpt lat="22.314770" lon="103.765610">
<ele>2800.283203</ele>
<time>2011-04-24T02:49:48Z</time>
<desc>lat.=22.314770, lon.=103.765610, Alt.=2800.283203m. Speed=1.404000m/h.</desc>
<speed>0.390000</speed>
</trkpt>
<trkpt lat="22.314770" lon="103.765610">
<ele>2800.220703</ele>
<time>2011-04-24T02:49:53Z</time>
<desc>lat.=22.314770, lon.=103.765610, Alt.=2800.220703m. Speed=1.332000m/h.</desc>
<speed>0.370000</speed>
</trkpt>
<trkpt lat="22.314674" lon="103.765617">
<ele>2799.033203</ele>
<time>2011-04-24T02:49:58Z</time>
<desc>lat.=22.314674, lon.=103.765617, Alt.=2799.033203m. Speed=1.764000m/h.</desc>
<speed>0.490000</speed>
</trkpt>
<trkpt lat="22.314646" lon="103.765625">
<ele>2798.533203</ele>
<time>2011-04-24T02:50:03Z</time>
<desc>lat.=22.314646, lon.=103.765625, Alt.=2798.533203m. Speed=1.800000m/h.</desc>
<speed>0.500000</speed>
</trkpt>
<trkpt lat="22.314615" lon="103.765625">
<ele>2797.970703</ele>
<time>2011-04-24T02:50:08Z</time>
<desc>lat.=22.314615, lon.=103.765625, Alt.=2797.970703m. Speed=1.908000m/h.</desc>
<speed>0.530000</speed>
</trkpt>
<trkpt lat="22.314625" lon="103.765663">
<ele>2797.595703</ele>
<time>2011-04-24T02:50:13Z</time>
<desc>lat.=22.314625, lon.=103.765663, Alt.=2797.595703m. Speed=1.440000m/h.</desc>
<speed>0.400000</speed>
</trkpt>
<trkpt lat="22.314651" lon="103.765701">
<ele>2796.970703</ele>
<time>2011-04-24T02:50:18Z</time>
<desc>lat.=22.314651, lon.=103.765701, Alt.=2796.970703m. Speed=0.972000m/h.</desc>
<speed>0.270000</speed>
</trkpt>
<trkpt lat="22.314632" lon="103.765694">
<ele>2796.845703</ele>
<time>2011-04-24T02:50:23Z</time>
<desc>lat.=22.314632, lon.=103.765694, Alt.=2796.845703m. Speed=0.864000m/h.</desc>
<speed>0.240000</speed>
</trkpt>
<trkpt lat="22.314627" lon="103.765694">
<ele>2796.970703</ele>
<time>2011-04-24T02:50:28Z</time>
<desc>lat.=22.314627, lon.=103.765694, Alt.=2796.970703m. Speed=0.252000m/h.</desc>
<speed>0.070000</speed>
</trkpt>
<trkpt lat="22.314629" lon="103.765694">
<ele>2796.970703</ele>
<time>2011-04-24T02:50:33Z</time>
<desc>lat.=22.314629, lon.=103.765694, Alt.=2796.970703m. Speed=1.080000m/h.</desc>
<speed>0.300000</speed>
</trkpt>
<trkpt lat="22.314695" lon="103.765678">
<ele>2796.033203</ele>
<time>2011-04-24T02:50:38Z</time>
<desc>lat.=22.314695, lon.=103.765678, Alt.=2796.033203m. Speed=1.800000m/h.</desc>
<speed>0.500000</speed>
</trkpt>
<trkpt lat="22.314724" lon="103.765671">
<ele>2795.345703</ele>
<time>2011-04-24T02:50:43Z</time>
<desc>lat.=22.314724, lon.=103.765671, Alt.=2795.345703m. Speed=1.620000m/h.</desc>
<speed>0.450000</speed>
</trkpt>
<trkpt lat="22.314751" lon="103.765663">
<ele>2794.845703</ele>
<time>2011-04-24T02:50:48Z</time>
<desc>lat.=22.314751, lon.=103.765663, Alt.=2794.845703m. Speed=1.656000m/h.</desc>
<speed>0.460000</speed>
</trkpt>
<trkpt lat="22.314764" lon="103.765663">
<ele>2794.783203</ele>
<time>2011-04-24T02:50:53Z</time>
<desc>lat.=22.314764, lon.=103.765663, Alt.=2794.783203m. Speed=1.584000m/h.</desc>
<speed>0.440000</speed>
</trkpt>
<trkpt lat="22.314766" lon="103.765678">
<ele>2794.720703</ele>
<time>2011-04-24T02:50:58Z</time>
<desc>lat.=22.314766, lon.=103.765678, Alt.=2794.720703m. Speed=1.296000m/h.</desc>
<speed>0.360000</speed>
</trkpt>
<trkpt lat="22.314739" lon="103.765678">
<ele>2794.845703</ele>
<time>2011-04-24T02:51:03Z</time>
<desc>lat.=22.314739, lon.=103.765678, Alt.=2794.845703m. Speed=0.612000m/h.</desc>
<speed>0.170000</speed>
</trkpt>
<trkpt lat="22.314743" lon="103.765678">
<ele>2794.845703</ele>
<time>2011-04-24T02:51:08Z</time>
<desc>lat.=22.314743, lon.=103.765678, Alt.=2794.845703m. Speed=0.108000m/h.</desc>
<speed>0.030000</speed>
</trkpt>
<trkpt lat="22.314743" lon="103.765671">
<ele>2794.908203</ele>
<time>2011-04-24T02:51:13Z</time>
<desc>lat.=22.314743, lon.=103.765671, Alt.=2794.908203m. Speed=0.432000m/h.</desc>
<speed>0.120000</speed>
</trkpt>
<trkpt lat="22.314743" lon="103.765663">
<ele>2794.970703</ele>
<time>2011-04-24T02:51:18Z</time>
<desc>lat.=22.314743, lon.=103.765663, Alt.=2794.970703m. Speed=0.792000m/h.</desc>
<speed>0.220000</speed>
</trkpt>
<trkpt lat="22.314726" lon="103.765648">
<ele>2795.158203</ele>
<time>2011-04-24T02:51:23Z</time>
<desc>lat.=22.314726, lon.=103.765648, Alt.=2795.158203m. Speed=1.152000m/h.</desc>
<speed>0.320000</speed>
</trkpt>
<trkpt lat="22.314739" lon="103.765656">
<ele>2795.470703</ele>
<time>2011-04-24T02:51:28Z</time>
<desc>lat.=22.314739, lon.=103.765656, Alt.=2795.470703m. Speed=0.792000m/h.</desc>
<speed>0.220000</speed>
</trkpt>
<trkpt lat="22.314734" lon="103.765648">
<ele>2795.533203</ele>
<time>2011-04-24T02:51:33Z</time>
<desc>lat.=22.314734, lon.=103.765648, Alt.=2795.533203m. Speed=0.612000m/h.</desc>
<speed>0.170000</speed>
</trkpt>
<trkpt lat="22.314728" lon="103.765648">
<ele>2795.595703</ele>
<time>2011-04-24T02:51:38Z</time>
<desc>lat.=22.314728, lon.=103.765648, Alt.=2795.595703m. Speed=0.648000m/h.</desc>
<speed>0.180000</speed>
</trkpt>
<trkpt lat="22.314720" lon="103.765648">
<ele>2795.658203</ele>
<time>2011-04-24T02:51:43Z</time>
<desc>lat.=22.314720, lon.=103.765648, Alt.=2795.658203m. Speed=0.252000m/h.</desc>
<speed>0.070000</speed>
</trkpt>
<trkpt lat="22.314720" lon="103.765656">
<ele>2795.720703</ele>
<time>2011-04-24T02:51:48Z</time>
<desc>lat.=22.314720, lon.=103.765656, Alt.=2795.720703m. Speed=0.720000m/h.</desc>
<speed>0.200000</speed>
</trkpt>
<trkpt lat="22.314711" lon="103.765656">
<ele>2795.783203</ele>
<time>2011-04-24T02:51:53Z</time>
<desc>lat.=22.314711, lon.=103.765656, Alt.=2795.783203m. Speed=0.612000m/h.</desc>
<speed>0.170000</speed>
</trkpt>
<trkpt lat="22.314703" lon="103.765656">
<ele>2795.845703</ele>
<time>2011-04-24T02:51:58Z</time>
<desc>lat.=22.314703, lon.=103.765656, Alt.=2795.845703m. Speed=0.648000m/h.</desc>
<speed>0.180000</speed>
</trkpt>
<trkpt lat="22.314697" lon="103.765625">
<ele>2795.720703</ele>
<time>2011-04-24T02:52:03Z</time>
<desc>lat.=22.314697, lon.=103.765625, Alt.=2795.720703m. Speed=1.224000m/h.</desc>
<speed>0.340000</speed>
</trkpt>
<trkpt lat="22.314716" lon="103.765572">
<ele>2795.220703</ele>
<time>2011-04-24T02:52:08Z</time>
<desc>lat.=22.314716, lon.=103.765572, Alt.=2795.220703m. Speed=1.080000m/h.</desc>
<speed>0.300000</speed>
</trkpt>
<trkpt lat="22.314713" lon="103.765556">
<ele>2794.970703</ele>
<time>2011-04-24T02:52:13Z</time>
<desc>lat.=22.314713, lon.=103.765556, Alt.=2794.970703m. Speed=0.936000m/h.</desc>
<speed>0.260000</speed>
</trkpt>
<trkpt lat="22.314707" lon="103.765556">
<ele>2794.970703</ele>
<time>2011-04-24T02:52:18Z</time>
<desc>lat.=22.314707, lon.=103.765556, Alt.=2794.970703m. Speed=0.900000m/h.</desc>
<speed>0.250000</speed>
</trkpt>
<trkpt lat="22.314690" lon="103.765541">
<ele>2795.033203</ele>
<time>2011-04-24T02:52:23Z</time>
<desc>lat.=22.314690, lon.=103.765541, Alt.=2795.033203m. Speed=1.188000m/h.</desc>
<speed>0.330000</speed>
</trkpt>
<trkpt lat="22.314634" lon="103.765549">
<ele>2794.845703</ele>
<time>2011-04-24T02:52:28Z</time>
<desc>lat.=22.314634, lon.=103.765549, Alt.=2794.845703m. Speed=1.404000m/h.</desc>
<speed>0.390000</speed>
</trkpt>
<trkpt lat="22.314611" lon="103.765549">
<ele>2794.658203</ele>
<time>2011-04-24T02:52:33Z</time>
<desc>lat.=22.314611, lon.=103.765549, Alt.=2794.658203m. Speed=1.296000m/h.</desc>
<speed>0.360000</speed>
</trkpt>
<trkpt lat="22.314596" lon="103.765564">
<ele>2794.658203</ele>
<time>2011-04-24T02:52:38Z</time>
<desc>lat.=22.314596, lon.=103.765564, Alt.=2794.658203m. Speed=0.900000m/h.</desc>
<speed>0.250000</speed>
</trkpt>
<trkpt lat="22.314579" lon="103.765572">
<ele>2794.658203</ele>
<time>2011-04-24T02:52:43Z</time>
<desc>lat.=22.314579, lon.=103.765572, Alt.=2794.658203m. Speed=0.828000m/h.</desc>
<speed>0.230000</speed>
</trkpt>
<trkpt lat="22.314568" lon="103.765572">
<ele>2794.720703</ele>
<time>2011-04-24T02:52:48Z</time>
<desc>lat.=22.314568, lon.=103.765572, Alt.=2794.720703m. Speed=1.080000m/h.</desc>
<speed>0.300000</speed>
</trkpt>
<trkpt lat="22.314583" lon="103.765533">
<ele>2794.470703</ele>
<time>2011-04-24T02:52:53Z</time>
<desc>lat.=22.314583, lon.=103.765533, Alt.=2794.470703m. Speed=0.936000m/h.</desc>
<speed>0.260000</speed>
</trkpt>
<trkpt lat="22.314583" lon="103.765503">
<ele>2794.408203</ele>
<time>2011-04-24T02:52:58Z</time>
<desc>lat.=22.314583, lon.=103.765503, Alt.=2794.408203m. Speed=1.548000m/h.</desc>
<speed>0.430000</speed>
</trkpt>
<trkpt lat="22.314583" lon="103.765495">
<ele>2794.220703</ele>
<time>2011-04-24T02:53:03Z</time>
<desc>lat.=22.314583, lon.=103.765495, Alt.=2794.220703m. Speed=0.972000m/h.</desc>
<speed>0.270000</speed>
</trkpt>
<trkpt lat="22.314592" lon="103.765488">
<ele>2794.158203</ele>
<time>2011-04-24T02:53:08Z</time>
<desc>lat.=22.314592, lon.=103.765488, Alt.=2794.158203m. Speed=0.756000m/h.</desc>
<speed>0.210000</speed>
</trkpt>
<trkpt lat="22.314638" lon="103.765503">
<ele>2793.658203</ele>
<time>2011-04-24T02:53:13Z</time>
<desc>lat.=22.314638, lon.=103.765503, Alt.=2793.658203m. Speed=1.332000m/h.</desc>
<speed>0.370000</speed>
</trkpt>
<trkpt lat="22.314659" lon="103.765526">
<ele>2793.158203</ele>
<time>2011-04-24T02:53:18Z</time>
<desc>lat.=22.314659, lon.=103.765526, Alt.=2793.158203m. Speed=1.476000m/h.</desc>
<speed>0.410000</speed>
</trkpt>
<trkpt lat="22.314671" lon="103.765549">
<ele>2792.970703</ele>
<time>2011-04-24T02:53:23Z</time>
<desc>lat.=22.314671, lon.=103.765549, Alt.=2792.970703m. Speed=1.512000m/h.</desc>
<speed>0.420000</speed>
</trkpt>
<trkpt lat="22.314672" lon="103.765518">
<ele>2792.533203</ele>
<time>2011-04-24T02:53:28Z</time>
<desc>lat.=22.314672, lon.=103.765518, Alt.=2792.533203m. Speed=0.972000m/h.</desc>
<speed>0.270000</speed>
</trkpt>
<trkpt lat="22.314661" lon="103.765518">
<ele>2792.470703</ele>
<time>2011-04-24T02:53:33Z</time>
<desc>lat.=22.314661, lon.=103.765518, Alt.=2792.470703m. Speed=0.792000m/h.</desc>
<speed>0.220000</speed>
</trkpt>
<trkpt lat="22.314651" lon="103.765511">
<ele>2792.220703</ele>
<time>2011-04-24T02:53:38Z</time>
<desc>lat.=22.314651, lon.=103.765511, Alt.=2792.220703m. Speed=0.936000m/h.</desc>
<speed>0.260000</speed>
</trkpt>
<trkpt lat="22.314585" lon="103.765480">
<ele>2792.345703</ele>
<time>2011-04-24T02:53:43Z</time>
<desc>lat.=22.314585, lon.=103.765480, Alt.=2792.345703m. Speed=1.440000m/h.</desc>
<speed>0.400000</speed>
</trkpt>
<trkpt lat="22.314535" lon="103.765472">
<ele>2792.158203</ele>
<time>2011-04-24T02:53:48Z</time>
<desc>lat.=22.314535, lon.=103.765472, Alt.=2792.158203m. Speed=1.512000m/h.</desc>
<speed>0.420000</speed>
</trkpt>
<trkpt lat="22.314533" lon="103.765472">
<ele>2792.158203</ele>
<time>2011-04-24T02:53:53Z</time>
<desc>lat.=22.314533, lon.=103.765472, Alt.=2792.158203m. Speed=0.972000m/h.</desc>
<speed>0.270000</speed>
</trkpt>
<trkpt lat="22.314543" lon="103.765472">
<ele>2792.220703</ele>
<time>2011-04-24T02:53:58Z</time>
<desc>lat.=22.314543, lon.=103.765472, Alt.=2792.220703m. Speed=0.432000m/h.</desc>
<speed>0.120000</speed>
</trkpt>
<trkpt lat="22.314543" lon="103.765465">
<ele>2792.220703</ele>
<time>2011-04-24T02:54:03Z</time>
<desc>lat.=22.314543, lon.=103.765465, Alt.=2792.220703m. Speed=0.288000m/h.</desc>
<speed>0.080000</speed>
</trkpt>
<trkpt lat="22.314545" lon="103.765472">
<ele>2792.158203</ele>
<time>2011-04-24T02:54:08Z</time>
<desc>lat.=22.314545, lon.=103.765472, Alt.=2792.158203m. Speed=0.468000m/h.</desc>
<speed>0.130000</speed>
</trkpt>
<trkpt lat="22.314543" lon="103.765480">
<ele>2792.158203</ele>
<time>2011-04-24T02:54:13Z</time>
<desc>lat.=22.314543, lon.=103.765480, Alt.=2792.158203m. Speed=1.008000m/h.</desc>
<speed>0.280000</speed>
</trkpt>
<trkpt lat="22.314556" lon="103.765518">
<ele>2791.970703</ele>
<time>2011-04-24T02:54:18Z</time>
<desc>lat.=22.314556, lon.=103.765518, Alt.=2791.970703m. Speed=1.296000m/h.</desc>
<speed>0.360000</speed>
</trkpt>
<trkpt lat="22.314583" lon="103.765541">
<ele>2791.908203</ele>
<time>2011-04-24T02:54:23Z</time>
<desc>lat.=22.314583, lon.=103.765541, Alt.=2791.908203m. Speed=1.188000m/h.</desc>
<speed>0.330000</speed>
</trkpt>
<trkpt lat="22.314590" lon="103.765526">
<ele>2792.095703</ele>
<time>2011-04-24T02:54:28Z</time>
<desc>lat.=22.314590, lon.=103.765526, Alt.=2792.095703m. Speed=0.828000m/h.</desc>
<speed>0.230000</speed>
</trkpt>
<trkpt lat="22.314585" lon="103.765518">
<ele>2792.158203</ele>
<time>2011-04-24T02:54:33Z</time>
<desc>lat.=22.314585, lon.=103.765518, Alt.=2792.158203m. Speed=0.612000m/h.</desc>
<speed>0.170000</speed>
</trkpt>
<trkpt lat="22.314590" lon="103.765518">
<ele>2792.158203</ele>
<time>2011-04-24T02:54:38Z</time>
<desc>lat.=22.314590, lon.=103.765518, Alt.=2792.158203m. Speed=0.144000m/h.</desc>
<speed>0.040000</speed>
</trkpt>
<trkpt lat="22.314592" lon="103.765526">
<ele>2792.158203</ele>
<time>2011-04-24T02:54:43Z</time>
<desc>lat.=22.314592, lon.=103.765526, Alt.=2792.158203m. Speed=0.180000m/h.</desc>
<speed>0.050000</speed>
</trkpt>
<trkpt lat="22.314587" lon="103.765526">
<ele>2792.158203</ele>
<time>2011-04-24T02:54:48Z</time>
<desc>lat.=22.314587, lon.=103.765526, Alt.=2792.158203m. Speed=0.540000m/h.</desc>
<speed>0.150000</speed>
</trkpt>
<trkpt lat="22.314577" lon="103.765533">
<ele>2792.158203</ele>
<time>2011-04-24T02:54:53Z</time>
<desc>lat.=22.314577, lon.=103.765533, Alt.=2792.158203m. Speed=1.116000m/h.</desc>
<speed>0.310000</speed>
</trkpt>
<trkpt lat="22.314505" lon="103.765572">
<ele>2792.658203</ele>
<time>2011-04-24T02:54:58Z</time>
<desc>lat.=22.314505, lon.=103.765572, Alt.=2792.658203m. Speed=1.548000m/h.</desc>
<speed>0.430000</speed>
</trkpt>
<trkpt lat="22.314465" lon="103.765556">
<ele>2793.095703</ele>
<time>2011-04-24T02:55:03Z</time>
<desc>lat.=22.314465, lon.=103.765556, Alt.=2793.095703m. Speed=1.584000m/h.</desc>
<speed>0.440000</speed>
</trkpt>
<trkpt lat="22.314487" lon="103.765518">
<ele>2792.783203</ele>
<time>2011-04-24T02:55:08Z</time>
<desc>lat.=22.314487, lon.=103.765518, Alt.=2792.783203m. Speed=0.612000m/h.</desc>
<speed>0.170000</speed>
</trkpt>
<trkpt lat="22.314484" lon="103.765503">
<ele>2792.845703</ele>
<time>2011-04-24T02:55:13Z</time>
<desc>lat.=22.314484, lon.=103.765503, Alt.=2792.845703m. Speed=0.432000m/h.</desc>
<speed>0.120000</speed>
</trkpt>
<trkpt lat="22.314478" lon="103.765495">
<ele>2792.908203</ele>
<time>2011-04-24T02:55:18Z</time>
<desc>lat.=22.314478, lon.=103.765495, Alt.=2792.908203m. Speed=0.936000m/h.</desc>
<speed>0.260000</speed>
</trkpt>
<trkpt lat="22.314474" lon="103.765488">
<ele>2792.970703</ele>
<time>2011-04-24T02:55:23Z</time>
<desc>lat.=22.314474, lon.=103.765488, Alt.=2792.970703m. Speed=0.684000m/h.</desc>
<speed>0.190000</speed>
</trkpt>
<trkpt lat="22.314468" lon="103.765472">
<ele>2793.033203</ele>
<time>2011-04-24T02:55:28Z</time>
<desc>lat.=22.314468, lon.=103.765472, Alt.=2793.033203m. Speed=0.756000m/h.</desc>
<speed>0.210000</speed>
</trkpt>
<trkpt lat="22.314461" lon="103.765472">
<ele>2793.095703</ele>
<time>2011-04-24T02:55:33Z</time>
<desc>lat.=22.314461, lon.=103.765472, Alt.=2793.095703m. Speed=0.504000m/h.</desc>
<speed>0.140000</speed>
</trkpt>
<trkpt lat="22.314457" lon="103.765480">
<ele>2793.158203</ele>
<time>2011-04-24T02:55:38Z</time>
<desc>lat.=22.314457, lon.=103.765480, Alt.=2793.158203m. Speed=0.432000m/h.</desc>
<speed>0.120000</speed>
</trkpt>
<trkpt lat="22.314455" lon="103.765488">
<ele>2793.283203</ele>
<time>2011-04-24T02:55:43Z</time>
<desc>lat.=22.314455, lon.=103.765488, Alt.=2793.283203m. Speed=0.468000m/h.</desc>
<speed>0.130000</speed>
</trkpt>
<trkpt lat="22.314459" lon="103.765495">
<ele>2793.345703</ele>
<time>2011-04-24T02:55:48Z</time>
<desc>lat.=22.314459, lon.=103.765495, Alt.=2793.345703m. Speed=0.756000m/h.</desc>
<speed>0.210000</speed>
</trkpt>
<trkpt lat="22.314466" lon="103.765495">
<ele>2793.408203</ele>
<time>2011-04-24T02:55:53Z</time>
<desc>lat.=22.314466, lon.=103.765495, Alt.=2793.408203m. Speed=0.432000m/h.</desc>
<speed>0.120000</speed>
</trkpt>
<trkpt lat="22.314470" lon="103.765503">
<ele>2793.470703</ele>
<time>2011-04-24T02:55:58Z</time>
<desc>lat.=22.314470, lon.=103.765503, Alt.=2793.470703m. Speed=0.396000m/h.</desc>
<speed>0.110000</speed>
</trkpt>
<trkpt lat="22.314476" lon="103.765495">
<ele>2793.533203</ele>
<time>2011-04-24T02:56:03Z</time>
<desc>lat.=22.314476, lon.=103.765495, Alt.=2793.533203m. Speed=0.792000m/h.</desc>
<speed>0.220000</speed>
</trkpt>
<trkpt lat="22.314484" lon="103.765480">
<ele>2793.595703</ele>
<time>2011-04-24T02:56:08Z</time>
<desc>lat.=22.314484, lon.=103.765480, Alt.=2793.595703m. Speed=1.224000m/h.</desc>
<speed>0.340000</speed>
</trkpt>
<trkpt lat="22.314524" lon="103.765480">
<ele>2793.908203</ele>
<time>2011-04-24T02:56:13Z</time>
<desc>lat.=22.314524, lon.=103.765480, Alt.=2793.908203m. Speed=1.476000m/h.</desc>
<speed>0.410000</speed>
</trkpt>
<trkpt lat="22.314602" lon="103.765495">
<ele>2794.220703</ele>
<time>2011-04-24T02:56:18Z</time>
<desc>lat.=22.314602, lon.=103.765495, Alt.=2794.220703m. Speed=2.160000m/h.</desc>
<speed>0.600000</speed>
</trkpt>
<trkpt lat="22.314674" lon="103.765503">
<ele>2794.533203</ele>
<time>2011-04-24T02:56:23Z</time>
<desc>lat.=22.314674, lon.=103.765503, Alt.=2794.533203m. Speed=2.448000m/h.</desc>
<speed>0.680000</speed>
</trkpt>
<trkpt lat="22.314751" lon="103.765549">
<ele>2794.658203</ele>
<time>2011-04-24T02:56:28Z</time>
<desc>lat.=22.314751, lon.=103.765549, Alt.=2794.658203m. Speed=2.664000m/h.</desc>
<speed>0.740000</speed>
</trkpt>
<trkpt lat="22.314806" lon="103.765625">
<ele>2792.658203</ele>
<time>2011-04-24T02:56:33Z</time>
<desc>lat.=22.314806, lon.=103.765625, Alt.=2792.658203m. Speed=2.664000m/h.</desc>
<speed>0.740000</speed>
</trkpt>
<trkpt lat="22.314775" lon="103.765701">
<ele>2792.970703</ele>
<time>2011-04-24T02:56:38Z</time>
<desc>lat.=22.314775, lon.=103.765701, Alt.=2792.970703m. Speed=1.800000m/h.</desc>
<speed>0.500000</speed>
</trkpt>
<trkpt lat="22.314785" lon="103.765709">
<ele>2793.470703</ele>
<time>2011-04-24T02:56:43Z</time>
<desc>lat.=22.314785, lon.=103.765709, Alt.=2793.470703m. Speed=0.864000m/h.</desc>
<speed>0.240000</speed>
</trkpt>
<trkpt lat="22.314783" lon="103.765724">
<ele>2793.720703</ele>
<time>2011-04-24T02:56:48Z</time>
<desc>lat.=22.314783, lon.=103.765724, Alt.=2793.720703m. Speed=0.864000m/h.</desc>
<speed>0.240000</speed>
</trkpt>
<trkpt lat="22.314775" lon="103.765732">
<ele>2793.908203</ele>
<time>2011-04-24T02:56:53Z</time>
<desc>lat.=22.314775, lon.=103.765732, Alt.=2793.908203m. Speed=0.936000m/h.</desc>
<speed>0.260000</speed>
</trkpt>
<trkpt lat="22.314779" lon="103.765732">
<ele>2793.783203</ele>
<time>2011-04-24T02:56:58Z</time>
<desc>lat.=22.314779, lon.=103.765732, Alt.=2793.783203m. Speed=1.296000m/h.</desc>
<speed>0.360000</speed>
</trkpt>
<trkpt lat="22.314737" lon="103.765747">
<ele>2793.595703</ele>
<time>2011-04-24T02:57:03Z</time>
<desc>lat.=22.314737, lon.=103.765747, Alt.=2793.595703m. Speed=1.728000m/h.</desc>
<speed>0.480000</speed>
</trkpt>
<trkpt lat="22.314705" lon="103.765785">
<ele>2793.220703</ele>
<time>2011-04-24T02:57:08Z</time>
<desc>lat.=22.314705, lon.=103.765785, Alt.=2793.220703m. Speed=2.052000m/h.</desc>
<speed>0.570000</speed>
</trkpt>
<trkpt lat="22.314697" lon="103.765785">
<ele>2793.158203</ele>
<time>2011-04-24T02:57:13Z</time>
<desc>lat.=22.314697, lon.=103.765785, Alt.=2793.158203m. Speed=1.692000m/h.</desc>
<speed>0.470000</speed>
</trkpt>
<trkpt lat="22.314686" lon="103.765778">
<ele>2793.095703</ele>
<time>2011-04-24T02:57:18Z</time>
<desc>lat.=22.314686, lon.=103.765778, Alt.=2793.095703m. Speed=1.620000m/h.</desc>
<speed>0.450000</speed>
</trkpt>
<trkpt lat="22.314688" lon="103.765755">
<ele>2792.845703</ele>
<time>2011-04-24T02:57:23Z</time>
<desc>lat.=22.314688, lon.=103.765755, Alt.=2792.845703m. Speed=1.512000m/h.</desc>
<speed>0.420000</speed>
</trkpt>
<trkpt lat="22.314651" lon="103.765747">
<ele>2792.470703</ele>
<time>2011-04-24T02:57:28Z</time>
<desc>lat.=22.314651, lon.=103.765747, Alt.=2792.470703m. Speed=1.728000m/h.</desc>
<speed>0.480000</speed>
</trkpt>
<trkpt lat="22.314627" lon="103.765762">
<ele>2792.220703</ele>
<time>2011-04-24T02:57:33Z</time>
<desc>lat.=22.314627, lon.=103.765762, Alt.=2792.220703m. Speed=1.188000m/h.</desc>
<speed>0.330000</speed>
</trkpt>
<trkpt lat="22.314608" lon="103.765755">
<ele>2791.845703</ele>
<time>2011-04-24T02:57:38Z</time>
<desc>lat.=22.314608, lon.=103.765755, Alt.=2791.845703m. Speed=0.864000m/h.</desc>
<speed>0.240000</speed>
</trkpt>
<trkpt lat="22.314585" lon="103.765678">
<ele>2791.783203</ele>
<time>2011-04-24T02:57:43Z</time>
<desc>lat.=22.314585, lon.=103.765678, Alt.=2791.783203m. Speed=2.160000m/h.</desc>
<speed>0.600000</speed>
</trkpt>
<trkpt lat="22.314608" lon="103.765633">
<ele>2791.345703</ele>
<time>2011-04-24T02:57:48Z</time>
<desc>lat.=22.314608, lon.=103.765633, Alt.=2791.345703m. Speed=2.052000m/h.</desc>
<speed>0.570000</speed>
</trkpt>
<trkpt lat="22.314585" lon="103.765587">
<ele>2790.720703</ele>
<time>2011-04-24T02:57:53Z</time>
<desc>lat.=22.314585, lon.=103.765587, Alt.=2790.720703m. Speed=2.160000m/h.</desc>
<speed>0.600000</speed>
</trkpt>
<trkpt lat="22.314590" lon="103.765572">
<ele>2790.595703</ele>
<time>2011-04-24T02:57:58Z</time>
<desc>lat.=22.314590, lon.=103.765572, Alt.=2790.595703m. Speed=1.008000m/h.</desc>
<speed>0.280000</speed>
</trkpt>
<trkpt lat="22.314598" lon="103.765587">
<ele>2790.595703</ele>
<time>2011-04-24T02:58:03Z</time>
<desc>lat.=22.314598, lon.=103.765587, Alt.=2790.595703m. Speed=0.720000m/h.</desc>
<speed>0.200000</speed>
</trkpt>
<trkpt lat="22.314587" lon="103.765587">
<ele>2790.720703</ele>
<time>2011-04-24T02:58:08Z</time>
<desc>lat.=22.314587, lon.=103.765587, Alt.=2790.720703m. Speed=1.152000m/h.</desc>
<speed>0.320000</speed>
</trkpt>
<trkpt lat="22.314564" lon="103.765556">
<ele>2790.845703</ele>
<time>2011-04-24T02:58:13Z</time>
<desc>lat.=22.314564, lon.=103.765556, Alt.=2790.845703m. Speed=1.440000m/h.</desc>
<speed>0.400000</speed>
</trkpt>
<trkpt lat="22.314499" lon="103.765511">
<ele>2790.783203</ele>
<time>2011-04-24T02:58:18Z</time>
<desc>lat.=22.314499, lon.=103.765511, Alt.=2790.783203m. Speed=2.664000m/h.</desc>
<speed>0.740000</speed>
</trkpt>
<trkpt lat="22.314447" lon="103.765457">
<ele>2790.783203</ele>
<time>2011-04-24T02:58:23Z</time>
<desc>lat.=22.314447, lon.=103.765457, Alt.=2790.783203m. Speed=4.032000m/h.</desc>
<speed>1.120000</speed>
</trkpt>
<trkpt lat="22.314411" lon="103.765404">
<ele>2790.720703</ele>
<time>2011-04-24T02:58:28Z</time>
<desc>lat.=22.314411, lon.=103.765404, Alt.=2790.720703m. Speed=3.780000m/h.</desc>
<speed>1.050000</speed>
</trkpt>
<trkpt lat="22.314432" lon="103.765419">
<ele>2790.595703</ele>
<time>2011-04-24T02:58:33Z</time>
<desc>lat.=22.314432, lon.=103.765419, Alt.=2790.595703m. Speed=0.576000m/h.</desc>
<speed>0.160000</speed>
</trkpt>
<trkpt lat="22.314436" lon="103.765442">
<ele>2790.595703</ele>
<time>2011-04-24T02:58:38Z</time>
<desc>lat.=22.314436, lon.=103.765442, Alt.=2790.595703m. Speed=0.396000m/h.</desc>
<speed>0.110000</speed>
</trkpt>
<trkpt lat="22.314440" lon="103.765442">
<ele>2790.658203</ele>
<time>2011-04-24T02:58:43Z</time>
<desc>lat.=22.314440, lon.=103.765442, Alt.=2790.658203m. Speed=0.432000m/h.</desc>
<speed>0.120000</speed>
</trkpt>
<trkpt lat="22.314438" lon="103.765450">
<ele>2790.783203</ele>
<time>2011-04-24T02:58:48Z</time>
<desc>lat.=22.314438, lon.=103.765450, Alt.=2790.783203m. Speed=0.792000m/h.</desc>
<speed>0.220000</speed>
</trkpt>
<trkpt lat="22.314413" lon="103.765518">
<ele>2791.158203</ele>
<time>2011-04-24T02:58:53Z</time>
<desc>lat.=22.314413, lon.=103.765518, Alt.=2791.158203m. Speed=1.476000m/h.</desc>
<speed>0.410000</speed>
</trkpt>
<trkpt lat="22.314407" lon="103.765579">
<ele>2791.720703</ele>
<time>2011-04-24T02:58:58Z</time>
<desc>lat.=22.314407, lon.=103.765579, Alt.=2791.720703m. Speed=1.512000m/h.</desc>
<speed>0.420000</speed>
</trkpt>
<trkpt lat="22.314405" lon="103.765610">
<ele>2792.283203</ele>
<time>2011-04-24T02:59:03Z</time>
<desc>lat.=22.314405, lon.=103.765610, Alt.=2792.283203m. Speed=1.404000m/h.</desc>
<speed>0.390000</speed>
</trkpt>
<trkpt lat="22.314425" lon="103.765678">
<ele>2792.783203</ele>
<time>2011-04-24T02:59:08Z</time>
<desc>lat.=22.314425, lon.=103.765678, Alt.=2792.783203m. Speed=1.584000m/h.</desc>
<speed>0.440000</speed>
</trkpt>
<trkpt lat="22.314426" lon="103.765678">
<ele>2793.220703</ele>
<time>2011-04-24T02:59:13Z</time>
<desc>lat.=22.314426, lon.=103.765678, Alt.=2793.220703m. Speed=0.900000m/h.</desc>
<speed>0.250000</speed>
</trkpt>
<trkpt lat="22.314417" lon="103.765678">
<ele>2793.470703</ele>
<time>2011-04-24T02:59:18Z</time>
<desc>lat.=22.314417, lon.=103.765678, Alt.=2793.470703m. Speed=0.756000m/h.</desc>
<speed>0.210000</speed>
</trkpt>
<trkpt lat="22.314415" lon="103.765686">
<ele>2793.595703</ele>
<time>2011-04-24T02:59:23Z</time>
<desc>lat.=22.314415, lon.=103.765686, Alt.=2793.595703m. Speed=0.828000m/h.</desc>
<speed>0.230000</speed>
</trkpt>
<trkpt lat="22.314407" lon="103.765701">
<ele>2793.658203</ele>
<time>2011-04-24T02:59:28Z</time>
<desc>lat.=22.314407, lon.=103.765701, Alt.=2793.658203m. Speed=1.116000m/h.</desc>
<speed>0.310000</speed>
</trkpt>
<trkpt lat="22.314413" lon="103.765709">
<ele>2793.658203</ele>
<time>2011-04-24T02:59:33Z</time>
<desc>lat.=22.314413, lon.=103.765709, Alt.=2793.658203m. Speed=1.152000m/h.</desc>
<speed>0.320000</speed>
</trkpt>
<trkpt lat="22.314423" lon="103.765678">
<ele>2793.658203</ele>
<time>2011-04-24T02:59:38Z</time>
<desc>lat.=22.314423, lon.=103.765678, Alt.=2793.658203m. Speed=0.396000m/h.</desc>
<speed>0.110000</speed>
</trkpt>
<trkpt lat="22.314421" lon="103.765678">
<ele>2793.720703</ele>
<time>2011-04-24T02:59:43Z</time>
<desc>lat.=22.314421, lon.=103.765678, Alt.=2793.720703m. Speed=0.756000m/h.</desc>
<speed>0.210000</speed>
</trkpt>
<trkpt lat="22.314423" lon="103.765663">
<ele>2793.845703</ele>
<time>2011-04-24T02:59:48Z</time>
<desc>lat.=22.314423, lon.=103.765663, Alt.=2793.845703m. Speed=0.936000m/h.</desc>
<speed>0.260000</speed>
</trkpt>
<trkpt lat="22.314468" lon="103.765587">
<ele>2791.470703</ele>
<time>2011-04-24T02:59:53Z</time>
<desc>lat.=22.314468, lon.=103.765587, Alt.=2791.470703m. Speed=2.088000m/h.</desc>
<speed>0.580000</speed>
</trkpt>
<trkpt lat="22.314487" lon="103.765572">
<ele>2790.283203</ele>
<time>2011-04-24T02:59:58Z</time>
<desc>lat.=22.314487, lon.=103.765572, Alt.=2790.283203m. Speed=1.296000m/h.</desc>
<speed>0.360000</speed>
</trkpt>
<trkpt lat="22.314459" lon="103.765602">
<ele>2789.908203</ele>
<time>2011-04-24T03:00:03Z</time>
<desc>lat.=22.314459, lon.=103.765602, Alt.=2789.908203m. Speed=1.836000m/h.</desc>
<speed>0.510000</speed>
</trkpt>
<trkpt lat="22.314426" lon="103.765617">
<ele>2790.658203</ele>
<time>2011-04-24T03:00:08Z</time>
<desc>lat.=22.314426, lon.=103.765617, Alt.=2790.658203m. Speed=1.512000m/h.</desc>
<speed>0.420000</speed>
</trkpt>
<trkpt lat="22.314419" lon="103.765617">
<ele>2790.783203</ele>
<time>2011-04-24T03:00:13Z</time>
<desc>lat.=22.314419, lon.=103.765617, Alt.=2790.783203m. Speed=0.936000m/h.</desc>
<speed>0.260000</speed>
</trkpt>
<trkpt lat="22.314421" lon="103.765640">
<ele>2790.595703</ele>
<time>2011-04-24T03:00:18Z</time>
<desc>lat.=22.314421, lon.=103.765640, Alt.=2790.595703m. Speed=0.360000m/h.</desc>
<speed>0.100000</speed>
</trkpt>
<trkpt lat="22.314417" lon="103.765633">
<ele>2790.595703</ele>
<time>2011-04-24T03:00:23Z</time>
<desc>lat.=22.314417, lon.=103.765633, Alt.=2790.595703m. Speed=0.252000m/h.</desc>
<speed>0.070000</speed>
</trkpt>
<trkpt lat="22.314415" lon="103.765633">
<ele>2790.533203</ele>
<time>2011-04-24T03:00:28Z</time>
<desc>lat.=22.314415, lon.=103.765633, Alt.=2790.533203m. Speed=0.540000m/h.</desc>
<speed>0.150000</speed>
</trkpt>
<trkpt lat="22.314415" lon="103.765625">
<ele>2790.533203</ele>
<time>2011-04-24T03:00:33Z</time>
<desc>lat.=22.314415, lon.=103.765625, Alt.=2790.533203m. Speed=0.036000m/h.</desc>
<speed>0.010000</speed>
</trkpt>
<trkpt lat="22.314421" lon="103.765625">
<ele>2790.533203</ele>
<time>2011-04-24T03:00:38Z</time>
<desc>lat.=22.314421, lon.=103.765625, Alt.=2790.533203m. Speed=0.468000m/h.</desc>
<speed>0.130000</speed>
</trkpt>
<trkpt lat="22.314428" lon="103.765633">
<ele>2790.533203</ele>
<time>2011-04-24T03:00:43Z</time>
<desc>lat.=22.314428, lon.=103.765633, Alt.=2790.533203m. Speed=0.900000m/h.</desc>
<speed>0.250000</speed>
</trkpt>
<trkpt lat="22.314478" lon="103.765610">
<ele>2790.658203</ele>
<time>2011-04-24T03:00:48Z</time>
<desc>lat.=22.314478, lon.=103.765610, Alt.=2790.658203m. Speed=1.944000m/h.</desc>
<speed>0.540000</speed>
</trkpt>
<trkpt lat="22.314489" lon="103.765610">
<ele>2790.908203</ele>
<time>2011-04-24T03:00:53Z</time>
<desc>lat.=22.314489, lon.=103.765610, Alt.=2790.908203m. Speed=1.404000m/h.</desc>
<speed>0.390000</speed>
</trkpt>
<trkpt lat="22.314455" lon="103.765594">
<ele>2791.095703</ele>
<time>2011-04-24T03:00:58Z</time>
<desc>lat.=22.314455, lon.=103.765594, Alt.=2791.095703m. Speed=0.900000m/h.</desc>
<speed>0.250000</speed>
</trkpt>
<trkpt lat="22.314442" lon="103.765587">
<ele>2791.220703</ele>
<time>2011-04-24T03:01:03Z</time>
<desc>lat.=22.314442, lon.=103.765587, Alt.=2791.220703m. Speed=0.720000m/h.</desc>
<speed>0.200000</speed>
</trkpt>
<trkpt lat="22.314447" lon="103.765572">
<ele>2791.220703</ele>
<time>2011-04-24T03:01:08Z</time>
<desc>lat.=22.314447, lon.=103.765572, Alt.=2791.220703m. Speed=0.936000m/h.</desc>
<speed>0.260000</speed>
</trkpt>
<trkpt lat="22.314455" lon="103.765564">
<ele>2791.220703</ele>
<time>2011-04-24T03:01:13Z</time>
<desc>lat.=22.314455, lon.=103.765564, Alt.=2791.220703m. Speed=1.116000m/h.</desc>
<speed>0.310000</speed>
</trkpt>
<trkpt lat="22.314508" lon="103.765541">
<ele>2791.408203</ele>
<time>2011-04-24T03:01:18Z</time>
<desc>lat.=22.314508, lon.=103.765541, Alt.=2791.408203m. Speed=1.512000m/h.</desc>
<speed>0.420000</speed>
</trkpt>
<trkpt lat="22.314543" lon="103.765518">
<ele>2791.533203</ele>
<time>2011-04-24T03:01:23Z</time>
<desc>lat.=22.314543, lon.=103.765518, Alt.=2791.533203m. Speed=1.656000m/h.</desc>
<speed>0.460000</speed>
</trkpt>
<trkpt lat="22.314581" lon="103.765480">
<ele>2791.658203</ele>
<time>2011-04-24T03:01:28Z</time>
<desc>lat.=22.314581, lon.=103.765480, Alt.=2791.658203m. Speed=1.800000m/h.</desc>
<speed>0.500000</speed>
</trkpt>
<trkpt lat="22.314604" lon="103.765503">
<ele>2791.783203</ele>
<time>2011-04-24T03:01:33Z</time>
<desc>lat.=22.314604, lon.=103.765503, Alt.=2791.783203m. Speed=1.368000m/h.</desc>
<speed>0.380000</speed>
</trkpt>
<trkpt lat="22.314617" lon="103.765541">
<ele>2791.970703</ele>
<time>2011-04-24T03:01:38Z</time>
<desc>lat.=22.314617, lon.=103.765541, Alt.=2791.970703m. Speed=1.260000m/h.</desc>
<speed>0.350000</speed>
</trkpt>
<trkpt lat="22.314590" lon="103.765541">
<ele>2792.408203</ele>
<time>2011-04-24T03:01:43Z</time>
<desc>lat.=22.314590, lon.=103.765541, Alt.=2792.408203m. Speed=0.504000m/h.</desc>
<speed>0.140000</speed>
</trkpt>
<trkpt lat="22.314598" lon="103.765533">
<ele>2792.470703</ele>
<time>2011-04-24T03:01:48Z</time>
<desc>lat.=22.314598, lon.=103.765533, Alt.=2792.470703m. Speed=0.972000m/h.</desc>
<speed>0.270000</speed>
</trkpt>
<trkpt lat="22.314648" lon="103.765579">
<ele>2792.283203</ele>
<time>2011-04-24T03:01:53Z</time>
<desc>lat.=22.314648, lon.=103.765579, Alt.=2792.283203m. Speed=1.440000m/h.</desc>
<speed>0.400000</speed>
</trkpt>
<trkpt lat="22.314686" lon="103.765617">
<ele>2791.908203</ele>
<time>2011-04-24T03:01:58Z</time>
<desc>lat.=22.314686, lon.=103.765617, Alt.=2791.908203m. Speed=1.728000m/h.</desc>
<speed>0.480000</speed>
</trkpt>
<trkpt lat="22.314693" lon="103.765671">
<ele>2791.720703</ele>
<time>2011-04-24T03:02:03Z</time>
<desc>lat.=22.314693, lon.=103.765671, Alt.=2791.720703m. Speed=1.620000m/h.</desc>
<speed>0.450000</speed>
</trkpt>
<trkpt lat="22.314699" lon="103.765732">
<ele>2791.408203</ele>
<time>2011-04-24T03:02:08Z</time>
<desc>lat.=22.314699, lon.=103.765732, Alt.=2791.408203m. Speed=1.944000m/h.</desc>
<speed>0.540000</speed>
</trkpt>
<trkpt lat="22.314692" lon="103.765778">
<ele>2790.658203</ele>
<time>2011-04-24T03:02:13Z</time>
<desc>lat.=22.314692, lon.=103.765778, Alt.=2790.658203m. Speed=2.268000m/h.</desc>
<speed>0.630000</speed>
</trkpt>
<trkpt lat="22.314665" lon="103.765785">
<ele>2789.845703</ele>
<time>2011-04-24T03:02:18Z</time>
<desc>lat.=22.314665, lon.=103.765785, Alt.=2789.845703m. Speed=1.296000m/h.</desc>
<speed>0.360000</speed>
</trkpt>
<trkpt lat="22.314659" lon="103.765800">
<ele>2788.908203</ele>
<time>2011-04-24T03:02:23Z</time>
<desc>lat.=22.314659, lon.=103.765800, Alt.=2788.908203m. Speed=1.008000m/h.</desc>
<speed>0.280000</speed>
</trkpt>
<trkpt lat="22.314676" lon="103.765793">
<ele>2788.533203</ele>
<time>2011-04-24T03:02:28Z</time>
<desc>lat.=22.314676, lon.=103.765793, Alt.=2788.533203m. Speed=1.044000m/h.</desc>
<speed>0.290000</speed>
</trkpt>
<trkpt lat="22.314684" lon="103.765800">
<ele>2788.533203</ele>
<time>2011-04-24T03:02:33Z</time>
<desc>lat.=22.314684, lon.=103.765800, Alt.=2788.533203m. Speed=0.396000m/h.</desc>
<speed>0.110000</speed>
</trkpt>
<trkpt lat="22.314682" lon="103.765793">
<ele>2788.533203</ele>
<time>2011-04-24T03:02:38Z</time>
<desc>lat.=22.314682, lon.=103.765793, Alt.=2788.533203m. Speed=1.008000m/h.</desc>
<speed>0.280000</speed>
</trkpt>
<trkpt lat="22.314636" lon="103.765739">
<ele>2788.783203</ele>
<time>2011-04-24T03:02:43Z</time>
<desc>lat.=22.314636, lon.=103.765739, Alt.=2788.783203m. Speed=1.908000m/h.</desc>
<speed>0.530000</speed>
</trkpt>
<trkpt lat="22.314590" lon="103.765686">
<ele>2789.283203</ele>
<time>2011-04-24T03:02:48Z</time>
<desc>lat.=22.314590, lon.=103.765686, Alt.=2789.283203m. Speed=2.556000m/h.</desc>
<speed>0.710000</speed>
</trkpt>
<trkpt lat="22.314562" lon="103.765617">
<ele>2789.470703</ele>
<time>2011-04-24T03:02:53Z</time>
<desc>lat.=22.314562, lon.=103.765617, Alt.=2789.470703m. Speed=3.528000m/h.</desc>
<speed>0.980000</speed>
</trkpt>
<trkpt lat="22.314528" lon="103.765602">
<ele>2789.658203</ele>
<time>2011-04-24T03:02:58Z</time>
<desc>lat.=22.314528, lon.=103.765602, Alt.=2789.658203m. Speed=1.836000m/h.</desc>
<speed>0.510000</speed>
</trkpt>
<trkpt lat="22.314548" lon="103.765633">
<ele>2789.658203</ele>
<time>2011-04-24T03:03:03Z</time>
<desc>lat.=22.314548, lon.=103.765633, Alt.=2789.658203m. Speed=0.648000m/h.</desc>
<speed>0.180000</speed>
</trkpt>
<trkpt lat="22.314552" lon="103.765640">
<ele>2789.720703</ele>
<time>2011-04-24T03:03:08Z</time>
<desc>lat.=22.314552, lon.=103.765640, Alt.=2789.720703m. Speed=0.432000m/h.</desc>
<speed>0.120000</speed>
</trkpt>
<trkpt lat="22.314552" lon="103.765648">
<ele>2789.720703</ele>
<time>2011-04-24T03:03:13Z</time>
<desc>lat.=22.314552, lon.=103.765648, Alt.=2789.720703m. Speed=1.332000m/h.</desc>
<speed>0.370000</speed>
</trkpt>
<trkpt lat="22.314581" lon="103.765686">
<ele>2789.845703</ele>
<time>2011-04-24T03:03:18Z</time>
<desc>lat.=22.314581, lon.=103.765686, Alt.=2789.845703m. Speed=1.368000m/h.</desc>
<speed>0.380000</speed>
</trkpt>
<trkpt lat="22.314590" lon="103.765701">
<ele>2789.970703</ele>
<time>2011-04-24T03:03:23Z</time>
<desc>lat.=22.314590, lon.=103.765701, Alt.=2789.970703m. Speed=1.044000m/h.</desc>
<speed>0.290000</speed>
</trkpt>
<trkpt lat="22.314589" lon="103.765694">
<ele>2790.220703</ele>
<time>2011-04-24T03:03:28Z</time>
<desc>lat.=22.314589, lon.=103.765694, Alt.=2790.220703m. Speed=0.612000m/h.</desc>
<speed>0.170000</speed>
</trkpt>
<trkpt lat="22.314587" lon="103.765701">
<ele>2790.220703</ele>
<time>2011-04-24T03:03:33Z</time>
<desc>lat.=22.314587, lon.=103.765701, Alt.=2790.220703m. Speed=0.468000m/h.</desc>
<speed>0.130000</speed>
</trkpt>
<trkpt lat="22.314590" lon="103.765709">
<ele>2790.283203</ele>
<time>2011-04-24T03:03:38Z</time>
<desc>lat.=22.314590, lon.=103.765709, Alt.=2790.283203m. Speed=0.324000m/h.</desc>
<speed>0.090000</speed>
</trkpt>
<trkpt lat="22.314600" lon="103.765701">
<ele>2790.283203</ele>
<time>2011-04-24T03:03:43Z</time>
<desc>lat.=22.314600, lon.=103.765701, Alt.=2790.283203m. Speed=0.900000m/h.</desc>
<speed>0.250000</speed>
</trkpt>
<trkpt lat="22.314642" lon="103.765717">
<ele>2790.345703</ele>
<time>2011-04-24T03:03:48Z</time>
<desc>lat.=22.314642, lon.=103.765717, Alt.=2790.345703m. Speed=1.260000m/h.</desc>
<speed>0.350000</speed>
</trkpt>
<trkpt lat="22.314653" lon="103.765747">
<ele>2790.408203</ele>
<time>2011-04-24T03:03:53Z</time>
<desc>lat.=22.314653, lon.=103.765747, Alt.=2790.408203m. Speed=0.972000m/h.</desc>
<speed>0.270000</speed>
</trkpt>
<trkpt lat="22.314653" lon="103.765755">
<ele>2790.470703</ele>
<time>2011-04-24T03:03:58Z</time>
<desc>lat.=22.314653, lon.=103.765755, Alt.=2790.470703m. Speed=0.756000m/h.</desc>
<speed>0.210000</speed>
</trkpt>
<trkpt lat="22.314663" lon="103.765762">
<ele>2790.470703</ele>
<time>2011-04-24T03:04:03Z</time>
<desc>lat.=22.314663, lon.=103.765762, Alt.=2790.470703m. Speed=0.648000m/h.</desc>
<speed>0.180000</speed>
</trkpt>
<trkpt lat="22.314667" lon="103.765762">
<ele>2790.533203</ele>
<time>2011-04-24T03:04:08Z</time>
<desc>lat.=22.314667, lon.=103.765762, Alt.=2790.533203m. Speed=0.468000m/h.</desc>
<speed>0.130000</speed>
</trkpt>
<trkpt lat="22.314665" lon="103.765770">
<ele>2790.533203</ele>
<time>2011-04-24T03:04:13Z</time>
<desc>lat.=22.314665, lon.=103.765770, Alt.=2790.533203m. Speed=0.864000m/h.</desc>
<speed>0.240000</speed>
</trkpt>
<trkpt lat="22.314659" lon="103.765785">
<ele>2790.595703</ele>
<time>2011-04-24T03:04:18Z</time>
<desc>lat.=22.314659, lon.=103.765785, Alt.=2790.595703m. Speed=1.008000m/h.</desc>
<speed>0.280000</speed>
</trkpt>
<trkpt lat="22.314655" lon="103.765793">
<ele>2790.658203</ele>
<time>2011-04-24T03:04:23Z</time>
<desc>lat.=22.314655, lon.=103.765793, Alt.=2790.658203m. Speed=0.828000m/h.</desc>
<speed>0.230000</speed>
</trkpt>
<trkpt lat="22.314646" lon="103.765793">
<ele>2790.908203</ele>
<time>2011-04-24T03:04:28Z</time>
<desc>lat.=22.314646, lon.=103.765793, Alt.=2790.908203m. Speed=0.072000m/h.</desc>
<speed>0.020000</speed>
</trkpt>
<trkpt lat="22.314640" lon="103.765793">
<ele>2790.970703</ele>
<time>2011-04-24T03:04:33Z</time>
<desc>lat.=22.314640, lon.=103.765793, Alt.=2790.970703m. Speed=0.756000m/h.</desc>
<speed>0.210000</speed>
</trkpt>
<trkpt lat="22.314632" lon="103.765793">
<ele>2791.033203</ele>
<time>2011-04-24T03:04:38Z</time>
<desc>lat.=22.314632, lon.=103.765793, Alt.=2791.033203m. Speed=1.044000m/h.</desc>
<speed>0.290000</speed>
</trkpt>
<trkpt lat="22.314629" lon="103.765816">
<ele>2791.783203</ele>
<time>2011-04-24T03:04:43Z</time>
<desc>lat.=22.314629, lon.=103.765816, Alt.=2791.783203m. Speed=1.080000m/h.</desc>
<speed>0.300000</speed>
</trkpt>
<trkpt lat="22.314619" lon="103.765846">
<ele>2793.220703</ele>
<time>2011-04-24T03:04:48Z</time>
<desc>lat.=22.314619, lon.=103.765846, Alt.=2793.220703m. Speed=1.188000m/h.</desc>
<speed>0.330000</speed>
</trkpt>
<trkpt lat="22.314615" lon="103.765846">
<ele>2794.408203</ele>
<time>2011-04-24T03:04:53Z</time>
<desc>lat.=22.314615, lon.=103.765846, Alt.=2794.408203m. Speed=1.044000m/h.</desc>
<speed>0.290000</speed>
</trkpt>
<trkpt lat="22.314610" lon="103.765846">
<ele>2794.595703</ele>
<time>2011-04-24T03:04:58Z</time>
<desc>lat.=22.314610, lon.=103.765846, Alt.=2794.595703m. Speed=0.432000m/h.</desc>
<speed>0.120000</speed>
</trkpt>
<trkpt lat="22.314606" lon="103.765846">
<ele>2794.783203</ele>
<time>2011-04-24T03:05:03Z</time>
<desc>lat.=22.314606, lon.=103.765846, Alt.=2794.783203m. Speed=0.432000m/h.</desc>
<speed>0.120000</speed>
</trkpt>
<trkpt lat="22.314610" lon="103.765839">
<ele>2794.970703</ele>
<time>2011-04-24T03:05:08Z</time>
<desc>lat.=22.314610, lon.=103.765839, Alt.=2794.970703m. Speed=0.504000m/h.</desc>
<speed>0.140000</speed>
</trkpt>
<trkpt lat="22.314617" lon="103.765831">
<ele>2795.220703</ele>
<time>2011-04-24T03:05:13Z</time>
<desc>lat.=22.314617, lon.=103.765831, Alt.=2795.220703m. Speed=0.828000m/h.</desc>
<speed>0.230000</speed>
</trkpt>
<trkpt lat="22.314623" lon="103.765823">
<ele>2795.533203</ele>
<time>2011-04-24T03:05:18Z</time>
<desc>lat.=22.314623, lon.=103.765823, Alt.=2795.533203m. Speed=0.612000m/h.</desc>
<speed>0.170000</speed>
</trkpt>
<trkpt lat="22.314627" lon="103.765831">
<ele>2795.845703</ele>
<time>2011-04-24T03:05:23Z</time>
<desc>lat.=22.314627, lon.=103.765831, Alt.=2795.845703m. Speed=0.720000m/h.</desc>
<speed>0.200000</speed>
</trkpt>
<trkpt lat="22.314631" lon="103.765839">
<ele>2796.220703</ele>
<time>2011-04-24T03:05:28Z</time>
<desc>lat.=22.314631, lon.=103.765839, Alt.=2796.220703m. Speed=0.360000m/h.</desc>
<speed>0.100000</speed>
</trkpt>
<trkpt lat="22.314638" lon="103.765839">
<ele>2796.533203</ele>
<time>2011-04-24T03:05:33Z</time>
<desc>lat.=22.314638, lon.=103.765839, Alt.=2796.533203m. Speed=0.792000m/h.</desc>
<speed>0.220000</speed>
</trkpt>
<trkpt lat="22.314646" lon="103.765831">
<ele>2796.845703</ele>
<time>2011-04-24T03:05:38Z</time>
<desc>lat.=22.314646, lon.=103.765831, Alt.=2796.845703m. Speed=0.720000m/h.</desc>
<speed>0.200000</speed>
</trkpt>
<trkpt lat="22.314651" lon="103.765831">
<ele>2797.158203</ele>
<time>2011-04-24T03:05:43Z</time>
<desc>lat.=22.314651, lon.=103.765831, Alt.=2797.158203m. Speed=0.288000m/h.</desc>
<speed>0.080000</speed>
</trkpt>
<trkpt lat="22.314653" lon="103.765823">
<ele>2797.533203</ele>
<time>2011-04-24T03:05:48Z</time>
<desc>lat.=22.314653, lon.=103.765823, Alt.=2797.533203m. Speed=0.324000m/h.</desc>
<speed>0.090000</speed>
</trkpt>
<trkpt lat="22.314651" lon="103.765823">
<ele>2797.970703</ele>
<time>2011-04-24T03:05:53Z</time>
<desc>lat.=22.314651, lon.=103.765823, Alt.=2797.970703m. Speed=0.504000m/h.</desc>
<speed>0.140000</speed>
</trkpt>
<trkpt lat="22.314646" lon="103.765816">
<ele>2798.345703</ele>
<time>2011-04-24T03:05:58Z</time>
<desc>lat.=22.314646, lon.=103.765816, Alt.=2798.345703m. Speed=1.044000m/h.</desc>
<speed>0.290000</speed>
</trkpt>
<trkpt lat="22.314636" lon="103.765785">
<ele>2798.783203</ele>
<time>2011-04-24T03:06:03Z</time>
<desc>lat.=22.314636, lon.=103.765785, Alt.=2798.783203m. Speed=1.332000m/h.</desc>
<speed>0.370000</speed>
</trkpt>
<trkpt lat="22.314634" lon="103.765755">
<ele>2798.970703</ele>
<time>2011-04-24T03:06:08Z</time>
<desc>lat.=22.314634, lon.=103.765755, Alt.=2798.970703m. Speed=1.404000m/h.</desc>
<speed>0.390000</speed>
</trkpt>
<trkpt lat="22.314631" lon="103.765762">
<ele>2798.345703</ele>
<time>2011-04-24T03:06:13Z</time>
<desc>lat.=22.314631, lon.=103.765762, Alt.=2798.345703m. Speed=0.684000m/h.</desc>
<speed>0.190000</speed>
</trkpt>
<trkpt lat="22.314638" lon="103.765739">
<ele>2798.408203</ele>
<time>2011-04-24T03:06:18Z</time>
<desc>lat.=22.314638, lon.=103.765739, Alt.=2798.408203m. Speed=0.432000m/h.</desc>
<speed>0.120000</speed>
</trkpt>
<trkpt lat="22.314640" lon="103.765739">
<ele>2798.720703</ele>
<time>2011-04-24T03:06:23Z</time>
<desc>lat.=22.314640, lon.=103.765739, Alt.=2798.720703m. Speed=0.576000m/h.</desc>
<speed>0.160000</speed>
</trkpt>
<trkpt lat="22.314640" lon="103.765724">
<ele>2799.033203</ele>
<time>2011-04-24T03:06:28Z</time>
<desc>lat.=22.314640, lon.=103.765724, Alt.=2799.033203m. Speed=0.468000m/h.</desc>
<speed>0.130000</speed>
</trkpt>
<trkpt lat="22.314638" lon="103.765724">
<ele>2799.345703</ele>
<time>2011-04-24T03:06:33Z</time>
<desc>lat.=22.314638, lon.=103.765724, Alt.=2799.345703m. Speed=0.288000m/h.</desc>
<speed>0.080000</speed>
</trkpt>
<trkpt lat="22.314638" lon="103.765717">
<ele>2799.658203</ele>
<time>2011-04-24T03:06:38Z</time>
<desc>lat.=22.314638, lon.=103.765717, Alt.=2799.658203m. Speed=0.684000m/h.</desc>
<speed>0.190000</speed>
</trkpt>
<trkpt lat="22.314646" lon="103.765709">
<ele>2799.908203</ele>
<time>2011-04-24T03:06:43Z</time>
<desc>lat.=22.314646, lon.=103.765709, Alt.=2799.908203m. Speed=1.116000m/h.</desc>
<speed>0.310000</speed>
</trkpt>
<trkpt lat="22.314692" lon="103.765694">
<ele>2798.533203</ele>
<time>2011-04-24T03:06:48Z</time>
<desc>lat.=22.314692, lon.=103.765694, Alt.=2798.533203m. Speed=1.476000m/h.</desc>
<speed>0.410000</speed>
</trkpt>
<trkpt lat="22.314768" lon="103.765717">
<ele>2798.033203</ele>
<time>2011-04-24T03:06:53Z</time>
<desc>lat.=22.314768, lon.=103.765717, Alt.=2798.033203m. Speed=1.944000m/h.</desc>
<speed>0.540000</speed>
</trkpt>
<trkpt lat="22.314779" lon="103.765762">
<ele>2797.908203</ele>
<time>2011-04-24T03:06:58Z</time>
<desc>lat.=22.314779, lon.=103.765762, Alt.=2797.908203m. Speed=1.584000m/h.</desc>
<speed>0.440000</speed>
</trkpt>
<trkpt lat="22.314800" lon="103.765762">
<ele>2798.720703</ele>
<time>2011-04-24T03:07:03Z</time>
<desc>lat.=22.314800, lon.=103.765762, Alt.=2798.720703m. Speed=1.188000m/h.</desc>
<speed>0.330000</speed>
</trkpt>
<trkpt lat="22.314796" lon="103.765747">
<ele>2799.283203</ele>
<time>2011-04-24T03:07:08Z</time>
<desc>lat.=22.314796, lon.=103.765747, Alt.=2799.283203m. Speed=0.432000m/h.</desc>
<speed>0.120000</speed>
</trkpt>
<trkpt lat="22.314795" lon="103.765755">
<ele>2799.595703</ele>
<time>2011-04-24T03:07:13Z</time>
<desc>lat.=22.314795, lon.=103.765755, Alt.=2799.595703m. Speed=0.828000m/h.</desc>
<speed>0.230000</speed>
</trkpt>
<trkpt lat="22.314789" lon="103.765762">
<ele>2799.908203</ele>
<time>2011-04-24T03:07:18Z</time>
<desc>lat.=22.314789, lon.=103.765762, Alt.=2799.908203m. Speed=1.044000m/h.</desc>
<speed>0.290000</speed>
</trkpt>
<trkpt lat="22.314789" lon="103.765755">
<ele>2800.283203</ele>
<time>2011-04-24T03:07:23Z</time>
<desc>lat.=22.314789, lon.=103.765755, Alt.=2800.283203m. Speed=0.576000m/h.</desc>
<speed>0.160000</speed>
</trkpt>
<trkpt lat="22.314772" lon="103.765739">
<ele>2800.720703</ele>
<time>2011-04-24T03:07:28Z</time>
<desc>lat.=22.314772, lon.=103.765739, Alt.=2800.720703m. Speed=1.188000m/h.</desc>
<speed>0.330000</speed>
</trkpt>
<trkpt lat="22.314806" lon="103.765732">
<ele>2801.033203</ele>
<time>2011-04-24T03:07:33Z</time>
<desc>lat.=22.314806, lon.=103.765732, Alt.=2801.033203m. Speed=0.108000m/h.</desc>
<speed>0.030000</speed>
</trkpt>
<trkpt lat="22.314806" lon="103.765732">
<ele>2801.345703</ele>
<time>2011-04-24T03:07:38Z</time>
<desc>lat.=22.314806, lon.=103.765732, Alt.=2801.345703m. Speed=0.432000m/h.</desc>
<speed>0.120000</speed>
</trkpt>
<trkpt lat="22.314802" lon="103.765732">
<ele>2801.658203</ele>
<time>2011-04-24T03:07:43Z</time>
<desc>lat.=22.314802, lon.=103.765732, Alt.=2801.658203m. Speed=0.756000m/h.</desc>
<speed>0.210000</speed>
</trkpt>
<trkpt lat="22.314795" lon="103.765732">
<ele>2802.033203</ele>
<time>2011-04-24T03:07:48Z</time>
<desc>lat.=22.314795, lon.=103.765732, Alt.=2802.033203m. Speed=0.648000m/h.</desc>
<speed>0.180000</speed>
</trkpt>
<trkpt lat="22.314787" lon="103.765739">
<ele>2802.283203</ele>
<time>2011-04-24T03:07:53Z</time>
<desc>lat.=22.314787, lon.=103.765739, Alt.=2802.283203m. Speed=1.188000m/h.</desc>
<speed>0.330000</speed>
</trkpt>
<trkpt lat="22.314787" lon="103.765724">
<ele>2802.095703</ele>
<time>2011-04-24T03:07:58Z</time>
<desc>lat.=22.314787, lon.=103.765724, Alt.=2802.095703m. Speed=0.504000m/h.</desc>
<speed>0.140000</speed>
</trkpt>
<trkpt lat="22.314804" lon="103.765724">
<ele>2802.220703</ele>
<time>2011-04-24T03:08:03Z</time>
<desc>lat.=22.314804, lon.=103.765724, Alt.=2802.220703m. Speed=0.972000m/h.</desc>
<speed>0.270000</speed>
</trkpt>
<trkpt lat="22.314804" lon="103.765678">
<ele>2800.158203</ele>
<time>2011-04-24T03:08:08Z</time>
<desc>lat.=22.314804, lon.=103.765678, Alt.=2800.158203m. Speed=1.476000m/h.</desc>
<speed>0.410000</speed>
</trkpt>
<trkpt lat="22.314754" lon="103.765587">
<ele>2794.220703</ele>
<time>2011-04-24T03:08:13Z</time>
<desc>lat.=22.314754, lon.=103.765587, Alt.=2794.220703m. Speed=2.088000m/h.</desc>
<speed>0.580000</speed>
</trkpt>
<trkpt lat="22.314735" lon="103.765579">
<ele>2794.283203</ele>
<time>2011-04-24T03:08:18Z</time>
<desc>lat.=22.314735, lon.=103.765579, Alt.=2794.283203m. Speed=1.368000m/h.</desc>
<speed>0.380000</speed>
</trkpt>
<trkpt lat="22.314669" lon="103.765648">
<ele>2790.470703</ele>
<time>2011-04-24T03:08:23Z</time>
<desc>lat.=22.314669, lon.=103.765648, Alt.=2790.470703m. Speed=1.512000m/h.</desc>
<speed>0.420000</speed>
</trkpt>
<trkpt lat="22.314661" lon="103.765678">
<ele>2789.533203</ele>
<time>2011-04-24T03:08:28Z</time>
<desc>lat.=22.314661, lon.=103.765678, Alt.=2789.533203m. Speed=0.360000m/h.</desc>
<speed>0.100000</speed>
</trkpt>
<trkpt lat="22.314657" lon="103.765678">
<ele>2788.720703</ele>
<time>2011-04-24T03:08:33Z</time>
<desc>lat.=22.314657, lon.=103.765678, Alt.=2788.720703m. Speed=3.096000m/h.</desc>
<speed>0.860000</speed>
</trkpt>
<trkpt lat="22.314634" lon="103.765656">
<ele>2787.783203</ele>
<time>2011-04-24T03:08:38Z</time>
<desc>lat.=22.314634, lon.=103.765656, Alt.=2787.783203m. Speed=2.232000m/h.</desc>
<speed>0.620000</speed>
</trkpt>
<trkpt lat="22.314627" lon="103.765625">
<ele>2787.720703</ele>
<time>2011-04-24T03:08:43Z</time>
<desc>lat.=22.314627, lon.=103.765625, Alt.=2787.720703m. Speed=2.448000m/h.</desc>
<speed>0.680000</speed>
</trkpt>
<trkpt lat="22.314608" lon="103.765594">
<ele>2787.970703</ele>
<time>2011-04-24T03:08:48Z</time>
<desc>lat.=22.314608, lon.=103.765594, Alt.=2787.970703m. Speed=2.124000m/h.</desc>
<speed>0.590000</speed>
</trkpt>
<trkpt lat="22.314585" lon="103.765572">
<ele>2788.095703</ele>
<time>2011-04-24T03:08:53Z</time>
<desc>lat.=22.314585, lon.=103.765572, Alt.=2788.095703m. Speed=2.520000m/h.</desc>
<speed>0.700000</speed>
</trkpt>
<trkpt lat="22.314535" lon="103.765549">
<ele>2788.408203</ele>
<time>2011-04-24T03:08:58Z</time>
<desc>lat.=22.314535, lon.=103.765549, Alt.=2788.408203m. Speed=3.276000m/h.</desc>
<speed>0.910000</speed>
</trkpt>
<trkpt lat="22.314499" lon="103.765526">
<ele>2788.720703</ele>
<time>2011-04-24T03:09:03Z</time>
<desc>lat.=22.314499, lon.=103.765526, Alt.=2788.720703m. Speed=2.844000m/h.</desc>
<speed>0.790000</speed>
</trkpt>
<trkpt lat="22.314466" lon="103.765511">
<ele>2788.970703</ele>
<time>2011-04-24T03:09:08Z</time>
<desc>lat.=22.314466, lon.=103.765511, Alt.=2788.970703m. Speed=1.188000m/h.</desc>
<speed>0.330000</speed>
</trkpt>
<trkpt lat="22.314440" lon="103.765503">
<ele>2789.220703</ele>
<time>2011-04-24T03:09:13Z</time>
<desc>lat.=22.314440, lon.=103.765503, Alt.=2789.220703m. Speed=0.972000m/h.</desc>
<speed>0.270000</speed>
</trkpt>
<trkpt lat="22.314323" lon="103.765488">
<ele>2777.533203</ele>
<time>2011-04-24T03:09:18Z</time>
<desc>lat.=22.314323, lon.=103.765488, Alt.=2777.533203m. Speed=3.060000m/h.</desc>
<speed>0.850000</speed>
</trkpt>
<trkpt lat="22.314325" lon="103.765480">
<ele>2780.345703</ele>
<time>2011-04-24T03:09:23Z</time>
<desc>lat.=22.314325, lon.=103.765480, Alt.=2780.345703m. Speed=2.736000m/h.</desc>
<speed>0.760000</speed>
</trkpt>
<trkpt lat="22.314312" lon="103.765503">
<ele>2778.908203</ele>
<time>2011-04-24T03:09:28Z</time>
<desc>lat.=22.314312, lon.=103.765503, Alt.=2778.908203m. Speed=1.512000m/h.</desc>
<speed>0.420000</speed>
</trkpt>
<trkpt lat="22.314280" lon="103.765503">
<ele>2778.595703</ele>
<time>2011-04-24T03:09:33Z</time>
<desc>lat.=22.314280, lon.=103.765503, Alt.=2778.595703m. Speed=4.572000m/h.</desc>
<speed>1.270000</speed>
</trkpt>
<trkpt lat="22.314220" lon="103.765472">
<ele>2776.345703</ele>
<time>2011-04-24T03:09:38Z</time>
<desc>lat.=22.314220, lon.=103.765472, Alt.=2776.345703m. Speed=2.124000m/h.</desc>
<speed>0.590000</speed>
</trkpt>
<trkpt lat="22.314180" lon="103.765450">
<ele>2776.408203</ele>
<time>2011-04-24T03:09:43Z</time>
<desc>lat.=22.314180, lon.=103.765450, Alt.=2776.408203m. Speed=3.600000m/h.</desc>
<speed>1.000000</speed>
</trkpt>
<trkpt lat="22.314156" lon="103.765457">
<ele>2777.908203</ele>
<time>2011-04-24T03:09:48Z</time>
<desc>lat.=22.314156, lon.=103.765457, Alt.=2777.908203m. Speed=0.432000m/h.</desc>
<speed>0.120000</speed>
</trkpt>
<trkpt lat="22.314085" lon="103.765472">
<ele>2778.408203</ele>
<time>2011-04-24T03:09:53Z</time>
<desc>lat.=22.314085, lon.=103.765472, Alt.=2778.408203m. Speed=3.600000m/h.</desc>
<speed>1.000000</speed>
</trkpt>
<trkpt lat="22.314039" lon="103.765442">
<ele>2775.533203</ele>
<time>2011-04-24T03:09:58Z</time>
<desc>lat.=22.314039, lon.=103.765442, Alt.=2775.533203m. Speed=3.492000m/h.</desc>
<speed>0.970000</speed>
</trkpt>
<trkpt lat="22.313948" lon="103.765450">
<ele>2776.345703</ele>
<time>2011-04-24T03:10:03Z</time>
<desc>lat.=22.313948, lon.=103.765450, Alt.=2776.345703m. Speed=3.636000m/h.</desc>
<speed>1.010000</speed>
</trkpt>
<trkpt lat="22.313892" lon="103.765427">
<ele>2776.595703</ele>
<time>2011-04-24T03:10:08Z</time>
<desc>lat.=22.313892, lon.=103.765427, Alt.=2776.595703m. Speed=4.032000m/h.</desc>
<speed>1.120000</speed>
</trkpt>
<trkpt lat="22.313890" lon="103.765419">
<ele>2777.158203</ele>
<time>2011-04-24T03:10:13Z</time>
<desc>lat.=22.313890, lon.=103.765419, Alt.=2777.158203m. Speed=2.736000m/h.</desc>
<speed>0.760000</speed>
</trkpt>
<trkpt lat="22.313837" lon="103.765411">
<ele>2775.595703</ele>
<time>2011-04-24T03:10:18Z</time>
<desc>lat.=22.313837, lon.=103.765411, Alt.=2775.595703m. Speed=2.412000m/h.</desc>
<speed>0.670000</speed>
</trkpt>
<trkpt lat="22.313839" lon="103.765411">
<ele>2775.908203</ele>
<time>2011-04-24T03:10:23Z</time>
<desc>lat.=22.313839, lon.=103.765411, Alt.=2775.908203m. Speed=0.720000m/h.</desc>
<speed>0.200000</speed>
</trkpt>
<trkpt lat="22.313816" lon="103.765411">
<ele>2776.595703</ele>
<time>2011-04-24T03:10:28Z</time>
<desc>lat.=22.313816, lon.=103.765411, Alt.=2776.595703m. Speed=1.476000m/h.</desc>
<speed>0.410000</speed>
</trkpt>
<trkpt lat="22.313787" lon="103.765404">
<ele>2776.845703</ele>
<time>2011-04-24T03:10:33Z</time>
<desc>lat.=22.313787, lon.=103.765404, Alt.=2776.845703m. Speed=1.980000m/h.</desc>
<speed>0.550000</speed>
</trkpt>
<trkpt lat="22.313721" lon="103.765411">
<ele>2777.783203</ele>
<time>2011-04-24T03:10:38Z</time>
<desc>lat.=22.313721, lon.=103.765411, Alt.=2777.783203m. Speed=1.836000m/h.</desc>
<speed>0.510000</speed>
</trkpt>
<trkpt lat="22.313726" lon="103.765404">
<ele>2778.220703</ele>
<time>2011-04-24T03:10:43Z</time>
<desc>lat.=22.313726, lon.=103.765404, Alt.=2778.220703m. Speed=0.396000m/h.</desc>
<speed>0.110000</speed>
</trkpt>
<trkpt lat="22.313688" lon="103.765381">
<ele>2777.283203</ele>
<time>2011-04-24T03:10:48Z</time>
<desc>lat.=22.313688, lon.=103.765381, Alt.=2777.283203m. Speed=1.620000m/h.</desc>
<speed>0.450000</speed>
</trkpt>
<trkpt lat="22.313652" lon="103.765381">
<ele>2778.658203</ele>
<time>2011-04-24T03:10:53Z</time>
<desc>lat.=22.313652, lon.=103.765381, Alt.=2778.658203m. Speed=1.620000m/h.</desc>
<speed>0.450000</speed>
</trkpt>
<trkpt lat="22.313688" lon="103.765343">
<ele>2780.220703</ele>
<time>2011-04-24T03:10:58Z</time>
<desc>lat.=22.313688, lon.=103.765343, Alt.=2780.220703m. Speed=0.432000m/h.</desc>
<speed>0.120000</speed>
</trkpt>
<trkpt lat="22.313692" lon="103.765373">
<ele>2780.720703</ele>
<time>2011-04-24T03:11:03Z</time>
<desc>lat.=22.313692, lon.=103.765373, Alt.=2780.720703m. Speed=4.284000m/h.</desc>
<speed>1.190000</speed>
</trkpt>
<trkpt lat="22.313671" lon="103.765388">
<ele>2781.095703</ele>
<time>2011-04-24T03:11:08Z</time>
<desc>lat.=22.313671, lon.=103.765388, Alt.=2781.095703m. Speed=2.016000m/h.</desc>
<speed>0.560000</speed>
</trkpt>
<trkpt lat="22.313656" lon="103.765427">
<ele>2782.533203</ele>
<time>2011-04-24T03:11:13Z</time>
<desc>lat.=22.313656, lon.=103.765427, Alt.=2782.533203m. Speed=1.944000m/h.</desc>
<speed>0.540000</speed>
</trkpt>
<trkpt lat="22.313692" lon="103.765465">
<ele>2789.595703</ele>
<time>2011-04-24T03:11:18Z</time>
<desc>lat.=22.313692, lon.=103.765465, Alt.=2789.595703m. Speed=2.484000m/h.</desc>
<speed>0.690000</speed>
</trkpt>
<trkpt lat="22.313705" lon="103.765503">
<ele>2791.533203</ele>
<time>2011-04-24T03:11:23Z</time>
<desc>lat.=22.313705, lon.=103.765503, Alt.=2791.533203m. Speed=1.728000m/h.</desc>
<speed>0.480000</speed>
</trkpt>
<trkpt lat="22.313730" lon="103.765518">
<ele>2794.658203</ele>
<time>2011-04-24T03:11:28Z</time>
<desc>lat.=22.313730, lon.=103.765518, Alt.=2794.658203m. Speed=0.540000m/h.</desc>
<speed>0.150000</speed>
</trkpt>
<trkpt lat="22.313730" lon="103.765518">
<ele>2794.658203</ele>
<time>2011-04-24T03:11:33Z</time>
<desc>lat.=22.313730, lon.=103.765518, Alt.=2794.658203m. Speed=0.216000m/h.</desc>
<speed>0.060000</speed>
</trkpt>
<trkpt lat="22.313726" lon="103.765541">
<ele>2794.783203</ele>
<time>2011-04-24T03:11:38Z</time>
<desc>lat.=22.313726, lon.=103.765541, Alt.=2794.783203m. Speed=3.744000m/h.</desc>
<speed>1.040000</speed>
</trkpt>
<trkpt lat="22.313704" lon="103.765594">
<ele>2796.220703</ele>
<time>2011-04-24T03:11:43Z</time>
<desc>lat.=22.313704, lon.=103.765594, Alt.=2796.220703m. Speed=3.096000m/h.</desc>
<speed>0.860000</speed>
</trkpt>
<trkpt lat="22.313686" lon="103.765602">
<ele>2796.720703</ele>
<time>2011-04-24T03:11:48Z</time>
<desc>lat.=22.313686, lon.=103.765602, Alt.=2796.720703m. Speed=1.404000m/h.</desc>
<speed>0.390000</speed>
</trkpt>
<trkpt lat="22.313646" lon="103.765579">
<ele>2798.095703</ele>
<time>2011-04-24T03:11:53Z</time>
<desc>lat.=22.313646, lon.=103.765579, Alt.=2798.095703m. Speed=1.980000m/h.</desc>
<speed>0.550000</speed>
</trkpt>
<trkpt lat="22.313627" lon="103.765579">
<ele>2798.345703</ele>
<time>2011-04-24T03:11:58Z</time>
<desc>lat.=22.313627, lon.=103.765579, Alt.=2798.345703m. Speed=1.296000m/h.</desc>
<speed>0.360000</speed>
</trkpt>
<trkpt lat="22.313622" lon="103.765579">
<ele>2798.470703</ele>
<time>2011-04-24T03:12:03Z</time>
<desc>lat.=22.313622, lon.=103.765579, Alt.=2798.470703m. Speed=1.944000m/h.</desc>
<speed>0.540000</speed>
</trkpt>
<trkpt lat="22.313635" lon="103.765587">
<ele>2798.783203</ele>
<time>2011-04-24T03:12:08Z</time>
<desc>lat.=22.313635, lon.=103.765587, Alt.=2798.783203m. Speed=1.404000m/h.</desc>
<speed>0.390000</speed>
</trkpt>
<trkpt lat="22.313650" lon="103.765579">
<ele>2799.033203</ele>
<time>2011-04-24T03:12:13Z</time>
<desc>lat.=22.313650, lon.=103.765579, Alt.=2799.033203m. Speed=0.684000m/h.</desc>
<speed>0.190000</speed>
</trkpt>
<trkpt lat="22.313633" lon="103.765602">
<ele>2799.783203</ele>
<time>2011-04-24T03:12:18Z</time>
<desc>lat.=22.313633, lon.=103.765602, Alt.=2799.783203m. Speed=0.756000m/h.</desc>
<speed>0.210000</speed>
</trkpt>
<trkpt lat="22.313631" lon="103.765572">
<ele>2800.908203</ele>
<time>2011-04-24T03:12:23Z</time>
<desc>lat.=22.313631, lon.=103.765572, Alt.=2800.908203m. Speed=0.828000m/h.</desc>
<speed>0.230000</speed>
</trkpt>
<trkpt lat="22.313581" lon="103.765541">
<ele>2802.095703</ele>
<time>2011-04-24T03:12:28Z</time>
<desc>lat.=22.313581, lon.=103.765541, Alt.=2802.095703m. Speed=2.484000m/h.</desc>
<speed>0.690000</speed>
</trkpt>
<trkpt lat="22.313559" lon="103.765518">
<ele>2802.720703</ele>
<time>2011-04-24T03:12:33Z</time>
<desc>lat.=22.313559, lon.=103.765518, Alt.=2802.720703m. Speed=1.440000m/h.</desc>
<speed>0.400000</speed>
</trkpt>
<trkpt lat="22.313536" lon="103.765503">
<ele>2802.845703</ele>
<time>2011-04-24T03:12:38Z</time>
<desc>lat.=22.313536, lon.=103.765503, Alt.=2802.845703m. Speed=1.476000m/h.</desc>
<speed>0.410000</speed>
</trkpt>
<trkpt lat="22.313528" lon="103.765495">
<ele>2803.095703</ele>
<time>2011-04-24T03:12:43Z</time>
<desc>lat.=22.313528, lon.=103.765495, Alt.=2803.095703m. Speed=1.296000m/h.</desc>
<speed>0.360000</speed>
</trkpt>
<trkpt lat="22.313501" lon="103.765480">
<ele>2802.845703</ele>
<time>2011-04-24T03:12:48Z</time>
<desc>lat.=22.313501, lon.=103.765480, Alt.=2802.845703m. Speed=2.052000m/h.</desc>
<speed>0.570000</speed>
</trkpt>
<trkpt lat="22.313463" lon="103.765457">
<ele>2802.970703</ele>
<time>2011-04-24T03:12:53Z</time>
<desc>lat.=22.313463, lon.=103.765457, Alt.=2802.970703m. Speed=2.160000m/h.</desc>
<speed>0.600000</speed>
</trkpt>
<trkpt lat="22.313448" lon="103.765457">
<ele>2803.095703</ele>
<time>2011-04-24T03:12:58Z</time>
<desc>lat.=22.313448, lon.=103.765457, Alt.=2803.095703m. Speed=1.044000m/h.</desc>
<speed>0.290000</speed>
</trkpt>
<trkpt lat="22.313425" lon="103.765427">
<ele>2804.595703</ele>
<time>2011-04-24T03:13:03Z</time>
<desc>lat.=22.313425, lon.=103.765427, Alt.=2804.595703m. Speed=2.556000m/h.</desc>
<speed>0.710000</speed>
</trkpt>
<trkpt lat="22.313425" lon="103.765427">
<ele>2806.033203</ele>
<time>2011-04-24T03:13:08Z</time>
<desc>lat.=22.313425, lon.=103.765427, Alt.=2806.033203m. Speed=1.692000m/h.</desc>
<speed>0.470000</speed>
</trkpt>
<trkpt lat="22.313438" lon="103.765442">
<ele>2807.720703</ele>
<time>2011-04-24T03:13:13Z</time>
<desc>lat.=22.313438, lon.=103.765442, Alt.=2807.720703m. Speed=0.468000m/h.</desc>
<speed>0.130000</speed>
</trkpt>
<trkpt lat="22.313448" lon="103.765457">
<ele>2808.283203</ele>
<time>2011-04-24T03:13:18Z</time>
<desc>lat.=22.313448, lon.=103.765457, Alt.=2808.283203m. Speed=1.260000m/h.</desc>
<speed>0.350000</speed>
</trkpt>
<trkpt lat="22.313421" lon="103.765450">
<ele>2808.720703</ele>
<time>2011-04-24T03:13:23Z</time>
<desc>lat.=22.313421, lon.=103.765450, Alt.=2808.720703m. Speed=2.952000m/h.</desc>
<speed>0.820000</speed>
</trkpt>
<trkpt lat="22.313389" lon="103.765427">
<ele>2808.970703</ele>
<time>2011-04-24T03:13:28Z</time>
<desc>lat.=22.313389, lon.=103.765427, Alt.=2808.970703m. Speed=3.852000m/h.</desc>
<speed>1.070000</speed>
</trkpt>
<trkpt lat="22.313349" lon="103.765427">
<ele>2809.283203</ele>
<time>2011-04-24T03:13:33Z</time>
<desc>lat.=22.313349, lon.=103.765427, Alt.=2809.283203m. Speed=1.548000m/h.</desc>
<speed>0.430000</speed>
</trkpt>
<trkpt lat="22.313356" lon="103.765404">
<ele>2810.408203</ele>
<time>2011-04-24T03:13:38Z</time>
<desc>lat.=22.313356, lon.=103.765404, Alt.=2810.408203m. Speed=0.504000m/h.</desc>
<speed>0.140000</speed>
</trkpt>
<trkpt lat="22.313358" lon="103.765381">
<ele>2811.345703</ele>
<time>2011-04-24T03:13:43Z</time>
<desc>lat.=22.313358, lon.=103.765381, Alt.=2811.345703m. Speed=0.036000m/h.</desc>
<speed>0.010000</speed>
</trkpt>
<trkpt lat="22.313374" lon="103.765381">
<ele>2812.595703</ele>
<time>2011-04-24T03:13:48Z</time>
<desc>lat.=22.313374, lon.=103.765381, Alt.=2812.595703m. Speed=0.036000m/h.</desc>
<speed>0.010000</speed>
</trkpt>
<trkpt lat="22.313370" lon="103.765381">
<ele>2813.345703</ele>
<time>2011-04-24T03:13:53Z</time>
<desc>lat.=22.313370, lon.=103.765381, Alt.=2813.345703m. Speed=1.008000m/h.</desc>
<speed>0.280000</speed>
</trkpt>
<trkpt lat="22.313356" lon="103.765381">
<ele>2813.595703</ele>
<time>2011-04-24T03:13:58Z</time>
<desc>lat.=22.313356, lon.=103.765381, Alt.=2813.595703m. Speed=0.360000m/h.</desc>
<speed>0.100000</speed>
</trkpt>
<trkpt lat="22.313343" lon="103.765388">
<ele>2813.658203</ele>
<time>2011-04-24T03:14:03Z</time>
<desc>lat.=22.313343, lon.=103.765388, Alt.=2813.658203m. Speed=0.324000m/h.</desc>
<speed>0.090000</speed>
</trkpt>
<trkpt lat="22.313343" lon="103.765388">
<ele>2813.658203</ele>
<time>2011-04-24T03:14:08Z</time>
<desc>lat.=22.313343, lon.=103.765388, Alt.=2813.658203m. Speed=0.036000m/h.</desc>
<speed>0.010000</speed>
</trkpt>
<trkpt lat="22.313343" lon="103.765388">
<ele>2813.658203</ele>
<time>2011-04-24T03:14:13Z</time>
<desc>lat.=22.313343, lon.=103.765388, Alt.=2813.658203m. Speed=0.324000m/h.</desc>
<speed>0.090000</speed>
</trkpt>
<trkpt lat="22.313345" lon="103.765388">
<ele>2813.658203</ele>
<time>2011-04-24T03:14:18Z</time>
<desc>lat.=22.313345, lon.=103.765388, Alt.=2813.658203m. Speed=0.252000m/h.</desc>
<speed>0.070000</speed>
</trkpt>
<trkpt lat="22.313345" lon="103.765396">
<ele>2813.720703</ele>
<time>2011-04-24T03:14:23Z</time>
<desc>lat.=22.313345, lon.=103.765396, Alt.=2813.720703m. Speed=0.036000m/h.</desc>
<speed>0.010000</speed>
</trkpt>
<trkpt lat="22.313339" lon="103.765388">
<ele>2813.720703</ele>
<time>2011-04-24T03:14:28Z</time>
<desc>lat.=22.313339, lon.=103.765388, Alt.=2813.720703m. Speed=0.792000m/h.</desc>
<speed>0.220000</speed>
</trkpt>
<trkpt lat="22.313326" lon="103.765373">
<ele>2813.845703</ele>
<time>2011-04-24T03:14:33Z</time>
<desc>lat.=22.313326, lon.=103.765373, Alt.=2813.845703m. Speed=2.736000m/h.</desc>
<speed>0.760000</speed>
</trkpt>
<trkpt lat="22.313301" lon="103.765350">
<ele>2814.033203</ele>
<time>2011-04-24T03:14:38Z</time>
<desc>lat.=22.313301, lon.=103.765350, Alt.=2814.033203m. Speed=1.764000m/h.</desc>
<speed>0.490000</speed>
</trkpt>
<trkpt lat="22.313261" lon="103.765327">
<ele>2814.095703</ele>
<time>2011-04-24T03:14:43Z</time>
<desc>lat.=22.313261, lon.=103.765327, Alt.=2814.095703m. Speed=1.620000m/h.</desc>
<speed>0.450000</speed>
</trkpt>
<trkpt lat="22.313227" lon="103.765289">
<ele>2814.345703</ele>
<time>2011-04-24T03:14:48Z</time>
<desc>lat.=22.313227, lon.=103.765289, Alt.=2814.345703m. Speed=2.988000m/h.</desc>
<speed>0.830000</speed>
</trkpt>
<trkpt lat="22.313185" lon="103.765266">
<ele>2816.158203</ele>
<time>2011-04-24T03:14:53Z</time>
<desc>lat.=22.313185, lon.=103.765266, Alt.=2816.158203m. Speed=3.996000m/h.</desc>
<speed>1.110000</speed>
</trkpt>
<trkpt lat="22.313162" lon="103.765305">
<ele>2816.908203</ele>
<time>2011-04-24T03:14:58Z</time>
<desc>lat.=22.313162, lon.=103.765305, Alt.=2816.908203m. Speed=5.184000m/h.</desc>
<speed>1.440000</speed>
</trkpt>
<trkpt lat="22.313112" lon="103.765297">
<ele>2817.220703</ele>
<time>2011-04-24T03:15:03Z</time>
<desc>lat.=22.313112, lon.=103.765297, Alt.=2817.220703m. Speed=4.968000m/h.</desc>
<speed>1.380000</speed>
</trkpt>
<trkpt lat="22.313082" lon="103.765305">
<ele>2818.158203</ele>
<time>2011-04-24T03:15:08Z</time>
<desc>lat.=22.313082, lon.=103.765305, Alt.=2818.158203m. Speed=3.456000m/h.</desc>
<speed>0.960000</speed>
</trkpt>
<trkpt lat="22.313053" lon="103.765327">
<ele>2818.408203</ele>
<time>2011-04-24T03:15:13Z</time>
<desc>lat.=22.313053, lon.=103.765327, Alt.=2818.408203m. Speed=2.412000m/h.</desc>
<speed>0.670000</speed>
</trkpt>
<trkpt lat="22.313019" lon="103.765327">
<ele>2818.470703</ele>
<time>2011-04-24T03:15:18Z</time>
<desc>lat.=22.313019, lon.=103.765327, Alt.=2818.470703m. Speed=2.232000m/h.</desc>
<speed>0.620000</speed>
</trkpt>
<trkpt lat="22.313000" lon="103.765350">
<ele>2818.470703</ele>
<time>2011-04-24T03:15:23Z</time>
<desc>lat.=22.313000, lon.=103.765350, Alt.=2818.470703m. Speed=2.232000m/h.</desc>
<speed>0.620000</speed>
</trkpt>
<trkpt lat="22.313007" lon="103.765366">
<ele>2818.533203</ele>
<time>2011-04-24T03:15:28Z</time>
<desc>lat.=22.313007, lon.=103.765366, Alt.=2818.533203m. Speed=0.864000m/h.</desc>
<speed>0.240000</speed>
</trkpt>
<trkpt lat="22.313019" lon="103.765373">
<ele>2818.658203</ele>
<time>2011-04-24T03:15:33Z</time>
<desc>lat.=22.313019, lon.=103.765373, Alt.=2818.658203m. Speed=0.540000m/h.</desc>
<speed>0.150000</speed>
</trkpt>
<trkpt lat="22.313009" lon="103.765366">
<ele>2819.220703</ele>
<time>2011-04-24T03:15:38Z</time>
<desc>lat.=22.313009, lon.=103.765366, Alt.=2819.220703m. Speed=1.332000m/h.</desc>
<speed>0.370000</speed>
</trkpt>
<trkpt lat="22.313007" lon="103.765366">
<ele>2820.470703</ele>
<time>2011-04-24T03:15:43Z</time>
<desc>lat.=22.313007, lon.=103.765366, Alt.=2820.470703m. Speed=0.900000m/h.</desc>
<speed>0.250000</speed>
</trkpt>
<trkpt lat="22.312984" lon="103.765404">
<ele>2822.095703</ele>
<time>2011-04-24T03:15:48Z</time>
<desc>lat.=22.312984, lon.=103.765404, Alt.=2822.095703m. Speed=3.168000m/h.</desc>
<speed>0.880000</speed>
</trkpt>
<trkpt lat="22.312984" lon="103.765465">
<ele>2825.470703</ele>
<time>2011-04-24T03:15:53Z</time>
<desc>lat.=22.312984, lon.=103.765465, Alt.=2825.470703m. Speed=4.068000m/h.</desc>
<speed>1.130000</speed>
</trkpt>
<trkpt lat="22.312990" lon="103.765511">
<ele>2829.033203</ele>
<time>2011-04-24T03:15:58Z</time>
<desc>lat.=22.312990, lon.=103.765511, Alt.=2829.033203m. Speed=2.376000m/h.</desc>
<speed>0.660000</speed>
</trkpt>
<trkpt lat="22.313005" lon="103.765526">
<ele>2831.033203</ele>
<time>2011-04-24T03:16:03Z</time>
<desc>lat.=22.313005, lon.=103.765526, Alt.=2831.033203m. Speed=1.800000m/h.</desc>
<speed>0.500000</speed>
</trkpt>
<trkpt lat="22.312988" lon="103.765541">
<ele>2831.595703</ele>
<time>2011-04-24T03:16:08Z</time>
<desc>lat.=22.312988, lon.=103.765541, Alt.=2831.595703m. Speed=1.512000m/h.</desc>
<speed>0.420000</speed>
</trkpt>
<trkpt lat="22.312996" lon="103.765556">
<ele>2832.720703</ele>
<time>2011-04-24T03:16:13Z</time>
<desc>lat.=22.312996, lon.=103.765556, Alt.=2832.720703m. Speed=0.648000m/h.</desc>
<speed>0.180000</speed>
</trkpt>
<trkpt lat="22.313004" lon="103.765564">
<ele>2833.470703</ele>
<time>2011-04-24T03:16:18Z</time>
<desc>lat.=22.313004, lon.=103.765564, Alt.=2833.470703m. Speed=1.548000m/h.</desc>
<speed>0.430000</speed>
</trkpt>
<trkpt lat="22.313000" lon="103.765587">
<ele>2834.845703</ele>
<time>2011-04-24T03:16:23Z</time>
<desc>lat.=22.313000, lon.=103.765587, Alt.=2834.845703m. Speed=2.952000m/h.</desc>
<speed>0.820000</speed>
</trkpt>
<trkpt lat="22.312979" lon="103.765625">
<ele>2835.595703</ele>
<time>2011-04-24T03:16:28Z</time>
<desc>lat.=22.312979, lon.=103.765625, Alt.=2835.595703m. Speed=2.628000m/h.</desc>
<speed>0.730000</speed>
</trkpt>
<trkpt lat="22.312962" lon="103.765648">
<ele>2836.220703</ele>
<time>2011-04-24T03:16:33Z</time>
<desc>lat.=22.312962, lon.=103.765648, Alt.=2836.220703m. Speed=3.132000m/h.</desc>
<speed>0.870000</speed>
</trkpt>
<trkpt lat="22.312958" lon="103.765663">
<ele>2837.470703</ele>
<time>2011-04-24T03:16:38Z</time>
<desc>lat.=22.312958, lon.=103.765663, Alt.=2837.470703m. Speed=2.088000m/h.</desc>
<speed>0.580000</speed>
</trkpt>
<trkpt lat="22.312944" lon="103.765694">
<ele>2838.220703</ele>
<time>2011-04-24T03:16:43Z</time>
<desc>lat.=22.312944, lon.=103.765694, Alt.=2838.220703m. Speed=2.052000m/h.</desc>
<speed>0.570000</speed>
</trkpt>
<trkpt lat="22.312937" lon="103.765694">
<ele>2838.283203</ele>
<time>2011-04-24T03:16:48Z</time>
<desc>lat.=22.312937, lon.=103.765694, Alt.=2838.283203m. Speed=0.360000m/h.</desc>
<speed>0.100000</speed>
</trkpt>
<trkpt lat="22.312927" lon="103.765709">
<ele>2838.220703</ele>
<time>2011-04-24T03:16:53Z</time>
<desc>lat.=22.312927, lon.=103.765709, Alt.=2838.220703m. Speed=3.204000m/h.</desc>
<speed>0.890000</speed>
</trkpt>
<trkpt lat="22.312901" lon="103.765739">
<ele>2838.720703</ele>
<time>2011-04-24T03:16:58Z</time>
<desc>lat.=22.312901, lon.=103.765739, Alt.=2838.720703m. Speed=3.456000m/h.</desc>
<speed>0.960000</speed>
</trkpt>
<trkpt lat="22.312874" lon="103.765762">
<ele>2838.908203</ele>
<time>2011-04-24T03:17:03Z</time>
<desc>lat.=22.312874, lon.=103.765762, Alt.=2838.908203m. Speed=2.052000m/h.</desc>
<speed>0.570000</speed>
</trkpt>
<trkpt lat="22.312851" lon="103.765778">
<ele>2839.345703</ele>
<time>2011-04-24T03:17:08Z</time>
<desc>lat.=22.312851, lon.=103.765778, Alt.=2839.345703m. Speed=1.908000m/h.</desc>
<speed>0.530000</speed>
</trkpt>
<trkpt lat="22.312822" lon="103.765793">
<ele>2839.658203</ele>
<time>2011-04-24T03:17:13Z</time>
<desc>lat.=22.312822, lon.=103.765793, Alt.=2839.658203m. Speed=1.620000m/h.</desc>
<speed>0.450000</speed>
</trkpt>
<trkpt lat="22.312830" lon="103.765793">
<ele>2840.408203</ele>
<time>2011-04-24T03:17:18Z</time>
<desc>lat.=22.312830, lon.=103.765793, Alt.=2840.408203m. Speed=1.008000m/h.</desc>
<speed>0.280000</speed>
</trkpt>
<trkpt lat="22.312811" lon="103.765793">
<ele>2840.408203</ele>
<time>2011-04-24T03:17:23Z</time>
<desc>lat.=22.312811, lon.=103.765793, Alt.=2840.408203m. Speed=1.008000m/h.</desc>
<speed>0.280000</speed>
</trkpt>
<trkpt lat="22.312801" lon="103.765800">
<ele>2840.533203</ele>
<time>2011-04-24T03:17:28Z</time>
<desc>lat.=22.312801, lon.=103.765800, Alt.=2840.533203m. Speed=0.432000m/h.</desc>
<speed>0.120000</speed>
</trkpt>
<trkpt lat="22.312798" lon="103.765808">
<ele>2840.595703</ele>
<time>2011-04-24T03:17:33Z</time>
<desc>lat.=22.312798, lon.=103.765808, Alt.=2840.595703m. Speed=0.396000m/h.</desc>
<speed>0.110000</speed>
</trkpt>
<trkpt lat="22.312792" lon="103.765816">
<ele>2840.720703</ele>
<time>2011-04-24T03:17:38Z</time>
<desc>lat.=22.312792, lon.=103.765816, Alt.=2840.720703m. Speed=0.648000m/h.</desc>
<speed>0.180000</speed>
</trkpt>
<trkpt lat="22.312792" lon="103.765823">
<ele>2840.783203</ele>
<time>2011-04-24T03:17:43Z</time>
<desc>lat.=22.312792, lon.=103.765823, Alt.=2840.783203m. Speed=0.576000m/h.</desc>
<speed>0.160000</speed>
</trkpt>
<trkpt lat="22.312790" lon="103.765823">
<ele>2840.908203</ele>
<time>2011-04-24T03:17:48Z</time>
<desc>lat.=22.312790, lon.=103.765823, Alt.=2840.908203m. Speed=0.756000m/h.</desc>
<speed>0.210000</speed>
</trkpt>
<trkpt lat="22.312790" lon="103.765854">
<ele>2841.345703</ele>
<time>2011-04-24T03:17:53Z</time>
<desc>lat.=22.312790, lon.=103.765854, Alt.=2841.345703m. Speed=2.088000m/h.</desc>
<speed>0.580000</speed>
</trkpt>
<trkpt lat="22.312796" lon="103.765892">
<ele>2841.658203</ele>
<time>2011-04-24T03:17:58Z</time>
<desc>lat.=22.312796, lon.=103.765892, Alt.=2841.658203m. Speed=3.312000m/h.</desc>
<speed>0.920000</speed>
</trkpt>
<trkpt lat="22.312782" lon="103.765938">
<ele>2842.158203</ele>
<time>2011-04-24T03:18:03Z</time>
<desc>lat.=22.312782, lon.=103.765938, Alt.=2842.158203m. Speed=3.384000m/h.</desc>
<speed>0.940000</speed>
</trkpt>
<trkpt lat="22.312767" lon="103.765984">
<ele>2842.783203</ele>
<time>2011-04-24T03:18:08Z</time>
<desc>lat.=22.312767, lon.=103.765984, Alt.=2842.783203m. Speed=3.888000m/h.</desc>
<speed>1.080000</speed>
</trkpt>
<trkpt lat="22.312773" lon="103.766037">
<ele>2846.783203</ele>
<time>2011-04-24T03:18:13Z</time>
<desc>lat.=22.312773, lon.=103.766037, Alt.=2846.783203m. Speed=4.356000m/h.</desc>
<speed>1.210000</speed>
</trkpt>
<trkpt lat="22.312786" lon="103.766068">
<ele>2848.720703</ele>
<time>2011-04-24T03:18:18Z</time>
<desc>lat.=22.312786, lon.=103.766068, Alt.=2848.720703m. Speed=2.232000m/h.</desc>
<speed>0.620000</speed>
</trkpt>
<trkpt lat="22.312796" lon="103.766083">
<ele>2849.658203</ele>
<time>2011-04-24T03:18:23Z</time>
<desc>lat.=22.312796, lon.=103.766083, Alt.=2849.658203m. Speed=1.476000m/h.</desc>
<speed>0.410000</speed>
</trkpt>
<trkpt lat="22.312819" lon="103.766136">
<ele>2850.658203</ele>
<time>2011-04-24T03:18:28Z</time>
<desc>lat.=22.312819, lon.=103.766136, Alt.=2850.658203m. Speed=5.148000m/h.</desc>
<speed>1.430000</speed>
</trkpt>
<trkpt lat="22.312813" lon="103.766220">
<ele>2850.720703</ele>
<time>2011-04-24T03:18:33Z</time>
<desc>lat.=22.312813, lon.=103.766220, Alt.=2850.720703m. Speed=5.112000m/h.</desc>
<speed>1.420000</speed>
</trkpt>
<trkpt lat="22.312798" lon="103.766289">
<ele>2851.158203</ele>
<time>2011-04-24T03:18:38Z</time>
<desc>lat.=22.312798, lon.=103.766289, Alt.=2851.158203m. Speed=1.692000m/h.</desc>
<speed>0.470000</speed>
</trkpt>
<trkpt lat="22.312773" lon="103.766312">
<ele>2850.408203</ele>
<time>2011-04-24T03:18:43Z</time>
<desc>lat.=22.312773, lon.=103.766312, Alt.=2850.408203m. Speed=2.916000m/h.</desc>
<speed>0.810000</speed>
</trkpt>
<trkpt lat="22.312761" lon="103.766380">
<ele>2850.033203</ele>
<time>2011-04-24T03:18:48Z</time>
<desc>lat.=22.312761, lon.=103.766380, Alt.=2850.033203m. Speed=2.412000m/h.</desc>
<speed>0.670000</speed>
</trkpt>
<trkpt lat="22.312757" lon="103.766388">
<ele>2849.783203</ele>
<time>2011-04-24T03:18:53Z</time>
<desc>lat.=22.312757, lon.=103.766388, Alt.=2849.783203m. Speed=0.720000m/h.</desc>
<speed>0.200000</speed>
</trkpt>
<trkpt lat="22.312754" lon="103.766388">
<ele>2849.720703</ele>
<time>2011-04-24T03:18:58Z</time>
<desc>lat.=22.312754, lon.=103.766388, Alt.=2849.720703m. Speed=0.972000m/h.</desc>
<speed>0.270000</speed>
</trkpt>
<trkpt lat="22.312752" lon="103.766396">
<ele>2849.658203</ele>
<time>2011-04-24T03:19:03Z</time>
<desc>lat.=22.312752, lon.=103.766396, Alt.=2849.658203m. Speed=1.332000m/h.</desc>
<speed>0.370000</speed>
</trkpt>
<trkpt lat="22.312744" lon="103.766434">
<ele>2850.220703</ele>
<time>2011-04-24T03:19:08Z</time>
<desc>lat.=22.312744, lon.=103.766434, Alt.=2850.220703m. Speed=4.284000m/h.</desc>
<speed>1.190000</speed>
</trkpt>
<trkpt lat="22.312731" lon="103.766479">
<ele>2850.283203</ele>
<time>2011-04-24T03:19:13Z</time>
<desc>lat.=22.312731, lon.=103.766479, Alt.=2850.283203m. Speed=2.160000m/h.</desc>
<speed>0.600000</speed>
</trkpt>
<trkpt lat="22.312719" lon="103.766541">
<ele>2850.970703</ele>
<time>2011-04-24T03:19:18Z</time>
<desc>lat.=22.312719, lon.=103.766541, Alt.=2850.970703m. Speed=3.168000m/h.</desc>
<speed>0.880000</speed>
</trkpt>
<trkpt lat="22.312702" lon="103.766579">
<ele>2850.970703</ele>
<time>2011-04-24T03:19:23Z</time>
<desc>lat.=22.312702, lon.=103.766579, Alt.=2850.970703m. Speed=2.268000m/h.</desc>
<speed>0.630000</speed>
</trkpt>
<trkpt lat="22.312681" lon="103.766624">
<ele>2850.783203</ele>
<time>2011-04-24T03:19:28Z</time>
<desc>lat.=22.312681, lon.=103.766624, Alt.=2850.783203m. Speed=2.664000m/h.</desc>
<speed>0.740000</speed>
</trkpt>
<trkpt lat="22.312664" lon="103.766670">
<ele>2850.095703</ele>
<time>2011-04-24T03:19:33Z</time>
<desc>lat.=22.312664, lon.=103.766670, Alt.=2850.095703m. Speed=4.932000m/h.</desc>
<speed>1.370000</speed>
</trkpt>
<trkpt lat="22.312641" lon="103.766701">
<ele>2849.470703</ele>
<time>2011-04-24T03:19:38Z</time>
<desc>lat.=22.312641, lon.=103.766701, Alt.=2849.470703m. Speed=2.160000m/h.</desc>
<speed>0.600000</speed>
</trkpt>
<trkpt lat="22.312620" lon="103.766716">
<ele>2848.720703</ele>
<time>2011-04-24T03:19:43Z</time>
<desc>lat.=22.312620, lon.=103.766716, Alt.=2848.720703m. Speed=1.836000m/h.</desc>
<speed>0.510000</speed>
</trkpt>
<trkpt lat="22.312613" lon="103.766708">
<ele>2849.470703</ele>
<time>2011-04-24T03:19:48Z</time>
<desc>lat.=22.312613, lon.=103.766708, Alt.=2849.470703m. Speed=2.160000m/h.</desc>
<speed>0.600000</speed>
</trkpt>
<trkpt lat="22.312607" lon="103.766724">
<ele>2850.345703</ele>
<time>2011-04-24T03:19:53Z</time>
<desc>lat.=22.312607, lon.=103.766724, Alt.=2850.345703m. Speed=0.972000m/h.</desc>
<speed>0.270000</speed>
</trkpt>
<trkpt lat="22.312582" lon="103.766731">
<ele>2850.095703</ele>
<time>2011-04-24T03:19:58Z</time>
<desc>lat.=22.312582, lon.=103.766731, Alt.=2850.095703m. Speed=1.944000m/h.</desc>
<speed>0.540000</speed>
</trkpt>
<trkpt lat="22.312555" lon="103.766716">
<ele>2850.470703</ele>
<time>2011-04-24T03:20:03Z</time>
<desc>lat.=22.312555, lon.=103.766716, Alt.=2850.470703m. Speed=2.052000m/h.</desc>
<speed>0.570000</speed>
</trkpt>
<trkpt lat="22.312532" lon="103.766708">
<ele>2850.783203</ele>
<time>2011-04-24T03:20:08Z</time>
<desc>lat.=22.312532, lon.=103.766708, Alt.=2850.783203m. Speed=1.764000m/h.</desc>
<speed>0.490000</speed>
</trkpt>
<trkpt lat="22.312515" lon="103.766716">
<ele>2850.720703</ele>
<time>2011-04-24T03:20:13Z</time>
<desc>lat.=22.312515, lon.=103.766716, Alt.=2850.720703m. Speed=1.620000m/h.</desc>
<speed>0.450000</speed>
</trkpt>
<trkpt lat="22.312471" lon="103.766731">
<ele>2850.783203</ele>
<time>2011-04-24T03:20:18Z</time>
<desc>lat.=22.312471, lon.=103.766731, Alt.=2850.783203m. Speed=3.024000m/h.</desc>
<speed>0.840000</speed>
</trkpt>
<trkpt lat="22.312441" lon="103.766731">
<ele>2850.595703</ele>
<time>2011-04-24T03:20:23Z</time>
<desc>lat.=22.312441, lon.=103.766731, Alt.=2850.595703m. Speed=2.484000m/h.</desc>
<speed>0.690000</speed>
</trkpt>
<trkpt lat="22.312407" lon="103.766739">
<ele>2850.345703</ele>
<time>2011-04-24T03:20:28Z</time>
<desc>lat.=22.312407, lon.=103.766739, Alt.=2850.345703m. Speed=4.248000m/h.</desc>
<speed>1.180000</speed>
</trkpt>
<trkpt lat="22.312365" lon="103.766747">
<ele>2850.158203</ele>
<time>2011-04-24T03:20:33Z</time>
<desc>lat.=22.312365, lon.=103.766747, Alt.=2850.158203m. Speed=0.900000m/h.</desc>
<speed>0.250000</speed>
</trkpt>
<trkpt lat="22.312328" lon="103.766747">
<ele>2850.033203</ele>
<time>2011-04-24T03:20:38Z</time>
<desc>lat.=22.312328, lon.=103.766747, Alt.=2850.033203m. Speed=1.620000m/h.</desc>
<speed>0.450000</speed>
</trkpt>
<trkpt lat="22.312326" lon="103.766754">
<ele>2849.783203</ele>
<time>2011-04-24T03:20:43Z</time>
<desc>lat.=22.312326, lon.=103.766754, Alt.=2849.783203m. Speed=0.720000m/h.</desc>
<speed>0.200000</speed>
</trkpt>
<trkpt lat="22.312269" lon="103.766716">
<ele>2849.845703</ele>
<time>2011-04-24T03:20:48Z</time>
<desc>lat.=22.312269, lon.=103.766716, Alt.=2849.845703m. Speed=3.132000m/h.</desc>
<speed>0.870000</speed>
</trkpt>
<trkpt lat="22.312231" lon="103.766716">
<ele>2849.970703</ele>
<time>2011-04-24T03:20:53Z</time>
<desc>lat.=22.312231, lon.=103.766716, Alt.=2849.970703m. Speed=3.096000m/h.</desc>
<speed>0.860000</speed>
</trkpt>
<trkpt lat="22.312197" lon="103.766708">
<ele>2849.970703</ele>
<time>2011-04-24T03:20:58Z</time>
<desc>lat.=22.312197, lon.=103.766708, Alt.=2849.970703m. Speed=2.952000m/h.</desc>
<speed>0.820000</speed>
</trkpt>
<trkpt lat="22.312149" lon="103.766693">
<ele>2849.845703</ele>
<time>2011-04-24T03:21:03Z</time>
<desc>lat.=22.312149, lon.=103.766693, Alt.=2849.845703m. Speed=3.456000m/h.</desc>
<speed>0.960000</speed>
</trkpt>
<trkpt lat="22.312122" lon="103.766685">
<ele>2849.783203</ele>
<time>2011-04-24T03:21:08Z</time>
<desc>lat.=22.312122, lon.=103.766685, Alt.=2849.783203m. Speed=1.512000m/h.</desc>
<speed>0.420000</speed>
</trkpt>
<trkpt lat="22.312145" lon="103.766685">
<ele>2849.595703</ele>
<time>2011-04-24T03:21:13Z</time>
<desc>lat.=22.312145, lon.=103.766685, Alt.=2849.595703m. Speed=1.296000m/h.</desc>
<speed>0.360000</speed>
</trkpt>
<trkpt lat="22.312124" lon="103.766701">
<ele>2849.345703</ele>
<time>2011-04-24T03:21:18Z</time>
<desc>lat.=22.312124, lon.=103.766701, Alt.=2849.345703m. Speed=1.296000m/h.</desc>
<speed>0.360000</speed>
</trkpt>
<trkpt lat="22.312092" lon="103.766701">
<ele>2849.283203</ele>
<time>2011-04-24T03:21:23Z</time>
<desc>lat.=22.312092, lon.=103.766701, Alt.=2849.283203m. Speed=1.620000m/h.</desc>
<speed>0.450000</speed>
</trkpt>
<trkpt lat="22.312061" lon="103.766701">
<ele>2849.095703</ele>
<time>2011-04-24T03:21:28Z</time>
<desc>lat.=22.312061, lon.=103.766701, Alt.=2849.095703m. Speed=1.872000m/h.</desc>
<speed>0.520000</speed>
</trkpt>
<trkpt lat="22.312000" lon="103.766678">
<ele>2848.970703</ele>
<time>2011-04-24T03:21:33Z</time>
<desc>lat.=22.312000, lon.=103.766678, Alt.=2848.970703m. Speed=3.024000m/h.</desc>
<speed>0.840000</speed>
</trkpt>
<trkpt lat="22.312000" lon="103.766701">
<ele>2848.845703</ele>
<time>2011-04-24T03:21:38Z</time>
<desc>lat.=22.312000, lon.=103.766701, Alt.=2848.845703m. Speed=1.836000m/h.</desc>
<speed>0.510000</speed>
</trkpt>
<trkpt lat="22.311995" lon="103.766724">
<ele>2849.033203</ele>
<time>2011-04-24T03:21:43Z</time>
<desc>lat.=22.311995, lon.=103.766724, Alt.=2849.033203m. Speed=1.368000m/h.</desc>
<speed>0.380000</speed>
</trkpt>
<trkpt lat="22.311993" lon="103.766823">
<ele>2850.720703</ele>
<time>2011-04-24T03:21:48Z</time>
<desc>lat.=22.311993, lon.=103.766823, Alt.=2850.720703m. Speed=2.772000m/h.</desc>
<speed>0.770000</speed>
</trkpt>
<trkpt lat="22.311979" lon="103.766922">
<ele>2852.783203</ele>
<time>2011-04-24T03:21:53Z</time>
<desc>lat.=22.311979, lon.=103.766922, Alt.=2852.783203m. Speed=9.144000m/h.</desc>
<speed>2.540000</speed>
</trkpt>
<trkpt lat="22.312012" lon="103.766960">
<ele>2855.220703</ele>
<time>2011-04-24T03:21:58Z</time>
<desc>lat.=22.312012, lon.=103.766960, Alt.=2855.220703m. Speed=3.528000m/h.</desc>
<speed>0.980000</speed>
</trkpt>
<trkpt lat="22.312016" lon="103.766991">
<ele>2857.408203</ele>
<time>2011-04-24T03:22:03Z</time>
<desc>lat.=22.312016, lon.=103.766991, Alt.=2857.408203m. Speed=4.356000m/h.</desc>
<speed>1.210000</speed>
</trkpt>
<trkpt lat="22.312008" lon="103.767059">
<ele>2859.470703</ele>
<time>2011-04-24T03:22:08Z</time>
<desc>lat.=22.312008, lon.=103.767059, Alt.=2859.470703m. Speed=4.824000m/h.</desc>
<speed>1.340000</speed>
</trkpt>
<trkpt lat="22.312016" lon="103.767097">
<ele>2860.533203</ele>
<time>2011-04-24T03:22:13Z</time>
<desc>lat.=22.312016, lon.=103.767097, Alt.=2860.533203m. Speed=5.040000m/h.</desc>
<speed>1.400000</speed>
</trkpt>
<trkpt lat="22.312010" lon="103.767151">
<ele>2860.908203</ele>
<time>2011-04-24T03:22:18Z</time>
<desc>lat.=22.312010, lon.=103.767151, Alt.=2860.908203m. Speed=4.068000m/h.</desc>
<speed>1.130000</speed>
</trkpt>
<trkpt lat="22.311981" lon="103.767181">
<ele>2861.533203</ele>
<time>2011-04-24T03:22:23Z</time>
<desc>lat.=22.311981, lon.=103.767181, Alt.=2861.533203m. Speed=2.088000m/h.</desc>
<speed>0.580000</speed>
</trkpt>
<trkpt lat="22.311983" lon="103.767212">
<ele>2861.595703</ele>
<time>2011-04-24T03:22:28Z</time>
<desc>lat.=22.311983, lon.=103.767212, Alt.=2861.595703m. Speed=2.628000m/h.</desc>
<speed>0.730000</speed>
</trkpt>
<trkpt lat="22.311995" lon="103.767250">
<ele>2862.908203</ele>
<time>2011-04-24T03:22:33Z</time>
<desc>lat.=22.311995, lon.=103.767250, Alt.=2862.908203m. Speed=2.664000m/h.</desc>
<speed>0.740000</speed>
</trkpt>
<trkpt lat="22.311989" lon="103.767281">
<ele>2863.970703</ele>
<time>2011-04-24T03:22:38Z</time>
<desc>lat.=22.311989, lon.=103.767281, Alt.=2863.970703m. Speed=3.276000m/h.</desc>
<speed>0.910000</speed>
</trkpt>
<trkpt lat="22.311974" lon="103.767334">
<ele>2863.720703</ele>
<time>2011-04-24T03:22:43Z</time>
<desc>lat.=22.311974, lon.=103.767334, Alt.=2863.720703m. Speed=1.872000m/h.</desc>
<speed>0.520000</speed>
</trkpt>
<trkpt lat="22.311970" lon="103.767357">
<ele>2863.345703</ele>
<time>2011-04-24T03:22:48Z</time>
<desc>lat.=22.311970, lon.=103.767357, Alt.=2863.345703m. Speed=0.684000m/h.</desc>
<speed>0.190000</speed>
</trkpt>
<trkpt lat="22.311970" lon="103.767395">
<ele>2862.908203</ele>
<time>2011-04-24T03:22:53Z</time>
<desc>lat.=22.311970, lon.=103.767395, Alt.=2862.908203m. Speed=1.908000m/h.</desc>
<speed>0.530000</speed>
</trkpt>
<trkpt lat="22.311962" lon="103.767410">
<ele>2862.908203</ele>
<time>2011-04-24T03:22:58Z</time>
<desc>lat.=22.311962, lon.=103.767410, Alt.=2862.908203m. Speed=2.124000m/h.</desc>
<speed>0.590000</speed>
</trkpt>
<trkpt lat="22.311964" lon="103.767433">
<ele>2862.783203</ele>
<time>2011-04-24T03:23:03Z</time>
<desc>lat.=22.311964, lon.=103.767433, Alt.=2862.783203m. Speed=3.204000m/h.</desc>
<speed>0.890000</speed>
</trkpt>
<trkpt lat="22.311985" lon="103.767471">
<ele>2863.720703</ele>
<time>2011-04-24T03:23:08Z</time>
<desc>lat.=22.311985, lon.=103.767471, Alt.=2863.720703m. Speed=2.520000m/h.</desc>
<speed>0.700000</speed>
</trkpt>
<trkpt lat="22.311993" lon="103.767502">
<ele>2865.408203</ele>
<time>2011-04-24T03:23:13Z</time>
<desc>lat.=22.311993, lon.=103.767502, Alt.=2865.408203m. Speed=1.944000m/h.</desc>
<speed>0.540000</speed>
</trkpt>
<trkpt lat="22.311972" lon="103.767532">
<ele>2867.408203</ele>
<time>2011-04-24T03:23:18Z</time>
<desc>lat.=22.311972, lon.=103.767532, Alt.=2867.408203m. Speed=3.168000m/h.</desc>
<speed>0.880000</speed>
</trkpt>
<trkpt lat="22.311960" lon="103.767570">
<ele>2868.220703</ele>
<time>2011-04-24T03:23:23Z</time>
<desc>lat.=22.311960, lon.=103.767570, Alt.=2868.220703m. Speed=3.816000m/h.</desc>
<speed>1.060000</speed>
</trkpt>
<trkpt lat="22.311928" lon="103.767601">
<ele>2867.845703</ele>
<time>2011-04-24T03:23:28Z</time>
<desc>lat.=22.311928, lon.=103.767601, Alt.=2867.845703m. Speed=2.160000m/h.</desc>
<speed>0.600000</speed>
</trkpt>
<trkpt lat="22.311878" lon="103.767616">
<ele>2867.220703</ele>
<time>2011-04-24T03:23:33Z</time>
<desc>lat.=22.311878, lon.=103.767616, Alt.=2867.220703m. Speed=4.284000m/h.</desc>
<speed>1.190000</speed>
</trkpt>
<trkpt lat="22.311846" lon="103.767624">
<ele>2866.533203</ele>
<time>2011-04-24T03:23:38Z</time>
<desc>lat.=22.311846, lon.=103.767624, Alt.=2866.533203m. Speed=4.572000m/h.</desc>
<speed>1.270000</speed>
</trkpt>
<trkpt lat="22.311815" lon="103.767647">
<ele>2866.345703</ele>
<time>2011-04-24T03:23:43Z</time>
<desc>lat.=22.311815, lon.=103.767647, Alt.=2866.345703m. Speed=3.096000m/h.</desc>
<speed>0.860000</speed>
</trkpt>
<trkpt lat="22.311787" lon="103.767677">
<ele>2866.408203</ele>
<time>2011-04-24T03:23:48Z</time>
<desc>lat.=22.311787, lon.=103.767677, Alt.=2866.408203m. Speed=1.584000m/h.</desc>
<speed>0.440000</speed>
</trkpt>
<trkpt lat="22.311764" lon="103.767700">
<ele>2866.470703</ele>
<time>2011-04-24T03:23:53Z</time>
<desc>lat.=22.311764, lon.=103.767700, Alt.=2866.470703m. Speed=2.556000m/h.</desc>
<speed>0.710000</speed>
</trkpt>
<trkpt lat="22.311714" lon="103.767700">
<ele>2866.470703</ele>
<time>2011-04-24T03:23:58Z</time>
<desc>lat.=22.311714, lon.=103.767700, Alt.=2866.470703m. Speed=4.320000m/h.</desc>
<speed>1.200000</speed>
</trkpt>
<trkpt lat="22.311693" lon="103.767715">
<ele>2866.158203</ele>
<time>2011-04-24T03:24:03Z</time>
<desc>lat.=22.311693, lon.=103.767715, Alt.=2866.158203m. Speed=3.420000m/h.</desc>
<speed>0.950000</speed>
</trkpt>
<trkpt lat="22.311649" lon="103.767731">
<ele>2866.345703</ele>
<time>2011-04-24T03:24:08Z</time>
<desc>lat.=22.311649, lon.=103.767731, Alt.=2866.345703m. Speed=2.484000m/h.</desc>
<speed>0.690000</speed>
</trkpt>
<trkpt lat="22.311646" lon="103.767769">
<ele>2866.220703</ele>
<time>2011-04-24T03:24:13Z</time>
<desc>lat.=22.311646, lon.=103.767769, Alt.=2866.220703m. Speed=4.716000m/h.</desc>
<speed>1.310000</speed>
</trkpt>
<trkpt lat="22.311628" lon="103.767838">
<ele>2866.908203</ele>
<time>2011-04-24T03:24:18Z</time>
<desc>lat.=22.311628, lon.=103.767838, Alt.=2866.908203m. Speed=4.464000m/h.</desc>
<speed>1.240000</speed>
</trkpt>
<trkpt lat="22.311630" lon="103.767891">
<ele>2868.720703</ele>
<time>2011-04-24T03:24:23Z</time>
<desc>lat.=22.311630, lon.=103.767891, Alt.=2868.720703m. Speed=5.976000m/h.</desc>
<speed>1.660000</speed>
</trkpt>
<trkpt lat="22.311623" lon="103.767952">
<ele>2870.220703</ele>
<time>2011-04-24T03:24:28Z</time>
<desc>lat.=22.311623, lon.=103.767952, Alt.=2870.220703m. Speed=4.212000m/h.</desc>
<speed>1.170000</speed>
</trkpt>
<trkpt lat="22.311626" lon="103.767998">
<ele>2871.783203</ele>
<time>2011-04-24T03:24:33Z</time>
<desc>lat.=22.311626, lon.=103.767998, Alt.=2871.783203m. Speed=4.284000m/h.</desc>
<speed>1.190000</speed>
</trkpt>
<trkpt lat="22.311625" lon="103.768044">
<ele>2872.720703</ele>
<time>2011-04-24T03:24:38Z</time>
<desc>lat.=22.311625, lon.=103.768044, Alt.=2872.720703m. Speed=3.420000m/h.</desc>
<speed>0.950000</speed>
</trkpt>
<trkpt lat="22.311604" lon="103.768082">
<ele>2873.845703</ele>
<time>2011-04-24T03:24:43Z</time>
<desc>lat.=22.311604, lon.=103.768082, Alt.=2873.845703m. Speed=3.924000m/h.</desc>
<speed>1.090000</speed>
</trkpt>
<trkpt lat="22.311569" lon="103.768097">
<ele>2874.720703</ele>
<time>2011-04-24T03:24:48Z</time>
<desc>lat.=22.311569, lon.=103.768097, Alt.=2874.720703m. Speed=3.708000m/h.</desc>
<speed>1.030000</speed>
</trkpt>
<trkpt lat="22.311535" lon="103.768120">
<ele>2876.158203</ele>
<time>2011-04-24T03:24:53Z</time>
<desc>lat.=22.311535, lon.=103.768120, Alt.=2876.158203m. Speed=3.276000m/h.</desc>
<speed>0.910000</speed>
</trkpt>
<trkpt lat="22.311504" lon="103.768127">
<ele>2876.720703</ele>
<time>2011-04-24T03:24:58Z</time>
<desc>lat.=22.311504, lon.=103.768127, Alt.=2876.720703m. Speed=2.700000m/h.</desc>
<speed>0.750000</speed>
</trkpt>
<trkpt lat="22.311476" lon="103.768158">
<ele>2877.845703</ele>
<time>2011-04-24T03:25:03Z</time>
<desc>lat.=22.311476, lon.=103.768158, Alt.=2877.845703m. Speed=2.916000m/h.</desc>
<speed>0.810000</speed>
</trkpt>
<trkpt lat="22.311443" lon="103.768181">
<ele>2878.783203</ele>
<time>2011-04-24T03:25:08Z</time>
<desc>lat.=22.311443, lon.=103.768181, Alt.=2878.783203m. Speed=1.800000m/h.</desc>
<speed>0.500000</speed>
</trkpt>
<trkpt lat="22.311411" lon="103.768188">
<ele>2879.595703</ele>
<time>2011-04-24T03:25:13Z</time>
<desc>lat.=22.311411, lon.=103.768188, Alt.=2879.595703m. Speed=2.808000m/h.</desc>
<speed>0.780000</speed>
</trkpt>
<trkpt lat="22.311377" lon="103.768188">
<ele>2880.595703</ele>
<time>2011-04-24T03:25:18Z</time>
<desc>lat.=22.311377, lon.=103.768188, Alt.=2880.595703m. Speed=2.556000m/h.</desc>
<speed>0.710000</speed>
</trkpt>
<trkpt lat="22.311377" lon="103.768196">
<ele>2880.970703</ele>
<time>2011-04-24T03:25:23Z</time>
<desc>lat.=22.311377, lon.=103.768196, Alt.=2880.970703m. Speed=0.684000m/h.</desc>
<speed>0.190000</speed>
</trkpt>
<trkpt lat="22.311331" lon="103.768188">
<ele>2881.595703</ele>
<time>2011-04-24T03:25:28Z</time>
<desc>lat.=22.311331, lon.=103.768188, Alt.=2881.595703m. Speed=2.196000m/h.</desc>
<speed>0.610000</speed>
</trkpt>
<trkpt lat="22.311285" lon="103.768188">
<ele>2882.095703</ele>
<time>2011-04-24T03:25:33Z</time>
<desc>lat.=22.311285, lon.=103.768188, Alt.=2882.095703m. Speed=2.988000m/h.</desc>
<speed>0.830000</speed>
</trkpt>
<trkpt lat="22.311241" lon="103.768219">
<ele>2882.783203</ele>
<time>2011-04-24T03:25:38Z</time>
<desc>lat.=22.311241, lon.=103.768219, Alt.=2882.783203m. Speed=2.700000m/h.</desc>
<speed>0.750000</speed>
</trkpt>
<trkpt lat="22.311228" lon="103.768242">
<ele>2882.845703</ele>
<time>2011-04-24T03:25:43Z</time>
<desc>lat.=22.311228, lon.=103.768242, Alt.=2882.845703m. Speed=2.736000m/h.</desc>
<speed>0.760000</speed>
</trkpt>
<trkpt lat="22.311188" lon="103.768265">
<ele>2883.283203</ele>
<time>2011-04-24T03:25:48Z</time>
<desc>lat.=22.311188, lon.=103.768265, Alt.=2883.283203m. Speed=3.348000m/h.</desc>
<speed>0.930000</speed>
</trkpt>
<trkpt lat="22.311163" lon="103.768272">
<ele>2883.720703</ele>
<time>2011-04-24T03:25:53Z</time>
<desc>lat.=22.311163, lon.=103.768272, Alt.=2883.720703m. Speed=0.972000m/h.</desc>
<speed>0.270000</speed>
</trkpt>
<trkpt lat="22.311134" lon="103.768288">
<ele>2884.470703</ele>
<time>2011-04-24T03:25:58Z</time>
<desc>lat.=22.311134, lon.=103.768288, Alt.=2884.470703m. Speed=1.764000m/h.</desc>
<speed>0.490000</speed>
</trkpt>
<trkpt lat="22.311117" lon="103.768349">
<ele>2885.470703</ele>
<time>2011-04-24T03:26:03Z</time>
<desc>lat.=22.311117, lon.=103.768349, Alt.=2885.470703m. Speed=2.340000m/h.</desc>
<speed>0.650000</speed>
</trkpt>
<trkpt lat="22.311111" lon="103.768417">
<ele>2886.408203</ele>
<time>2011-04-24T03:26:08Z</time>
<desc>lat.=22.311111, lon.=103.768417, Alt.=2886.408203m. Speed=3.996000m/h.</desc>
<speed>1.110000</speed>
</trkpt>
<trkpt lat="22.311100" lon="103.768463">
<ele>2886.345703</ele>
<time>2011-04-24T03:26:13Z</time>
<desc>lat.=22.311100, lon.=103.768463, Alt.=2886.345703m. Speed=4.788000m/h.</desc>
<speed>1.330000</speed>
</trkpt>
<trkpt lat="22.311062" lon="103.768501">
<ele>2886.158203</ele>
<time>2011-04-24T03:26:18Z</time>
<desc>lat.=22.311062, lon.=103.768501, Alt.=2886.158203m. Speed=3.672000m/h.</desc>
<speed>1.020000</speed>
</trkpt>
<trkpt lat="22.311018" lon="103.768547">
<ele>2885.033203</ele>
<time>2011-04-24T03:26:23Z</time>
<desc>lat.=22.311018, lon.=103.768547, Alt.=2885.033203m. Speed=3.276000m/h.</desc>
<speed>0.910000</speed>
</trkpt>
<trkpt lat="22.311014" lon="103.768570">
<ele>2884.158203</ele>
<time>2011-04-24T03:26:28Z</time>
<desc>lat.=22.311014, lon.=103.768570, Alt.=2884.158203m. Speed=1.620000m/h.</desc>
<speed>0.450000</speed>
</trkpt>
<trkpt lat="22.311005" lon="103.768593">
<ele>2883.345703</ele>
<time>2011-04-24T03:26:33Z</time>
<desc>lat.=22.311005, lon.=103.768593, Alt.=2883.345703m. Speed=1.872000m/h.</desc>
<speed>0.520000</speed>
</trkpt>
<trkpt lat="22.310993" lon="103.768623">
<ele>2882.158203</ele>
<time>2011-04-24T03:26:38Z</time>
<desc>lat.=22.310993, lon.=103.768623, Alt.=2882.158203m. Speed=2.880000m/h.</desc>
<speed>0.800000</speed>
</trkpt>
<trkpt lat="22.310961" lon="103.768669">
<ele>2880.595703</ele>
<time>2011-04-24T03:26:43Z</time>
<desc>lat.=22.310961, lon.=103.768669, Alt.=2880.595703m. Speed=3.204000m/h.</desc>
<speed>0.890000</speed>
</trkpt>
<trkpt lat="22.310917" lon="103.768730">
<ele>2879.658203</ele>
<time>2011-04-24T03:26:48Z</time>
<desc>lat.=22.310917, lon.=103.768730, Alt.=2879.658203m. Speed=4.464000m/h.</desc>
<speed>1.240000</speed>
</trkpt>
<trkpt lat="22.310883" lon="103.768776">
<ele>2879.158203</ele>
<time>2011-04-24T03:26:53Z</time>
<desc>lat.=22.310883, lon.=103.768776, Alt.=2879.158203m. Speed=2.340000m/h.</desc>
<speed>0.650000</speed>
</trkpt>
<trkpt lat="22.310860" lon="103.768806">
<ele>2878.345703</ele>
<time>2011-04-24T03:26:58Z</time>
<desc>lat.=22.310860, lon.=103.768806, Alt.=2878.345703m. Speed=4.500000m/h.</desc>
<speed>1.250000</speed>
</trkpt>
<trkpt lat="22.310820" lon="103.768837">
<ele>2877.533203</ele>
<time>2011-04-24T03:27:03Z</time>
<desc>lat.=22.310820, lon.=103.768837, Alt.=2877.533203m. Speed=3.456000m/h.</desc>
<speed>0.960000</speed>
</trkpt>
<trkpt lat="22.310793" lon="103.768860">
<ele>2876.345703</ele>
<time>2011-04-24T03:27:08Z</time>
<desc>lat.=22.310793, lon.=103.768860, Alt.=2876.345703m. Speed=2.016000m/h.</desc>
<speed>0.560000</speed>
</trkpt>
<trkpt lat="22.310736" lon="103.768860">
<ele>2875.908203</ele>
<time>2011-04-24T03:27:13Z</time>
<desc>lat.=22.310736, lon.=103.768860, Alt.=2875.908203m. Speed=4.536000m/h.</desc>
<speed>1.260000</speed>
</trkpt>
<trkpt lat="22.310694" lon="103.768921">
<ele>2875.220703</ele>
<time>2011-04-24T03:27:18Z</time>
<desc>lat.=22.310694, lon.=103.768921, Alt.=2875.220703m. Speed=3.816000m/h.</desc>
<speed>1.060000</speed>
</trkpt>
<trkpt lat="22.310658" lon="103.768967">
<ele>2874.970703</ele>
<time>2011-04-24T03:27:23Z</time>
<desc>lat.=22.310658, lon.=103.768967, Alt.=2874.970703m. Speed=1.656000m/h.</desc>
<speed>0.460000</speed>
</trkpt>
<trkpt lat="22.310650" lon="103.769012">
<ele>2874.970703</ele>
<time>2011-04-24T03:27:28Z</time>
<desc>lat.=22.310650, lon.=103.769012, Alt.=2874.970703m. Speed=4.248000m/h.</desc>
<speed>1.180000</speed>
</trkpt>
<trkpt lat="22.310610" lon="103.769035">
<ele>2875.408203</ele>
<time>2011-04-24T03:27:33Z</time>
<desc>lat.=22.310610, lon.=103.769035, Alt.=2875.408203m. Speed=2.736000m/h.</desc>
<speed>0.760000</speed>
</trkpt>
<trkpt lat="22.310551" lon="103.769035">
<ele>2875.345703</ele>
<time>2011-04-24T03:27:38Z</time>
<desc>lat.=22.310551, lon.=103.769035, Alt.=2875.345703m. Speed=3.456000m/h.</desc>
<speed>0.960000</speed>
</trkpt>
<trkpt lat="22.310503" lon="103.769020">
<ele>2875.220703</ele>
<time>2011-04-24T03:27:43Z</time>
<desc>lat.=22.310503, lon.=103.769020, Alt.=2875.220703m. Speed=2.808000m/h.</desc>
<speed>0.780000</speed>
</trkpt>
<trkpt lat="22.310486" lon="103.769005">
<ele>2874.845703</ele>
<time>2011-04-24T03:27:48Z</time>
<desc>lat.=22.310486, lon.=103.769005, Alt.=2874.845703m. Speed=1.908000m/h.</desc>
<speed>0.530000</speed>
</trkpt>
<trkpt lat="22.310467" lon="103.768990">
<ele>2874.283203</ele>
<time>2011-04-24T03:27:53Z</time>
<desc>lat.=22.310467, lon.=103.768990, Alt.=2874.283203m. Speed=1.548000m/h.</desc>
<speed>0.430000</speed>
</trkpt>
<trkpt lat="22.310411" lon="103.768982">
<ele>2874.095703</ele>
<time>2011-04-24T03:27:58Z</time>
<desc>lat.=22.310411, lon.=103.768982, Alt.=2874.095703m. Speed=1.800000m/h.</desc>
<speed>0.500000</speed>
</trkpt>
<trkpt lat="22.310369" lon="103.768982">
<ele>2873.908203</ele>
<time>2011-04-24T03:28:03Z</time>
<desc>lat.=22.310369, lon.=103.768982, Alt.=2873.908203m. Speed=1.944000m/h.</desc>
<speed>0.540000</speed>
</trkpt>
<trkpt lat="22.310331" lon="103.768997">
<ele>2873.533203</ele>
<time>2011-04-24T03:28:08Z</time>
<desc>lat.=22.310331, lon.=103.768997, Alt.=2873.533203m. Speed=2.088000m/h.</desc>
<speed>0.580000</speed>
</trkpt>
<trkpt lat="22.310328" lon="103.768990">
<ele>2873.470703</ele>
<time>2011-04-24T03:28:13Z</time>
<desc>lat.=22.310328, lon.=103.768990, Alt.=2873.470703m. Speed=1.728000m/h.</desc>
<speed>0.480000</speed>
</trkpt>
<trkpt lat="22.310316" lon="103.768990">
<ele>2873.158203</ele>
<time>2011-04-24T03:28:18Z</time>
<desc>lat.=22.310316, lon.=103.768990, Alt.=2873.158203m. Speed=1.584000m/h.</desc>
<speed>0.440000</speed>
</trkpt>
<trkpt lat="22.310280" lon="103.769020">
<ele>2873.595703</ele>
<time>2011-04-24T03:28:23Z</time>
<desc>lat.=22.310280, lon.=103.769020, Alt.=2873.595703m. Speed=2.232000m/h.</desc>
<speed>0.620000</speed>
</trkpt>
<trkpt lat="22.310228" lon="103.769043">
<ele>2874.533203</ele>
<time>2011-04-24T03:28:28Z</time>
<desc>lat.=22.310228, lon.=103.769043, Alt.=2874.533203m. Speed=2.016000m/h.</desc>
<speed>0.560000</speed>
</trkpt>
<trkpt lat="22.310181" lon="103.769081">
<ele>2875.783203</ele>
<time>2011-04-24T03:28:33Z</time>
<desc>lat.=22.310181, lon.=103.769081, Alt.=2875.783203m. Speed=2.628000m/h.</desc>
<speed>0.730000</speed>
</trkpt>
<trkpt lat="22.310163" lon="103.769066">
<ele>2875.533203</ele>
<time>2011-04-24T03:28:38Z</time>
<desc>lat.=22.310163, lon.=103.769066, Alt.=2875.533203m. Speed=1.872000m/h.</desc>
<speed>0.520000</speed>
</trkpt>
<trkpt lat="22.310144" lon="103.769058">
<ele>2875.158203</ele>
<time>2011-04-24T03:28:43Z</time>
<desc>lat.=22.310144, lon.=103.769058, Alt.=2875.158203m. Speed=1.332000m/h.</desc>
<speed>0.370000</speed>
</trkpt>
<trkpt lat="22.310057" lon="103.769066">
<ele>2876.033203</ele>
<time>2011-04-24T03:28:48Z</time>
<desc>lat.=22.310057, lon.=103.769066, Alt.=2876.033203m. Speed=3.312000m/h.</desc>
<speed>0.920000</speed>
</trkpt>
<trkpt lat="22.310072" lon="103.769058">
<ele>2876.470703</ele>
<time>2011-04-24T03:28:53Z</time>
<desc>lat.=22.310072, lon.=103.769058, Alt.=2876.470703m. Speed=1.008000m/h.</desc>
<speed>0.280000</speed>
</trkpt>
<trkpt lat="22.310032" lon="103.769104">
<ele>2876.908203</ele>
<time>2011-04-24T03:28:58Z</time>
<desc>lat.=22.310032, lon.=103.769104, Alt.=2876.908203m. Speed=2.520000m/h.</desc>
<speed>0.700000</speed>
</trkpt>
<trkpt lat="22.310019" lon="103.769135">
<ele>2878.408203</ele>
<time>2011-04-24T03:29:03Z</time>
<desc>lat.=22.310019, lon.=103.769135, Alt.=2878.408203m. Speed=2.304000m/h.</desc>
<speed>0.640000</speed>
</trkpt>
<trkpt lat="22.309956" lon="103.769157">
<ele>2879.283203</ele>
<time>2011-04-24T03:29:08Z</time>
<desc>lat.=22.309956, lon.=103.769157, Alt.=2879.283203m. Speed=2.952000m/h.</desc>
<speed>0.820000</speed>
</trkpt>
<trkpt lat="22.309914" lon="103.769188">
<ele>2880.220703</ele>
<time>2011-04-24T03:29:13Z</time>
<desc>lat.=22.309914, lon.=103.769188, Alt.=2880.220703m. Speed=2.916000m/h.</desc>
<speed>0.810000</speed>
</trkpt>
<trkpt lat="22.309908" lon="103.769226">
<ele>2880.783203</ele>
<time>2011-04-24T03:29:18Z</time>
<desc>lat.=22.309908, lon.=103.769226, Alt.=2880.783203m. Speed=1.332000m/h.</desc>
<speed>0.370000</speed>
</trkpt>
<trkpt lat="22.309919" lon="103.769234">
<ele>2881.345703</ele>
<time>2011-04-24T03:29:23Z</time>
<desc>lat.=22.309919, lon.=103.769234, Alt.=2881.345703m. Speed=0.324000m/h.</desc>
<speed>0.090000</speed>
</trkpt>
<trkpt lat="22.309919" lon="103.769234">
<ele>2881.283203</ele>
<time>2011-04-24T03:29:28Z</time>
<desc>lat.=22.309919, lon.=103.769234, Alt.=2881.283203m. Speed=0.036000m/h.</desc>
<speed>0.010000</speed>
</trkpt>
<trkpt lat="22.309919" lon="103.769234">
<ele>2881.220703</ele>
<time>2011-04-24T03:29:33Z</time>
<desc>lat.=22.309919, lon.=103.769234, Alt.=2881.220703m. Speed=0.036000m/h.</desc>
<speed>0.010000</speed>
</trkpt>
<trkpt lat="22.309919" lon="103.769234">
<ele>2881.220703</ele>
<time>2011-04-24T03:29:38Z</time>
<desc>lat.=22.309919, lon.=103.769234, Alt.=2881.220703m. Speed=0.144000m/h.</desc>
<speed>0.040000</speed>
</trkpt>
<trkpt lat="22.309919" lon="103.769234">
<ele>2881.158203</ele>
<time>2011-04-24T03:29:43Z</time>
<desc>lat.=22.309919, lon.=103.769234, Alt.=2881.158203m. Speed=0.216000m/h.</desc>
<speed>0.060000</speed>
</trkpt>
<trkpt lat="22.309919" lon="103.769241">
<ele>2881.158203</ele>
<time>2011-04-24T03:29:48Z</time>
<desc>lat.=22.309919, lon.=103.769241, Alt.=2881.158203m. Speed=0.144000m/h.</desc>
<speed>0.040000</speed>
</trkpt>
<trkpt lat="22.309917" lon="103.769241">
<ele>2881.095703</ele>
<time>2011-04-24T03:29:53Z</time>
<desc>lat.=22.309917, lon.=103.769241, Alt.=2881.095703m. Speed=0.468000m/h.</desc>
<speed>0.130000</speed>
</trkpt>
<trkpt lat="22.309912" lon="103.769234">
<ele>2881.095703</ele>
<time>2011-04-24T03:29:58Z</time>
<desc>lat.=22.309912, lon.=103.769234, Alt.=2881.095703m. Speed=0.252000m/h.</desc>
<speed>0.070000</speed>
</trkpt>
<trkpt lat="22.309914" lon="103.769234">
<ele>2881.095703</ele>
<time>2011-04-24T03:30:03Z</time>
<desc>lat.=22.309914, lon.=103.769234, Alt.=2881.095703m. Speed=0.576000m/h.</desc>
<speed>0.160000</speed>
</trkpt>
<trkpt lat="22.309916" lon="103.769234">
<ele>2881.095703</ele>
<time>2011-04-24T03:30:08Z</time>
<desc>lat.=22.309916, lon.=103.769234, Alt.=2881.095703m. Speed=0.144000m/h.</desc>
<speed>0.040000</speed>
</trkpt>
<trkpt lat="22.309914" lon="103.769234">
<ele>2881.095703</ele>
<time>2011-04-24T03:30:13Z</time>
<desc>lat.=22.309914, lon.=103.769234, Alt.=2881.095703m. Speed=0.612000m/h.</desc>
<speed>0.170000</speed>
</trkpt>
<trkpt lat="22.309908" lon="103.769241">
<ele>2881.095703</ele>
<time>2011-04-24T03:30:18Z</time>
<desc>lat.=22.309908, lon.=103.769241, Alt.=2881.095703m. Speed=0.360000m/h.</desc>
<speed>0.100000</speed>
</trkpt>
<trkpt lat="22.309902" lon="103.769241">
<ele>2881.158203</ele>
<time>2011-04-24T03:30:23Z</time>
<desc>lat.=22.309902, lon.=103.769241, Alt.=2881.158203m. Speed=0.540000m/h.</desc>
<speed>0.150000</speed>
</trkpt>
<trkpt lat="22.309898" lon="103.769249">
<ele>2881.158203</ele>
<time>2011-04-24T03:30:28Z</time>
<desc>lat.=22.309898, lon.=103.769249, Alt.=2881.158203m. Speed=0.144000m/h.</desc>
<speed>0.040000</speed>
</trkpt>
<trkpt lat="22.309895" lon="103.769241">
<ele>2881.095703</ele>
<time>2011-04-24T03:30:33Z</time>
<desc>lat.=22.309895, lon.=103.769241, Alt.=2881.095703m. Speed=0.072000m/h.</desc>
<speed>0.020000</speed>
</trkpt>
<trkpt lat="22.309895" lon="103.769241">
<ele>2881.095703</ele>
<time>2011-04-24T03:30:38Z</time>
<desc>lat.=22.309895, lon.=103.769241, Alt.=2881.095703m. Speed=0.000000m/h.</desc>
<speed>0.000000</speed>
</trkpt>
<trkpt lat="22.309895" lon="103.769241">
<ele>2881.095703</ele>
<time>2011-04-24T03:30:43Z</time>
<desc>lat.=22.309895, lon.=103.769241, Alt.=2881.095703m. Speed=0.288000m/h.</desc>
<speed>0.080000</speed>
</trkpt>
<trkpt lat="22.309893" lon="103.769241">
<ele>2881.033203</ele>
<time>2011-04-24T03:30:48Z</time>
<desc>lat.=22.309893, lon.=103.769241, Alt.=2881.033203m. Speed=0.612000m/h.</desc>
<speed>0.170000</speed>
</trkpt>
<trkpt lat="22.309889" lon="103.769249">
<ele>2881.033203</ele>
<time>2011-04-24T03:30:53Z</time>
<desc>lat.=22.309889, lon.=103.769249, Alt.=2881.033203m. Speed=0.036000m/h.</desc>
<speed>0.010000</speed>
</trkpt>
<trkpt lat="22.309893" lon="103.769241">
<ele>2881.095703</ele>
<time>2011-04-24T03:30:58Z</time>
<desc>lat.=22.309893, lon.=103.769241, Alt.=2881.095703m. Speed=0.432000m/h.</desc>
<speed>0.120000</speed>
</trkpt>
<trkpt lat="22.309900" lon="103.769264">
<ele>2881.470703</ele>
<time>2011-04-24T03:31:03Z</time>
<desc>lat.=22.309900, lon.=103.769264, Alt.=2881.470703m. Speed=1.152000m/h.</desc>
<speed>0.320000</speed>
</trkpt>
<trkpt lat="22.309893" lon="103.769272">
<ele>2881.970703</ele>
<time>2011-04-24T03:31:08Z</time>
<desc>lat.=22.309893, lon.=103.769272, Alt.=2881.970703m. Speed=0.684000m/h.</desc>
<speed>0.190000</speed>
</trkpt>
<trkpt lat="22.309887" lon="103.769279">
<ele>2882.033203</ele>
<time>2011-04-24T03:31:13Z</time>
<desc>lat.=22.309887, lon.=103.769279, Alt.=2882.033203m. Speed=0.612000m/h.</desc>
<speed>0.170000</speed>
</trkpt>
<trkpt lat="22.309877" lon="103.769287">
<ele>2882.033203</ele>
<time>2011-04-24T03:31:18Z</time>
<desc>lat.=22.309877, lon.=103.769287, Alt.=2882.033203m. Speed=1.044000m/h.</desc>
<speed>0.290000</speed>
</trkpt>
<trkpt lat="22.309855" lon="103.769272">
<ele>2882.283203</ele>
<time>2011-04-24T03:31:23Z</time>
<desc>lat.=22.309855, lon.=103.769272, Alt.=2882.283203m. Speed=1.152000m/h.</desc>
<speed>0.320000</speed>
</trkpt>
<trkpt lat="22.309843" lon="103.769264">
<ele>2882.720703</ele>
<time>2011-04-24T03:31:28Z</time>
<desc>lat.=22.309843, lon.=103.769264, Alt.=2882.720703m. Speed=0.972000m/h.</desc>
<speed>0.270000</speed>
</trkpt>
<trkpt lat="22.309834" lon="103.769257">
<ele>2882.783203</ele>
<time>2011-04-24T03:31:33Z</time>
<desc>lat.=22.309834, lon.=103.769257, Alt.=2882.783203m. Speed=0.936000m/h.</desc>
<speed>0.260000</speed>
</trkpt>
<trkpt lat="22.309824" lon="103.769249">
<ele>2882.845703</ele>
<time>2011-04-24T03:31:38Z</time>
<desc>lat.=22.309824, lon.=103.769249, Alt.=2882.845703m. Speed=1.044000m/h.</desc>
<speed>0.290000</speed>
</trkpt>
<trkpt lat="22.309820" lon="103.769249">
<ele>2882.970703</ele>
<time>2011-04-24T03:31:43Z</time>
<desc>lat.=22.309820, lon.=103.769249, Alt.=2882.970703m. Speed=0.684000m/h.</desc>
<speed>0.190000</speed>
</trkpt>
<trkpt lat="22.309813" lon="103.769241">
<ele>2883.033203</ele>
<time>2011-04-24T03:31:48Z</time>
<desc>lat.=22.309813, lon.=103.769241, Alt.=2883.033203m. Speed=0.792000m/h.</desc>
<speed>0.220000</speed>
</trkpt>
<trkpt lat="22.309807" lon="103.769234">
<ele>2883.095703</ele>
<time>2011-04-24T03:31:53Z</time>
<desc>lat.=22.309807, lon.=103.769234, Alt.=2883.095703m. Speed=0.540000m/h.</desc>
<speed>0.150000</speed>
</trkpt>
<trkpt lat="22.309805" lon="103.769226">
<ele>2883.158203</ele>
<time>2011-04-24T03:31:58Z</time>
<desc>lat.=22.309805, lon.=103.769226, Alt.=2883.158203m. Speed=0.360000m/h.</desc>
<speed>0.100000</speed>
</trkpt>
<trkpt lat="22.309809" lon="103.769226">
<ele>2883.283203</ele>
<time>2011-04-24T03:32:03Z</time>
<desc>lat.=22.309809, lon.=103.769226, Alt.=2883.283203m. Speed=0.288000m/h.</desc>
<speed>0.080000</speed>
</trkpt>
<trkpt lat="22.309814" lon="103.769226">
<ele>2883.345703</ele>
<time>2011-04-24T03:32:08Z</time>
<desc>lat.=22.309814, lon.=103.769226, Alt.=2883.345703m. Speed=0.576000m/h.</desc>
<speed>0.160000</speed>
</trkpt>
<trkpt lat="22.309820" lon="103.769226">
<ele>2883.408203</ele>
<time>2011-04-24T03:32:13Z</time>
<desc>lat.=22.309820, lon.=103.769226, Alt.=2883.408203m. Speed=0.360000m/h.</desc>
<speed>0.100000</speed>
</trkpt>
<trkpt lat="22.309820" lon="103.769226">
<ele>2883.470703</ele>
<time>2011-04-24T03:32:18Z</time>
<desc>lat.=22.309820, lon.=103.769226, Alt.=2883.470703m. Speed=0.144000m/h.</desc>
<speed>0.040000</speed>
</trkpt>
<trkpt lat="22.309847" lon="103.769241">
<ele>2883.970703</ele>
<time>2011-04-24T03:32:23Z</time>
<desc>lat.=22.309847, lon.=103.769241, Alt.=2883.970703m. Speed=0.828000m/h.</desc>
<speed>0.230000</speed>
</trkpt>
<trkpt lat="22.309862" lon="103.769249">
<ele>2884.533203</ele>
<time>2011-04-24T03:32:28Z</time>
<desc>lat.=22.309862, lon.=103.769249, Alt.=2884.533203m. Speed=0.612000m/h.</desc>
<speed>0.170000</speed>
</trkpt>
<trkpt lat="22.309868" lon="103.769241">
<ele>2884.658203</ele>
<time>2011-04-24T03:32:33Z</time>
<desc>lat.=22.309868, lon.=103.769241, Alt.=2884.658203m. Speed=0.540000m/h.</desc>
<speed>0.150000</speed>
</trkpt>
<trkpt lat="22.309872" lon="103.769241">
<ele>2884.783203</ele>
<time>2011-04-24T03:32:38Z</time>
<desc>lat.=22.309872, lon.=103.769241, Alt.=2884.783203m. Speed=0.504000m/h.</desc>
<speed>0.140000</speed>
</trkpt>
<trkpt lat="22.309877" lon="103.769234">
<ele>2884.845703</ele>
<time>2011-04-24T03:32:43Z</time>
<desc>lat.=22.309877, lon.=103.769234, Alt.=2884.845703m. Speed=0.720000m/h.</desc>
<speed>0.200000</speed>
</trkpt>
<trkpt lat="22.309885" lon="103.769226">
<ele>2884.970703</ele>
<time>2011-04-24T03:32:48Z</time>
<desc>lat.=22.309885, lon.=103.769226, Alt.=2884.970703m. Speed=1.044000m/h.</desc>
<speed>0.290000</speed>
</trkpt>
<trkpt lat="22.309889" lon="103.769211">
<ele>2885.158203</ele>
<time>2011-04-24T03:32:53Z</time>
<desc>lat.=22.309889, lon.=103.769211, Alt.=2885.158203m. Speed=0.972000m/h.</desc>
<speed>0.270000</speed>
</trkpt>
<trkpt lat="22.309881" lon="103.769203">
<ele>2885.470703</ele>
<time>2011-04-24T03:32:58Z</time>
<desc>lat.=22.309881, lon.=103.769203, Alt.=2885.470703m. Speed=0.576000m/h.</desc>
<speed>0.160000</speed>
</trkpt>
<trkpt lat="22.309887" lon="103.769203">
<ele>2885.595703</ele>
<time>2011-04-24T03:33:03Z</time>
<desc>lat.=22.309887, lon.=103.769203, Alt.=2885.595703m. Speed=0.216000m/h.</desc>
<speed>0.060000</speed>
</trkpt>
<trkpt lat="22.309889" lon="103.769203">
<ele>2885.658203</ele>
<time>2011-04-24T03:33:08Z</time>
<desc>lat.=22.309889, lon.=103.769203, Alt.=2885.658203m. Speed=0.324000m/h.</desc>
<speed>0.090000</speed>
</trkpt>
<trkpt lat="22.309887" lon="103.769211">
<ele>2885.845703</ele>
<time>2011-04-24T03:33:13Z</time>
<desc>lat.=22.309887, lon.=103.769211, Alt.=2885.845703m. Speed=0.432000m/h.</desc>
<speed>0.120000</speed>
</trkpt>
<trkpt lat="22.309881" lon="103.769211">
<ele>2885.970703</ele>
<time>2011-04-24T03:33:18Z</time>
<desc>lat.=22.309881, lon.=103.769211, Alt.=2885.970703m. Speed=0.324000m/h.</desc>
<speed>0.090000</speed>
</trkpt>
<trkpt lat="22.309879" lon="103.769203">
<ele>2886.095703</ele>
<time>2011-04-24T03:33:23Z</time>
<desc>lat.=22.309879, lon.=103.769203, Alt.=2886.095703m. Speed=0.144000m/h.</desc>
<speed>0.040000</speed>
</trkpt>
<trkpt lat="22.309877" lon="103.769203">
<ele>2886.220703</ele>
<time>2011-04-24T03:33:28Z</time>
<desc>lat.=22.309877, lon.=103.769203, Alt.=2886.220703m. Speed=0.432000m/h.</desc>
<speed>0.120000</speed>
</trkpt>
<trkpt lat="22.309870" lon="103.769196">
<ele>2886.408203</ele>
<time>2011-04-24T03:33:33Z</time>
<desc>lat.=22.309870, lon.=103.769196, Alt.=2886.408203m. Speed=0.936000m/h.</desc>
<speed>0.260000</speed>
</trkpt>
<trkpt lat="22.309860" lon="103.769188">
<ele>2886.595703</ele>
<time>2011-04-24T03:33:38Z</time>
<desc>lat.=22.309860, lon.=103.769188, Alt.=2886.595703m. Speed=1.116000m/h.</desc>
<speed>0.310000</speed>
</trkpt>
<trkpt lat="22.309858" lon="103.769196">
<ele>2886.658203</ele>
<time>2011-04-24T03:33:43Z</time>
<desc>lat.=22.309858, lon.=103.769196, Alt.=2886.658203m. Speed=0.792000m/h.</desc>
<speed>0.220000</speed>
</trkpt>
<trkpt lat="22.309849" lon="103.769196">
<ele>2886.845703</ele>
<time>2011-04-24T03:33:48Z</time>
<desc>lat.=22.309849, lon.=103.769196, Alt.=2886.845703m. Speed=0.720000m/h.</desc>
<speed>0.200000</speed>
</trkpt>
<trkpt lat="22.309847" lon="103.769203">
<ele>2887.033203</ele>
<time>2011-04-24T03:33:53Z</time>
<desc>lat.=22.309847, lon.=103.769203, Alt.=2887.033203m. Speed=0.576000m/h.</desc>
<speed>0.160000</speed>
</trkpt>
<trkpt lat="22.309847" lon="103.769211">
<ele>2887.220703</ele>
<time>2011-04-24T03:33:58Z</time>
<desc>lat.=22.309847, lon.=103.769211, Alt.=2887.220703m. Speed=0.720000m/h.</desc>
<speed>0.200000</speed>
</trkpt>
<trkpt lat="22.309853" lon="103.769218">
<ele>2887.408203</ele>
<time>2011-04-24T03:34:03Z</time>
<desc>lat.=22.309853, lon.=103.769218, Alt.=2887.408203m. Speed=0.396000m/h.</desc>
<speed>0.110000</speed>
</trkpt>
<trkpt lat="22.309860" lon="103.769226">
<ele>2887.595703</ele>
<time>2011-04-24T03:34:08Z</time>
<desc>lat.=22.309860, lon.=103.769226, Alt.=2887.595703m. Speed=0.864000m/h.</desc>
<speed>0.240000</speed>
</trkpt>
<trkpt lat="22.309872" lon="103.769226">
<ele>2887.783203</ele>
<time>2011-04-24T03:34:13Z</time>
<desc>lat.=22.309872, lon.=103.769226, Alt.=2887.783203m. Speed=1.260000m/h.</desc>
<speed>0.350000</speed>
</trkpt>
<trkpt lat="22.309916" lon="103.769249">
<ele>2887.845703</ele>
<time>2011-04-24T03:34:18Z</time>
<desc>lat.=22.309916, lon.=103.769249, Alt.=2887.845703m. Speed=1.584000m/h.</desc>
<speed>0.440000</speed>
</trkpt>
<trkpt lat="22.309927" lon="103.769257">
<ele>2887.970703</ele>
<time>2011-04-24T03:34:23Z</time>
<desc>lat.=22.309927, lon.=103.769257, Alt.=2887.970703m. Speed=1.332000m/h.</desc>
<speed>0.370000</speed>
</trkpt>
<trkpt lat="22.309952" lon="103.769264">
<ele>2888.095703</ele>
<time>2011-04-24T03:34:28Z</time>
<desc>lat.=22.309952, lon.=103.769264, Alt.=2888.095703m. Speed=1.440000m/h.</desc>
<speed>0.400000</speed>
</trkpt>
<trkpt lat="22.309959" lon="103.769257">
<ele>2888.658203</ele>
<time>2011-04-24T03:34:33Z</time>
<desc>lat.=22.309959, lon.=103.769257, Alt.=2888.658203m. Speed=1.260000m/h.</desc>
<speed>0.350000</speed>
</trkpt>
<trkpt lat="22.309965" lon="103.769264">
<ele>2889.158203</ele>
<time>2011-04-24T03:34:38Z</time>
<desc>lat.=22.309965, lon.=103.769264, Alt.=2889.158203m. Speed=1.008000m/h.</desc>
<speed>0.280000</speed>
</trkpt>
<trkpt lat="22.309992" lon="103.769264">
<ele>2889.595703</ele>
<time>2011-04-24T03:34:43Z</time>
<desc>lat.=22.309992, lon.=103.769264, Alt.=2889.595703m. Speed=1.152000m/h.</desc>
<speed>0.320000</speed>
</trkpt>
<trkpt lat="22.309992" lon="103.769264">
<ele>2890.033203</ele>
<time>2011-04-24T03:34:48Z</time>
<desc>lat.=22.309992, lon.=103.769264, Alt.=2890.033203m. Speed=0.828000m/h.</desc>
<speed>0.230000</speed>
</trkpt>
<trkpt lat="22.310019" lon="103.769257">
<ele>2890.345703</ele>
<time>2011-04-24T03:34:53Z</time>
<desc>lat.=22.310019, lon.=103.769257, Alt.=2890.345703m. Speed=0.792000m/h.</desc>
<speed>0.220000</speed>
</trkpt>
<trkpt lat="22.310026" lon="103.769249">
<ele>2890.595703</ele>
<time>2011-04-24T03:34:58Z</time>
<desc>lat.=22.310026, lon.=103.769249, Alt.=2890.595703m. Speed=0.360000m/h.</desc>
<speed>0.100000</speed>
</trkpt>
<trkpt lat="22.310030" lon="103.769249">
<ele>2890.845703</ele>
<time>2011-04-24T03:35:03Z</time>
<desc>lat.=22.310030, lon.=103.769249, Alt.=2890.845703m. Speed=0.432000m/h.</desc>
<speed>0.120000</speed>
</trkpt>
<trkpt lat="22.310053" lon="103.769241">
<ele>2891.533203</ele>
<time>2011-04-24T03:35:08Z</time>
<desc>lat.=22.310053, lon.=103.769241, Alt.=2891.533203m. Speed=1.188000m/h.</desc>
<speed>0.330000</speed>
</trkpt>
<trkpt lat="22.310047" lon="103.769234">
<ele>2892.033203</ele>
<time>2011-04-24T03:35:13Z</time>
<desc>lat.=22.310047, lon.=103.769234, Alt.=2892.033203m. Speed=0.684000m/h.</desc>
<speed>0.190000</speed>
</trkpt>
<trkpt lat="22.310059" lon="103.769241">
<ele>2892.970703</ele>
<time>2011-04-24T03:35:18Z</time>
<desc>lat.=22.310059, lon.=103.769241, Alt.=2892.970703m. Speed=0.396000m/h.</desc>
<speed>0.110000</speed>
</trkpt>
<trkpt lat="22.310049" lon="103.769241">
<ele>2893.470703</ele>
<time>2011-04-24T03:35:23Z</time>
<desc>lat.=22.310049, lon.=103.769241, Alt.=2893.470703m. Speed=0.864000m/h.</desc>
<speed>0.240000</speed>
</trkpt>
<trkpt lat="22.310030" lon="103.769218">
<ele>2894.783203</ele>
<time>2011-04-24T03:35:28Z</time>
<desc>lat.=22.310030, lon.=103.769218, Alt.=2894.783203m. Speed=1.044000m/h.</desc>
<speed>0.290000</speed>
</trkpt>
<trkpt lat="22.309994" lon="103.769203">
<ele>2897.158203</ele>
<time>2011-04-24T03:35:33Z</time>
<desc>lat.=22.309994, lon.=103.769203, Alt.=2897.158203m. Speed=1.188000m/h.</desc>
<speed>0.330000</speed>
</trkpt>
<trkpt lat="22.309975" lon="103.769196">
<ele>2898.158203</ele>
<time>2011-04-24T03:35:38Z</time>
<desc>lat.=22.309975, lon.=103.769196, Alt.=2898.158203m. Speed=1.080000m/h.</desc>
<speed>0.300000</speed>
</trkpt>
<trkpt lat="22.309963" lon="103.769173">
<ele>2897.533203</ele>
<time>2011-04-24T03:35:43Z</time>
<desc>lat.=22.309963, lon.=103.769173, Alt.=2897.533203m. Speed=0.180000m/h.</desc>
<speed>0.050000</speed>
</trkpt>
<trkpt lat="22.309967" lon="103.769180">
<ele>2897.908203</ele>
<time>2011-04-24T03:35:48Z</time>
<desc>lat.=22.309967, lon.=103.769180, Alt.=2897.908203m. Speed=0.396000m/h.</desc>
<speed>0.110000</speed>
</trkpt>
<trkpt lat="22.309971" lon="103.769180">
<ele>2898.345703</ele>
<time>2011-04-24T03:35:53Z</time>
<desc>lat.=22.309971, lon.=103.769180, Alt.=2898.345703m. Speed=0.324000m/h.</desc>
<speed>0.090000</speed>
</trkpt>
<trkpt lat="22.309975" lon="103.769180">
<ele>2898.845703</ele>
<time>2011-04-24T03:35:58Z</time>
<desc>lat.=22.309975, lon.=103.769180, Alt.=2898.845703m. Speed=0.288000m/h.</desc>
<speed>0.080000</speed>
</trkpt>
<trkpt lat="22.309978" lon="103.769180">
<ele>2899.345703</ele>
<time>2011-04-24T03:36:03Z</time>
<desc>lat.=22.309978, lon.=103.769180, Alt.=2899.345703m. Speed=0.396000m/h.</desc>
<speed>0.110000</speed>
</trkpt>
<trkpt lat="22.309982" lon="103.769188">
<ele>2899.783203</ele>
<time>2011-04-24T03:36:08Z</time>
<desc>lat.=22.309982, lon.=103.769188, Alt.=2899.783203m. Speed=0.036000m/h.</desc>
<speed>0.010000</speed>
</trkpt>
<trkpt lat="22.309982" lon="103.769188">
<ele>2900.158203</ele>
<time>2011-04-24T03:36:13Z</time>
<desc>lat.=22.309982, lon.=103.769188, Alt.=2900.158203m. Speed=0.108000m/h.</desc>
<speed>0.030000</speed>
</trkpt>
<trkpt lat="22.309984" lon="103.769188">
<ele>2900.470703</ele>
<time>2011-04-24T03:36:18Z</time>
<desc>lat.=22.309984, lon.=103.769188, Alt.=2900.470703m. Speed=0.144000m/h.</desc>
<speed>0.040000</speed>
</trkpt>
<trkpt lat="22.309986" lon="103.769188">
<ele>2900.845703</ele>
<time>2011-04-24T03:36:23Z</time>
<desc>lat.=22.309986, lon.=103.769188, Alt.=2900.845703m. Speed=0.252000m/h.</desc>
<speed>0.070000</speed>
</trkpt>
<trkpt lat="22.309990" lon="103.769188">
<ele>2901.283203</ele>
<time>2011-04-24T03:36:28Z</time>
<desc>lat.=22.309990, lon.=103.769188, Alt.=2901.283203m. Speed=0.144000m/h.</desc>
<speed>0.040000</speed>
</trkpt>
<trkpt lat="22.309990" lon="103.769188">
<ele>2901.595703</ele>
<time>2011-04-24T03:36:33Z</time>
<desc>lat.=22.309990, lon.=103.769188, Alt.=2901.595703m. Speed=0.108000m/h.</desc>
<speed>0.030000</speed>
</trkpt>
<trkpt lat="22.309992" lon="103.769188">
<ele>2901.970703</ele>
<time>2011-04-24T03:36:38Z</time>
<desc>lat.=22.309992, lon.=103.769188, Alt.=2901.970703m. Speed=0.072000m/h.</desc>
<speed>0.020000</speed>
</trkpt>
<trkpt lat="22.309994" lon="103.769188">
<ele>2902.283203</ele>
<time>2011-04-24T03:36:43Z</time>
<desc>lat.=22.309994, lon.=103.769188, Alt.=2902.283203m. Speed=0.036000m/h.</desc>
<speed>0.010000</speed>
</trkpt>
<trkpt lat="22.309996" lon="103.769188">
<ele>2902.595703</ele>
<time>2011-04-24T03:36:48Z</time>
<desc>lat.=22.309996, lon.=103.769188, Alt.=2902.595703m. Speed=0.072000m/h.</desc>
<speed>0.020000</speed>
</trkpt>
<trkpt lat="22.309996" lon="103.769188">
<ele>2902.908203</ele>
<time>2011-04-24T03:36:53Z</time>
<desc>lat.=22.309996, lon.=103.769188, Alt.=2902.908203m. Speed=0.144000m/h.</desc>
<speed>0.040000</speed>
</trkpt>
<trkpt lat="22.309994" lon="103.769180">
<ele>2903.033203</ele>
<time>2011-04-24T03:36:58Z</time>
<desc>lat.=22.309994, lon.=103.769180, Alt.=2903.033203m. Speed=0.396000m/h.</desc>
<speed>0.110000</speed>
</trkpt>
<trkpt lat="22.309994" lon="103.769180">
<ele>2903.158203</ele>
<time>2011-04-24T03:37:03Z</time>
<desc>lat.=22.309994, lon.=103.769180, Alt.=2903.158203m. Speed=0.612000m/h.</desc>
<speed>0.170000</speed>
</trkpt>
<trkpt lat="22.309994" lon="103.769165">
<ele>2903.158203</ele>
<time>2011-04-24T03:37:08Z</time>
<desc>lat.=22.309994, lon.=103.769165, Alt.=2903.158203m. Speed=0.540000m/h.</desc>
<speed>0.150000</speed>
</trkpt>
<trkpt lat="22.309996" lon="103.769157">
<ele>2903.095703</ele>
<time>2011-04-24T03:37:13Z</time>
<desc>lat.=22.309996, lon.=103.769157, Alt.=2903.095703m. Speed=0.792000m/h.</desc>
<speed>0.220000</speed>
</trkpt>
<trkpt lat="22.310001" lon="103.769150">
<ele>2902.970703</ele>
<time>2011-04-24T03:37:18Z</time>
<desc>lat.=22.310001, lon.=103.769150, Alt.=2902.970703m. Speed=0.900000m/h.</desc>
<speed>0.250000</speed>
</trkpt>
<trkpt lat="22.310007" lon="103.769142">
<ele>2902.845703</ele>
<time>2011-04-24T03:37:23Z</time>
<desc>lat.=22.310007, lon.=103.769142, Alt.=2902.845703m. Speed=0.684000m/h.</desc>
<speed>0.190000</speed>
</trkpt>
<trkpt lat="22.310009" lon="103.769135">
<ele>2902.658203</ele>
<time>2011-04-24T03:37:28Z</time>
<desc>lat.=22.310009, lon.=103.769135, Alt.=2902.658203m. Speed=0.288000m/h.</desc>
<speed>0.080000</speed>
</trkpt>
<trkpt lat="22.310005" lon="103.769135">
<ele>2902.533203</ele>
<time>2011-04-24T03:37:33Z</time>
<desc>lat.=22.310005, lon.=103.769135, Alt.=2902.533203m. Speed=0.648000m/h.</desc>
<speed>0.180000</speed>
</trkpt>
<trkpt lat="22.309998" lon="103.769127">
<ele>2902.345703</ele>
<time>2011-04-24T03:37:38Z</time>
<desc>lat.=22.309998, lon.=103.769127, Alt.=2902.345703m. Speed=0.540000m/h.</desc>
<speed>0.150000</speed>
</trkpt>
<trkpt lat="22.309992" lon="103.769127">
<ele>2902.158203</ele>
<time>2011-04-24T03:37:43Z</time>
<desc>lat.=22.309992, lon.=103.769127, Alt.=2902.158203m. Speed=0.468000m/h.</desc>
<speed>0.130000</speed>
</trkpt>
<trkpt lat="22.309988" lon="103.769119">
<ele>2901.908203</ele>
<time>2011-04-24T03:37:48Z</time>
<desc>lat.=22.309988, lon.=103.769119, Alt.=2901.908203m. Speed=0.144000m/h.</desc>
<speed>0.040000</speed>
</trkpt>
<trkpt lat="22.309988" lon="103.769119">
<ele>2901.783203</ele>
<time>2011-04-24T03:37:53Z</time>
<desc>lat.=22.309988, lon.=103.769119, Alt.=2901.783203m. Speed=0.252000m/h.</desc>
<speed>0.070000</speed>
</trkpt>
<trkpt lat="22.309992" lon="103.769127">
<ele>2901.658203</ele>
<time>2011-04-24T03:37:58Z</time>
<desc>lat.=22.309992, lon.=103.769127, Alt.=2901.658203m. Speed=0.432000m/h.</desc>
<speed>0.120000</speed>
</trkpt>
<trkpt lat="22.309998" lon="103.769127">
<ele>2901.595703</ele>
<time>2011-04-24T03:38:03Z</time>
<desc>lat.=22.309998, lon.=103.769127, Alt.=2901.595703m. Speed=0.720000m/h.</desc>
<speed>0.200000</speed>
</trkpt>
<trkpt lat="22.310007" lon="103.769135">
<ele>2901.533203</ele>
<time>2011-04-24T03:38:08Z</time>
<desc>lat.=22.310007, lon.=103.769135, Alt.=2901.533203m. Speed=0.756000m/h.</desc>
<speed>0.210000</speed>
</trkpt>
<trkpt lat="22.310017" lon="103.769135">
<ele>2901.470703</ele>
<time>2011-04-24T03:38:13Z</time>
<desc>lat.=22.310017, lon.=103.769135, Alt.=2901.470703m. Speed=1.008000m/h.</desc>
<speed>0.280000</speed>
</trkpt>
<trkpt lat="22.310032" lon="103.769157">
<ele>2901.220703</ele>
<time>2011-04-24T03:38:18Z</time>
<desc>lat.=22.310032, lon.=103.769157, Alt.=2901.220703m. Speed=1.404000m/h.</desc>
<speed>0.390000</speed>
</trkpt>
<trkpt lat="22.310034" lon="103.769180">
<ele>2900.908203</ele>
<time>2011-04-24T03:38:23Z</time>
<desc>lat.=22.310034, lon.=103.769180, Alt.=2900.908203m. Speed=1.332000m/h.</desc>
<speed>0.370000</speed>
</trkpt>
<trkpt lat="22.310015" lon="103.769180">
<ele>2899.158203</ele>
<time>2011-04-24T03:38:28Z</time>
<desc>lat.=22.310015, lon.=103.769180, Alt.=2899.158203m. Speed=0.756000m/h.</desc>
<speed>0.210000</speed>
</trkpt>
<trkpt lat="22.310020" lon="103.769196">
<ele>2898.908203</ele>
<time>2011-04-24T03:38:33Z</time>
<desc>lat.=22.310020, lon.=103.769196, Alt.=2898.908203m. Speed=0.612000m/h.</desc>
<speed>0.170000</speed>
</trkpt>
<trkpt lat="22.310024" lon="103.769196">
<ele>2898.783203</ele>
<time>2011-04-24T03:38:38Z</time>
<desc>lat.=22.310024, lon.=103.769196, Alt.=2898.783203m. Speed=0.468000m/h.</desc>
<speed>0.130000</speed>
</trkpt>
<trkpt lat="22.310030" lon="103.769203">
<ele>2898.658203</ele>
<time>2011-04-24T03:38:43Z</time>
<desc>lat.=22.310030, lon.=103.769203, Alt.=2898.658203m. Speed=0.468000m/h.</desc>
<speed>0.130000</speed>
</trkpt>
<trkpt lat="22.310034" lon="103.769203">
<ele>2898.470703</ele>
<time>2011-04-24T03:38:48Z</time>
<desc>lat.=22.310034, lon.=103.769203, Alt.=2898.470703m. Speed=0.396000m/h.</desc>
<speed>0.110000</speed>
</trkpt>
<trkpt lat="22.310040" lon="103.769211">
<ele>2898.408203</ele>
<time>2011-04-24T03:38:53Z</time>
<desc>lat.=22.310040, lon.=103.769211, Alt.=2898.408203m. Speed=0.468000m/h.</desc>
<speed>0.130000</speed>
</trkpt>
<trkpt lat="22.310043" lon="103.769211">
<ele>2898.220703</ele>
<time>2011-04-24T03:38:58Z</time>
<desc>lat.=22.310043, lon.=103.769211, Alt.=2898.220703m. Speed=0.504000m/h.</desc>
<speed>0.140000</speed>
</trkpt>
<trkpt lat="22.310047" lon="103.769218">
<ele>2898.158203</ele>
<time>2011-04-24T03:39:03Z</time>
<desc>lat.=22.310047, lon.=103.769218, Alt.=2898.158203m. Speed=0.144000m/h.</desc>
<speed>0.040000</speed>
</trkpt>
<trkpt lat="22.310047" lon="103.769218">
<ele>2898.033203</ele>
<time>2011-04-24T03:39:08Z</time>
<desc>lat.=22.310047, lon.=103.769218, Alt.=2898.033203m. Speed=0.216000m/h.</desc>
<speed>0.060000</speed>
</trkpt>
<trkpt lat="22.310047" lon="103.769218">
<ele>2897.970703</ele>
<time>2011-04-24T03:39:13Z</time>
<desc>lat.=22.310047, lon.=103.769218, Alt.=2897.970703m. Speed=0.144000m/h.</desc>
<speed>0.040000</speed>
</trkpt>
<trkpt lat="22.310047" lon="103.769218">
<ele>2897.908203</ele>
<time>2011-04-24T03:39:18Z</time>
<desc>lat.=22.310047, lon.=103.769218, Alt.=2897.908203m. Speed=0.180000m/h.</desc>
<speed>0.050000</speed>
</trkpt>
<trkpt lat="22.310049" lon="103.769218">
<ele>2897.845703</ele>
<time>2011-04-24T03:39:23Z</time>
<desc>lat.=22.310049, lon.=103.769218, Alt.=2897.845703m. Speed=0.252000m/h.</desc>
<speed>0.070000</speed>
</trkpt>
<trkpt lat="22.310051" lon="103.769226">
<ele>2897.720703</ele>
<time>2011-04-24T03:39:28Z</time>
<desc>lat.=22.310051, lon.=103.769226, Alt.=2897.720703m. Speed=0.468000m/h.</desc>
<speed>0.130000</speed>
</trkpt>
<trkpt lat="22.310043" lon="103.769226">
<ele>2897.595703</ele>
<time>2011-04-24T03:39:33Z</time>
<desc>lat.=22.310043, lon.=103.769226, Alt.=2897.595703m. Speed=0.612000m/h.</desc>
<speed>0.170000</speed>
</trkpt>
<trkpt lat="22.310036" lon="103.769234">
<ele>2897.533203</ele>
<time>2011-04-24T03:39:38Z</time>
<desc>lat.=22.310036, lon.=103.769234, Alt.=2897.533203m. Speed=0.864000m/h.</desc>
<speed>0.240000</speed>
</trkpt>
<trkpt lat="22.310028" lon="103.769234">
<ele>2898.408203</ele>
<time>2011-04-24T03:39:43Z</time>
<desc>lat.=22.310028, lon.=103.769234, Alt.=2898.408203m. Speed=0.936000m/h.</desc>
<speed>0.260000</speed>
</trkpt>
<trkpt lat="22.309986" lon="103.769302">
<ele>2899.033203</ele>
<time>2011-04-24T03:39:48Z</time>
<desc>lat.=22.309986, lon.=103.769302, Alt.=2899.033203m. Speed=2.340000m/h.</desc>
<speed>0.650000</speed>
</trkpt>
<trkpt lat="22.310009" lon="103.769325">
<ele>2900.720703</ele>
<time>2011-04-24T03:39:53Z</time>
<desc>lat.=22.310009, lon.=103.769325, Alt.=2900.720703m. Speed=0.792000m/h.</desc>
<speed>0.220000</speed>
</trkpt>
<trkpt lat="22.310005" lon="103.769333">
<ele>2901.095703</ele>
<time>2011-04-24T03:39:58Z</time>
<desc>lat.=22.310005, lon.=103.769333, Alt.=2901.095703m. Speed=0.540000m/h.</desc>
<speed>0.150000</speed>
</trkpt>
<trkpt lat="22.310001" lon="103.769341">
<ele>2901.283203</ele>
<time>2011-04-24T03:40:03Z</time>
<desc>lat.=22.310001, lon.=103.769341, Alt.=2901.283203m. Speed=0.468000m/h.</desc>
<speed>0.130000</speed>
</trkpt>
<trkpt lat="22.309999" lon="103.769341">
<ele>2901.470703</ele>
<time>2011-04-24T03:40:08Z</time>
<desc>lat.=22.309999, lon.=103.769341, Alt.=2901.470703m. Speed=0.144000m/h.</desc>
<speed>0.040000</speed>
</trkpt>
<trkpt lat="22.310009" lon="103.769363">
<ele>2901.908203</ele>
<time>2011-04-24T03:40:13Z</time>
<desc>lat.=22.310009, lon.=103.769363, Alt.=2901.908203m. Speed=2.916000m/h.</desc>
<speed>0.810000</speed>
</trkpt>
<trkpt lat="22.310005" lon="103.769424">
<ele>2903.908203</ele>
<time>2011-04-24T03:40:18Z</time>
<desc>lat.=22.310005, lon.=103.769424, Alt.=2903.908203m. Speed=3.384000m/h.</desc>
<speed>0.940000</speed>
</trkpt>
<trkpt lat="22.310026" lon="103.769493">
<ele>2905.095703</ele>
<time>2011-04-24T03:40:23Z</time>
<desc>lat.=22.310026, lon.=103.769493, Alt.=2905.095703m. Speed=5.616000m/h.</desc>
<speed>1.560000</speed>
</trkpt>
<trkpt lat="22.310034" lon="103.769547">
<ele>2905.595703</ele>
<time>2011-04-24T03:40:28Z</time>
<desc>lat.=22.310034, lon.=103.769547, Alt.=2905.595703m. Speed=4.284000m/h.</desc>
<speed>1.190000</speed>
</trkpt>
<trkpt lat="22.310047" lon="103.769585">
<ele>2909.095703</ele>
<time>2011-04-24T03:40:33Z</time>
<desc>lat.=22.310047, lon.=103.769585, Alt.=2909.095703m. Speed=3.096000m/h.</desc>
<speed>0.860000</speed>
</trkpt>
<trkpt lat="22.310041" lon="103.769638">
<ele>2910.783203</ele>
<time>2011-04-24T03:40:38Z</time>
<desc>lat.=22.310041, lon.=103.769638, Alt.=2910.783203m. Speed=4.356000m/h.</desc>
<speed>1.210000</speed>
</trkpt>
<trkpt lat="22.310053" lon="103.769699">
<ele>2912.970703</ele>
<time>2011-04-24T03:40:43Z</time>
<desc>lat.=22.310053, lon.=103.769699, Alt.=2912.970703m. Speed=3.204000m/h.</desc>
<speed>0.890000</speed>
</trkpt>
<trkpt lat="22.310057" lon="103.769753">
<ele>2914.845703</ele>
<time>2011-04-24T03:40:48Z</time>
<desc>lat.=22.310057, lon.=103.769753, Alt.=2914.845703m. Speed=3.564000m/h.</desc>
<speed>0.990000</speed>
</trkpt>
<trkpt lat="22.310072" lon="103.769791">
<ele>2916.595703</ele>
<time>2011-04-24T03:40:53Z</time>
<desc>lat.=22.310072, lon.=103.769791, Alt.=2916.595703m. Speed=2.736000m/h.</desc>
<speed>0.760000</speed>
</trkpt>
<trkpt lat="22.310089" lon="103.769821">
<ele>2918.720703</ele>
<time>2011-04-24T03:40:58Z</time>
<desc>lat.=22.310089, lon.=103.769821, Alt.=2918.720703m. Speed=2.520000m/h.</desc>
<speed>0.700000</speed>
</trkpt>
<trkpt lat="22.310087" lon="103.769859">
<ele>2919.970703</ele>
<time>2011-04-24T03:41:03Z</time>
<desc>lat.=22.310087, lon.=103.769859, Alt.=2919.970703m. Speed=2.412000m/h.</desc>
<speed>0.670000</speed>
</trkpt>
<trkpt lat="22.310089" lon="103.769882">
<ele>2920.845703</ele>
<time>2011-04-24T03:41:08Z</time>
<desc>lat.=22.310089, lon.=103.769882, Alt.=2920.845703m. Speed=1.260000m/h.</desc>
<speed>0.350000</speed>
</trkpt>
<trkpt lat="22.310110" lon="103.769920">
<ele>2922.533203</ele>
<time>2011-04-24T03:41:13Z</time>
<desc>lat.=22.310110, lon.=103.769920, Alt.=2922.533203m. Speed=2.628000m/h.</desc>
<speed>0.730000</speed>
</trkpt>
<trkpt lat="22.310108" lon="103.769966">
<ele>2924.408203</ele>
<time>2011-04-24T03:41:18Z</time>
<desc>lat.=22.310108, lon.=103.769966, Alt.=2924.408203m. Speed=3.672000m/h.</desc>
<speed>1.020000</speed>
</trkpt>
<trkpt lat="22.310120" lon="103.770035">
<ele>2924.970703</ele>
<time>2011-04-24T03:41:23Z</time>
<desc>lat.=22.310120, lon.=103.770035, Alt.=2924.970703m. Speed=2.664000m/h.</desc>
<speed>0.740000</speed>
</trkpt>
<trkpt lat="22.310141" lon="103.770081">
<ele>2925.345703</ele>
<time>2011-04-24T03:41:28Z</time>
<desc>lat.=22.310141, lon.=103.770081, Alt.=2925.345703m. Speed=3.168000m/h.</desc>
<speed>0.880000</speed>
</trkpt>
<trkpt lat="22.310141" lon="103.770134">
<ele>2926.345703</ele>
<time>2011-04-24T03:41:33Z</time>
<desc>lat.=22.310141, lon.=103.770134, Alt.=2926.345703m. Speed=2.628000m/h.</desc>
<speed>0.730000</speed>
</trkpt>
<trkpt lat="22.310137" lon="103.770195">
<ele>2926.720703</ele>
<time>2011-04-24T03:41:38Z</time>
<desc>lat.=22.310137, lon.=103.770195, Alt.=2926.720703m. Speed=2.412000m/h.</desc>
<speed>0.670000</speed>
</trkpt>
<trkpt lat="22.310141" lon="103.770241">
<ele>2927.033203</ele>
<time>2011-04-24T03:41:43Z</time>
<desc>lat.=22.310141, lon.=103.770241, Alt.=2927.033203m. Speed=3.672000m/h.</desc>
<speed>1.020000</speed>
</trkpt>
<trkpt lat="22.310116" lon="103.770271">
<ele>2928.845703</ele>
<time>2011-04-24T03:41:48Z</time>
<desc>lat.=22.310116, lon.=103.770271, Alt.=2928.845703m. Speed=1.584000m/h.</desc>
<speed>0.440000</speed>
</trkpt>
<trkpt lat="22.310116" lon="103.770294">
<ele>2930.095703</ele>
<time>2011-04-24T03:41:53Z</time>
<desc>lat.=22.310116, lon.=103.770294, Alt.=2930.095703m. Speed=1.440000m/h.</desc>
<speed>0.400000</speed>
</trkpt>
<trkpt lat="22.310122" lon="103.770302">
<ele>2931.533203</ele>
<time>2011-04-24T03:41:58Z</time>
<desc>lat.=22.310122, lon.=103.770302, Alt.=2931.533203m. Speed=1.116000m/h.</desc>
<speed>0.310000</speed>
</trkpt>
<trkpt lat="22.310127" lon="103.770317">
<ele>2932.220703</ele>
<time>2011-04-24T03:42:03Z</time>
<desc>lat.=22.310127, lon.=103.770317, Alt.=2932.220703m. Speed=1.044000m/h.</desc>
<speed>0.290000</speed>
</trkpt>
<trkpt lat="22.310123" lon="103.770325">
<ele>2932.595703</ele>
<time>2011-04-24T03:42:08Z</time>
<desc>lat.=22.310123, lon.=103.770325, Alt.=2932.595703m. Speed=1.296000m/h.</desc>
<speed>0.360000</speed>
</trkpt>
<trkpt lat="22.310135" lon="103.770340">
<ele>2932.845703</ele>
<time>2011-04-24T03:42:13Z</time>
<desc>lat.=22.310135, lon.=103.770340, Alt.=2932.845703m. Speed=2.232000m/h.</desc>
<speed>0.620000</speed>
</trkpt>
<trkpt lat="22.310144" lon="103.770363">
<ele>2933.408203</ele>
<time>2011-04-24T03:42:18Z</time>
<desc>lat.=22.310144, lon.=103.770363, Alt.=2933.408203m. Speed=1.476000m/h.</desc>
<speed>0.410000</speed>
</trkpt>
<trkpt lat="22.310116" lon="103.770393">
<ele>2933.720703</ele>
<time>2011-04-24T03:42:23Z</time>
<desc>lat.=22.310116, lon.=103.770393, Alt.=2933.720703m. Speed=2.340000m/h.</desc>
<speed>0.650000</speed>
</trkpt>
<trkpt lat="22.310101" lon="103.770432">
<ele>2933.845703</ele>
<time>2011-04-24T03:42:28Z</time>
<desc>lat.=22.310101, lon.=103.770432, Alt.=2933.845703m. Speed=2.592000m/h.</desc>
<speed>0.720000</speed>
</trkpt>
<trkpt lat="22.310087" lon="103.770462">
<ele>2932.970703</ele>
<time>2011-04-24T03:42:33Z</time>
<desc>lat.=22.310087, lon.=103.770462, Alt.=2932.970703m. Speed=1.656000m/h.</desc>
<speed>0.460000</speed>
</trkpt>
<trkpt lat="22.310120" lon="103.770508">
<ele>2932.220703</ele>
<time>2011-04-24T03:42:38Z</time>
<desc>lat.=22.310120, lon.=103.770508, Alt.=2932.220703m. Speed=2.808000m/h.</desc>
<speed>0.780000</speed>
</trkpt>
<trkpt lat="22.310125" lon="103.770554">
<ele>2932.408203</ele>
<time>2011-04-24T03:42:43Z</time>
<desc>lat.=22.310125, lon.=103.770554, Alt.=2932.408203m. Speed=3.024000m/h.</desc>
<speed>0.840000</speed>
</trkpt>
<trkpt lat="22.310123" lon="103.770576">
<ele>2932.345703</ele>
<time>2011-04-24T03:42:48Z</time>
<desc>lat.=22.310123, lon.=103.770576, Alt.=2932.345703m. Speed=1.980000m/h.</desc>
<speed>0.550000</speed>
</trkpt>
<trkpt lat="22.310106" lon="103.770607">
<ele>2933.408203</ele>
<time>2011-04-24T03:42:53Z</time>
<desc>lat.=22.310106, lon.=103.770607, Alt.=2933.408203m. Speed=2.772000m/h.</desc>
<speed>0.770000</speed>
</trkpt>
<trkpt lat="22.310104" lon="103.770653">
<ele>2933.470703</ele>
<time>2011-04-24T03:42:58Z</time>
<desc>lat.=22.310104, lon.=103.770653, Alt.=2933.470703m. Speed=3.888000m/h.</desc>
<speed>1.080000</speed>
</trkpt>
<trkpt lat="22.310106" lon="103.770706">
<ele>2933.283203</ele>
<time>2011-04-24T03:43:03Z</time>
<desc>lat.=22.310106, lon.=103.770706, Alt.=2933.283203m. Speed=3.384000m/h.</desc>
<speed>0.940000</speed>
</trkpt>
<trkpt lat="22.310110" lon="103.770752">
<ele>2934.283203</ele>
<time>2011-04-24T03:43:08Z</time>
<desc>lat.=22.310110, lon.=103.770752, Alt.=2934.283203m. Speed=3.096000m/h.</desc>
<speed>0.860000</speed>
</trkpt>
<trkpt lat="22.310110" lon="103.770790">
<ele>2934.470703</ele>
<time>2011-04-24T03:43:13Z</time>
<desc>lat.=22.310110, lon.=103.770790, Alt.=2934.470703m. Speed=2.736000m/h.</desc>
<speed>0.760000</speed>
</trkpt>
<trkpt lat="22.310104" lon="103.770836">
<ele>2933.970703</ele>
<time>2011-04-24T03:43:18Z</time>
<desc>lat.=22.310104, lon.=103.770836, Alt.=2933.970703m. Speed=3.960000m/h.</desc>
<speed>1.100000</speed>
</trkpt>
<trkpt lat="22.310102" lon="103.770866">
<ele>2933.845703</ele>
<time>2011-04-24T03:43:23Z</time>
<desc>lat.=22.310102, lon.=103.770866, Alt.=2933.845703m. Speed=2.808000m/h.</desc>
<speed>0.780000</speed>
</trkpt>
<trkpt lat="22.310102" lon="103.770912">
<ele>2934.220703</ele>
<time>2011-04-24T03:43:28Z</time>
<desc>lat.=22.310102, lon.=103.770912, Alt.=2934.220703m. Speed=2.988000m/h.</desc>
<speed>0.830000</speed>
</trkpt>
<trkpt lat="22.310101" lon="103.770950">
<ele>2933.908203</ele>
<time>2011-04-24T03:43:33Z</time>
<desc>lat.=22.310101, lon.=103.770950, Alt.=2933.908203m. Speed=1.728000m/h.</desc>
<speed>0.480000</speed>
</trkpt>
<trkpt lat="22.310101" lon="103.770981">
<ele>2933.783203</ele>
<time>2011-04-24T03:43:38Z</time>
<desc>lat.=22.310101, lon.=103.770981, Alt.=2933.783203m. Speed=2.340000m/h.</desc>
<speed>0.650000</speed>
</trkpt>
<trkpt lat="22.310099" lon="103.771011">
<ele>2934.908203</ele>
<time>2011-04-24T03:43:43Z</time>
<desc>lat.=22.310099, lon.=103.771011, Alt.=2934.908203m. Speed=1.692000m/h.</desc>
<speed>0.470000</speed>
</trkpt>
<trkpt lat="22.310097" lon="103.771019">
<ele>2934.783203</ele>
<time>2011-04-24T03:43:48Z</time>
<desc>lat.=22.310097, lon.=103.771019, Alt.=2934.783203m. Speed=0.540000m/h.</desc>
<speed>0.150000</speed>
</trkpt>
<trkpt lat="22.310089" lon="103.771049">
<ele>2934.720703</ele>
<time>2011-04-24T03:43:53Z</time>
<desc>lat.=22.310089, lon.=103.771049, Alt.=2934.720703m. Speed=0.432000m/h.</desc>
<speed>0.120000</speed>
</trkpt>
<trkpt lat="22.310089" lon="103.771072">
<ele>2935.783203</ele>
<time>2011-04-24T03:43:58Z</time>
<desc>lat.=22.310089, lon.=103.771072, Alt.=2935.783203m. Speed=2.196000m/h.</desc>
<speed>0.610000</speed>
</trkpt>
<trkpt lat="22.310080" lon="103.771095">
<ele>2935.533203</ele>
<time>2011-04-24T03:44:03Z</time>
<desc>lat.=22.310080, lon.=103.771095, Alt.=2935.533203m. Speed=0.288000m/h.</desc>
<speed>0.080000</speed>
</trkpt>
<trkpt lat="22.310093" lon="103.771126">
<ele>2935.033203</ele>
<time>2011-04-24T03:44:08Z</time>
<desc>lat.=22.310093, lon.=103.771126, Alt.=2935.033203m. Speed=4.032000m/h.</desc>
<speed>1.120000</speed>
</trkpt>
<trkpt lat="22.310099" lon="103.771179">
<ele>2934.658203</ele>
<time>2011-04-24T03:44:13Z</time>
<desc>lat.=22.310099, lon.=103.771179, Alt.=2934.658203m. Speed=3.816000m/h.</desc>
<speed>1.060000</speed>
</trkpt>
<trkpt lat="22.310097" lon="103.771233">
<ele>2933.533203</ele>
<time>2011-04-24T03:44:18Z</time>
<desc>lat.=22.310097, lon.=103.771233, Alt.=2933.533203m. Speed=3.816000m/h.</desc>
<speed>1.060000</speed>
</trkpt>
<trkpt lat="22.310093" lon="103.771286">
<ele>2933.470703</ele>
<time>2011-04-24T03:44:23Z</time>
<desc>lat.=22.310093, lon.=103.771286, Alt.=2933.470703m. Speed=2.916000m/h.</desc>
<speed>0.810000</speed>
</trkpt>
<trkpt lat="22.310106" lon="103.771332">
<ele>2932.720703</ele>
<time>2011-04-24T03:44:28Z</time>
<desc>lat.=22.310106, lon.=103.771332, Alt.=2932.720703m. Speed=3.780000m/h.</desc>
<speed>1.050000</speed>
</trkpt>
<trkpt lat="22.310106" lon="103.771393">
<ele>2933.345703</ele>
<time>2011-04-24T03:44:33Z</time>
<desc>lat.=22.310106, lon.=103.771393, Alt.=2933.345703m. Speed=2.592000m/h.</desc>
<speed>0.720000</speed>
</trkpt>
<trkpt lat="22.310129" lon="103.771408">
<ele>2939.845703</ele>
<time>2011-04-24T03:44:38Z</time>
<desc>lat.=22.310129, lon.=103.771408, Alt.=2939.845703m. Speed=0.144000m/h.</desc>
<speed>0.040000</speed>
</trkpt>
<trkpt lat="22.310137" lon="103.771416">
<ele>2942.158203</ele>
<time>2011-04-24T03:44:43Z</time>
<desc>lat.=22.310137, lon.=103.771416, Alt.=2942.158203m. Speed=0.324000m/h.</desc>
<speed>0.090000</speed>
</trkpt>
<trkpt lat="22.310143" lon="103.771416">
<ele>2943.595703</ele>
<time>2011-04-24T03:44:48Z</time>
<desc>lat.=22.310143, lon.=103.771416, Alt.=2943.595703m. Speed=0.540000m/h.</desc>
<speed>0.150000</speed>
</trkpt>
<trkpt lat="22.310144" lon="103.771423">
<ele>2943.533203</ele>
<time>2011-04-24T03:44:53Z</time>
<desc>lat.=22.310144, lon.=103.771423, Alt.=2943.533203m. Speed=0.216000m/h.</desc>
<speed>0.060000</speed>
</trkpt>
<trkpt lat="22.310144" lon="103.771423">
<ele>2943.595703</ele>
<time>2011-04-24T03:44:58Z</time>
<desc>lat.=22.310144, lon.=103.771423, Alt.=2943.595703m. Speed=1.296000m/h.</desc>
<speed>0.360000</speed>
</trkpt>
<trkpt lat="22.310137" lon="103.771423">
<ele>2945.095703</ele>
<time>2011-04-24T03:45:03Z</time>
<desc>lat.=22.310137, lon.=103.771423, Alt.=2945.095703m. Speed=1.440000m/h.</desc>
<speed>0.400000</speed>
</trkpt>
<trkpt lat="22.310139" lon="103.771416">
<ele>2945.533203</ele>
<time>2011-04-24T03:45:08Z</time>
<desc>lat.=22.310139, lon.=103.771416, Alt.=2945.533203m. Speed=0.000000m/h.</desc>
<speed>0.000000</speed>
</trkpt>
<trkpt lat="22.310139" lon="103.771416">
<ele>2945.470703</ele>
<time>2011-04-24T03:45:13Z</time>
<desc>lat.=22.310139, lon.=103.771416, Alt.=2945.470703m. Speed=0.360000m/h.</desc>
<speed>0.100000</speed>
</trkpt>
<trkpt lat="22.310141" lon="103.771423">
<ele>2945.345703</ele>
<time>2011-04-24T03:45:18Z</time>
<desc>lat.=22.310141, lon.=103.771423, Alt.=2945.345703m. Speed=3.564000m/h.</desc>
<speed>0.990000</speed>
</trkpt>
<trkpt lat="22.310133" lon="103.771461">
<ele>2945.408203</ele>
<time>2011-04-24T03:45:23Z</time>
<desc>lat.=22.310133, lon.=103.771461, Alt.=2945.408203m. Speed=4.032000m/h.</desc>
<speed>1.120000</speed>
</trkpt>
<trkpt lat="22.310146" lon="103.771507">
<ele>2945.470703</ele>
<time>2011-04-24T03:45:28Z</time>
<desc>lat.=22.310146, lon.=103.771507, Alt.=2945.470703m. Speed=2.556000m/h.</desc>
<speed>0.710000</speed>
</trkpt>
<trkpt lat="22.310179" lon="103.771568">
<ele>2945.845703</ele>
<time>2011-04-24T03:45:33Z</time>
<desc>lat.=22.310179, lon.=103.771568, Alt.=2945.845703m. Speed=4.212000m/h.</desc>
<speed>1.170000</speed>
</trkpt>
<trkpt lat="22.310179" lon="103.771622">
<ele>2946.283203</ele>
<time>2011-04-24T03:45:38Z</time>
<desc>lat.=22.310179, lon.=103.771622, Alt.=2946.283203m. Speed=1.728000m/h.</desc>
<speed>0.480000</speed>
</trkpt>
<trkpt lat="22.310183" lon="103.771675">
<ele>2946.345703</ele>
<time>2011-04-24T03:45:43Z</time>
<desc>lat.=22.310183, lon.=103.771675, Alt.=2946.345703m. Speed=4.428000m/h.</desc>
<speed>1.230000</speed>
</trkpt>
<trkpt lat="22.310213" lon="103.771729">
<ele>2946.345703</ele>
<time>2011-04-24T03:45:48Z</time>
<desc>lat.=22.310213, lon.=103.771729, Alt.=2946.345703m. Speed=4.032000m/h.</desc>
<speed>1.120000</speed>
</trkpt>
<trkpt lat="22.310207" lon="103.771759">
<ele>2946.283203</ele>
<time>2011-04-24T03:45:53Z</time>
<desc>lat.=22.310207, lon.=103.771759, Alt.=2946.283203m. Speed=0.324000m/h.</desc>
<speed>0.090000</speed>
</trkpt>
<trkpt lat="22.310198" lon="103.771767">
<ele>2946.158203</ele>
<time>2011-04-24T03:45:58Z</time>
<desc>lat.=22.310198, lon.=103.771767, Alt.=2946.158203m. Speed=0.036000m/h.</desc>
<speed>0.010000</speed>
</trkpt>
<trkpt lat="22.310196" lon="103.771767">
<ele>2946.095703</ele>
<time>2011-04-24T03:46:03Z</time>
<desc>lat.=22.310196, lon.=103.771767, Alt.=2946.095703m. Speed=0.036000m/h.</desc>
<speed>0.010000</speed>
</trkpt>
<trkpt lat="22.310198" lon="103.771767">
<ele>2946.095703</ele>
<time>2011-04-24T03:46:08Z</time>
<desc>lat.=22.310198, lon.=103.771767, Alt.=2946.095703m. Speed=0.576000m/h.</desc>
<speed>0.160000</speed>
</trkpt>
<trkpt lat="22.310188" lon="103.771759">
<ele>2946.158203</ele>
<time>2011-04-24T03:46:13Z</time>
<desc>lat.=22.310188, lon.=103.771759, Alt.=2946.158203m. Speed=0.756000m/h.</desc>
<speed>0.210000</speed>
</trkpt>
<trkpt lat="22.310179" lon="103.771759">
<ele>2946.283203</ele>
<time>2011-04-24T03:46:18Z</time>
<desc>lat.=22.310179, lon.=103.771759, Alt.=2946.283203m. Speed=0.576000m/h.</desc>
<speed>0.160000</speed>
</trkpt>
<trkpt lat="22.310173" lon="103.771759">
<ele>2946.408203</ele>
<time>2011-04-24T03:46:23Z</time>
<desc>lat.=22.310173, lon.=103.771759, Alt.=2946.408203m. Speed=0.468000m/h.</desc>
<speed>0.130000</speed>
</trkpt>
<trkpt lat="22.310171" lon="103.771759">
<ele>2946.470703</ele>
<time>2011-04-24T03:46:28Z</time>
<desc>lat.=22.310171, lon.=103.771759, Alt.=2946.470703m. Speed=0.288000m/h.</desc>
<speed>0.080000</speed>
</trkpt>
<trkpt lat="22.310163" lon="103.771767">
<ele>2945.970703</ele>
<time>2011-04-24T03:46:33Z</time>
<desc>lat.=22.310163, lon.=103.771767, Alt.=2945.970703m. Speed=0.468000m/h.</desc>
<speed>0.130000</speed>
</trkpt>
<trkpt lat="22.310169" lon="103.771767">
<ele>2945.158203</ele>
<time>2011-04-24T03:46:38Z</time>
<desc>lat.=22.310169, lon.=103.771767, Alt.=2945.158203m. Speed=0.324000m/h.</desc>
<speed>0.090000</speed>
</trkpt>
<trkpt lat="22.310175" lon="103.771782">
<ele>2945.033203</ele>
<time>2011-04-24T03:46:43Z</time>
<desc>lat.=22.310175, lon.=103.771782, Alt.=2945.033203m. Speed=1.008000m/h.</desc>
<speed>0.280000</speed>
</trkpt>
<trkpt lat="22.310175" lon="103.771774">
<ele>2944.470703</ele>
<time>2011-04-24T03:46:48Z</time>
<desc>lat.=22.310175, lon.=103.771774, Alt.=2944.470703m. Speed=0.540000m/h.</desc>
<speed>0.150000</speed>
</trkpt>
<trkpt lat="22.310175" lon="103.771774">
<ele>2944.095703</ele>
<time>2011-04-24T03:46:53Z</time>
<desc>lat.=22.310175, lon.=103.771774, Alt.=2944.095703m. Speed=0.072000m/h.</desc>
<speed>0.020000</speed>
</trkpt>
<trkpt lat="22.310175" lon="103.771774">
<ele>2944.033203</ele>
<time>2011-04-24T03:46:58Z</time>
<desc>lat.=22.310175, lon.=103.771774, Alt.=2944.033203m. Speed=0.432000m/h.</desc>
<speed>0.120000</speed>
</trkpt>
<trkpt lat="22.310175" lon="103.771774">
<ele>2944.033203</ele>
<time>2011-04-24T03:47:03Z</time>
<desc>lat.=22.310175, lon.=103.771774, Alt.=2944.033203m. Speed=0.396000m/h.</desc>
<speed>0.110000</speed>
</trkpt>
<trkpt lat="22.310175" lon="103.771774">
<ele>2944.033203</ele>
<time>2011-04-24T03:47:08Z</time>
<desc>lat.=22.310175, lon.=103.771774, Alt.=2944.033203m. Speed=0.036000m/h.</desc>
<speed>0.010000</speed>
</trkpt>
<trkpt lat="22.310175" lon="103.771774">
<ele>2944.033203</ele>
<time>2011-04-24T03:47:13Z</time>
<desc>lat.=22.310175, lon.=103.771774, Alt.=2944.033203m. Speed=0.180000m/h.</desc>
<speed>0.050000</speed>
</trkpt>
<trkpt lat="22.310175" lon="103.771774">
<ele>2944.033203</ele>
<time>2011-04-24T03:47:18Z</time>
<desc>lat.=22.310175, lon.=103.771774, Alt.=2944.033203m. Speed=0.144000m/h.</desc>
<speed>0.040000</speed>
</trkpt>
<trkpt lat="22.310171" lon="103.771774">
<ele>2944.220703</ele>
<time>2011-04-24T03:47:23Z</time>
<desc>lat.=22.310171, lon.=103.771774, Alt.=2944.220703m. Speed=0.864000m/h.</desc>
<speed>0.240000</speed>
</trkpt>
<trkpt lat="22.310173" lon="103.771782">
<ele>2944.158203</ele>
<time>2011-04-24T03:47:28Z</time>
<desc>lat.=22.310173, lon.=103.771782, Alt.=2944.158203m. Speed=0.072000m/h.</desc>
<speed>0.020000</speed>
</trkpt>
<trkpt lat="22.310173" lon="103.771782">
<ele>2944.220703</ele>
<time>2011-04-24T03:47:33Z</time>
<desc>lat.=22.310173, lon.=103.771782, Alt.=2944.220703m. Speed=0.072000m/h.</desc>
<speed>0.020000</speed>
</trkpt>
<trkpt lat="22.310173" lon="103.771774">
<ele>2944.220703</ele>
<time>2011-04-24T03:47:38Z</time>
<desc>lat.=22.310173, lon.=103.771774, Alt.=2944.220703m. Speed=0.036000m/h.</desc>
<speed>0.010000</speed>
</trkpt>
<trkpt lat="22.310173" lon="103.771774">
<ele>2944.220703</ele>
<time>2011-04-24T03:47:43Z</time>
<desc>lat.=22.310173, lon.=103.771774, Alt.=2944.220703m. Speed=0.036000m/h.</desc>
<speed>0.010000</speed>
</trkpt>
<trkpt lat="22.310171" lon="103.771774">
<ele>2944.158203</ele>
<time>2011-04-24T03:47:48Z</time>
<desc>lat.=22.310171, lon.=103.771774, Alt.=2944.158203m. Speed=1.080000m/h.</desc>
<speed>0.300000</speed>
</trkpt>
<trkpt lat="22.310169" lon="103.771774">
<ele>2944.095703</ele>
<time>2011-04-24T03:47:53Z</time>
<desc>lat.=22.310169, lon.=103.771774, Alt.=2944.095703m. Speed=0.072000m/h.</desc>
<speed>0.020000</speed>
</trkpt>
<trkpt lat="22.310169" lon="103.771774">
<ele>2944.033203</ele>
<time>2011-04-24T03:47:58Z</time>
<desc>lat.=22.310169, lon.=103.771774, Alt.=2944.033203m. Speed=0.216000m/h.</desc>
<speed>0.060000</speed>
</trkpt>
<trkpt lat="22.310163" lon="103.771767">
<ele>2944.095703</ele>
<time>2011-04-24T03:48:03Z</time>
<desc>lat.=22.310163, lon.=103.771767, Alt.=2944.095703m. Speed=0.360000m/h.</desc>
<speed>0.100000</speed>
</trkpt>
<trkpt lat="22.310162" lon="103.771767">
<ele>2944.095703</ele>
<time>2011-04-24T03:48:08Z</time>
<desc>lat.=22.310162, lon.=103.771767, Alt.=2944.095703m. Speed=0.180000m/h.</desc>
<speed>0.050000</speed>
</trkpt>
<trkpt lat="22.310158" lon="103.771782">
<ele>2943.345703</ele>
<time>2011-04-24T03:48:13Z</time>
<desc>lat.=22.310158, lon.=103.771782, Alt.=2943.345703m. Speed=2.088000m/h.</desc>
<speed>0.580000</speed>
</trkpt>
<trkpt lat="22.310152" lon="103.771797">
<ele>2942.533203</ele>
<time>2011-04-24T03:48:18Z</time>
<desc>lat.=22.310152, lon.=103.771797, Alt.=2942.533203m. Speed=1.152000m/h.</desc>
<speed>0.320000</speed>
</trkpt>
<trkpt lat="22.310139" lon="103.771812">
<ele>2941.158203</ele>
<time>2011-04-24T03:48:23Z</time>
<desc>lat.=22.310139, lon.=103.771812, Alt.=2941.158203m. Speed=0.828000m/h.</desc>
<speed>0.230000</speed>
</trkpt>
<trkpt lat="22.310139" lon="103.771812">
<ele>2940.720703</ele>
<time>2011-04-24T03:48:28Z</time>
<desc>lat.=22.310139, lon.=103.771812, Alt.=2940.720703m. Speed=0.108000m/h.</desc>
<speed>0.030000</speed>
</trkpt>
<trkpt lat="22.310137" lon="103.771812">
<ele>2940.470703</ele>
<time>2011-04-24T03:48:33Z</time>
<desc>lat.=22.310137, lon.=103.771812, Alt.=2940.470703m. Speed=0.288000m/h.</desc>
<speed>0.080000</speed>
</trkpt>
<trkpt lat="22.310131" lon="103.771820">
<ele>2940.158203</ele>
<time>2011-04-24T03:48:38Z</time>
<desc>lat.=22.310131, lon.=103.771820, Alt.=2940.158203m. Speed=0.432000m/h.</desc>
<speed>0.120000</speed>
</trkpt>
<trkpt lat="22.310127" lon="103.771820">
<ele>2939.845703</ele>
<time>2011-04-24T03:48:43Z</time>
<desc>lat.=22.310127, lon.=103.771820, Alt.=2939.845703m. Speed=0.432000m/h.</desc>
<speed>0.120000</speed>
</trkpt>
<trkpt lat="22.310125" lon="103.771828">
<ele>2939.470703</ele>
<time>2011-04-24T03:48:48Z</time>
<desc>lat.=22.310125, lon.=103.771828, Alt.=2939.470703m. Speed=0.504000m/h.</desc>
<speed>0.140000</speed>
</trkpt>
<trkpt lat="22.310120" lon="103.771828">
<ele>2939.220703</ele>
<time>2011-04-24T03:48:53Z</time>
<desc>lat.=22.310120, lon.=103.771828, Alt.=2939.220703m. Speed=0.468000m/h.</desc>
<speed>0.130000</speed>
</trkpt>
<trkpt lat="22.310116" lon="103.771828">
<ele>2938.970703</ele>
<time>2011-04-24T03:48:58Z</time>
<desc>lat.=22.310116, lon.=103.771828, Alt.=2938.970703m. Speed=0.396000m/h.</desc>
<speed>0.110000</speed>
</trkpt>
<trkpt lat="22.310112" lon="103.771828">
<ele>2938.783203</ele>
<time>2011-04-24T03:49:03Z</time>
<desc>lat.=22.310112, lon.=103.771828, Alt.=2938.783203m. Speed=0.288000m/h.</desc>
<speed>0.080000</speed>
</trkpt>
<trkpt lat="22.310102" lon="103.771828">
<ele>2938.595703</ele>
<time>2011-04-24T03:49:08Z</time>
<desc>lat.=22.310102, lon.=103.771828, Alt.=2938.595703m. Speed=0.900000m/h.</desc>
<speed>0.250000</speed>
</trkpt>
<trkpt lat="22.310097" lon="103.771828">
<ele>2938.283203</ele>
<time>2011-04-24T03:49:13Z</time>
<desc>lat.=22.310097, lon.=103.771828, Alt.=2938.283203m. Speed=0.648000m/h.</desc>
<speed>0.180000</speed>
</trkpt>
<trkpt lat="22.310091" lon="103.771828">
<ele>2937.970703</ele>
<time>2011-04-24T03:49:18Z</time>
<desc>lat.=22.310091, lon.=103.771828, Alt.=2937.970703m. Speed=0.144000m/h.</desc>
<speed>0.040000</speed>
</trkpt>
<trkpt lat="22.310091" lon="103.771828">
<ele>2937.658203</ele>
<time>2011-04-24T03:49:23Z</time>
<desc>lat.=22.310091, lon.=103.771828, Alt.=2937.658203m. Speed=0.180000m/h.</desc>
<speed>0.050000</speed>
</trkpt>
<trkpt lat="22.310091" lon="103.771835">
<ele>2937.283203</ele>
<time>2011-04-24T03:49:28Z</time>
<desc>lat.=22.310091, lon.=103.771835, Alt.=2937.283203m. Speed=0.072000m/h.</desc>
<speed>0.020000</speed>
</trkpt>
<trkpt lat="22.310091" lon="103.771835">
<ele>2937.220703</ele>
<time>2011-04-24T03:49:33Z</time>
<desc>lat.=22.310091, lon.=103.771835, Alt.=2937.220703m. Speed=0.036000m/h.</desc>
<speed>0.010000</speed>
</trkpt>
<trkpt lat="22.310091" lon="103.771835">
<ele>2937.158203</ele>
<time>2011-04-24T03:49:38Z</time>
<desc>lat.=22.310091, lon.=103.771835, Alt.=2937.158203m. Speed=0.036000m/h.</desc>
<speed>0.010000</speed>
</trkpt>
<trkpt lat="22.310091" lon="103.771835">
<ele>2937.158203</ele>
<time>2011-04-24T03:49:43Z</time>
<desc>lat.=22.310091, lon.=103.771835, Alt.=2937.158203m. Speed=0.072000m/h.</desc>
<speed>0.020000</speed>
</trkpt>
<trkpt lat="22.310091" lon="103.771835">
<ele>2937.095703</ele>
<time>2011-04-24T03:49:48Z</time>
<desc>lat.=22.310091, lon.=103.771835, Alt.=2937.095703m. Speed=0.180000m/h.</desc>
<speed>0.050000</speed>
</trkpt>
<trkpt lat="22.310091" lon="103.771835">
<ele>2937.095703</ele>
<time>2011-04-24T03:49:53Z</time>
<desc>lat.=22.310091, lon.=103.771835, Alt.=2937.095703m. Speed=0.108000m/h.</desc>
<speed>0.030000</speed>
</trkpt>
<trkpt lat="22.310091" lon="103.771835">
<ele>2937.095703</ele>
<time>2011-04-24T03:49:58Z</time>
<desc>lat.=22.310091, lon.=103.771835, Alt.=2937.095703m. Speed=0.072000m/h.</desc>
<speed>0.020000</speed>
</trkpt>
<trkpt lat="22.310089" lon="103.771835">
<ele>2937.095703</ele>
<time>2011-04-24T03:50:03Z</time>
<desc>lat.=22.310089, lon.=103.771835, Alt.=2937.095703m. Speed=0.144000m/h.</desc>
<speed>0.040000</speed>
</trkpt>
<trkpt lat="22.310089" lon="103.771835">
<ele>2937.033203</ele>
<time>2011-04-24T03:50:08Z</time>
<desc>lat.=22.310089, lon.=103.771835, Alt.=2937.033203m. Speed=0.144000m/h.</desc>
<speed>0.040000</speed>
</trkpt>
<trkpt lat="22.310089" lon="103.771835">
<ele>2937.033203</ele>
<time>2011-04-24T03:50:13Z</time>
<desc>lat.=22.310089, lon.=103.771835, Alt.=2937.033203m. Speed=0.108000m/h.</desc>
<speed>0.030000</speed>
</trkpt>
<trkpt lat="22.310089" lon="103.771835">
<ele>2936.970703</ele>
<time>2011-04-24T03:50:18Z</time>
<desc>lat.=22.310089, lon.=103.771835, Alt.=2936.970703m. Speed=0.000000m/h.</desc>
<speed>0.000000</speed>
</trkpt>
<trkpt lat="22.310087" lon="103.771835">
<ele>2936.970703</ele>
<time>2011-04-24T03:50:23Z</time>
<desc>lat.=22.310087, lon.=103.771835, Alt.=2936.970703m. Speed=0.108000m/h.</desc>
<speed>0.030000</speed>
</trkpt>
<trkpt lat="22.310087" lon="103.771835">
<ele>2936.970703</ele>
<time>2011-04-24T03:50:28Z</time>
<desc>lat.=22.310087, lon.=103.771835, Alt.=2936.970703m. Speed=0.216000m/h.</desc>
<speed>0.060000</speed>
</trkpt>
<trkpt lat="22.310085" lon="103.771843">
<ele>2936.908203</ele>
<time>2011-04-24T03:50:33Z</time>
<desc>lat.=22.310085, lon.=103.771843, Alt.=2936.908203m. Speed=0.144000m/h.</desc>
<speed>0.040000</speed>
</trkpt>
<trkpt lat="22.310085" lon="103.771843">
<ele>2936.908203</ele>
<time>2011-04-24T03:50:38Z</time>
<desc>lat.=22.310085, lon.=103.771843, Alt.=2936.908203m. Speed=0.216000m/h.</desc>
<speed>0.060000</speed>
</trkpt>
<trkpt lat="22.310085" lon="103.771843">
<ele>2936.908203</ele>
<time>2011-04-24T03:50:43Z</time>
<desc>lat.=22.310085, lon.=103.771843, Alt.=2936.908203m. Speed=1.080000m/h.</desc>
<speed>0.300000</speed>
</trkpt>
<trkpt lat="22.310072" lon="103.771881">
<ele>2936.908203</ele>
<time>2011-04-24T03:50:48Z</time>
<desc>lat.=22.310072, lon.=103.771881, Alt.=2936.908203m. Speed=1.620000m/h.</desc>
<speed>0.450000</speed>
</trkpt>
<trkpt lat="22.310034" lon="103.771935">
<ele>2937.345703</ele>
<time>2011-04-24T03:50:53Z</time>
<desc>lat.=22.310034, lon.=103.771935, Alt.=2937.345703m. Speed=1.980000m/h.</desc>
<speed>0.550000</speed>
</trkpt>
<trkpt lat="22.309982" lon="103.771980">
<ele>2937.345703</ele>
<time>2011-04-24T03:50:58Z</time>
<desc>lat.=22.309982, lon.=103.771980, Alt.=2937.345703m. Speed=2.736000m/h.</desc>
<speed>0.760000</speed>
</trkpt>
<trkpt lat="22.309937" lon="103.772034">
<ele>2936.845703</ele>
<time>2011-04-24T03:51:03Z</time>
<desc>lat.=22.309937, lon.=103.772034, Alt.=2936.845703m. Speed=3.744000m/h.</desc>
<speed>1.040000</speed>
</trkpt>
<trkpt lat="22.309868" lon="103.772049">
<ele>2935.845703</ele>
<time>2011-04-24T03:51:08Z</time>
<desc>lat.=22.309868, lon.=103.772049, Alt.=2935.845703m. Speed=3.384000m/h.</desc>
<speed>0.940000</speed>
</trkpt>
<trkpt lat="22.309818" lon="103.772087">
<ele>2935.470703</ele>
<time>2011-04-24T03:51:13Z</time>
<desc>lat.=22.309818, lon.=103.772087, Alt.=2935.470703m. Speed=1.764000m/h.</desc>
<speed>0.490000</speed>
</trkpt>
<trkpt lat="22.309807" lon="103.772072">
<ele>2933.658203</ele>
<time>2011-04-24T03:51:18Z</time>
<desc>lat.=22.309807, lon.=103.772072, Alt.=2933.658203m. Speed=1.296000m/h.</desc>
<speed>0.360000</speed>
</trkpt>
<trkpt lat="22.309790" lon="103.772079">
<ele>2932.595703</ele>
<time>2011-04-24T03:51:23Z</time>
<desc>lat.=22.309790, lon.=103.772079, Alt.=2932.595703m. Speed=1.188000m/h.</desc>
<speed>0.330000</speed>
</trkpt>
<trkpt lat="22.309767" lon="103.772102">
<ele>2931.595703</ele>
<time>2011-04-24T03:51:28Z</time>
<desc>lat.=22.309767, lon.=103.772102, Alt.=2931.595703m. Speed=1.872000m/h.</desc>
<speed>0.520000</speed>
</trkpt>
<trkpt lat="22.309734" lon="103.772102">
<ele>2930.533203</ele>
<time>2011-04-24T03:51:33Z</time>
<desc>lat.=22.309734, lon.=103.772102, Alt.=2930.533203m. Speed=2.196000m/h.</desc>
<speed>0.610000</speed>
</trkpt>
<trkpt lat="22.309721" lon="103.772118">
<ele>2928.658203</ele>
<time>2011-04-24T03:51:38Z</time>
<desc>lat.=22.309721, lon.=103.772118, Alt.=2928.658203m. Speed=2.340000m/h.</desc>
<speed>0.650000</speed>
</trkpt>
<trkpt lat="22.309721" lon="103.772141">
<ele>2927.345703</ele>
<time>2011-04-24T03:51:43Z</time>
<desc>lat.=22.309721, lon.=103.772141, Alt.=2927.345703m. Speed=0.576000m/h.</desc>
<speed>0.160000</speed>
</trkpt>
<trkpt lat="22.309702" lon="103.772141">
<ele>2925.595703</ele>
<time>2011-04-24T03:51:48Z</time>
<desc>lat.=22.309702, lon.=103.772141, Alt.=2925.595703m. Speed=0.900000m/h.</desc>
<speed>0.250000</speed>
</trkpt>
<trkpt lat="22.309700" lon="103.772133">
<ele>2924.658203</ele>
<time>2011-04-24T03:51:53Z</time>
<desc>lat.=22.309700, lon.=103.772133, Alt.=2924.658203m. Speed=0.900000m/h.</desc>
<speed>0.250000</speed>
</trkpt>
<trkpt lat="22.309683" lon="103.772186">
<ele>2923.158203</ele>
<time>2011-04-24T03:51:58Z</time>
<desc>lat.=22.309683, lon.=103.772186, Alt.=2923.158203m. Speed=2.520000m/h.</desc>
<speed>0.700000</speed>
</trkpt>
<trkpt lat="22.309658" lon="103.772209">
<ele>2922.720703</ele>
<time>2011-04-24T03:52:03Z</time>
<desc>lat.=22.309658, lon.=103.772209, Alt.=2922.720703m. Speed=2.232000m/h.</desc>
<speed>0.620000</speed>
</trkpt>
<trkpt lat="22.309637" lon="103.772232">
<ele>2922.283203</ele>
<time>2011-04-24T03:52:08Z</time>
<desc>lat.=22.309637, lon.=103.772232, Alt.=2922.283203m. Speed=2.376000m/h.</desc>
<speed>0.660000</speed>
</trkpt>
<trkpt lat="22.309614" lon="103.772270">
<ele>2921.658203</ele>
<time>2011-04-24T03:52:13Z</time>
<desc>lat.=22.309614, lon.=103.772270, Alt.=2921.658203m. Speed=2.772000m/h.</desc>
<speed>0.770000</speed>
</trkpt>
<trkpt lat="22.309589" lon="103.772293">
<ele>2921.033203</ele>
<time>2011-04-24T03:52:18Z</time>
<desc>lat.=22.309589, lon.=103.772293, Alt.=2921.033203m. Speed=1.728000m/h.</desc>
<speed>0.480000</speed>
</trkpt>
<trkpt lat="22.309580" lon="103.772308">
<ele>2920.220703</ele>
<time>2011-04-24T03:52:23Z</time>
<desc>lat.=22.309580, lon.=103.772308, Alt.=2920.220703m. Speed=1.692000m/h.</desc>
<speed>0.470000</speed>
</trkpt>
<trkpt lat="22.309561" lon="103.772346">
<ele>2919.033203</ele>
<time>2011-04-24T03:52:28Z</time>
<desc>lat.=22.309561, lon.=103.772346, Alt.=2919.033203m. Speed=3.780000m/h.</desc>
<speed>1.050000</speed>
</trkpt>
<trkpt lat="22.309517" lon="103.772392">
<ele>2917.720703</ele>
<time>2011-04-24T03:52:33Z</time>
<desc>lat.=22.309517, lon.=103.772392, Alt.=2917.720703m. Speed=1.224000m/h.</desc>
<speed>0.340000</speed>
</trkpt>
<trkpt lat="22.309484" lon="103.772430">
<ele>2917.033203</ele>
<time>2011-04-24T03:52:38Z</time>
<desc>lat.=22.309484, lon.=103.772430, Alt.=2917.033203m. Speed=3.456000m/h.</desc>
<speed>0.960000</speed>
</trkpt>
<trkpt lat="22.309464" lon="103.772461">
<ele>2915.595703</ele>
<time>2011-04-24T03:52:43Z</time>
<desc>lat.=22.309464, lon.=103.772461, Alt.=2915.595703m. Speed=3.960000m/h.</desc>
<speed>1.100000</speed>
</trkpt>
<trkpt lat="22.309408" lon="103.772476">
<ele>2914.720703</ele>
<time>2011-04-24T03:52:48Z</time>
<desc>lat.=22.309408, lon.=103.772476, Alt.=2914.720703m. Speed=0.360000m/h.</desc>
<speed>0.100000</speed>
</trkpt>
<trkpt lat="22.309395" lon="103.772469">
<ele>2913.908203</ele>
<time>2011-04-24T03:52:53Z</time>
<desc>lat.=22.309395, lon.=103.772469, Alt.=2913.908203m. Speed=0.252000m/h.</desc>
<speed>0.070000</speed>
</trkpt>
<trkpt lat="22.309397" lon="103.772469">
<ele>2913.845703</ele>
<time>2011-04-24T03:52:58Z</time>
<desc>lat.=22.309397, lon.=103.772469, Alt.=2913.845703m. Speed=0.900000m/h.</desc>
<speed>0.250000</speed>
</trkpt>
<trkpt lat="22.309378" lon="103.772484">
<ele>2912.908203</ele>
<time>2011-04-24T03:53:03Z</time>
<desc>lat.=22.309378, lon.=103.772484, Alt.=2912.908203m. Speed=1.692000m/h.</desc>
<speed>0.470000</speed>
</trkpt>
<trkpt lat="22.309364" lon="103.772499">
<ele>2911.220703</ele>
<time>2011-04-24T03:53:08Z</time>
<desc>lat.=22.309364, lon.=103.772499, Alt.=2911.220703m. Speed=1.692000m/h.</desc>
<speed>0.470000</speed>
</trkpt>
<trkpt lat="22.309343" lon="103.772507">
<ele>2910.033203</ele>
<time>2011-04-24T03:53:13Z</time>
<desc>lat.=22.309343, lon.=103.772507, Alt.=2910.033203m. Speed=1.224000m/h.</desc>
<speed>0.340000</speed>
</trkpt>
<trkpt lat="22.309332" lon="103.772514">
<ele>2909.720703</ele>
<time>2011-04-24T03:53:18Z</time>
<desc>lat.=22.309332, lon.=103.772514, Alt.=2909.720703m. Speed=0.648000m/h.</desc>
<speed>0.180000</speed>
</trkpt>
<trkpt lat="22.309332" lon="103.772514">
<ele>2909.595703</ele>
<time>2011-04-24T03:53:23Z</time>
<desc>lat.=22.309332, lon.=103.772514, Alt.=2909.595703m. Speed=0.612000m/h.</desc>
<speed>0.170000</speed>
</trkpt>
<trkpt lat="22.309315" lon="103.772537">
<ele>2909.095703</ele>
<time>2011-04-24T03:53:28Z</time>
<desc>lat.=22.309315, lon.=103.772537, Alt.=2909.095703m. Speed=1.476000m/h.</desc>
<speed>0.410000</speed>
</trkpt>
<trkpt lat="22.309299" lon="103.772537">
<ele>2908.408203</ele>
<time>2011-04-24T03:53:33Z</time>
<desc>lat.=22.309299, lon.=103.772537, Alt.=2908.408203m. Speed=1.152000m/h.</desc>
<speed>0.320000</speed>
</trkpt>
<trkpt lat="22.309292" lon="103.772552">
<ele>2907.533203</ele>
<time>2011-04-24T03:53:38Z</time>
<desc>lat.=22.309292, lon.=103.772552, Alt.=2907.533203m. Speed=1.080000m/h.</desc>
<speed>0.300000</speed>
</trkpt>
<trkpt lat="22.309282" lon="103.772560">
<ele>2907.033203</ele>
<time>2011-04-24T03:53:43Z</time>
<desc>lat.=22.309282, lon.=103.772560, Alt.=2907.033203m. Speed=1.440000m/h.</desc>
<speed>0.400000</speed>
</trkpt>
<trkpt lat="22.309258" lon="103.772575">
<ele>2906.595703</ele>
<time>2011-04-24T03:53:48Z</time>
<desc>lat.=22.309258, lon.=103.772575, Alt.=2906.595703m. Speed=1.764000m/h.</desc>
<speed>0.490000</speed>
</trkpt>
<trkpt lat="22.309242" lon="103.772591">
<ele>2906.095703</ele>
<time>2011-04-24T03:53:53Z</time>
<desc>lat.=22.309242, lon.=103.772591, Alt.=2906.095703m. Speed=1.368000m/h.</desc>
<speed>0.380000</speed>
</trkpt>
<trkpt lat="22.309250" lon="103.772606">
<ele>2905.345703</ele>
<time>2011-04-24T03:53:58Z</time>
<desc>lat.=22.309250, lon.=103.772606, Alt.=2905.345703m. Speed=0.900000m/h.</desc>
<speed>0.250000</speed>
</trkpt>
<trkpt lat="22.309254" lon="103.772621">
<ele>2904.658203</ele>
<time>2011-04-24T03:54:03Z</time>
<desc>lat.=22.309254, lon.=103.772621, Alt.=2904.658203m. Speed=1.116000m/h.</desc>
<speed>0.310000</speed>
</trkpt>
<trkpt lat="22.309237" lon="103.772636">
<ele>2903.970703</ele>
<time>2011-04-24T03:54:08Z</time>
<desc>lat.=22.309237, lon.=103.772636, Alt.=2903.970703m. Speed=1.260000m/h.</desc>
<speed>0.350000</speed>
</trkpt>
<trkpt lat="22.309237" lon="103.772652">
<ele>2903.095703</ele>
<time>2011-04-24T03:54:13Z</time>
<desc>lat.=22.309237, lon.=103.772652, Alt.=2903.095703m. Speed=0.900000m/h.</desc>
<speed>0.250000</speed>
</trkpt>
<trkpt lat="22.309235" lon="103.772667">
<ele>2902.658203</ele>
<time>2011-04-24T03:54:18Z</time>
<desc>lat.=22.309235, lon.=103.772667, Alt.=2902.658203m. Speed=0.972000m/h.</desc>
<speed>0.270000</speed>
</trkpt>
<trkpt lat="22.309233" lon="103.772675">
<ele>2902.345703</ele>
<time>2011-04-24T03:54:23Z</time>
<desc>lat.=22.309233, lon.=103.772675, Alt.=2902.345703m. Speed=1.224000m/h.</desc>
<speed>0.340000</speed>
</trkpt>
<trkpt lat="22.309223" lon="103.772675">
<ele>2901.720703</ele>
<time>2011-04-24T03:54:28Z</time>
<desc>lat.=22.309223, lon.=103.772675, Alt.=2901.720703m. Speed=0.756000m/h.</desc>
<speed>0.210000</speed>
</trkpt>
<trkpt lat="22.309210" lon="103.772682">
<ele>2901.345703</ele>
<time>2011-04-24T03:54:33Z</time>
<desc>lat.=22.309210, lon.=103.772682, Alt.=2901.345703m. Speed=1.116000m/h.</desc>
<speed>0.310000</speed>
</trkpt>
<trkpt lat="22.309177" lon="103.772690">
<ele>2900.908203</ele>
<time>2011-04-24T03:54:38Z</time>
<desc>lat.=22.309177, lon.=103.772690, Alt.=2900.908203m. Speed=4.140000m/h.</desc>
<speed>1.150000</speed>
</trkpt>
<trkpt lat="22.309141" lon="103.772690">
<ele>2900.345703</ele>
<time>2011-04-24T03:54:43Z</time>
<desc>lat.=22.309141, lon.=103.772690, Alt.=2900.345703m. Speed=1.836000m/h.</desc>
<speed>0.510000</speed>
</trkpt>
<trkpt lat="22.309135" lon="103.772682">
<ele>2899.220703</ele>
<time>2011-04-24T03:54:48Z</time>
<desc>lat.=22.309135, lon.=103.772682, Alt.=2899.220703m. Speed=0.288000m/h.</desc>
<speed>0.080000</speed>
</trkpt>
<trkpt lat="22.309120" lon="103.772713">
<ele>2898.158203</ele>
<time>2011-04-24T03:54:53Z</time>
<desc>lat.=22.309120, lon.=103.772713, Alt.=2898.158203m. Speed=1.152000m/h.</desc>
<speed>0.320000</speed>
</trkpt>
<trkpt lat="22.309124" lon="103.772713">
<ele>2895.845703</ele>
<time>2011-04-24T03:54:58Z</time>
<desc>lat.=22.309124, lon.=103.772713, Alt.=2895.845703m. Speed=0.396000m/h.</desc>
<speed>0.110000</speed>
</trkpt>
<trkpt lat="22.309134" lon="103.772713">
<ele>2895.158203</ele>
<time>2011-04-24T03:55:03Z</time>
<desc>lat.=22.309134, lon.=103.772713, Alt.=2895.158203m. Speed=1.044000m/h.</desc>
<speed>0.290000</speed>
</trkpt>
<trkpt lat="22.309122" lon="103.772713">
<ele>2895.220703</ele>
<time>2011-04-24T03:55:08Z</time>
<desc>lat.=22.309122, lon.=103.772713, Alt.=2895.220703m. Speed=0.720000m/h.</desc>
<speed>0.200000</speed>
</trkpt>
<trkpt lat="22.309113" lon="103.772697">
<ele>2894.283203</ele>
<time>2011-04-24T03:55:13Z</time>
<desc>lat.=22.309113, lon.=103.772697, Alt.=2894.283203m. Speed=1.800000m/h.</desc>
<speed>0.500000</speed>
</trkpt>
<trkpt lat="22.309092" lon="103.772682">
<ele>2893.845703</ele>
<time>2011-04-24T03:55:18Z</time>
<desc>lat.=22.309092, lon.=103.772682, Alt.=2893.845703m. Speed=1.188000m/h.</desc>
<speed>0.330000</speed>
</trkpt>
<trkpt lat="22.309076" lon="103.772652">
<ele>2893.658203</ele>
<time>2011-04-24T03:55:23Z</time>
<desc>lat.=22.309076, lon.=103.772652, Alt.=2893.658203m. Speed=1.800000m/h.</desc>
<speed>0.500000</speed>
</trkpt>
<trkpt lat="22.309074" lon="103.772652">
<ele>2893.033203</ele>
<time>2011-04-24T03:55:28Z</time>
<desc>lat.=22.309074, lon.=103.772652, Alt.=2893.033203m. Speed=0.684000m/h.</desc>
<speed>0.190000</speed>
</trkpt>
<trkpt lat="22.309055" lon="103.772659">
<ele>2893.158203</ele>
<time>2011-04-24T03:55:33Z</time>
<desc>lat.=22.309055, lon.=103.772659, Alt.=2893.158203m. Speed=0.576000m/h.</desc>
<speed>0.160000</speed>
</trkpt>
<trkpt lat="22.309048" lon="103.772659">
<ele>2892.908203</ele>
<time>2011-04-24T03:55:38Z</time>
<desc>lat.=22.309048, lon.=103.772659, Alt.=2892.908203m. Speed=0.108000m/h.</desc>
<speed>0.030000</speed>
</trkpt>
<trkpt lat="22.309046" lon="103.772667">
<ele>2892.970703</ele>
<time>2011-04-24T03:55:43Z</time>
<desc>lat.=22.309046, lon.=103.772667, Alt.=2892.970703m. Speed=0.576000m/h.</desc>
<speed>0.160000</speed>
</trkpt>
<trkpt lat="22.309048" lon="103.772659">
<ele>2892.970703</ele>
<time>2011-04-24T03:55:48Z</time>
<desc>lat.=22.309048, lon.=103.772659, Alt.=2892.970703m. Speed=0.684000m/h.</desc>
<speed>0.190000</speed>
</trkpt>
<trkpt lat="22.309025" lon="103.772644">
<ele>2892.970703</ele>
<time>2011-04-24T03:55:53Z</time>
<desc>lat.=22.309025, lon.=103.772644, Alt.=2892.970703m. Speed=2.592000m/h.</desc>
<speed>0.720000</speed>
</trkpt>
<trkpt lat="22.309017" lon="103.772621">
<ele>2892.908203</ele>
<time>2011-04-24T03:55:58Z</time>
<desc>lat.=22.309017, lon.=103.772621, Alt.=2892.908203m. Speed=1.872000m/h.</desc>
<speed>0.520000</speed>
</trkpt>
<trkpt lat="22.308989" lon="103.772629">
<ele>2892.783203</ele>
<time>2011-04-24T03:56:03Z</time>
<desc>lat.=22.308989, lon.=103.772629, Alt.=2892.783203m. Speed=1.512000m/h.</desc>
<speed>0.420000</speed>
</trkpt>
<trkpt lat="22.308979" lon="103.772636">
<ele>2892.408203</ele>
<time>2011-04-24T03:56:08Z</time>
<desc>lat.=22.308979, lon.=103.772636, Alt.=2892.408203m. Speed=0.900000m/h.</desc>
<speed>0.250000</speed>
</trkpt>
<trkpt lat="22.308964" lon="103.772636">
<ele>2892.408203</ele>
<time>2011-04-24T03:56:13Z</time>
<desc>lat.=22.308964, lon.=103.772636, Alt.=2892.408203m. Speed=1.620000m/h.</desc>
<speed>0.450000</speed>
</trkpt>
<trkpt lat="22.308950" lon="103.772636">
<ele>2892.595703</ele>
<time>2011-04-24T03:56:18Z</time>
<desc>lat.=22.308950, lon.=103.772636, Alt.=2892.595703m. Speed=1.080000m/h.</desc>
<speed>0.300000</speed>
</trkpt>
<trkpt lat="22.308935" lon="103.772629">
<ele>2892.533203</ele>
<time>2011-04-24T03:56:23Z</time>
<desc>lat.=22.308935, lon.=103.772629, Alt.=2892.533203m. Speed=0.576000m/h.</desc>
<speed>0.160000</speed>
</trkpt>
<trkpt lat="22.308920" lon="103.772621">
<ele>2892.595703</ele>
<time>2011-04-24T03:56:28Z</time>
<desc>lat.=22.308920, lon.=103.772621, Alt.=2892.595703m. Speed=1.044000m/h.</desc>
<speed>0.290000</speed>
</trkpt>
<trkpt lat="22.308886" lon="103.772636">
<ele>2892.720703</ele>
<time>2011-04-24T03:56:33Z</time>
<desc>lat.=22.308886, lon.=103.772636, Alt.=2892.720703m. Speed=1.908000m/h.</desc>
<speed>0.530000</speed>
</trkpt>
<trkpt lat="22.308889" lon="103.772644">
<ele>2892.783203</ele>
<time>2011-04-24T03:56:38Z</time>
<desc>lat.=22.308889, lon.=103.772644, Alt.=2892.783203m. Speed=0.684000m/h.</desc>
<speed>0.190000</speed>
</trkpt>
<trkpt lat="22.308893" lon="103.772659">
<ele>2892.720703</ele>
<time>2011-04-24T03:56:43Z</time>
<desc>lat.=22.308893, lon.=103.772659, Alt.=2892.720703m. Speed=1.044000m/h.</desc>
<speed>0.290000</speed>
</trkpt>
<trkpt lat="22.308922" lon="103.772705">
<ele>2892.720703</ele>
<time>2011-04-24T03:56:48Z</time>
<desc>lat.=22.308922, lon.=103.772705, Alt.=2892.720703m. Speed=3.096000m/h.</desc>
<speed>0.860000</speed>
</trkpt>
<trkpt lat="22.308910" lon="103.772781">
<ele>2892.095703</ele>
<time>2011-04-24T03:56:53Z</time>
<desc>lat.=22.308910, lon.=103.772781, Alt.=2892.095703m. Speed=2.484000m/h.</desc>
<speed>0.690000</speed>
</trkpt>
<trkpt lat="22.308870" lon="103.772797">
<ele>2891.533203</ele>
<time>2011-04-24T03:56:58Z</time>
<desc>lat.=22.308870, lon.=103.772797, Alt.=2891.533203m. Speed=2.412000m/h.</desc>
<speed>0.670000</speed>
</trkpt>
<trkpt lat="22.308861" lon="103.772827">
<ele>2891.158203</ele>
<time>2011-04-24T03:57:03Z</time>
<desc>lat.=22.308861, lon.=103.772827, Alt.=2891.158203m. Speed=1.224000m/h.</desc>
<speed>0.340000</speed>
</trkpt>
<trkpt lat="22.308865" lon="103.772850">
<ele>2890.845703</ele>
<time>2011-04-24T03:57:08Z</time>
<desc>lat.=22.308865, lon.=103.772850, Alt.=2890.845703m. Speed=2.808000m/h.</desc>
<speed>0.780000</speed>
</trkpt>
<trkpt lat="22.308859" lon="103.772827">
<ele>2888.095703</ele>
<time>2011-04-24T03:57:13Z</time>
<desc>lat.=22.308859, lon.=103.772827, Alt.=2888.095703m. Speed=2.016000m/h.</desc>
<speed>0.560000</speed>
</trkpt>
<trkpt lat="22.308857" lon="103.772865">
<ele>2887.783203</ele>
<time>2011-04-24T03:57:18Z</time>
<desc>lat.=22.308857, lon.=103.772865, Alt.=2887.783203m. Speed=4.356000m/h.</desc>
<speed>1.210000</speed>
</trkpt>
<trkpt lat="22.308830" lon="103.772888">
<ele>2886.033203</ele>
<time>2011-04-24T03:57:23Z</time>
<desc>lat.=22.308830, lon.=103.772888, Alt.=2886.033203m. Speed=2.052000m/h.</desc>
<speed>0.570000</speed>
</trkpt>
<trkpt lat="22.308805" lon="103.772903">
<ele>2884.658203</ele>
<time>2011-04-24T03:57:28Z</time>
<desc>lat.=22.308805, lon.=103.772903, Alt.=2884.658203m. Speed=4.392000m/h.</desc>
<speed>1.220000</speed>
</trkpt>
<trkpt lat="22.308804" lon="103.772919">
<ele>2884.095703</ele>
<time>2011-04-24T03:57:33Z</time>
<desc>lat.=22.308804, lon.=103.772919, Alt.=2884.095703m. Speed=1.656000m/h.</desc>
<speed>0.460000</speed>
</trkpt>
<trkpt lat="22.308771" lon="103.772926">
<ele>2882.033203</ele>
<time>2011-04-24T03:57:38Z</time>
<desc>lat.=22.308771, lon.=103.772926, Alt.=2882.033203m. Speed=1.656000m/h.</desc>
<speed>0.460000</speed>
</trkpt>
<trkpt lat="22.308750" lon="103.772934">
<ele>2880.908203</ele>
<time>2011-04-24T03:57:43Z</time>
<desc>lat.=22.308750, lon.=103.772934, Alt.=2880.908203m. Speed=1.224000m/h.</desc>
<speed>0.340000</speed>
</trkpt>
<trkpt lat="22.308737" lon="103.772942">
<ele>2879.783203</ele>
<time>2011-04-24T03:57:48Z</time>
<desc>lat.=22.308737, lon.=103.772942, Alt.=2879.783203m. Speed=0.972000m/h.</desc>
<speed>0.270000</speed>
</trkpt>
<trkpt lat="22.308727" lon="103.772949">
<ele>2879.033203</ele>
<time>2011-04-24T03:57:53Z</time>
<desc>lat.=22.308727, lon.=103.772949, Alt.=2879.033203m. Speed=1.008000m/h.</desc>
<speed>0.280000</speed>
</trkpt>
<trkpt lat="22.308718" lon="103.772957">
<ele>2878.345703</ele>
<time>2011-04-24T03:57:58Z</time>
<desc>lat.=22.308718, lon.=103.772957, Alt.=2878.345703m. Speed=0.864000m/h.</desc>
<speed>0.240000</speed>
</trkpt>
<trkpt lat="22.308708" lon="103.772964">
<ele>2877.595703</ele>
<time>2011-04-24T03:58:03Z</time>
<desc>lat.=22.308708, lon.=103.772964, Alt.=2877.595703m. Speed=0.828000m/h.</desc>
<speed>0.230000</speed>
</trkpt>
<trkpt lat="22.308701" lon="103.772964">
<ele>2876.908203</ele>
<time>2011-04-24T03:58:08Z</time>
<desc>lat.=22.308701, lon.=103.772964, Alt.=2876.908203m. Speed=0.468000m/h.</desc>
<speed>0.130000</speed>
</trkpt>
<trkpt lat="22.308695" lon="103.772972">
<ele>2876.158203</ele>
<time>2011-04-24T03:58:13Z</time>
<desc>lat.=22.308695, lon.=103.772972, Alt.=2876.158203m. Speed=1.008000m/h.</desc>
<speed>0.280000</speed>
</trkpt>
<trkpt lat="22.308695" lon="103.772980">
<ele>2875.095703</ele>
<time>2011-04-24T03:58:18Z</time>
<desc>lat.=22.308695, lon.=103.772980, Alt.=2875.095703m. Speed=0.756000m/h.</desc>
<speed>0.210000</speed>
</trkpt>
<trkpt lat="22.308691" lon="103.772987">
<ele>2874.033203</ele>
<time>2011-04-24T03:58:23Z</time>
<desc>lat.=22.308691, lon.=103.772987, Alt.=2874.033203m. Speed=0.792000m/h.</desc>
<speed>0.220000</speed>
</trkpt>
<trkpt lat="22.308681" lon="103.773010">
<ele>2873.033203</ele>
<time>2011-04-24T03:58:28Z</time>
<desc>lat.=22.308681, lon.=103.773010, Alt.=2873.033203m. Speed=1.296000m/h.</desc>
<speed>0.360000</speed>
</trkpt>
<trkpt lat="22.308672" lon="103.773041">
<ele>2871.595703</ele>
<time>2011-04-24T03:58:33Z</time>
<desc>lat.=22.308672, lon.=103.773041, Alt.=2871.595703m. Speed=0.720000m/h.</desc>
<speed>0.200000</speed>
</trkpt>
<trkpt lat="22.308666" lon="103.773048">
<ele>2870.595703</ele>
<time>2011-04-24T03:58:38Z</time>
<desc>lat.=22.308666, lon.=103.773048, Alt.=2870.595703m. Speed=0.900000m/h.</desc>
<speed>0.250000</speed>
</trkpt>
<trkpt lat="22.308661" lon="103.773064">
<ele>2869.658203</ele>
<time>2011-04-24T03:58:43Z</time>
<desc>lat.=22.308661, lon.=103.773064, Alt.=2869.658203m. Speed=1.512000m/h.</desc>
<speed>0.420000</speed>
</trkpt>
<trkpt lat="22.308643" lon="103.773064">
<ele>2868.533203</ele>
<time>2011-04-24T03:58:48Z</time>
<desc>lat.=22.308643, lon.=103.773064, Alt.=2868.533203m. Speed=1.368000m/h.</desc>
<speed>0.380000</speed>
</trkpt>
<trkpt lat="22.308634" lon="103.773064">
<ele>2867.033203</ele>
<time>2011-04-24T03:58:53Z</time>
<desc>lat.=22.308634, lon.=103.773064, Alt.=2867.033203m. Speed=1.224000m/h.</desc>
<speed>0.340000</speed>
</trkpt>
<trkpt lat="22.308630" lon="103.773048">
<ele>2865.908203</ele>
<time>2011-04-24T03:58:58Z</time>
<desc>lat.=22.308630, lon.=103.773048, Alt.=2865.908203m. Speed=0.396000m/h.</desc>
<speed>0.110000</speed>
</trkpt>
<trkpt lat="22.308624" lon="103.773056">
<ele>2864.845703</ele>
<time>2011-04-24T03:59:03Z</time>
<desc>lat.=22.308624, lon.=103.773056, Alt.=2864.845703m. Speed=0.828000m/h.</desc>
<speed>0.230000</speed>
</trkpt>
<trkpt lat="22.308613" lon="103.773048">
<ele>2863.845703</ele>
<time>2011-04-24T03:59:08Z</time>
<desc>lat.=22.308613, lon.=103.773048, Alt.=2863.845703m. Speed=0.828000m/h.</desc>
<speed>0.230000</speed>
</trkpt>
<trkpt lat="22.308605" lon="103.773048">
<ele>2862.845703</ele>
<time>2011-04-24T03:59:13Z</time>
<desc>lat.=22.308605, lon.=103.773048, Alt.=2862.845703m. Speed=0.792000m/h.</desc>
<speed>0.220000</speed>
</trkpt>
<trkpt lat="22.308601" lon="103.773048">
<ele>2861.845703</ele>
<time>2011-04-24T03:59:18Z</time>
<desc>lat.=22.308601, lon.=103.773048, Alt.=2861.845703m. Speed=0.216000m/h.</desc>
<speed>0.060000</speed>
</trkpt>
<trkpt lat="22.308599" lon="103.773056">
<ele>2860.908203</ele>
<time>2011-04-24T03:59:23Z</time>
<desc>lat.=22.308599, lon.=103.773056, Alt.=2860.908203m. Speed=0.396000m/h.</desc>
<speed>0.110000</speed>
</trkpt>
<trkpt lat="22.308601" lon="103.773056">
<ele>2860.033203</ele>
<time>2011-04-24T03:59:28Z</time>
<desc>lat.=22.308601, lon.=103.773056, Alt.=2860.033203m. Speed=0.396000m/h.</desc>
<speed>0.110000</speed>
</trkpt>
<trkpt lat="22.308598" lon="103.773064">
<ele>2859.658203</ele>
<time>2011-04-24T03:59:33Z</time>
<desc>lat.=22.308598, lon.=103.773064, Alt.=2859.658203m. Speed=0.612000m/h.</desc>
<speed>0.170000</speed>
</trkpt>
<trkpt lat="22.308573" lon="103.773064">
<ele>2860.533203</ele>
<time>2011-04-24T03:59:38Z</time>
<desc>lat.=22.308573, lon.=103.773064, Alt.=2860.533203m. Speed=1.872000m/h.</desc>
<speed>0.520000</speed>
</trkpt>
<trkpt lat="22.308554" lon="103.773056">
<ele>2860.658203</ele>
<time>2011-04-24T03:59:43Z</time>
<desc>lat.=22.308554, lon.=103.773056, Alt.=2860.658203m. Speed=1.152000m/h.</desc>
<speed>0.320000</speed>
</trkpt>
<trkpt lat="22.308521" lon="103.773087">
<ele>2860.345703</ele>
<time>2011-04-24T03:59:48Z</time>
<desc>lat.=22.308521, lon.=103.773087, Alt.=2860.345703m. Speed=1.512000m/h.</desc>
<speed>0.420000</speed>
</trkpt>
<trkpt lat="22.308512" lon="103.773094">
<ele>2860.220703</ele>
<time>2011-04-24T03:59:53Z</time>
<desc>lat.=22.308512, lon.=103.773094, Alt.=2860.220703m. Speed=1.116000m/h.</desc>
<speed>0.310000</speed>
</trkpt>
<trkpt lat="22.308495" lon="103.773087">
<ele>2860.158203</ele>
<time>2011-04-24T03:59:58Z</time>
<desc>lat.=22.308495, lon.=103.773087, Alt.=2860.158203m. Speed=0.972000m/h.</desc>
<speed>0.270000</speed>
</trkpt>
<trkpt lat="22.308460" lon="103.773087">
<ele>2860.158203</ele>
<time>2011-04-24T04:00:03Z</time>
<desc>lat.=22.308460, lon.=103.773087, Alt.=2860.158203m. Speed=1.224000m/h.</desc>
<speed>0.340000</speed>
</trkpt>
<trkpt lat="22.308413" lon="103.773117">
<ele>2858.408203</ele>
<time>2011-04-24T04:00:08Z</time>
<desc>lat.=22.308413, lon.=103.773117, Alt.=2858.408203m. Speed=1.584000m/h.</desc>
<speed>0.440000</speed>
</trkpt>
<trkpt lat="22.308382" lon="103.773102">
<ele>2858.345703</ele>
<time>2011-04-24T04:00:13Z</time>
<desc>lat.=22.308382, lon.=103.773102, Alt.=2858.345703m. Speed=2.052000m/h.</desc>
<speed>0.570000</speed>
</trkpt>
<trkpt lat="22.308355" lon="103.773079">
<ele>2858.220703</ele>
<time>2011-04-24T04:00:18Z</time>
<desc>lat.=22.308355, lon.=103.773079, Alt.=2858.220703m. Speed=1.800000m/h.</desc>
<speed>0.500000</speed>
</trkpt>
<trkpt lat="22.308331" lon="103.773064">
<ele>2858.595703</ele>
<time>2011-04-24T04:00:23Z</time>
<desc>lat.=22.308331, lon.=103.773064, Alt.=2858.595703m. Speed=1.620000m/h.</desc>
<speed>0.450000</speed>
</trkpt>
<trkpt lat="22.308329" lon="103.773018">
<ele>2858.908203</ele>
<time>2011-04-24T04:00:28Z</time>
<desc>lat.=22.308329, lon.=103.773018, Alt.=2858.908203m. Speed=1.908000m/h.</desc>
<speed>0.530000</speed>
</trkpt>
<trkpt lat="22.308321" lon="103.772987">
<ele>2859.033203</ele>
<time>2011-04-24T04:00:33Z</time>
<desc>lat.=22.308321, lon.=103.772987, Alt.=2859.033203m. Speed=1.404000m/h.</desc>
<speed>0.390000</speed>
</trkpt>
<trkpt lat="22.308319" lon="103.772964">
<ele>2859.158203</ele>
<time>2011-04-24T04:00:38Z</time>
<desc>lat.=22.308319, lon.=103.772964, Alt.=2859.158203m. Speed=1.512000m/h.</desc>
<speed>0.420000</speed>
</trkpt>
<trkpt lat="22.308287" lon="103.772949">
<ele>2859.345703</ele>
<time>2011-04-24T04:00:43Z</time>
<desc>lat.=22.308287, lon.=103.772949, Alt.=2859.345703m. Speed=1.296000m/h.</desc>
<speed>0.360000</speed>
</trkpt>
<trkpt lat="22.308256" lon="103.772957">
<ele>2859.345703</ele>
<time>2011-04-24T04:00:48Z</time>
<desc>lat.=22.308256, lon.=103.772957, Alt.=2859.345703m. Speed=1.368000m/h.</desc>
<speed>0.380000</speed>
</trkpt>
<trkpt lat="22.308239" lon="103.772972">
<ele>2859.408203</ele>
<time>2011-04-24T04:00:53Z</time>
<desc>lat.=22.308239, lon.=103.772972, Alt.=2859.408203m. Speed=1.224000m/h.</desc>
<speed>0.340000</speed>
</trkpt>
<trkpt lat="22.308231" lon="103.772964">
<ele>2859.220703</ele>
<time>2011-04-24T04:00:58Z</time>
<desc>lat.=22.308231, lon.=103.772964, Alt.=2859.220703m. Speed=0.936000m/h.</desc>
<speed>0.260000</speed>
</trkpt>
<trkpt lat="22.308218" lon="103.772972">
<ele>2859.095703</ele>
<time>2011-04-24T04:01:03Z</time>
<desc>lat.=22.308218, lon.=103.772972, Alt.=2859.095703m. Speed=1.188000m/h.</desc>
<speed>0.330000</speed>
</trkpt>
<trkpt lat="22.308224" lon="103.772919">
<ele>2859.408203</ele>
<time>2011-04-24T04:01:08Z</time>
<desc>lat.=22.308224, lon.=103.772919, Alt.=2859.408203m. Speed=1.260000m/h.</desc>
<speed>0.350000</speed>
</trkpt>
<trkpt lat="22.308208" lon="103.772964">
<ele>2859.720703</ele>
<time>2011-04-24T04:01:13Z</time>
<desc>lat.=22.308208, lon.=103.772964, Alt.=2859.720703m. Speed=1.260000m/h.</desc>
<speed>0.350000</speed>
</trkpt>
<trkpt lat="22.308161" lon="103.773003">
<ele>2860.845703</ele>
<time>2011-04-24T04:01:18Z</time>
<desc>lat.=22.308161, lon.=103.773003, Alt.=2860.845703m. Speed=2.232000m/h.</desc>
<speed>0.620000</speed>
</trkpt>
<trkpt lat="22.308153" lon="103.773018">
<ele>2861.158203</ele>
<time>2011-04-24T04:01:23Z</time>
<desc>lat.=22.308153, lon.=103.773018, Alt.=2861.158203m. Speed=2.952000m/h.</desc>
<speed>0.820000</speed>
</trkpt>
<trkpt lat="22.308153" lon="103.773018">
<ele>2861.033203</ele>
<time>2011-04-24T04:01:28Z</time>
<desc>lat.=22.308153, lon.=103.773018, Alt.=2861.033203m. Speed=1.692000m/h.</desc>
<speed>0.470000</speed>
</trkpt>
<trkpt lat="22.308180" lon="103.773041">
<ele>2860.220703</ele>
<time>2011-04-24T04:01:33Z</time>
<desc>lat.=22.308180, lon.=103.773041, Alt.=2860.220703m. Speed=3.852000m/h.</desc>
<speed>1.070000</speed>
</trkpt>
<trkpt lat="22.308203" lon="103.773048">
<ele>2859.283203</ele>
<time>2011-04-24T04:01:38Z</time>
<desc>lat.=22.308203, lon.=103.773048, Alt.=2859.283203m. Speed=1.548000m/h.</desc>
<speed>0.430000</speed>
</trkpt>
<trkpt lat="22.308201" lon="103.773048">
<ele>2859.970703</ele>
<time>2011-04-24T04:01:43Z</time>
<desc>lat.=22.308201, lon.=103.773048, Alt.=2859.970703m. Speed=0.684000m/h.</desc>
<speed>0.190000</speed>
</trkpt>
<trkpt lat="22.308224" lon="103.773056">
<ele>2860.595703</ele>
<time>2011-04-24T04:01:48Z</time>
<desc>lat.=22.308224, lon.=103.773056, Alt.=2860.595703m. Speed=0.900000m/h.</desc>
<speed>0.250000</speed>
</trkpt>
<trkpt lat="22.308231" lon="103.773056">
<ele>2860.908203</ele>
<time>2011-04-24T04:01:53Z</time>
<desc>lat.=22.308231, lon.=103.773056, Alt.=2860.908203m. Speed=0.900000m/h.</desc>
<speed>0.250000</speed>
</trkpt>
<trkpt lat="22.308250" lon="103.773079">
<ele>2861.408203</ele>
<time>2011-04-24T04:01:58Z</time>
<desc>lat.=22.308250, lon.=103.773079, Alt.=2861.408203m. Speed=1.332000m/h.</desc>
<speed>0.370000</speed>
</trkpt>
<trkpt lat="22.308310" lon="103.773117">
<ele>2861.220703</ele>
<time>2011-04-24T04:02:03Z</time>
<desc>lat.=22.308310, lon.=103.773117, Alt.=2861.220703m. Speed=3.348000m/h.</desc>
<speed>0.930000</speed>
</trkpt>
<trkpt lat="22.308325" lon="103.773170">
<ele>2861.970703</ele>
<time>2011-04-24T04:02:08Z</time>
<desc>lat.=22.308325, lon.=103.773170, Alt.=2861.970703m. Speed=4.392000m/h.</desc>
<speed>1.220000</speed>
</trkpt>
<trkpt lat="22.308323" lon="103.773201">
<ele>2863.283203</ele>
<time>2011-04-24T04:02:13Z</time>
<desc>lat.=22.308323, lon.=103.773201, Alt.=2863.283203m. Speed=3.636000m/h.</desc>
<speed>1.010000</speed>
</trkpt>
<trkpt lat="22.308313" lon="103.773254">
<ele>2864.970703</ele>
<time>2011-04-24T04:02:18Z</time>
<desc>lat.=22.308313, lon.=103.773254, Alt.=2864.970703m. Speed=3.024000m/h.</desc>
<speed>0.840000</speed>
</trkpt>
<trkpt lat="22.308233" lon="103.773262">
<ele>2864.783203</ele>
<time>2011-04-24T04:02:23Z</time>
<desc>lat.=22.308233, lon.=103.773262, Alt.=2864.783203m. Speed=2.628000m/h.</desc>
<speed>0.730000</speed>
</trkpt>
<trkpt lat="22.308197" lon="103.773285">
<ele>2865.970703</ele>
<time>2011-04-24T04:02:28Z</time>
<desc>lat.=22.308197, lon.=103.773285, Alt.=2865.970703m. Speed=1.692000m/h.</desc>
<speed>0.470000</speed>
</trkpt>
<trkpt lat="22.308159" lon="103.773315">
<ele>2866.658203</ele>
<time>2011-04-24T04:02:33Z</time>
<desc>lat.=22.308159, lon.=103.773315, Alt.=2866.658203m. Speed=3.348000m/h.</desc>
<speed>0.930000</speed>
</trkpt>
<trkpt lat="22.308144" lon="103.773369">
<ele>2866.845703</ele>
<time>2011-04-24T04:02:38Z</time>
<desc>lat.=22.308144, lon.=103.773369, Alt.=2866.845703m. Speed=3.060000m/h.</desc>
<speed>0.850000</speed>
</trkpt>
<trkpt lat="22.308126" lon="103.773399">
<ele>2866.470703</ele>
<time>2011-04-24T04:02:43Z</time>
<desc>lat.=22.308126, lon.=103.773399, Alt.=2866.470703m. Speed=2.124000m/h.</desc>
<speed>0.590000</speed>
</trkpt>
<trkpt lat="22.308109" lon="103.773430">
<ele>2866.408203</ele>
<time>2011-04-24T04:02:48Z</time>
<desc>lat.=22.308109, lon.=103.773430, Alt.=2866.408203m. Speed=0.972000m/h.</desc>
<speed>0.270000</speed>
</trkpt>
<trkpt lat="22.308083" lon="103.773438">
<ele>2866.408203</ele>
<time>2011-04-24T04:02:53Z</time>
<desc>lat.=22.308083, lon.=103.773438, Alt.=2866.408203m. Speed=0.324000m/h.</desc>
<speed>0.090000</speed>
</trkpt>
<trkpt lat="22.308039" lon="103.773460">
<ele>2866.033203</ele>
<time>2011-04-24T04:02:58Z</time>
<desc>lat.=22.308039, lon.=103.773460, Alt.=2866.033203m. Speed=2.196000m/h.</desc>
<speed>0.610000</speed>
</trkpt>
<trkpt lat="22.308064" lon="103.773483">
<ele>2865.970703</ele>
<time>2011-04-24T04:03:03Z</time>
<desc>lat.=22.308064, lon.=103.773483, Alt.=2865.970703m. Speed=1.008000m/h.</desc>
<speed>0.280000</speed>
</trkpt>
<trkpt lat="22.308052" lon="103.773491">
<ele>2865.658203</ele>
<time>2011-04-24T04:03:08Z</time>
<desc>lat.=22.308052, lon.=103.773491, Alt.=2865.658203m. Speed=1.224000m/h.</desc>
<speed>0.340000</speed>
</trkpt>
<trkpt lat="22.308035" lon="103.773514">
<ele>2864.908203</ele>
<time>2011-04-24T04:03:13Z</time>
<desc>lat.=22.308035, lon.=103.773514, Alt.=2864.908203m. Speed=1.656000m/h.</desc>
<speed>0.460000</speed>
</trkpt>
<trkpt lat="22.308033" lon="103.773521">
<ele>2864.283203</ele>
<time>2011-04-24T04:03:18Z</time>
<desc>lat.=22.308033, lon.=103.773521, Alt.=2864.283203m. Speed=0.900000m/h.</desc>
<speed>0.250000</speed>
</trkpt>
<trkpt lat="22.308023" lon="103.773544">
<ele>2864.158203</ele>
<time>2011-04-24T04:03:23Z</time>
<desc>lat.=22.308023, lon.=103.773544, Alt.=2864.158203m. Speed=2.196000m/h.</desc>
<speed>0.610000</speed>
</trkpt>
<trkpt lat="22.308044" lon="103.773552">
<ele>2863.408203</ele>
<time>2011-04-24T04:03:28Z</time>
<desc>lat.=22.308044, lon.=103.773552, Alt.=2863.408203m. Speed=0.792000m/h.</desc>
<speed>0.220000</speed>
</trkpt>
<trkpt lat="22.308044" lon="103.773575">
<ele>2863.408203</ele>
<time>2011-04-24T04:03:33Z</time>
<desc>lat.=22.308044, lon.=103.773575, Alt.=2863.408203m. Speed=2.736000m/h.</desc>
<speed>0.760000</speed>
</trkpt>
<trkpt lat="22.308054" lon="103.773605">
<ele>2863.345703</ele>
<time>2011-04-24T04:03:38Z</time>
<desc>lat.=22.308054, lon.=103.773605, Alt.=2863.345703m. Speed=1.980000m/h.</desc>
<speed>0.550000</speed>
</trkpt>
<trkpt lat="22.308083" lon="103.773613">
<ele>2863.033203</ele>
<time>2011-04-24T04:03:43Z</time>
<desc>lat.=22.308083, lon.=103.773613, Alt.=2863.033203m. Speed=0.684000m/h.</desc>
<speed>0.190000</speed>
</trkpt>
<trkpt lat="22.308081" lon="103.773643">
<ele>2862.908203</ele>
<time>2011-04-24T04:03:48Z</time>
<desc>lat.=22.308081, lon.=103.773643, Alt.=2862.908203m. Speed=1.872000m/h.</desc>
<speed>0.520000</speed>
</trkpt>
<trkpt lat="22.308075" lon="103.773697">
<ele>2862.283203</ele>
<time>2011-04-24T04:03:53Z</time>
<desc>lat.=22.308075, lon.=103.773697, Alt.=2862.283203m. Speed=2.124000m/h.</desc>
<speed>0.590000</speed>
</trkpt>
<trkpt lat="22.308083" lon="103.773750">
<ele>2862.158203</ele>
<time>2011-04-24T04:03:58Z</time>
<desc>lat.=22.308083, lon.=103.773750, Alt.=2862.158203m. Speed=1.764000m/h.</desc>
<speed>0.490000</speed>
</trkpt>
<trkpt lat="22.308105" lon="103.773743">
<ele>2862.908203</ele>
<time>2011-04-24T04:04:03Z</time>
<desc>lat.=22.308105, lon.=103.773743, Alt.=2862.908203m. Speed=0.324000m/h.</desc>
<speed>0.090000</speed>
</trkpt>
<trkpt lat="22.308140" lon="103.773758">
<ele>2862.595703</ele>
<time>2011-04-24T04:04:08Z</time>
<desc>lat.=22.308140, lon.=103.773758, Alt.=2862.595703m. Speed=2.952000m/h.</desc>
<speed>0.820000</speed>
</trkpt>
<trkpt lat="22.308159" lon="103.773766">
<ele>2861.908203</ele>
<time>2011-04-24T04:04:13Z</time>
<desc>lat.=22.308159, lon.=103.773766, Alt.=2861.908203m. Speed=1.368000m/h.</desc>
<speed>0.380000</speed>
</trkpt>
<trkpt lat="22.308176" lon="103.773766">
<ele>2860.970703</ele>
<time>2011-04-24T04:04:18Z</time>
<desc>lat.=22.308176, lon.=103.773766, Alt.=2860.970703m. Speed=1.224000m/h.</desc>
<speed>0.340000</speed>
</trkpt>
<trkpt lat="22.308191" lon="103.773766">
<ele>2860.783203</ele>
<time>2011-04-24T04:04:23Z</time>
<desc>lat.=22.308191, lon.=103.773766, Alt.=2860.783203m. Speed=1.152000m/h.</desc>
<speed>0.320000</speed>
</trkpt>
<trkpt lat="22.308197" lon="103.773773">
<ele>2860.845703</ele>
<time>2011-04-24T04:04:28Z</time>
<desc>lat.=22.308197, lon.=103.773773, Alt.=2860.845703m. Speed=1.044000m/h.</desc>
<speed>0.290000</speed>
</trkpt>
<trkpt lat="22.308193" lon="103.773766">
<ele>2860.845703</ele>
<time>2011-04-24T04:04:33Z</time>
<desc>lat.=22.308193, lon.=103.773766, Alt.=2860.845703m. Speed=0.828000m/h.</desc>
<speed>0.230000</speed>
</trkpt>
<trkpt lat="22.308203" lon="103.773766">
<ele>2861.033203</ele>
<time>2011-04-24T04:04:38Z</time>
<desc>lat.=22.308203, lon.=103.773766, Alt.=2861.033203m. Speed=0.504000m/h.</desc>
<speed>0.140000</speed>
</trkpt>
<trkpt lat="22.308207" lon="103.773766">
<ele>2861.158203</ele>
<time>2011-04-24T04:04:43Z</time>
<desc>lat.=22.308207, lon.=103.773766, Alt.=2861.158203m. Speed=0.828000m/h.</desc>
<speed>0.230000</speed>
</trkpt>
<trkpt lat="22.308132" lon="103.773781">
<ele>2859.408203</ele>
<time>2011-04-24T04:04:48Z</time>
<desc>lat.=22.308132, lon.=103.773781, Alt.=2859.408203m. Speed=1.584000m/h.</desc>
<speed>0.440000</speed>
</trkpt>
<trkpt lat="22.308081" lon="103.773781">
<ele>2859.345703</ele>
<time>2011-04-24T04:04:53Z</time>
<desc>lat.=22.308081, lon.=103.773781, Alt.=2859.345703m. Speed=2.376000m/h.</desc>
<speed>0.660000</speed>
</trkpt>
<trkpt lat="22.308050" lon="103.773773">
<ele>2859.533203</ele>
<time>2011-04-24T04:04:58Z</time>
<desc>lat.=22.308050, lon.=103.773773, Alt.=2859.533203m. Speed=2.124000m/h.</desc>
<speed>0.590000</speed>
</trkpt>
<trkpt lat="22.308039" lon="103.773788">
<ele>2859.720703</ele>
<time>2011-04-24T04:05:03Z</time>
<desc>lat.=22.308039, lon.=103.773788, Alt.=2859.720703m. Speed=1.836000m/h.</desc>
<speed>0.510000</speed>
</trkpt>
<trkpt lat="22.308035" lon="103.773804">
<ele>2859.658203</ele>
<time>2011-04-24T04:05:08Z</time>
<desc>lat.=22.308035, lon.=103.773804, Alt.=2859.658203m. Speed=1.908000m/h.</desc>
<speed>0.530000</speed>
</trkpt>
<trkpt lat="22.308022" lon="103.773811">
<ele>2860.095703</ele>
<time>2011-04-24T04:05:13Z</time>
<desc>lat.=22.308022, lon.=103.773811, Alt.=2860.095703m. Speed=1.836000m/h.</desc>
<speed>0.510000</speed>
</trkpt>
<trkpt lat="22.307991" lon="103.773811">
<ele>2859.908203</ele>
<time>2011-04-24T04:05:18Z</time>
<desc>lat.=22.307991, lon.=103.773811, Alt.=2859.908203m. Speed=1.692000m/h.</desc>
<speed>0.470000</speed>
</trkpt>
<trkpt lat="22.307959" lon="103.773849">
<ele>2859.908203</ele>
<time>2011-04-24T04:05:23Z</time>
<desc>lat.=22.307959, lon.=103.773849, Alt.=2859.908203m. Speed=1.908000m/h.</desc>
<speed>0.530000</speed>
</trkpt>
<trkpt lat="22.307964" lon="103.773857">
<ele>2861.220703</ele>
<time>2011-04-24T04:05:28Z</time>
<desc>lat.=22.307964, lon.=103.773857, Alt.=2861.220703m. Speed=2.916000m/h.</desc>
<speed>0.810000</speed>
</trkpt>
<trkpt lat="22.308018" lon="103.773872">
<ele>2862.095703</ele>
<time>2011-04-24T04:05:33Z</time>
<desc>lat.=22.308018, lon.=103.773872, Alt.=2862.095703m. Speed=0.324000m/h.</desc>
<speed>0.090000</speed>
</trkpt>
<trkpt lat="22.308010" lon="103.773872">
<ele>2861.845703</ele>
<time>2011-04-24T04:05:38Z</time>
<desc>lat.=22.308010, lon.=103.773872, Alt.=2861.845703m. Speed=0.180000m/h.</desc>
<speed>0.050000</speed>
</trkpt>
<trkpt lat="22.308016" lon="103.773865">
<ele>2862.095703</ele>
<time>2011-04-24T04:05:43Z</time>
<desc>lat.=22.308016, lon.=103.773865, Alt.=2862.095703m. Speed=0.648000m/h.</desc>
<speed>0.180000</speed>
</trkpt>
<trkpt lat="22.308041" lon="103.773865">
<ele>2862.158203</ele>
<time>2011-04-24T04:05:48Z</time>
<desc>lat.=22.308041, lon.=103.773865, Alt.=2862.158203m. Speed=0.864000m/h.</desc>
<speed>0.240000</speed>
</trkpt>
<trkpt lat="22.308037" lon="103.773857">
<ele>2861.408203</ele>
<time>2011-04-24T04:05:53Z</time>
<desc>lat.=22.308037, lon.=103.773857, Alt.=2861.408203m. Speed=0.180000m/h.</desc>
<speed>0.050000</speed>
</trkpt>
<trkpt lat="22.308014" lon="103.773857">
<ele>2864.470703</ele>
<time>2011-04-24T04:05:58Z</time>
<desc>lat.=22.308014, lon.=103.773857, Alt.=2864.470703m. Speed=0.144000m/h.</desc>
<speed>0.040000</speed>
</trkpt>
<trkpt lat="22.308020" lon="103.773865">
<ele>2865.220703</ele>
<time>2011-04-24T04:06:03Z</time>
<desc>lat.=22.308020, lon.=103.773865, Alt.=2865.220703m. Speed=0.540000m/h.</desc>
<speed>0.150000</speed>
</trkpt>
<trkpt lat="22.308027" lon="103.773880">
<ele>2865.908203</ele>
<time>2011-04-24T04:06:08Z</time>
<desc>lat.=22.308027, lon.=103.773880, Alt.=2865.908203m. Speed=0.324000m/h.</desc>
<speed>0.090000</speed>
</trkpt>
<trkpt lat="22.308001" lon="103.773911">
<ele>2866.220703</ele>
<time>2011-04-24T04:06:13Z</time>
<desc>lat.=22.308001, lon.=103.773911, Alt.=2866.220703m. Speed=3.204000m/h.</desc>
<speed>0.890000</speed>
</trkpt>
<trkpt lat="22.308014" lon="103.773941">
<ele>2866.345703</ele>
<time>2011-04-24T04:06:18Z</time>
<desc>lat.=22.308014, lon.=103.773941, Alt.=2866.345703m. Speed=0.756000m/h.</desc>
<speed>0.210000</speed>
</trkpt>
<trkpt lat="22.307993" lon="103.773949">
<ele>2867.658203</ele>
<time>2011-04-24T04:06:23Z</time>
<desc>lat.=22.307993, lon.=103.773949, Alt.=2867.658203m. Speed=1.764000m/h.</desc>
<speed>0.490000</speed>
</trkpt>
<trkpt lat="22.307976" lon="103.773949">
<ele>2868.220703</ele>
<time>2011-04-24T04:06:28Z</time>
<desc>lat.=22.307976, lon.=103.773949, Alt.=2868.220703m. Speed=0.504000m/h.</desc>
<speed>0.140000</speed>
</trkpt>
<trkpt lat="22.307940" lon="103.773956">
<ele>2868.658203</ele>
<time>2011-04-24T04:06:33Z</time>
<desc>lat.=22.307940, lon.=103.773956, Alt.=2868.658203m. Speed=1.404000m/h.</desc>
<speed>0.390000</speed>
</trkpt>
<trkpt lat="22.307913" lon="103.773979">
<ele>2869.970703</ele>
<time>2011-04-24T04:06:38Z</time>
<desc>lat.=22.307913, lon.=103.773979, Alt.=2869.970703m. Speed=1.692000m/h.</desc>
<speed>0.470000</speed>
</trkpt>
<trkpt lat="22.307938" lon="103.773979">
<ele>2871.658203</ele>
<time>2011-04-24T04:06:43Z</time>
<desc>lat.=22.307938, lon.=103.773979, Alt.=2871.658203m. Speed=0.504000m/h.</desc>
<speed>0.140000</speed>
</trkpt>
<trkpt lat="22.307945" lon="103.773987">
<ele>2872.408203</ele>
<time>2011-04-24T04:06:48Z</time>
<desc>lat.=22.307945, lon.=103.773987, Alt.=2872.408203m. Speed=0.252000m/h.</desc>
<speed>0.070000</speed>
</trkpt>
<trkpt lat="22.307936" lon="103.773972">
<ele>2873.658203</ele>
<time>2011-04-24T04:06:53Z</time>
<desc>lat.=22.307936, lon.=103.773972, Alt.=2873.658203m. Speed=0.576000m/h.</desc>
<speed>0.160000</speed>
</trkpt>
<trkpt lat="22.307932" lon="103.773972">
<ele>2874.970703</ele>
<time>2011-04-24T04:06:58Z</time>
<desc>lat.=22.307932, lon.=103.773972, Alt.=2874.970703m. Speed=0.252000m/h.</desc>
<speed>0.070000</speed>
</trkpt>
<trkpt lat="22.307940" lon="103.773972">
<ele>2876.158203</ele>
<time>2011-04-24T04:07:03Z</time>
<desc>lat.=22.307940, lon.=103.773972, Alt.=2876.158203m. Speed=0.684000m/h.</desc>
<speed>0.190000</speed>
</trkpt>
<trkpt lat="22.307947" lon="103.773972">
<ele>2876.533203</ele>
<time>2011-04-24T04:07:08Z</time>
<desc>lat.=22.307947, lon.=103.773972, Alt.=2876.533203m. Speed=0.648000m/h.</desc>
<speed>0.180000</speed>
</trkpt>
<trkpt lat="22.307957" lon="103.773972">
<ele>2876.720703</ele>
<time>2011-04-24T04:07:13Z</time>
<desc>lat.=22.307957, lon.=103.773972, Alt.=2876.720703m. Speed=1.152000m/h.</desc>
<speed>0.320000</speed>
</trkpt>
<trkpt lat="22.307947" lon="103.773979">
<ele>2876.533203</ele>
<time>2011-04-24T04:07:18Z</time>
<desc>lat.=22.307947, lon.=103.773979, Alt.=2876.533203m. Speed=1.476000m/h.</desc>
<speed>0.410000</speed>
</trkpt>
<trkpt lat="22.307934" lon="103.773987">
<ele>2876.408203</ele>
<time>2011-04-24T04:07:23Z</time>
<desc>lat.=22.307934, lon.=103.773987, Alt.=2876.408203m. Speed=0.108000m/h.</desc>
<speed>0.030000</speed>
</trkpt>
<trkpt lat="22.307951" lon="103.773994">
<ele>2877.470703</ele>
<time>2011-04-24T04:07:28Z</time>
<desc>lat.=22.307951, lon.=103.773994, Alt.=2877.470703m. Speed=0.036000m/h.</desc>
<speed>0.010000</speed>
</trkpt>
<trkpt lat="22.307951" lon="103.773994">
<ele>2877.533203</ele>
<time>2011-04-24T04:07:33Z</time>
<desc>lat.=22.307951, lon.=103.773994, Alt.=2877.533203m. Speed=0.036000m/h.</desc>
<speed>0.010000</speed>
</trkpt>
<trkpt lat="22.307951" lon="103.773994">
<ele>2877.595703</ele>
<time>2011-04-24T04:07:38Z</time>
<desc>lat.=22.307951, lon.=103.773994, Alt.=2877.595703m. Speed=0.036000m/h.</desc>
<speed>0.010000</speed>
</trkpt>
<trkpt lat="22.307951" lon="103.773994">
<ele>2877.658203</ele>
<time>2011-04-24T04:07:43Z</time>
<desc>lat.=22.307951, lon.=103.773994, Alt.=2877.658203m. Speed=0.000000m/h.</desc>
<speed>0.000000</speed>
</trkpt>
<trkpt lat="22.307951" lon="103.773994">
<ele>2877.658203</ele>
<time>2011-04-24T04:07:48Z</time>
<desc>lat.=22.307951, lon.=103.773994, Alt.=2877.658203m. Speed=0.000000m/h.</desc>
<speed>0.000000</speed>
</trkpt>
<trkpt lat="22.307951" lon="103.773994">
<ele>2877.658203</ele>
<time>2011-04-24T04:07:53Z</time>
<desc>lat.=22.307951, lon.=103.773994, Alt.=2877.658203m. Speed=0.036000m/h.</desc>
<speed>0.010000</speed>
</trkpt>
<trkpt lat="22.307953" lon="103.773994">
<ele>2877.658203</ele>
<time>2011-04-24T04:07:58Z</time>
<desc>lat.=22.307953, lon.=103.773994, Alt.=2877.658203m. Speed=0.000000m/h.</desc>
<speed>0.000000</speed>
</trkpt>
<trkpt lat="22.307953" lon="103.773994">
<ele>2877.720703</ele>
<time>2011-04-24T04:08:03Z</time>
<desc>lat.=22.307953, lon.=103.773994, Alt.=2877.720703m. Speed=0.036000m/h.</desc>
<speed>0.010000</speed>
</trkpt>
<trkpt lat="22.307953" lon="103.773994">
<ele>2877.783203</ele>
<time>2011-04-24T04:08:08Z</time>
<desc>lat.=22.307953, lon.=103.773994, Alt.=2877.783203m. Speed=0.036000m/h.</desc>
<speed>0.010000</speed>
</trkpt>
<trkpt lat="22.307953" lon="103.773994">
<ele>2877.845703</ele>
<time>2011-04-24T04:08:13Z</time>
<desc>lat.=22.307953, lon.=103.773994, Alt.=2877.845703m. Speed=0.036000m/h.</desc>
<speed>0.010000</speed>
</trkpt>
<trkpt lat="22.307955" lon="103.773994">
<ele>2877.908203</ele>
<time>2011-04-24T04:08:18Z</time>
<desc>lat.=22.307955, lon.=103.773994, Alt.=2877.908203m. Speed=0.072000m/h.</desc>
<speed>0.020000</speed>
</trkpt>
<trkpt lat="22.307955" lon="103.773994">
<ele>2878.033203</ele>
<time>2011-04-24T04:08:23Z</time>
<desc>lat.=22.307955, lon.=103.773994, Alt.=2878.033203m. Speed=0.036000m/h.</desc>
<speed>0.010000</speed>
</trkpt>
<trkpt lat="22.307955" lon="103.773994">
<ele>2878.095703</ele>
<time>2011-04-24T04:08:28Z</time>
<desc>lat.=22.307955, lon.=103.773994, Alt.=2878.095703m. Speed=0.000000m/h.</desc>
<speed>0.000000</speed>
</trkpt>
<trkpt lat="22.307955" lon="103.773994">
<ele>2878.095703</ele>
<time>2011-04-24T04:08:33Z</time>
<desc>lat.=22.307955, lon.=103.773994, Alt.=2878.095703m. Speed=0.000000m/h.</desc>
<speed>0.000000</speed>
</trkpt>
<trkpt lat="22.307955" lon="103.773994">
<ele>2878.158203</ele>
<time>2011-04-24T04:08:38Z</time>
<desc>lat.=22.307955, lon.=103.773994, Alt.=2878.158203m. Speed=0.000000m/h.</desc>
<speed>0.000000</speed>
</trkpt>
<trkpt lat="22.307955" lon="103.773994">
<ele>2878.158203</ele>
<time>2011-04-24T04:08:43Z</time>
<desc>lat.=22.307955, lon.=103.773994, Alt.=2878.158203m. Speed=0.000000m/h.</desc>
<speed>0.000000</speed>
</trkpt>
<trkpt lat="22.307955" lon="103.773994">
<ele>2878.095703</ele>
<time>2011-04-24T04:08:48Z</time>
<desc>lat.=22.307955, lon.=103.773994, Alt.=2878.095703m. Speed=0.000000m/h.</desc>
<speed>0.000000</speed>
</trkpt>
<trkpt lat="22.307955" lon="103.773994">
<ele>2878.158203</ele>
<time>2011-04-24T04:08:53Z</time>
<desc>lat.=22.307955, lon.=103.773994, Alt.=2878.158203m. Speed=0.000000m/h.</desc>
<speed>0.000000</speed>
</trkpt>
<trkpt lat="22.307955" lon="103.773994">
<ele>2878.158203</ele>
<time>2011-04-24T04:08:58Z</time>
<desc>lat.=22.307955, lon.=103.773994, Alt.=2878.158203m. Speed=0.000000m/h.</desc>
<speed>0.000000</speed>
</trkpt>
<trkpt lat="22.307957" lon="103.773994">
<ele>2878.158203</ele>
<time>2011-04-24T04:09:03Z</time>
<desc>lat.=22.307957, lon.=103.773994, Alt.=2878.158203m. Speed=0.000000m/h.</desc>
<speed>0.000000</speed>
</trkpt>
<trkpt lat="22.307957" lon="103.773994">
<ele>2878.158203</ele>
<time>2011-04-24T04:09:08Z</time>
<desc>lat.=22.307957, lon.=103.773994, Alt.=2878.158203m. Speed=0.036000m/h.</desc>
<speed>0.010000</speed>
</trkpt>
<trkpt lat="22.307957" lon="103.773994">
<ele>2878.158203</ele>
<time>2011-04-24T04:09:13Z</time>
<desc>lat.=22.307957, lon.=103.773994, Alt.=2878.158203m. Speed=0.036000m/h.</desc>
<speed>0.010000</speed>
</trkpt>
<trkpt lat="22.307957" lon="103.773994">
<ele>2878.158203</ele>
<time>2011-04-24T04:09:18Z</time>
<desc>lat.=22.307957, lon.=103.773994, Alt.=2878.158203m. Speed=0.000000m/h.</desc>
<speed>0.000000</speed>
</trkpt>
<trkpt lat="22.307957" lon="103.773994">
<ele>2878.158203</ele>
<time>2011-04-24T04:09:23Z</time>
<desc>lat.=22.307957, lon.=103.773994, Alt.=2878.158203m. Speed=0.000000m/h.</desc>
<speed>0.000000</speed>
</trkpt>
<trkpt lat="22.307957" lon="103.773994">
<ele>2878.158203</ele>
<time>2011-04-24T04:09:28Z</time>
<desc>lat.=22.307957, lon.=103.773994, Alt.=2878.158203m. Speed=0.000000m/h.</desc>
<speed>0.000000</speed>
</trkpt>
<trkpt lat="22.307957" lon="103.773994">
<ele>2878.158203</ele>
<time>2011-04-24T04:09:33Z</time>
<desc>lat.=22.307957, lon.=103.773994, Alt.=2878.158203m. Speed=0.000000m/h.</desc>
<speed>0.000000</speed>
</trkpt>
<trkpt lat="22.307957" lon="103.773994">
<ele>2878.158203</ele>
<time>2011-04-24T04:09:38Z</time>
<desc>lat.=22.307957, lon.=103.773994, Alt.=2878.158203m. Speed=0.000000m/h.</desc>
<speed>0.000000</speed>
</trkpt>
<trkpt lat="22.307957" lon="103.773994">
<ele>2878.158203</ele>
<time>2011-04-24T04:09:43Z</time>
<desc>lat.=22.307957, lon.=103.773994, Alt.=2878.158203m. Speed=0.036000m/h.</desc>
<speed>0.010000</speed>
</trkpt>
<trkpt lat="22.307959" lon="103.773994">
<ele>2878.158203</ele>
<time>2011-04-24T04:09:48Z</time>
<desc>lat.=22.307959, lon.=103.773994, Alt.=2878.158203m. Speed=0.036000m/h.</desc>
<speed>0.010000</speed>
</trkpt>
<trkpt lat="22.307959" lon="103.773994">
<ele>2878.158203</ele>
<time>2011-04-24T04:09:53Z</time>
<desc>lat.=22.307959, lon.=103.773994, Alt.=2878.158203m. Speed=0.000000m/h.</desc>
<speed>0.000000</speed>
</trkpt>
<trkpt lat="22.307959" lon="103.773994">
<ele>2878.158203</ele>
<time>2011-04-24T04:09:58Z</time>
<desc>lat.=22.307959, lon.=103.773994, Alt.=2878.158203m. Speed=0.000000m/h.</desc>
<speed>0.000000</speed>
</trkpt>
<trkpt lat="22.307959" lon="103.773994">
<ele>2878.158203</ele>
<time>2011-04-24T04:10:03Z</time>
<desc>lat.=22.307959, lon.=103.773994, Alt.=2878.158203m. Speed=0.000000m/h.</desc>
<speed>0.000000</speed>
</trkpt>
<trkpt lat="22.307959" lon="103.773994">
<ele>2878.095703</ele>
<time>2011-04-24T04:10:08Z</time>
<desc>lat.=22.307959, lon.=103.773994, Alt.=2878.095703m. Speed=0.000000m/h.</desc>
<speed>0.000000</speed>
</trkpt>
<trkpt lat="22.307955" lon="103.773994">
<ele>2877.970703</ele>
<time>2011-04-24T04:10:13Z</time>
<desc>lat.=22.307955, lon.=103.773994, Alt.=2877.970703m. Speed=2.160000m/h.</desc>
<speed>0.600000</speed>
</trkpt>
<trkpt lat="22.307934" lon="103.773994">
<ele>2877.783203</ele>
<time>2011-04-24T04:10:18Z</time>
<desc>lat.=22.307934, lon.=103.773994, Alt.=2877.783203m. Speed=1.908000m/h.</desc>
<speed>0.530000</speed>
</trkpt>
<trkpt lat="22.307926" lon="103.773994">
<ele>2877.220703</ele>
<time>2011-04-24T04:10:23Z</time>
<desc>lat.=22.307926, lon.=103.773994, Alt.=2877.220703m. Speed=1.260000m/h.</desc>
<speed>0.350000</speed>
</trkpt>
<trkpt lat="22.307934" lon="103.773987">
<ele>2876.970703</ele>
<time>2011-04-24T04:10:28Z</time>
<desc>lat.=22.307934, lon.=103.773987, Alt.=2876.970703m. Speed=0.468000m/h.</desc>
<speed>0.130000</speed>
</trkpt>
<trkpt lat="22.307928" lon="103.773987">
<ele>2876.345703</ele>
<time>2011-04-24T04:10:33Z</time>
<desc>lat.=22.307928, lon.=103.773987, Alt.=2876.345703m. Speed=0.432000m/h.</desc>
<speed>0.120000</speed>
</trkpt>
<trkpt lat="22.307922" lon="103.773987">
<ele>2875.845703</ele>
<time>2011-04-24T04:10:38Z</time>
<desc>lat.=22.307922, lon.=103.773987, Alt.=2875.845703m. Speed=0.396000m/h.</desc>
<speed>0.110000</speed>
</trkpt>
<trkpt lat="22.307917" lon="103.773987">
<ele>2875.283203</ele>
<time>2011-04-24T04:10:43Z</time>
<desc>lat.=22.307917, lon.=103.773987, Alt.=2875.283203m. Speed=0.360000m/h.</desc>
<speed>0.100000</speed>
</trkpt>
<trkpt lat="22.307913" lon="103.773987">
<ele>2874.845703</ele>
<time>2011-04-24T04:10:48Z</time>
<desc>lat.=22.307913, lon.=103.773987, Alt.=2874.845703m. Speed=0.648000m/h.</desc>
<speed>0.180000</speed>
</trkpt>
<trkpt lat="22.307919" lon="103.774010">
<ele>2874.658203</ele>
<time>2011-04-24T04:10:53Z</time>
<desc>lat.=22.307919, lon.=103.774010, Alt.=2874.658203m. Speed=4.284000m/h.</desc>
<speed>1.190000</speed>
</trkpt>
<trkpt lat="22.307936" lon="103.774071">
<ele>2874.908203</ele>
<time>2011-04-24T04:10:58Z</time>
<desc>lat.=22.307936, lon.=103.774071, Alt.=2874.908203m. Speed=3.636000m/h.</desc>
<speed>1.010000</speed>
</trkpt>
<trkpt lat="22.307941" lon="103.774117">
<ele>2875.345703</ele>
<time>2011-04-24T04:11:03Z</time>
<desc>lat.=22.307941, lon.=103.774117, Alt.=2875.345703m. Speed=1.692000m/h.</desc>
<speed>0.470000</speed>
</trkpt>
<trkpt lat="22.307978" lon="103.774139">
<ele>2875.845703</ele>
<time>2011-04-24T04:11:08Z</time>
<desc>lat.=22.307978, lon.=103.774139, Alt.=2875.845703m. Speed=1.296000m/h.</desc>
<speed>0.360000</speed>
</trkpt>
<trkpt lat="22.307997" lon="103.774147">
<ele>2875.970703</ele>
<time>2011-04-24T04:11:13Z</time>
<desc>lat.=22.307997, lon.=103.774147, Alt.=2875.970703m. Speed=0.936000m/h.</desc>
<speed>0.260000</speed>
</trkpt>
<trkpt lat="22.307991" lon="103.774155">
<ele>2876.095703</ele>
<time>2011-04-24T04:11:18Z</time>
<desc>lat.=22.307991, lon.=103.774155, Alt.=2876.095703m. Speed=1.008000m/h.</desc>
<speed>0.280000</speed>
</trkpt>
<trkpt lat="22.307981" lon="103.774162">
<ele>2876.283203</ele>
<time>2011-04-24T04:11:23Z</time>
<desc>lat.=22.307981, lon.=103.774162, Alt.=2876.283203m. Speed=1.260000m/h.</desc>
<speed>0.350000</speed>
</trkpt>
<trkpt lat="22.307917" lon="103.774185">
<ele>2876.783203</ele>
<time>2011-04-24T04:11:28Z</time>
<desc>lat.=22.307917, lon.=103.774185, Alt.=2876.783203m. Speed=2.844000m/h.</desc>
<speed>0.790000</speed>
</trkpt>
<trkpt lat="22.307899" lon="103.774208">
<ele>2876.908203</ele>
<time>2011-04-24T04:11:33Z</time>
<desc>lat.=22.307899, lon.=103.774208, Alt.=2876.908203m. Speed=2.592000m/h.</desc>
<speed>0.720000</speed>
</trkpt>
<trkpt lat="22.307888" lon="103.774231">
<ele>2877.220703</ele>
<time>2011-04-24T04:11:38Z</time>
<desc>lat.=22.307888, lon.=103.774231, Alt.=2877.220703m. Speed=1.080000m/h.</desc>
<speed>0.300000</speed>
</trkpt>
<trkpt lat="22.307854" lon="103.774246">
<ele>2877.408203</ele>
<time>2011-04-24T04:11:43Z</time>
<desc>lat.=22.307854, lon.=103.774246, Alt.=2877.408203m. Speed=0.936000m/h.</desc>
<speed>0.260000</speed>
</trkpt>
<trkpt lat="22.307846" lon="103.774246">
<ele>2877.345703</ele>
<time>2011-04-24T04:11:48Z</time>
<desc>lat.=22.307846, lon.=103.774246, Alt.=2877.345703m. Speed=0.180000m/h.</desc>
<speed>0.050000</speed>
</trkpt>
<trkpt lat="22.307810" lon="103.774246">
<ele>2878.345703</ele>
<time>2011-04-24T04:11:53Z</time>
<desc>lat.=22.307810, lon.=103.774246, Alt.=2878.345703m. Speed=2.412000m/h.</desc>
<speed>0.670000</speed>
</trkpt>
<trkpt lat="22.307758" lon="103.774300">
<ele>2879.845703</ele>
<time>2011-04-24T04:11:58Z</time>
<desc>lat.=22.307758, lon.=103.774300, Alt.=2879.845703m. Speed=2.088000m/h.</desc>
<speed>0.580000</speed>
</trkpt>
<trkpt lat="22.307758" lon="103.774323">
<ele>2881.783203</ele>
<time>2011-04-24T04:12:03Z</time>
<desc>lat.=22.307758, lon.=103.774323, Alt.=2881.783203m. Speed=2.088000m/h.</desc>
<speed>0.580000</speed>
</trkpt>
<trkpt lat="22.307745" lon="103.774323">
<ele>2882.720703</ele>
<time>2011-04-24T04:12:08Z</time>
<desc>lat.=22.307745, lon.=103.774323, Alt.=2882.720703m. Speed=1.836000m/h.</desc>
<speed>0.510000</speed>
</trkpt>
<trkpt lat="22.307743" lon="103.774323">
<ele>2883.908203</ele>
<time>2011-04-24T04:12:13Z</time>
<desc>lat.=22.307743, lon.=103.774323, Alt.=2883.908203m. Speed=0.288000m/h.</desc>
<speed>0.080000</speed>
</trkpt>
<trkpt lat="22.307718" lon="103.774330">
<ele>2884.533203</ele>
<time>2011-04-24T04:12:18Z</time>
<desc>lat.=22.307718, lon.=103.774330, Alt.=2884.533203m. Speed=0.432000m/h.</desc>
<speed>0.120000</speed>
</trkpt>
<trkpt lat="22.307718" lon="103.774338">
<ele>2884.658203</ele>
<time>2011-04-24T04:12:23Z</time>
<desc>lat.=22.307718, lon.=103.774338, Alt.=2884.658203m. Speed=0.684000m/h.</desc>
<speed>0.190000</speed>
</trkpt>
<trkpt lat="22.307711" lon="103.774338">
<ele>2884.845703</ele>
<time>2011-04-24T04:12:28Z</time>
<desc>lat.=22.307711, lon.=103.774338, Alt.=2884.845703m. Speed=1.332000m/h.</desc>
<speed>0.370000</speed>
</trkpt>
<trkpt lat="22.307709" lon="103.774353">
<ele>2884.970703</ele>
<time>2011-04-24T04:12:33Z</time>
<desc>lat.=22.307709, lon.=103.774353, Alt.=2884.970703m. Speed=1.188000m/h.</desc>
<speed>0.330000</speed>
</trkpt>
<trkpt lat="22.307709" lon="103.774368">
<ele>2885.283203</ele>
<time>2011-04-24T04:12:38Z</time>
<desc>lat.=22.307709, lon.=103.774368, Alt.=2885.283203m. Speed=0.288000m/h.</desc>
<speed>0.080000</speed>
</trkpt>
<trkpt lat="22.307711" lon="103.774361">
<ele>2885.720703</ele>
<time>2011-04-24T04:12:43Z</time>
<desc>lat.=22.307711, lon.=103.774361, Alt.=2885.720703m. Speed=1.224000m/h.</desc>
<speed>0.340000</speed>
</trkpt>
<trkpt lat="22.307726" lon="103.774384">
<ele>2885.220703</ele>
<time>2011-04-24T04:12:48Z</time>
<desc>lat.=22.307726, lon.=103.774384, Alt.=2885.220703m. Speed=0.972000m/h.</desc>
<speed>0.270000</speed>
</trkpt>
<trkpt lat="22.307718" lon="103.774391">
<ele>2885.783203</ele>
<time>2011-04-24T04:12:53Z</time>
<desc>lat.=22.307718, lon.=103.774391, Alt.=2885.783203m. Speed=0.828000m/h.</desc>
<speed>0.230000</speed>
</trkpt>
<trkpt lat="22.307711" lon="103.774376">
<ele>2886.095703</ele>
<time>2011-04-24T04:12:58Z</time>
<desc>lat.=22.307711, lon.=103.774376, Alt.=2886.095703m. Speed=1.332000m/h.</desc>
<speed>0.370000</speed>
</trkpt>
<trkpt lat="22.307674" lon="103.774406">
<ele>2887.658203</ele>
<time>2011-04-24T04:13:03Z</time>
<desc>lat.=22.307674, lon.=103.774406, Alt.=2887.658203m. Speed=0.864000m/h.</desc>
<speed>0.240000</speed>
</trkpt>
<trkpt lat="22.307663" lon="103.774406">
<ele>2888.033203</ele>
<time>2011-04-24T04:13:08Z</time>
<desc>lat.=22.307663, lon.=103.774406, Alt.=2888.033203m. Speed=0.648000m/h.</desc>
<speed>0.180000</speed>
</trkpt>
<trkpt lat="22.307663" lon="103.774406">
<ele>2888.095703</ele>
<time>2011-04-24T04:13:13Z</time>
<desc>lat.=22.307663, lon.=103.774406, Alt.=2888.095703m. Speed=1.728000m/h.</desc>
<speed>0.480000</speed>
</trkpt>
<trkpt lat="22.307661" lon="103.774445">
<ele>2888.533203</ele>
<time>2011-04-24T04:13:18Z</time>
<desc>lat.=22.307661, lon.=103.774445, Alt.=2888.533203m. Speed=1.008000m/h.</desc>
<speed>0.280000</speed>
</trkpt>
<trkpt lat="22.307701" lon="103.774452">
<ele>2888.470703</ele>
<time>2011-04-24T04:13:23Z</time>
<desc>lat.=22.307701, lon.=103.774452, Alt.=2888.470703m. Speed=1.080000m/h.</desc>
<speed>0.300000</speed>
</trkpt>
<trkpt lat="22.307713" lon="103.774437">
<ele>2888.970703</ele>
<time>2011-04-24T04:13:28Z</time>
<desc>lat.=22.307713, lon.=103.774437, Alt.=2888.970703m. Speed=0.756000m/h.</desc>
<speed>0.210000</speed>
</trkpt>
<trkpt lat="22.307697" lon="103.774460">
<ele>2889.408203</ele>
<time>2011-04-24T04:13:33Z</time>
<desc>lat.=22.307697, lon.=103.774460, Alt.=2889.408203m. Speed=1.728000m/h.</desc>
<speed>0.480000</speed>
</trkpt>
<trkpt lat="22.307693" lon="103.774467">
<ele>2890.033203</ele>
<time>2011-04-24T04:13:38Z</time>
<desc>lat.=22.307693, lon.=103.774467, Alt.=2890.033203m. Speed=1.404000m/h.</desc>
<speed>0.390000</speed>
</trkpt>
<trkpt lat="22.307674" lon="103.774490">
<ele>2890.970703</ele>
<time>2011-04-24T04:13:43Z</time>
<desc>lat.=22.307674, lon.=103.774490, Alt.=2890.970703m. Speed=1.584000m/h.</desc>
<speed>0.440000</speed>
</trkpt>
<trkpt lat="22.307661" lon="103.774521">
<ele>2891.158203</ele>
<time>2011-04-24T04:13:48Z</time>
<desc>lat.=22.307661, lon.=103.774521, Alt.=2891.158203m. Speed=1.728000m/h.</desc>
<speed>0.480000</speed>
</trkpt>
<trkpt lat="22.307676" lon="103.774551">
<ele>2891.658203</ele>
<time>2011-04-24T04:13:53Z</time>
<desc>lat.=22.307676, lon.=103.774551, Alt.=2891.658203m. Speed=0.756000m/h.</desc>
<speed>0.210000</speed>
</trkpt>
<trkpt lat="22.307673" lon="103.774559">
<ele>2892.283203</ele>
<time>2011-04-24T04:13:58Z</time>
<desc>lat.=22.307673, lon.=103.774559, Alt.=2892.283203m. Speed=1.512000m/h.</desc>
<speed>0.420000</speed>
</trkpt>
<trkpt lat="22.307676" lon="103.774574">
<ele>2892.720703</ele>
<time>2011-04-24T04:14:03Z</time>
<desc>lat.=22.307676, lon.=103.774574, Alt.=2892.720703m. Speed=1.728000m/h.</desc>
<speed>0.480000</speed>
</trkpt>
<trkpt lat="22.307638" lon="103.774590">
<ele>2893.158203</ele>
<time>2011-04-24T04:14:08Z</time>
<desc>lat.=22.307638, lon.=103.774590, Alt.=2893.158203m. Speed=3.132000m/h.</desc>
<speed>0.870000</speed>
</trkpt>
<trkpt lat="22.307625" lon="103.774597">
<ele>2894.408203</ele>
<time>2011-04-24T04:14:13Z</time>
<desc>lat.=22.307625, lon.=103.774597, Alt.=2894.408203m. Speed=1.188000m/h.</desc>
<speed>0.330000</speed>
</trkpt>
<trkpt lat="22.307634" lon="103.774590">
<ele>2894.408203</ele>
<time>2011-04-24T04:14:18Z</time>
<desc>lat.=22.307634, lon.=103.774590, Alt.=2894.408203m. Speed=1.044000m/h.</desc>
<speed>0.290000</speed>
</trkpt>
<trkpt lat="22.307619" lon="103.774605">
<ele>2896.033203</ele>
<time>2011-04-24T04:14:23Z</time>
<desc>lat.=22.307619, lon.=103.774605, Alt.=2896.033203m. Speed=1.044000m/h.</desc>
<speed>0.290000</speed>
</trkpt>
<trkpt lat="22.307585" lon="103.774628">
<ele>2897.283203</ele>
<time>2011-04-24T04:14:28Z</time>
<desc>lat.=22.307585, lon.=103.774628, Alt.=2897.283203m. Speed=1.476000m/h.</desc>
<speed>0.410000</speed>
</trkpt>
<trkpt lat="22.307577" lon="103.774620">
<ele>2898.095703</ele>
<time>2011-04-24T04:14:33Z</time>
<desc>lat.=22.307577, lon.=103.774620, Alt.=2898.095703m. Speed=1.332000m/h.</desc>
<speed>0.370000</speed>
</trkpt>
<trkpt lat="22.307579" lon="103.774628">
<ele>2898.783203</ele>
<time>2011-04-24T04:14:38Z</time>
<desc>lat.=22.307579, lon.=103.774628, Alt.=2898.783203m. Speed=1.620000m/h.</desc>
<speed>0.450000</speed>
</trkpt>
<trkpt lat="22.307634" lon="103.774666">
<ele>2899.470703</ele>
<time>2011-04-24T04:14:43Z</time>
<desc>lat.=22.307634, lon.=103.774666, Alt.=2899.470703m. Speed=2.916000m/h.</desc>
<speed>0.810000</speed>
</trkpt>
<trkpt lat="22.307671" lon="103.774689">
<ele>2899.970703</ele>
<time>2011-04-24T04:14:48Z</time>
<desc>lat.=22.307671, lon.=103.774689, Alt.=2899.970703m. Speed=1.296000m/h.</desc>
<speed>0.360000</speed>
</trkpt>
<trkpt lat="22.307716" lon="103.774704">
<ele>2900.283203</ele>
<time>2011-04-24T04:14:53Z</time>
<desc>lat.=22.307716, lon.=103.774704, Alt.=2900.283203m. Speed=1.152000m/h.</desc>
<speed>0.320000</speed>
</trkpt>
<trkpt lat="22.307735" lon="103.774712">
<ele>2900.533203</ele>
<time>2011-04-24T04:14:58Z</time>
<desc>lat.=22.307735, lon.=103.774712, Alt.=2900.533203m. Speed=1.008000m/h.</desc>
<speed>0.280000</speed>
</trkpt>
<trkpt lat="22.307735" lon="103.774696">
<ele>2900.970703</ele>
<time>2011-04-24T04:15:03Z</time>
<desc>lat.=22.307735, lon.=103.774696, Alt.=2900.970703m. Speed=0.504000m/h.</desc>
<speed>0.140000</speed>
</trkpt>
<trkpt lat="22.307722" lon="103.774666">
<ele>2901.345703</ele>
<time>2011-04-24T04:15:08Z</time>
<desc>lat.=22.307722, lon.=103.774666, Alt.=2901.345703m. Speed=1.044000m/h.</desc>
<speed>0.290000</speed>
</trkpt>
<trkpt lat="22.307713" lon="103.774643">
<ele>2901.658203</ele>
<time>2011-04-24T04:15:13Z</time>
<desc>lat.=22.307713, lon.=103.774643, Alt.=2901.658203m. Speed=0.900000m/h.</desc>
<speed>0.250000</speed>
</trkpt>
<trkpt lat="22.307699" lon="103.774643">
<ele>2901.908203</ele>
<time>2011-04-24T04:15:18Z</time>
<desc>lat.=22.307699, lon.=103.774643, Alt.=2901.908203m. Speed=1.152000m/h.</desc>
<speed>0.320000</speed>
</trkpt>
<trkpt lat="22.307673" lon="103.774620">
<ele>2902.283203</ele>
<time>2011-04-24T04:15:23Z</time>
<desc>lat.=22.307673, lon.=103.774620, Alt.=2902.283203m. Speed=1.440000m/h.</desc>
<speed>0.400000</speed>
</trkpt>
<trkpt lat="22.307663" lon="103.774620">
<ele>2902.470703</ele>
<time>2011-04-24T04:15:28Z</time>
<desc>lat.=22.307663, lon.=103.774620, Alt.=2902.470703m. Speed=0.576000m/h.</desc>
<speed>0.160000</speed>
</trkpt>
<trkpt lat="22.307653" lon="103.774628">
<ele>2902.533203</ele>
<time>2011-04-24T04:15:33Z</time>
<desc>lat.=22.307653, lon.=103.774628, Alt.=2902.533203m. Speed=1.152000m/h.</desc>
<speed>0.320000</speed>
</trkpt>
<trkpt lat="22.307657" lon="103.774643">
<ele>2902.658203</ele>
<time>2011-04-24T04:15:38Z</time>
<desc>lat.=22.307657, lon.=103.774643, Alt.=2902.658203m. Speed=1.296000m/h.</desc>
<speed>0.360000</speed>
</trkpt>
<trkpt lat="22.307657" lon="103.774666">
<ele>2902.408203</ele>
<time>2011-04-24T04:15:43Z</time>
<desc>lat.=22.307657, lon.=103.774666, Alt.=2902.408203m. Speed=1.044000m/h.</desc>
<speed>0.290000</speed>
</trkpt>
<trkpt lat="22.307665" lon="103.774673">
<ele>2902.345703</ele>
<time>2011-04-24T04:15:48Z</time>
<desc>lat.=22.307665, lon.=103.774673, Alt.=2902.345703m. Speed=0.540000m/h.</desc>
<speed>0.150000</speed>
</trkpt>
<trkpt lat="22.307661" lon="103.774673">
<ele>2902.345703</ele>
<time>2011-04-24T04:15:53Z</time>
<desc>lat.=22.307661, lon.=103.774673, Alt.=2902.345703m. Speed=0.648000m/h.</desc>
<speed>0.180000</speed>
</trkpt>
<trkpt lat="22.307652" lon="103.774673">
<ele>2902.345703</ele>
<time>2011-04-24T04:15:58Z</time>
<desc>lat.=22.307652, lon.=103.774673, Alt.=2902.345703m. Speed=0.936000m/h.</desc>
<speed>0.260000</speed>
</trkpt>
<trkpt lat="22.307629" lon="103.774666">
<ele>2902.533203</ele>
<time>2011-04-24T04:16:03Z</time>
<desc>lat.=22.307629, lon.=103.774666, Alt.=2902.533203m. Speed=3.636000m/h.</desc>
<speed>1.010000</speed>
</trkpt>
<trkpt lat="22.307627" lon="103.774689">
<ele>2902.845703</ele>
<time>2011-04-24T04:16:08Z</time>
<desc>lat.=22.307627, lon.=103.774689, Alt.=2902.845703m. Speed=0.360000m/h.</desc>
<speed>0.100000</speed>
</trkpt>
<trkpt lat="22.307634" lon="103.774666">
<ele>2903.533203</ele>
<time>2011-04-24T04:16:13Z</time>
<desc>lat.=22.307634, lon.=103.774666, Alt.=2903.533203m. Speed=1.296000m/h.</desc>
<speed>0.360000</speed>
</trkpt>
<trkpt lat="22.307631" lon="103.774666">
<ele>2904.095703</ele>
<time>2011-04-24T04:16:18Z</time>
<desc>lat.=22.307631, lon.=103.774666, Alt.=2904.095703m. Speed=1.440000m/h.</desc>
<speed>0.400000</speed>
</trkpt>
<trkpt lat="22.307611" lon="103.774727">
<ele>2905.033203</ele>
<time>2011-04-24T04:16:23Z</time>
<desc>lat.=22.307611, lon.=103.774727, Alt.=2905.033203m. Speed=3.852000m/h.</desc>
<speed>1.070000</speed>
</trkpt>
<trkpt lat="22.307589" lon="103.774734">
<ele>2905.283203</ele>
<time>2011-04-24T04:16:28Z</time>
<desc>lat.=22.307589, lon.=103.774734, Alt.=2905.283203m. Speed=0.900000m/h.</desc>
<speed>0.250000</speed>
</trkpt>
<trkpt lat="22.307560" lon="103.774734">
<ele>2906.158203</ele>
<time>2011-04-24T04:16:33Z</time>
<desc>lat.=22.307560, lon.=103.774734, Alt.=2906.158203m. Speed=0.756000m/h.</desc>
<speed>0.210000</speed>
</trkpt>
<trkpt lat="22.307600" lon="103.774750">
<ele>2906.720703</ele>
<time>2011-04-24T04:16:38Z</time>
<desc>lat.=22.307600, lon.=103.774750, Alt.=2906.720703m. Speed=0.432000m/h.</desc>
<speed>0.120000</speed>
</trkpt>
<trkpt lat="22.307608" lon="103.774750">
<ele>2907.345703</ele>
<time>2011-04-24T04:16:43Z</time>
<desc>lat.=22.307608, lon.=103.774750, Alt.=2907.345703m. Speed=0.432000m/h.</desc>
<speed>0.120000</speed>
</trkpt>
<trkpt lat="22.307606" lon="103.774757">
<ele>2907.720703</ele>
<time>2011-04-24T04:16:48Z</time>
<desc>lat.=22.307606, lon.=103.774757, Alt.=2907.720703m. Speed=0.900000m/h.</desc>
<speed>0.250000</speed>
</trkpt>
<trkpt lat="22.307575" lon="103.774765">
<ele>2908.283203</ele>
<time>2011-04-24T04:16:53Z</time>
<desc>lat.=22.307575, lon.=103.774765, Alt.=2908.283203m. Speed=1.800000m/h.</desc>
<speed>0.500000</speed>
</trkpt>
<trkpt lat="22.307566" lon="103.774796">
<ele>2909.095703</ele>
<time>2011-04-24T04:16:58Z</time>
<desc>lat.=22.307566, lon.=103.774796, Alt.=2909.095703m. Speed=1.332000m/h.</desc>
<speed>0.370000</speed>
</trkpt>
<trkpt lat="22.307531" lon="103.774803">
<ele>2909.158203</ele>
<time>2011-04-24T04:17:03Z</time>
<desc>lat.=22.307531, lon.=103.774803, Alt.=2909.158203m. Speed=2.052000m/h.</desc>
<speed>0.570000</speed>
</trkpt>
<trkpt lat="22.307508" lon="103.774811">
<ele>2909.345703</ele>
<time>2011-04-24T04:17:08Z</time>
<desc>lat.=22.307508, lon.=103.774811, Alt.=2909.345703m. Speed=1.512000m/h.</desc>
<speed>0.420000</speed>
</trkpt>
<trkpt lat="22.307539" lon="103.774811">
<ele>2909.908203</ele>
<time>2011-04-24T04:17:13Z</time>
<desc>lat.=22.307539, lon.=103.774811, Alt.=2909.908203m. Speed=1.692000m/h.</desc>
<speed>0.470000</speed>
</trkpt>
<trkpt lat="22.307526" lon="103.774796">
<ele>2910.408203</ele>
<time>2011-04-24T04:17:18Z</time>
<desc>lat.=22.307526, lon.=103.774796, Alt.=2910.408203m. Speed=1.512000m/h.</desc>
<speed>0.420000</speed>
</trkpt>
<trkpt lat="22.307484" lon="103.774773">
<ele>2910.533203</ele>
<time>2011-04-24T04:17:23Z</time>
<desc>lat.=22.307484, lon.=103.774773, Alt.=2910.533203m. Speed=2.124000m/h.</desc>
<speed>0.590000</speed>
</trkpt>
<trkpt lat="22.307440" lon="103.774803">
<ele>2910.908203</ele>
<time>2011-04-24T04:17:28Z</time>
<desc>lat.=22.307440, lon.=103.774803, Alt.=2910.908203m. Speed=2.304000m/h.</desc>
<speed>0.640000</speed>
</trkpt>
<trkpt lat="22.307467" lon="103.774811">
<ele>2910.658203</ele>
<time>2011-04-24T04:17:33Z</time>
<desc>lat.=22.307467, lon.=103.774811, Alt.=2910.658203m. Speed=0.540000m/h.</desc>
<speed>0.150000</speed>
</trkpt>
<trkpt lat="22.307484" lon="103.774834">
<ele>2911.033203</ele>
<time>2011-04-24T04:17:38Z</time>
<desc>lat.=22.307484, lon.=103.774834, Alt.=2911.033203m. Speed=1.152000m/h.</desc>
<speed>0.320000</speed>
</trkpt>
<trkpt lat="22.307474" lon="103.774826">
<ele>2912.658203</ele>
<time>2011-04-24T04:17:43Z</time>
<desc>lat.=22.307474, lon.=103.774826, Alt.=2912.658203m. Speed=1.224000m/h.</desc>
<speed>0.340000</speed>
</trkpt>
<trkpt lat="22.307430" lon="103.774849">
<ele>2914.783203</ele>
<time>2011-04-24T04:17:48Z</time>
<desc>lat.=22.307430, lon.=103.774849, Alt.=2914.783203m. Speed=1.476000m/h.</desc>
<speed>0.410000</speed>
</trkpt>
<trkpt lat="22.307425" lon="103.774864">
<ele>2915.970703</ele>
<time>2011-04-24T04:17:53Z</time>
<desc>lat.=22.307425, lon.=103.774864, Alt.=2915.970703m. Speed=1.944000m/h.</desc>
<speed>0.540000</speed>
</trkpt>
<trkpt lat="22.307444" lon="103.774857">
<ele>2917.595703</ele>
<time>2011-04-24T04:17:58Z</time>
<desc>lat.=22.307444, lon.=103.774857, Alt.=2917.595703m. Speed=2.088000m/h.</desc>
<speed>0.580000</speed>
</trkpt>
<trkpt lat="22.307461" lon="103.774849">
<ele>2918.158203</ele>
<time>2011-04-24T04:18:03Z</time>
<desc>lat.=22.307461, lon.=103.774849, Alt.=2918.158203m. Speed=1.260000m/h.</desc>
<speed>0.350000</speed>
</trkpt>
<trkpt lat="22.307526" lon="103.774849">
<ele>2919.345703</ele>
<time>2011-04-24T04:18:08Z</time>
<desc>lat.=22.307526, lon.=103.774849, Alt.=2919.345703m. Speed=2.268000m/h.</desc>
<speed>0.630000</speed>
</trkpt>
<trkpt lat="22.307535" lon="103.774872">
<ele>2922.345703</ele>
<time>2011-04-24T04:18:13Z</time>
<desc>lat.=22.307535, lon.=103.774872, Alt.=2922.345703m. Speed=0.468000m/h.</desc>
<speed>0.130000</speed>
</trkpt>
<trkpt lat="22.307550" lon="103.774910">
<ele>2924.470703</ele>
<time>2011-04-24T04:18:18Z</time>
<desc>lat.=22.307550, lon.=103.774910, Alt.=2924.470703m. Speed=2.160000m/h.</desc>
<speed>0.600000</speed>
</trkpt>
<trkpt lat="22.307545" lon="103.774956">
<ele>2924.970703</ele>
<time>2011-04-24T04:18:23Z</time>
<desc>lat.=22.307545, lon.=103.774956, Alt.=2924.970703m. Speed=2.988000m/h.</desc>
<speed>0.830000</speed>
</trkpt>
<trkpt lat="22.307541" lon="103.774994">
<ele>2925.220703</ele>
<time>2011-04-24T04:18:28Z</time>
<desc>lat.=22.307541, lon.=103.774994, Alt.=2925.220703m. Speed=2.304000m/h.</desc>
<speed>0.640000</speed>
</trkpt>
<trkpt lat="22.307541" lon="103.775002">
<ele>2925.908203</ele>
<time>2011-04-24T04:18:33Z</time>
<desc>lat.=22.307541, lon.=103.775002, Alt.=2925.908203m. Speed=0.252000m/h.</desc>
<speed>0.070000</speed>
</trkpt>
<trkpt lat="22.307539" lon="103.775009">
<ele>2926.033203</ele>
<time>2011-04-24T04:18:38Z</time>
<desc>lat.=22.307539, lon.=103.775009, Alt.=2926.033203m. Speed=0.216000m/h.</desc>
<speed>0.060000</speed>
</trkpt>
<trkpt lat="22.307539" lon="103.775002">
<ele>2926.033203</ele>
<time>2011-04-24T04:18:43Z</time>
<desc>lat.=22.307539, lon.=103.775002, Alt.=2926.033203m. Speed=0.612000m/h.</desc>
<speed>0.170000</speed>
</trkpt>
<trkpt lat="22.307547" lon="103.775009">
<ele>2926.470703</ele>
<time>2011-04-24T04:18:48Z</time>
<desc>lat.=22.307547, lon.=103.775009, Alt.=2926.470703m. Speed=0.360000m/h.</desc>
<speed>0.100000</speed>
</trkpt>
<trkpt lat="22.307524" lon="103.775024">
<ele>2926.908203</ele>
<time>2011-04-24T04:18:53Z</time>
<desc>lat.=22.307524, lon.=103.775024, Alt.=2926.908203m. Speed=0.360000m/h.</desc>
<speed>0.100000</speed>
</trkpt>
<trkpt lat="22.307520" lon="103.775024">
<ele>2927.033203</ele>
<time>2011-04-24T04:18:58Z</time>
<desc>lat.=22.307520, lon.=103.775024, Alt.=2927.033203m. Speed=0.324000m/h.</desc>
<speed>0.090000</speed>
</trkpt>
<trkpt lat="22.307518" lon="103.775032">
<ele>2927.095703</ele>
<time>2011-04-24T04:19:03Z</time>
<desc>lat.=22.307518, lon.=103.775032, Alt.=2927.095703m. Speed=0.900000m/h.</desc>
<speed>0.250000</speed>
</trkpt>
<trkpt lat="22.307512" lon="103.775040">
<ele>2927.720703</ele>
<time>2011-04-24T04:19:08Z</time>
<desc>lat.=22.307512, lon.=103.775040, Alt.=2927.720703m. Speed=1.656000m/h.</desc>
<speed>0.460000</speed>
</trkpt>
<trkpt lat="22.307493" lon="103.775047">
<ele>2927.970703</ele>
<time>2011-04-24T04:19:13Z</time>
<desc>lat.=22.307493, lon.=103.775047, Alt.=2927.970703m. Speed=0.612000m/h.</desc>
<speed>0.170000</speed>
</trkpt>
<trkpt lat="22.307474" lon="103.775047">
<ele>2928.845703</ele>
<time>2011-04-24T04:19:18Z</time>
<desc>lat.=22.307474, lon.=103.775047, Alt.=2928.845703m. Speed=0.252000m/h.</desc>
<speed>0.070000</speed>
</trkpt>
<trkpt lat="22.307442" lon="103.775063">
<ele>2930.095703</ele>
<time>2011-04-24T04:19:23Z</time>
<desc>lat.=22.307442, lon.=103.775063, Alt.=2930.095703m. Speed=1.728000m/h.</desc>
<speed>0.480000</speed>
</trkpt>
<trkpt lat="22.307398" lon="103.775101">
<ele>2931.720703</ele>
<time>2011-04-24T04:19:28Z</time>
<desc>lat.=22.307398, lon.=103.775101, Alt.=2931.720703m. Speed=3.456000m/h.</desc>
<speed>0.960000</speed>
</trkpt>
<trkpt lat="22.307377" lon="103.775131">
<ele>2932.470703</ele>
<time>2011-04-24T04:19:33Z</time>
<desc>lat.=22.307377, lon.=103.775131, Alt.=2932.470703m. Speed=2.988000m/h.</desc>
<speed>0.830000</speed>
</trkpt>
<trkpt lat="22.307350" lon="103.775139">
<ele>2933.595703</ele>
<time>2011-04-24T04:19:38Z</time>
<desc>lat.=22.307350, lon.=103.775139, Alt.=2933.595703m. Speed=1.260000m/h.</desc>
<speed>0.350000</speed>
</trkpt>
<trkpt lat="22.307329" lon="103.775154">
<ele>2935.345703</ele>
<time>2011-04-24T04:19:43Z</time>
<desc>lat.=22.307329, lon.=103.775154, Alt.=2935.345703m. Speed=2.700000m/h.</desc>
<speed>0.750000</speed>
</trkpt>
<trkpt lat="22.307341" lon="103.775146">
<ele>2936.595703</ele>
<time>2011-04-24T04:19:48Z</time>
<desc>lat.=22.307341, lon.=103.775146, Alt.=2936.595703m. Speed=0.648000m/h.</desc>
<speed>0.180000</speed>
</trkpt>
<trkpt lat="22.307333" lon="103.775146">
<ele>2936.720703</ele>
<time>2011-04-24T04:19:53Z</time>
<desc>lat.=22.307333, lon.=103.775146, Alt.=2936.720703m. Speed=0.468000m/h.</desc>
<speed>0.130000</speed>
</trkpt>
<trkpt lat="22.307329" lon="103.775146">
<ele>2936.970703</ele>
<time>2011-04-24T04:19:58Z</time>
<desc>lat.=22.307329, lon.=103.775146, Alt.=2936.970703m. Speed=0.612000m/h.</desc>
<speed>0.170000</speed>
</trkpt>
<trkpt lat="22.307320" lon="103.775154">
<ele>2937.470703</ele>
<time>2011-04-24T04:20:03Z</time>
<desc>lat.=22.307320, lon.=103.775154, Alt.=2937.470703m. Speed=0.324000m/h.</desc>
<speed>0.090000</speed>
</trkpt>
<trkpt lat="22.307310" lon="103.775154">
<ele>2937.595703</ele>
<time>2011-04-24T04:20:08Z</time>
<desc>lat.=22.307310, lon.=103.775154, Alt.=2937.595703m. Speed=1.152000m/h.</desc>
<speed>0.320000</speed>
</trkpt>
<trkpt lat="22.307287" lon="103.775169">
<ele>2939.283203</ele>
<time>2011-04-24T04:20:13Z</time>
<desc>lat.=22.307287, lon.=103.775169, Alt.=2939.283203m. Speed=1.440000m/h.</desc>
<speed>0.400000</speed>
</trkpt>
<trkpt lat="22.307287" lon="103.775185">
<ele>2941.345703</ele>
<time>2011-04-24T04:20:18Z</time>
<desc>lat.=22.307287, lon.=103.775185, Alt.=2941.345703m. Speed=0.216000m/h.</desc>
<speed>0.060000</speed>
</trkpt>
<trkpt lat="22.307280" lon="103.775185">
<ele>2941.783203</ele>
<time>2011-04-24T04:20:23Z</time>
<desc>lat.=22.307280, lon.=103.775185, Alt.=2941.783203m. Speed=0.036000m/h.</desc>
<speed>0.010000</speed>
</trkpt>
<trkpt lat="22.307270" lon="103.775192">
<ele>2942.658203</ele>
<time>2011-04-24T04:20:28Z</time>
<desc>lat.=22.307270, lon.=103.775192, Alt.=2942.658203m. Speed=0.972000m/h.</desc>
<speed>0.270000</speed>
</trkpt>
<trkpt lat="22.307262" lon="103.775223">
<ele>2944.345703</ele>
<time>2011-04-24T04:20:33Z</time>
<desc>lat.=22.307262, lon.=103.775223, Alt.=2944.345703m. Speed=0.792000m/h.</desc>
<speed>0.220000</speed>
</trkpt>
<trkpt lat="22.307251" lon="103.775246">
<ele>2945.845703</ele>
<time>2011-04-24T04:20:38Z</time>
<desc>lat.=22.307251, lon.=103.775246, Alt.=2945.845703m. Speed=1.404000m/h.</desc>
<speed>0.390000</speed>
</trkpt>
<trkpt lat="22.307255" lon="103.775269">
<ele>2947.283203</ele>
<time>2011-04-24T04:20:43Z</time>
<desc>lat.=22.307255, lon.=103.775269, Alt.=2947.283203m. Speed=0.216000m/h.</desc>
<speed>0.060000</speed>
</trkpt>
<trkpt lat="22.307245" lon="103.775276">
<ele>2949.408203</ele>
<time>2011-04-24T04:20:48Z</time>
<desc>lat.=22.307245, lon.=103.775276, Alt.=2949.408203m. Speed=1.620000m/h.</desc>
<speed>0.450000</speed>
</trkpt>
<trkpt lat="22.307230" lon="103.775284">
<ele>2951.658203</ele>
<time>2011-04-24T04:20:53Z</time>
<desc>lat.=22.307230, lon.=103.775284, Alt.=2951.658203m. Speed=2.412000m/h.</desc>
<speed>0.670000</speed>
</trkpt>
<trkpt lat="22.307217" lon="103.775337">
<ele>2952.533203</ele>
<time>2011-04-24T04:20:58Z</time>
<desc>lat.=22.307217, lon.=103.775337, Alt.=2952.533203m. Speed=4.284000m/h.</desc>
<speed>1.190000</speed>
</trkpt>
<trkpt lat="22.307186" lon="103.775383">
<ele>2952.283203</ele>
<time>2011-04-24T04:21:03Z</time>
<desc>lat.=22.307186, lon.=103.775383, Alt.=2952.283203m. Speed=4.464000m/h.</desc>
<speed>1.240000</speed>
</trkpt>
<trkpt lat="22.307180" lon="103.775429">
<ele>2953.470703</ele>
<time>2011-04-24T04:21:08Z</time>
<desc>lat.=22.307180, lon.=103.775429, Alt.=2953.470703m. Speed=3.924000m/h.</desc>
<speed>1.090000</speed>
</trkpt>
<trkpt lat="22.307173" lon="103.775467">
<ele>2954.845703</ele>
<time>2011-04-24T04:21:13Z</time>
<desc>lat.=22.307173, lon.=103.775467, Alt.=2954.845703m. Speed=1.836000m/h.</desc>
<speed>0.510000</speed>
</trkpt>
<trkpt lat="22.307177" lon="103.775497">
<ele>2955.908203</ele>
<time>2011-04-24T04:21:18Z</time>
<desc>lat.=22.307177, lon.=103.775497, Alt.=2955.908203m. Speed=2.916000m/h.</desc>
<speed>0.810000</speed>
</trkpt>
<trkpt lat="22.307192" lon="103.775528">
<ele>2958.283203</ele>
<time>2011-04-24T04:21:23Z</time>
<desc>lat.=22.307192, lon.=103.775528, Alt.=2958.283203m. Speed=3.132000m/h.</desc>
<speed>0.870000</speed>
</trkpt>
<trkpt lat="22.307194" lon="103.775574">
<ele>2960.033203</ele>
<time>2011-04-24T04:21:28Z</time>
<desc>lat.=22.307194, lon.=103.775574, Alt.=2960.033203m. Speed=3.348000m/h.</desc>
<speed>0.930000</speed>
</trkpt>
<trkpt lat="22.307196" lon="103.775597">
<ele>2961.033203</ele>
<time>2011-04-24T04:21:33Z</time>
<desc>lat.=22.307196, lon.=103.775597, Alt.=2961.033203m. Speed=0.216000m/h.</desc>
<speed>0.060000</speed>
</trkpt>
<trkpt lat="22.307199" lon="103.775597">
<ele>2961.408203</ele>
<time>2011-04-24T04:21:38Z</time>
<desc>lat.=22.307199, lon.=103.775597, Alt.=2961.408203m. Speed=0.252000m/h.</desc>
<speed>0.070000</speed>
</trkpt>
<trkpt lat="22.307196" lon="103.775612">
<ele>2961.658203</ele>
<time>2011-04-24T04:21:43Z</time>
<desc>lat.=22.307196, lon.=103.775612, Alt.=2961.658203m. Speed=1.800000m/h.</desc>
<speed>0.500000</speed>
</trkpt>
<trkpt lat="22.307152" lon="103.775642">
<ele>2961.658203</ele>
<time>2011-04-24T04:21:48Z</time>
<desc>lat.=22.307152, lon.=103.775642, Alt.=2961.658203m. Speed=4.428000m/h.</desc>
<speed>1.230000</speed>
</trkpt>
<trkpt lat="22.307127" lon="103.775681">
<ele>2961.470703</ele>
<time>2011-04-24T04:21:53Z</time>
<desc>lat.=22.307127, lon.=103.775681, Alt.=2961.470703m. Speed=3.024000m/h.</desc>
<speed>0.840000</speed>
</trkpt>
<trkpt lat="22.307114" lon="103.775696">
<ele>2961.595703</ele>
<time>2011-04-24T04:21:58Z</time>
<desc>lat.=22.307114, lon.=103.775696, Alt.=2961.595703m. Speed=0.648000m/h.</desc>
<speed>0.180000</speed>
</trkpt>
<trkpt lat="22.307095" lon="103.775703">
<ele>2962.783203</ele>
<time>2011-04-24T04:22:03Z</time>
<desc>lat.=22.307095, lon.=103.775703, Alt.=2962.783203m. Speed=2.088000m/h.</desc>
<speed>0.580000</speed>
</trkpt>
<trkpt lat="22.307089" lon="103.775696">
<ele>2963.533203</ele>
<time>2011-04-24T04:22:08Z</time>
<desc>lat.=22.307089, lon.=103.775696, Alt.=2963.533203m. Speed=1.476000m/h.</desc>
<speed>0.410000</speed>
</trkpt>
<trkpt lat="22.307083" lon="103.775688">
<ele>2964.470703</ele>
<time>2011-04-24T04:22:13Z</time>
<desc>lat.=22.307083, lon.=103.775688, Alt.=2964.470703m. Speed=0.576000m/h.</desc>
<speed>0.160000</speed>
</trkpt>
<trkpt lat="22.307074" lon="103.775688">
<ele>2964.783203</ele>
<time>2011-04-24T04:22:18Z</time>
<desc>lat.=22.307074, lon.=103.775688, Alt.=2964.783203m. Speed=0.324000m/h.</desc>
<speed>0.090000</speed>
</trkpt>
<trkpt lat="22.307060" lon="103.775665">
<ele>2965.033203</ele>
<time>2011-04-24T04:22:23Z</time>
<desc>lat.=22.307060, lon.=103.775665, Alt.=2965.033203m. Speed=2.304000m/h.</desc>
<speed>0.640000</speed>
</trkpt>
<trkpt lat="22.307049" lon="103.775650">
<ele>2965.783203</ele>
<time>2011-04-24T04:22:28Z</time>
<desc>lat.=22.307049, lon.=103.775650, Alt.=2965.783203m. Speed=0.288000m/h.</desc>
<speed>0.080000</speed>
</trkpt>
<trkpt lat="22.307039" lon="103.775635">
<ele>2966.720703</ele>
<time>2011-04-24T04:22:33Z</time>
<desc>lat.=22.307039, lon.=103.775635, Alt.=2966.720703m. Speed=2.196000m/h.</desc>
<speed>0.610000</speed>
</trkpt>
<trkpt lat="22.307035" lon="103.775620">
<ele>2968.533203</ele>
<time>2011-04-24T04:22:38Z</time>
<desc>lat.=22.307035, lon.=103.775620, Alt.=2968.533203m. Speed=1.368000m/h.</desc>
<speed>0.380000</speed>
</trkpt>
<trkpt lat="22.307041" lon="103.775612">
<ele>2968.408203</ele>
<time>2011-04-24T04:22:43Z</time>
<desc>lat.=22.307041, lon.=103.775612, Alt.=2968.408203m. Speed=0.576000m/h.</desc>
<speed>0.160000</speed>
</trkpt>
<trkpt lat="22.307041" lon="103.775597">
<ele>2968.720703</ele>
<time>2011-04-24T04:22:48Z</time>
<desc>lat.=22.307041, lon.=103.775597, Alt.=2968.720703m. Speed=1.980000m/h.</desc>
<speed>0.550000</speed>
</trkpt>
<trkpt lat="22.307039" lon="103.775589">
<ele>2968.720703</ele>
<time>2011-04-24T04:22:53Z</time>
<desc>lat.=22.307039, lon.=103.775589, Alt.=2968.720703m. Speed=0.108000m/h.</desc>
<speed>0.030000</speed>
</trkpt>
<trkpt lat="22.307037" lon="103.775581">
<ele>2968.908203</ele>
<time>2011-04-24T04:22:58Z</time>
<desc>lat.=22.307037, lon.=103.775581, Alt.=2968.908203m. Speed=1.620000m/h.</desc>
<speed>0.450000</speed>
</trkpt>
<trkpt lat="22.307028" lon="103.775558">
<ele>2971.220703</ele>
<time>2011-04-24T04:23:03Z</time>
<desc>lat.=22.307028, lon.=103.775558, Alt.=2971.220703m. Speed=2.232000m/h.</desc>
<speed>0.620000</speed>
</trkpt>
<trkpt lat="22.307024" lon="103.775536">
<ele>2973.033203</ele>
<time>2011-04-24T04:23:08Z</time>
<desc>lat.=22.307024, lon.=103.775536, Alt.=2973.033203m. Speed=2.484000m/h.</desc>
<speed>0.690000</speed>
</trkpt>
<trkpt lat="22.307011" lon="103.775520">
<ele>2974.533203</ele>
<time>2011-04-24T04:23:13Z</time>
<desc>lat.=22.307011, lon.=103.775520, Alt.=2974.533203m. Speed=1.188000m/h.</desc>
<speed>0.330000</speed>
</trkpt>
<trkpt lat="22.306999" lon="103.775497">
<ele>2975.658203</ele>
<time>2011-04-24T04:23:18Z</time>
<desc>lat.=22.306999, lon.=103.775497, Alt.=2975.658203m. Speed=1.260000m/h.</desc>
<speed>0.350000</speed>
</trkpt>
<trkpt lat="22.306988" lon="103.775482">
<ele>2975.970703</ele>
<time>2011-04-24T04:23:23Z</time>
<desc>lat.=22.306988, lon.=103.775482, Alt.=2975.970703m. Speed=1.440000m/h.</desc>
<speed>0.400000</speed>
</trkpt>
<trkpt lat="22.306978" lon="103.775475">
<ele>2977.283203</ele>
<time>2011-04-24T04:23:28Z</time>
<desc>lat.=22.306978, lon.=103.775475, Alt.=2977.283203m. Speed=0.864000m/h.</desc>
<speed>0.240000</speed>
</trkpt>
<trkpt lat="22.306961" lon="103.775459">
<ele>2977.845703</ele>
<time>2011-04-24T04:23:33Z</time>
<desc>lat.=22.306961, lon.=103.775459, Alt.=2977.845703m. Speed=0.072000m/h.</desc>
<speed>0.020000</speed>
</trkpt>
<trkpt lat="22.306955" lon="103.775452">
<ele>2978.783203</ele>
<time>2011-04-24T04:23:38Z</time>
<desc>lat.=22.306955, lon.=103.775452, Alt.=2978.783203m. Speed=2.556000m/h.</desc>
<speed>0.710000</speed>
</trkpt>
<trkpt lat="22.306948" lon="103.775414">
<ele>2980.658203</ele>
<time>2011-04-24T04:23:43Z</time>
<desc>lat.=22.306948, lon.=103.775414, Alt.=2980.658203m. Speed=2.736000m/h.</desc>
<speed>0.760000</speed>
</trkpt>
<trkpt lat="22.306932" lon="103.775391">
<ele>2982.408203</ele>
<time>2011-04-24T04:23:48Z</time>
<desc>lat.=22.306932, lon.=103.775391, Alt.=2982.408203m. Speed=0.324000m/h.</desc>
<speed>0.090000</speed>
</trkpt>
<trkpt lat="22.306927" lon="103.775383">
<ele>2983.220703</ele>
<time>2011-04-24T04:23:53Z</time>
<desc>lat.=22.306927, lon.=103.775383, Alt.=2983.220703m. Speed=1.692000m/h.</desc>
<speed>0.470000</speed>
</trkpt>
<trkpt lat="22.306919" lon="103.775368">
<ele>2983.845703</ele>
<time>2011-04-24T04:23:58Z</time>
<desc>lat.=22.306919, lon.=103.775368, Alt.=2983.845703m. Speed=1.512000m/h.</desc>
<speed>0.420000</speed>
</trkpt>
<trkpt lat="22.306921" lon="103.775352">
<ele>2983.470703</ele>
<time>2011-04-24T04:24:03Z</time>
<desc>lat.=22.306921, lon.=103.775352, Alt.=2983.470703m. Speed=0.072000m/h.</desc>
<speed>0.020000</speed>
</trkpt>
<trkpt lat="22.306913" lon="103.775352">
<ele>2983.783203</ele>
<time>2011-04-24T04:24:08Z</time>
<desc>lat.=22.306913, lon.=103.775352, Alt.=2983.783203m. Speed=1.332000m/h.</desc>
<speed>0.370000</speed>
</trkpt>
<trkpt lat="22.306902" lon="103.775337">
<ele>2985.283203</ele>
<time>2011-04-24T04:24:13Z</time>
<desc>lat.=22.306902, lon.=103.775337, Alt.=2985.283203m. Speed=1.764000m/h.</desc>
<speed>0.490000</speed>
</trkpt>
<trkpt lat="22.306896" lon="103.775314">
<ele>2987.095703</ele>
<time>2011-04-24T04:24:18Z</time>
<desc>lat.=22.306896, lon.=103.775314, Alt.=2987.095703m. Speed=2.304000m/h.</desc>
<speed>0.640000</speed>
</trkpt>
<trkpt lat="22.306889" lon="103.775299">
<ele>2987.970703</ele>
<time>2011-04-24T04:24:23Z</time>
<desc>lat.=22.306889, lon.=103.775299, Alt.=2987.970703m. Speed=2.484000m/h.</desc>
<speed>0.690000</speed>
</trkpt>
<trkpt lat="22.306883" lon="103.775269">
<ele>2989.595703</ele>
<time>2011-04-24T04:24:28Z</time>
<desc>lat.=22.306883, lon.=103.775269, Alt.=2989.595703m. Speed=2.268000m/h.</desc>
<speed>0.630000</speed>
</trkpt>
<trkpt lat="22.306877" lon="103.775253">
<ele>2990.908203</ele>
<time>2011-04-24T04:24:33Z</time>
<desc>lat.=22.306877, lon.=103.775253, Alt.=2990.908203m. Speed=2.484000m/h.</desc>
<speed>0.690000</speed>
</trkpt>
<trkpt lat="22.306873" lon="103.775223">
<ele>2992.095703</ele>
<time>2011-04-24T04:24:38Z</time>
<desc>lat.=22.306873, lon.=103.775223, Alt.=2992.095703m. Speed=3.348000m/h.</desc>
<speed>0.930000</speed>
</trkpt>
<trkpt lat="22.306866" lon="103.775185">
<ele>2993.408203</ele>
<time>2011-04-24T04:24:43Z</time>
<desc>lat.=22.306866, lon.=103.775185, Alt.=2993.408203m. Speed=3.096000m/h.</desc>
<speed>0.860000</speed>
</trkpt>
<trkpt lat="22.306866" lon="103.775162">
<ele>2994.345703</ele>
<time>2011-04-24T04:24:48Z</time>
<desc>lat.=22.306866, lon.=103.775162, Alt.=2994.345703m. Speed=2.736000m/h.</desc>
<speed>0.760000</speed>
</trkpt>
<trkpt lat="22.306877" lon="103.775124">
<ele>2994.720703</ele>
<time>2011-04-24T04:24:53Z</time>
<desc>lat.=22.306877, lon.=103.775124, Alt.=2994.720703m. Speed=1.944000m/h.</desc>
<speed>0.540000</speed>
</trkpt>
<trkpt lat="22.306870" lon="103.775093">
<ele>2995.720703</ele>
<time>2011-04-24T04:24:58Z</time>
<desc>lat.=22.306870, lon.=103.775093, Alt.=2995.720703m. Speed=0.900000m/h.</desc>
<speed>0.250000</speed>
</trkpt>
<trkpt lat="22.306868" lon="103.775085">
<ele>2996.033203</ele>
<time>2011-04-24T04:25:03Z</time>
<desc>lat.=22.306868, lon.=103.775085, Alt.=2996.033203m. Speed=0.468000m/h.</desc>
<speed>0.130000</speed>
</trkpt>
<trkpt lat="22.306868" lon="103.775070">
<ele>2996.283203</ele>
<time>2011-04-24T04:25:08Z</time>
<desc>lat.=22.306868, lon.=103.775070, Alt.=2996.283203m. Speed=1.692000m/h.</desc>
<speed>0.470000</speed>
</trkpt>
<trkpt lat="22.306856" lon="103.775063">
<ele>2997.158203</ele>
<time>2011-04-24T04:25:13Z</time>
<desc>lat.=22.306856, lon.=103.775063, Alt.=2997.158203m. Speed=0.108000m/h.</desc>
<speed>0.030000</speed>
</trkpt>
<trkpt lat="22.306843" lon="103.775047">
<ele>2997.408203</ele>
<time>2011-04-24T04:25:18Z</time>
<desc>lat.=22.306843, lon.=103.775047, Alt.=2997.408203m. Speed=2.700000m/h.</desc>
<speed>0.750000</speed>
</trkpt>
<trkpt lat="22.306826" lon="103.775032">
<ele>2998.908203</ele>
<time>2011-04-24T04:25:23Z</time>
<desc>lat.=22.306826, lon.=103.775032, Alt.=2998.908203m. Speed=1.872000m/h.</desc>
<speed>0.520000</speed>
</trkpt>
<trkpt lat="22.306822" lon="103.775017">
<ele>2999.533203</ele>
<time>2011-04-24T04:25:28Z</time>
<desc>lat.=22.306822, lon.=103.775017, Alt.=2999.533203m. Speed=0.324000m/h.</desc>
<speed>0.090000</speed>
</trkpt>
<trkpt lat="22.306822" lon="103.775017">
<ele>2999.095703</ele>
<time>2011-04-24T04:25:33Z</time>
<desc>lat.=22.306822, lon.=103.775017, Alt.=2999.095703m. Speed=0.792000m/h.</desc>
<speed>0.220000</speed>
</trkpt>
<trkpt lat="22.306831" lon="103.775002">
<ele>2998.658203</ele>
<time>2011-04-24T04:25:38Z</time>
<desc>lat.=22.306831, lon.=103.775002, Alt.=2998.658203m. Speed=1.584000m/h.</desc>
<speed>0.440000</speed>
</trkpt>
<trkpt lat="22.306835" lon="103.774994">
<ele>2998.283203</ele>
<time>2011-04-24T04:25:43Z</time>
<desc>lat.=22.306835, lon.=103.774994, Alt.=2998.283203m. Speed=0.036000m/h.</desc>
<speed>0.010000</speed>
</trkpt>
<trkpt lat="22.306837" lon="103.774994">
<ele>2998.220703</ele>
<time>2011-04-24T04:25:48Z</time>
<desc>lat.=22.306837, lon.=103.774994, Alt.=2998.220703m. Speed=0.288000m/h.</desc>
<speed>0.080000</speed>
</trkpt>
<trkpt lat="22.306835" lon="103.774994">
<ele>2998.220703</ele>
<time>2011-04-24T04:25:53Z</time>
<desc>lat.=22.306835, lon.=103.774994, Alt.=2998.220703m. Speed=1.548000m/h.</desc>
<speed>0.430000</speed>
</trkpt>
<trkpt lat="22.306828" lon="103.774994">
<ele>2998.283203</ele>
<time>2011-04-24T04:25:58Z</time>
<desc>lat.=22.306828, lon.=103.774994, Alt.=2998.283203m. Speed=0.360000m/h.</desc>
<speed>0.100000</speed>
</trkpt>
<trkpt lat="22.306828" lon="103.774994">
<ele>2998.283203</ele>
<time>2011-04-24T04:26:03Z</time>
<desc>lat.=22.306828, lon.=103.774994, Alt.=2998.283203m. Speed=1.044000m/h.</desc>
<speed>0.290000</speed>
</trkpt>
<trkpt lat="22.306824" lon="103.774994">
<ele>2998.345703</ele>
<time>2011-04-24T04:26:08Z</time>
<desc>lat.=22.306824, lon.=103.774994, Alt.=2998.345703m. Speed=0.252000m/h.</desc>
<speed>0.070000</speed>
</trkpt>
<trkpt lat="22.306822" lon="103.774994">
<ele>2998.345703</ele>
<time>2011-04-24T04:26:13Z</time>
<desc>lat.=22.306822, lon.=103.774994, Alt.=2998.345703m. Speed=0.072000m/h.</desc>
<speed>0.020000</speed>
</trkpt>
<trkpt lat="22.306826" lon="103.774994">
<ele>2998.345703</ele>
<time>2011-04-24T04:26:18Z</time>
<desc>lat.=22.306826, lon.=103.774994, Alt.=2998.345703m. Speed=0.900000m/h.</desc>
<speed>0.250000</speed>
</trkpt>
<trkpt lat="22.306831" lon="103.774994">
<ele>2998.033203</ele>
<time>2011-04-24T04:26:23Z</time>
<desc>lat.=22.306831, lon.=103.774994, Alt.=2998.033203m. Speed=0.288000m/h.</desc>
<speed>0.080000</speed>
</trkpt>
<trkpt lat="22.306831" lon="103.774994">
<ele>2998.033203</ele>
<time>2011-04-24T04:26:28Z</time>
<desc>lat.=22.306831, lon.=103.774994, Alt.=2998.033203m. Speed=0.180000m/h.</desc>
<speed>0.050000</speed>
</trkpt>
<trkpt lat="22.306833" lon="103.775002">
<ele>2998.095703</ele>
<time>2011-04-24T04:26:33Z</time>
<desc>lat.=22.306833, lon.=103.775002, Alt.=2998.095703m. Speed=0.036000m/h.</desc>
<speed>0.010000</speed>
</trkpt>
<trkpt lat="22.306833" lon="103.774994">
<ele>2998.095703</ele>
<time>2011-04-24T04:26:38Z</time>
<desc>lat.=22.306833, lon.=103.774994, Alt.=2998.095703m. Speed=0.000000m/h.</desc>
<speed>0.000000</speed>
</trkpt>
<trkpt lat="22.306833" lon="103.774994">
<ele>2998.095703</ele>
<time>2011-04-24T04:26:43Z</time>
<desc>lat.=22.306833, lon.=103.774994, Alt.=2998.095703m. Speed=0.036000m/h.</desc>
<speed>0.010000</speed>
</trkpt>
<trkpt lat="22.306833" lon="103.774994">
<ele>2998.095703</ele>
<time>2011-04-24T04:26:48Z</time>
<desc>lat.=22.306833, lon.=103.774994, Alt.=2998.095703m. Speed=0.000000m/h.</desc>
<speed>0.000000</speed>
</trkpt>
<trkpt lat="22.306833" lon="103.774994">
<ele>2998.095703</ele>
<time>2011-04-24T04:26:53Z</time>
<desc>lat.=22.306833, lon.=103.774994, Alt.=2998.095703m. Speed=0.000000m/h.</desc>
<speed>0.000000</speed>
</trkpt>
<trkpt lat="22.306833" lon="103.774994">
<ele>2998.095703</ele>
<time>2011-04-24T04:26:58Z</time>
<desc>lat.=22.306833, lon.=103.774994, Alt.=2998.095703m. Speed=0.036000m/h.</desc>
<speed>0.010000</speed>
</trkpt>
<trkpt lat="22.306833" lon="103.775002">
<ele>2998.095703</ele>
<time>2011-04-24T04:27:03Z</time>
<desc>lat.=22.306833, lon.=103.775002, Alt.=2998.095703m. Speed=0.000000m/h.</desc>
<speed>0.000000</speed>
</trkpt>
<trkpt lat="22.306833" lon="103.775002">
<ele>2998.095703</ele>
<time>2011-04-24T04:27:08Z</time>
<desc>lat.=22.306833, lon.=103.775002, Alt.=2998.095703m. Speed=0.000000m/h.</desc>
<speed>0.000000</speed>
</trkpt>
<trkpt lat="22.306833" lon="103.775002">
<ele>2998.095703</ele>
<time>2011-04-24T04:27:13Z</time>
<desc>lat.=22.306833, lon.=103.775002, Alt.=2998.095703m. Speed=0.000000m/h.</desc>
<speed>0.000000</speed>
</trkpt>
<trkpt lat="22.306833" lon="103.775002">
<ele>2998.095703</ele>
<time>2011-04-24T04:27:18Z</time>
<desc>lat.=22.306833, lon.=103.775002, Alt.=2998.095703m. Speed=0.000000m/h.</desc>
<speed>0.000000</speed>
</trkpt>
<trkpt lat="22.306833" lon="103.775002">
<ele>2998.095703</ele>
<time>2011-04-24T04:27:23Z</time>
<desc>lat.=22.306833, lon.=103.775002, Alt.=2998.095703m. Speed=0.000000m/h.</desc>
<speed>0.000000</speed>
</trkpt>
<trkpt lat="22.306833" lon="103.775002">
<ele>2998.095703</ele>
<time>2011-04-24T04:27:28Z</time>
<desc>lat.=22.306833, lon.=103.775002, Alt.=2998.095703m. Speed=0.000000m/h.</desc>
<speed>0.000000</speed>
</trkpt>
<trkpt lat="22.306833" lon="103.775002">
<ele>2998.095703</ele>
<time>2011-04-24T04:27:33Z</time>
<desc>lat.=22.306833, lon.=103.775002, Alt.=2998.095703m. Speed=0.000000m/h.</desc>
<speed>0.000000</speed>
</trkpt>
<trkpt lat="22.306833" lon="103.775002">
<ele>2998.033203</ele>
<time>2011-04-24T04:27:38Z</time>
<desc>lat.=22.306833, lon.=103.775002, Alt.=2998.033203m. Speed=0.036000m/h.</desc>
<speed>0.010000</speed>
</trkpt>
<trkpt lat="22.306833" lon="103.775002">
<ele>2998.033203</ele>
<time>2011-04-24T04:27:43Z</time>
<desc>lat.=22.306833, lon.=103.775002, Alt.=2998.033203m. Speed=0.000000m/h.</desc>
<speed>0.000000</speed>
</trkpt>
<trkpt lat="22.306833" lon="103.775002">
<ele>2998.095703</ele>
<time>2011-04-24T04:27:48Z</time>
<desc>lat.=22.306833, lon.=103.775002, Alt.=2998.095703m. Speed=0.036000m/h.</desc>
<speed>0.010000</speed>
</trkpt>
<trkpt lat="22.306833" lon="103.775002">
<ele>2998.095703</ele>
<time>2011-04-24T04:27:53Z</time>
<desc>lat.=22.306833, lon.=103.775002, Alt.=2998.095703m. Speed=0.000000m/h.</desc>
<speed>0.000000</speed>
</trkpt>
<trkpt lat="22.306833" lon="103.775002">
<ele>2998.033203</ele>
<time>2011-04-24T04:27:58Z</time>
<desc>lat.=22.306833, lon.=103.775002, Alt.=2998.033203m. Speed=0.000000m/h.</desc>
<speed>0.000000</speed>
</trkpt>
<trkpt lat="22.306833" lon="103.775002">
<ele>2998.033203</ele>
<time>2011-04-24T04:28:03Z</time>
<desc>lat.=22.306833, lon.=103.775002, Alt.=2998.033203m. Speed=0.036000m/h.</desc>
<speed>0.010000</speed>
</trkpt>
<trkpt lat="22.306833" lon="103.775002">
<ele>2998.033203</ele>
<time>2011-04-24T04:28:08Z</time>
<desc>lat.=22.306833, lon.=103.775002, Alt.=2998.033203m. Speed=0.000000m/h.</desc>
<speed>0.000000</speed>
</trkpt>
<trkpt lat="22.306833" lon="103.775002">
<ele>2998.095703</ele>
<time>2011-04-24T04:28:13Z</time>
<desc>lat.=22.306833, lon.=103.775002, Alt.=2998.095703m. Speed=0.000000m/h.</desc>
<speed>0.000000</speed>
</trkpt>
<trkpt lat="22.306833" lon="103.775002">
<ele>2998.033203</ele>
<time>2011-04-24T04:28:18Z</time>
<desc>lat.=22.306833, lon.=103.775002, Alt.=2998.033203m. Speed=0.000000m/h.</desc>
<speed>0.000000</speed>
</trkpt>
<trkpt lat="22.306833" lon="103.775002">
<ele>2998.033203</ele>
<time>2011-04-24T04:28:23Z</time>
<desc>lat.=22.306833, lon.=103.775002, Alt.=2998.033203m. Speed=0.000000m/h.</desc>
<speed>0.000000</speed>
</trkpt>
<trkpt lat="22.306833" lon="103.775002">
<ele>2998.033203</ele>
<time>2011-04-24T04:28:28Z</time>
<desc>lat.=22.306833, lon.=103.775002, Alt.=2998.033203m. Speed=0.000000m/h.</desc>
<speed>0.000000</speed>
</trkpt>
<trkpt lat="22.306835" lon="103.775002">
<ele>2998.033203</ele>
<time>2011-04-24T04:28:33Z</time>
<desc>lat.=22.306835, lon.=103.775002, Alt.=2998.033203m. Speed=0.000000m/h.</desc>
<speed>0.000000</speed>
</trkpt>
<trkpt lat="22.306835" lon="103.775002">
<ele>2998.033203</ele>
<time>2011-04-24T04:28:38Z</time>
<desc>lat.=22.306835, lon.=103.775002, Alt.=2998.033203m. Speed=0.000000m/h.</desc>
<speed>0.000000</speed>
</trkpt>
<trkpt lat="22.306835" lon="103.775002">
<ele>2998.033203</ele>
<time>2011-04-24T04:28:43Z</time>
<desc>lat.=22.306835, lon.=103.775002, Alt.=2998.033203m. Speed=0.000000m/h.</desc>
<speed>0.000000</speed>
</trkpt>
<trkpt lat="22.306835" lon="103.775002">
<ele>2998.033203</ele>
<time>2011-04-24T04:28:48Z</time>
<desc>lat.=22.306835, lon.=103.775002, Alt.=2998.033203m. Speed=0.000000m/h.</desc>
<speed>0.000000</speed>
</trkpt>
<trkpt lat="22.306835" lon="103.775002">
<ele>2998.033203</ele>
<time>2011-04-24T04:28:53Z</time>
<desc>lat.=22.306835, lon.=103.775002, Alt.=2998.033203m. Speed=0.036000m/h.</desc>
<speed>0.010000</speed>
</trkpt>
<trkpt lat="22.306835" lon="103.775002">
<ele>2998.095703</ele>
<time>2011-04-24T04:28:58Z</time>
<desc>lat.=22.306835, lon.=103.775002, Alt.=2998.095703m. Speed=0.000000m/h.</desc>
<speed>0.000000</speed>
</trkpt>
<trkpt lat="22.306835" lon="103.775002">
<ele>2998.095703</ele>
<time>2011-04-24T04:29:03Z</time>
<desc>lat.=22.306835, lon.=103.775002, Alt.=2998.095703m. Speed=0.000000m/h.</desc>
<speed>0.000000</speed>
</trkpt>
<trkpt lat="22.306835" lon="103.775002">
<ele>2998.095703</ele>
<time>2011-04-24T04:29:08Z</time>
<desc>lat.=22.306835, lon.=103.775002, Alt.=2998.095703m. Speed=0.072000m/h.</desc>
<speed>0.020000</speed>
</trkpt>
<trkpt lat="22.306837" lon="103.775002">
<ele>2998.095703</ele>
<time>2011-04-24T04:29:13Z</time>
<desc>lat.=22.306837, lon.=103.775002, Alt.=2998.095703m. Speed=0.000000m/h.</desc>
<speed>0.000000</speed>
</trkpt>
<trkpt lat="22.306837" lon="103.775002">
<ele>2998.095703</ele>
<time>2011-04-24T04:29:18Z</time>
<desc>lat.=22.306837, lon.=103.775002, Alt.=2998.095703m. Speed=0.036000m/h.</desc>
<speed>0.010000</speed>
</trkpt>
<trkpt lat="22.306837" lon="103.775002">
<ele>2998.095703</ele>
<time>2011-04-24T04:29:23Z</time>
<desc>lat.=22.306837, lon.=103.775002, Alt.=2998.095703m. Speed=0.000000m/h.</desc>
<speed>0.000000</speed>
</trkpt>
<trkpt lat="22.306837" lon="103.775002">
<ele>2998.095703</ele>
<time>2011-04-24T04:29:28Z</time>
<desc>lat.=22.306837, lon.=103.775002, Alt.=2998.095703m. Speed=0.000000m/h.</desc>
<speed>0.000000</speed>
</trkpt>
<trkpt lat="22.306837" lon="103.775002">
<ele>2998.095703</ele>
<time>2011-04-24T04:29:33Z</time>
<desc>lat.=22.306837, lon.=103.775002, Alt.=2998.095703m. Speed=0.000000m/h.</desc>
<speed>0.000000</speed>
</trkpt>
<trkpt lat="22.306837" lon="103.775002">
<ele>2998.095703</ele>
<time>2011-04-24T04:29:38Z</time>
<desc>lat.=22.306837, lon.=103.775002, Alt.=2998.095703m. Speed=0.036000m/h.</desc>
<speed>0.010000</speed>
</trkpt>
<trkpt lat="22.306837" lon="103.775002">
<ele>2998.095703</ele>
<time>2011-04-24T04:29:43Z</time>
<desc>lat.=22.306837, lon.=103.775002, Alt.=2998.095703m. Speed=0.000000m/h.</desc>
<speed>0.000000</speed>
</trkpt>
<trkpt lat="22.306837" lon="103.775002">
<ele>2998.095703</ele>
<time>2011-04-24T04:29:48Z</time>
<desc>lat.=22.306837, lon.=103.775002, Alt.=2998.095703m. Speed=0.000000m/h.</desc>
<speed>0.000000</speed>
</trkpt>
<trkpt lat="22.306837" lon="103.775002">
<ele>2998.095703</ele>
<time>2011-04-24T04:29:53Z</time>
<desc>lat.=22.306837, lon.=103.775002, Alt.=2998.095703m. Speed=0.000000m/h.</desc>
<speed>0.000000</speed>
</trkpt>
<trkpt lat="22.306837" lon="103.775002">
<ele>2998.095703</ele>
<time>2011-04-24T04:29:58Z</time>
<desc>lat.=22.306837, lon.=103.775002, Alt.=2998.095703m. Speed=0.072000m/h.</desc>
<speed>0.020000</speed>
</trkpt>
<trkpt lat="22.306837" lon="103.775002">
<ele>2998.095703</ele>
<time>2011-04-24T04:30:03Z</time>
<desc>lat.=22.306837, lon.=103.775002, Alt.=2998.095703m. Speed=0.036000m/h.</desc>
<speed>0.010000</speed>
</trkpt>
<trkpt lat="22.306837" lon="103.775002">
<ele>2998.095703</ele>
<time>2011-04-24T04:30:08Z</time>
<desc>lat.=22.306837, lon.=103.775002, Alt.=2998.095703m. Speed=0.000000m/h.</desc>
<speed>0.000000</speed>
</trkpt>
<trkpt lat="22.306837" lon="103.775002">
<ele>2998.095703</ele>
<time>2011-04-24T04:30:13Z</time>
<desc>lat.=22.306837, lon.=103.775002, Alt.=2998.095703m. Speed=0.216000m/h.</desc>
<speed>0.060000</speed>
</trkpt>
<trkpt lat="22.306835" lon="103.775002">
<ele>2998.095703</ele>
<time>2011-04-24T04:30:18Z</time>
<desc>lat.=22.306835, lon.=103.775002, Alt.=2998.095703m. Speed=0.144000m/h.</desc>
<speed>0.040000</speed>
</trkpt>
<trkpt lat="22.306835" lon="103.774994">
<ele>2998.095703</ele>
<time>2011-04-24T04:30:23Z</time>
<desc>lat.=22.306835, lon.=103.774994, Alt.=2998.095703m. Speed=0.288000m/h.</desc>
<speed>0.080000</speed>
</trkpt>
<trkpt lat="22.306833" lon="103.774994">
<ele>2998.158203</ele>
<time>2011-04-24T04:30:28Z</time>
<desc>lat.=22.306833, lon.=103.774994, Alt.=2998.158203m. Speed=0.108000m/h.</desc>
<speed>0.030000</speed>
</trkpt>
<trkpt lat="22.306831" lon="103.774994">
<ele>2998.283203</ele>
<time>2011-04-24T04:30:33Z</time>
<desc>lat.=22.306831, lon.=103.774994, Alt.=2998.283203m. Speed=0.000000m/h.</desc>
<speed>0.000000</speed>
</trkpt>
<trkpt lat="22.306831" lon="103.774994">
<ele>2998.283203</ele>
<time>2011-04-24T04:30:38Z</time>
<desc>lat.=22.306831, lon.=103.774994, Alt.=2998.283203m. Speed=0.000000m/h.</desc>
<speed>0.000000</speed>
</trkpt>
<trkpt lat="22.306831" lon="103.774994">
<ele>2998.283203</ele>
<time>2011-04-24T04:30:43Z</time>
<desc>lat.=22.306831, lon.=103.774994, Alt.=2998.283203m. Speed=0.072000m/h.</desc>
<speed>0.020000</speed>
</trkpt>
<trkpt lat="22.306831" lon="103.774994">
<ele>2998.283203</ele>
<time>2011-04-24T04:30:48Z</time>
<desc>lat.=22.306831, lon.=103.774994, Alt.=2998.283203m. Speed=0.792000m/h.</desc>
<speed>0.220000</speed>
</trkpt>
<trkpt lat="22.306822" lon="103.774979">
<ele>2999.533203</ele>
<time>2011-04-24T04:30:53Z</time>
<desc>lat.=22.306822, lon.=103.774979, Alt.=2999.533203m. Speed=2.304000m/h.</desc>
<speed>0.640000</speed>
</trkpt>
<trkpt lat="22.306801" lon="103.774940">
<ele>3001.720703</ele>
<time>2011-04-24T04:30:58Z</time>
<desc>lat.=22.306801, lon.=103.774940, Alt.=3001.720703m. Speed=3.240000m/h.</desc>
<speed>0.900000</speed>
</trkpt>
<trkpt lat="22.306782" lon="103.774902">
<ele>3003.533203</ele>
<time>2011-04-24T04:31:03Z</time>
<desc>lat.=22.306782, lon.=103.774902, Alt.=3003.533203m. Speed=2.664000m/h.</desc>
<speed>0.740000</speed>
</trkpt>
<trkpt lat="22.306747" lon="103.774887">
<ele>3004.658203</ele>
<time>2011-04-24T04:31:08Z</time>
<desc>lat.=22.306747, lon.=103.774887, Alt.=3004.658203m. Speed=2.232000m/h.</desc>
<speed>0.620000</speed>
</trkpt>
<trkpt lat="22.306717" lon="103.774872">
<ele>3005.220703</ele>
<time>2011-04-24T04:31:13Z</time>
<desc>lat.=22.306717, lon.=103.774872, Alt.=3005.220703m. Speed=2.448000m/h.</desc>
<speed>0.680000</speed>
</trkpt>
<trkpt lat="22.306711" lon="103.774849">
<ele>3006.595703</ele>
<time>2011-04-24T04:31:18Z</time>
<desc>lat.=22.306711, lon.=103.774849, Alt.=3006.595703m. Speed=2.628000m/h.</desc>
<speed>0.730000</speed>
</trkpt>
<trkpt lat="22.306711" lon="103.774811">
<ele>3007.095703</ele>
<time>2011-04-24T04:31:23Z</time>
<desc>lat.=22.306711, lon.=103.774811, Alt.=3007.095703m. Speed=2.952000m/h.</desc>
<speed>0.820000</speed>
</trkpt>
<trkpt lat="22.306707" lon="103.774796">
<ele>3008.595703</ele>
<time>2011-04-24T04:31:28Z</time>
<desc>lat.=22.306707, lon.=103.774796, Alt.=3008.595703m. Speed=1.728000m/h.</desc>
<speed>0.480000</speed>
</trkpt>
<trkpt lat="22.306709" lon="103.774757">
<ele>3009.095703</ele>
<time>2011-04-24T04:31:33Z</time>
<desc>lat.=22.306709, lon.=103.774757, Alt.=3009.095703m. Speed=2.700000m/h.</desc>
<speed>0.750000</speed>
</trkpt>
<trkpt lat="22.306702" lon="103.774734">
<ele>3010.033203</ele>
<time>2011-04-24T04:31:38Z</time>
<desc>lat.=22.306702, lon.=103.774734, Alt.=3010.033203m. Speed=1.548000m/h.</desc>
<speed>0.430000</speed>
</trkpt>
<trkpt lat="22.306692" lon="103.774712">
<ele>3010.533203</ele>
<time>2011-04-24T04:31:43Z</time>
<desc>lat.=22.306692, lon.=103.774712, Alt.=3010.533203m. Speed=2.232000m/h.</desc>
<speed>0.620000</speed>
</trkpt>
<trkpt lat="22.306652" lon="103.774681">
<ele>3010.595703</ele>
<time>2011-04-24T04:31:48Z</time>
<desc>lat.=22.306652, lon.=103.774681, Alt.=3010.595703m. Speed=4.176000m/h.</desc>
<speed>1.160000</speed>
</trkpt>
<trkpt lat="22.306597" lon="103.774696">
<ele>3010.595703</ele>
<time>2011-04-24T04:31:53Z</time>
<desc>lat.=22.306597, lon.=103.774696, Alt.=3010.595703m. Speed=1.980000m/h.</desc>
<speed>0.550000</speed>
</trkpt>
<trkpt lat="22.306553" lon="103.774681">
<ele>3010.970703</ele>
<time>2011-04-24T04:31:58Z</time>
<desc>lat.=22.306553, lon.=103.774681, Alt.=3010.970703m. Speed=3.492000m/h.</desc>
<speed>0.970000</speed>
</trkpt>
<trkpt lat="22.306509" lon="103.774689">
<ele>3012.033203</ele>
<time>2011-04-24T04:32:03Z</time>
<desc>lat.=22.306509, lon.=103.774689, Alt.=3012.033203m. Speed=3.636000m/h.</desc>
<speed>1.010000</speed>
</trkpt>
<trkpt lat="22.306473" lon="103.774681">
<ele>3012.220703</ele>
<time>2011-04-24T04:32:08Z</time>
<desc>lat.=22.306473, lon.=103.774681, Alt.=3012.220703m. Speed=4.176000m/h.</desc>
<speed>1.160000</speed>
</trkpt>
<trkpt lat="22.306437" lon="103.774658">
<ele>3013.095703</ele>
<time>2011-04-24T04:32:13Z</time>
<desc>lat.=22.306437, lon.=103.774658, Alt.=3013.095703m. Speed=2.484000m/h.</desc>
<speed>0.690000</speed>
</trkpt>
<trkpt lat="22.306419" lon="103.774635">
<ele>3013.658203</ele>
<time>2011-04-24T04:32:18Z</time>
<desc>lat.=22.306419, lon.=103.774635, Alt.=3013.658203m. Speed=2.628000m/h.</desc>
<speed>0.730000</speed>
</trkpt>
<trkpt lat="22.306398" lon="103.774620">
<ele>3014.220703</ele>
<time>2011-04-24T04:32:23Z</time>
<desc>lat.=22.306398, lon.=103.774620, Alt.=3014.220703m. Speed=1.512000m/h.</desc>
<speed>0.420000</speed>
</trkpt>
<trkpt lat="22.306374" lon="103.774628">
<ele>3014.970703</ele>
<time>2011-04-24T04:32:28Z</time>
<desc>lat.=22.306374, lon.=103.774628, Alt.=3014.970703m. Speed=2.952000m/h.</desc>
<speed>0.820000</speed>
</trkpt>
<trkpt lat="22.306343" lon="103.774635">
<ele>3016.220703</ele>
<time>2011-04-24T04:32:33Z</time>
<desc>lat.=22.306343, lon.=103.774635, Alt.=3016.220703m. Speed=3.600000m/h.</desc>
<speed>1.000000</speed>
</trkpt>
<trkpt lat="22.306314" lon="103.774651">
<ele>3016.658203</ele>
<time>2011-04-24T04:32:38Z</time>
<desc>lat.=22.306314, lon.=103.774651, Alt.=3016.658203m. Speed=2.448000m/h.</desc>
<speed>0.680000</speed>
</trkpt>
<trkpt lat="22.306286" lon="103.774673">
<ele>3017.283203</ele>
<time>2011-04-24T04:32:43Z</time>
<desc>lat.=22.306286, lon.=103.774673, Alt.=3017.283203m. Speed=2.340000m/h.</desc>
<speed>0.650000</speed>
</trkpt>
<trkpt lat="22.306261" lon="103.774689">
<ele>3017.845703</ele>
<time>2011-04-24T04:32:48Z</time>
<desc>lat.=22.306261, lon.=103.774689, Alt.=3017.845703m. Speed=2.448000m/h.</desc>
<speed>0.680000</speed>
</trkpt>
<trkpt lat="22.306238" lon="103.774696">
<ele>3018.345703</ele>
<time>2011-04-24T04:32:53Z</time>
<desc>lat.=22.306238, lon.=103.774696, Alt.=3018.345703m. Speed=1.872000m/h.</desc>
<speed>0.520000</speed>
</trkpt>
<trkpt lat="22.306206" lon="103.774712">
<ele>3018.533203</ele>
<time>2011-04-24T04:32:58Z</time>
<desc>lat.=22.306206, lon.=103.774712, Alt.=3018.533203m. Speed=3.204000m/h.</desc>
<speed>0.890000</speed>
</trkpt>
<trkpt lat="22.306177" lon="103.774719">
<ele>3019.158203</ele>
<time>2011-04-24T04:33:03Z</time>
<desc>lat.=22.306177, lon.=103.774719, Alt.=3019.158203m. Speed=1.656000m/h.</desc>
<speed>0.460000</speed>
</trkpt>
<trkpt lat="22.306160" lon="103.774734">
<ele>3019.908203</ele>
<time>2011-04-24T04:33:08Z</time>
<desc>lat.=22.306160, lon.=103.774734, Alt.=3019.908203m. Speed=1.908000m/h.</desc>
<speed>0.530000</speed>
</trkpt>
<trkpt lat="22.306158" lon="103.774750">
<ele>3019.720703</ele>
<time>2011-04-24T04:33:13Z</time>
<desc>lat.=22.306158, lon.=103.774750, Alt.=3019.720703m. Speed=2.772000m/h.</desc>
<speed>0.770000</speed>
</trkpt>
<trkpt lat="22.306131" lon="103.774757">
<ele>3020.845703</ele>
<time>2011-04-24T04:33:18Z</time>
<desc>lat.=22.306131, lon.=103.774757, Alt.=3020.845703m. Speed=2.376000m/h.</desc>
<speed>0.660000</speed>
</trkpt>
<trkpt lat="22.306110" lon="103.774757">
<ele>3021.720703</ele>
<time>2011-04-24T04:33:23Z</time>
<desc>lat.=22.306110, lon.=103.774757, Alt.=3021.720703m. Speed=0.324000m/h.</desc>
<speed>0.090000</speed>
</trkpt>
<trkpt lat="22.306108" lon="103.774757">
<ele>3022.033203</ele>
<time>2011-04-24T04:33:28Z</time>
<desc>lat.=22.306108, lon.=103.774757, Alt.=3022.033203m. Speed=1.656000m/h.</desc>
<speed>0.460000</speed>
</trkpt>
<trkpt lat="22.306074" lon="103.774780">
<ele>3022.658203</ele>
<time>2011-04-24T04:33:33Z</time>
<desc>lat.=22.306074, lon.=103.774780, Alt.=3022.658203m. Speed=3.420000m/h.</desc>
<speed>0.950000</speed>
</trkpt>
<trkpt lat="22.306051" lon="103.774818">
<ele>3023.595703</ele>
<time>2011-04-24T04:33:38Z</time>
<desc>lat.=22.306051, lon.=103.774818, Alt.=3023.595703m. Speed=1.908000m/h.</desc>
<speed>0.530000</speed>
</trkpt>
<trkpt lat="22.306030" lon="103.774834">
<ele>3023.720703</ele>
<time>2011-04-24T04:33:43Z</time>
<desc>lat.=22.306030, lon.=103.774834, Alt.=3023.720703m. Speed=0.720000m/h.</desc>
<speed>0.200000</speed>
</trkpt>
<trkpt lat="22.306009" lon="103.774841">
<ele>3024.408203</ele>
<time>2011-04-24T04:33:48Z</time>
<desc>lat.=22.306009, lon.=103.774841, Alt.=3024.408203m. Speed=1.764000m/h.</desc>
<speed>0.490000</speed>
</trkpt>
<trkpt lat="22.305998" lon="103.774841">
<ele>3024.470703</ele>
<time>2011-04-24T04:33:53Z</time>
<desc>lat.=22.305998, lon.=103.774841, Alt.=3024.470703m. Speed=1.584000m/h.</desc>
<speed>0.440000</speed>
</trkpt>
<trkpt lat="22.305975" lon="103.774834">
<ele>3024.845703</ele>
<time>2011-04-24T04:33:58Z</time>
<desc>lat.=22.305975, lon.=103.774834, Alt.=3024.845703m. Speed=0.720000m/h.</desc>
<speed>0.200000</speed>
</trkpt>
<trkpt lat="22.305950" lon="103.774849">
<ele>3025.470703</ele>
<time>2011-04-24T04:34:03Z</time>
<desc>lat.=22.305950, lon.=103.774849, Alt.=3025.470703m. Speed=2.916000m/h.</desc>
<speed>0.810000</speed>
</trkpt>
<trkpt lat="22.305927" lon="103.774857">
<ele>3026.220703</ele>
<time>2011-04-24T04:34:08Z</time>
<desc>lat.=22.305927, lon.=103.774857, Alt.=3026.220703m. Speed=2.808000m/h.</desc>
<speed>0.780000</speed>
</trkpt>
<trkpt lat="22.305902" lon="103.774879">
<ele>3027.283203</ele>
<time>2011-04-24T04:34:13Z</time>
<desc>lat.=22.305902, lon.=103.774879, Alt.=3027.283203m. Speed=2.484000m/h.</desc>
<speed>0.690000</speed>
</trkpt>
<trkpt lat="22.305866" lon="103.774902">
<ele>3027.470703</ele>
<time>2011-04-24T04:34:18Z</time>
<desc>lat.=22.305866, lon.=103.774902, Alt.=3027.470703m. Speed=4.608000m/h.</desc>
<speed>1.280000</speed>
</trkpt>
<trkpt lat="22.305832" lon="103.774910">
<ele>3028.283203</ele>
<time>2011-04-24T04:34:23Z</time>
<desc>lat.=22.305832, lon.=103.774910, Alt.=3028.283203m. Speed=2.880000m/h.</desc>
<speed>0.800000</speed>
</trkpt>
<trkpt lat="22.305803" lon="103.774902">
<ele>3029.283203</ele>
<time>2011-04-24T04:34:28Z</time>
<desc>lat.=22.305803, lon.=103.774902, Alt.=3029.283203m. Speed=1.656000m/h.</desc>
<speed>0.460000</speed>
</trkpt>
<trkpt lat="22.305771" lon="103.774918">
<ele>3030.533203</ele>
<time>2011-04-24T04:34:33Z</time>
<desc>lat.=22.305771, lon.=103.774918, Alt.=3030.533203m. Speed=2.808000m/h.</desc>
<speed>0.780000</speed>
</trkpt>
<trkpt lat="22.305740" lon="103.774925">
<ele>3031.595703</ele>
<time>2011-04-24T04:34:38Z</time>
<desc>lat.=22.305740, lon.=103.774925, Alt.=3031.595703m. Speed=2.556000m/h.</desc>
<speed>0.710000</speed>
</trkpt>
<trkpt lat="22.305702" lon="103.774918">
<ele>3032.283203</ele>
<time>2011-04-24T04:34:43Z</time>
<desc>lat.=22.305702, lon.=103.774918, Alt.=3032.283203m. Speed=2.484000m/h.</desc>
<speed>0.690000</speed>
</trkpt>
<trkpt lat="22.305683" lon="103.774902">
<ele>3032.345703</ele>
<time>2011-04-24T04:34:48Z</time>
<desc>lat.=22.305683, lon.=103.774902, Alt.=3032.345703m. Speed=3.816000m/h.</desc>
<speed>1.060000</speed>
</trkpt>
<trkpt lat="22.305656" lon="103.774887">
<ele>3033.783203</ele>
<time>2011-04-24T04:34:53Z</time>
<desc>lat.=22.305656, lon.=103.774887, Alt.=3033.783203m. Speed=2.808000m/h.</desc>
<speed>0.780000</speed>
</trkpt>
<trkpt lat="22.305630" lon="103.774887">
<ele>3035.345703</ele>
<time>2011-04-24T04:34:58Z</time>
<desc>lat.=22.305630, lon.=103.774887, Alt.=3035.345703m. Speed=2.232000m/h.</desc>
<speed>0.620000</speed>
</trkpt>
<trkpt lat="22.305613" lon="103.774902">
<ele>3034.845703</ele>
<time>2011-04-24T04:35:03Z</time>
<desc>lat.=22.305613, lon.=103.774902, Alt.=3034.845703m. Speed=2.088000m/h.</desc>
<speed>0.580000</speed>
</trkpt>
<trkpt lat="22.305584" lon="103.774918">
<ele>3034.595703</ele>
<time>2011-04-24T04:35:08Z</time>
<desc>lat.=22.305584, lon.=103.774918, Alt.=3034.595703m. Speed=2.520000m/h.</desc>
<speed>0.700000</speed>
</trkpt>
<trkpt lat="22.305548" lon="103.774948">
<ele>3033.595703</ele>
<time>2011-04-24T04:35:13Z</time>
<desc>lat.=22.305548, lon.=103.774948, Alt.=3033.595703m. Speed=3.348000m/h.</desc>
<speed>0.930000</speed>
</trkpt>
<trkpt lat="22.305515" lon="103.774986">
<ele>3033.595703</ele>
<time>2011-04-24T04:35:18Z</time>
<desc>lat.=22.305515, lon.=103.774986, Alt.=3033.595703m. Speed=2.808000m/h.</desc>
<speed>0.780000</speed>
</trkpt>
<trkpt lat="22.305471" lon="103.775024">
<ele>3033.720703</ele>
<time>2011-04-24T04:35:23Z</time>
<desc>lat.=22.305471, lon.=103.775024, Alt.=3033.720703m. Speed=3.816000m/h.</desc>
<speed>1.060000</speed>
</trkpt>
<trkpt lat="22.305431" lon="103.775047">
<ele>3033.970703</ele>
<time>2011-04-24T04:35:28Z</time>
<desc>lat.=22.305431, lon.=103.775047, Alt.=3033.970703m. Speed=1.584000m/h.</desc>
<speed>0.440000</speed>
</trkpt>
<trkpt lat="22.305412" lon="103.775063">
<ele>3034.033203</ele>
<time>2011-04-24T04:35:33Z</time>
<desc>lat.=22.305412, lon.=103.775063, Alt.=3034.033203m. Speed=1.692000m/h.</desc>
<speed>0.470000</speed>
</trkpt>
<trkpt lat="22.305401" lon="103.775078">
<ele>3034.220703</ele>
<time>2011-04-24T04:35:38Z</time>
<desc>lat.=22.305401, lon.=103.775078, Alt.=3034.220703m. Speed=1.368000m/h.</desc>
<speed>0.380000</speed>
</trkpt>
<trkpt lat="22.305386" lon="103.775085">
<ele>3034.533203</ele>
<time>2011-04-24T04:35:43Z</time>
<desc>lat.=22.305386, lon.=103.775085, Alt.=3034.533203m. Speed=1.260000m/h.</desc>
<speed>0.350000</speed>
</trkpt>
<trkpt lat="22.305372" lon="103.775101">
<ele>3034.783203</ele>
<time>2011-04-24T04:35:48Z</time>
<desc>lat.=22.305372, lon.=103.775101, Alt.=3034.783203m. Speed=1.188000m/h.</desc>
<speed>0.330000</speed>
</trkpt>
<trkpt lat="22.305365" lon="103.775108">
<ele>3034.408203</ele>
<time>2011-04-24T04:35:53Z</time>
<desc>lat.=22.305365, lon.=103.775108, Alt.=3034.408203m. Speed=0.360000m/h.</desc>
<speed>0.100000</speed>
</trkpt>
<trkpt lat="22.305365" lon="103.775108">
<ele>3034.783203</ele>
<time>2011-04-24T04:35:58Z</time>
<desc>lat.=22.305365, lon.=103.775108, Alt.=3034.783203m. Speed=0.108000m/h.</desc>
<speed>0.030000</speed>
</trkpt>
<trkpt lat="22.305365" lon="103.775108">
<ele>3035.095703</ele>
<time>2011-04-24T04:36:03Z</time>
<desc>lat.=22.305365, lon.=103.775108, Alt.=3035.095703m. Speed=0.108000m/h.</desc>
<speed>0.030000</speed>
</trkpt>
<trkpt lat="22.305363" lon="103.775116">
<ele>3035.470703</ele>
<time>2011-04-24T04:36:08Z</time>
<desc>lat.=22.305363, lon.=103.775116, Alt.=3035.470703m. Speed=0.324000m/h.</desc>
<speed>0.090000</speed>
</trkpt>
<trkpt lat="22.305359" lon="103.775116">
<ele>3035.845703</ele>
<time>2011-04-24T04:36:13Z</time>
<desc>lat.=22.305359, lon.=103.775116, Alt.=3035.845703m. Speed=0.396000m/h.</desc>
<speed>0.110000</speed>
</trkpt>
<trkpt lat="22.305353" lon="103.775116">
<ele>3036.220703</ele>
<time>2011-04-24T04:36:18Z</time>
<desc>lat.=22.305353, lon.=103.775116, Alt.=3036.220703m. Speed=0.576000m/h.</desc>
<speed>0.160000</speed>
</trkpt>
<trkpt lat="22.305355" lon="103.775124">
<ele>3036.595703</ele>
<time>2011-04-24T04:36:23Z</time>
<desc>lat.=22.305355, lon.=103.775124, Alt.=3036.595703m. Speed=0.252000m/h.</desc>
<speed>0.070000</speed>
</trkpt>
<trkpt lat="22.305359" lon="103.775124">
<ele>3036.845703</ele>
<time>2011-04-24T04:36:28Z</time>
<desc>lat.=22.305359, lon.=103.775124, Alt.=3036.845703m. Speed=0.144000m/h.</desc>
<speed>0.040000</speed>
</trkpt>
<trkpt lat="22.305355" lon="103.775116">
<ele>3037.033203</ele>
<time>2011-04-24T04:36:33Z</time>
<desc>lat.=22.305355, lon.=103.775116, Alt.=3037.033203m. Speed=0.756000m/h.</desc>
<speed>0.210000</speed>
</trkpt>
<trkpt lat="22.305349" lon="103.775116">
<ele>3037.283203</ele>
<time>2011-04-24T04:36:38Z</time>
<desc>lat.=22.305349, lon.=103.775116, Alt.=3037.283203m. Speed=0.396000m/h.</desc>
<speed>0.110000</speed>
</trkpt>
<trkpt lat="22.305344" lon="103.775116">
<ele>3037.595703</ele>
<time>2011-04-24T04:36:43Z</time>
<desc>lat.=22.305344, lon.=103.775116, Alt.=3037.595703m. Speed=0.504000m/h.</desc>
<speed>0.140000</speed>
</trkpt>
<trkpt lat="22.305332" lon="103.775124">
<ele>3038.283203</ele>
<time>2011-04-24T04:36:48Z</time>
<desc>lat.=22.305332, lon.=103.775124, Alt.=3038.283203m. Speed=1.152000m/h.</desc>
<speed>0.320000</speed>
</trkpt>
<trkpt lat="22.305313" lon="103.775116">
<ele>3038.533203</ele>
<time>2011-04-24T04:36:53Z</time>
<desc>lat.=22.305313, lon.=103.775116, Alt.=3038.533203m. Speed=0.972000m/h.</desc>
<speed>0.270000</speed>
</trkpt>
<trkpt lat="22.305281" lon="103.775116">
<ele>3039.408203</ele>
<time>2011-04-24T04:36:58Z</time>
<desc>lat.=22.305281, lon.=103.775116, Alt.=3039.408203m. Speed=1.728000m/h.</desc>
<speed>0.480000</speed>
</trkpt>
<trkpt lat="22.305252" lon="103.775124">
<ele>3040.158203</ele>
<time>2011-04-24T04:37:03Z</time>
<desc>lat.=22.305252, lon.=103.775124, Alt.=3040.158203m. Speed=1.368000m/h.</desc>
<speed>0.380000</speed>
</trkpt>
<trkpt lat="22.305216" lon="103.775131">
<ele>3040.720703</ele>
<time>2011-04-24T04:37:08Z</time>
<desc>lat.=22.305216, lon.=103.775131, Alt.=3040.720703m. Speed=1.728000m/h.</desc>
<speed>0.480000</speed>
</trkpt>
<trkpt lat="22.305204" lon="103.775124">
<ele>3042.470703</ele>
<time>2011-04-24T04:37:13Z</time>
<desc>lat.=22.305204, lon.=103.775124, Alt.=3042.470703m. Speed=0.648000m/h.</desc>
<speed>0.180000</speed>
</trkpt>
<trkpt lat="22.305183" lon="103.775139">
<ele>3042.845703</ele>
<time>2011-04-24T04:37:18Z</time>
<desc>lat.=22.305183, lon.=103.775139, Alt.=3042.845703m. Speed=1.584000m/h.</desc>
<speed>0.440000</speed>
</trkpt>
<trkpt lat="22.305178" lon="103.775139">
<ele>3043.720703</ele>
<time>2011-04-24T04:37:23Z</time>
<desc>lat.=22.305178, lon.=103.775139, Alt.=3043.720703m. Speed=0.360000m/h.</desc>
<speed>0.100000</speed>
</trkpt>
<trkpt lat="22.305168" lon="103.775139">
<ele>3044.470703</ele>
<time>2011-04-24T04:37:28Z</time>
<desc>lat.=22.305168, lon.=103.775139, Alt.=3044.470703m. Speed=0.972000m/h.</desc>
<speed>0.270000</speed>
</trkpt>
<trkpt lat="22.305138" lon="103.775131">
<ele>3044.533203</ele>
<time>2011-04-24T04:37:33Z</time>
<desc>lat.=22.305138, lon.=103.775131, Alt.=3044.533203m. Speed=1.944000m/h.</desc>
<speed>0.540000</speed>
</trkpt>
<trkpt lat="22.305117" lon="103.775124">
<ele>3045.095703</ele>
<time>2011-04-24T04:37:38Z</time>
<desc>lat.=22.305117, lon.=103.775124, Alt.=3045.095703m. Speed=1.368000m/h.</desc>
<speed>0.380000</speed>
</trkpt>
<trkpt lat="22.305086" lon="103.775124">
<ele>3045.533203</ele>
<time>2011-04-24T04:37:43Z</time>
<desc>lat.=22.305086, lon.=103.775124, Alt.=3045.533203m. Speed=1.296000m/h.</desc>
<speed>0.360000</speed>
</trkpt>
<trkpt lat="22.305067" lon="103.775116">
<ele>3045.658203</ele>
<time>2011-04-24T04:37:48Z</time>
<desc>lat.=22.305067, lon.=103.775116, Alt.=3045.658203m. Speed=1.404000m/h.</desc>
<speed>0.390000</speed>
</trkpt>
<trkpt lat="22.305063" lon="103.775108">
<ele>3046.283203</ele>
<time>2011-04-24T04:37:53Z</time>
<desc>lat.=22.305063, lon.=103.775108, Alt.=3046.283203m. Speed=0.648000m/h.</desc>
<speed>0.180000</speed>
</trkpt>
<trkpt lat="22.305058" lon="103.775108">
<ele>3048.345703</ele>
<time>2011-04-24T04:37:58Z</time>
<desc>lat.=22.305058, lon.=103.775108, Alt.=3048.345703m. Speed=0.864000m/h.</desc>
<speed>0.240000</speed>
</trkpt>
<trkpt lat="22.305025" lon="103.775108">
<ele>3049.158203</ele>
<time>2011-04-24T04:38:03Z</time>
<desc>lat.=22.305025, lon.=103.775108, Alt.=3049.158203m. Speed=2.232000m/h.</desc>
<speed>0.620000</speed>
</trkpt>
<trkpt lat="22.304991" lon="103.775101">
<ele>3051.095703</ele>
<time>2011-04-24T04:38:08Z</time>
<desc>lat.=22.304991, lon.=103.775101, Alt.=3051.095703m. Speed=3.780000m/h.</desc>
<speed>1.050000</speed>
</trkpt>
<trkpt lat="22.304964" lon="103.775108">
<ele>3053.470703</ele>
<time>2011-04-24T04:38:13Z</time>
<desc>lat.=22.304964, lon.=103.775108, Alt.=3053.470703m. Speed=2.124000m/h.</desc>
<speed>0.590000</speed>
</trkpt>
<trkpt lat="22.304943" lon="103.775146">
<ele>3054.595703</ele>
<time>2011-04-24T04:38:18Z</time>
<desc>lat.=22.304943, lon.=103.775146, Alt.=3054.595703m. Speed=1.296000m/h.</desc>
<speed>0.360000</speed>
</trkpt>
<trkpt lat="22.304928" lon="103.775162">
<ele>3055.595703</ele>
<time>2011-04-24T04:38:23Z</time>
<desc>lat.=22.304928, lon.=103.775162, Alt.=3055.595703m. Speed=2.088000m/h.</desc>
<speed>0.580000</speed>
</trkpt>
<trkpt lat="22.304922" lon="103.775162">
<ele>3056.783203</ele>
<time>2011-04-24T04:38:28Z</time>
<desc>lat.=22.304922, lon.=103.775162, Alt.=3056.783203m. Speed=0.108000m/h.</desc>
<speed>0.030000</speed>
</trkpt>
<trkpt lat="22.304922" lon="103.775162">
<ele>3057.158203</ele>
<time>2011-04-24T04:38:33Z</time>
<desc>lat.=22.304922, lon.=103.775162, Alt.=3057.158203m. Speed=0.108000m/h.</desc>
<speed>0.030000</speed>
</trkpt>
<trkpt lat="22.304911" lon="103.775177">
<ele>3057.220703</ele>
<time>2011-04-24T04:38:38Z</time>
<desc>lat.=22.304911, lon.=103.775177, Alt.=3057.220703m. Speed=3.708000m/h.</desc>
<speed>1.030000</speed>
</trkpt>
<trkpt lat="22.304869" lon="103.775192">
<ele>3059.283203</ele>
<time>2011-04-24T04:38:43Z</time>
<desc>lat.=22.304869, lon.=103.775192, Alt.=3059.283203m. Speed=3.852000m/h.</desc>
<speed>1.070000</speed>
</trkpt>
<trkpt lat="22.304829" lon="103.775208">
<ele>3060.220703</ele>
<time>2011-04-24T04:38:48Z</time>
<desc>lat.=22.304829, lon.=103.775208, Alt.=3060.220703m. Speed=4.320000m/h.</desc>
<speed>1.200000</speed>
</trkpt>
<trkpt lat="22.304798" lon="103.775230">
<ele>3061.220703</ele>
<time>2011-04-24T04:38:53Z</time>
<desc>lat.=22.304798, lon.=103.775230, Alt.=3061.220703m. Speed=0.792000m/h.</desc>
<speed>0.220000</speed>
</trkpt>
<trkpt lat="22.304775" lon="103.775238">
<ele>3062.408203</ele>
<time>2011-04-24T04:38:58Z</time>
<desc>lat.=22.304775, lon.=103.775238, Alt.=3062.408203m. Speed=3.420000m/h.</desc>
<speed>0.950000</speed>
</trkpt>
<trkpt lat="22.304735" lon="103.775261">
<ele>3063.595703</ele>
<time>2011-04-24T04:39:03Z</time>
<desc>lat.=22.304735, lon.=103.775261, Alt.=3063.595703m. Speed=2.304000m/h.</desc>
<speed>0.640000</speed>
</trkpt>
<trkpt lat="22.304705" lon="103.775253">
<ele>3064.283203</ele>
<time>2011-04-24T04:39:08Z</time>
<desc>lat.=22.304705, lon.=103.775253, Alt.=3064.283203m. Speed=2.592000m/h.</desc>
<speed>0.720000</speed>
</trkpt>
<trkpt lat="22.304682" lon="103.775253">
<ele>3065.158203</ele>
<time>2011-04-24T04:39:13Z</time>
<desc>lat.=22.304682, lon.=103.775253, Alt.=3065.158203m. Speed=0.288000m/h.</desc>
<speed>0.080000</speed>
</trkpt>
<trkpt lat="22.304672" lon="103.775246">
<ele>3065.845703</ele>
<time>2011-04-24T04:39:18Z</time>
<desc>lat.=22.304672, lon.=103.775246, Alt.=3065.845703m. Speed=0.288000m/h.</desc>
<speed>0.080000</speed>
</trkpt>
<trkpt lat="22.304672" lon="103.775253">
<ele>3066.095703</ele>
<time>2011-04-24T04:39:23Z</time>
<desc>lat.=22.304672, lon.=103.775253, Alt.=3066.095703m. Speed=0.180000m/h.</desc>
<speed>0.050000</speed>
</trkpt>
<trkpt lat="22.304655" lon="103.775238">
<ele>3066.220703</ele>
<time>2011-04-24T04:39:28Z</time>
<desc>lat.=22.304655, lon.=103.775238, Alt.=3066.220703m. Speed=2.304000m/h.</desc>
<speed>0.640000</speed>
</trkpt>
<trkpt lat="22.304625" lon="103.775253">
<ele>3067.158203</ele>
<time>2011-04-24T04:39:33Z</time>
<desc>lat.=22.304625, lon.=103.775253, Alt.=3067.158203m. Speed=2.808000m/h.</desc>
<speed>0.780000</speed>
</trkpt>
<trkpt lat="22.304600" lon="103.775269">
<ele>3068.720703</ele>
<time>2011-04-24T04:39:38Z</time>
<desc>lat.=22.304600, lon.=103.775269, Alt.=3068.720703m. Speed=3.852000m/h.</desc>
<speed>1.070000</speed>
</trkpt>
<trkpt lat="22.304565" lon="103.775276">
<ele>3069.720703</ele>
<time>2011-04-24T04:39:43Z</time>
<desc>lat.=22.304565, lon.=103.775276, Alt.=3069.720703m. Speed=2.700000m/h.</desc>
<speed>0.750000</speed>
</trkpt>
<trkpt lat="22.304562" lon="103.775307">
<ele>3069.845703</ele>
<time>2011-04-24T04:39:48Z</time>
<desc>lat.=22.304562, lon.=103.775307, Alt.=3069.845703m. Speed=1.584000m/h.</desc>
<speed>0.440000</speed>
</trkpt>
<trkpt lat="22.304543" lon="103.775322">
<ele>3069.408203</ele>
<time>2011-04-24T04:39:53Z</time>
<desc>lat.=22.304543, lon.=103.775322, Alt.=3069.408203m. Speed=2.916000m/h.</desc>
<speed>0.810000</speed>
</trkpt>
<trkpt lat="22.304504" lon="103.775322">
<ele>3069.470703</ele>
<time>2011-04-24T04:39:58Z</time>
<desc>lat.=22.304504, lon.=103.775322, Alt.=3069.470703m. Speed=2.772000m/h.</desc>
<speed>0.770000</speed>
</trkpt>
<trkpt lat="22.304459" lon="103.775299">
<ele>3069.283203</ele>
<time>2011-04-24T04:40:03Z</time>
<desc>lat.=22.304459, lon.=103.775299, Alt.=3069.283203m. Speed=3.420000m/h.</desc>
<speed>0.950000</speed>
</trkpt>
<trkpt lat="22.304401" lon="103.775269">
<ele>3067.470703</ele>
<time>2011-04-24T04:40:08Z</time>
<desc>lat.=22.304401, lon.=103.775269, Alt.=3067.470703m. Speed=3.456000m/h.</desc>
<speed>0.960000</speed>
</trkpt>
<trkpt lat="22.304382" lon="103.775276">
<ele>3066.720703</ele>
<time>2011-04-24T04:40:13Z</time>
<desc>lat.=22.304382, lon.=103.775276, Alt.=3066.720703m. Speed=1.296000m/h.</desc>
<speed>0.360000</speed>
</trkpt>
<trkpt lat="22.304379" lon="103.775291">
<ele>3066.720703</ele>
<time>2011-04-24T04:40:18Z</time>
<desc>lat.=22.304379, lon.=103.775291, Alt.=3066.720703m. Speed=0.108000m/h.</desc>
<speed>0.030000</speed>
</trkpt>
<trkpt lat="22.304375" lon="103.775291">
<ele>3066.595703</ele>
<time>2011-04-24T04:40:23Z</time>
<desc>lat.=22.304375, lon.=103.775291, Alt.=3066.595703m. Speed=0.216000m/h.</desc>
<speed>0.060000</speed>
</trkpt>
<trkpt lat="22.304373" lon="103.775291">
<ele>3066.533203</ele>
<time>2011-04-24T04:40:28Z</time>
<desc>lat.=22.304373, lon.=103.775291, Alt.=3066.533203m. Speed=0.540000m/h.</desc>
<speed>0.150000</speed>
</trkpt>
<trkpt lat="22.304371" lon="103.775291">
<ele>3066.533203</ele>
<time>2011-04-24T04:40:33Z</time>
<desc>lat.=22.304371, lon.=103.775291, Alt.=3066.533203m. Speed=0.468000m/h.</desc>
<speed>0.130000</speed>
</trkpt>
<trkpt lat="22.304365" lon="103.775291">
<ele>3066.345703</ele>
<time>2011-04-24T04:40:38Z</time>
<desc>lat.=22.304365, lon.=103.775291, Alt.=3066.345703m. Speed=3.708000m/h.</desc>
<speed>1.030000</speed>
</trkpt>
<trkpt lat="22.304321" lon="103.775276">
<ele>3066.345703</ele>
<time>2011-04-24T04:40:43Z</time>
<desc>lat.=22.304321, lon.=103.775276, Alt.=3066.345703m. Speed=2.304000m/h.</desc>
<speed>0.640000</speed>
</trkpt>
<trkpt lat="22.304310" lon="103.775269">
<ele>3067.970703</ele>
<time>2011-04-24T04:40:48Z</time>
<desc>lat.=22.304310, lon.=103.775269, Alt.=3067.970703m. Speed=0.324000m/h.</desc>
<speed>0.090000</speed>
</trkpt>
<trkpt lat="22.304310" lon="103.775269">
<ele>3068.033203</ele>
<time>2011-04-24T04:40:53Z</time>
<desc>lat.=22.304310, lon.=103.775269, Alt.=3068.033203m. Speed=0.108000m/h.</desc>
<speed>0.030000</speed>
</trkpt>
<trkpt lat="22.304293" lon="103.775269">
<ele>3068.720703</ele>
<time>2011-04-24T04:40:58Z</time>
<desc>lat.=22.304293, lon.=103.775269, Alt.=3068.720703m. Speed=3.240000m/h.</desc>
<speed>0.900000</speed>
</trkpt>
<trkpt lat="22.304283" lon="103.775269">
<ele>3069.345703</ele>
<time>2011-04-24T04:41:03Z</time>
<desc>lat.=22.304283, lon.=103.775269, Alt.=3069.345703m. Speed=0.612000m/h.</desc>
<speed>0.170000</speed>
</trkpt>
<trkpt lat="22.304289" lon="103.775269">
<ele>3069.720703</ele>
<time>2011-04-24T04:41:08Z</time>
<desc>lat.=22.304289, lon.=103.775269, Alt.=3069.720703m. Speed=0.036000m/h.</desc>
<speed>0.010000</speed>
</trkpt>
<trkpt lat="22.304287" lon="103.775269">
<ele>3069.845703</ele>
<time>2011-04-24T04:41:13Z</time>
<desc>lat.=22.304287, lon.=103.775269, Alt.=3069.845703m. Speed=0.720000m/h.</desc>
<speed>0.200000</speed>
</trkpt>
<trkpt lat="22.304279" lon="103.775276">
<ele>3069.970703</ele>
<time>2011-04-24T04:41:18Z</time>
<desc>lat.=22.304279, lon.=103.775276, Alt.=3069.970703m. Speed=0.180000m/h.</desc>
<speed>0.050000</speed>
</trkpt>
<trkpt lat="22.304279" lon="103.775276">
<ele>3070.095703</ele>
<time>2011-04-24T04:41:23Z</time>
<desc>lat.=22.304279, lon.=103.775276, Alt.=3070.095703m. Speed=0.252000m/h.</desc>
<speed>0.070000</speed>
</trkpt>
<trkpt lat="22.304279" lon="103.775276">
<ele>3070.158203</ele>
<time>2011-04-24T04:41:28Z</time>
<desc>lat.=22.304279, lon.=103.775276, Alt.=3070.158203m. Speed=0.288000m/h.</desc>
<speed>0.080000</speed>
</trkpt>
<trkpt lat="22.304277" lon="103.775276">
<ele>3070.220703</ele>
<time>2011-04-24T04:41:33Z</time>
<desc>lat.=22.304277, lon.=103.775276, Alt.=3070.220703m. Speed=0.180000m/h.</desc>
<speed>0.050000</speed>
</trkpt>
<trkpt lat="22.304276" lon="103.775276">
<ele>3070.220703</ele>
<time>2011-04-24T04:41:38Z</time>
<desc>lat.=22.304276, lon.=103.775276, Alt.=3070.220703m. Speed=0.792000m/h.</desc>
<speed>0.220000</speed>
</trkpt>
<trkpt lat="22.304256" lon="103.775261">
<ele>3070.470703</ele>
<time>2011-04-24T04:41:43Z</time>
<desc>lat.=22.304256, lon.=103.775261, Alt.=3070.470703m. Speed=0.828000m/h.</desc>
<speed>0.230000</speed>
</trkpt>
<trkpt lat="22.304239" lon="103.775261">
<ele>3070.783203</ele>
<time>2011-04-24T04:41:48Z</time>
<desc>lat.=22.304239, lon.=103.775261, Alt.=3070.783203m. Speed=0.828000m/h.</desc>
<speed>0.230000</speed>
</trkpt>
<trkpt lat="22.304232" lon="103.775253">
<ele>3070.845703</ele>
<time>2011-04-24T04:41:53Z</time>
<desc>lat.=22.304232, lon.=103.775253, Alt.=3070.845703m. Speed=0.828000m/h.</desc>
<speed>0.230000</speed>
</trkpt>
<trkpt lat="22.304230" lon="103.775246">
<ele>3070.970703</ele>
<time>2011-04-24T04:41:58Z</time>
<desc>lat.=22.304230, lon.=103.775246, Alt.=3070.970703m. Speed=0.216000m/h.</desc>
<speed>0.060000</speed>
</trkpt>
<trkpt lat="22.304228" lon="103.775253">
<ele>3071.095703</ele>
<time>2011-04-24T04:42:03Z</time>
<desc>lat.=22.304228, lon.=103.775253, Alt.=3071.095703m. Speed=0.468000m/h.</desc>
<speed>0.130000</speed>
</trkpt>
<trkpt lat="22.304224" lon="103.775253">
<ele>3071.283203</ele>
<time>2011-04-24T04:42:08Z</time>
<desc>lat.=22.304224, lon.=103.775253, Alt.=3071.283203m. Speed=0.504000m/h.</desc>
<speed>0.140000</speed>
</trkpt>
<trkpt lat="22.304220" lon="103.775261">
<ele>3071.470703</ele>
<time>2011-04-24T04:42:13Z</time>
<desc>lat.=22.304220, lon.=103.775261, Alt.=3071.470703m. Speed=0.828000m/h.</desc>
<speed>0.230000</speed>
</trkpt>
<trkpt lat="22.304216" lon="103.775269">
<ele>3071.783203</ele>
<time>2011-04-24T04:42:18Z</time>
<desc>lat.=22.304216, lon.=103.775269, Alt.=3071.783203m. Speed=0.648000m/h.</desc>
<speed>0.180000</speed>
</trkpt>
<trkpt lat="22.304199" lon="103.775291">
<ele>3072.220703</ele>
<time>2011-04-24T04:42:23Z</time>
<desc>lat.=22.304199, lon.=103.775291, Alt.=3072.220703m. Speed=1.008000m/h.</desc>
<speed>0.280000</speed>
</trkpt>
<trkpt lat="22.304180" lon="103.775299">
<ele>3072.470703</ele>
<time>2011-04-24T04:42:28Z</time>
<desc>lat.=22.304180, lon.=103.775299, Alt.=3072.470703m. Speed=0.864000m/h.</desc>
<speed>0.240000</speed>
</trkpt>
<trkpt lat="22.304173" lon="103.775307">
<ele>3072.783203</ele>
<time>2011-04-24T04:42:33Z</time>
<desc>lat.=22.304173, lon.=103.775307, Alt.=3072.783203m. Speed=0.648000m/h.</desc>
<speed>0.180000</speed>
</trkpt>
<trkpt lat="22.304167" lon="103.775307">
<ele>3073.095703</ele>
<time>2011-04-24T04:42:38Z</time>
<desc>lat.=22.304167, lon.=103.775307, Alt.=3073.095703m. Speed=0.828000m/h.</desc>
<speed>0.230000</speed>
</trkpt>
<trkpt lat="22.304163" lon="103.775322">
<ele>3073.470703</ele>
<time>2011-04-24T04:42:43Z</time>
<desc>lat.=22.304163, lon.=103.775322, Alt.=3073.470703m. Speed=0.756000m/h.</desc>
<speed>0.210000</speed>
</trkpt>
<trkpt lat="22.304165" lon="103.775330">
<ele>3073.908203</ele>
<time>2011-04-24T04:42:48Z</time>
<desc>lat.=22.304165, lon.=103.775330, Alt.=3073.908203m. Speed=0.396000m/h.</desc>
<speed>0.110000</speed>
</trkpt>
<trkpt lat="22.304171" lon="103.775330">
<ele>3074.408203</ele>
<time>2011-04-24T04:42:53Z</time>
<desc>lat.=22.304171, lon.=103.775330, Alt.=3074.408203m. Speed=0.828000m/h.</desc>
<speed>0.230000</speed>
</trkpt>
<trkpt lat="22.304178" lon="103.775337">
<ele>3074.908203</ele>
<time>2011-04-24T04:42:58Z</time>
<desc>lat.=22.304178, lon.=103.775337, Alt.=3074.908203m. Speed=0.648000m/h.</desc>
<speed>0.180000</speed>
</trkpt>
<trkpt lat="22.304186" lon="103.775345">
<ele>3075.595703</ele>
<time>2011-04-24T04:43:03Z</time>
<desc>lat.=22.304186, lon.=103.775345, Alt.=3075.595703m. Speed=0.360000m/h.</desc>
<speed>0.100000</speed>
</trkpt>
<trkpt lat="22.304192" lon="103.775345">
<ele>3076.283203</ele>
<time>2011-04-24T04:43:08Z</time>
<desc>lat.=22.304192, lon.=103.775345, Alt.=3076.283203m. Speed=0.468000m/h.</desc>
<speed>0.130000</speed>
</trkpt>
<trkpt lat="22.304197" lon="103.775345">
<ele>3077.158203</ele>
<time>2011-04-24T04:43:13Z</time>
<desc>lat.=22.304197, lon.=103.775345, Alt.=3077.158203m. Speed=0.612000m/h.</desc>
<speed>0.170000</speed>
</trkpt>
<trkpt lat="22.304205" lon="103.775345">
<ele>3078.033203</ele>
<time>2011-04-24T04:43:18Z</time>
<desc>lat.=22.304205, lon.=103.775345, Alt.=3078.033203m. Speed=0.684000m/h.</desc>
<speed>0.190000</speed>
</trkpt>
<trkpt lat="22.304214" lon="103.775345">
<ele>3078.970703</ele>
<time>2011-04-24T04:43:23Z</time>
<desc>lat.=22.304214, lon.=103.775345, Alt.=3078.970703m. Speed=0.360000m/h.</desc>
<speed>0.100000</speed>
</trkpt>
<trkpt lat="22.304218" lon="103.775345">
<ele>3079.908203</ele>
<time>2011-04-24T04:43:28Z</time>
<desc>lat.=22.304218, lon.=103.775345, Alt.=3079.908203m. Speed=0.252000m/h.</desc>
<speed>0.070000</speed>
</trkpt>
<trkpt lat="22.304220" lon="103.775345">
<ele>3080.783203</ele>
<time>2011-04-24T04:43:33Z</time>
<desc>lat.=22.304220, lon.=103.775345, Alt.=3080.783203m. Speed=0.072000m/h.</desc>
<speed>0.020000</speed>
</trkpt>
<trkpt lat="22.304224" lon="103.775345">
<ele>3081.595703</ele>
<time>2011-04-24T04:43:38Z</time>
<desc>lat.=22.304224, lon.=103.775345, Alt.=3081.595703m. Speed=0.144000m/h.</desc>
<speed>0.040000</speed>
</trkpt>
<trkpt lat="22.304216" lon="103.775352">
<ele>3081.845703</ele>
<time>2011-04-24T04:43:43Z</time>
<desc>lat.=22.304216, lon.=103.775352, Alt.=3081.845703m. Speed=0.972000m/h.</desc>
<speed>0.270000</speed>
</trkpt>
<trkpt lat="22.304180" lon="103.775360">
<ele>3080.720703</ele>
<time>2011-04-24T04:43:48Z</time>
<desc>lat.=22.304180, lon.=103.775360, Alt.=3080.720703m. Speed=1.476000m/h.</desc>
<speed>0.410000</speed>
</trkpt>
<trkpt lat="22.304121" lon="103.775345">
<ele>3081.220703</ele>
<time>2011-04-24T04:43:53Z</time>
<desc>lat.=22.304121, lon.=103.775345, Alt.=3081.220703m. Speed=2.340000m/h.</desc>
<speed>0.650000</speed>
</trkpt>
<trkpt lat="22.304108" lon="103.775360">
<ele>3081.470703</ele>
<time>2011-04-24T04:43:58Z</time>
<desc>lat.=22.304108, lon.=103.775360, Alt.=3081.470703m. Speed=1.008000m/h.</desc>
<speed>0.280000</speed>
</trkpt>
<trkpt lat="22.304098" lon="103.775352">
<ele>3081.720703</ele>
<time>2011-04-24T04:44:03Z</time>
<desc>lat.=22.304098, lon.=103.775352, Alt.=3081.720703m. Speed=1.332000m/h.</desc>
<speed>0.370000</speed>
</trkpt>
<trkpt lat="22.304062" lon="103.775352">
<ele>3082.033203</ele>
<time>2011-04-24T04:44:08Z</time>
<desc>lat.=22.304062, lon.=103.775352, Alt.=3082.033203m. Speed=1.296000m/h.</desc>
<speed>0.360000</speed>
</trkpt>
<trkpt lat="22.304058" lon="103.775330">
<ele>3082.720703</ele>
<time>2011-04-24T04:44:13Z</time>
<desc>lat.=22.304058, lon.=103.775330, Alt.=3082.720703m. Speed=1.296000m/h.</desc>
<speed>0.360000</speed>
</trkpt>
<trkpt lat="22.304047" lon="103.775330">
<ele>3083.158203</ele>
<time>2011-04-24T04:44:18Z</time>
<desc>lat.=22.304047, lon.=103.775330, Alt.=3083.158203m. Speed=1.152000m/h.</desc>
<speed>0.320000</speed>
</trkpt>
<trkpt lat="22.304031" lon="103.775337">
<ele>3084.658203</ele>
<time>2011-04-24T04:44:23Z</time>
<desc>lat.=22.304031, lon.=103.775337, Alt.=3084.658203m. Speed=1.080000m/h.</desc>
<speed>0.300000</speed>
</trkpt>
<trkpt lat="22.304014" lon="103.775345">
<ele>3086.658203</ele>
<time>2011-04-24T04:44:28Z</time>
<desc>lat.=22.304014, lon.=103.775345, Alt.=3086.658203m. Speed=0.972000m/h.</desc>
<speed>0.270000</speed>
</trkpt>
<trkpt lat="22.303997" lon="103.775337">
<ele>3088.220703</ele>
<time>2011-04-24T04:44:33Z</time>
<desc>lat.=22.303997, lon.=103.775337, Alt.=3088.220703m. Speed=1.224000m/h.</desc>
<speed>0.340000</speed>
</trkpt>
<trkpt lat="22.303974" lon="103.775322">
<ele>3089.908203</ele>
<time>2011-04-24T04:44:38Z</time>
<desc>lat.=22.303974, lon.=103.775322, Alt.=3089.908203m. Speed=1.152000m/h.</desc>
<speed>0.320000</speed>
</trkpt>
<trkpt lat="22.303976" lon="103.775322">
<ele>3090.970703</ele>
<time>2011-04-24T04:44:43Z</time>
<desc>lat.=22.303976, lon.=103.775322, Alt.=3090.970703m. Speed=0.684000m/h.</desc>
<speed>0.190000</speed>
</trkpt>
<trkpt lat="22.303968" lon="103.775314">
<ele>3091.595703</ele>
<time>2011-04-24T04:44:48Z</time>
<desc>lat.=22.303968, lon.=103.775314, Alt.=3091.595703m. Speed=0.504000m/h.</desc>
<speed>0.140000</speed>
</trkpt>
<trkpt lat="22.303974" lon="103.775322">
<ele>3092.408203</ele>
<time>2011-04-24T04:44:53Z</time>
<desc>lat.=22.303974, lon.=103.775322, Alt.=3092.408203m. Speed=1.188000m/h.</desc>
<speed>0.330000</speed>
</trkpt>
<trkpt lat="22.304001" lon="103.775345">
<ele>3093.908203</ele>
<time>2011-04-24T04:44:58Z</time>
<desc>lat.=22.304001, lon.=103.775345, Alt.=3093.908203m. Speed=1.332000m/h.</desc>
<speed>0.370000</speed>
</trkpt>
<trkpt lat="22.304014" lon="103.775352">
<ele>3095.783203</ele>
<time>2011-04-24T04:45:03Z</time>
<desc>lat.=22.304014, lon.=103.775352, Alt.=3095.783203m. Speed=0.936000m/h.</desc>
<speed>0.260000</speed>
</trkpt>
<trkpt lat="22.304022" lon="103.775360">
<ele>3096.908203</ele>
<time>2011-04-24T04:45:08Z</time>
<desc>lat.=22.304022, lon.=103.775360, Alt.=3096.908203m. Speed=0.864000m/h.</desc>
<speed>0.240000</speed>
</trkpt>
<trkpt lat="22.304016" lon="103.775352">
<ele>3097.783203</ele>
<time>2011-04-24T04:45:13Z</time>
<desc>lat.=22.304016, lon.=103.775352, Alt.=3097.783203m. Speed=0.720000m/h.</desc>
<speed>0.200000</speed>
</trkpt>
<trkpt lat="22.304010" lon="103.775352">
<ele>3098.533203</ele>
<time>2011-04-24T04:45:18Z</time>
<desc>lat.=22.304010, lon.=103.775352, Alt.=3098.533203m. Speed=0.396000m/h.</desc>
<speed>0.110000</speed>
</trkpt>
<trkpt lat="22.304008" lon="103.775352">
<ele>3099.470703</ele>
<time>2011-04-24T04:45:23Z</time>
<desc>lat.=22.304008, lon.=103.775352, Alt.=3099.470703m. Speed=0.612000m/h.</desc>
<speed>0.170000</speed>
</trkpt>
<trkpt lat="22.303970" lon="103.775360">
<ele>3100.658203</ele>
<time>2011-04-24T04:45:28Z</time>
<desc>lat.=22.303970, lon.=103.775360, Alt.=3100.658203m. Speed=1.764000m/h.</desc>
<speed>0.490000</speed>
</trkpt>
<trkpt lat="22.303907" lon="103.775391">
<ele>3102.158203</ele>
<time>2011-04-24T04:45:33Z</time>
<desc>lat.=22.303907, lon.=103.775391, Alt.=3102.158203m. Speed=1.944000m/h.</desc>
<speed>0.540000</speed>
</trkpt>
<trkpt lat="22.303852" lon="103.775436">
<ele>3104.158203</ele>
<time>2011-04-24T04:45:38Z</time>
<desc>lat.=22.303852, lon.=103.775436, Alt.=3104.158203m. Speed=2.412000m/h.</desc>
<speed>0.670000</speed>
</trkpt>
<trkpt lat="22.303831" lon="103.775421">
<ele>3105.970703</ele>
<time>2011-04-24T04:45:43Z</time>
<desc>lat.=22.303831, lon.=103.775421, Alt.=3105.970703m. Speed=1.296000m/h.</desc>
<speed>0.360000</speed>
</trkpt>
<trkpt lat="22.303818" lon="103.775421">
<ele>3107.345703</ele>
<time>2011-04-24T04:45:48Z</time>
<desc>lat.=22.303818, lon.=103.775421, Alt.=3107.345703m. Speed=0.864000m/h.</desc>
<speed>0.240000</speed>
</trkpt>
<trkpt lat="22.303806" lon="103.775414">
<ele>3108.283203</ele>
<time>2011-04-24T04:45:53Z</time>
<desc>lat.=22.303806, lon.=103.775414, Alt.=3108.283203m. Speed=0.576000m/h.</desc>
<speed>0.160000</speed>
</trkpt>
<trkpt lat="22.303801" lon="103.775406">
<ele>3109.220703</ele>
<time>2011-04-24T04:45:58Z</time>
<desc>lat.=22.303801, lon.=103.775406, Alt.=3109.220703m. Speed=0.468000m/h.</desc>
<speed>0.130000</speed>
</trkpt>
<trkpt lat="22.303797" lon="103.775406">
<ele>3110.158203</ele>
<time>2011-04-24T04:46:03Z</time>
<desc>lat.=22.303797, lon.=103.775406, Alt.=3110.158203m. Speed=0.216000m/h.</desc>
<speed>0.060000</speed>
</trkpt>
<trkpt lat="22.303797" lon="103.775406">
<ele>3111.158203</ele>
<time>2011-04-24T04:46:08Z</time>
<desc>lat.=22.303797, lon.=103.775406, Alt.=3111.158203m. Speed=0.216000m/h.</desc>
<speed>0.060000</speed>
</trkpt>
<trkpt lat="22.303793" lon="103.775406">
<ele>3112.158203</ele>
<time>2011-04-24T04:46:13Z</time>
<desc>lat.=22.303793, lon.=103.775406, Alt.=3112.158203m. Speed=0.288000m/h.</desc>
<speed>0.080000</speed>
</trkpt>
<trkpt lat="22.303789" lon="103.775421">
<ele>3111.470703</ele>
<time>2011-04-24T04:46:18Z</time>
<desc>lat.=22.303789, lon.=103.775421, Alt.=3111.470703m. Speed=0.900000m/h.</desc>
<speed>0.250000</speed>
</trkpt>
<trkpt lat="22.303787" lon="103.775429">
<ele>3111.283203</ele>
<time>2011-04-24T04:46:23Z</time>
<desc>lat.=22.303787, lon.=103.775429, Alt.=3111.283203m. Speed=0.504000m/h.</desc>
<speed>0.140000</speed>
</trkpt>
<trkpt lat="22.303785" lon="103.775452">
<ele>3111.283203</ele>
<time>2011-04-24T04:46:28Z</time>
<desc>lat.=22.303785, lon.=103.775452, Alt.=3111.283203m. Speed=0.684000m/h.</desc>
<speed>0.190000</speed>
</trkpt>
<trkpt lat="22.303782" lon="103.775467">
<ele>3111.220703</ele>
<time>2011-04-24T04:46:33Z</time>
<desc>lat.=22.303782, lon.=103.775467, Alt.=3111.220703m. Speed=0.648000m/h.</desc>
<speed>0.180000</speed>
</trkpt>
<trkpt lat="22.303753" lon="103.775459">
<ele>3111.158203</ele>
<time>2011-04-24T04:46:38Z</time>
<desc>lat.=22.303753, lon.=103.775459, Alt.=3111.158203m. Speed=2.016000m/h.</desc>
<speed>0.560000</speed>
</trkpt>
<trkpt lat="22.303722" lon="103.775452">
<ele>3111.033203</ele>
<time>2011-04-24T04:46:43Z</time>
<desc>lat.=22.303722, lon.=103.775452, Alt.=3111.033203m. Speed=1.116000m/h.</desc>
<speed>0.310000</speed>
</trkpt>
<trkpt lat="22.303688" lon="103.775444">
<ele>3111.033203</ele>
<time>2011-04-24T04:46:48Z</time>
<desc>lat.=22.303688, lon.=103.775444, Alt.=3111.033203m. Speed=1.440000m/h.</desc>
<speed>0.400000</speed>
</trkpt>
<trkpt lat="22.303667" lon="103.775459">
<ele>3110.408203</ele>
<time>2011-04-24T04:46:53Z</time>
<desc>lat.=22.303667, lon.=103.775459, Alt.=3110.408203m. Speed=1.116000m/h.</desc>
<speed>0.310000</speed>
</trkpt>
<trkpt lat="22.303640" lon="103.775459">
<ele>3110.720703</ele>
<time>2011-04-24T04:46:58Z</time>
<desc>lat.=22.303640, lon.=103.775459, Alt.=3110.720703m. Speed=1.332000m/h.</desc>
<speed>0.370000</speed>
</trkpt>
<trkpt lat="22.303623" lon="103.775482">
<ele>3110.533203</ele>
<time>2011-04-24T04:47:03Z</time>
<desc>lat.=22.303623, lon.=103.775482, Alt.=3110.533203m. Speed=0.900000m/h.</desc>
<speed>0.250000</speed>
</trkpt>
<trkpt lat="22.303631" lon="103.775482">
<ele>3110.283203</ele>
<time>2011-04-24T04:47:08Z</time>
<desc>lat.=22.303631, lon.=103.775482, Alt.=3110.283203m. Speed=0.252000m/h.</desc>
<speed>0.070000</speed>
</trkpt>
<trkpt lat="22.303602" lon="103.775505">
<ele>3111.595703</ele>
<time>2011-04-24T04:47:13Z</time>
<desc>lat.=22.303602, lon.=103.775505, Alt.=3111.595703m. Speed=1.224000m/h.</desc>
<speed>0.340000</speed>
</trkpt>
<trkpt lat="22.303589" lon="103.775490">
<ele>3112.595703</ele>
<time>2011-04-24T04:47:18Z</time>
<desc>lat.=22.303589, lon.=103.775490, Alt.=3112.595703m. Speed=1.152000m/h.</desc>
<speed>0.320000</speed>
</trkpt>
<trkpt lat="22.303579" lon="103.775490">
<ele>3113.033203</ele>
<time>2011-04-24T04:47:23Z</time>
<desc>lat.=22.303579, lon.=103.775490, Alt.=3113.033203m. Speed=0.792000m/h.</desc>
<speed>0.220000</speed>
</trkpt>
<trkpt lat="22.303572" lon="103.775513">
<ele>3114.783203</ele>
<time>2011-04-24T04:47:28Z</time>
<desc>lat.=22.303572, lon.=103.775513, Alt.=3114.783203m. Speed=1.548000m/h.</desc>
<speed>0.430000</speed>
</trkpt>
<trkpt lat="22.303593" lon="103.775528">
<ele>3115.720703</ele>
<time>2011-04-24T04:47:33Z</time>
<desc>lat.=22.303593, lon.=103.775528, Alt.=3115.720703m. Speed=0.432000m/h.</desc>
<speed>0.120000</speed>
</trkpt>
<trkpt lat="22.303595" lon="103.775520">
<ele>3115.845703</ele>
<time>2011-04-24T04:47:38Z</time>
<desc>lat.=22.303595, lon.=103.775520, Alt.=3115.845703m. Speed=0.396000m/h.</desc>
<speed>0.110000</speed>
</trkpt>
<trkpt lat="22.303591" lon="103.775520">
<ele>3115.533203</ele>
<time>2011-04-24T04:47:43Z</time>
<desc>lat.=22.303591, lon.=103.775520, Alt.=3115.533203m. Speed=0.576000m/h.</desc>
<speed>0.160000</speed>
</trkpt>
<trkpt lat="22.303589" lon="103.775520">
<ele>3115.595703</ele>
<time>2011-04-24T04:47:48Z</time>
<desc>lat.=22.303589, lon.=103.775520, Alt.=3115.595703m. Speed=0.108000m/h.</desc>
<speed>0.030000</speed>
</trkpt>
<trkpt lat="22.303589" lon="103.775520">
<ele>3115.595703</ele>
<time>2011-04-24T04:47:53Z</time>
<desc>lat.=22.303589, lon.=103.775520, Alt.=3115.595703m. Speed=0.324000m/h.</desc>
<speed>0.090000</speed>
</trkpt>
<trkpt lat="22.303589" lon="103.775520">
<ele>3115.595703</ele>
<time>2011-04-24T04:47:58Z</time>
<desc>lat.=22.303589, lon.=103.775520, Alt.=3115.595703m. Speed=0.144000m/h.</desc>
<speed>0.040000</speed>
</trkpt>
<trkpt lat="22.303589" lon="103.775520">
<ele>3115.595703</ele>
<time>2011-04-24T04:48:03Z</time>
<desc>lat.=22.303589, lon.=103.775520, Alt.=3115.595703m. Speed=0.072000m/h.</desc>
<speed>0.020000</speed>
</trkpt>
<trkpt lat="22.303589" lon="103.775520">
<ele>3115.658203</ele>
<time>2011-04-24T04:48:08Z</time>
<desc>lat.=22.303589, lon.=103.775520, Alt.=3115.658203m. Speed=0.540000m/h.</desc>
<speed>0.150000</speed>
</trkpt>
<trkpt lat="22.303587" lon="103.775513">
<ele>3115.658203</ele>
<time>2011-04-24T04:48:13Z</time>
<desc>lat.=22.303587, lon.=103.775513, Alt.=3115.658203m. Speed=1.404000m/h.</desc>
<speed>0.390000</speed>
</trkpt>
<trkpt lat="22.303574" lon="103.775482">
<ele>3116.095703</ele>
<time>2011-04-24T04:48:18Z</time>
<desc>lat.=22.303574, lon.=103.775482, Alt.=3116.095703m. Speed=1.908000m/h.</desc>
<speed>0.530000</speed>
</trkpt>
<trkpt lat="22.303570" lon="103.775467">
<ele>3117.158203</ele>
<time>2011-04-24T04:48:23Z</time>
<desc>lat.=22.303570, lon.=103.775467, Alt.=3117.158203m. Speed=0.360000m/h.</desc>
<speed>0.100000</speed>
</trkpt>
<trkpt lat="22.303566" lon="103.775452">
<ele>3117.970703</ele>
<time>2011-04-24T04:48:28Z</time>
<desc>lat.=22.303566, lon.=103.775452, Alt.=3117.970703m. Speed=0.576000m/h.</desc>
<speed>0.160000</speed>
</trkpt>
<trkpt lat="22.303560" lon="103.775444">
<ele>3118.158203</ele>
<time>2011-04-24T04:48:33Z</time>
<desc>lat.=22.303560, lon.=103.775444, Alt.=3118.158203m. Speed=1.332000m/h.</desc>
<speed>0.370000</speed>
</trkpt>
<trkpt lat="22.303543" lon="103.775444">
<ele>3119.095703</ele>
<time>2011-04-24T04:48:38Z</time>
<desc>lat.=22.303543, lon.=103.775444, Alt.=3119.095703m. Speed=1.080000m/h.</desc>
<speed>0.300000</speed>
</trkpt>
<trkpt lat="22.303549" lon="103.775452">
<ele>3119.220703</ele>
<time>2011-04-24T04:48:43Z</time>
<desc>lat.=22.303549, lon.=103.775452, Alt.=3119.220703m. Speed=0.612000m/h.</desc>
<speed>0.170000</speed>
</trkpt>
<trkpt lat="22.303532" lon="103.775444">
<ele>3119.783203</ele>
<time>2011-04-24T04:48:48Z</time>
<desc>lat.=22.303532, lon.=103.775444, Alt.=3119.783203m. Speed=1.512000m/h.</desc>
<speed>0.420000</speed>
</trkpt>
<trkpt lat="22.303522" lon="103.775436">
<ele>3120.408203</ele>
<time>2011-04-24T04:48:53Z</time>
<desc>lat.=22.303522, lon.=103.775436, Alt.=3120.408203m. Speed=0.828000m/h.</desc>
<speed>0.230000</speed>
</trkpt>
<trkpt lat="22.303513" lon="103.775444">
<ele>3120.908203</ele>
<time>2011-04-24T04:48:58Z</time>
<desc>lat.=22.303513, lon.=103.775444, Alt.=3120.908203m. Speed=0.540000m/h.</desc>
<speed>0.150000</speed>
</trkpt>
<trkpt lat="22.303513" lon="103.775444">
<ele>3121.720703</ele>
<time>2011-04-24T04:49:03Z</time>
<desc>lat.=22.303513, lon.=103.775444, Alt.=3121.720703m. Speed=1.008000m/h.</desc>
<speed>0.280000</speed>
</trkpt>
<trkpt lat="22.303518" lon="103.775436">
<ele>3122.158203</ele>
<time>2011-04-24T04:49:08Z</time>
<desc>lat.=22.303518, lon.=103.775436, Alt.=3122.158203m. Speed=0.180000m/h.</desc>
<speed>0.050000</speed>
</trkpt>
<trkpt lat="22.303488" lon="103.775406">
<ele>3121.658203</ele>
<time>2011-04-24T04:49:13Z</time>
<desc>lat.=22.303488, lon.=103.775406, Alt.=3121.658203m. Speed=1.728000m/h.</desc>
<speed>0.480000</speed>
</trkpt>
<trkpt lat="22.303482" lon="103.775368">
<ele>3121.783203</ele>
<time>2011-04-24T04:49:18Z</time>
<desc>lat.=22.303482, lon.=103.775368, Alt.=3121.783203m. Speed=1.620000m/h.</desc>
<speed>0.450000</speed>
</trkpt>
<trkpt lat="22.303469" lon="103.775345">
<ele>3122.158203</ele>
<time>2011-04-24T04:49:23Z</time>
<desc>lat.=22.303469, lon.=103.775345, Alt.=3122.158203m. Speed=0.756000m/h.</desc>
<speed>0.210000</speed>
</trkpt>
<trkpt lat="22.303450" lon="103.775330">
<ele>3122.408203</ele>
<time>2011-04-24T04:49:28Z</time>
<desc>lat.=22.303450, lon.=103.775330, Alt.=3122.408203m. Speed=0.900000m/h.</desc>
<speed>0.250000</speed>
</trkpt>
<trkpt lat="22.303448" lon="103.775307">
<ele>3123.095703</ele>
<time>2011-04-24T04:49:33Z</time>
<desc>lat.=22.303448, lon.=103.775307, Alt.=3123.095703m. Speed=2.016000m/h.</desc>
<speed>0.560000</speed>
</trkpt>
<trkpt lat="22.303455" lon="103.775269">
<ele>3123.283203</ele>
<time>2011-04-24T04:49:38Z</time>
<desc>lat.=22.303455, lon.=103.775269, Alt.=3123.283203m. Speed=0.828000m/h.</desc>
<speed>0.230000</speed>
</trkpt>
<trkpt lat="22.303455" lon="103.775238">
<ele>3124.095703</ele>
<time>2011-04-24T04:49:43Z</time>
<desc>lat.=22.303455, lon.=103.775238, Alt.=3124.095703m. Speed=1.836000m/h.</desc>
<speed>0.510000</speed>
</trkpt>
<trkpt lat="22.303442" lon="103.775200">
<ele>3124.783203</ele>
<time>2011-04-24T04:49:48Z</time>
<desc>lat.=22.303442, lon.=103.775200, Alt.=3124.783203m. Speed=1.152000m/h.</desc>
<speed>0.320000</speed>
</trkpt>
<trkpt lat="22.303427" lon="103.775185">
<ele>3125.970703</ele>
<time>2011-04-24T04:49:53Z</time>
<desc>lat.=22.303427, lon.=103.775185, Alt.=3125.970703m. Speed=1.836000m/h.</desc>
<speed>0.510000</speed>
</trkpt>
<trkpt lat="22.303413" lon="103.775177">
<ele>3127.095703</ele>
<time>2011-04-24T04:49:58Z</time>
<desc>lat.=22.303413, lon.=103.775177, Alt.=3127.095703m. Speed=0.432000m/h.</desc>
<speed>0.120000</speed>
</trkpt>
<trkpt lat="22.303411" lon="103.775177">
<ele>3127.470703</ele>
<time>2011-04-24T04:50:03Z</time>
<desc>lat.=22.303411, lon.=103.775177, Alt.=3127.470703m. Speed=1.260000m/h.</desc>
<speed>0.350000</speed>
</trkpt>
<trkpt lat="22.303411" lon="103.775146">
<ele>3127.970703</ele>
<time>2011-04-24T04:50:08Z</time>
<desc>lat.=22.303411, lon.=103.775146, Alt.=3127.970703m. Speed=2.700000m/h.</desc>
<speed>0.750000</speed>
</trkpt>
<trkpt lat="22.303415" lon="103.775131">
<ele>3128.033203</ele>
<time>2011-04-24T04:50:13Z</time>
<desc>lat.=22.303415, lon.=103.775131, Alt.=3128.033203m. Speed=0.360000m/h.</desc>
<speed>0.100000</speed>
</trkpt>
<trkpt lat="22.303408" lon="103.775131">
<ele>3127.408203</ele>
<time>2011-04-24T04:50:18Z</time>
<desc>lat.=22.303408, lon.=103.775131, Alt.=3127.408203m. Speed=0.000000m/h.</desc>
<speed>0.000000</speed>
</trkpt>
<trkpt lat="22.303408" lon="103.775131">
<ele>3127.408203</ele>
<time>2011-04-24T04:50:23Z</time>
<desc>lat.=22.303408, lon.=103.775131, Alt.=3127.408203m. Speed=0.000000m/h.</desc>
<speed>0.000000</speed>
</trkpt>
<trkpt lat="22.303408" lon="103.775131">
<ele>3127.345703</ele>
<time>2011-04-24T04:50:28Z</time>
<desc>lat.=22.303408, lon.=103.775131, Alt.=3127.345703m. Speed=0.036000m/h.</desc>
<speed>0.010000</speed>
</trkpt>
<trkpt lat="22.303408" lon="103.775124">
<ele>3127.470703</ele>
<time>2011-04-24T04:50:33Z</time>
<desc>lat.=22.303408, lon.=103.775124, Alt.=3127.470703m. Speed=0.000000m/h.</desc>
<speed>0.000000</speed>
</trkpt>
<trkpt lat="22.303408" lon="103.775124">
<ele>3127.470703</ele>
<time>2011-04-24T04:50:38Z</time>
<desc>lat.=22.303408, lon.=103.775124, Alt.=3127.470703m. Speed=0.036000m/h.</desc>
<speed>0.010000</speed>
</trkpt>
<trkpt lat="22.303410" lon="103.775131">
<ele>3128.220703</ele>
<time>2011-04-24T04:50:43Z</time>
<desc>lat.=22.303410, lon.=103.775131, Alt.=3128.220703m. Speed=1.260000m/h.</desc>
<speed>0.350000</speed>
</trkpt>
<trkpt lat="22.303411" lon="103.775154">
<ele>3130.845703</ele>
<time>2011-04-24T04:50:48Z</time>
<desc>lat.=22.303411, lon.=103.775154, Alt.=3130.845703m. Speed=2.340000m/h.</desc>
<speed>0.650000</speed>
</trkpt>
<trkpt lat="22.303425" lon="103.775185">
<ele>3132.095703</ele>
<time>2011-04-24T04:50:53Z</time>
<desc>lat.=22.303425, lon.=103.775185, Alt.=3132.095703m. Speed=3.168000m/h.</desc>
<speed>0.880000</speed>
</trkpt>
<trkpt lat="22.303377" lon="103.775192">
<ele>3134.158203</ele>
<time>2011-04-24T04:50:58Z</time>
<desc>lat.=22.303377, lon.=103.775192, Alt.=3134.158203m. Speed=1.728000m/h.</desc>
<speed>0.480000</speed>
</trkpt>
<trkpt lat="22.303364" lon="103.775177">
<ele>3135.408203</ele>
<time>2011-04-24T04:51:03Z</time>
<desc>lat.=22.303364, lon.=103.775177, Alt.=3135.408203m. Speed=1.764000m/h.</desc>
<speed>0.490000</speed>
</trkpt>
<trkpt lat="22.303347" lon="103.775200">
<ele>3135.845703</ele>
<time>2011-04-24T04:51:08Z</time>
<desc>lat.=22.303347, lon.=103.775200, Alt.=3135.845703m. Speed=2.412000m/h.</desc>
<speed>0.670000</speed>
</trkpt>
<trkpt lat="22.303322" lon="103.775246">
<ele>3136.595703</ele>
<time>2011-04-24T04:51:13Z</time>
<desc>lat.=22.303322, lon.=103.775246, Alt.=3136.595703m. Speed=5.076000m/h.</desc>
<speed>1.410000</speed>
</trkpt>
<trkpt lat="22.303288" lon="103.775246">
<ele>3136.908203</ele>
<time>2011-04-24T04:51:18Z</time>
<desc>lat.=22.303288, lon.=103.775246, Alt.=3136.908203m. Speed=3.096000m/h.</desc>
<speed>0.860000</speed>
</trkpt>
<trkpt lat="22.303246" lon="103.775253">
<ele>3137.658203</ele>
<time>2011-04-24T04:51:23Z</time>
<desc>lat.=22.303246, lon.=103.775253, Alt.=3137.658203m. Speed=3.852000m/h.</desc>
<speed>1.070000</speed>
</trkpt>
<trkpt lat="22.303217" lon="103.775261">
<ele>3139.908203</ele>
<time>2011-04-24T04:51:28Z</time>
<desc>lat.=22.303217, lon.=103.775261, Alt.=3139.908203m. Speed=2.520000m/h.</desc>
<speed>0.700000</speed>
</trkpt>
<trkpt lat="22.303200" lon="103.775276">
<ele>3141.095703</ele>
<time>2011-04-24T04:51:33Z</time>
<desc>lat.=22.303200, lon.=103.775276, Alt.=3141.095703m. Speed=1.044000m/h.</desc>
<speed>0.290000</speed>
</trkpt>
<trkpt lat="22.303192" lon="103.775276">
<ele>3140.595703</ele>
<time>2011-04-24T04:51:38Z</time>
<desc>lat.=22.303192, lon.=103.775276, Alt.=3140.595703m. Speed=1.368000m/h.</desc>
<speed>0.380000</speed>
</trkpt>
<trkpt lat="22.303194" lon="103.775284">
<ele>3140.595703</ele>
<time>2011-04-24T04:51:43Z</time>
<desc>lat.=22.303194, lon.=103.775284, Alt.=3140.595703m. Speed=0.000000m/h.</desc>
<speed>0.000000</speed>
</trkpt>
<trkpt lat="22.303194" lon="103.775284">
<ele>3140.533203</ele>
<time>2011-04-24T04:51:48Z</time>
<desc>lat.=22.303194, lon.=103.775284, Alt.=3140.533203m. Speed=1.296000m/h.</desc>
<speed>0.360000</speed>
</trkpt>
<trkpt lat="22.303209" lon="103.775269">
<ele>3140.220703</ele>
<time>2011-04-24T04:51:53Z</time>
<desc>lat.=22.303209, lon.=103.775269, Alt.=3140.220703m. Speed=0.648000m/h.</desc>
<speed>0.180000</speed>
</trkpt>
<trkpt lat="22.303213" lon="103.775261">
<ele>3139.720703</ele>
<time>2011-04-24T04:51:58Z</time>
<desc>lat.=22.303213, lon.=103.775261, Alt.=3139.720703m. Speed=0.720000m/h.</desc>
<speed>0.200000</speed>
</trkpt>
<trkpt lat="22.303226" lon="103.775253">
<ele>3140.720703</ele>
<time>2011-04-24T04:52:03Z</time>
<desc>lat.=22.303226, lon.=103.775253, Alt.=3140.720703m. Speed=3.420000m/h.</desc>
<speed>0.950000</speed>
</trkpt>
<trkpt lat="22.303244" lon="103.775230">
<ele>3141.470703</ele>
<time>2011-04-24T04:52:08Z</time>
<desc>lat.=22.303244, lon.=103.775230, Alt.=3141.470703m. Speed=1.692000m/h.</desc>
<speed>0.470000</speed>
</trkpt>
<trkpt lat="22.303247" lon="103.775208">
<ele>3141.720703</ele>
<time>2011-04-24T04:52:13Z</time>
<desc>lat.=22.303247, lon.=103.775208, Alt.=3141.720703m. Speed=2.196000m/h.</desc>
<speed>0.610000</speed>
</trkpt>
<trkpt lat="22.303226" lon="103.775200">
<ele>3142.095703</ele>
<time>2011-04-24T04:52:18Z</time>
<desc>lat.=22.303226, lon.=103.775200, Alt.=3142.095703m. Speed=0.252000m/h.</desc>
<speed>0.070000</speed>
</trkpt>
<trkpt lat="22.303226" lon="103.775192">
<ele>3142.533203</ele>
<time>2011-04-24T04:52:23Z</time>
<desc>lat.=22.303226, lon.=103.775192, Alt.=3142.533203m. Speed=0.036000m/h.</desc>
<speed>0.010000</speed>
</trkpt>
<trkpt lat="22.303223" lon="103.775200">
<ele>3143.220703</ele>
<time>2011-04-24T04:52:28Z</time>
<desc>lat.=22.303223, lon.=103.775200, Alt.=3143.220703m. Speed=2.700000m/h.</desc>
<speed>0.750000</speed>
</trkpt>
<trkpt lat="22.303226" lon="103.775192">
<ele>3143.158203</ele>
<time>2011-04-24T04:52:33Z</time>
<desc>lat.=22.303226, lon.=103.775192, Alt.=3143.158203m. Speed=0.288000m/h.</desc>
<speed>0.080000</speed>
</trkpt>
<trkpt lat="22.303226" lon="103.775185">
<ele>3143.158203</ele>
<time>2011-04-24T04:52:38Z</time>
<desc>lat.=22.303226, lon.=103.775185, Alt.=3143.158203m. Speed=0.216000m/h.</desc>
<speed>0.060000</speed>
</trkpt>
<trkpt lat="22.303226" lon="103.775192">
<ele>3143.033203</ele>
<time>2011-04-24T04:52:43Z</time>
<desc>lat.=22.303226, lon.=103.775192, Alt.=3143.033203m. Speed=0.252000m/h.</desc>
<speed>0.070000</speed>
</trkpt>
<trkpt lat="22.303226" lon="103.775192">
<ele>3143.033203</ele>
<time>2011-04-24T04:52:48Z</time>
<desc>lat.=22.303226, lon.=103.775192, Alt.=3143.033203m. Speed=0.036000m/h.</desc>
<speed>0.010000</speed>
</trkpt>
<trkpt lat="22.303226" lon="103.775192">
<ele>3143.095703</ele>
<time>2011-04-24T04:52:53Z</time>
<desc>lat.=22.303226, lon.=103.775192, Alt.=3143.095703m. Speed=0.072000m/h.</desc>
<speed>0.020000</speed>
</trkpt>
<trkpt lat="22.303225" lon="103.775192">
<ele>3143.158203</ele>
<time>2011-04-24T04:52:58Z</time>
<desc>lat.=22.303225, lon.=103.775192, Alt.=3143.158203m. Speed=0.108000m/h.</desc>
<speed>0.030000</speed>
</trkpt>
<trkpt lat="22.303225" lon="103.775192">
<ele>3143.095703</ele>
<time>2011-04-24T04:53:03Z</time>
<desc>lat.=22.303225, lon.=103.775192, Alt.=3143.095703m. Speed=0.072000m/h.</desc>
<speed>0.020000</speed>
</trkpt>
<trkpt lat="22.303225" lon="103.775192">
<ele>3143.095703</ele>
<time>2011-04-24T04:53:08Z</time>
<desc>lat.=22.303225, lon.=103.775192, Alt.=3143.095703m. Speed=0.000000m/h.</desc>
<speed>0.000000</speed>
</trkpt>
<trkpt lat="22.303225" lon="103.775192">
<ele>3143.033203</ele>
<time>2011-04-24T04:53:13Z</time>
<desc>lat.=22.303225, lon.=103.775192, Alt.=3143.033203m. Speed=0.000000m/h.</desc>
<speed>0.000000</speed>
</trkpt>
<trkpt lat="22.303225" lon="103.775192">
<ele>3143.033203</ele>
<time>2011-04-24T04:53:18Z</time>
<desc>lat.=22.303225, lon.=103.775192, Alt.=3143.033203m. Speed=0.000000m/h.</desc>
<speed>0.000000</speed>
</trkpt>
<trkpt lat="22.303225" lon="103.775192">
<ele>3143.033203</ele>
<time>2011-04-24T04:53:23Z</time>
<desc>lat.=22.303225, lon.=103.775192, Alt.=3143.033203m. Speed=0.036000m/h.</desc>
<speed>0.010000</speed>
</trkpt>
<trkpt lat="22.303225" lon="103.775192">
<ele>3142.970703</ele>
<time>2011-04-24T04:53:28Z</time>
<desc>lat.=22.303225, lon.=103.775192, Alt.=3142.970703m. Speed=0.396000m/h.</desc>
<speed>0.110000</speed>
</trkpt>
<trkpt lat="22.303226" lon="103.775192">
<ele>3142.970703</ele>
<time>2011-04-24T04:53:33Z</time>
<desc>lat.=22.303226, lon.=103.775192, Alt.=3142.970703m. Speed=0.036000m/h.</desc>
<speed>0.010000</speed>
</trkpt>
<trkpt lat="22.303228" lon="103.775185">
<ele>3142.845703</ele>
<time>2011-04-24T04:53:38Z</time>
<desc>lat.=22.303228, lon.=103.775185, Alt.=3142.845703m. Speed=1.116000m/h.</desc>
<speed>0.310000</speed>
</trkpt>
<trkpt lat="22.303228" lon="103.775185">
<ele>3142.783203</ele>
<time>2011-04-24T04:53:43Z</time>
<desc>lat.=22.303228, lon.=103.775185, Alt.=3142.783203m. Speed=0.432000m/h.</desc>
<speed>0.120000</speed>
</trkpt>
<trkpt lat="22.303230" lon="103.775185">
<ele>3142.533203</ele>
<time>2011-04-24T04:53:48Z</time>
<desc>lat.=22.303230, lon.=103.775185, Alt.=3142.533203m. Speed=0.792000m/h.</desc>
<speed>0.220000</speed>
</trkpt>
<trkpt lat="22.303232" lon="103.775185">
<ele>3142.533203</ele>
<time>2011-04-24T04:53:53Z</time>
<desc>lat.=22.303232, lon.=103.775185, Alt.=3142.533203m. Speed=0.684000m/h.</desc>
<speed>0.190000</speed>
</trkpt>
<trkpt lat="22.303234" lon="103.775177">
<ele>3142.408203</ele>
<time>2011-04-24T04:53:58Z</time>
<desc>lat.=22.303234, lon.=103.775177, Alt.=3142.408203m. Speed=0.648000m/h.</desc>
<speed>0.180000</speed>
</trkpt>
<trkpt lat="22.303232" lon="103.775177">
<ele>3142.408203</ele>
<time>2011-04-24T04:54:03Z</time>
<desc>lat.=22.303232, lon.=103.775177, Alt.=3142.408203m. Speed=0.000000m/h.</desc>
<speed>0.000000</speed>
</trkpt>
<trkpt lat="22.303232" lon="103.775177">
<ele>3142.408203</ele>
<time>2011-04-24T04:54:08Z</time>
<desc>lat.=22.303232, lon.=103.775177, Alt.=3142.408203m. Speed=0.108000m/h.</desc>
<speed>0.030000</speed>
</trkpt>
<trkpt lat="22.303232" lon="103.775177">
<ele>3142.470703</ele>
<time>2011-04-24T04:54:13Z</time>
<desc>lat.=22.303232, lon.=103.775177, Alt.=3142.470703m. Speed=0.072000m/h.</desc>
<speed>0.020000</speed>
</trkpt>
<trkpt lat="22.303232" lon="103.775177">
<ele>3142.533203</ele>
<time>2011-04-24T04:54:18Z</time>
<desc>lat.=22.303232, lon.=103.775177, Alt.=3142.533203m. Speed=0.000000m/h.</desc>
<speed>0.000000</speed>
</trkpt>
<trkpt lat="22.303232" lon="103.775177">
<ele>3142.533203</ele>
<time>2011-04-24T04:54:23Z</time>
<desc>lat.=22.303232, lon.=103.775177, Alt.=3142.533203m. Speed=0.108000m/h.</desc>
<speed>0.030000</speed>
</trkpt>
<trkpt lat="22.303232" lon="103.775177">
<ele>3142.533203</ele>
<time>2011-04-24T04:54:28Z</time>
<desc>lat.=22.303232, lon.=103.775177, Alt.=3142.533203m. Speed=0.252000m/h.</desc>
<speed>0.070000</speed>
</trkpt>
<trkpt lat="22.303228" lon="103.775177">
<ele>3142.595703</ele>
<time>2011-04-24T04:54:33Z</time>
<desc>lat.=22.303228, lon.=103.775177, Alt.=3142.595703m. Speed=0.036000m/h.</desc>
<speed>0.010000</speed>
</trkpt>
<trkpt lat="22.303228" lon="103.775177">
<ele>3142.658203</ele>
<time>2011-04-24T04:54:38Z</time>
<desc>lat.=22.303228, lon.=103.775177, Alt.=3142.658203m. Speed=0.036000m/h.</desc>
<speed>0.010000</speed>
</trkpt>
<trkpt lat="22.303228" lon="103.775177">
<ele>3142.658203</ele>
<time>2011-04-24T04:54:43Z</time>
<desc>lat.=22.303228, lon.=103.775177, Alt.=3142.658203m. Speed=0.000000m/h.</desc>
<speed>0.000000</speed>
</trkpt>
<trkpt lat="22.303230" lon="103.775177">
<ele>3142.720703</ele>
<time>2011-04-24T04:54:48Z</time>
<desc>lat.=22.303230, lon.=103.775177, Alt.=3142.720703m. Speed=0.108000m/h.</desc>
<speed>0.030000</speed>
</trkpt>
<trkpt lat="22.303230" lon="103.775177">
<ele>3142.720703</ele>
<time>2011-04-24T04:54:53Z</time>
<desc>lat.=22.303230, lon.=103.775177, Alt.=3142.720703m. Speed=0.180000m/h.</desc>
<speed>0.050000</speed>
</trkpt>
<trkpt lat="22.303230" lon="103.775177">
<ele>3142.720703</ele>
<time>2011-04-24T04:54:58Z</time>
<desc>lat.=22.303230, lon.=103.775177, Alt.=3142.720703m. Speed=0.864000m/h.</desc>
<speed>0.240000</speed>
</trkpt>
<trkpt lat="22.303234" lon="103.775177">
<ele>3142.783203</ele>
<time>2011-04-24T04:55:03Z</time>
<desc>lat.=22.303234, lon.=103.775177, Alt.=3142.783203m. Speed=0.036000m/h.</desc>
<speed>0.010000</speed>
</trkpt>
<trkpt lat="22.303234" lon="103.775177">
<ele>3142.783203</ele>
<time>2011-04-24T04:55:08Z</time>
<desc>lat.=22.303234, lon.=103.775177, Alt.=3142.783203m. Speed=0.000000m/h.</desc>
<speed>0.000000</speed>
</trkpt>
<trkpt lat="22.303234" lon="103.775177">
<ele>3142.845703</ele>
<time>2011-04-24T04:55:13Z</time>
<desc>lat.=22.303234, lon.=103.775177, Alt.=3142.845703m. Speed=0.000000m/h.</desc>
<speed>0.000000</speed>
</trkpt>
<trkpt lat="22.303234" lon="103.775177">
<ele>3142.845703</ele>
<time>2011-04-24T04:55:18Z</time>
<desc>lat.=22.303234, lon.=103.775177, Alt.=3142.845703m. Speed=0.072000m/h.</desc>
<speed>0.020000</speed>
</trkpt>
<trkpt lat="22.303234" lon="103.775177">
<ele>3142.845703</ele>
<time>2011-04-24T04:55:23Z</time>
<desc>lat.=22.303234, lon.=103.775177, Alt.=3142.845703m. Speed=0.072000m/h.</desc>
<speed>0.020000</speed>
</trkpt>
<trkpt lat="22.303234" lon="103.775177">
<ele>3142.908203</ele>
<time>2011-04-24T04:55:28Z</time>
<desc>lat.=22.303234, lon.=103.775177, Alt.=3142.908203m. Speed=0.036000m/h.</desc>
<speed>0.010000</speed>
</trkpt>
<trkpt lat="22.303234" lon="103.775177">
<ele>3142.908203</ele>
<time>2011-04-24T04:55:33Z</time>
<desc>lat.=22.303234, lon.=103.775177, Alt.=3142.908203m. Speed=0.288000m/h.</desc>
<speed>0.080000</speed>
</trkpt>
<trkpt lat="22.303234" lon="103.775177">
<ele>3143.033203</ele>
<time>2011-04-24T04:55:38Z</time>
<desc>lat.=22.303234, lon.=103.775177, Alt.=3143.033203m. Speed=0.144000m/h.</desc>
<speed>0.040000</speed>
</trkpt>
<trkpt lat="22.303234" lon="103.775177">
<ele>3143.095703</ele>
<time>2011-04-24T04:55:43Z</time>
<desc>lat.=22.303234, lon.=103.775177, Alt.=3143.095703m. Speed=0.036000m/h.</desc>
<speed>0.010000</speed>
</trkpt>
<trkpt lat="22.303236" lon="103.775177">
<ele>3143.095703</ele>
<time>2011-04-24T04:55:48Z</time>
<desc>lat.=22.303236, lon.=103.775177, Alt.=3143.095703m. Speed=0.612000m/h.</desc>
<speed>0.170000</speed>
</trkpt>
<trkpt lat="22.303234" lon="103.775177">
<ele>3143.158203</ele>
<time>2011-04-24T04:55:53Z</time>
<desc>lat.=22.303234, lon.=103.775177, Alt.=3143.158203m. Speed=0.036000m/h.</desc>
<speed>0.010000</speed>
</trkpt>
<trkpt lat="22.303236" lon="103.775177">
<ele>3143.158203</ele>
<time>2011-04-24T04:55:58Z</time>
<desc>lat.=22.303236, lon.=103.775177, Alt.=3143.158203m. Speed=0.072000m/h.</desc>
<speed>0.020000</speed>
</trkpt>
<trkpt lat="22.303236" lon="103.775177">
<ele>3143.220703</ele>
<time>2011-04-24T04:56:03Z</time>
<desc>lat.=22.303236, lon.=103.775177, Alt.=3143.220703m. Speed=0.036000m/h.</desc>
<speed>0.010000</speed>
</trkpt>
<trkpt lat="22.303236" lon="103.775177">
<ele>3143.220703</ele>
<time>2011-04-24T04:56:08Z</time>
<desc>lat.=22.303236, lon.=103.775177, Alt.=3143.220703m. Speed=0.000000m/h.</desc>
<speed>0.000000</speed>
</trkpt>
<trkpt lat="22.303236" lon="103.775177">
<ele>3143.220703</ele>
<time>2011-04-24T04:56:13Z</time>
<desc>lat.=22.303236, lon.=103.775177, Alt.=3143.220703m. Speed=0.000000m/h.</desc>
<speed>0.000000</speed>
</trkpt>
<trkpt lat="22.303238" lon="103.775177">
<ele>3143.283203</ele>
<time>2011-04-24T04:56:18Z</time>
<desc>lat.=22.303238, lon.=103.775177, Alt.=3143.283203m. Speed=0.576000m/h.</desc>
<speed>0.160000</speed>
</trkpt>
<trkpt lat="22.303238" lon="103.775177">
<ele>3143.158203</ele>
<time>2011-04-24T04:56:23Z</time>
<desc>lat.=22.303238, lon.=103.775177, Alt.=3143.158203m. Speed=0.396000m/h.</desc>
<speed>0.110000</speed>
</trkpt>
<trkpt lat="22.303240" lon="103.775177">
<ele>3142.783203</ele>
<time>2011-04-24T04:56:28Z</time>
<desc>lat.=22.303240, lon.=103.775177, Alt.=3142.783203m. Speed=0.216000m/h.</desc>
<speed>0.060000</speed>
</trkpt>
<trkpt lat="22.303253" lon="103.775200">
<ele>3143.470703</ele>
<time>2011-04-24T04:56:33Z</time>
<desc>lat.=22.303253, lon.=103.775200, Alt.=3143.470703m. Speed=1.512000m/h.</desc>
<speed>0.420000</speed>
</trkpt>
<trkpt lat="22.303268" lon="103.775223">
<ele>3143.908203</ele>
<time>2011-04-24T04:56:38Z</time>
<desc>lat.=22.303268, lon.=103.775223, Alt.=3143.908203m. Speed=0.396000m/h.</desc>
<speed>0.110000</speed>
</trkpt>
<trkpt lat="22.303267" lon="103.775223">
<ele>3143.908203</ele>
<time>2011-04-24T04:56:43Z</time>
<desc>lat.=22.303267, lon.=103.775223, Alt.=3143.908203m. Speed=0.468000m/h.</desc>
<speed>0.130000</speed>
</trkpt>
<trkpt lat="22.303253" lon="103.775230">
<ele>3143.970703</ele>
<time>2011-04-24T04:56:48Z</time>
<desc>lat.=22.303253, lon.=103.775230, Alt.=3143.970703m. Speed=3.096000m/h.</desc>
<speed>0.860000</speed>
</trkpt>
<trkpt lat="22.303246" lon="103.775246">
<ele>3144.658203</ele>
<time>2011-04-24T04:56:53Z</time>
<desc>lat.=22.303246, lon.=103.775246, Alt.=3144.658203m. Speed=0.540000m/h.</desc>
<speed>0.150000</speed>
</trkpt>
<trkpt lat="22.303242" lon="103.775246">
<ele>3144.658203</ele>
<time>2011-04-24T04:56:58Z</time>
<desc>lat.=22.303242, lon.=103.775246, Alt.=3144.658203m. Speed=0.504000m/h.</desc>
<speed>0.140000</speed>
</trkpt>
<trkpt lat="22.303238" lon="103.775253">
<ele>3144.783203</ele>
<time>2011-04-24T04:57:03Z</time>
<desc>lat.=22.303238, lon.=103.775253, Alt.=3144.783203m. Speed=0.252000m/h.</desc>
<speed>0.070000</speed>
</trkpt>
<trkpt lat="22.303240" lon="103.775253">
<ele>3144.970703</ele>
<time>2011-04-24T04:57:08Z</time>
<desc>lat.=22.303240, lon.=103.775253, Alt.=3144.970703m. Speed=0.036000m/h.</desc>
<speed>0.010000</speed>
</trkpt>
<trkpt lat="22.303242" lon="103.775253">
<ele>3145.033203</ele>
<time>2011-04-24T04:57:13Z</time>
<desc>lat.=22.303242, lon.=103.775253, Alt.=3145.033203m. Speed=1.008000m/h.</desc>
<speed>0.280000</speed>
</trkpt>
<trkpt lat="22.303246" lon="103.775253">
<ele>3145.220703</ele>
<time>2011-04-24T04:57:18Z</time>
<desc>lat.=22.303246, lon.=103.775253, Alt.=3145.220703m. Speed=0.108000m/h.</desc>
<speed>0.030000</speed>
</trkpt>
<trkpt lat="22.303249" lon="103.775253">
<ele>3145.720703</ele>
<time>2011-04-24T04:57:23Z</time>
<desc>lat.=22.303249, lon.=103.775253, Alt.=3145.720703m. Speed=0.540000m/h.</desc>
<speed>0.150000</speed>
</trkpt>
<trkpt lat="22.303259" lon="103.775246">
<ele>3146.845703</ele>
<time>2011-04-24T04:57:28Z</time>
<desc>lat.=22.303259, lon.=103.775246, Alt.=3146.845703m. Speed=1.332000m/h.</desc>
<speed>0.370000</speed>
</trkpt>
<trkpt lat="22.303270" lon="103.775253">
<ele>3146.720703</ele>
<time>2011-04-24T04:57:33Z</time>
<desc>lat.=22.303270, lon.=103.775253, Alt.=3146.720703m. Speed=0.216000m/h.</desc>
<speed>0.060000</speed>
</trkpt>
<trkpt lat="22.303270" lon="103.775253">
<ele>3146.595703</ele>
<time>2011-04-24T04:57:38Z</time>
<desc>lat.=22.303270, lon.=103.775253, Alt.=3146.595703m. Speed=0.108000m/h.</desc>
<speed>0.030000</speed>
</trkpt>
<trkpt lat="22.303270" lon="103.775253">
<ele>3146.533203</ele>
<time>2011-04-24T04:57:43Z</time>
<desc>lat.=22.303270, lon.=103.775253, Alt.=3146.533203m. Speed=0.000000m/h.</desc>
<speed>0.000000</speed>
</trkpt>
<trkpt lat="22.303270" lon="103.775253">
<ele>3146.533203</ele>
<time>2011-04-24T04:57:48Z</time>
<desc>lat.=22.303270, lon.=103.775253, Alt.=3146.533203m. Speed=0.000000m/h.</desc>
<speed>0.000000</speed>
</trkpt>
<trkpt lat="22.303270" lon="103.775253">
<ele>3146.533203</ele>
<time>2011-04-24T04:57:53Z</time>
<desc>lat.=22.303270, lon.=103.775253, Alt.=3146.533203m. Speed=0.036000m/h.</desc>
<speed>0.010000</speed>
</trkpt>
<trkpt lat="22.303270" lon="103.775253">
<ele>3146.533203</ele>
<time>2011-04-24T04:57:58Z</time>
<desc>lat.=22.303270, lon.=103.775253, Alt.=3146.533203m. Speed=0.036000m/h.</desc>
<speed>0.010000</speed>
</trkpt>
<trkpt lat="22.303270" lon="103.775253">
<ele>3146.470703</ele>
<time>2011-04-24T04:58:03Z</time>
<desc>lat.=22.303270, lon.=103.775253, Alt.=3146.470703m. Speed=0.036000m/h.</desc>
<speed>0.010000</speed>
</trkpt>
<trkpt lat="22.303270" lon="103.775253">
<ele>3146.470703</ele>
<time>2011-04-24T04:58:08Z</time>
<desc>lat.=22.303270, lon.=103.775253, Alt.=3146.470703m. Speed=0.072000m/h.</desc>
<speed>0.020000</speed>
</trkpt>
<trkpt lat="22.303270" lon="103.775261">
<ele>3146.533203</ele>
<time>2011-04-24T04:58:13Z</time>
<desc>lat.=22.303270, lon.=103.775261, Alt.=3146.533203m. Speed=0.072000m/h.</desc>
<speed>0.020000</speed>
</trkpt>
<trkpt lat="22.303270" lon="103.775261">
<ele>3146.533203</ele>
<time>2011-04-24T04:58:18Z</time>
<desc>lat.=22.303270, lon.=103.775261, Alt.=3146.533203m. Speed=0.072000m/h.</desc>
<speed>0.020000</speed>
</trkpt>
<trkpt lat="22.303270" lon="103.775261">
<ele>3146.533203</ele>
<time>2011-04-24T04:58:23Z</time>
<desc>lat.=22.303270, lon.=103.775261, Alt.=3146.533203m. Speed=0.108000m/h.</desc>
<speed>0.030000</speed>
</trkpt>
<trkpt lat="22.303270" lon="103.775261">
<ele>3146.533203</ele>
<time>2011-04-24T04:58:28Z</time>
<desc>lat.=22.303270, lon.=103.775261, Alt.=3146.533203m. Speed=0.000000m/h.</desc>
<speed>0.000000</speed>
</trkpt>
<trkpt lat="22.303270" lon="103.775261">
<ele>3146.533203</ele>
<time>2011-04-24T04:58:33Z</time>
<desc>lat.=22.303270, lon.=103.775261, Alt.=3146.533203m. Speed=0.036000m/h.</desc>
<speed>0.010000</speed>
</trkpt>
<trkpt lat="22.303268" lon="103.775261">
<ele>3146.533203</ele>
<time>2011-04-24T04:58:38Z</time>
<desc>lat.=22.303268, lon.=103.775261, Alt.=3146.533203m. Speed=0.036000m/h.</desc>
<speed>0.010000</speed>
</trkpt>
<trkpt lat="22.303268" lon="103.775261">
<ele>3146.533203</ele>
<time>2011-04-24T04:58:43Z</time>
<desc>lat.=22.303268, lon.=103.775261, Alt.=3146.533203m. Speed=0.036000m/h.</desc>
<speed>0.010000</speed>
</trkpt>
<trkpt lat="22.303267" lon="103.775261">
<ele>3146.533203</ele>
<time>2011-04-24T04:58:48Z</time>
<desc>lat.=22.303267, lon.=103.775261, Alt.=3146.533203m. Speed=0.648000m/h.</desc>
<speed>0.180000</speed>
</trkpt>
<trkpt lat="22.303255" lon="103.775253">
<ele>3147.345703</ele>
<time>2011-04-24T04:58:53Z</time>
<desc>lat.=22.303255, lon.=103.775253, Alt.=3147.345703m. Speed=0.216000m/h.</desc>
<speed>0.060000</speed>
</trkpt>
<trkpt lat="22.303247" lon="103.775261">
<ele>3148.345703</ele>
<time>2011-04-24T04:58:58Z</time>
<desc>lat.=22.303247, lon.=103.775261, Alt.=3148.345703m. Speed=0.756000m/h.</desc>
<speed>0.210000</speed>
</trkpt>
<trkpt lat="22.303247" lon="103.775253">
<ele>3148.470703</ele>
<time>2011-04-24T04:59:03Z</time>
<desc>lat.=22.303247, lon.=103.775253, Alt.=3148.470703m. Speed=0.036000m/h.</desc>
<speed>0.010000</speed>
</trkpt>
<trkpt lat="22.303247" lon="103.775253">
<ele>3148.470703</ele>
<time>2011-04-24T04:59:08Z</time>
<desc>lat.=22.303247, lon.=103.775253, Alt.=3148.470703m. Speed=0.144000m/h.</desc>
<speed>0.040000</speed>
</trkpt>
<trkpt lat="22.303253" lon="103.775253">
<ele>3148.720703</ele>
<time>2011-04-24T04:59:13Z</time>
<desc>lat.=22.303253, lon.=103.775253, Alt.=3148.720703m. Speed=0.936000m/h.</desc>
<speed>0.260000</speed>
</trkpt>
<trkpt lat="22.303251" lon="103.775246">
<ele>3149.470703</ele>
<time>2011-04-24T04:59:18Z</time>
<desc>lat.=22.303251, lon.=103.775246, Alt.=3149.470703m. Speed=0.252000m/h.</desc>
<speed>0.070000</speed>
</trkpt>
<trkpt lat="22.303259" lon="103.775253">
<ele>3149.845703</ele>
<time>2011-04-24T04:59:23Z</time>
<desc>lat.=22.303259, lon.=103.775253, Alt.=3149.845703m. Speed=1.080000m/h.</desc>
<speed>0.300000</speed>
</trkpt>
<trkpt lat="22.303261" lon="103.775261">
<ele>3150.283203</ele>
<time>2011-04-24T04:59:28Z</time>
<desc>lat.=22.303261, lon.=103.775261, Alt.=3150.283203m. Speed=0.072000m/h.</desc>
<speed>0.020000</speed>
</trkpt>
<trkpt lat="22.303263" lon="103.775261">
<ele>3150.283203</ele>
<time>2011-04-24T04:59:33Z</time>
<desc>lat.=22.303263, lon.=103.775261, Alt.=3150.283203m. Speed=0.288000m/h.</desc>
<speed>0.080000</speed>
</trkpt>
<trkpt lat="22.303263" lon="103.775261">
<ele>3150.220703</ele>
<time>2011-04-24T04:59:38Z</time>
<desc>lat.=22.303263, lon.=103.775261, Alt.=3150.220703m. Speed=0.432000m/h.</desc>
<speed>0.120000</speed>
</trkpt>
<trkpt lat="22.303265" lon="103.775261">
<ele>3150.408203</ele>
<time>2011-04-24T04:59:43Z</time>
<desc>lat.=22.303265, lon.=103.775261, Alt.=3150.408203m. Speed=0.180000m/h.</desc>
<speed>0.050000</speed>
</trkpt>
<trkpt lat="22.303265" lon="103.775261">
<ele>3150.533203</ele>
<time>2011-04-24T04:59:48Z</time>
<desc>lat.=22.303265, lon.=103.775261, Alt.=3150.533203m. Speed=0.036000m/h.</desc>
<speed>0.010000</speed>
</trkpt>
<trkpt lat="22.303265" lon="103.775261">
<ele>3150.595703</ele>
<time>2011-04-24T04:59:53Z</time>
<desc>lat.=22.303265, lon.=103.775261, Alt.=3150.595703m. Speed=0.000000m/h.</desc>
<speed>0.000000</speed>
</trkpt>
<trkpt lat="22.303265" lon="103.775261">
<ele>3150.595703</ele>
<time>2011-04-24T04:59:58Z</time>
<desc>lat.=22.303265, lon.=103.775261, Alt.=3150.595703m. Speed=0.072000m/h.</desc>
<speed>0.020000</speed>
</trkpt>
<trkpt lat="22.303265" lon="103.775261">
<ele>3150.595703</ele>
<time>2011-04-24T05:00:03Z</time>
<desc>lat.=22.303265, lon.=103.775261, Alt.=3150.595703m. Speed=0.072000m/h.</desc>
<speed>0.020000</speed>
</trkpt>
<trkpt lat="22.303265" lon="103.775261">
<ele>3150.595703</ele>
<time>2011-04-24T05:00:08Z</time>
<desc>lat.=22.303265, lon.=103.775261, Alt.=3150.595703m. Speed=0.036000m/h.</desc>
<speed>0.010000</speed>
</trkpt>
<trkpt lat="22.303265" lon="103.775261">
<ele>3150.595703</ele>
<time>2011-04-24T05:00:13Z</time>
<desc>lat.=22.303265, lon.=103.775261, Alt.=3150.595703m. Speed=0.036000m/h.</desc>
<speed>0.010000</speed>
</trkpt>
<trkpt lat="22.303265" lon="103.775261">
<ele>3150.595703</ele>
<time>2011-04-24T05:00:18Z</time>
<desc>lat.=22.303265, lon.=103.775261, Alt.=3150.595703m. Speed=0.036000m/h.</desc>
<speed>0.010000</speed>
</trkpt>
<trkpt lat="22.303265" lon="103.775261">
<ele>3150.595703</ele>
<time>2011-04-24T05:00:23Z</time>
<desc>lat.=22.303265, lon.=103.775261, Alt.=3150.595703m. Speed=0.000000m/h.</desc>
<speed>0.000000</speed>
</trkpt>
<trkpt lat="22.303265" lon="103.775261">
<ele>3150.595703</ele>
<time>2011-04-24T05:00:28Z</time>
<desc>lat.=22.303265, lon.=103.775261, Alt.=3150.595703m. Speed=0.000000m/h.</desc>
<speed>0.000000</speed>
</trkpt>
<trkpt lat="22.303265" lon="103.775261">
<ele>3150.595703</ele>
<time>2011-04-24T05:00:33Z</time>
<desc>lat.=22.303265, lon.=103.775261, Alt.=3150.595703m. Speed=0.180000m/h.</desc>
<speed>0.050000</speed>
</trkpt>
<trkpt lat="22.303265" lon="103.775261">
<ele>3150.595703</ele>
<time>2011-04-24T05:00:38Z</time>
<desc>lat.=22.303265, lon.=103.775261, Alt.=3150.595703m. Speed=0.108000m/h.</desc>
<speed>0.030000</speed>
</trkpt>
<trkpt lat="22.303265" lon="103.775261">
<ele>3150.595703</ele>
<time>2011-04-24T05:00:43Z</time>
<desc>lat.=22.303265, lon.=103.775261, Alt.=3150.595703m. Speed=0.108000m/h.</desc>
<speed>0.030000</speed>
</trkpt>
<trkpt lat="22.303263" lon="103.775261">
<ele>3150.595703</ele>
<time>2011-04-24T05:00:48Z</time>
<desc>lat.=22.303263, lon.=103.775261, Alt.=3150.595703m. Speed=0.144000m/h.</desc>
<speed>0.040000</speed>
</trkpt>
<trkpt lat="22.303263" lon="103.775261">
<ele>3150.595703</ele>
<time>2011-04-24T05:00:53Z</time>
<desc>lat.=22.303263, lon.=103.775261, Alt.=3150.595703m. Speed=0.108000m/h.</desc>
<speed>0.030000</speed>
</trkpt>
<trkpt lat="22.303263" lon="103.775261">
<ele>3150.595703</ele>
<time>2011-04-24T05:00:58Z</time>
<desc>lat.=22.303263, lon.=103.775261, Alt.=3150.595703m. Speed=0.072000m/h.</desc>
<speed>0.020000</speed>
</trkpt>
<trkpt lat="22.303263" lon="103.775261">
<ele>3150.595703</ele>
<time>2011-04-24T05:01:03Z</time>
<desc>lat.=22.303263, lon.=103.775261, Alt.=3150.595703m. Speed=0.072000m/h.</desc>
<speed>0.020000</speed>
</trkpt>
<trkpt lat="22.303259" lon="103.775261">
<ele>3150.658203</ele>
<time>2011-04-24T05:01:08Z</time>
<desc>lat.=22.303259, lon.=103.775261, Alt.=3150.658203m. Speed=2.628000m/h.</desc>
<speed>0.730000</speed>
</trkpt>
<trkpt lat="22.303234" lon="103.775269">
<ele>3151.533203</ele>
<time>2011-04-24T05:01:13Z</time>
<desc>lat.=22.303234, lon.=103.775269, Alt.=3151.533203m. Speed=0.180000m/h.</desc>
<speed>0.050000</speed>
</trkpt>
<trkpt lat="22.303232" lon="103.775269">
<ele>3151.408203</ele>
<time>2011-04-24T05:01:18Z</time>
<desc>lat.=22.303232, lon.=103.775269, Alt.=3151.408203m. Speed=0.000000m/h.</desc>
<speed>0.000000</speed>
</trkpt>
<trkpt lat="22.303232" lon="103.775269">
<ele>3151.408203</ele>
<time>2011-04-24T05:01:23Z</time>
<desc>lat.=22.303232, lon.=103.775269, Alt.=3151.408203m. Speed=0.756000m/h.</desc>
<speed>0.210000</speed>
</trkpt>
<trkpt lat="22.303230" lon="103.775269">
<ele>3151.470703</ele>
<time>2011-04-24T05:01:28Z</time>
<desc>lat.=22.303230, lon.=103.775269, Alt.=3151.470703m. Speed=0.000000m/h.</desc>
<speed>0.000000</speed>
</trkpt>
<trkpt lat="22.303230" lon="103.775269">
<ele>3151.470703</ele>
<time>2011-04-24T05:01:33Z</time>
<desc>lat.=22.303230, lon.=103.775269, Alt.=3151.470703m. Speed=0.000000m/h.</desc>
<speed>0.000000</speed>
</trkpt>
<trkpt lat="22.303232" lon="103.775269">
<ele>3151.470703</ele>
<time>2011-04-24T05:01:38Z</time>
<desc>lat.=22.303232, lon.=103.775269, Alt.=3151.470703m. Speed=0.540000m/h.</desc>
<speed>0.150000</speed>
</trkpt>
<trkpt lat="22.303230" lon="103.775269">
<ele>3151.470703</ele>
<time>2011-04-24T05:01:43Z</time>
<desc>lat.=22.303230, lon.=103.775269, Alt.=3151.470703m. Speed=0.288000m/h.</desc>
<speed>0.080000</speed>
</trkpt>
<trkpt lat="22.303228" lon="103.775269">
<ele>3151.470703</ele>
<time>2011-04-24T05:01:48Z</time>
<desc>lat.=22.303228, lon.=103.775269, Alt.=3151.470703m. Speed=1.008000m/h.</desc>
<speed>0.280000</speed>
</trkpt>
<trkpt lat="22.303246" lon="103.775253">
<ele>3151.033203</ele>
<time>2011-04-24T05:01:53Z</time>
<desc>lat.=22.303246, lon.=103.775253, Alt.=3151.033203m. Speed=1.152000m/h.</desc>
<speed>0.320000</speed>
</trkpt>
<trkpt lat="22.303257" lon="103.775261">
<ele>3150.845703</ele>
<time>2011-04-24T05:01:58Z</time>
<desc>lat.=22.303257, lon.=103.775261, Alt.=3150.845703m. Speed=0.000000m/h.</desc>
<speed>0.000000</speed>
</trkpt>
<trkpt lat="22.303255" lon="103.775261">
<ele>3150.908203</ele>
<time>2011-04-24T05:02:03Z</time>
<desc>lat.=22.303255, lon.=103.775261, Alt.=3150.908203m. Speed=0.144000m/h.</desc>
<speed>0.040000</speed>
</trkpt>
<trkpt lat="22.303257" lon="103.775261">
<ele>3150.970703</ele>
<time>2011-04-24T05:02:08Z</time>
<desc>lat.=22.303257, lon.=103.775261, Alt.=3150.970703m. Speed=0.144000m/h.</desc>
<speed>0.040000</speed>
</trkpt>
<trkpt lat="22.303257" lon="103.775261">
<ele>3150.970703</ele>
<time>2011-04-24T05:02:13Z</time>
<desc>lat.=22.303257, lon.=103.775261, Alt.=3150.970703m. Speed=0.036000m/h.</desc>
<speed>0.010000</speed>
</trkpt>
<trkpt lat="22.303255" lon="103.775261">
<ele>3150.970703</ele>
<time>2011-04-24T05:02:18Z</time>
<desc>lat.=22.303255, lon.=103.775261, Alt.=3150.970703m. Speed=0.144000m/h.</desc>
<speed>0.040000</speed>
</trkpt>
<trkpt lat="22.303255" lon="103.775261">
<ele>3150.970703</ele>
<time>2011-04-24T05:02:23Z</time>
<desc>lat.=22.303255, lon.=103.775261, Alt.=3150.970703m. Speed=0.000000m/h.</desc>
<speed>0.000000</speed>
</trkpt>
<trkpt lat="22.303255" lon="103.775261">
<ele>3150.970703</ele>
<time>2011-04-24T05:02:28Z</time>
<desc>lat.=22.303255, lon.=103.775261, Alt.=3150.970703m. Speed=0.000000m/h.</desc>
<speed>0.000000</speed>
</trkpt>
<trkpt lat="22.303255" lon="103.775261">
<ele>3150.908203</ele>
<time>2011-04-24T05:02:33Z</time>
<desc>lat.=22.303255, lon.=103.775261, Alt.=3150.908203m. Speed=0.108000m/h.</desc>
<speed>0.030000</speed>
</trkpt>
<trkpt lat="22.303257" lon="103.775261">
<ele>3150.970703</ele>
<time>2011-04-24T05:02:38Z</time>
<desc>lat.=22.303257, lon.=103.775261, Alt.=3150.970703m. Speed=0.468000m/h.</desc>
<speed>0.130000</speed>
</trkpt>
<trkpt lat="22.303257" lon="103.775261">
<ele>3150.970703</ele>
<time>2011-04-24T05:02:43Z</time>
<desc>lat.=22.303257, lon.=103.775261, Alt.=3150.970703m. Speed=0.036000m/h.</desc>
<speed>0.010000</speed>
</trkpt>
<trkpt lat="22.303257" lon="103.775261">
<ele>3150.970703</ele>
<time>2011-04-24T05:02:48Z</time>
<desc>lat.=22.303257, lon.=103.775261, Alt.=3150.970703m. Speed=0.180000m/h.</desc>
<speed>0.050000</speed>
</trkpt>
<trkpt lat="22.303257" lon="103.775261">
<ele>3150.970703</ele>
<time>2011-04-24T05:02:53Z</time>
<desc>lat.=22.303257, lon.=103.775261, Alt.=3150.970703m. Speed=0.036000m/h.</desc>
<speed>0.010000</speed>
</trkpt>
<trkpt lat="22.303257" lon="103.775261">
<ele>3150.970703</ele>
<time>2011-04-24T05:02:58Z</time>
<desc>lat.=22.303257, lon.=103.775261, Alt.=3150.970703m. Speed=0.036000m/h.</desc>
<speed>0.010000</speed>
</trkpt>
<trkpt lat="22.303257" lon="103.775261">
<ele>3150.970703</ele>
<time>2011-04-24T05:03:03Z</time>
<desc>lat.=22.303257, lon.=103.775261, Alt.=3150.970703m. Speed=0.972000m/h.</desc>
<speed>0.270000</speed>
</trkpt>
<trkpt lat="22.303267" lon="103.775261">
<ele>3151.345703</ele>
<time>2011-04-24T05:03:08Z</time>
<desc>lat.=22.303267, lon.=103.775261, Alt.=3151.345703m. Speed=0.756000m/h.</desc>
<speed>0.210000</speed>
</trkpt>
<trkpt lat="22.303255" lon="103.775276">
<ele>3151.970703</ele>
<time>2011-04-24T05:03:13Z</time>
<desc>lat.=22.303255, lon.=103.775276, Alt.=3151.970703m. Speed=1.656000m/h.</desc>
<speed>0.460000</speed>
</trkpt>
<trkpt lat="22.303267" lon="103.775276">
<ele>3151.845703</ele>
<time>2011-04-24T05:03:18Z</time>
<desc>lat.=22.303267, lon.=103.775276, Alt.=3151.845703m. Speed=0.036000m/h.</desc>
<speed>0.010000</speed>
</trkpt>
<trkpt lat="22.303268" lon="103.775276">
<ele>3151.970703</ele>
<time>2011-04-24T05:03:23Z</time>
<desc>lat.=22.303268, lon.=103.775276, Alt.=3151.970703m. Speed=0.108000m/h.</desc>
<speed>0.030000</speed>
</trkpt>
<trkpt lat="22.303268" lon="103.775276">
<ele>3152.033203</ele>
<time>2011-04-24T05:03:28Z</time>
<desc>lat.=22.303268, lon.=103.775276, Alt.=3152.033203m. Speed=0.108000m/h.</desc>
<speed>0.030000</speed>
</trkpt>
<trkpt lat="22.303268" lon="103.775276">
<ele>3152.033203</ele>
<time>2011-04-24T05:03:33Z</time>
<desc>lat.=22.303268, lon.=103.775276, Alt.=3152.033203m. Speed=0.000000m/h.</desc>
<speed>0.000000</speed>
</trkpt>
<trkpt lat="22.303268" lon="103.775276">
<ele>3152.033203</ele>
<time>2011-04-24T05:03:38Z</time>
<desc>lat.=22.303268, lon.=103.775276, Alt.=3152.033203m. Speed=0.360000m/h.</desc>
<speed>0.100000</speed>
</trkpt>
<trkpt lat="22.303268" lon="103.775276">
<ele>3152.095703</ele>
<time>2011-04-24T05:03:43Z</time>
<desc>lat.=22.303268, lon.=103.775276, Alt.=3152.095703m. Speed=0.000000m/h.</desc>
<speed>0.000000</speed>
</trkpt>
<trkpt lat="22.303270" lon="103.775276">
<ele>3152.095703</ele>
<time>2011-04-24T05:03:48Z</time>
<desc>lat.=22.303270, lon.=103.775276, Alt.=3152.095703m. Speed=0.000000m/h.</desc>
<speed>0.000000</speed>
</trkpt>
<trkpt lat="22.303270" lon="103.775276">
<ele>3152.095703</ele>
<time>2011-04-24T05:03:53Z</time>
<desc>lat.=22.303270, lon.=103.775276, Alt.=3152.095703m. Speed=0.036000m/h.</desc>
<speed>0.010000</speed>
</trkpt>
<trkpt lat="22.303270" lon="103.775284">
<ele>3152.095703</ele>
<time>2011-04-24T05:03:58Z</time>
<desc>lat.=22.303270, lon.=103.775284, Alt.=3152.095703m. Speed=0.108000m/h.</desc>
<speed>0.030000</speed>
</trkpt>
<trkpt lat="22.303270" lon="103.775284">
<ele>3152.095703</ele>
<time>2011-04-24T05:04:03Z</time>
<desc>lat.=22.303270, lon.=103.775284, Alt.=3152.095703m. Speed=0.072000m/h.</desc>
<speed>0.020000</speed>
</trkpt>
<trkpt lat="22.303272" lon="103.775276">
<ele>3152.095703</ele>
<time>2011-04-24T05:04:08Z</time>
<desc>lat.=22.303272, lon.=103.775276, Alt.=3152.095703m. Speed=0.072000m/h.</desc>
<speed>0.020000</speed>
</trkpt>
<trkpt lat="22.303272" lon="103.775276">
<ele>3152.095703</ele>
<time>2011-04-24T05:04:13Z</time>
<desc>lat.=22.303272, lon.=103.775276, Alt.=3152.095703m. Speed=0.036000m/h.</desc>
<speed>0.010000</speed>
</trkpt>
<trkpt lat="22.303272" lon="103.775276">
<ele>3152.095703</ele>
<time>2011-04-24T05:04:18Z</time>
<desc>lat.=22.303272, lon.=103.775276, Alt.=3152.095703m. Speed=0.072000m/h.</desc>
<speed>0.020000</speed>
</trkpt>
<trkpt lat="22.303272" lon="103.775276">
<ele>3152.095703</ele>
<time>2011-04-24T05:04:23Z</time>
<desc>lat.=22.303272, lon.=103.775276, Alt.=3152.095703m. Speed=0.000000m/h.</desc>
<speed>0.000000</speed>
</trkpt>
<trkpt lat="22.303272" lon="103.775276">
<ele>3152.095703</ele>
<time>2011-04-24T05:04:28Z</time>
<desc>lat.=22.303272, lon.=103.775276, Alt.=3152.095703m. Speed=0.072000m/h.</desc>
<speed>0.020000</speed>
</trkpt>
<trkpt lat="22.303272" lon="103.775276">
<ele>3152.158203</ele>
<time>2011-04-24T05:04:33Z</time>
<desc>lat.=22.303272, lon.=103.775276, Alt.=3152.158203m. Speed=0.036000m/h.</desc>
<speed>0.010000</speed>
</trkpt>
<trkpt lat="22.303272" lon="103.775276">
<ele>3152.095703</ele>
<time>2011-04-24T05:04:38Z</time>
<desc>lat.=22.303272, lon.=103.775276, Alt.=3152.095703m. Speed=0.036000m/h.</desc>
<speed>0.010000</speed>
</trkpt>
<trkpt lat="22.303272" lon="103.775276">
<ele>3152.095703</ele>
<time>2011-04-24T05:04:43Z</time>
<desc>lat.=22.303272, lon.=103.775276, Alt.=3152.095703m. Speed=0.000000m/h.</desc>
<speed>0.000000</speed>
</trkpt>
<trkpt lat="22.303272" lon="103.775276">
<ele>3152.095703</ele>
<time>2011-04-24T05:04:48Z</time>
<desc>lat.=22.303272, lon.=103.775276, Alt.=3152.095703m. Speed=0.000000m/h.</desc>
<speed>0.000000</speed>
</trkpt>
<trkpt lat="22.303272" lon="103.775276">
<ele>3152.095703</ele>
<time>2011-04-24T05:04:53Z</time>
<desc>lat.=22.303272, lon.=103.775276, Alt.=3152.095703m. Speed=0.288000m/h.</desc>
<speed>0.080000</speed>
</trkpt>
<trkpt lat="22.303268" lon="103.775276">
<ele>3152.033203</ele>
<time>2011-04-24T05:04:58Z</time>
<desc>lat.=22.303268, lon.=103.775276, Alt.=3152.033203m. Speed=0.216000m/h.</desc>
<speed>0.060000</speed>
</trkpt>
<trkpt lat="22.303268" lon="103.775276">
<ele>3152.033203</ele>
<time>2011-04-24T05:05:03Z</time>
<desc>lat.=22.303268, lon.=103.775276, Alt.=3152.033203m. Speed=0.000000m/h.</desc>
<speed>0.000000</speed>
</trkpt>
<trkpt lat="22.303268" lon="103.775276">
<ele>3152.033203</ele>
<time>2011-04-24T05:05:08Z</time>
<desc>lat.=22.303268, lon.=103.775276, Alt.=3152.033203m. Speed=0.000000m/h.</desc>
<speed>0.000000</speed>
</trkpt>
<trkpt lat="22.303268" lon="103.775276">
<ele>3151.970703</ele>
<time>2011-04-24T05:05:13Z</time>
<desc>lat.=22.303268, lon.=103.775276, Alt.=3151.970703m. Speed=0.036000m/h.</desc>
<speed>0.010000</speed>
</trkpt>
<trkpt lat="22.303268" lon="103.775276">
<ele>3151.970703</ele>
<time>2011-04-24T05:05:18Z</time>
<desc>lat.=22.303268, lon.=103.775276, Alt.=3151.970703m. Speed=0.072000m/h.</desc>
<speed>0.020000</speed>
</trkpt>
<trkpt lat="22.303268" lon="103.775276">
<ele>3151.908203</ele>
<time>2011-04-24T05:05:23Z</time>
<desc>lat.=22.303268, lon.=103.775276, Alt.=3151.908203m. Speed=0.036000m/h.</desc>
<speed>0.010000</speed>
</trkpt>
<trkpt lat="22.303268" lon="103.775276">
<ele>3151.908203</ele>
<time>2011-04-24T05:05:28Z</time>
<desc>lat.=22.303268, lon.=103.775276, Alt.=3151.908203m. Speed=0.216000m/h.</desc>
<speed>0.060000</speed>
</trkpt>
<trkpt lat="22.303270" lon="103.775276">
<ele>3151.908203</ele>
<time>2011-04-24T05:05:33Z</time>
<desc>lat.=22.303270, lon.=103.775276, Alt.=3151.908203m. Speed=0.000000m/h.</desc>
<speed>0.000000</speed>
</trkpt>
<trkpt lat="22.303270" lon="103.775276">
<ele>3151.908203</ele>
<time>2011-04-24T05:05:38Z</time>
<desc>lat.=22.303270, lon.=103.775276, Alt.=3151.908203m. Speed=0.036000m/h.</desc>
<speed>0.010000</speed>
</trkpt>
<trkpt lat="22.303270" lon="103.775276">
<ele>3151.908203</ele>
<time>2011-04-24T05:05:43Z</time>
<desc>lat.=22.303270, lon.=103.775276, Alt.=3151.908203m. Speed=0.108000m/h.</desc>
<speed>0.030000</speed>
</trkpt>
<trkpt lat="22.303268" lon="103.775276">
<ele>3152.095703</ele>
<time>2011-04-24T05:05:48Z</time>
<desc>lat.=22.303268, lon.=103.775276, Alt.=3152.095703m. Speed=0.108000m/h.</desc>
<speed>0.030000</speed>
</trkpt>
<trkpt lat="22.303268" lon="103.775276">
<ele>3152.158203</ele>
<time>2011-04-24T05:05:53Z</time>
<desc>lat.=22.303268, lon.=103.775276, Alt.=3152.158203m. Speed=0.036000m/h.</desc>
<speed>0.010000</speed>
</trkpt>
<trkpt lat="22.303268" lon="103.775276">
<ele>3152.095703</ele>
<time>2011-04-24T05:05:58Z</time>
<desc>lat.=22.303268, lon.=103.775276, Alt.=3152.095703m. Speed=0.000000m/h.</desc>
<speed>0.000000</speed>
</trkpt>
<trkpt lat="22.303268" lon="103.775276">
<ele>3152.095703</ele>
<time>2011-04-24T05:06:03Z</time>
<desc>lat.=22.303268, lon.=103.775276, Alt.=3152.095703m. Speed=0.036000m/h.</desc>
<speed>0.010000</speed>
</trkpt>
<trkpt lat="22.303268" lon="103.775276">
<ele>3152.095703</ele>
<time>2011-04-24T05:06:08Z</time>
<desc>lat.=22.303268, lon.=103.775276, Alt.=3152.095703m. Speed=0.036000m/h.</desc>
<speed>0.010000</speed>
</trkpt>
<trkpt lat="22.303268" lon="103.775276">
<ele>3152.033203</ele>
<time>2011-04-24T05:06:13Z</time>
<desc>lat.=22.303268, lon.=103.775276, Alt.=3152.033203m. Speed=1.584000m/h.</desc>
<speed>0.440000</speed>
</trkpt>
<trkpt lat="22.303268" lon="103.775276">
<ele>3152.158203</ele>
<time>2011-04-24T05:06:18Z</time>
<desc>lat.=22.303268, lon.=103.775276, Alt.=3152.158203m. Speed=0.576000m/h.</desc>
<speed>0.160000</speed>
</trkpt>
<trkpt lat="22.303270" lon="103.775276">
<ele>3152.283203</ele>
<time>2011-04-24T05:06:23Z</time>
<desc>lat.=22.303270, lon.=103.775276, Alt.=3152.283203m. Speed=0.000000m/h.</desc>
<speed>0.000000</speed>
</trkpt>
<trkpt lat="22.303270" lon="103.775276">
<ele>3152.283203</ele>
<time>2011-04-24T05:06:28Z</time>
<desc>lat.=22.303270, lon.=103.775276, Alt.=3152.283203m. Speed=0.000000m/h.</desc>
<speed>0.000000</speed>
</trkpt>
<trkpt lat="22.303270" lon="103.775276">
<ele>3152.283203</ele>
<time>2011-04-24T05:06:33Z</time>
<desc>lat.=22.303270, lon.=103.775276, Alt.=3152.283203m. Speed=0.036000m/h.</desc>
<speed>0.010000</speed>
</trkpt>
<trkpt lat="22.303270" lon="103.775276">
<ele>3152.283203</ele>
<time>2011-04-24T05:06:38Z</time>
<desc>lat.=22.303270, lon.=103.775276, Alt.=3152.283203m. Speed=0.000000m/h.</desc>
<speed>0.000000</speed>
</trkpt>
<trkpt lat="22.303270" lon="103.775276">
<ele>3152.283203</ele>
<time>2011-04-24T05:06:43Z</time>
<desc>lat.=22.303270, lon.=103.775276, Alt.=3152.283203m. Speed=0.036000m/h.</desc>
<speed>0.010000</speed>
</trkpt>
<trkpt lat="22.303270" lon="103.775276">
<ele>3152.283203</ele>
<time>2011-04-24T05:06:48Z</time>
<desc>lat.=22.303270, lon.=103.775276, Alt.=3152.283203m. Speed=0.000000m/h.</desc>
<speed>0.000000</speed>
</trkpt>
<trkpt lat="22.303270" lon="103.775276">
<ele>3152.283203</ele>
<time>2011-04-24T05:06:53Z</time>
<desc>lat.=22.303270, lon.=103.775276, Alt.=3152.283203m. Speed=0.000000m/h.</desc>
<speed>0.000000</speed>
</trkpt>
<trkpt lat="22.303270" lon="103.775276">
<ele>3152.283203</ele>
<time>2011-04-24T05:06:58Z</time>
<desc>lat.=22.303270, lon.=103.775276, Alt.=3152.283203m. Speed=0.036000m/h.</desc>
<speed>0.010000</speed>
</trkpt>
<trkpt lat="22.303270" lon="103.775276">
<ele>3152.283203</ele>
<time>2011-04-24T05:07:03Z</time>
<desc>lat.=22.303270, lon.=103.775276, Alt.=3152.283203m. Speed=0.072000m/h.</desc>
<speed>0.020000</speed>
</trkpt>
<trkpt lat="22.303270" lon="103.775276">
<ele>3152.345703</ele>
<time>2011-04-24T05:07:08Z</time>
<desc>lat.=22.303270, lon.=103.775276, Alt.=3152.345703m. Speed=0.000000m/h.</desc>
<speed>0.000000</speed>
</trkpt>
<trkpt lat="22.303270" lon="103.775276">
<ele>3152.345703</ele>
<time>2011-04-24T05:07:13Z</time>
<desc>lat.=22.303270, lon.=103.775276, Alt.=3152.345703m. Speed=0.036000m/h.</desc>
<speed>0.010000</speed>
</trkpt>
<trkpt lat="22.303270" lon="103.775276">
<ele>3152.345703</ele>
<time>2011-04-24T05:07:18Z</time>
<desc>lat.=22.303270, lon.=103.775276, Alt.=3152.345703m. Speed=0.036000m/h.</desc>
<speed>0.010000</speed>
</trkpt>
<trkpt lat="22.303272" lon="103.775269">
<ele>3152.158203</ele>
<time>2011-04-24T05:07:23Z</time>
<desc>lat.=22.303272, lon.=103.775269, Alt.=3152.158203m. Speed=0.144000m/h.</desc>
<speed>0.040000</speed>
</trkpt>
<trkpt lat="22.303286" lon="103.775276">
<ele>3151.908203</ele>
<time>2011-04-24T05:07:28Z</time>
<desc>lat.=22.303286, lon.=103.775276, Alt.=3151.908203m. Speed=1.152000m/h.</desc>
<speed>0.320000</speed>
</trkpt>
<trkpt lat="22.303274" lon="103.775291">
<ele>3150.095703</ele>
<time>2011-04-24T05:07:33Z</time>
<desc>lat.=22.303274, lon.=103.775291, Alt.=3150.095703m. Speed=1.728000m/h.</desc>
<speed>0.480000</speed>
</trkpt>
<trkpt lat="22.303288" lon="103.775299">
<ele>3148.970703</ele>
<time>2011-04-24T05:07:38Z</time>
<desc>lat.=22.303288, lon.=103.775299, Alt.=3148.970703m. Speed=0.108000m/h.</desc>
<speed>0.030000</speed>
</trkpt>
<trkpt lat="22.303301" lon="103.775299">
<ele>3148.470703</ele>
<time>2011-04-24T05:07:43Z</time>
<desc>lat.=22.303301, lon.=103.775299, Alt.=3148.470703m. Speed=2.088000m/h.</desc>
<speed>0.580000</speed>
</trkpt>
<trkpt lat="22.303314" lon="103.775284">
<ele>3147.283203</ele>
<time>2011-04-24T05:07:48Z</time>
<desc>lat.=22.303314, lon.=103.775284, Alt.=3147.283203m. Speed=0.468000m/h.</desc>
<speed>0.130000</speed>
</trkpt>
<trkpt lat="22.303345" lon="103.775269">
<ele>3146.658203</ele>
<time>2011-04-24T05:07:53Z</time>
<desc>lat.=22.303345, lon.=103.775269, Alt.=3146.658203m. Speed=3.240000m/h.</desc>
<speed>0.900000</speed>
</trkpt>
<trkpt lat="22.303389" lon="103.775246">
<ele>3146.970703</ele>
<time>2011-04-24T05:07:58Z</time>
<desc>lat.=22.303389, lon.=103.775246, Alt.=3146.970703m. Speed=4.176000m/h.</desc>
<speed>1.160000</speed>
</trkpt>
<trkpt lat="22.303417" lon="103.775238">
<ele>3147.908203</ele>
<time>2011-04-24T05:08:03Z</time>
<desc>lat.=22.303417, lon.=103.775238, Alt.=3147.908203m. Speed=1.296000m/h.</desc>
<speed>0.360000</speed>
</trkpt>
<trkpt lat="22.303410" lon="103.775238">
<ele>3147.658203</ele>
<time>2011-04-24T05:08:08Z</time>
<desc>lat.=22.303410, lon.=103.775238, Alt.=3147.658203m. Speed=0.180000m/h.</desc>
<speed>0.050000</speed>
</trkpt>
<trkpt lat="22.303410" lon="103.775230">
<ele>3147.720703</ele>
<time>2011-04-24T05:08:13Z</time>
<desc>lat.=22.303410, lon.=103.775230, Alt.=3147.720703m. Speed=0.216000m/h.</desc>
<speed>0.060000</speed>
</trkpt>
<trkpt lat="22.303431" lon="103.775208">
<ele>3147.658203</ele>
<time>2011-04-24T05:08:18Z</time>
<desc>lat.=22.303431, lon.=103.775208, Alt.=3147.658203m. Speed=1.548000m/h.</desc>
<speed>0.430000</speed>
</trkpt>
<trkpt lat="22.303463" lon="103.775223">
<ele>3148.283203</ele>
<time>2011-04-24T05:08:23Z</time>
<desc>lat.=22.303463, lon.=103.775223, Alt.=3148.283203m. Speed=1.800000m/h.</desc>
<speed>0.500000</speed>
</trkpt>
<trkpt lat="22.303463" lon="103.775230">
<ele>3146.970703</ele>
<time>2011-04-24T05:08:28Z</time>
<desc>lat.=22.303463, lon.=103.775230, Alt.=3146.970703m. Speed=0.864000m/h.</desc>
<speed>0.240000</speed>
</trkpt>
<trkpt lat="22.303461" lon="103.775223">
<ele>3146.345703</ele>
<time>2011-04-24T05:08:33Z</time>
<desc>lat.=22.303461, lon.=103.775223, Alt.=3146.345703m. Speed=1.044000m/h.</desc>
<speed>0.290000</speed>
</trkpt>
<trkpt lat="22.303486" lon="103.775246">
<ele>3146.095703</ele>
<time>2011-04-24T05:08:38Z</time>
<desc>lat.=22.303486, lon.=103.775246, Alt.=3146.095703m. Speed=1.764000m/h.</desc>
<speed>0.490000</speed>
</trkpt>
<trkpt lat="22.303497" lon="103.775261">
<ele>3145.658203</ele>
<time>2011-04-24T05:08:43Z</time>
<desc>lat.=22.303497, lon.=103.775261, Alt.=3145.658203m. Speed=1.836000m/h.</desc>
<speed>0.510000</speed>
</trkpt>
<trkpt lat="22.303499" lon="103.775284">
<ele>3144.970703</ele>
<time>2011-04-24T05:08:48Z</time>
<desc>lat.=22.303499, lon.=103.775284, Alt.=3144.970703m. Speed=1.476000m/h.</desc>
<speed>0.410000</speed>
</trkpt>
<trkpt lat="22.303497" lon="103.775307">
<ele>3144.658203</ele>
<time>2011-04-24T05:08:53Z</time>
<desc>lat.=22.303497, lon.=103.775307, Alt.=3144.658203m. Speed=0.396000m/h.</desc>
<speed>0.110000</speed>
</trkpt>
<trkpt lat="22.303497" lon="103.775314">
<ele>3144.845703</ele>
<time>2011-04-24T05:08:58Z</time>
<desc>lat.=22.303497, lon.=103.775314, Alt.=3144.845703m. Speed=1.728000m/h.</desc>
<speed>0.480000</speed>
</trkpt>
<trkpt lat="22.303490" lon="103.775345">
<ele>3145.220703</ele>
<time>2011-04-24T05:09:03Z</time>
<desc>lat.=22.303490, lon.=103.775345, Alt.=3145.220703m. Speed=1.836000m/h.</desc>
<speed>0.510000</speed>
</trkpt>
<trkpt lat="22.303478" lon="103.775345">
<ele>3144.970703</ele>
<time>2011-04-24T05:09:08Z</time>
<desc>lat.=22.303478, lon.=103.775345, Alt.=3144.970703m. Speed=0.756000m/h.</desc>
<speed>0.210000</speed>
</trkpt>
<trkpt lat="22.303474" lon="103.775337">
<ele>3143.908203</ele>
<time>2011-04-24T05:09:13Z</time>
<desc>lat.=22.303474, lon.=103.775337, Alt.=3143.908203m. Speed=0.756000m/h.</desc>
<speed>0.210000</speed>
</trkpt>
<trkpt lat="22.303492" lon="103.775368">
<ele>3142.970703</ele>
<time>2011-04-24T05:09:18Z</time>
<desc>lat.=22.303492, lon.=103.775368, Alt.=3142.970703m. Speed=3.996000m/h.</desc>
<speed>1.110000</speed>
</trkpt>
<trkpt lat="22.303509" lon="103.775414">
<ele>3142.533203</ele>
<time>2011-04-24T05:09:23Z</time>
<desc>lat.=22.303509, lon.=103.775414, Alt.=3142.533203m. Speed=0.756000m/h.</desc>
<speed>0.210000</speed>
</trkpt>
<trkpt lat="22.303513" lon="103.775414">
<ele>3142.033203</ele>
<time>2011-04-24T05:09:28Z</time>
<desc>lat.=22.303513, lon.=103.775414, Alt.=3142.033203m. Speed=0.468000m/h.</desc>
<speed>0.130000</speed>
</trkpt>
<trkpt lat="22.303513" lon="103.775414">
<ele>3141.970703</ele>
<time>2011-04-24T05:09:33Z</time>
<desc>lat.=22.303513, lon.=103.775414, Alt.=3141.970703m. Speed=0.072000m/h.</desc>
<speed>0.020000</speed>
</trkpt>
<trkpt lat="22.303513" lon="103.775414">
<ele>3141.970703</ele>
<time>2011-04-24T05:09:38Z</time>
<desc>lat.=22.303513, lon.=103.775414, Alt.=3141.970703m. Speed=0.612000m/h.</desc>
<speed>0.170000</speed>
</trkpt>
<trkpt lat="22.303514" lon="103.775406">
<ele>3141.908203</ele>
<time>2011-04-24T05:09:43Z</time>
<desc>lat.=22.303514, lon.=103.775406, Alt.=3141.908203m. Speed=0.036000m/h.</desc>
<speed>0.010000</speed>
</trkpt>
<trkpt lat="22.303518" lon="103.775406">
<ele>3141.408203</ele>
<time>2011-04-24T05:09:48Z</time>
<desc>lat.=22.303518, lon.=103.775406, Alt.=3141.408203m. Speed=0.360000m/h.</desc>
<speed>0.100000</speed>
</trkpt>
<trkpt lat="22.303516" lon="103.775414">
<ele>3139.908203</ele>
<time>2011-04-24T05:09:53Z</time>
<desc>lat.=22.303516, lon.=103.775414, Alt.=3139.908203m. Speed=0.648000m/h.</desc>
<speed>0.180000</speed>
</trkpt>
<trkpt lat="22.303514" lon="103.775421">
<ele>3138.970703</ele>
<time>2011-04-24T05:09:58Z</time>
<desc>lat.=22.303514, lon.=103.775421, Alt.=3138.970703m. Speed=0.792000m/h.</desc>
<speed>0.220000</speed>
</trkpt>
<trkpt lat="22.303514" lon="103.775429">
<ele>3138.158203</ele>
<time>2011-04-24T05:10:03Z</time>
<desc>lat.=22.303514, lon.=103.775429, Alt.=3138.158203m. Speed=0.720000m/h.</desc>
<speed>0.200000</speed>
</trkpt>
<trkpt lat="22.303516" lon="103.775436">
<ele>3137.408203</ele>
<time>2011-04-24T05:10:08Z</time>
<desc>lat.=22.303516, lon.=103.775436, Alt.=3137.408203m. Speed=0.612000m/h.</desc>
<speed>0.170000</speed>
</trkpt>
<trkpt lat="22.303520" lon="103.775444">
<ele>3136.720703</ele>
<time>2011-04-24T05:10:13Z</time>
<desc>lat.=22.303520, lon.=103.775444, Alt.=3136.720703m. Speed=0.612000m/h.</desc>
<speed>0.170000</speed>
</trkpt>
<trkpt lat="22.303528" lon="103.775444">
<ele>3135.845703</ele>
<time>2011-04-24T05:10:18Z</time>
<desc>lat.=22.303528, lon.=103.775444, Alt.=3135.845703m. Speed=1.008000m/h.</desc>
<speed>0.280000</speed>
</trkpt>
<trkpt lat="22.303535" lon="103.775429">
<ele>3135.033203</ele>
<time>2011-04-24T05:10:23Z</time>
<desc>lat.=22.303535, lon.=103.775429, Alt.=3135.033203m. Speed=0.648000m/h.</desc>
<speed>0.180000</speed>
</trkpt>
<trkpt lat="22.303541" lon="103.775429">
<ele>3134.158203</ele>
<time>2011-04-24T05:10:28Z</time>
<desc>lat.=22.303541, lon.=103.775429, Alt.=3134.158203m. Speed=0.360000m/h.</desc>
<speed>0.100000</speed>
</trkpt>
<trkpt lat="22.303543" lon="103.775421">
<ele>3133.345703</ele>
<time>2011-04-24T05:10:33Z</time>
<desc>lat.=22.303543, lon.=103.775421, Alt.=3133.345703m. Speed=1.044000m/h.</desc>
<speed>0.290000</speed>
</trkpt>
<trkpt lat="22.303549" lon="103.775436">
<ele>3132.220703</ele>
<time>2011-04-24T05:10:38Z</time>
<desc>lat.=22.303549, lon.=103.775436, Alt.=3132.220703m. Speed=0.756000m/h.</desc>
<speed>0.210000</speed>
</trkpt>
<trkpt lat="22.303566" lon="103.775452">
<ele>3131.908203</ele>
<time>2011-04-24T05:10:43Z</time>
<desc>lat.=22.303566, lon.=103.775452, Alt.=3131.908203m. Speed=1.008000m/h.</desc>
<speed>0.280000</speed>
</trkpt>
<trkpt lat="22.303577" lon="103.775459">
<ele>3131.158203</ele>
<time>2011-04-24T05:10:48Z</time>
<desc>lat.=22.303577, lon.=103.775459, Alt.=3131.158203m. Speed=2.340000m/h.</desc>
<speed>0.650000</speed>
</trkpt>
<trkpt lat="22.303600" lon="103.775482">
<ele>3130.595703</ele>
<time>2011-04-24T05:10:53Z</time>
<desc>lat.=22.303600, lon.=103.775482, Alt.=3130.595703m. Speed=1.944000m/h.</desc>
<speed>0.540000</speed>
</trkpt>
<trkpt lat="22.303608" lon="103.775497">
<ele>3130.158203</ele>
<time>2011-04-24T05:10:58Z</time>
<desc>lat.=22.303608, lon.=103.775497, Alt.=3130.158203m. Speed=1.440000m/h.</desc>
<speed>0.400000</speed>
</trkpt>
<trkpt lat="22.303598" lon="103.775513">
<ele>3129.970703</ele>
<time>2011-04-24T05:11:03Z</time>
<desc>lat.=22.303598, lon.=103.775513, Alt.=3129.970703m. Speed=0.684000m/h.</desc>
<speed>0.190000</speed>
</trkpt>
<trkpt lat="22.303610" lon="103.775520">
<ele>3129.470703</ele>
<time>2011-04-24T05:11:08Z</time>
<desc>lat.=22.303610, lon.=103.775520, Alt.=3129.470703m. Speed=0.756000m/h.</desc>
<speed>0.210000</speed>
</trkpt>
<trkpt lat="22.303617" lon="103.775528">
<ele>3129.220703</ele>
<time>2011-04-24T05:11:13Z</time>
<desc>lat.=22.303617, lon.=103.775528, Alt.=3129.220703m. Speed=0.324000m/h.</desc>
<speed>0.090000</speed>
</trkpt>
<trkpt lat="22.303619" lon="103.775536">
<ele>3129.033203</ele>
<time>2011-04-24T05:11:18Z</time>
<desc>lat.=22.303619, lon.=103.775536, Alt.=3129.033203m. Speed=0.504000m/h.</desc>
<speed>0.140000</speed>
</trkpt>
<trkpt lat="22.303619" lon="103.775536">
<ele>3128.970703</ele>
<time>2011-04-24T05:11:23Z</time>
<desc>lat.=22.303619, lon.=103.775536, Alt.=3128.970703m. Speed=0.360000m/h.</desc>
<speed>0.100000</speed>
</trkpt>
<trkpt lat="22.303623" lon="103.775551">
<ele>3128.720703</ele>
<time>2011-04-24T05:11:28Z</time>
<desc>lat.=22.303623, lon.=103.775551, Alt.=3128.720703m. Speed=1.584000m/h.</desc>
<speed>0.440000</speed>
</trkpt>
<trkpt lat="22.303644" lon="103.775558">
<ele>3128.345703</ele>
<time>2011-04-24T05:11:33Z</time>
<desc>lat.=22.303644, lon.=103.775558, Alt.=3128.345703m. Speed=1.656000m/h.</desc>
<speed>0.460000</speed>
</trkpt>
<trkpt lat="22.303650" lon="103.775566">
<ele>3128.095703</ele>
<time>2011-04-24T05:11:38Z</time>
<desc>lat.=22.303650, lon.=103.775566, Alt.=3128.095703m. Speed=1.512000m/h.</desc>
<speed>0.420000</speed>
</trkpt>
<trkpt lat="22.303665" lon="103.775589">
<ele>3128.283203</ele>
<time>2011-04-24T05:11:43Z</time>
<desc>lat.=22.303665, lon.=103.775589, Alt.=3128.283203m. Speed=1.368000m/h.</desc>
<speed>0.380000</speed>
</trkpt>
<trkpt lat="22.303677" lon="103.775604">
<ele>3128.095703</ele>
<time>2011-04-24T05:11:48Z</time>
<desc>lat.=22.303677, lon.=103.775604, Alt.=3128.095703m. Speed=0.072000m/h.</desc>
<speed>0.020000</speed>
</trkpt>
<trkpt lat="22.303682" lon="103.775597">
<ele>3127.908203</ele>
<time>2011-04-24T05:11:53Z</time>
<desc>lat.=22.303682, lon.=103.775597, Alt.=3127.908203m. Speed=0.792000m/h.</desc>
<speed>0.220000</speed>
</trkpt>
<trkpt lat="22.303688" lon="103.775581">
<ele>3127.345703</ele>
<time>2011-04-24T05:11:58Z</time>
<desc>lat.=22.303688, lon.=103.775581, Alt.=3127.345703m. Speed=0.648000m/h.</desc>
<speed>0.180000</speed>
</trkpt>
<trkpt lat="22.303680" lon="103.775558">
<ele>3126.783203</ele>
<time>2011-04-24T05:12:03Z</time>
<desc>lat.=22.303680, lon.=103.775558, Alt.=3126.783203m. Speed=2.016000m/h.</desc>
<speed>0.560000</speed>
</trkpt>
<trkpt lat="22.303692" lon="103.775558">
<ele>3126.158203</ele>
<time>2011-04-24T05:12:08Z</time>
<desc>lat.=22.303692, lon.=103.775558, Alt.=3126.158203m. Speed=0.324000m/h.</desc>
<speed>0.090000</speed>
</trkpt>
<trkpt lat="22.303705" lon="103.775551">
<ele>3125.595703</ele>
<time>2011-04-24T05:12:13Z</time>
<desc>lat.=22.303705, lon.=103.775551, Alt.=3125.595703m. Speed=1.332000m/h.</desc>
<speed>0.370000</speed>
</trkpt>
<trkpt lat="22.303734" lon="103.775551">
<ele>3124.845703</ele>
<time>2011-04-24T05:12:18Z</time>
<desc>lat.=22.303734, lon.=103.775551, Alt.=3124.845703m. Speed=0.756000m/h.</desc>
<speed>0.210000</speed>
</trkpt>
<trkpt lat="22.303741" lon="103.775551">
<ele>3124.658203</ele>
<time>2011-04-24T05:12:23Z</time>
<desc>lat.=22.303741, lon.=103.775551, Alt.=3124.658203m. Speed=1.404000m/h.</desc>
<speed>0.390000</speed>
</trkpt>
<trkpt lat="22.303782" lon="103.775536">
<ele>3123.408203</ele>
<time>2011-04-24T05:12:28Z</time>
<desc>lat.=22.303782, lon.=103.775536, Alt.=3123.408203m. Speed=0.324000m/h.</desc>
<speed>0.090000</speed>
</trkpt>
<trkpt lat="22.303778" lon="103.775528">
<ele>3123.283203</ele>
<time>2011-04-24T05:12:33Z</time>
<desc>lat.=22.303778, lon.=103.775528, Alt.=3123.283203m. Speed=0.396000m/h.</desc>
<speed>0.110000</speed>
</trkpt>
<trkpt lat="22.303780" lon="103.775520">
<ele>3123.220703</ele>
<time>2011-04-24T05:12:38Z</time>
<desc>lat.=22.303780, lon.=103.775520, Alt.=3123.220703m. Speed=0.720000m/h.</desc>
<speed>0.200000</speed>
</trkpt>
<trkpt lat="22.303787" lon="103.775513">
<ele>3123.158203</ele>
<time>2011-04-24T05:12:43Z</time>
<desc>lat.=22.303787, lon.=103.775513, Alt.=3123.158203m. Speed=1.044000m/h.</desc>
<speed>0.290000</speed>
</trkpt>
<trkpt lat="22.303791" lon="103.775505">
<ele>3123.095703</ele>
<time>2011-04-24T05:12:48Z</time>
<desc>lat.=22.303791, lon.=103.775505, Alt.=3123.095703m. Speed=1.008000m/h.</desc>
<speed>0.280000</speed>
</trkpt>
<trkpt lat="22.303799" lon="103.775497">
<ele>3123.033203</ele>
<time>2011-04-24T05:12:53Z</time>
<desc>lat.=22.303799, lon.=103.775497, Alt.=3123.033203m. Speed=0.756000m/h.</desc>
<speed>0.210000</speed>
</trkpt>
<trkpt lat="22.303804" lon="103.775467">
<ele>3122.720703</ele>
<time>2011-04-24T05:12:58Z</time>
<desc>lat.=22.303804, lon.=103.775467, Alt.=3122.720703m. Speed=0.864000m/h.</desc>
<speed>0.240000</speed>
</trkpt>
<trkpt lat="22.303820" lon="103.775452">
<ele>3122.470703</ele>
<time>2011-04-24T05:13:03Z</time>
<desc>lat.=22.303820, lon.=103.775452, Alt.=3122.470703m. Speed=0.972000m/h.</desc>
<speed>0.270000</speed>
</trkpt>
<trkpt lat="22.303812" lon="103.775436">
<ele>3122.345703</ele>
<time>2011-04-24T05:13:08Z</time>
<desc>lat.=22.303812, lon.=103.775436, Alt.=3122.345703m. Speed=0.576000m/h.</desc>
<speed>0.160000</speed>
</trkpt>
<trkpt lat="22.303831" lon="103.775429">
<ele>3122.283203</ele>
<time>2011-04-24T05:13:13Z</time>
<desc>lat.=22.303831, lon.=103.775429, Alt.=3122.283203m. Speed=1.800000m/h.</desc>
<speed>0.500000</speed>
</trkpt>
<trkpt lat="22.303879" lon="103.775436">
<ele>3121.595703</ele>
<time>2011-04-24T05:13:18Z</time>
<desc>lat.=22.303879, lon.=103.775436, Alt.=3121.595703m. Speed=0.756000m/h.</desc>
<speed>0.210000</speed>
</trkpt>
<trkpt lat="22.303888" lon="103.775429">
<ele>3121.595703</ele>
<time>2011-04-24T05:13:23Z</time>
<desc>lat.=22.303888, lon.=103.775429, Alt.=3121.595703m. Speed=0.648000m/h.</desc>
<speed>0.180000</speed>
</trkpt>
<trkpt lat="22.303896" lon="103.775429">
<ele>3121.533203</ele>
<time>2011-04-24T05:13:28Z</time>
<desc>lat.=22.303896, lon.=103.775429, Alt.=3121.533203m. Speed=1.044000m/h.</desc>
<speed>0.290000</speed>
</trkpt>
<trkpt lat="22.303888" lon="103.775429">
<ele>3121.283203</ele>
<time>2011-04-24T05:13:33Z</time>
<desc>lat.=22.303888, lon.=103.775429, Alt.=3121.283203m. Speed=1.116000m/h.</desc>
<speed>0.310000</speed>
</trkpt>
<trkpt lat="22.303892" lon="103.775429">
<ele>3121.283203</ele>
<time>2011-04-24T05:13:38Z</time>
<desc>lat.=22.303892, lon.=103.775429, Alt.=3121.283203m. Speed=1.368000m/h.</desc>
<speed>0.380000</speed>
</trkpt>
<trkpt lat="22.303934" lon="103.775436">
<ele>3121.033203</ele>
<time>2011-04-24T05:13:43Z</time>
<desc>lat.=22.303934, lon.=103.775436, Alt.=3121.033203m. Speed=2.124000m/h.</desc>
<speed>0.590000</speed>
</trkpt>
<trkpt lat="22.303967" lon="103.775429">
<ele>3120.658203</ele>
<time>2011-04-24T05:13:48Z</time>
<desc>lat.=22.303967, lon.=103.775429, Alt.=3120.658203m. Speed=1.476000m/h.</desc>
<speed>0.410000</speed>
</trkpt>
<trkpt lat="22.303993" lon="103.775414">
<ele>3120.220703</ele>
<time>2011-04-24T05:13:53Z</time>
<desc>lat.=22.303993, lon.=103.775414, Alt.=3120.220703m. Speed=1.008000m/h.</desc>
<speed>0.280000</speed>
</trkpt>
<trkpt lat="22.303995" lon="103.775383">
<ele>3119.783203</ele>
<time>2011-04-24T05:13:58Z</time>
<desc>lat.=22.303995, lon.=103.775383, Alt.=3119.783203m. Speed=1.620000m/h.</desc>
<speed>0.450000</speed>
</trkpt>
<trkpt lat="22.304018" lon="103.775375">
<ele>3118.095703</ele>
<time>2011-04-24T05:14:03Z</time>
<desc>lat.=22.304018, lon.=103.775375, Alt.=3118.095703m. Speed=1.980000m/h.</desc>
<speed>0.550000</speed>
</trkpt>
<trkpt lat="22.304052" lon="103.775383">
<ele>3116.908203</ele>
<time>2011-04-24T05:14:08Z</time>
<desc>lat.=22.304052, lon.=103.775383, Alt.=3116.908203m. Speed=2.772000m/h.</desc>
<speed>0.770000</speed>
</trkpt>
<trkpt lat="22.304089" lon="103.775398">
<ele>3116.908203</ele>
<time>2011-04-24T05:14:13Z</time>
<desc>lat.=22.304089, lon.=103.775398, Alt.=3116.908203m. Speed=2.772000m/h.</desc>
<speed>0.770000</speed>
</trkpt>
<trkpt lat="22.304131" lon="103.775391">
<ele>3116.720703</ele>
<time>2011-04-24T05:14:18Z</time>
<desc>lat.=22.304131, lon.=103.775391, Alt.=3116.720703m. Speed=1.332000m/h.</desc>
<speed>0.370000</speed>
</trkpt>
<trkpt lat="22.304144" lon="103.775414">
<ele>3116.720703</ele>
<time>2011-04-24T05:14:23Z</time>
<desc>lat.=22.304144, lon.=103.775414, Alt.=3116.720703m. Speed=2.664000m/h.</desc>
<speed>0.740000</speed>
</trkpt>
<trkpt lat="22.304169" lon="103.775436">
<ele>3116.408203</ele>
<time>2011-04-24T05:14:28Z</time>
<desc>lat.=22.304169, lon.=103.775436, Alt.=3116.408203m. Speed=2.232000m/h.</desc>
<speed>0.620000</speed>
</trkpt>
<trkpt lat="22.304161" lon="103.775414">
<ele>3115.345703</ele>
<time>2011-04-24T05:14:33Z</time>
<desc>lat.=22.304161, lon.=103.775414, Alt.=3115.345703m. Speed=0.756000m/h.</desc>
<speed>0.210000</speed>
</trkpt>
<trkpt lat="22.304155" lon="103.775383">
<ele>3114.095703</ele>
<time>2011-04-24T05:14:38Z</time>
<desc>lat.=22.304155, lon.=103.775383, Alt.=3114.095703m. Speed=0.684000m/h.</desc>
<speed>0.190000</speed>
</trkpt>
<trkpt lat="22.304148" lon="103.775360">
<ele>3112.470703</ele>
<time>2011-04-24T05:14:43Z</time>
<desc>lat.=22.304148, lon.=103.775360, Alt.=3112.470703m. Speed=0.252000m/h.</desc>
<speed>0.070000</speed>
</trkpt>
<trkpt lat="22.304180" lon="103.775406">
<ele>3111.158203</ele>
<time>2011-04-24T05:14:48Z</time>
<desc>lat.=22.304180, lon.=103.775406, Alt.=3111.158203m. Speed=1.224000m/h.</desc>
<speed>0.340000</speed>
</trkpt>
<trkpt lat="22.304157" lon="103.775421">
<ele>3110.470703</ele>
<time>2011-04-24T05:14:53Z</time>
<desc>lat.=22.304157, lon.=103.775421, Alt.=3110.470703m. Speed=2.016000m/h.</desc>
<speed>0.560000</speed>
</trkpt>
<trkpt lat="22.304131" lon="103.775421">
<ele>3109.720703</ele>
<time>2011-04-24T05:14:58Z</time>
<desc>lat.=22.304131, lon.=103.775421, Alt.=3109.720703m. Speed=0.252000m/h.</desc>
<speed>0.070000</speed>
</trkpt>
<trkpt lat="22.304129" lon="103.775421">
<ele>3109.345703</ele>
<time>2011-04-24T05:15:03Z</time>
<desc>lat.=22.304129, lon.=103.775421, Alt.=3109.345703m. Speed=0.864000m/h.</desc>
<speed>0.240000</speed>
</trkpt>
<trkpt lat="22.304142" lon="103.775421">
<ele>3108.658203</ele>
<time>2011-04-24T05:15:08Z</time>
<desc>lat.=22.304142, lon.=103.775421, Alt.=3108.658203m. Speed=1.044000m/h.</desc>
<speed>0.290000</speed>
</trkpt>
<trkpt lat="22.304167" lon="103.775414">
<ele>3107.970703</ele>
<time>2011-04-24T05:15:13Z</time>
<desc>lat.=22.304167, lon.=103.775414, Alt.=3107.970703m. Speed=2.268000m/h.</desc>
<speed>0.630000</speed>
</trkpt>
<trkpt lat="22.304182" lon="103.775398">
<ele>3106.908203</ele>
<time>2011-04-24T05:15:18Z</time>
<desc>lat.=22.304182, lon.=103.775398, Alt.=3106.908203m. Speed=3.348000m/h.</desc>
<speed>0.930000</speed>
</trkpt>
<trkpt lat="22.304193" lon="103.775383">
<ele>3105.220703</ele>
<time>2011-04-24T05:15:23Z</time>
<desc>lat.=22.304193, lon.=103.775383, Alt.=3105.220703m. Speed=1.692000m/h.</desc>
<speed>0.470000</speed>
</trkpt>
<trkpt lat="22.304199" lon="103.775383">
<ele>3104.845703</ele>
<time>2011-04-24T05:15:28Z</time>
<desc>lat.=22.304199, lon.=103.775383, Alt.=3104.845703m. Speed=0.720000m/h.</desc>
<speed>0.200000</speed>
</trkpt>
<trkpt lat="22.304205" lon="103.775383">
<ele>3104.220703</ele>
<time>2011-04-24T05:15:33Z</time>
<desc>lat.=22.304205, lon.=103.775383, Alt.=3104.220703m. Speed=0.900000m/h.</desc>
<speed>0.250000</speed>
</trkpt>
<trkpt lat="22.304211" lon="103.775368">
<ele>3103.595703</ele>
<time>2011-04-24T05:15:38Z</time>
<desc>lat.=22.304211, lon.=103.775368, Alt.=3103.595703m. Speed=1.800000m/h.</desc>
<speed>0.500000</speed>
</trkpt>
<trkpt lat="22.304211" lon="103.775337">
<ele>3102.658203</ele>
<time>2011-04-24T05:15:43Z</time>
<desc>lat.=22.304211, lon.=103.775337, Alt.=3102.658203m. Speed=1.296000m/h.</desc>
<speed>0.360000</speed>
</trkpt>
<trkpt lat="22.304224" lon="103.775337">
<ele>3102.408203</ele>
<time>2011-04-24T05:15:48Z</time>
<desc>lat.=22.304224, lon.=103.775337, Alt.=3102.408203m. Speed=1.044000m/h.</desc>
<speed>0.290000</speed>
</trkpt>
<trkpt lat="22.304241" lon="103.775314">
<ele>3101.658203</ele>
<time>2011-04-24T05:15:53Z</time>
<desc>lat.=22.304241, lon.=103.775314, Alt.=3101.658203m. Speed=1.728000m/h.</desc>
<speed>0.480000</speed>
</trkpt>
<trkpt lat="22.304268" lon="103.775284">
<ele>3100.345703</ele>
<time>2011-04-24T05:15:58Z</time>
<desc>lat.=22.304268, lon.=103.775284, Alt.=3100.345703m. Speed=2.700000m/h.</desc>
<speed>0.750000</speed>
</trkpt>
<trkpt lat="22.304295" lon="103.775253">
<ele>3096.658203</ele>
<time>2011-04-24T05:16:03Z</time>
<desc>lat.=22.304295, lon.=103.775253, Alt.=3096.658203m. Speed=2.268000m/h.</desc>
<speed>0.630000</speed>
</trkpt>
<trkpt lat="22.304340" lon="103.775291">
<ele>3094.095703</ele>
<time>2011-04-24T05:16:08Z</time>
<desc>lat.=22.304340, lon.=103.775291, Alt.=3094.095703m. Speed=4.284000m/h.</desc>
<speed>1.190000</speed>
</trkpt>
<trkpt lat="22.304392" lon="103.775314">
<ele>3090.658203</ele>
<time>2011-04-24T05:16:13Z</time>
<desc>lat.=22.304392, lon.=103.775314, Alt.=3090.658203m. Speed=3.528000m/h.</desc>
<speed>0.980000</speed>
</trkpt>
<trkpt lat="22.304455" lon="103.775330">
<ele>3088.345703</ele>
<time>2011-04-24T05:16:18Z</time>
<desc>lat.=22.304455, lon.=103.775330, Alt.=3088.345703m. Speed=6.120000m/h.</desc>
<speed>1.700000</speed>
</trkpt>
<trkpt lat="22.304514" lon="103.775337">
<ele>3086.158203</ele>
<time>2011-04-24T05:16:23Z</time>
<desc>lat.=22.304514, lon.=103.775337, Alt.=3086.158203m. Speed=3.024000m/h.</desc>
<speed>0.840000</speed>
</trkpt>
<trkpt lat="22.304533" lon="103.775322">
<ele>3084.595703</ele>
<time>2011-04-24T05:16:28Z</time>
<desc>lat.=22.304533, lon.=103.775322, Alt.=3084.595703m. Speed=3.384000m/h.</desc>
<speed>0.940000</speed>
</trkpt>
<trkpt lat="22.304565" lon="103.775291">
<ele>3082.220703</ele>
<time>2011-04-24T05:16:33Z</time>
<desc>lat.=22.304565, lon.=103.775291, Alt.=3082.220703m. Speed=3.276000m/h.</desc>
<speed>0.910000</speed>
</trkpt>
<trkpt lat="22.304592" lon="103.775284">
<ele>3081.283203</ele>
<time>2011-04-24T05:16:38Z</time>
<desc>lat.=22.304592, lon.=103.775284, Alt.=3081.283203m. Speed=1.188000m/h.</desc>
<speed>0.330000</speed>
</trkpt>
<trkpt lat="22.304619" lon="103.775276">
<ele>3079.408203</ele>
<time>2011-04-24T05:16:43Z</time>
<desc>lat.=22.304619, lon.=103.775276, Alt.=3079.408203m. Speed=1.332000m/h.</desc>
<speed>0.370000</speed>
</trkpt>
<trkpt lat="22.304644" lon="103.775253">
<ele>3078.033203</ele>
<time>2011-04-24T05:16:48Z</time>
<desc>lat.=22.304644, lon.=103.775253, Alt.=3078.033203m. Speed=2.268000m/h.</desc>
<speed>0.630000</speed>
</trkpt>
<trkpt lat="22.304678" lon="103.775261">
<ele>3076.533203</ele>
<time>2011-04-24T05:16:53Z</time>
<desc>lat.=22.304678, lon.=103.775261, Alt.=3076.533203m. Speed=3.708000m/h.</desc>
<speed>1.030000</speed>
</trkpt>
<trkpt lat="22.304718" lon="103.775253">
<ele>3074.408203</ele>
<time>2011-04-24T05:16:58Z</time>
<desc>lat.=22.304718, lon.=103.775253, Alt.=3074.408203m. Speed=2.880000m/h.</desc>
<speed>0.800000</speed>
</trkpt>
<trkpt lat="22.304760" lon="103.775246">
<ele>3072.220703</ele>
<time>2011-04-24T05:17:03Z</time>
<desc>lat.=22.304760, lon.=103.775246, Alt.=3072.220703m. Speed=2.916000m/h.</desc>
<speed>0.810000</speed>
</trkpt>
<trkpt lat="22.304804" lon="103.775223">
<ele>3069.345703</ele>
<time>2011-04-24T05:17:08Z</time>
<desc>lat.=22.304804, lon.=103.775223, Alt.=3069.345703m. Speed=3.960000m/h.</desc>
<speed>1.100000</speed>
</trkpt>
<trkpt lat="22.304853" lon="103.775192">
<ele>3067.595703</ele>
<time>2011-04-24T05:17:13Z</time>
<desc>lat.=22.304853, lon.=103.775192, Alt.=3067.595703m. Speed=3.816000m/h.</desc>
<speed>1.060000</speed>
</trkpt>
<trkpt lat="22.304897" lon="103.775185">
<ele>3065.970703</ele>
<time>2011-04-24T05:17:18Z</time>
<desc>lat.=22.304897, lon.=103.775185, Alt.=3065.970703m. Speed=4.428000m/h.</desc>
<speed>1.230000</speed>
</trkpt>
<trkpt lat="22.304930" lon="103.775169">
<ele>3064.595703</ele>
<time>2011-04-24T05:17:23Z</time>
<desc>lat.=22.304930, lon.=103.775169, Alt.=3064.595703m. Speed=1.152000m/h.</desc>
<speed>0.320000</speed>
</trkpt>
<trkpt lat="22.304962" lon="103.775139">
<ele>3062.783203</ele>
<time>2011-04-24T05:17:28Z</time>
<desc>lat.=22.304962, lon.=103.775139, Alt.=3062.783203m. Speed=5.364000m/h.</desc>
<speed>1.490000</speed>
</trkpt>
<trkpt lat="22.304983" lon="103.775124">
<ele>3061.595703</ele>
<time>2011-04-24T05:17:33Z</time>
<desc>lat.=22.304983, lon.=103.775124, Alt.=3061.595703m. Speed=1.656000m/h.</desc>
<speed>0.460000</speed>
</trkpt>
<trkpt lat="22.305008" lon="103.775108">
<ele>3061.345703</ele>
<time>2011-04-24T05:17:38Z</time>
<desc>lat.=22.305008, lon.=103.775108, Alt.=3061.345703m. Speed=1.944000m/h.</desc>
<speed>0.540000</speed>
</trkpt>
<trkpt lat="22.305023" lon="103.775116">
<ele>3060.845703</ele>
<time>2011-04-24T05:17:43Z</time>
<desc>lat.=22.305023, lon.=103.775116, Alt.=3060.845703m. Speed=1.116000m/h.</desc>
<speed>0.310000</speed>
</trkpt>
<trkpt lat="22.305037" lon="103.775116">
<ele>3059.970703</ele>
<time>2011-04-24T05:17:48Z</time>
<desc>lat.=22.305037, lon.=103.775116, Alt.=3059.970703m. Speed=0.756000m/h.</desc>
<speed>0.210000</speed>
</trkpt>
<trkpt lat="22.305050" lon="103.775108">
<ele>3059.345703</ele>
<time>2011-04-24T05:17:53Z</time>
<desc>lat.=22.305050, lon.=103.775108, Alt.=3059.345703m. Speed=0.648000m/h.</desc>
<speed>0.180000</speed>
</trkpt>
<trkpt lat="22.305063" lon="103.775101">
<ele>3058.345703</ele>
<time>2011-04-24T05:17:58Z</time>
<desc>lat.=22.305063, lon.=103.775101, Alt.=3058.345703m. Speed=1.116000m/h.</desc>
<speed>0.310000</speed>
</trkpt>
<trkpt lat="22.305061" lon="103.775108">
<ele>3057.158203</ele>
<time>2011-04-24T05:18:03Z</time>
<desc>lat.=22.305061, lon.=103.775108, Alt.=3057.158203m. Speed=0.432000m/h.</desc>
<speed>0.120000</speed>
</trkpt>
<trkpt lat="22.305075" lon="103.775101">
<ele>3056.658203</ele>
<time>2011-04-24T05:18:08Z</time>
<desc>lat.=22.305075, lon.=103.775101, Alt.=3056.658203m. Speed=1.188000m/h.</desc>
<speed>0.330000</speed>
</trkpt>
<trkpt lat="22.305101" lon="103.775108">
<ele>3055.595703</ele>
<time>2011-04-24T05:18:13Z</time>
<desc>lat.=22.305101, lon.=103.775108, Alt.=3055.595703m. Speed=1.584000m/h.</desc>
<speed>0.440000</speed>
</trkpt>
<trkpt lat="22.305124" lon="103.775116">
<ele>3054.158203</ele>
<time>2011-04-24T05:18:18Z</time>
<desc>lat.=22.305124, lon.=103.775116, Alt.=3054.158203m. Speed=1.368000m/h.</desc>
<speed>0.380000</speed>
</trkpt>
<trkpt lat="22.305136" lon="103.775124">
<ele>3053.345703</ele>
<time>2011-04-24T05:18:23Z</time>
<desc>lat.=22.305136, lon.=103.775124, Alt.=3053.345703m. Speed=2.448000m/h.</desc>
<speed>0.680000</speed>
</trkpt>
<trkpt lat="22.305161" lon="103.775131">
<ele>3052.908203</ele>
<time>2011-04-24T05:18:28Z</time>
<desc>lat.=22.305161, lon.=103.775131, Alt.=3052.908203m. Speed=1.008000m/h.</desc>
<speed>0.280000</speed>
</trkpt>
<trkpt lat="22.305199" lon="103.775131">
<ele>3052.970703</ele>
<time>2011-04-24T05:18:33Z</time>
<desc>lat.=22.305199, lon.=103.775131, Alt.=3052.970703m. Speed=2.376000m/h.</desc>
<speed>0.660000</speed>
</trkpt>
<trkpt lat="22.305218" lon="103.775124">
<ele>3052.095703</ele>
<time>2011-04-24T05:18:38Z</time>
<desc>lat.=22.305218, lon.=103.775124, Alt.=3052.095703m. Speed=1.764000m/h.</desc>
<speed>0.490000</speed>
</trkpt>
<trkpt lat="22.305225" lon="103.775131">
<ele>3051.533203</ele>
<time>2011-04-24T05:18:43Z</time>
<desc>lat.=22.305225, lon.=103.775131, Alt.=3051.533203m. Speed=1.620000m/h.</desc>
<speed>0.450000</speed>
</trkpt>
<trkpt lat="22.305243" lon="103.775124">
<ele>3051.033203</ele>
<time>2011-04-24T05:18:48Z</time>
<desc>lat.=22.305243, lon.=103.775124, Alt.=3051.033203m. Speed=0.936000m/h.</desc>
<speed>0.260000</speed>
</trkpt>
<trkpt lat="22.305265" lon="103.775116">
<ele>3050.720703</ele>
<time>2011-04-24T05:18:53Z</time>
<desc>lat.=22.305265, lon.=103.775116, Alt.=3050.720703m. Speed=1.512000m/h.</desc>
<speed>0.420000</speed>
</trkpt>
<trkpt lat="22.305275" lon="103.775093">
<ele>3050.220703</ele>
<time>2011-04-24T05:18:58Z</time>
<desc>lat.=22.305275, lon.=103.775093, Alt.=3050.220703m. Speed=0.792000m/h.</desc>
<speed>0.220000</speed>
</trkpt>
<trkpt lat="22.305275" lon="103.775085">
<ele>3050.158203</ele>
<time>2011-04-24T05:19:03Z</time>
<desc>lat.=22.305275, lon.=103.775085, Alt.=3050.158203m. Speed=1.944000m/h.</desc>
<speed>0.540000</speed>
</trkpt>
<trkpt lat="22.305296" lon="103.775093">
<ele>3050.158203</ele>
<time>2011-04-24T05:19:08Z</time>
<desc>lat.=22.305296, lon.=103.775093, Alt.=3050.158203m. Speed=0.756000m/h.</desc>
<speed>0.210000</speed>
</trkpt>
<trkpt lat="22.305334" lon="103.775108">
<ele>3049.783203</ele>
<time>2011-04-24T05:19:13Z</time>
<desc>lat.=22.305334, lon.=103.775108, Alt.=3049.783203m. Speed=0.828000m/h.</desc>
<speed>0.230000</speed>
</trkpt>
<trkpt lat="22.305340" lon="103.775108">
<ele>3049.595703</ele>
<time>2011-04-24T05:19:18Z</time>
<desc>lat.=22.305340, lon.=103.775108, Alt.=3049.595703m. Speed=0.360000m/h.</desc>
<speed>0.100000</speed>
</trkpt>
<trkpt lat="22.305336" lon="103.775108">
<ele>3049.533203</ele>
<time>2011-04-24T05:19:23Z</time>
<desc>lat.=22.305336, lon.=103.775108, Alt.=3049.533203m. Speed=0.432000m/h.</desc>
<speed>0.120000</speed>
</trkpt>
<trkpt lat="22.305332" lon="103.775108">
<ele>3049.470703</ele>
<time>2011-04-24T05:19:28Z</time>
<desc>lat.=22.305332, lon.=103.775108, Alt.=3049.470703m. Speed=0.360000m/h.</desc>
<speed>0.100000</speed>
</trkpt>
<trkpt lat="22.305342" lon="103.775108">
<ele>3049.220703</ele>
<time>2011-04-24T05:19:33Z</time>
<desc>lat.=22.305342, lon.=103.775108, Alt.=3049.220703m. Speed=0.792000m/h.</desc>
<speed>0.220000</speed>
</trkpt>
<trkpt lat="22.305391" lon="103.775085">
<ele>3048.345703</ele>
<time>2011-04-24T05:19:38Z</time>
<desc>lat.=22.305391, lon.=103.775085, Alt.=3048.345703m. Speed=3.276000m/h.</desc>
<speed>0.910000</speed>
</trkpt>
<trkpt lat="22.305437" lon="103.775063">
<ele>3048.158203</ele>
<time>2011-04-24T05:19:43Z</time>
<desc>lat.=22.305437, lon.=103.775063, Alt.=3048.158203m. Speed=5.544000m/h.</desc>
<speed>1.540000</speed>
</trkpt>
<trkpt lat="22.305496" lon="103.775017">
<ele>3045.845703</ele>
<time>2011-04-24T05:19:48Z</time>
<desc>lat.=22.305496, lon.=103.775017, Alt.=3045.845703m. Speed=4.392000m/h.</desc>
<speed>1.220000</speed>
</trkpt>
<trkpt lat="22.305540" lon="103.774971">
<ele>3043.845703</ele>
<time>2011-04-24T05:19:53Z</time>
<desc>lat.=22.305540, lon.=103.774971, Alt.=3043.845703m. Speed=5.292000m/h.</desc>
<speed>1.470000</speed>
</trkpt>
<trkpt lat="22.305571" lon="103.774918">
<ele>3043.595703</ele>
<time>2011-04-24T05:19:58Z</time>
<desc>lat.=22.305571, lon.=103.774918, Alt.=3043.595703m. Speed=5.472000m/h.</desc>
<speed>1.520000</speed>
</trkpt>
<trkpt lat="22.305626" lon="103.774910">
<ele>3043.720703</ele>
<time>2011-04-24T05:20:03Z</time>
<desc>lat.=22.305626, lon.=103.774910, Alt.=3043.720703m. Speed=2.952000m/h.</desc>
<speed>0.820000</speed>
</trkpt>
<trkpt lat="22.305658" lon="103.774902">
<ele>3040.970703</ele>
<time>2011-04-24T05:20:08Z</time>
<desc>lat.=22.305658, lon.=103.774902, Alt.=3040.970703m. Speed=4.032000m/h.</desc>
<speed>1.120000</speed>
</trkpt>
<trkpt lat="22.305677" lon="103.774910">
<ele>3039.470703</ele>
<time>2011-04-24T05:20:13Z</time>
<desc>lat.=22.305677, lon.=103.774910, Alt.=3039.470703m. Speed=1.404000m/h.</desc>
<speed>0.390000</speed>
</trkpt>
<trkpt lat="22.305695" lon="103.774918">
<ele>3038.470703</ele>
<time>2011-04-24T05:20:18Z</time>
<desc>lat.=22.305695, lon.=103.774918, Alt.=3038.470703m. Speed=2.772000m/h.</desc>
<speed>0.770000</speed>
</trkpt>
<trkpt lat="22.305733" lon="103.774925">
<ele>3038.470703</ele>
<time>2011-04-24T05:20:23Z</time>
<desc>lat.=22.305733, lon.=103.774925, Alt.=3038.470703m. Speed=3.204000m/h.</desc>
<speed>0.890000</speed>
</trkpt>
<trkpt lat="22.305779" lon="103.774918">
<ele>3036.845703</ele>
<time>2011-04-24T05:20:28Z</time>
<desc>lat.=22.305779, lon.=103.774918, Alt.=3036.845703m. Speed=3.060000m/h.</desc>
<speed>0.850000</speed>
</trkpt>
<trkpt lat="22.305820" lon="103.774925">
<ele>3035.783203</ele>
<time>2011-04-24T05:20:33Z</time>
<desc>lat.=22.305820, lon.=103.774925, Alt.=3035.783203m. Speed=3.852000m/h.</desc>
<speed>1.070000</speed>
</trkpt>
<trkpt lat="22.305843" lon="103.774925">
<ele>3034.595703</ele>
<time>2011-04-24T05:20:38Z</time>
<desc>lat.=22.305843, lon.=103.774925, Alt.=3034.595703m. Speed=3.132000m/h.</desc>
<speed>0.870000</speed>
</trkpt>
<trkpt lat="22.305883" lon="103.774902">
<ele>3032.908203</ele>
<time>2011-04-24T05:20:43Z</time>
<desc>lat.=22.305883, lon.=103.774902, Alt.=3032.908203m. Speed=3.348000m/h.</desc>
<speed>0.930000</speed>
</trkpt>
<trkpt lat="22.305906" lon="103.774872">
<ele>3032.033203</ele>
<time>2011-04-24T05:20:48Z</time>
<desc>lat.=22.305906, lon.=103.774872, Alt.=3032.033203m. Speed=3.204000m/h.</desc>
<speed>0.890000</speed>
</trkpt>
<trkpt lat="22.305943" lon="103.774857">
<ele>3030.908203</ele>
<time>2011-04-24T05:20:53Z</time>
<desc>lat.=22.305943, lon.=103.774857, Alt.=3030.908203m. Speed=4.644000m/h.</desc>
<speed>1.290000</speed>
</trkpt>
<trkpt lat="22.305956" lon="103.774857">
<ele>3030.908203</ele>
<time>2011-04-24T05:20:58Z</time>
<desc>lat.=22.305956, lon.=103.774857, Alt.=3030.908203m. Speed=0.288000m/h.</desc>
<speed>0.080000</speed>
</trkpt>
<trkpt lat="22.305971" lon="103.774849">
<ele>3030.658203</ele>
<time>2011-04-24T05:21:03Z</time>
<desc>lat.=22.305971, lon.=103.774849, Alt.=3030.658203m. Speed=2.628000m/h.</desc>
<speed>0.730000</speed>
</trkpt>
<trkpt lat="22.306007" lon="103.774841">
<ele>3028.908203</ele>
<time>2011-04-24T05:21:08Z</time>
<desc>lat.=22.306007, lon.=103.774841, Alt.=3028.908203m. Speed=4.824000m/h.</desc>
<speed>1.340000</speed>
</trkpt>
<trkpt lat="22.306042" lon="103.774788">
<ele>3027.845703</ele>
<time>2011-04-24T05:21:13Z</time>
<desc>lat.=22.306042, lon.=103.774788, Alt.=3027.845703m. Speed=3.816000m/h.</desc>
<speed>1.060000</speed>
</trkpt>
<trkpt lat="22.306084" lon="103.774780">
<ele>3026.095703</ele>
<time>2011-04-24T05:21:18Z</time>
<desc>lat.=22.306084, lon.=103.774780, Alt.=3026.095703m. Speed=2.160000m/h.</desc>
<speed>0.600000</speed>
</trkpt>
<trkpt lat="22.306086" lon="103.774773">
<ele>3024.845703</ele>
<time>2011-04-24T05:21:23Z</time>
<desc>lat.=22.306086, lon.=103.774773, Alt.=3024.845703m. Speed=0.396000m/h.</desc>
<speed>0.110000</speed>
</trkpt>
<trkpt lat="22.306084" lon="103.774765">
<ele>3024.533203</ele>
<time>2011-04-24T05:21:28Z</time>
<desc>lat.=22.306084, lon.=103.774765, Alt.=3024.533203m. Speed=0.684000m/h.</desc>
<speed>0.190000</speed>
</trkpt>
<trkpt lat="22.306086" lon="103.774773">
<ele>3024.595703</ele>
<time>2011-04-24T05:21:33Z</time>
<desc>lat.=22.306086, lon.=103.774773, Alt.=3024.595703m. Speed=0.144000m/h.</desc>
<speed>0.040000</speed>
</trkpt>
<trkpt lat="22.306089" lon="103.774773">
<ele>3024.658203</ele>
<time>2011-04-24T05:21:38Z</time>
<desc>lat.=22.306089, lon.=103.774773, Alt.=3024.658203m. Speed=0.576000m/h.</desc>
<speed>0.160000</speed>
</trkpt>
<trkpt lat="22.306095" lon="103.774780">
<ele>3023.970703</ele>
<time>2011-04-24T05:21:43Z</time>
<desc>lat.=22.306095, lon.=103.774780, Alt.=3023.970703m. Speed=1.548000m/h.</desc>
<speed>0.430000</speed>
</trkpt>
<trkpt lat="22.306097" lon="103.774788">
<ele>3023.720703</ele>
<time>2011-04-24T05:21:48Z</time>
<desc>lat.=22.306097, lon.=103.774788, Alt.=3023.720703m. Speed=0.072000m/h.</desc>
<speed>0.020000</speed>
</trkpt>
<trkpt lat="22.306097" lon="103.774788">
<ele>3023.720703</ele>
<time>2011-04-24T05:21:53Z</time>
<desc>lat.=22.306097, lon.=103.774788, Alt.=3023.720703m. Speed=0.072000m/h.</desc>
<speed>0.020000</speed>
</trkpt>
<trkpt lat="22.306099" lon="103.774780">
<ele>3023.720703</ele>
<time>2011-04-24T05:21:58Z</time>
<desc>lat.=22.306099, lon.=103.774780, Alt.=3023.720703m. Speed=1.260000m/h.</desc>
<speed>0.350000</speed>
</trkpt>
<trkpt lat="22.306108" lon="103.774773">
<ele>3022.470703</ele>
<time>2011-04-24T05:22:03Z</time>
<desc>lat.=22.306108, lon.=103.774773, Alt.=3022.470703m. Speed=1.692000m/h.</desc>
<speed>0.470000</speed>
</trkpt>
<trkpt lat="22.306137" lon="103.774750">
<ele>3021.158203</ele>
<time>2011-04-24T05:22:08Z</time>
<desc>lat.=22.306137, lon.=103.774750, Alt.=3021.158203m. Speed=2.196000m/h.</desc>
<speed>0.610000</speed>
</trkpt>
<trkpt lat="22.306154" lon="103.774734">
<ele>3019.845703</ele>
<time>2011-04-24T05:22:13Z</time>
<desc>lat.=22.306154, lon.=103.774734, Alt.=3019.845703m. Speed=3.672000m/h.</desc>
<speed>1.020000</speed>
</trkpt>
<trkpt lat="22.306210" lon="103.774719">
<ele>3018.658203</ele>
<time>2011-04-24T05:22:18Z</time>
<desc>lat.=22.306210, lon.=103.774719, Alt.=3018.658203m. Speed=4.176000m/h.</desc>
<speed>1.160000</speed>
</trkpt>
<trkpt lat="22.306269" lon="103.774712">
<ele>3016.970703</ele>
<time>2011-04-24T05:22:23Z</time>
<desc>lat.=22.306269, lon.=103.774712, Alt.=3016.970703m. Speed=3.240000m/h.</desc>
<speed>0.900000</speed>
</trkpt>
<trkpt lat="22.306301" lon="103.774689">
<ele>3015.345703</ele>
<time>2011-04-24T05:22:28Z</time>
<desc>lat.=22.306301, lon.=103.774689, Alt.=3015.345703m. Speed=2.556000m/h.</desc>
<speed>0.710000</speed>
</trkpt>
<trkpt lat="22.306316" lon="103.774681">
<ele>3014.095703</ele>
<time>2011-04-24T05:22:33Z</time>
<desc>lat.=22.306316, lon.=103.774681, Alt.=3014.095703m. Speed=1.584000m/h.</desc>
<speed>0.440000</speed>
</trkpt>
<trkpt lat="22.306345" lon="103.774673">
<ele>3013.033203</ele>
<time>2011-04-24T05:22:38Z</time>
<desc>lat.=22.306345, lon.=103.774673, Alt.=3013.033203m. Speed=3.024000m/h.</desc>
<speed>0.840000</speed>
</trkpt>
<trkpt lat="22.306383" lon="103.774681">
<ele>3011.720703</ele>
<time>2011-04-24T05:22:43Z</time>
<desc>lat.=22.306383, lon.=103.774681, Alt.=3011.720703m. Speed=4.428000m/h.</desc>
<speed>1.230000</speed>
</trkpt>
<trkpt lat="22.306440" lon="103.774704">
<ele>3009.908203</ele>
<time>2011-04-24T05:22:48Z</time>
<desc>lat.=22.306440, lon.=103.774704, Alt.=3009.908203m. Speed=7.164000m/h.</desc>
<speed>1.990000</speed>
</trkpt>
<trkpt lat="22.306519" lon="103.774704">
<ele>3009.283203</ele>
<time>2011-04-24T05:22:53Z</time>
<desc>lat.=22.306519, lon.=103.774704, Alt.=3009.283203m. Speed=5.544000m/h.</desc>
<speed>1.540000</speed>
</trkpt>
<trkpt lat="22.306608" lon="103.774712">
<ele>3008.158203</ele>
<time>2011-04-24T05:22:58Z</time>
<desc>lat.=22.306608, lon.=103.774712, Alt.=3008.158203m. Speed=7.056000m/h.</desc>
<speed>1.960000</speed>
</trkpt>
<trkpt lat="22.306662" lon="103.774719">
<ele>3008.033203</ele>
<time>2011-04-24T05:23:03Z</time>
<desc>lat.=22.306662, lon.=103.774719, Alt.=3008.033203m. Speed=1.908000m/h.</desc>
<speed>0.530000</speed>
</trkpt>
<trkpt lat="22.306669" lon="103.774742">
<ele>3007.283203</ele>
<time>2011-04-24T05:23:08Z</time>
<desc>lat.=22.306669, lon.=103.774742, Alt.=3007.283203m. Speed=1.620000m/h.</desc>
<speed>0.450000</speed>
</trkpt>
<trkpt lat="22.306669" lon="103.774757">
<ele>3006.595703</ele>
<time>2011-04-24T05:23:13Z</time>
<desc>lat.=22.306669, lon.=103.774757, Alt.=3006.595703m. Speed=3.636000m/h.</desc>
<speed>1.010000</speed>
</trkpt>
<trkpt lat="22.306675" lon="103.774780">
<ele>3005.408203</ele>
<time>2011-04-24T05:23:18Z</time>
<desc>lat.=22.306675, lon.=103.774780, Alt.=3005.408203m. Speed=0.288000m/h.</desc>
<speed>0.080000</speed>
</trkpt>
<trkpt lat="22.306690" lon="103.774811">
<ele>3004.345703</ele>
<time>2011-04-24T05:23:23Z</time>
<desc>lat.=22.306690, lon.=103.774811, Alt.=3004.345703m. Speed=3.024000m/h.</desc>
<speed>0.840000</speed>
</trkpt>
<trkpt lat="22.306696" lon="103.774834">
<ele>3003.470703</ele>
<time>2011-04-24T05:23:28Z</time>
<desc>lat.=22.306696, lon.=103.774834, Alt.=3003.470703m. Speed=1.800000m/h.</desc>
<speed>0.500000</speed>
</trkpt>
<trkpt lat="22.306707" lon="103.774864">
<ele>3002.095703</ele>
<time>2011-04-24T05:23:33Z</time>
<desc>lat.=22.306707, lon.=103.774864, Alt.=3002.095703m. Speed=3.240000m/h.</desc>
<speed>0.900000</speed>
</trkpt>
<trkpt lat="22.306723" lon="103.774872">
<ele>3001.658203</ele>
<time>2011-04-24T05:23:38Z</time>
<desc>lat.=22.306723, lon.=103.774872, Alt.=3001.658203m. Speed=1.800000m/h.</desc>
<speed>0.500000</speed>
</trkpt>
<trkpt lat="22.306742" lon="103.774887">
<ele>3001.158203</ele>
<time>2011-04-24T05:23:43Z</time>
<desc>lat.=22.306742, lon.=103.774887, Alt.=3001.158203m. Speed=1.836000m/h.</desc>
<speed>0.510000</speed>
</trkpt>
<trkpt lat="22.306765" lon="103.774879">
<ele>3000.158203</ele>
<time>2011-04-24T05:23:48Z</time>
<desc>lat.=22.306765, lon.=103.774879, Alt.=3000.158203m. Speed=1.584000m/h.</desc>
<speed>0.440000</speed>
</trkpt>
<trkpt lat="22.306782" lon="103.774902">
<ele>2999.408203</ele>
<time>2011-04-24T05:23:53Z</time>
<desc>lat.=22.306782, lon.=103.774902, Alt.=2999.408203m. Speed=1.620000m/h.</desc>
<speed>0.450000</speed>
</trkpt>
<trkpt lat="22.306793" lon="103.774918">
<ele>2999.033203</ele>
<time>2011-04-24T05:23:58Z</time>
<desc>lat.=22.306793, lon.=103.774918, Alt.=2999.033203m. Speed=1.368000m/h.</desc>
<speed>0.380000</speed>
</trkpt>
<trkpt lat="22.306805" lon="103.774933">
<ele>2998.470703</ele>
<time>2011-04-24T05:24:03Z</time>
<desc>lat.=22.306805, lon.=103.774933, Alt.=2998.470703m. Speed=0.144000m/h.</desc>
<speed>0.040000</speed>
</trkpt>
<trkpt lat="22.306807" lon="103.774956">
<ele>2998.345703</ele>
<time>2011-04-24T05:24:08Z</time>
<desc>lat.=22.306807, lon.=103.774956, Alt.=2998.345703m. Speed=3.240000m/h.</desc>
<speed>0.900000</speed>
</trkpt>
<trkpt lat="22.306814" lon="103.774986">
<ele>2997.783203</ele>
<time>2011-04-24T05:24:13Z</time>
<desc>lat.=22.306814, lon.=103.774986, Alt.=2997.783203m. Speed=2.916000m/h.</desc>
<speed>0.810000</speed>
</trkpt>
<trkpt lat="22.306820" lon="103.775024">
<ele>2997.470703</ele>
<time>2011-04-24T05:24:18Z</time>
<desc>lat.=22.306820, lon.=103.775024, Alt.=2997.470703m. Speed=2.196000m/h.</desc>
<speed>0.610000</speed>
</trkpt>
<trkpt lat="22.306831" lon="103.775017">
<ele>2996.595703</ele>
<time>2011-04-24T05:24:23Z</time>
<desc>lat.=22.306831, lon.=103.775017, Alt.=2996.595703m. Speed=1.476000m/h.</desc>
<speed>0.410000</speed>
</trkpt>
<trkpt lat="22.306841" lon="103.775024">
<ele>2996.345703</ele>
<time>2011-04-24T05:24:28Z</time>
<desc>lat.=22.306841, lon.=103.775024, Alt.=2996.345703m. Speed=1.548000m/h.</desc>
<speed>0.430000</speed>
</trkpt>
<trkpt lat="22.306854" lon="103.775055">
<ele>2995.470703</ele>
<time>2011-04-24T05:24:33Z</time>
<desc>lat.=22.306854, lon.=103.775055, Alt.=2995.470703m. Speed=3.924000m/h.</desc>
<speed>1.090000</speed>
</trkpt>
<trkpt lat="22.306852" lon="103.775093">
<ele>2993.408203</ele>
<time>2011-04-24T05:24:38Z</time>
<desc>lat.=22.306852, lon.=103.775093, Alt.=2993.408203m. Speed=2.556000m/h.</desc>
<speed>0.710000</speed>
</trkpt>
<trkpt lat="22.306841" lon="103.775131">
<ele>2992.283203</ele>
<time>2011-04-24T05:24:43Z</time>
<desc>lat.=22.306841, lon.=103.775131, Alt.=2992.283203m. Speed=2.520000m/h.</desc>
<speed>0.700000</speed>
</trkpt>
<trkpt lat="22.306839" lon="103.775169">
<ele>2991.408203</ele>
<time>2011-04-24T05:24:48Z</time>
<desc>lat.=22.306839, lon.=103.775169, Alt.=2991.408203m. Speed=2.124000m/h.</desc>
<speed>0.590000</speed>
</trkpt>
<trkpt lat="22.306852" lon="103.775185">
<ele>2990.283203</ele>
<time>2011-04-24T05:24:53Z</time>
<desc>lat.=22.306852, lon.=103.775185, Alt.=2990.283203m. Speed=2.484000m/h.</desc>
<speed>0.690000</speed>
</trkpt>
<trkpt lat="22.306864" lon="103.775215">
<ele>2989.033203</ele>
<time>2011-04-24T05:24:58Z</time>
<desc>lat.=22.306864, lon.=103.775215, Alt.=2989.033203m. Speed=2.088000m/h.</desc>
<speed>0.580000</speed>
</trkpt>
<trkpt lat="22.306866" lon="103.775238">
<ele>2987.908203</ele>
<time>2011-04-24T05:25:03Z</time>
<desc>lat.=22.306866, lon.=103.775238, Alt.=2987.908203m. Speed=0.864000m/h.</desc>
<speed>0.240000</speed>
</trkpt>
<trkpt lat="22.306868" lon="103.775261">
<ele>2986.470703</ele>
<time>2011-04-24T05:25:08Z</time>
<desc>lat.=22.306868, lon.=103.775261, Alt.=2986.470703m. Speed=2.304000m/h.</desc>
<speed>0.640000</speed>
</trkpt>
<trkpt lat="22.306873" lon="103.775276">
<ele>2985.283203</ele>
<time>2011-04-24T05:25:13Z</time>
<desc>lat.=22.306873, lon.=103.775276, Alt.=2985.283203m. Speed=2.268000m/h.</desc>
<speed>0.630000</speed>
</trkpt>
<trkpt lat="22.306873" lon="103.775299">
<ele>2984.845703</ele>
<time>2011-04-24T05:25:18Z</time>
<desc>lat.=22.306873, lon.=103.775299, Alt.=2984.845703m. Speed=2.520000m/h.</desc>
<speed>0.700000</speed>
</trkpt>
<trkpt lat="22.306870" lon="103.775307">
<ele>2984.720703</ele>
<time>2011-04-24T05:25:23Z</time>
<desc>lat.=22.306870, lon.=103.775307, Alt.=2984.720703m. Speed=0.972000m/h.</desc>
<speed>0.270000</speed>
</trkpt>
<trkpt lat="22.306871" lon="103.775314">
<ele>2984.470703</ele>
<time>2011-04-24T05:25:28Z</time>
<desc>lat.=22.306871, lon.=103.775314, Alt.=2984.470703m. Speed=0.252000m/h.</desc>
<speed>0.070000</speed>
</trkpt>
<trkpt lat="22.306877" lon="103.775314">
<ele>2983.720703</ele>
<time>2011-04-24T05:25:33Z</time>
<desc>lat.=22.306877, lon.=103.775314, Alt.=2983.720703m. Speed=0.720000m/h.</desc>
<speed>0.200000</speed>
</trkpt>
<trkpt lat="22.306889" lon="103.775314">
<ele>2983.845703</ele>
<time>2011-04-24T05:25:38Z</time>
<desc>lat.=22.306889, lon.=103.775314, Alt.=2983.845703m. Speed=1.188000m/h.</desc>
<speed>0.330000</speed>
</trkpt>
<trkpt lat="22.306887" lon="103.775322">
<ele>2983.845703</ele>
<time>2011-04-24T05:25:43Z</time>
<desc>lat.=22.306887, lon.=103.775322, Alt.=2983.845703m. Speed=0.432000m/h.</desc>
<speed>0.120000</speed>
</trkpt>
<trkpt lat="22.306900" lon="103.775345">
<ele>2982.908203</ele>
<time>2011-04-24T05:25:48Z</time>
<desc>lat.=22.306900, lon.=103.775345, Alt.=2982.908203m. Speed=1.980000m/h.</desc>
<speed>0.550000</speed>
</trkpt>
<trkpt lat="22.306919" lon="103.775375">
<ele>2982.783203</ele>
<time>2011-04-24T05:25:53Z</time>
<desc>lat.=22.306919, lon.=103.775375, Alt.=2982.783203m. Speed=3.060000m/h.</desc>
<speed>0.850000</speed>
</trkpt>
<trkpt lat="22.306942" lon="103.775398">
<ele>2980.720703</ele>
<time>2011-04-24T05:25:58Z</time>
<desc>lat.=22.306942, lon.=103.775398, Alt.=2980.720703m. Speed=3.132000m/h.</desc>
<speed>0.870000</speed>
</trkpt>
<trkpt lat="22.306948" lon="103.775429">
<ele>2979.595703</ele>
<time>2011-04-24T05:26:03Z</time>
<desc>lat.=22.306948, lon.=103.775429, Alt.=2979.595703m. Speed=1.152000m/h.</desc>
<speed>0.320000</speed>
</trkpt>
<trkpt lat="22.306957" lon="103.775436">
<ele>2978.783203</ele>
<time>2011-04-24T05:26:08Z</time>
<desc>lat.=22.306957, lon.=103.775436, Alt.=2978.783203m. Speed=1.440000m/h.</desc>
<speed>0.400000</speed>
</trkpt>
<trkpt lat="22.306965" lon="103.775452">
<ele>2978.033203</ele>
<time>2011-04-24T05:26:13Z</time>
<desc>lat.=22.306965, lon.=103.775452, Alt.=2978.033203m. Speed=1.368000m/h.</desc>
<speed>0.380000</speed>
</trkpt>
<trkpt lat="22.306984" lon="103.775459">
<ele>2977.158203</ele>
<time>2011-04-24T05:26:18Z</time>
<desc>lat.=22.306984, lon.=103.775459, Alt.=2977.158203m. Speed=1.620000m/h.</desc>
<speed>0.450000</speed>
</trkpt>
<trkpt lat="22.306999" lon="103.775482">
<ele>2976.908203</ele>
<time>2011-04-24T05:26:23Z</time>
<desc>lat.=22.306999, lon.=103.775482, Alt.=2976.908203m. Speed=1.368000m/h.</desc>
<speed>0.380000</speed>
</trkpt>
<trkpt lat="22.307016" lon="103.775497">
<ele>2975.283203</ele>
<time>2011-04-24T05:26:28Z</time>
<desc>lat.=22.307016, lon.=103.775497, Alt.=2975.283203m. Speed=2.268000m/h.</desc>
<speed>0.630000</speed>
</trkpt>
<trkpt lat="22.307018" lon="103.775513">
<ele>2974.470703</ele>
<time>2011-04-24T05:26:33Z</time>
<desc>lat.=22.307018, lon.=103.775513, Alt.=2974.470703m. Speed=0.468000m/h.</desc>
<speed>0.130000</speed>
</trkpt>
<trkpt lat="22.307030" lon="103.775536">
<ele>2973.908203</ele>
<time>2011-04-24T05:26:38Z</time>
<desc>lat.=22.307030, lon.=103.775536, Alt.=2973.908203m. Speed=1.620000m/h.</desc>
<speed>0.450000</speed>
</trkpt>
<trkpt lat="22.307034" lon="103.775551">
<ele>2973.033203</ele>
<time>2011-04-24T05:26:43Z</time>
<desc>lat.=22.307034, lon.=103.775551, Alt.=2973.033203m. Speed=1.152000m/h.</desc>
<speed>0.320000</speed>
</trkpt>
<trkpt lat="22.307024" lon="103.775566">
<ele>2971.783203</ele>
<time>2011-04-24T05:26:48Z</time>
<desc>lat.=22.307024, lon.=103.775566, Alt.=2971.783203m. Speed=2.916000m/h.</desc>
<speed>0.810000</speed>
</trkpt>
<trkpt lat="22.307034" lon="103.775581">
<ele>2971.220703</ele>
<time>2011-04-24T05:26:53Z</time>
<desc>lat.=22.307034, lon.=103.775581, Alt.=2971.220703m. Speed=0.324000m/h.</desc>
<speed>0.090000</speed>
</trkpt>
<trkpt lat="22.307041" lon="103.775604">
<ele>2970.283203</ele>
<time>2011-04-24T05:26:58Z</time>
<desc>lat.=22.307041, lon.=103.775604, Alt.=2970.283203m. Speed=1.080000m/h.</desc>
<speed>0.300000</speed>
</trkpt>
<trkpt lat="22.307049" lon="103.775620">
<ele>2970.220703</ele>
<time>2011-04-24T05:27:03Z</time>
<desc>lat.=22.307049, lon.=103.775620, Alt.=2970.220703m. Speed=0.720000m/h.</desc>
<speed>0.200000</speed>
</trkpt>
<trkpt lat="22.307062" lon="103.775642">
<ele>2970.033203</ele>
<time>2011-04-24T05:27:08Z</time>
<desc>lat.=22.307062, lon.=103.775642, Alt.=2970.033203m. Speed=2.196000m/h.</desc>
<speed>0.610000</speed>
</trkpt>
<trkpt lat="22.307070" lon="103.775642">
<ele>2969.158203</ele>
<time>2011-04-24T05:27:13Z</time>
<desc>lat.=22.307070, lon.=103.775642, Alt.=2969.158203m. Speed=1.044000m/h.</desc>
<speed>0.290000</speed>
</trkpt>
<trkpt lat="22.307076" lon="103.775650">
<ele>2967.908203</ele>
<time>2011-04-24T05:27:18Z</time>
<desc>lat.=22.307076, lon.=103.775650, Alt.=2967.908203m. Speed=0.900000m/h.</desc>
<speed>0.250000</speed>
</trkpt>
<trkpt lat="22.307095" lon="103.775658">
<ele>2967.720703</ele>
<time>2011-04-24T05:27:23Z</time>
<desc>lat.=22.307095, lon.=103.775658, Alt.=2967.720703m. Speed=0.864000m/h.</desc>
<speed>0.240000</speed>
</trkpt>
<trkpt lat="22.307110" lon="103.775658">
<ele>2966.533203</ele>
<time>2011-04-24T05:27:28Z</time>
<desc>lat.=22.307110, lon.=103.775658, Alt.=2966.533203m. Speed=0.828000m/h.</desc>
<speed>0.230000</speed>
</trkpt>
<trkpt lat="22.307121" lon="103.775658">
<ele>2965.345703</ele>
<time>2011-04-24T05:27:33Z</time>
<desc>lat.=22.307121, lon.=103.775658, Alt.=2965.345703m. Speed=5.040000m/h.</desc>
<speed>1.400000</speed>
</trkpt>
<trkpt lat="22.307159" lon="103.775597">
<ele>2964.533203</ele>
<time>2011-04-24T05:27:38Z</time>
<desc>lat.=22.307159, lon.=103.775597, Alt.=2964.533203m. Speed=5.616000m/h.</desc>
<speed>1.560000</speed>
</trkpt>
<trkpt lat="22.307184" lon="103.775536">
<ele>2963.158203</ele>
<time>2011-04-24T05:27:43Z</time>
<desc>lat.=22.307184, lon.=103.775536, Alt.=2963.158203m. Speed=3.060000m/h.</desc>
<speed>0.850000</speed>
</trkpt>
<trkpt lat="22.307186" lon="103.775505">
<ele>2961.595703</ele>
<time>2011-04-24T05:27:48Z</time>
<desc>lat.=22.307186, lon.=103.775505, Alt.=2961.595703m. Speed=1.836000m/h.</desc>
<speed>0.510000</speed>
</trkpt>
<trkpt lat="22.307196" lon="103.775475">
<ele>2960.720703</ele>
<time>2011-04-24T05:27:53Z</time>
<desc>lat.=22.307196, lon.=103.775475, Alt.=2960.720703m. Speed=3.204000m/h.</desc>
<speed>0.890000</speed>
</trkpt>
<trkpt lat="22.307196" lon="103.775436">
<ele>2959.908203</ele>
<time>2011-04-24T05:27:58Z</time>
<desc>lat.=22.307196, lon.=103.775436, Alt.=2959.908203m. Speed=2.304000m/h.</desc>
<speed>0.640000</speed>
</trkpt>
<trkpt lat="22.307211" lon="103.775421">
<ele>2959.533203</ele>
<time>2011-04-24T05:28:03Z</time>
<desc>lat.=22.307211, lon.=103.775421, Alt.=2959.533203m. Speed=2.484000m/h.</desc>
<speed>0.690000</speed>
</trkpt>
<trkpt lat="22.307224" lon="103.775375">
<ele>2959.783203</ele>
<time>2011-04-24T05:28:08Z</time>
<desc>lat.=22.307224, lon.=103.775375, Alt.=2959.783203m. Speed=4.608000m/h.</desc>
<speed>1.280000</speed>
</trkpt>
<trkpt lat="22.307270" lon="103.775345">
<ele>2960.783203</ele>
<time>2011-04-24T05:28:13Z</time>
<desc>lat.=22.307270, lon.=103.775345, Alt.=2960.783203m. Speed=4.968000m/h.</desc>
<speed>1.380000</speed>
</trkpt>
<trkpt lat="22.307278" lon="103.775330">
<ele>2960.408203</ele>
<time>2011-04-24T05:28:18Z</time>
<desc>lat.=22.307278, lon.=103.775330, Alt.=2960.408203m. Speed=0.180000m/h.</desc>
<speed>0.050000</speed>
</trkpt>
<trkpt lat="22.307274" lon="103.775322">
<ele>2960.470703</ele>
<time>2011-04-24T05:28:23Z</time>
<desc>lat.=22.307274, lon.=103.775322, Alt.=2960.470703m. Speed=1.044000m/h.</desc>
<speed>0.290000</speed>
</trkpt>
<trkpt lat="22.307291" lon="103.775322">
<ele>2960.533203</ele>
<time>2011-04-24T05:28:28Z</time>
<desc>lat.=22.307291, lon.=103.775322, Alt.=2960.533203m. Speed=1.008000m/h.</desc>
<speed>0.280000</speed>
</trkpt>
<trkpt lat="22.307297" lon="103.775314">
<ele>2960.220703</ele>
<time>2011-04-24T05:28:33Z</time>
<desc>lat.=22.307297, lon.=103.775314, Alt.=2960.220703m. Speed=1.188000m/h.</desc>
<speed>0.330000</speed>
</trkpt>
<trkpt lat="22.307306" lon="103.775322">
<ele>2959.783203</ele>
<time>2011-04-24T05:28:38Z</time>
<desc>lat.=22.307306, lon.=103.775322, Alt.=2959.783203m. Speed=1.296000m/h.</desc>
<speed>0.360000</speed>
</trkpt>
<trkpt lat="22.307327" lon="103.775314">
<ele>2958.845703</ele>
<time>2011-04-24T05:28:43Z</time>
<desc>lat.=22.307327, lon.=103.775314, Alt.=2958.845703m. Speed=1.908000m/h.</desc>
<speed>0.530000</speed>
</trkpt>
<trkpt lat="22.307329" lon="103.775299">
<ele>2957.970703</ele>
<time>2011-04-24T05:28:48Z</time>
<desc>lat.=22.307329, lon.=103.775299, Alt.=2957.970703m. Speed=0.468000m/h.</desc>
<speed>0.130000</speed>
</trkpt>
<trkpt lat="22.307331" lon="103.775307">
<ele>2957.845703</ele>
<time>2011-04-24T05:28:53Z</time>
<desc>lat.=22.307331, lon.=103.775307, Alt.=2957.845703m. Speed=0.864000m/h.</desc>
<speed>0.240000</speed>
</trkpt>
<trkpt lat="22.307344" lon="103.775291">
<ele>2957.408203</ele>
<time>2011-04-24T05:28:58Z</time>
<desc>lat.=22.307344, lon.=103.775291, Alt.=2957.408203m. Speed=1.080000m/h.</desc>
<speed>0.300000</speed>
</trkpt>
<trkpt lat="22.307346" lon="103.775276">
<ele>2957.095703</ele>
<time>2011-04-24T05:29:03Z</time>
<desc>lat.=22.307346, lon.=103.775276, Alt.=2957.095703m. Speed=1.080000m/h.</desc>
<speed>0.300000</speed>
</trkpt>
<trkpt lat="22.307356" lon="103.775253">
<ele>2956.720703</ele>
<time>2011-04-24T05:29:08Z</time>
<desc>lat.=22.307356, lon.=103.775253, Alt.=2956.720703m. Speed=1.044000m/h.</desc>
<speed>0.290000</speed>
</trkpt>
<trkpt lat="22.307367" lon="103.775246">
<ele>2956.345703</ele>
<time>2011-04-24T05:29:13Z</time>
<desc>lat.=22.307367, lon.=103.775246, Alt.=2956.345703m. Speed=1.044000m/h.</desc>
<speed>0.290000</speed>
</trkpt>
<trkpt lat="22.307373" lon="103.775238">
<ele>2955.970703</ele>
<time>2011-04-24T05:29:18Z</time>
<desc>lat.=22.307373, lon.=103.775238, Alt.=2955.970703m. Speed=0.792000m/h.</desc>
<speed>0.220000</speed>
</trkpt>
<trkpt lat="22.307373" lon="103.775223">
<ele>2955.595703</ele>
<time>2011-04-24T05:29:23Z</time>
<desc>lat.=22.307373, lon.=103.775223, Alt.=2955.595703m. Speed=1.008000m/h.</desc>
<speed>0.280000</speed>
</trkpt>
<trkpt lat="22.307373" lon="103.775215">
<ele>2955.220703</ele>
<time>2011-04-24T05:29:28Z</time>
<desc>lat.=22.307373, lon.=103.775215, Alt.=2955.220703m. Speed=0.756000m/h.</desc>
<speed>0.210000</speed>
</trkpt>
<trkpt lat="22.307375" lon="103.775200">
<ele>2954.783203</ele>
<time>2011-04-24T05:29:33Z</time>
<desc>lat.=22.307375, lon.=103.775200, Alt.=2954.783203m. Speed=0.828000m/h.</desc>
<speed>0.230000</speed>
</trkpt>
<trkpt lat="22.307375" lon="103.775200">
<ele>2954.408203</ele>
<time>2011-04-24T05:29:38Z</time>
<desc>lat.=22.307375, lon.=103.775200, Alt.=2954.408203m. Speed=0.756000m/h.</desc>
<speed>0.210000</speed>
</trkpt>
<trkpt lat="22.307386" lon="103.775169">
<ele>2953.908203</ele>
<time>2011-04-24T05:29:43Z</time>
<desc>lat.=22.307386, lon.=103.775169, Alt.=2953.908203m. Speed=1.332000m/h.</desc>
<speed>0.370000</speed>
</trkpt>
<trkpt lat="22.307400" lon="103.775154">
<ele>2953.408203</ele>
<time>2011-04-24T05:29:48Z</time>
<desc>lat.=22.307400, lon.=103.775154, Alt.=2953.408203m. Speed=0.972000m/h.</desc>
<speed>0.270000</speed>
</trkpt>
<trkpt lat="22.307411" lon="103.775146">
<ele>2953.033203</ele>
<time>2011-04-24T05:29:53Z</time>
<desc>lat.=22.307411, lon.=103.775146, Alt.=2953.033203m. Speed=0.576000m/h.</desc>
<speed>0.160000</speed>
</trkpt>
<trkpt lat="22.307419" lon="103.775139">
<ele>2952.595703</ele>
<time>2011-04-24T05:29:58Z</time>
<desc>lat.=22.307419, lon.=103.775139, Alt.=2952.595703m. Speed=0.792000m/h.</desc>
<speed>0.220000</speed>
</trkpt>
<trkpt lat="22.307426" lon="103.775131">
<ele>2952.220703</ele>
<time>2011-04-24T05:30:03Z</time>
<desc>lat.=22.307426, lon.=103.775131, Alt.=2952.220703m. Speed=0.540000m/h.</desc>
<speed>0.150000</speed>
</trkpt>
<trkpt lat="22.307432" lon="103.775131">
<ele>2951.845703</ele>
<time>2011-04-24T05:30:08Z</time>
<desc>lat.=22.307432, lon.=103.775131, Alt.=2951.845703m. Speed=0.684000m/h.</desc>
<speed>0.190000</speed>
</trkpt>
<trkpt lat="22.307438" lon="103.775124">
<ele>2951.408203</ele>
<time>2011-04-24T05:30:13Z</time>
<desc>lat.=22.307438, lon.=103.775124, Alt.=2951.408203m. Speed=0.540000m/h.</desc>
<speed>0.150000</speed>
</trkpt>
<trkpt lat="22.307438" lon="103.775108">
<ele>2951.033203</ele>
<time>2011-04-24T05:30:18Z</time>
<desc>lat.=22.307438, lon.=103.775108, Alt.=2951.033203m. Speed=1.080000m/h.</desc>
<speed>0.300000</speed>
</trkpt>
<trkpt lat="22.307463" lon="103.775108">
<ele>2950.595703</ele>
<time>2011-04-24T05:30:23Z</time>
<desc>lat.=22.307463, lon.=103.775108, Alt.=2950.595703m. Speed=0.144000m/h.</desc>
<speed>0.040000</speed>
</trkpt>
<trkpt lat="22.307472" lon="103.775108">
<ele>2950.220703</ele>
<time>2011-04-24T05:30:28Z</time>
<desc>lat.=22.307472, lon.=103.775108, Alt.=2950.220703m. Speed=0.720000m/h.</desc>
<speed>0.200000</speed>
</trkpt>
<trkpt lat="22.307480" lon="103.775108">
<ele>2949.908203</ele>
<time>2011-04-24T05:30:33Z</time>
<desc>lat.=22.307480, lon.=103.775108, Alt.=2949.908203m. Speed=0.936000m/h.</desc>
<speed>0.260000</speed>
</trkpt>
<trkpt lat="22.307499" lon="103.775101">
<ele>2949.720703</ele>
<time>2011-04-24T05:30:38Z</time>
<desc>lat.=22.307499, lon.=103.775101, Alt.=2949.720703m. Speed=0.828000m/h.</desc>
<speed>0.230000</speed>
</trkpt>
<trkpt lat="22.307507" lon="103.775024">
<ele>2949.595703</ele>
<time>2011-04-24T05:30:43Z</time>
<desc>lat.=22.307507, lon.=103.775024, Alt.=2949.595703m. Speed=7.092000m/h.</desc>
<speed>1.970000</speed>
</trkpt>
<trkpt lat="22.307507" lon="103.774986">
<ele>2950.658203</ele>
<time>2011-04-24T05:30:48Z</time>
<desc>lat.=22.307507, lon.=103.774986, Alt.=2950.658203m. Speed=1.476000m/h.</desc>
<speed>0.410000</speed>
</trkpt>
<trkpt lat="22.307505" lon="103.774979">
<ele>2951.720703</ele>
<time>2011-04-24T05:30:53Z</time>
<desc>lat.=22.307505, lon.=103.774979, Alt.=2951.720703m. Speed=0.900000m/h.</desc>
<speed>0.250000</speed>
</trkpt>
<trkpt lat="22.307516" lon="103.774956">
<ele>2952.408203</ele>
<time>2011-04-24T05:30:58Z</time>
<desc>lat.=22.307516, lon.=103.774956, Alt.=2952.408203m. Speed=1.008000m/h.</desc>
<speed>0.280000</speed>
</trkpt>
<trkpt lat="22.307518" lon="103.774948">
<ele>2952.533203</ele>
<time>2011-04-24T05:31:03Z</time>
<desc>lat.=22.307518, lon.=103.774948, Alt.=2952.533203m. Speed=0.648000m/h.</desc>
<speed>0.180000</speed>
</trkpt>
<trkpt lat="22.307512" lon="103.774940">
<ele>2952.720703</ele>
<time>2011-04-24T05:31:08Z</time>
<desc>lat.=22.307512, lon.=103.774940, Alt.=2952.720703m. Speed=0.900000m/h.</desc>
<speed>0.250000</speed>
</trkpt>
<trkpt lat="22.307529" lon="103.774940">
<ele>2952.908203</ele>
<time>2011-04-24T05:31:13Z</time>
<desc>lat.=22.307529, lon.=103.774940, Alt.=2952.908203m. Speed=0.684000m/h.</desc>
<speed>0.190000</speed>
</trkpt>
<trkpt lat="22.307545" lon="103.774956">
<ele>2953.033203</ele>
<time>2011-04-24T05:31:18Z</time>
<desc>lat.=22.307545, lon.=103.774956, Alt.=2953.033203m. Speed=1.116000m/h.</desc>
<speed>0.310000</speed>
</trkpt>
<trkpt lat="22.307560" lon="103.774956">
<ele>2952.970703</ele>
<time>2011-04-24T05:31:23Z</time>
<desc>lat.=22.307560, lon.=103.774956, Alt.=2952.970703m. Speed=1.188000m/h.</desc>
<speed>0.330000</speed>
</trkpt>
<trkpt lat="22.307560" lon="103.774940">
<ele>2953.033203</ele>
<time>2011-04-24T05:31:28Z</time>
<desc>lat.=22.307560, lon.=103.774940, Alt.=2953.033203m. Speed=0.720000m/h.</desc>
<speed>0.200000</speed>
</trkpt>
<trkpt lat="22.307562" lon="103.774933">
<ele>2952.970703</ele>
<time>2011-04-24T05:31:33Z</time>
<desc>lat.=22.307562, lon.=103.774933, Alt.=2952.970703m. Speed=0.720000m/h.</desc>
<speed>0.200000</speed>
</trkpt>
<trkpt lat="22.307556" lon="103.774918">
<ele>2952.908203</ele>
<time>2011-04-24T05:31:38Z</time>
<desc>lat.=22.307556, lon.=103.774918, Alt.=2952.908203m. Speed=1.296000m/h.</desc>
<speed>0.360000</speed>
</trkpt>
<trkpt lat="22.307562" lon="103.774910">
<ele>2952.970703</ele>
<time>2011-04-24T05:31:43Z</time>
<desc>lat.=22.307562, lon.=103.774910, Alt.=2952.970703m. Speed=1.044000m/h.</desc>
<speed>0.290000</speed>
</trkpt>
<trkpt lat="22.307550" lon="103.774902">
<ele>2953.033203</ele>
<time>2011-04-24T05:31:48Z</time>
<desc>lat.=22.307550, lon.=103.774902, Alt.=2953.033203m. Speed=0.540000m/h.</desc>
<speed>0.150000</speed>
</trkpt>
<trkpt lat="22.307566" lon="103.774895">
<ele>2953.095703</ele>
<time>2011-04-24T05:31:53Z</time>
<desc>lat.=22.307566, lon.=103.774895, Alt.=2953.095703m. Speed=1.080000m/h.</desc>
<speed>0.300000</speed>
</trkpt>
<trkpt lat="22.307571" lon="103.774879">
<ele>2952.908203</ele>
<time>2011-04-24T05:31:58Z</time>
<desc>lat.=22.307571, lon.=103.774879, Alt.=2952.908203m. Speed=0.864000m/h.</desc>
<speed>0.240000</speed>
</trkpt>
<trkpt lat="22.307573" lon="103.774879">
<ele>2952.908203</ele>
<time>2011-04-24T05:32:03Z</time>
<desc>lat.=22.307573, lon.=103.774879, Alt.=2952.908203m. Speed=0.288000m/h.</desc>
<speed>0.080000</speed>
</trkpt>
<trkpt lat="22.307585" lon="103.774872">
<ele>2952.658203</ele>
<time>2011-04-24T05:32:08Z</time>
<desc>lat.=22.307585, lon.=103.774872, Alt.=2952.658203m. Speed=1.584000m/h.</desc>
<speed>0.440000</speed>
</trkpt>
<trkpt lat="22.307598" lon="103.774872">
<ele>2952.283203</ele>
<time>2011-04-24T05:32:13Z</time>
<desc>lat.=22.307598, lon.=103.774872, Alt.=2952.283203m. Speed=0.576000m/h.</desc>
<speed>0.160000</speed>
</trkpt>
<trkpt lat="22.307583" lon="103.774872">
<ele>2952.158203</ele>
<time>2011-04-24T05:32:18Z</time>
<desc>lat.=22.307583, lon.=103.774872, Alt.=2952.158203m. Speed=1.080000m/h.</desc>
<speed>0.300000</speed>
</trkpt>
<trkpt lat="22.307573" lon="103.774857">
<ele>2951.970703</ele>
<time>2011-04-24T05:32:23Z</time>
<desc>lat.=22.307573, lon.=103.774857, Alt.=2951.970703m. Speed=1.152000m/h.</desc>
<speed>0.320000</speed>
</trkpt>
<trkpt lat="22.307547" lon="103.774818">
<ele>2951.845703</ele>
<time>2011-04-24T05:32:28Z</time>
<desc>lat.=22.307547, lon.=103.774818, Alt.=2951.845703m. Speed=2.700000m/h.</desc>
<speed>0.750000</speed>
</trkpt>
<trkpt lat="22.307516" lon="103.774780">
<ele>2951.658203</ele>
<time>2011-04-24T05:32:33Z</time>
<desc>lat.=22.307516, lon.=103.774780, Alt.=2951.658203m. Speed=2.196000m/h.</desc>
<speed>0.610000</speed>
</trkpt>
<trkpt lat="22.307482" lon="103.774750">
<ele>2951.408203</ele>
<time>2011-04-24T05:32:38Z</time>
<desc>lat.=22.307482, lon.=103.774750, Alt.=2951.408203m. Speed=2.664000m/h.</desc>
<speed>0.740000</speed>
</trkpt>
<trkpt lat="22.307467" lon="103.774719">
<ele>2951.283203</ele>
<time>2011-04-24T05:32:43Z</time>
<desc>lat.=22.307467, lon.=103.774719, Alt.=2951.283203m. Speed=2.232000m/h.</desc>
<speed>0.620000</speed>
</trkpt>
<trkpt lat="22.307459" lon="103.774673">
<ele>2950.970703</ele>
<time>2011-04-24T05:32:48Z</time>
<desc>lat.=22.307459, lon.=103.774673, Alt.=2950.970703m. Speed=2.628000m/h.</desc>
<speed>0.730000</speed>
</trkpt>
<trkpt lat="22.307459" lon="103.774666">
<ele>2950.595703</ele>
<time>2011-04-24T05:32:53Z</time>
<desc>lat.=22.307459, lon.=103.774666, Alt.=2950.595703m. Speed=2.232000m/h.</desc>
<speed>0.620000</speed>
</trkpt>
<trkpt lat="22.307465" lon="103.774635">
<ele>2950.095703</ele>
<time>2011-04-24T05:32:58Z</time>
<desc>lat.=22.307465, lon.=103.774635, Alt.=2950.095703m. Speed=2.988000m/h.</desc>
<speed>0.830000</speed>
</trkpt>
<trkpt lat="22.307493" lon="103.774666">
<ele>2949.470703</ele>
<time>2011-04-24T05:33:03Z</time>
<desc>lat.=22.307493, lon.=103.774666, Alt.=2949.470703m. Speed=1.512000m/h.</desc>
<speed>0.420000</speed>
</trkpt>
<trkpt lat="22.307503" lon="103.774689">
<ele>2949.033203</ele>
<time>2011-04-24T05:33:08Z</time>
<desc>lat.=22.307503, lon.=103.774689, Alt.=2949.033203m. Speed=1.080000m/h.</desc>
<speed>0.300000</speed>
</trkpt>
<trkpt lat="22.307507" lon="103.774712">
<ele>2948.908203</ele>
<time>2011-04-24T05:33:13Z</time>
<desc>lat.=22.307507, lon.=103.774712, Alt.=2948.908203m. Speed=0.936000m/h.</desc>
<speed>0.260000</speed>
</trkpt>
<trkpt lat="22.307514" lon="103.774673">
<ele>2948.845703</ele>
<time>2011-04-24T05:33:18Z</time>
<desc>lat.=22.307514, lon.=103.774673, Alt.=2948.845703m. Speed=3.276000m/h.</desc>
<speed>0.910000</speed>
</trkpt>
<trkpt lat="22.307524" lon="103.774673">
<ele>2948.408203</ele>
<time>2011-04-24T05:33:23Z</time>
<desc>lat.=22.307524, lon.=103.774673, Alt.=2948.408203m. Speed=2.196000m/h.</desc>
<speed>0.610000</speed>
</trkpt>
<trkpt lat="22.307529" lon="103.774643">
<ele>2947.970703</ele>
<time>2011-04-24T05:33:28Z</time>
<desc>lat.=22.307529, lon.=103.774643, Alt.=2947.970703m. Speed=3.024000m/h.</desc>
<speed>0.840000</speed>
</trkpt>
<trkpt lat="22.307535" lon="103.774651">
<ele>2948.095703</ele>
<time>2011-04-24T05:33:33Z</time>
<desc>lat.=22.307535, lon.=103.774651, Alt.=2948.095703m. Speed=1.584000m/h.</desc>
<speed>0.440000</speed>
</trkpt>
<trkpt lat="22.307547" lon="103.774635">
<ele>2948.095703</ele>
<time>2011-04-24T05:33:38Z</time>
<desc>lat.=22.307547, lon.=103.774635, Alt.=2948.095703m. Speed=1.044000m/h.</desc>
<speed>0.290000</speed>
</trkpt>
<trkpt lat="22.307573" lon="103.774635">
<ele>2947.595703</ele>
<time>2011-04-24T05:33:43Z</time>
<desc>lat.=22.307573, lon.=103.774635, Alt.=2947.595703m. Speed=0.972000m/h.</desc>
<speed>0.270000</speed>
</trkpt>
<trkpt lat="22.307589" lon="103.774651">
<ele>2947.720703</ele>
<time>2011-04-24T05:33:48Z</time>
<desc>lat.=22.307589, lon.=103.774651, Alt.=2947.720703m. Speed=2.556000m/h.</desc>
<speed>0.710000</speed>
</trkpt>
<trkpt lat="22.307621" lon="103.774689">
<ele>2947.783203</ele>
<time>2011-04-24T05:33:53Z</time>
<desc>lat.=22.307621, lon.=103.774689, Alt.=2947.783203m. Speed=1.836000m/h.</desc>
<speed>0.510000</speed>
</trkpt>
<trkpt lat="22.307619" lon="103.774712">
<ele>2947.720703</ele>
<time>2011-04-24T05:33:58Z</time>
<desc>lat.=22.307619, lon.=103.774712, Alt.=2947.720703m. Speed=1.116000m/h.</desc>
<speed>0.310000</speed>
</trkpt>
<trkpt lat="22.307611" lon="103.774719">
<ele>2947.220703</ele>
<time>2011-04-24T05:34:03Z</time>
<desc>lat.=22.307611, lon.=103.774719, Alt.=2947.220703m. Speed=0.468000m/h.</desc>
<speed>0.130000</speed>
</trkpt>
<trkpt lat="22.307617" lon="103.774712">
<ele>2947.033203</ele>
<time>2011-04-24T05:34:08Z</time>
<desc>lat.=22.307617, lon.=103.774712, Alt.=2947.033203m. Speed=0.612000m/h.</desc>
<speed>0.170000</speed>
</trkpt>
<trkpt lat="22.307606" lon="103.774719">
<ele>2946.783203</ele>
<time>2011-04-24T05:34:13Z</time>
<desc>lat.=22.307606, lon.=103.774719, Alt.=2946.783203m. Speed=0.576000m/h.</desc>
<speed>0.160000</speed>
</trkpt>
<trkpt lat="22.307592" lon="103.774742">
<ele>2946.783203</ele>
<time>2011-04-24T05:34:18Z</time>
<desc>lat.=22.307592, lon.=103.774742, Alt.=2946.783203m. Speed=0.828000m/h.</desc>
<speed>0.230000</speed>
</trkpt>
<trkpt lat="22.307571" lon="103.774727">
<ele>2946.783203</ele>
<time>2011-04-24T05:34:23Z</time>
<desc>lat.=22.307571, lon.=103.774727, Alt.=2946.783203m. Speed=1.440000m/h.</desc>
<speed>0.400000</speed>
</trkpt>
<trkpt lat="22.307568" lon="103.774750">
<ele>2946.783203</ele>
<time>2011-04-24T05:34:28Z</time>
<desc>lat.=22.307568, lon.=103.774750, Alt.=2946.783203m. Speed=1.548000m/h.</desc>
<speed>0.430000</speed>
</trkpt>
<trkpt lat="22.307570" lon="103.774742">
<ele>2946.720703</ele>
<time>2011-04-24T05:34:33Z</time>
<desc>lat.=22.307570, lon.=103.774742, Alt.=2946.720703m. Speed=0.828000m/h.</desc>
<speed>0.230000</speed>
</trkpt>
<trkpt lat="22.307573" lon="103.774742">
<ele>2946.470703</ele>
<time>2011-04-24T05:34:38Z</time>
<desc>lat.=22.307573, lon.=103.774742, Alt.=2946.470703m. Speed=0.792000m/h.</desc>
<speed>0.220000</speed>
</trkpt>
<trkpt lat="22.307577" lon="103.774727">
<ele>2946.720703</ele>
<time>2011-04-24T05:34:43Z</time>
<desc>lat.=22.307577, lon.=103.774727, Alt.=2946.720703m. Speed=1.188000m/h.</desc>
<speed>0.330000</speed>
</trkpt>
<trkpt lat="22.307554" lon="103.774689">
<ele>2947.220703</ele>
<time>2011-04-24T05:34:48Z</time>
<desc>lat.=22.307554, lon.=103.774689, Alt.=2947.220703m. Speed=1.080000m/h.</desc>
<speed>0.300000</speed>
</trkpt>
<trkpt lat="22.307556" lon="103.774666">
<ele>2947.470703</ele>
<time>2011-04-24T05:34:53Z</time>
<desc>lat.=22.307556, lon.=103.774666, Alt.=2947.470703m. Speed=0.792000m/h.</desc>
<speed>0.220000</speed>
</trkpt>
<trkpt lat="22.307547" lon="103.774689">
<ele>2947.720703</ele>
<time>2011-04-24T05:34:58Z</time>
<desc>lat.=22.307547, lon.=103.774689, Alt.=2947.720703m. Speed=0.468000m/h.</desc>
<speed>0.130000</speed>
</trkpt>
<trkpt lat="22.307537" lon="103.774704">
<ele>2947.908203</ele>
<time>2011-04-24T05:35:03Z</time>
<desc>lat.=22.307537, lon.=103.774704, Alt.=2947.908203m. Speed=1.224000m/h.</desc>
<speed>0.340000</speed>
</trkpt>
<trkpt lat="22.307554" lon="103.774689">
<ele>2947.408203</ele>
<time>2011-04-24T05:35:08Z</time>
<desc>lat.=22.307554, lon.=103.774689, Alt.=2947.408203m. Speed=0.648000m/h.</desc>
<speed>0.180000</speed>
</trkpt>
<trkpt lat="22.307592" lon="103.774696">
<ele>2947.845703</ele>
<time>2011-04-24T05:35:13Z</time>
<desc>lat.=22.307592, lon.=103.774696, Alt.=2947.845703m. Speed=1.296000m/h.</desc>
<speed>0.360000</speed>
</trkpt>
<trkpt lat="22.307627" lon="103.774666">
<ele>2947.533203</ele>
<time>2011-04-24T05:35:18Z</time>
<desc>lat.=22.307627, lon.=103.774666, Alt.=2947.533203m. Speed=0.756000m/h.</desc>
<speed>0.210000</speed>
</trkpt>
<trkpt lat="22.307611" lon="103.774666">
<ele>2947.845703</ele>
<time>2011-04-24T05:35:23Z</time>
<desc>lat.=22.307611, lon.=103.774666, Alt.=2947.845703m. Speed=0.720000m/h.</desc>
<speed>0.200000</speed>
</trkpt>
<trkpt lat="22.307610" lon="103.774643">
<ele>2947.970703</ele>
<time>2011-04-24T05:35:28Z</time>
<desc>lat.=22.307610, lon.=103.774643, Alt.=2947.970703m. Speed=1.080000m/h.</desc>
<speed>0.300000</speed>
</trkpt>
<trkpt lat="22.307602" lon="103.774643">
<ele>2948.095703</ele>
<time>2011-04-24T05:35:33Z</time>
<desc>lat.=22.307602, lon.=103.774643, Alt.=2948.095703m. Speed=0.144000m/h.</desc>
<speed>0.040000</speed>
</trkpt>
<trkpt lat="22.307564" lon="103.774643">
<ele>2948.533203</ele>
<time>2011-04-24T05:35:38Z</time>
<desc>lat.=22.307564, lon.=103.774643, Alt.=2948.533203m. Speed=1.584000m/h.</desc>
<speed>0.440000</speed>
</trkpt>
<trkpt lat="22.307562" lon="103.774651">
<ele>2948.658203</ele>
<time>2011-04-24T05:35:43Z</time>
<desc>lat.=22.307562, lon.=103.774651, Alt.=2948.658203m. Speed=0.936000m/h.</desc>
<speed>0.260000</speed>
</trkpt>
<trkpt lat="22.307585" lon="103.774620">
<ele>2947.658203</ele>
<time>2011-04-24T05:35:48Z</time>
<desc>lat.=22.307585, lon.=103.774620, Alt.=2947.658203m. Speed=0.576000m/h.</desc>
<speed>0.160000</speed>
</trkpt>
<trkpt lat="22.307615" lon="103.774620">
<ele>2947.408203</ele>
<time>2011-04-24T05:35:53Z</time>
<desc>lat.=22.307615, lon.=103.774620, Alt.=2947.408203m. Speed=1.224000m/h.</desc>
<speed>0.340000</speed>
</trkpt>
<trkpt lat="22.307608" lon="103.774628">
<ele>2947.033203</ele>
<time>2011-04-24T05:35:58Z</time>
<desc>lat.=22.307608, lon.=103.774628, Alt.=2947.033203m. Speed=0.468000m/h.</desc>
<speed>0.130000</speed>
</trkpt>
<trkpt lat="22.307640" lon="103.774628">
<ele>2946.595703</ele>
<time>2011-04-24T05:36:03Z</time>
<desc>lat.=22.307640, lon.=103.774628, Alt.=2946.595703m. Speed=1.980000m/h.</desc>
<speed>0.550000</speed>
</trkpt>
<trkpt lat="22.307638" lon="103.774612">
<ele>2945.220703</ele>
<time>2011-04-24T05:36:08Z</time>
<desc>lat.=22.307638, lon.=103.774612, Alt.=2945.220703m. Speed=1.152000m/h.</desc>
<speed>0.320000</speed>
</trkpt>
<trkpt lat="22.307632" lon="103.774612">
<ele>2945.033203</ele>
<time>2011-04-24T05:36:13Z</time>
<desc>lat.=22.307632, lon.=103.774612, Alt.=2945.033203m. Speed=1.008000m/h.</desc>
<speed>0.280000</speed>
</trkpt>
<trkpt lat="22.307636" lon="103.774643">
<ele>2944.408203</ele>
<time>2011-04-24T05:36:18Z</time>
<desc>lat.=22.307636, lon.=103.774643, Alt.=2944.408203m. Speed=1.224000m/h.</desc>
<speed>0.340000</speed>
</trkpt>
<trkpt lat="22.307632" lon="103.774612">
<ele>2944.345703</ele>
<time>2011-04-24T05:36:23Z</time>
<desc>lat.=22.307632, lon.=103.774612, Alt.=2944.345703m. Speed=0.540000m/h.</desc>
<speed>0.150000</speed>
</trkpt>
<trkpt lat="22.307627" lon="103.774590">
<ele>2944.345703</ele>
<time>2011-04-24T05:36:28Z</time>
<desc>lat.=22.307627, lon.=103.774590, Alt.=2944.345703m. Speed=0.756000m/h.</desc>
<speed>0.210000</speed>
</trkpt>
<trkpt lat="22.307642" lon="103.774590">
<ele>2944.345703</ele>
<time>2011-04-24T05:36:33Z</time>
<desc>lat.=22.307642, lon.=103.774590, Alt.=2944.345703m. Speed=0.756000m/h.</desc>
<speed>0.210000</speed>
</trkpt>
<trkpt lat="22.307621" lon="103.774582">
<ele>2944.283203</ele>
<time>2011-04-24T05:36:38Z</time>
<desc>lat.=22.307621, lon.=103.774582, Alt.=2944.283203m. Speed=1.584000m/h.</desc>
<speed>0.440000</speed>
</trkpt>
<trkpt lat="22.307604" lon="103.774590">
<ele>2943.970703</ele>
<time>2011-04-24T05:36:43Z</time>
<desc>lat.=22.307604, lon.=103.774590, Alt.=2943.970703m. Speed=1.764000m/h.</desc>
<speed>0.490000</speed>
</trkpt>
<trkpt lat="22.307623" lon="103.774574">
<ele>2944.033203</ele>
<time>2011-04-24T05:36:48Z</time>
<desc>lat.=22.307623, lon.=103.774574, Alt.=2944.033203m. Speed=0.072000m/h.</desc>
<speed>0.020000</speed>
</trkpt>
<trkpt lat="22.307617" lon="103.774567">
<ele>2943.470703</ele>
<time>2011-04-24T05:36:53Z</time>
<desc>lat.=22.307617, lon.=103.774567, Alt.=2943.470703m. Speed=0.540000m/h.</desc>
<speed>0.150000</speed>
</trkpt>
<trkpt lat="22.307625" lon="103.774559">
<ele>2943.283203</ele>
<time>2011-04-24T05:36:58Z</time>
<desc>lat.=22.307625, lon.=103.774559, Alt.=2943.283203m. Speed=0.360000m/h.</desc>
<speed>0.100000</speed>
</trkpt>
<trkpt lat="22.307617" lon="103.774536">
<ele>2943.220703</ele>
<time>2011-04-24T05:37:03Z</time>
<desc>lat.=22.307617, lon.=103.774536, Alt.=2943.220703m. Speed=1.224000m/h.</desc>
<speed>0.340000</speed>
</trkpt>
<trkpt lat="22.307623" lon="103.774529">
<ele>2942.095703</ele>
<time>2011-04-24T05:37:08Z</time>
<desc>lat.=22.307623, lon.=103.774529, Alt.=2942.095703m. Speed=0.684000m/h.</desc>
<speed>0.190000</speed>
</trkpt>
<trkpt lat="22.307642" lon="103.774544">
<ele>2941.158203</ele>
<time>2011-04-24T05:37:13Z</time>
<desc>lat.=22.307642, lon.=103.774544, Alt.=2941.158203m. Speed=1.008000m/h.</desc>
<speed>0.280000</speed>
</trkpt>
<trkpt lat="22.307648" lon="103.774551">
<ele>2940.970703</ele>
<time>2011-04-24T05:37:18Z</time>
<desc>lat.=22.307648, lon.=103.774551, Alt.=2940.970703m. Speed=0.324000m/h.</desc>
<speed>0.090000</speed>
</trkpt>
<trkpt lat="22.307659" lon="103.774567">
<ele>2941.033203</ele>
<time>2011-04-24T05:37:23Z</time>
<desc>lat.=22.307659, lon.=103.774567, Alt.=2941.033203m. Speed=0.972000m/h.</desc>
<speed>0.270000</speed>
</trkpt>
<trkpt lat="22.307657" lon="103.774590">
<ele>2940.720703</ele>
<time>2011-04-24T05:37:28Z</time>
<desc>lat.=22.307657, lon.=103.774590, Alt.=2940.720703m. Speed=0.828000m/h.</desc>
<speed>0.230000</speed>
</trkpt>
<trkpt lat="22.307653" lon="103.774582">
<ele>2940.595703</ele>
<time>2011-04-24T05:37:33Z</time>
<desc>lat.=22.307653, lon.=103.774582, Alt.=2940.595703m. Speed=0.432000m/h.</desc>
<speed>0.120000</speed>
</trkpt>
<trkpt lat="22.307730" lon="103.774620">
<ele>2939.658203</ele>
<time>2011-04-24T05:37:38Z</time>
<desc>lat.=22.307730, lon.=103.774620, Alt.=2939.658203m. Speed=2.160000m/h.</desc>
<speed>0.600000</speed>
</trkpt>
<trkpt lat="22.307810" lon="103.774681">
<ele>2938.908203</ele>
<time>2011-04-24T05:37:43Z</time>
<desc>lat.=22.307810, lon.=103.774681, Alt.=2938.908203m. Speed=3.960000m/h.</desc>
<speed>1.100000</speed>
</trkpt>
<trkpt lat="22.307850" lon="103.774712">
<ele>2938.408203</ele>
<time>2011-04-24T05:37:48Z</time>
<desc>lat.=22.307850, lon.=103.774712, Alt.=2938.408203m. Speed=2.988000m/h.</desc>
<speed>0.830000</speed>
</trkpt>
<trkpt lat="22.307861" lon="103.774712">
<ele>2937.783203</ele>
<time>2011-04-24T05:37:53Z</time>
<desc>lat.=22.307861, lon.=103.774712, Alt.=2937.783203m. Speed=2.124000m/h.</desc>
<speed>0.590000</speed>
</trkpt>
<trkpt lat="22.307854" lon="103.774666">
<ele>2937.283203</ele>
<time>2011-04-24T05:37:58Z</time>
<desc>lat.=22.307854, lon.=103.774666, Alt.=2937.283203m. Speed=0.684000m/h.</desc>
<speed>0.190000</speed>
</trkpt>
<trkpt lat="22.307848" lon="103.774658">
<ele>2937.158203</ele>
<time>2011-04-24T05:38:03Z</time>
<desc>lat.=22.307848, lon.=103.774658, Alt.=2937.158203m. Speed=0.468000m/h.</desc>
<speed>0.130000</speed>
</trkpt>
<trkpt lat="22.307825" lon="103.774620">
<ele>2937.033203</ele>
<time>2011-04-24T05:38:08Z</time>
<desc>lat.=22.307825, lon.=103.774620, Alt.=2937.033203m. Speed=2.196000m/h.</desc>
<speed>0.610000</speed>
</trkpt>
<trkpt lat="22.307816" lon="103.774567">
<ele>2936.970703</ele>
<time>2011-04-24T05:38:13Z</time>
<desc>lat.=22.307816, lon.=103.774567, Alt.=2936.970703m. Speed=2.556000m/h.</desc>
<speed>0.710000</speed>
</trkpt>
<trkpt lat="22.307781" lon="103.774513">
<ele>2936.783203</ele>
<time>2011-04-24T05:38:18Z</time>
<desc>lat.=22.307781, lon.=103.774513, Alt.=2936.783203m. Speed=3.708000m/h.</desc>
<speed>1.030000</speed>
</trkpt>
<trkpt lat="22.307760" lon="103.774467">
<ele>2936.345703</ele>
<time>2011-04-24T05:38:23Z</time>
<desc>lat.=22.307760, lon.=103.774467, Alt.=2936.345703m. Speed=2.808000m/h.</desc>
<speed>0.780000</speed>
</trkpt>
<trkpt lat="22.307730" lon="103.774452">
<ele>2935.783203</ele>
<time>2011-04-24T05:38:28Z</time>
<desc>lat.=22.307730, lon.=103.774452, Alt.=2935.783203m. Speed=2.736000m/h.</desc>
<speed>0.760000</speed>
</trkpt>
<trkpt lat="22.307707" lon="103.774429">
<ele>2935.345703</ele>
<time>2011-04-24T05:38:33Z</time>
<desc>lat.=22.307707, lon.=103.774429, Alt.=2935.345703m. Speed=3.456000m/h.</desc>
<speed>0.960000</speed>
</trkpt>
<trkpt lat="22.307701" lon="103.774445">
<ele>2934.908203</ele>
<time>2011-04-24T05:38:38Z</time>
<desc>lat.=22.307701, lon.=103.774445, Alt.=2934.908203m. Speed=2.016000m/h.</desc>
<speed>0.560000</speed>
</trkpt>
<trkpt lat="22.307697" lon="103.774445">
<ele>2934.408203</ele>
<time>2011-04-24T05:38:43Z</time>
<desc>lat.=22.307697, lon.=103.774445, Alt.=2934.408203m. Speed=2.628000m/h.</desc>
<speed>0.730000</speed>
</trkpt>
<trkpt lat="22.307772" lon="103.774445">
<ele>2933.408203</ele>
<time>2011-04-24T05:38:48Z</time>
<desc>lat.=22.307772, lon.=103.774445, Alt.=2933.408203m. Speed=1.584000m/h.</desc>
<speed>0.440000</speed>
</trkpt>
<trkpt lat="22.307789" lon="103.774437">
<ele>2932.845703</ele>
<time>2011-04-24T05:38:53Z</time>
<desc>lat.=22.307789, lon.=103.774437, Alt.=2932.845703m. Speed=1.080000m/h.</desc>
<speed>0.300000</speed>
</trkpt>
<trkpt lat="22.307787" lon="103.774452">
<ele>2932.220703</ele>
<time>2011-04-24T05:38:58Z</time>
<desc>lat.=22.307787, lon.=103.774452, Alt.=2932.220703m. Speed=3.924000m/h.</desc>
<speed>1.090000</speed>
</trkpt>
<trkpt lat="22.307850" lon="103.774460">
<ele>2931.595703</ele>
<time>2011-04-24T05:39:03Z</time>
<desc>lat.=22.307850, lon.=103.774460, Alt.=2931.595703m. Speed=2.160000m/h.</desc>
<speed>0.600000</speed>
</trkpt>
<trkpt lat="22.307886" lon="103.774467">
<ele>2931.345703</ele>
<time>2011-04-24T05:39:08Z</time>
<desc>lat.=22.307886, lon.=103.774467, Alt.=2931.345703m. Speed=3.744000m/h.</desc>
<speed>1.040000</speed>
</trkpt>
<trkpt lat="22.307922" lon="103.774490">
<ele>2931.345703</ele>
<time>2011-04-24T05:39:13Z</time>
<desc>lat.=22.307922, lon.=103.774490, Alt.=2931.345703m. Speed=1.584000m/h.</desc>
<speed>0.440000</speed>
</trkpt>
<trkpt lat="22.307917" lon="103.774483">
<ele>2931.283203</ele>
<time>2011-04-24T05:39:18Z</time>
<desc>lat.=22.307917, lon.=103.774483, Alt.=2931.283203m. Speed=0.720000m/h.</desc>
<speed>0.200000</speed>
</trkpt>
<trkpt lat="22.307917" lon="103.774483">
<ele>2931.408203</ele>
<time>2011-04-24T05:39:23Z</time>
<desc>lat.=22.307917, lon.=103.774483, Alt.=2931.408203m. Speed=1.692000m/h.</desc>
<speed>0.470000</speed>
</trkpt>
<trkpt lat="22.307896" lon="103.774460">
<ele>2930.908203</ele>
<time>2011-04-24T05:39:28Z</time>
<desc>lat.=22.307896, lon.=103.774460, Alt.=2930.908203m. Speed=1.116000m/h.</desc>
<speed>0.310000</speed>
</trkpt>
<trkpt lat="22.307886" lon="103.774467">
<ele>2930.658203</ele>
<time>2011-04-24T05:39:33Z</time>
<desc>lat.=22.307886, lon.=103.774467, Alt.=2930.658203m. Speed=1.008000m/h.</desc>
<speed>0.280000</speed>
</trkpt>
<trkpt lat="22.307922" lon="103.774467">
<ele>2930.095703</ele>
<time>2011-04-24T05:39:38Z</time>
<desc>lat.=22.307922, lon.=103.774467, Alt.=2930.095703m. Speed=2.592000m/h.</desc>
<speed>0.720000</speed>
</trkpt>
<trkpt lat="22.307953" lon="103.774475">
<ele>2929.658203</ele>
<time>2011-04-24T05:39:43Z</time>
<desc>lat.=22.307953, lon.=103.774475, Alt.=2929.658203m. Speed=1.008000m/h.</desc>
<speed>0.280000</speed>
</trkpt>
<trkpt lat="22.308006" lon="103.774506">
<ele>2928.845703</ele>
<time>2011-04-24T05:39:48Z</time>
<desc>lat.=22.308006, lon.=103.774506, Alt.=2928.845703m. Speed=1.224000m/h.</desc>
<speed>0.340000</speed>
</trkpt>
<trkpt lat="22.307981" lon="103.774483">
<ele>2927.470703</ele>
<time>2011-04-24T05:39:53Z</time>
<desc>lat.=22.307981, lon.=103.774483, Alt.=2927.470703m. Speed=1.440000m/h.</desc>
<speed>0.400000</speed>
</trkpt>
<trkpt lat="22.307980" lon="103.774452">
<ele>2926.158203</ele>
<time>2011-04-24T05:39:58Z</time>
<desc>lat.=22.307980, lon.=103.774452, Alt.=2926.158203m. Speed=0.252000m/h.</desc>
<speed>0.070000</speed>
</trkpt>
<trkpt lat="22.307978" lon="103.774452">
<ele>2926.033203</ele>
<time>2011-04-24T05:40:03Z</time>
<desc>lat.=22.307978, lon.=103.774452, Alt.=2926.033203m. Speed=1.440000m/h.</desc>
<speed>0.400000</speed>
</trkpt>
<trkpt lat="22.308018" lon="103.774452">
<ele>2925.533203</ele>
<time>2011-04-24T05:40:08Z</time>
<desc>lat.=22.308018, lon.=103.774452, Alt.=2925.533203m. Speed=1.548000m/h.</desc>
<speed>0.430000</speed>
</trkpt>
<trkpt lat="22.308041" lon="103.774445">
<ele>2924.595703</ele>
<time>2011-04-24T05:40:13Z</time>
<desc>lat.=22.308041, lon.=103.774445, Alt.=2924.595703m. Speed=2.340000m/h.</desc>
<speed>0.650000</speed>
</trkpt>
<trkpt lat="22.308056" lon="103.774429">
<ele>2923.408203</ele>
<time>2011-04-24T05:40:18Z</time>
<desc>lat.=22.308056, lon.=103.774429, Alt.=2923.408203m. Speed=2.592000m/h.</desc>
<speed>0.720000</speed>
</trkpt>
<trkpt lat="22.308079" lon="103.774414">
<ele>2922.783203</ele>
<time>2011-04-24T05:40:23Z</time>
<desc>lat.=22.308079, lon.=103.774414, Alt.=2922.783203m. Speed=2.052000m/h.</desc>
<speed>0.570000</speed>
</trkpt>
<trkpt lat="22.308071" lon="103.774391">
<ele>2922.283203</ele>
<time>2011-04-24T05:40:28Z</time>
<desc>lat.=22.308071, lon.=103.774391, Alt.=2922.283203m. Speed=0.288000m/h.</desc>
<speed>0.080000</speed>
</trkpt>
<trkpt lat="22.308060" lon="103.774361">
<ele>2921.408203</ele>
<time>2011-04-24T05:40:33Z</time>
<desc>lat.=22.308060, lon.=103.774361, Alt.=2921.408203m. Speed=1.260000m/h.</desc>
<speed>0.350000</speed>
</trkpt>
<trkpt lat="22.308065" lon="103.774338">
<ele>2921.095703</ele>
<time>2011-04-24T05:40:38Z</time>
<desc>lat.=22.308065, lon.=103.774338, Alt.=2921.095703m. Speed=2.700000m/h.</desc>
<speed>0.750000</speed>
</trkpt>
<trkpt lat="22.308056" lon="103.774330">
<ele>2920.345703</ele>
<time>2011-04-24T05:40:43Z</time>
<desc>lat.=22.308056, lon.=103.774330, Alt.=2920.345703m. Speed=2.340000m/h.</desc>
<speed>0.650000</speed>
</trkpt>
<trkpt lat="22.308043" lon="103.774307">
<ele>2918.533203</ele>
<time>2011-04-24T05:40:48Z</time>
<desc>lat.=22.308043, lon.=103.774307, Alt.=2918.533203m. Speed=0.756000m/h.</desc>
<speed>0.210000</speed>
</trkpt>
<trkpt lat="22.308046" lon="103.774307">
<ele>2916.970703</ele>
<time>2011-04-24T05:40:53Z</time>
<desc>lat.=22.308046, lon.=103.774307, Alt.=2916.970703m. Speed=1.296000m/h.</desc>
<speed>0.360000</speed>
</trkpt>
<trkpt lat="22.308039" lon="103.774292">
<ele>2916.408203</ele>
<time>2011-04-24T05:40:58Z</time>
<desc>lat.=22.308039, lon.=103.774292, Alt.=2916.408203m. Speed=0.972000m/h.</desc>
<speed>0.270000</speed>
</trkpt>
<trkpt lat="22.308023" lon="103.774261">
<ele>2915.345703</ele>
<time>2011-04-24T05:41:03Z</time>
<desc>lat.=22.308023, lon.=103.774261, Alt.=2915.345703m. Speed=1.764000m/h.</desc>
<speed>0.490000</speed>
</trkpt>
<trkpt lat="22.308043" lon="103.774239">
<ele>2914.095703</ele>
<time>2011-04-24T05:41:08Z</time>
<desc>lat.=22.308043, lon.=103.774239, Alt.=2914.095703m. Speed=2.124000m/h.</desc>
<speed>0.590000</speed>
</trkpt>
<trkpt lat="22.308043" lon="103.774208">
<ele>2913.158203</ele>
<time>2011-04-24T05:41:13Z</time>
<desc>lat.=22.308043, lon.=103.774208, Alt.=2913.158203m. Speed=2.268000m/h.</desc>
<speed>0.630000</speed>
</trkpt>
<trkpt lat="22.308041" lon="103.774193">
<ele>2912.220703</ele>
<time>2011-04-24T05:41:18Z</time>
<desc>lat.=22.308041, lon.=103.774193, Alt.=2912.220703m. Speed=0.612000m/h.</desc>
<speed>0.170000</speed>
</trkpt>
<trkpt lat="22.308081" lon="103.774193">
<ele>2911.283203</ele>
<time>2011-04-24T05:41:23Z</time>
<desc>lat.=22.308081, lon.=103.774193, Alt.=2911.283203m. Speed=0.936000m/h.</desc>
<speed>0.260000</speed>
</trkpt>
<trkpt lat="22.308125" lon="103.774200">
<ele>2910.720703</ele>
<time>2011-04-24T05:41:28Z</time>
<desc>lat.=22.308125, lon.=103.774200, Alt.=2910.720703m. Speed=1.692000m/h.</desc>
<speed>0.470000</speed>
</trkpt>
<trkpt lat="22.308163" lon="103.774178">
<ele>2910.033203</ele>
<time>2011-04-24T05:41:33Z</time>
<desc>lat.=22.308163, lon.=103.774178, Alt.=2910.033203m. Speed=2.412000m/h.</desc>
<speed>0.670000</speed>
</trkpt>
<trkpt lat="22.308167" lon="103.774162">
<ele>2909.720703</ele>
<time>2011-04-24T05:41:38Z</time>
<desc>lat.=22.308167, lon.=103.774162, Alt.=2909.720703m. Speed=1.620000m/h.</desc>
<speed>0.450000</speed>
</trkpt>
<trkpt lat="22.308197" lon="103.774155">
<ele>2909.283203</ele>
<time>2011-04-24T05:41:43Z</time>
<desc>lat.=22.308197, lon.=103.774155, Alt.=2909.283203m. Speed=2.628000m/h.</desc>
<speed>0.730000</speed>
</trkpt>
<trkpt lat="22.308176" lon="103.774132">
<ele>2908.095703</ele>
<time>2011-04-24T05:41:48Z</time>
<desc>lat.=22.308176, lon.=103.774132, Alt.=2908.095703m. Speed=0.396000m/h.</desc>
<speed>0.110000</speed>
</trkpt>
<trkpt lat="22.308172" lon="103.774101">
<ele>2907.095703</ele>
<time>2011-04-24T05:41:53Z</time>
<desc>lat.=22.308172, lon.=103.774101, Alt.=2907.095703m. Speed=1.152000m/h.</desc>
<speed>0.320000</speed>
</trkpt>
<trkpt lat="22.308140" lon="103.774094">
<ele>2904.720703</ele>
<time>2011-04-24T05:41:58Z</time>
<desc>lat.=22.308140, lon.=103.774094, Alt.=2904.720703m. Speed=0.900000m/h.</desc>
<speed>0.250000</speed>
</trkpt>
<trkpt lat="22.308134" lon="103.774086">
<ele>2903.533203</ele>
<time>2011-04-24T05:42:03Z</time>
<desc>lat.=22.308134, lon.=103.774086, Alt.=2903.533203m. Speed=1.584000m/h.</desc>
<speed>0.440000</speed>
</trkpt>
<trkpt lat="22.308134" lon="103.774071">
<ele>2902.158203</ele>
<time>2011-04-24T05:42:08Z</time>
<desc>lat.=22.308134, lon.=103.774071, Alt.=2902.158203m. Speed=0.828000m/h.</desc>
<speed>0.230000</speed>
</trkpt>
<trkpt lat="22.308142" lon="103.774063">
<ele>2901.595703</ele>
<time>2011-04-24T05:42:13Z</time>
<desc>lat.=22.308142, lon.=103.774063, Alt.=2901.595703m. Speed=0.900000m/h.</desc>
<speed>0.250000</speed>
</trkpt>
<trkpt lat="22.308151" lon="103.774048">
<ele>2900.783203</ele>
<time>2011-04-24T05:42:18Z</time>
<desc>lat.=22.308151, lon.=103.774048, Alt.=2900.783203m. Speed=1.224000m/h.</desc>
<speed>0.340000</speed>
</trkpt>
<trkpt lat="22.308140" lon="103.774040">
<ele>2899.158203</ele>
<time>2011-04-24T05:42:23Z</time>
<desc>lat.=22.308140, lon.=103.774040, Alt.=2899.158203m. Speed=0.612000m/h.</desc>
<speed>0.170000</speed>
</trkpt>
<trkpt lat="22.308151" lon="103.774033">
<ele>2898.908203</ele>
<time>2011-04-24T05:42:28Z</time>
<desc>lat.=22.308151, lon.=103.774033, Alt.=2898.908203m. Speed=1.404000m/h.</desc>
<speed>0.390000</speed>
</trkpt>
<trkpt lat="22.308159" lon="103.774025">
<ele>2897.783203</ele>
<time>2011-04-24T05:42:33Z</time>
<desc>lat.=22.308159, lon.=103.774025, Alt.=2897.783203m. Speed=1.296000m/h.</desc>
<speed>0.360000</speed>
</trkpt>
<trkpt lat="22.308191" lon="103.774017">
<ele>2896.720703</ele>
<time>2011-04-24T05:42:38Z</time>
<desc>lat.=22.308191, lon.=103.774017, Alt.=2896.720703m. Speed=1.512000m/h.</desc>
<speed>0.420000</speed>
</trkpt>
<trkpt lat="22.308184" lon="103.774002">
<ele>2895.720703</ele>
<time>2011-04-24T05:42:43Z</time>
<desc>lat.=22.308184, lon.=103.774002, Alt.=2895.720703m. Speed=0.288000m/h.</desc>
<speed>0.080000</speed>
</trkpt>
<trkpt lat="22.308189" lon="103.773994">
<ele>2895.533203</ele>
<time>2011-04-24T05:42:48Z</time>
<desc>lat.=22.308189, lon.=103.773994, Alt.=2895.533203m. Speed=0.468000m/h.</desc>
<speed>0.130000</speed>
</trkpt>
<trkpt lat="22.308191" lon="103.773994">
<ele>2895.345703</ele>
<time>2011-04-24T05:42:53Z</time>
<desc>lat.=22.308191, lon.=103.773994, Alt.=2895.345703m. Speed=0.936000m/h.</desc>
<speed>0.260000</speed>
</trkpt>
<trkpt lat="22.308195" lon="103.773987">
<ele>2895.158203</ele>
<time>2011-04-24T05:42:58Z</time>
<desc>lat.=22.308195, lon.=103.773987, Alt.=2895.158203m. Speed=0.288000m/h.</desc>
<speed>0.080000</speed>
</trkpt>
<trkpt lat="22.308201" lon="103.773979">
<ele>2894.845703</ele>
<time>2011-04-24T05:43:03Z</time>
<desc>lat.=22.308201, lon.=103.773979, Alt.=2894.845703m. Speed=0.900000m/h.</desc>
<speed>0.250000</speed>
</trkpt>
<trkpt lat="22.308210" lon="103.773979">
<ele>2894.408203</ele>
<time>2011-04-24T05:43:08Z</time>
<desc>lat.=22.308210, lon.=103.773979, Alt.=2894.408203m. Speed=0.792000m/h.</desc>
<speed>0.220000</speed>
</trkpt>
<trkpt lat="22.308220" lon="103.773972">
<ele>2893.908203</ele>
<time>2011-04-24T05:43:13Z</time>
<desc>lat.=22.308220, lon.=103.773972, Alt.=2893.908203m. Speed=0.756000m/h.</desc>
<speed>0.210000</speed>
</trkpt>
<trkpt lat="22.308228" lon="103.773972">
<ele>2893.283203</ele>
<time>2011-04-24T05:43:18Z</time>
<desc>lat.=22.308228, lon.=103.773972, Alt.=2893.283203m. Speed=0.684000m/h.</desc>
<speed>0.190000</speed>
</trkpt>
<trkpt lat="22.308231" lon="103.773964">
<ele>2892.720703</ele>
<time>2011-04-24T05:43:23Z</time>
<desc>lat.=22.308231, lon.=103.773964, Alt.=2892.720703m. Speed=1.764000m/h.</desc>
<speed>0.490000</speed>
</trkpt>
<trkpt lat="22.308210" lon="103.773880">
<ele>2891.033203</ele>
<time>2011-04-24T05:43:28Z</time>
<desc>lat.=22.308210, lon.=103.773880, Alt.=2891.033203m. Speed=4.644000m/h.</desc>
<speed>1.290000</speed>
</trkpt>
<trkpt lat="22.308167" lon="103.773827">
<ele>2887.908203</ele>
<time>2011-04-24T05:43:33Z</time>
<desc>lat.=22.308167, lon.=103.773827, Alt.=2887.908203m. Speed=4.032000m/h.</desc>
<speed>1.120000</speed>
</trkpt>
<trkpt lat="22.308149" lon="103.773788">
<ele>2885.470703</ele>
<time>2011-04-24T05:43:38Z</time>
<desc>lat.=22.308149, lon.=103.773788, Alt.=2885.470703m. Speed=2.808000m/h.</desc>
<speed>0.780000</speed>
</trkpt>
<trkpt lat="22.308146" lon="103.773727">
<ele>2882.283203</ele>
<time>2011-04-24T05:43:43Z</time>
<desc>lat.=22.308146, lon.=103.773727, Alt.=2882.283203m. Speed=2.556000m/h.</desc>
<speed>0.710000</speed>
</trkpt>
<trkpt lat="22.308121" lon="103.773689">
<ele>2879.908203</ele>
<time>2011-04-24T05:43:48Z</time>
<desc>lat.=22.308121, lon.=103.773689, Alt.=2879.908203m. Speed=2.376000m/h.</desc>
<speed>0.660000</speed>
</trkpt>
<trkpt lat="22.308094" lon="103.773643">
<ele>2877.783203</ele>
<time>2011-04-24T05:43:53Z</time>
<desc>lat.=22.308094, lon.=103.773643, Alt.=2877.783203m. Speed=2.772000m/h.</desc>
<speed>0.770000</speed>
</trkpt>
<trkpt lat="22.308083" lon="103.773590">
<ele>2875.783203</ele>
<time>2011-04-24T05:43:58Z</time>
<desc>lat.=22.308083, lon.=103.773590, Alt.=2875.783203m. Speed=3.132000m/h.</desc>
<speed>0.870000</speed>
</trkpt>
<trkpt lat="22.308054" lon="103.773605">
<ele>2874.220703</ele>
<time>2011-04-24T05:44:03Z</time>
<desc>lat.=22.308054, lon.=103.773605, Alt.=2874.220703m. Speed=2.520000m/h.</desc>
<speed>0.700000</speed>
</trkpt>
<trkpt lat="22.308039" lon="103.773582">
<ele>2872.720703</ele>
<time>2011-04-24T05:44:08Z</time>
<desc>lat.=22.308039, lon.=103.773582, Alt.=2872.720703m. Speed=2.808000m/h.</desc>
<speed>0.780000</speed>
</trkpt>
<trkpt lat="22.308010" lon="103.773514">
<ele>2871.783203</ele>
<time>2011-04-24T05:44:13Z</time>
<desc>lat.=22.308010, lon.=103.773514, Alt.=2871.783203m. Speed=3.168000m/h.</desc>
<speed>0.880000</speed>
</trkpt>
<trkpt lat="22.308044" lon="103.773468">
<ele>2871.220703</ele>
<time>2011-04-24T05:44:18Z</time>
<desc>lat.=22.308044, lon.=103.773468, Alt.=2871.220703m. Speed=2.448000m/h.</desc>
<speed>0.680000</speed>
</trkpt>
<trkpt lat="22.308079" lon="103.773430">
<ele>2870.408203</ele>
<time>2011-04-24T05:44:23Z</time>
<desc>lat.=22.308079, lon.=103.773430, Alt.=2870.408203m. Speed=4.104000m/h.</desc>
<speed>1.140000</speed>
</trkpt>
<trkpt lat="22.308105" lon="103.773415">
<ele>2869.908203</ele>
<time>2011-04-24T05:44:28Z</time>
<desc>lat.=22.308105, lon.=103.773415, Alt.=2869.908203m. Speed=1.224000m/h.</desc>
<speed>0.340000</speed>
</trkpt>
<trkpt lat="22.308104" lon="103.773392">
<ele>2869.095703</ele>
<time>2011-04-24T05:44:33Z</time>
<desc>lat.=22.308104, lon.=103.773392, Alt.=2869.095703m. Speed=1.116000m/h.</desc>
<speed>0.310000</speed>
</trkpt>
<trkpt lat="22.308117" lon="103.773369">
<ele>2868.283203</ele>
<time>2011-04-24T05:44:38Z</time>
<desc>lat.=22.308117, lon.=103.773369, Alt.=2868.283203m. Speed=1.404000m/h.</desc>
<speed>0.390000</speed>
</trkpt>
<trkpt lat="22.308136" lon="103.773346">
<ele>2867.970703</ele>
<time>2011-04-24T05:44:43Z</time>
<desc>lat.=22.308136, lon.=103.773346, Alt.=2867.970703m. Speed=1.368000m/h.</desc>
<speed>0.380000</speed>
</trkpt>
<trkpt lat="22.308136" lon="103.773308">
<ele>2867.283203</ele>
<time>2011-04-24T05:44:48Z</time>
<desc>lat.=22.308136, lon.=103.773308, Alt.=2867.283203m. Speed=1.368000m/h.</desc>
<speed>0.380000</speed>
</trkpt>
<trkpt lat="22.308142" lon="103.773277">
<ele>2865.720703</ele>
<time>2011-04-24T05:44:53Z</time>
<desc>lat.=22.308142, lon.=103.773277, Alt.=2865.720703m. Speed=1.800000m/h.</desc>
<speed>0.500000</speed>
</trkpt>
<trkpt lat="22.308163" lon="103.773232">
<ele>2865.220703</ele>
<time>2011-04-24T05:44:58Z</time>
<desc>lat.=22.308163, lon.=103.773232, Alt.=2865.220703m. Speed=3.600000m/h.</desc>
<speed>1.000000</speed>
</trkpt>
<trkpt lat="22.308149" lon="103.773201">
<ele>2864.595703</ele>
<time>2011-04-24T05:45:03Z</time>
<desc>lat.=22.308149, lon.=103.773201, Alt.=2864.595703m. Speed=2.196000m/h.</desc>
<speed>0.610000</speed>
</trkpt>
<trkpt lat="22.308157" lon="103.773117">
<ele>2864.408203</ele>
<time>2011-04-24T05:45:08Z</time>
<desc>lat.=22.308157, lon.=103.773117, Alt.=2864.408203m. Speed=4.104000m/h.</desc>
<speed>1.140000</speed>
</trkpt>
<trkpt lat="22.308159" lon="103.773087">
<ele>2864.158203</ele>
<time>2011-04-24T05:45:13Z</time>
<desc>lat.=22.308159, lon.=103.773087, Alt.=2864.158203m. Speed=1.872000m/h.</desc>
<speed>0.520000</speed>
</trkpt>
<trkpt lat="22.308147" lon="103.773087">
<ele>2864.470703</ele>
<time>2011-04-24T05:45:18Z</time>
<desc>lat.=22.308147, lon.=103.773087, Alt.=2864.470703m. Speed=1.980000m/h.</desc>
<speed>0.550000</speed>
</trkpt>
<trkpt lat="22.308174" lon="103.773064">
<ele>2864.595703</ele>
<time>2011-04-24T05:45:23Z</time>
<desc>lat.=22.308174, lon.=103.773064, Alt.=2864.595703m. Speed=2.304000m/h.</desc>
<speed>0.640000</speed>
</trkpt>
<trkpt lat="22.308176" lon="103.773056">
<ele>2865.345703</ele>
<time>2011-04-24T05:45:28Z</time>
<desc>lat.=22.308176, lon.=103.773056, Alt.=2865.345703m. Speed=0.648000m/h.</desc>
<speed>0.180000</speed>
</trkpt>
<trkpt lat="22.308174" lon="103.773041">
<ele>2865.783203</ele>
<time>2011-04-24T05:45:33Z</time>
<desc>lat.=22.308174, lon.=103.773041, Alt.=2865.783203m. Speed=1.188000m/h.</desc>
<speed>0.330000</speed>
</trkpt>
<trkpt lat="22.308207" lon="103.773033">
<ele>2866.283203</ele>
<time>2011-04-24T05:45:38Z</time>
<desc>lat.=22.308207, lon.=103.773033, Alt.=2866.283203m. Speed=0.864000m/h.</desc>
<speed>0.240000</speed>
</trkpt>
<trkpt lat="22.308216" lon="103.773026">
<ele>2867.158203</ele>
<time>2011-04-24T05:45:43Z</time>
<desc>lat.=22.308216, lon.=103.773026, Alt.=2867.158203m. Speed=1.476000m/h.</desc>
<speed>0.410000</speed>
</trkpt>
<trkpt lat="22.308218" lon="103.773010">
<ele>2866.845703</ele>
<time>2011-04-24T05:45:48Z</time>
<desc>lat.=22.308218, lon.=103.773010, Alt.=2866.845703m. Speed=1.116000m/h.</desc>
<speed>0.310000</speed>
</trkpt>
<trkpt lat="22.308243" lon="103.772987">
<ele>2867.470703</ele>
<time>2011-04-24T05:45:53Z</time>
<desc>lat.=22.308243, lon.=103.772987, Alt.=2867.470703m. Speed=1.764000m/h.</desc>
<speed>0.490000</speed>
</trkpt>
<trkpt lat="22.308262" lon="103.772972">
<ele>2867.845703</ele>
<time>2011-04-24T05:45:58Z</time>
<desc>lat.=22.308262, lon.=103.772972, Alt.=2867.845703m. Speed=1.224000m/h.</desc>
<speed>0.340000</speed>
</trkpt>
<trkpt lat="22.308273" lon="103.772964">
<ele>2868.158203</ele>
<time>2011-04-24T05:46:03Z</time>
<desc>lat.=22.308273, lon.=103.772964, Alt.=2868.158203m. Speed=1.224000m/h.</desc>
<speed>0.340000</speed>
</trkpt>
<trkpt lat="22.308294" lon="103.772987">
<ele>2868.158203</ele>
<time>2011-04-24T05:46:08Z</time>
<desc>lat.=22.308294, lon.=103.772987, Alt.=2868.158203m. Speed=1.692000m/h.</desc>
<speed>0.470000</speed>
</trkpt>
<trkpt lat="22.308327" lon="103.773018">
<ele>2868.033203</ele>
<time>2011-04-24T05:46:13Z</time>
<desc>lat.=22.308327, lon.=103.773018, Alt.=2868.033203m. Speed=1.944000m/h.</desc>
<speed>0.540000</speed>
</trkpt>
<trkpt lat="22.308338" lon="103.773026">
<ele>2867.970703</ele>
<time>2011-04-24T05:46:18Z</time>
<desc>lat.=22.308338, lon.=103.773026, Alt.=2867.970703m. Speed=1.224000m/h.</desc>
<speed>0.340000</speed>
</trkpt>
<trkpt lat="22.308355" lon="103.773018">
<ele>2868.095703</ele>
<time>2011-04-24T05:46:23Z</time>
<desc>lat.=22.308355, lon.=103.773018, Alt.=2868.095703m. Speed=0.684000m/h.</desc>
<speed>0.190000</speed>
</trkpt>
<trkpt lat="22.308367" lon="103.773010">
<ele>2867.845703</ele>
<time>2011-04-24T05:46:28Z</time>
<desc>lat.=22.308367, lon.=103.773010, Alt.=2867.845703m. Speed=1.440000m/h.</desc>
<speed>0.400000</speed>
</trkpt>
<trkpt lat="22.308378" lon="103.773018">
<ele>2867.845703</ele>
<time>2011-04-24T05:46:33Z</time>
<desc>lat.=22.308378, lon.=103.773018, Alt.=2867.845703m. Speed=0.720000m/h.</desc>
<speed>0.200000</speed>
</trkpt>
<trkpt lat="22.308399" lon="103.773010">
<ele>2867.970703</ele>
<time>2011-04-24T05:46:38Z</time>
<desc>lat.=22.308399, lon.=103.773010, Alt.=2867.970703m. Speed=1.656000m/h.</desc>
<speed>0.460000</speed>
</trkpt>
<trkpt lat="22.308399" lon="103.773026">
<ele>2868.158203</ele>
<time>2011-04-24T05:46:43Z</time>
<desc>lat.=22.308399, lon.=103.773026, Alt.=2868.158203m. Speed=0.504000m/h.</desc>
<speed>0.140000</speed>
</trkpt>
<trkpt lat="22.308411" lon="103.773048">
<ele>2868.158203</ele>
<time>2011-04-24T05:46:48Z</time>
<desc>lat.=22.308411, lon.=103.773048, Alt.=2868.158203m. Speed=1.188000m/h.</desc>
<speed>0.330000</speed>
</trkpt>
<trkpt lat="22.308430" lon="103.773079">
<ele>2868.283203</ele>
<time>2011-04-24T05:46:53Z</time>
<desc>lat.=22.308430, lon.=103.773079, Alt.=2868.283203m. Speed=2.844000m/h.</desc>
<speed>0.790000</speed>
</trkpt>
<trkpt lat="22.308466" lon="103.773109">
<ele>2868.345703</ele>
<time>2011-04-24T05:46:58Z</time>
<desc>lat.=22.308466, lon.=103.773109, Alt.=2868.345703m. Speed=2.736000m/h.</desc>
<speed>0.760000</speed>
</trkpt>
<trkpt lat="22.308498" lon="103.773117">
<ele>2868.345703</ele>
<time>2011-04-24T05:47:03Z</time>
<desc>lat.=22.308498, lon.=103.773117, Alt.=2868.345703m. Speed=1.980000m/h.</desc>
<speed>0.550000</speed>
</trkpt>
<trkpt lat="22.308544" lon="103.773109">
<ele>2868.470703</ele>
<time>2011-04-24T05:47:08Z</time>
<desc>lat.=22.308544, lon.=103.773109, Alt.=2868.470703m. Speed=2.628000m/h.</desc>
<speed>0.730000</speed>
</trkpt>
<trkpt lat="22.308552" lon="103.773079">
<ele>2868.470703</ele>
<time>2011-04-24T05:47:13Z</time>
<desc>lat.=22.308552, lon.=103.773079, Alt.=2868.470703m. Speed=0.468000m/h.</desc>
<speed>0.130000</speed>
</trkpt>
<trkpt lat="22.308540" lon="103.773109">
<ele>2868.720703</ele>
<time>2011-04-24T05:47:18Z</time>
<desc>lat.=22.308540, lon.=103.773109, Alt.=2868.720703m. Speed=1.512000m/h.</desc>
<speed>0.420000</speed>
</trkpt>
<trkpt lat="22.308599" lon="103.773109">
<ele>2868.720703</ele>
<time>2011-04-24T05:47:23Z</time>
<desc>lat.=22.308599, lon.=103.773109, Alt.=2868.720703m. Speed=2.052000m/h.</desc>
<speed>0.570000</speed>
</trkpt>
<trkpt lat="22.308617" lon="103.773102">
<ele>2869.158203</ele>
<time>2011-04-24T05:47:28Z</time>
<desc>lat.=22.308617, lon.=103.773102, Alt.=2869.158203m. Speed=2.160000m/h.</desc>
<speed>0.600000</speed>
</trkpt>
<trkpt lat="22.308645" lon="103.773109">
<ele>2869.470703</ele>
<time>2011-04-24T05:47:33Z</time>
<desc>lat.=22.308645, lon.=103.773109, Alt.=2869.470703m. Speed=2.340000m/h.</desc>
<speed>0.650000</speed>
</trkpt>
<trkpt lat="22.308662" lon="103.773087">
<ele>2869.845703</ele>
<time>2011-04-24T05:47:38Z</time>
<desc>lat.=22.308662, lon.=103.773087, Alt.=2869.845703m. Speed=1.944000m/h.</desc>
<speed>0.540000</speed>
</trkpt>
<trkpt lat="22.308620" lon="103.773056">
<ele>2870.158203</ele>
<time>2011-04-24T05:47:43Z</time>
<desc>lat.=22.308620, lon.=103.773056, Alt.=2870.158203m. Speed=0.000000m/h.</desc>
<speed>0.000000</speed>
</trkpt>
<trkpt lat="22.308598" lon="103.773010">
<ele>2870.533203</ele>
<time>2011-04-24T05:47:48Z</time>
<desc>lat.=22.308598, lon.=103.773010, Alt.=2870.533203m. Speed=0.972000m/h.</desc>
<speed>0.270000</speed>
</trkpt>
<trkpt lat="22.308599" lon="103.773010">
<ele>2870.720703</ele>
<time>2011-04-24T05:47:53Z</time>
<desc>lat.=22.308599, lon.=103.773010, Alt.=2870.720703m. Speed=0.828000m/h.</desc>
<speed>0.230000</speed>
</trkpt>
<trkpt lat="22.308588" lon="103.772995">
<ele>2870.533203</ele>
<time>2011-04-24T05:47:58Z</time>
<desc>lat.=22.308588, lon.=103.772995, Alt.=2870.533203m. Speed=0.900000m/h.</desc>
<speed>0.250000</speed>
</trkpt>
<trkpt lat="22.308632" lon="103.773026">
<ele>2870.595703</ele>
<time>2011-04-24T05:48:03Z</time>
<desc>lat.=22.308632, lon.=103.773026, Alt.=2870.595703m. Speed=1.188000m/h.</desc>
<speed>0.330000</speed>
</trkpt>
<trkpt lat="22.308657" lon="103.773026">
<ele>2870.720703</ele>
<time>2011-04-24T05:48:08Z</time>
<desc>lat.=22.308657, lon.=103.773026, Alt.=2870.720703m. Speed=0.972000m/h.</desc>
<speed>0.270000</speed>
</trkpt>
<trkpt lat="22.308653" lon="103.773010">
<ele>2871.095703</ele>
<time>2011-04-24T05:48:13Z</time>
<desc>lat.=22.308653, lon.=103.773010, Alt.=2871.095703m. Speed=1.728000m/h.</desc>
<speed>0.480000</speed>
</trkpt>
<trkpt lat="22.308668" lon="103.773003">
<ele>2871.158203</ele>
<time>2011-04-24T05:48:18Z</time>
<desc>lat.=22.308668, lon.=103.773003, Alt.=2871.158203m. Speed=0.684000m/h.</desc>
<speed>0.190000</speed>
</trkpt>
<trkpt lat="22.308641" lon="103.772995">
<ele>2871.158203</ele>
<time>2011-04-24T05:48:23Z</time>
<desc>lat.=22.308641, lon.=103.772995, Alt.=2871.158203m. Speed=0.972000m/h.</desc>
<speed>0.270000</speed>
</trkpt>
<trkpt lat="22.308653" lon="103.772972">
<ele>2871.033203</ele>
<time>2011-04-24T05:48:28Z</time>
<desc>lat.=22.308653, lon.=103.772972, Alt.=2871.033203m. Speed=0.468000m/h.</desc>
<speed>0.130000</speed>
</trkpt>
<trkpt lat="22.308647" lon="103.772980">
<ele>2871.033203</ele>
<time>2011-04-24T05:48:33Z</time>
<desc>lat.=22.308647, lon.=103.772980, Alt.=2871.033203m. Speed=0.972000m/h.</desc>
<speed>0.270000</speed>
</trkpt>
<trkpt lat="22.308666" lon="103.772964">
<ele>2871.095703</ele>
<time>2011-04-24T05:48:38Z</time>
<desc>lat.=22.308666, lon.=103.772964, Alt.=2871.095703m. Speed=0.468000m/h.</desc>
<speed>0.130000</speed>
</trkpt>
<trkpt lat="22.308676" lon="103.772949">
<ele>2871.345703</ele>
<time>2011-04-24T05:48:43Z</time>
<desc>lat.=22.308676, lon.=103.772949, Alt.=2871.345703m. Speed=1.224000m/h.</desc>
<speed>0.340000</speed>
</trkpt>
<trkpt lat="22.308678" lon="103.772926">
<ele>2871.533203</ele>
<time>2011-04-24T05:48:48Z</time>
<desc>lat.=22.308678, lon.=103.772926, Alt.=2871.533203m. Speed=1.152000m/h.</desc>
<speed>0.320000</speed>
</trkpt>
<trkpt lat="22.308664" lon="103.772926">
<ele>2871.408203</ele>
<time>2011-04-24T05:48:53Z</time>
<desc>lat.=22.308664, lon.=103.772926, Alt.=2871.408203m. Speed=1.260000m/h.</desc>
<speed>0.350000</speed>
</trkpt>
<trkpt lat="22.308662" lon="103.772903">
<ele>2871.220703</ele>
<time>2011-04-24T05:48:58Z</time>
<desc>lat.=22.308662, lon.=103.772903, Alt.=2871.220703m. Speed=1.512000m/h.</desc>
<speed>0.420000</speed>
</trkpt>
<trkpt lat="22.308670" lon="103.772903">
<ele>2871.845703</ele>
<time>2011-04-24T05:49:03Z</time>
<desc>lat.=22.308670, lon.=103.772903, Alt.=2871.845703m. Speed=1.224000m/h.</desc>
<speed>0.340000</speed>
</trkpt>
<trkpt lat="22.308672" lon="103.772865">
<ele>2873.283203</ele>
<time>2011-04-24T05:49:08Z</time>
<desc>lat.=22.308672, lon.=103.772865, Alt.=2873.283203m. Speed=2.664000m/h.</desc>
<speed>0.740000</speed>
</trkpt>
<trkpt lat="22.308718" lon="103.772865">
<ele>2875.033203</ele>
<time>2011-04-24T05:49:13Z</time>
<desc>lat.=22.308718, lon.=103.772865, Alt.=2875.033203m. Speed=2.808000m/h.</desc>
<speed>0.780000</speed>
</trkpt>
<trkpt lat="22.308731" lon="103.772865">
<ele>2875.470703</ele>
<time>2011-04-24T05:49:18Z</time>
<desc>lat.=22.308731, lon.=103.772865, Alt.=2875.470703m. Speed=0.864000m/h.</desc>
<speed>0.240000</speed>
</trkpt>
<trkpt lat="22.308735" lon="103.772850">
<ele>2875.470703</ele>
<time>2011-04-24T05:49:23Z</time>
<desc>lat.=22.308735, lon.=103.772850, Alt.=2875.470703m. Speed=2.304000m/h.</desc>
<speed>0.640000</speed>
</trkpt>
<trkpt lat="22.308741" lon="103.772842">
<ele>2875.908203</ele>
<time>2011-04-24T05:49:28Z</time>
<desc>lat.=22.308741, lon.=103.772842, Alt.=2875.908203m. Speed=0.036000m/h.</desc>
<speed>0.010000</speed>
</trkpt>
<trkpt lat="22.308754" lon="103.772842">
<ele>2876.345703</ele>
<time>2011-04-24T05:49:33Z</time>
<desc>lat.=22.308754, lon.=103.772842, Alt.=2876.345703m. Speed=2.448000m/h.</desc>
<speed>0.680000</speed>
</trkpt>
<trkpt lat="22.308769" lon="103.772789">
<ele>2877.533203</ele>
<time>2011-04-24T05:49:38Z</time>
<desc>lat.=22.308769, lon.=103.772789, Alt.=2877.533203m. Speed=3.528000m/h.</desc>
<speed>0.980000</speed>
</trkpt>
<trkpt lat="22.308800" lon="103.772774">
<ele>2878.658203</ele>
<time>2011-04-24T05:49:43Z</time>
<desc>lat.=22.308800, lon.=103.772774, Alt.=2878.658203m. Speed=0.648000m/h.</desc>
<speed>0.180000</speed>
</trkpt>
<trkpt lat="22.308819" lon="103.772766">
<ele>2879.533203</ele>
<time>2011-04-24T05:49:48Z</time>
<desc>lat.=22.308819, lon.=103.772766, Alt.=2879.533203m. Speed=2.160000m/h.</desc>
<speed>0.600000</speed>
</trkpt>
<trkpt lat="22.308838" lon="103.772751">
<ele>2879.970703</ele>
<time>2011-04-24T05:49:53Z</time>
<desc>lat.=22.308838, lon.=103.772751, Alt.=2879.970703m. Speed=1.512000m/h.</desc>
<speed>0.420000</speed>
</trkpt>
<trkpt lat="22.308876" lon="103.772713">
<ele>2880.533203</ele>
<time>2011-04-24T05:49:58Z</time>
<desc>lat.=22.308876, lon.=103.772713, Alt.=2880.533203m. Speed=3.384000m/h.</desc>
<speed>0.940000</speed>
</trkpt>
<trkpt lat="22.308874" lon="103.772675">
<ele>2880.533203</ele>
<time>2011-04-24T05:50:03Z</time>
<desc>lat.=22.308874, lon.=103.772675, Alt.=2880.533203m. Speed=1.836000m/h.</desc>
<speed>0.510000</speed>
</trkpt>
<trkpt lat="22.308887" lon="103.772659">
<ele>2880.845703</ele>
<time>2011-04-24T05:50:08Z</time>
<desc>lat.=22.308887, lon.=103.772659, Alt.=2880.845703m. Speed=1.260000m/h.</desc>
<speed>0.350000</speed>
</trkpt>
<trkpt lat="22.308899" lon="103.772636">
<ele>2880.720703</ele>
<time>2011-04-24T05:50:13Z</time>
<desc>lat.=22.308899, lon.=103.772636, Alt.=2880.720703m. Speed=1.764000m/h.</desc>
<speed>0.490000</speed>
</trkpt>
<trkpt lat="22.308912" lon="103.772621">
<ele>2881.033203</ele>
<time>2011-04-24T05:50:18Z</time>
<desc>lat.=22.308912, lon.=103.772621, Alt.=2881.033203m. Speed=0.540000m/h.</desc>
<speed>0.150000</speed>
</trkpt>
<trkpt lat="22.308891" lon="103.772621">
<ele>2880.720703</ele>
<time>2011-04-24T05:50:23Z</time>
<desc>lat.=22.308891, lon.=103.772621, Alt.=2880.720703m. Speed=0.936000m/h.</desc>
<speed>0.260000</speed>
</trkpt>
<trkpt lat="22.308872" lon="103.772598">
<ele>2880.595703</ele>
<time>2011-04-24T05:50:28Z</time>
<desc>lat.=22.308872, lon.=103.772598, Alt.=2880.595703m. Speed=1.008000m/h.</desc>
<speed>0.280000</speed>
</trkpt>
<trkpt lat="22.308861" lon="103.772598">
<ele>2880.470703</ele>
<time>2011-04-24T05:50:33Z</time>
<desc>lat.=22.308861, lon.=103.772598, Alt.=2880.470703m. Speed=0.468000m/h.</desc>
<speed>0.130000</speed>
</trkpt>
<trkpt lat="22.308867" lon="103.772583">
<ele>2880.408203</ele>
<time>2011-04-24T05:50:38Z</time>
<desc>lat.=22.308867, lon.=103.772583, Alt.=2880.408203m. Speed=1.656000m/h.</desc>
<speed>0.460000</speed>
</trkpt>
<trkpt lat="22.308907" lon="103.772530">
<ele>2880.158203</ele>
<time>2011-04-24T05:50:43Z</time>
<desc>lat.=22.308907, lon.=103.772530, Alt.=2880.158203m. Speed=3.348000m/h.</desc>
<speed>0.930000</speed>
</trkpt>
<trkpt lat="22.308895" lon="103.772484">
<ele>2879.970703</ele>
<time>2011-04-24T05:50:48Z</time>
<desc>lat.=22.308895, lon.=103.772484, Alt.=2879.970703m. Speed=4.212000m/h.</desc>
<speed>1.170000</speed>
</trkpt>
<trkpt lat="22.308891" lon="103.772446">
<ele>2879.595703</ele>
<time>2011-04-24T05:50:53Z</time>
<desc>lat.=22.308891, lon.=103.772446, Alt.=2879.595703m. Speed=3.600000m/h.</desc>
<speed>1.000000</speed>
</trkpt>
<trkpt lat="22.308926" lon="103.772453">
<ele>2879.220703</ele>
<time>2011-04-24T05:50:58Z</time>
<desc>lat.=22.308926, lon.=103.772453, Alt.=2879.220703m. Speed=2.844000m/h.</desc>
<speed>0.790000</speed>
</trkpt>
<trkpt lat="22.308929" lon="103.772507">
<ele>2878.908203</ele>
<time>2011-04-24T05:51:03Z</time>
<desc>lat.=22.308929, lon.=103.772507, Alt.=2878.908203m. Speed=0.684000m/h.</desc>
<speed>0.190000</speed>
</trkpt>
<trkpt lat="22.308928" lon="103.772491">
<ele>2878.658203</ele>
<time>2011-04-24T05:51:08Z</time>
<desc>lat.=22.308928, lon.=103.772491, Alt.=2878.658203m. Speed=1.008000m/h.</desc>
<speed>0.280000</speed>
</trkpt>
<trkpt lat="22.308914" lon="103.772469">
<ele>2878.470703</ele>
<time>2011-04-24T05:51:13Z</time>
<desc>lat.=22.308914, lon.=103.772469, Alt.=2878.470703m. Speed=1.836000m/h.</desc>
<speed>0.510000</speed>
</trkpt>
<trkpt lat="22.308914" lon="103.772461">
<ele>2877.908203</ele>
<time>2011-04-24T05:51:18Z</time>
<desc>lat.=22.308914, lon.=103.772461, Alt.=2877.908203m. Speed=1.476000m/h.</desc>
<speed>0.410000</speed>
</trkpt>
<trkpt lat="22.308949" lon="103.772476">
<ele>2877.595703</ele>
<time>2011-04-24T05:51:23Z</time>
<desc>lat.=22.308949, lon.=103.772476, Alt.=2877.595703m. Speed=1.116000m/h.</desc>
<speed>0.310000</speed>
</trkpt>
<trkpt lat="22.308949" lon="103.772484">
<ele>2877.408203</ele>
<time>2011-04-24T05:51:28Z</time>
<desc>lat.=22.308949, lon.=103.772484, Alt.=2877.408203m. Speed=0.900000m/h.</desc>
<speed>0.250000</speed>
</trkpt>
<trkpt lat="22.308933" lon="103.772484">
<ele>2877.283203</ele>
<time>2011-04-24T05:51:33Z</time>
<desc>lat.=22.308933, lon.=103.772484, Alt.=2877.283203m. Speed=1.440000m/h.</desc>
<speed>0.400000</speed>
</trkpt>
<trkpt lat="22.308945" lon="103.772469">
<ele>2876.908203</ele>
<time>2011-04-24T05:51:38Z</time>
<desc>lat.=22.308945, lon.=103.772469, Alt.=2876.908203m. Speed=1.188000m/h.</desc>
<speed>0.330000</speed>
</trkpt>
<trkpt lat="22.308922" lon="103.772476">
<ele>2876.845703</ele>
<time>2011-04-24T05:51:43Z</time>
<desc>lat.=22.308922, lon.=103.772476, Alt.=2876.845703m. Speed=1.008000m/h.</desc>
<speed>0.280000</speed>
</trkpt>
<trkpt lat="22.308922" lon="103.772476">
<ele>2876.908203</ele>
<time>2011-04-24T05:51:48Z</time>
<desc>lat.=22.308922, lon.=103.772476, Alt.=2876.908203m. Speed=0.612000m/h.</desc>
<speed>0.170000</speed>
</trkpt>
<trkpt lat="22.308916" lon="103.772476">
<ele>2876.845703</ele>
<time>2011-04-24T05:51:53Z</time>
<desc>lat.=22.308916, lon.=103.772476, Alt.=2876.845703m. Speed=0.468000m/h.</desc>
<speed>0.130000</speed>
</trkpt>
<trkpt lat="22.308912" lon="103.772476">
<ele>2876.783203</ele>
<time>2011-04-24T05:51:58Z</time>
<desc>lat.=22.308912, lon.=103.772476, Alt.=2876.783203m. Speed=0.468000m/h.</desc>
<speed>0.130000</speed>
</trkpt>
<trkpt lat="22.308910" lon="103.772476">
<ele>2876.783203</ele>
<time>2011-04-24T05:52:03Z</time>
<desc>lat.=22.308910, lon.=103.772476, Alt.=2876.783203m. Speed=0.360000m/h.</desc>
<speed>0.100000</speed>
</trkpt>
<trkpt lat="22.308908" lon="103.772484">
<ele>2876.783203</ele>
<time>2011-04-24T05:52:08Z</time>
<desc>lat.=22.308908, lon.=103.772484, Alt.=2876.783203m. Speed=0.216000m/h.</desc>
<speed>0.060000</speed>
</trkpt>
<trkpt lat="22.308908" lon="103.772484">
<ele>2876.845703</ele>
<time>2011-04-24T05:52:13Z</time>
<desc>lat.=22.308908, lon.=103.772484, Alt.=2876.845703m. Speed=0.828000m/h.</desc>
<speed>0.230000</speed>
</trkpt>
<trkpt lat="22.308905" lon="103.772499">
<ele>2876.970703</ele>
<time>2011-04-24T05:52:18Z</time>
<desc>lat.=22.308905, lon.=103.772499, Alt.=2876.970703m. Speed=1.584000m/h.</desc>
<speed>0.440000</speed>
</trkpt>
<trkpt lat="22.308895" lon="103.772507">
<ele>2877.283203</ele>
<time>2011-04-24T05:52:23Z</time>
<desc>lat.=22.308895, lon.=103.772507, Alt.=2877.283203m. Speed=1.260000m/h.</desc>
<speed>0.350000</speed>
</trkpt>
<trkpt lat="22.308878" lon="103.772530">
<ele>2877.283203</ele>
<time>2011-04-24T05:52:28Z</time>
<desc>lat.=22.308878, lon.=103.772530, Alt.=2877.283203m. Speed=1.116000m/h.</desc>
<speed>0.310000</speed>
</trkpt>
<trkpt lat="22.308899" lon="103.772522">
<ele>2876.845703</ele>
<time>2011-04-24T05:52:33Z</time>
<desc>lat.=22.308899, lon.=103.772522, Alt.=2876.845703m. Speed=0.504000m/h.</desc>
<speed>0.140000</speed>
</trkpt>
<trkpt lat="22.308907" lon="103.772491">
<ele>2876.908203</ele>
<time>2011-04-24T05:52:38Z</time>
<desc>lat.=22.308907, lon.=103.772491, Alt.=2876.908203m. Speed=0.792000m/h.</desc>
<speed>0.220000</speed>
</trkpt>
<trkpt lat="22.308929" lon="103.772484">
<ele>2877.095703</ele>
<time>2011-04-24T05:52:43Z</time>
<desc>lat.=22.308929, lon.=103.772484, Alt.=2877.095703m. Speed=0.252000m/h.</desc>
<speed>0.070000</speed>
</trkpt>
<trkpt lat="22.308929" lon="103.772484">
<ele>2876.658203</ele>
<time>2011-04-24T05:52:48Z</time>
<desc>lat.=22.308929, lon.=103.772484, Alt.=2876.658203m. Speed=0.612000m/h.</desc>
<speed>0.170000</speed>
</trkpt>
<trkpt lat="22.308935" lon="103.772484">
<ele>2876.408203</ele>
<time>2011-04-24T05:52:53Z</time>
<desc>lat.=22.308935, lon.=103.772484, Alt.=2876.408203m. Speed=0.180000m/h.</desc>
<speed>0.050000</speed>
</trkpt>
<trkpt lat="22.308937" lon="103.772484">
<ele>2876.470703</ele>
<time>2011-04-24T05:52:58Z</time>
<desc>lat.=22.308937, lon.=103.772484, Alt.=2876.470703m. Speed=0.288000m/h.</desc>
<speed>0.080000</speed>
</trkpt>
<trkpt lat="22.308933" lon="103.772484">
<ele>2876.408203</ele>
<time>2011-04-24T05:53:03Z</time>
<desc>lat.=22.308933, lon.=103.772484, Alt.=2876.408203m. Speed=0.072000m/h.</desc>
<speed>0.020000</speed>
</trkpt>
<trkpt lat="22.308937" lon="103.772484">
<ele>2876.345703</ele>
<time>2011-04-24T05:53:08Z</time>
<desc>lat.=22.308937, lon.=103.772484, Alt.=2876.345703m. Speed=0.108000m/h.</desc>
<speed>0.030000</speed>
</trkpt>
<trkpt lat="22.308941" lon="103.772484">
<ele>2876.220703</ele>
<time>2011-04-24T05:53:13Z</time>
<desc>lat.=22.308941, lon.=103.772484, Alt.=2876.220703m. Speed=0.108000m/h.</desc>
<speed>0.030000</speed>
</trkpt>
<trkpt lat="22.308943" lon="103.772484">
<ele>2876.283203</ele>
<time>2011-04-24T05:53:18Z</time>
<desc>lat.=22.308943, lon.=103.772484, Alt.=2876.283203m. Speed=0.396000m/h.</desc>
<speed>0.110000</speed>
</trkpt>
<trkpt lat="22.308945" lon="103.772484">
<ele>2876.283203</ele>
<time>2011-04-24T05:53:23Z</time>
<desc>lat.=22.308945, lon.=103.772484, Alt.=2876.283203m. Speed=0.180000m/h.</desc>
<speed>0.050000</speed>
</trkpt>
<trkpt lat="22.308947" lon="103.772484">
<ele>2876.220703</ele>
<time>2011-04-24T05:53:28Z</time>
<desc>lat.=22.308947, lon.=103.772484, Alt.=2876.220703m. Speed=0.396000m/h.</desc>
<speed>0.110000</speed>
</trkpt>
<trkpt lat="22.308945" lon="103.772491">
<ele>2876.345703</ele>
<time>2011-04-24T05:53:33Z</time>
<desc>lat.=22.308945, lon.=103.772491, Alt.=2876.345703m. Speed=0.108000m/h.</desc>
<speed>0.030000</speed>
</trkpt>
<trkpt lat="22.308945" lon="103.772491">
<ele>2876.408203</ele>
<time>2011-04-24T05:53:38Z</time>
<desc>lat.=22.308945, lon.=103.772491, Alt.=2876.408203m. Speed=0.180000m/h.</desc>
<speed>0.050000</speed>
</trkpt>
<trkpt lat="22.308943" lon="103.772491">
<ele>2876.408203</ele>
<time>2011-04-24T05:53:43Z</time>
<desc>lat.=22.308943, lon.=103.772491, Alt.=2876.408203m. Speed=0.180000m/h.</desc>
<speed>0.050000</speed>
</trkpt>
<trkpt lat="22.308941" lon="103.772491">
<ele>2876.408203</ele>
<time>2011-04-24T05:53:48Z</time>
<desc>lat.=22.308941, lon.=103.772491, Alt.=2876.408203m. Speed=0.000000m/h.</desc>
<speed>0.000000</speed>
</trkpt>
<trkpt lat="22.308943" lon="103.772491">
<ele>2876.408203</ele>
<time>2011-04-24T05:53:53Z</time>
<desc>lat.=22.308943, lon.=103.772491, Alt.=2876.408203m. Speed=0.036000m/h.</desc>
<speed>0.010000</speed>
</trkpt>
<trkpt lat="22.308943" lon="103.772491">
<ele>2876.408203</ele>
<time>2011-04-24T05:53:58Z</time>
<desc>lat.=22.308943, lon.=103.772491, Alt.=2876.408203m. Speed=0.252000m/h.</desc>
<speed>0.070000</speed>
</trkpt>
<trkpt lat="22.308943" lon="103.772491">
<ele>2876.408203</ele>
<time>2011-04-24T05:54:03Z</time>
<desc>lat.=22.308943, lon.=103.772491, Alt.=2876.408203m. Speed=0.432000m/h.</desc>
<speed>0.120000</speed>
</trkpt>
<trkpt lat="22.308933" lon="103.772484">
<ele>2876.470703</ele>
<time>2011-04-24T05:54:08Z</time>
<desc>lat.=22.308933, lon.=103.772484, Alt.=2876.470703m. Speed=1.116000m/h.</desc>
<speed>0.310000</speed>
</trkpt>
<trkpt lat="22.308912" lon="103.772484">
<ele>2876.658203</ele>
<time>2011-04-24T05:54:13Z</time>
<desc>lat.=22.308912, lon.=103.772484, Alt.=2876.658203m. Speed=0.972000m/h.</desc>
<speed>0.270000</speed>
</trkpt>
<trkpt lat="22.308903" lon="103.772491">
<ele>2876.720703</ele>
<time>2011-04-24T05:54:18Z</time>
<desc>lat.=22.308903, lon.=103.772491, Alt.=2876.720703m. Speed=0.540000m/h.</desc>
<speed>0.150000</speed>
</trkpt>
<trkpt lat="22.308899" lon="103.772491">
<ele>2876.720703</ele>
<time>2011-04-24T05:54:23Z</time>
<desc>lat.=22.308899, lon.=103.772491, Alt.=2876.720703m. Speed=0.252000m/h.</desc>
<speed>0.070000</speed>
</trkpt>
<trkpt lat="22.308901" lon="103.772491">
<ele>2876.720703</ele>
<time>2011-04-24T05:54:28Z</time>
<desc>lat.=22.308901, lon.=103.772491, Alt.=2876.720703m. Speed=0.432000m/h.</desc>
<speed>0.120000</speed>
</trkpt>
<trkpt lat="22.308903" lon="103.772491">
<ele>2876.783203</ele>
<time>2011-04-24T05:54:33Z</time>
<desc>lat.=22.308903, lon.=103.772491, Alt.=2876.783203m. Speed=0.756000m/h.</desc>
<speed>0.210000</speed>
</trkpt>
<trkpt lat="22.308908" lon="103.772453">
<ele>2876.595703</ele>
<time>2011-04-24T05:54:38Z</time>
<desc>lat.=22.308908, lon.=103.772453, Alt.=2876.595703m. Speed=1.836000m/h.</desc>
<speed>0.510000</speed>
</trkpt>
<trkpt lat="22.308884" lon="103.772484">
<ele>2876.095703</ele>
<time>2011-04-24T05:54:43Z</time>
<desc>lat.=22.308884, lon.=103.772484, Alt.=2876.095703m. Speed=1.836000m/h.</desc>
<speed>0.510000</speed>
</trkpt>
<trkpt lat="22.308924" lon="103.772507">
<ele>2876.095703</ele>
<time>2011-04-24T05:54:48Z</time>
<desc>lat.=22.308924, lon.=103.772507, Alt.=2876.095703m. Speed=0.792000m/h.</desc>
<speed>0.220000</speed>
</trkpt>
<trkpt lat="22.308977" lon="103.772484">
<ele>2874.970703</ele>
<time>2011-04-24T05:54:53Z</time>
<desc>lat.=22.308977, lon.=103.772484, Alt.=2874.970703m. Speed=0.324000m/h.</desc>
<speed>0.090000</speed>
</trkpt>
<trkpt lat="22.308975" lon="103.772484">
<ele>2875.220703</ele>
<time>2011-04-24T05:54:58Z</time>
<desc>lat.=22.308975, lon.=103.772484, Alt.=2875.220703m. Speed=0.648000m/h.</desc>
<speed>0.180000</speed>
</trkpt>
<trkpt lat="22.308969" lon="103.772484">
<ele>2875.345703</ele>
<time>2011-04-24T05:55:03Z</time>
<desc>lat.=22.308969, lon.=103.772484, Alt.=2875.345703m. Speed=0.180000m/h.</desc>
<speed>0.050000</speed>
</trkpt>
<trkpt lat="22.308969" lon="103.772484">
<ele>2875.408203</ele>
<time>2011-04-24T05:55:08Z</time>
<desc>lat.=22.308969, lon.=103.772484, Alt.=2875.408203m. Speed=0.360000m/h.</desc>
<speed>0.100000</speed>
</trkpt>
<trkpt lat="22.308969" lon="103.772484">
<ele>2875.533203</ele>
<time>2011-04-24T05:55:13Z</time>
<desc>lat.=22.308969, lon.=103.772484, Alt.=2875.533203m. Speed=0.612000m/h.</desc>
<speed>0.170000</speed>
</trkpt>
<trkpt lat="22.308962" lon="103.772491">
<ele>2875.658203</ele>
<time>2011-04-24T05:55:18Z</time>
<desc>lat.=22.308962, lon.=103.772491, Alt.=2875.658203m. Speed=0.324000m/h.</desc>
<speed>0.090000</speed>
</trkpt>
<trkpt lat="22.308958" lon="103.772491">
<ele>2875.720703</ele>
<time>2011-04-24T05:55:23Z</time>
<desc>lat.=22.308958, lon.=103.772491, Alt.=2875.720703m. Speed=0.324000m/h.</desc>
<speed>0.090000</speed>
</trkpt>
<trkpt lat="22.308954" lon="103.772491">
<ele>2875.783203</ele>
<time>2011-04-24T05:55:28Z</time>
<desc>lat.=22.308954, lon.=103.772491, Alt.=2875.783203m. Speed=0.144000m/h.</desc>
<speed>0.040000</speed>
</trkpt>
<trkpt lat="22.308952" lon="103.772499">
<ele>2875.845703</ele>
<time>2011-04-24T05:55:33Z</time>
<desc>lat.=22.308952, lon.=103.772499, Alt.=2875.845703m. Speed=0.036000m/h.</desc>
<speed>0.010000</speed>
</trkpt>
<trkpt lat="22.308960" lon="103.772491">
<ele>2875.908203</ele>
<time>2011-04-24T05:55:38Z</time>
<desc>lat.=22.308960, lon.=103.772491, Alt.=2875.908203m. Speed=0.684000m/h.</desc>
<speed>0.190000</speed>
</trkpt>
<trkpt lat="22.308958" lon="103.772507">
<ele>2875.970703</ele>
<time>2011-04-24T05:55:43Z</time>
<desc>lat.=22.308958, lon.=103.772507, Alt.=2875.970703m. Speed=0.936000m/h.</desc>
<speed>0.260000</speed>
</trkpt>
<trkpt lat="22.308960" lon="103.772514">
<ele>2876.033203</ele>
<time>2011-04-24T05:55:48Z</time>
<desc>lat.=22.308960, lon.=103.772514, Alt.=2876.033203m. Speed=0.792000m/h.</desc>
<speed>0.220000</speed>
</trkpt>
<trkpt lat="22.308962" lon="103.772514">
<ele>2876.095703</ele>
<time>2011-04-24T05:55:53Z</time>
<desc>lat.=22.308962, lon.=103.772514, Alt.=2876.095703m. Speed=0.576000m/h.</desc>
<speed>0.160000</speed>
</trkpt>
<trkpt lat="22.308958" lon="103.772522">
<ele>2876.220703</ele>
<time>2011-04-24T05:55:58Z</time>
<desc>lat.=22.308958, lon.=103.772522, Alt.=2876.220703m. Speed=1.188000m/h.</desc>
<speed>0.330000</speed>
</trkpt>
<trkpt lat="22.308975" lon="103.772499">
<ele>2876.033203</ele>
<time>2011-04-24T05:56:03Z</time>
<desc>lat.=22.308975, lon.=103.772499, Alt.=2876.033203m. Speed=0.468000m/h.</desc>
<speed>0.130000</speed>
</trkpt>
<trkpt lat="22.308977" lon="103.772499">
<ele>2876.158203</ele>
<time>2011-04-24T05:56:08Z</time>
<desc>lat.=22.308977, lon.=103.772499, Alt.=2876.158203m. Speed=0.072000m/h.</desc>
<speed>0.020000</speed>
</trkpt>
<trkpt lat="22.308975" lon="103.772507">
<ele>2876.158203</ele>
<time>2011-04-24T05:56:13Z</time>
<desc>lat.=22.308975, lon.=103.772507, Alt.=2876.158203m. Speed=1.080000m/h.</desc>
<speed>0.300000</speed>
</trkpt>
<trkpt lat="22.308949" lon="103.772476">
<ele>2875.845703</ele>
<time>2011-04-24T05:56:18Z</time>
<desc>lat.=22.308949, lon.=103.772476, Alt.=2875.845703m. Speed=1.368000m/h.</desc>
<speed>0.380000</speed>
</trkpt>
<trkpt lat="22.308962" lon="103.772476">
<ele>2875.470703</ele>
<time>2011-04-24T05:56:23Z</time>
<desc>lat.=22.308962, lon.=103.772476, Alt.=2875.470703m. Speed=0.648000m/h.</desc>
<speed>0.180000</speed>
</trkpt>
<trkpt lat="22.308962" lon="103.772484">
<ele>2875.533203</ele>
<time>2011-04-24T05:56:28Z</time>
<desc>lat.=22.308962, lon.=103.772484, Alt.=2875.533203m. Speed=0.792000m/h.</desc>
<speed>0.220000</speed>
</trkpt>
<trkpt lat="22.308956" lon="103.772491">
<ele>2875.533203</ele>
<time>2011-04-24T05:56:33Z</time>
<desc>lat.=22.308956, lon.=103.772491, Alt.=2875.533203m. Speed=0.720000m/h.</desc>
<speed>0.200000</speed>
</trkpt>
<trkpt lat="22.308949" lon="103.772491">
<ele>2875.595703</ele>
<time>2011-04-24T05:56:38Z</time>
<desc>lat.=22.308949, lon.=103.772491, Alt.=2875.595703m. Speed=0.756000m/h.</desc>
<speed>0.210000</speed>
</trkpt>
<trkpt lat="22.308941" lon="103.772476">
<ele>2875.658203</ele>
<time>2011-04-24T05:56:43Z</time>
<desc>lat.=22.308941, lon.=103.772476, Alt.=2875.658203m. Speed=0.432000m/h.</desc>
<speed>0.120000</speed>
</trkpt>
<trkpt lat="22.308931" lon="103.772476">
<ele>2875.595703</ele>
<time>2011-04-24T05:56:48Z</time>
<desc>lat.=22.308931, lon.=103.772476, Alt.=2875.595703m. Speed=0.396000m/h.</desc>
<speed>0.110000</speed>
</trkpt>
<trkpt lat="22.308931" lon="103.772461">
<ele>2875.908203</ele>
<time>2011-04-24T05:56:53Z</time>
<desc>lat.=22.308931, lon.=103.772461, Alt.=2875.908203m. Speed=0.900000m/h.</desc>
<speed>0.250000</speed>
</trkpt>
<trkpt lat="22.308918" lon="103.772461">
<ele>2875.970703</ele>
<time>2011-04-24T05:56:58Z</time>
<desc>lat.=22.308918, lon.=103.772461, Alt.=2875.970703m. Speed=1.620000m/h.</desc>
<speed>0.450000</speed>
</trkpt>
<trkpt lat="22.308893" lon="103.772469">
<ele>2876.220703</ele>
<time>2011-04-24T05:57:03Z</time>
<desc>lat.=22.308893, lon.=103.772469, Alt.=2876.220703m. Speed=1.764000m/h.</desc>
<speed>0.490000</speed>
</trkpt>
<trkpt lat="22.308867" lon="103.772469">
<ele>2876.533203</ele>
<time>2011-04-24T05:57:08Z</time>
<desc>lat.=22.308867, lon.=103.772469, Alt.=2876.533203m. Speed=1.296000m/h.</desc>
<speed>0.360000</speed>
</trkpt>
<trkpt lat="22.308868" lon="103.772476">
<ele>2876.658203</ele>
<time>2011-04-24T05:57:13Z</time>
<desc>lat.=22.308868, lon.=103.772476, Alt.=2876.658203m. Speed=0.576000m/h.</desc>
<speed>0.160000</speed>
</trkpt>
<trkpt lat="22.308874" lon="103.772484">
<ele>2876.783203</ele>
<time>2011-04-24T05:57:18Z</time>
<desc>lat.=22.308874, lon.=103.772484, Alt.=2876.783203m. Speed=0.288000m/h.</desc>
<speed>0.080000</speed>
</trkpt>
<trkpt lat="22.308876" lon="103.772491">
<ele>2876.845703</ele>
<time>2011-04-24T05:57:23Z</time>
<desc>lat.=22.308876, lon.=103.772491, Alt.=2876.845703m. Speed=0.432000m/h.</desc>
<speed>0.120000</speed>
</trkpt>
<trkpt lat="22.308880" lon="103.772491">
<ele>2876.845703</ele>
<time>2011-04-24T05:57:28Z</time>
<desc>lat.=22.308880, lon.=103.772491, Alt.=2876.845703m. Speed=0.792000m/h.</desc>
<speed>0.220000</speed>
</trkpt>
<trkpt lat="22.308876" lon="103.772484">
<ele>2876.783203</ele>
<time>2011-04-24T05:57:33Z</time>
<desc>lat.=22.308876, lon.=103.772484, Alt.=2876.783203m. Speed=0.828000m/h.</desc>
<speed>0.230000</speed>
</trkpt>
<trkpt lat="22.308887" lon="103.772491">
<ele>2876.783203</ele>
<time>2011-04-24T05:57:38Z</time>
<desc>lat.=22.308887, lon.=103.772491, Alt.=2876.783203m. Speed=0.360000m/h.</desc>
<speed>0.100000</speed>
</trkpt>
<trkpt lat="22.308887" lon="103.772484">
<ele>2876.658203</ele>
<time>2011-04-24T05:57:43Z</time>
<desc>lat.=22.308887, lon.=103.772484, Alt.=2876.658203m. Speed=0.252000m/h.</desc>
<speed>0.070000</speed>
</trkpt>
<trkpt lat="22.308884" lon="103.772484">
<ele>2876.533203</ele>
<time>2011-04-24T05:57:48Z</time>
<desc>lat.=22.308884, lon.=103.772484, Alt.=2876.533203m. Speed=0.792000m/h.</desc>
<speed>0.220000</speed>
</trkpt>
<trkpt lat="22.308878" lon="103.772476">
<ele>2876.470703</ele>
<time>2011-04-24T05:57:53Z</time>
<desc>lat.=22.308878, lon.=103.772476, Alt.=2876.470703m. Speed=0.576000m/h.</desc>
<speed>0.160000</speed>
</trkpt>
<trkpt lat="22.308874" lon="103.772469">
<ele>2876.408203</ele>
<time>2011-04-24T05:57:58Z</time>
<desc>lat.=22.308874, lon.=103.772469, Alt.=2876.408203m. Speed=0.108000m/h.</desc>
<speed>0.030000</speed>
</trkpt>
<trkpt lat="22.308874" lon="103.772469">
<ele>2876.533203</ele>
<time>2011-04-24T05:58:03Z</time>
<desc>lat.=22.308874, lon.=103.772469, Alt.=2876.533203m. Speed=0.468000m/h.</desc>
<speed>0.130000</speed>
</trkpt>
<trkpt lat="22.308887" lon="103.772446">
<ele>2875.720703</ele>
<time>2011-04-24T05:58:08Z</time>
<desc>lat.=22.308887, lon.=103.772446, Alt.=2875.720703m. Speed=0.612000m/h.</desc>
<speed>0.170000</speed>
</trkpt>
<trkpt lat="22.308891" lon="103.772446">
<ele>2875.783203</ele>
<time>2011-04-24T05:58:13Z</time>
<desc>lat.=22.308891, lon.=103.772446, Alt.=2875.783203m. Speed=0.720000m/h.</desc>
<speed>0.200000</speed>
</trkpt>
<trkpt lat="22.308929" lon="103.772430">
<ele>2874.595703</ele>
<time>2011-04-24T05:58:18Z</time>
<desc>lat.=22.308929, lon.=103.772430, Alt.=2874.595703m. Speed=2.808000m/h.</desc>
<speed>0.780000</speed>
</trkpt>
<trkpt lat="22.308941" lon="103.772476">
<ele>2874.970703</ele>
<time>2011-04-24T05:58:23Z</time>
<desc>lat.=22.308941, lon.=103.772476, Alt.=2874.970703m. Speed=0.144000m/h.</desc>
<speed>0.040000</speed>
</trkpt>
<trkpt lat="22.308939" lon="103.772514">
<ele>2874.595703</ele>
<time>2011-04-24T05:58:28Z</time>
<desc>lat.=22.308939, lon.=103.772514, Alt.=2874.595703m. Speed=2.448000m/h.</desc>
<speed>0.680000</speed>
</trkpt>
<trkpt lat="22.308954" lon="103.772507">
<ele>2873.970703</ele>
<time>2011-04-24T05:58:33Z</time>
<desc>lat.=22.308954, lon.=103.772507, Alt.=2873.970703m. Speed=2.016000m/h.</desc>
<speed>0.560000</speed>
</trkpt>
<trkpt lat="22.308960" lon="103.772522">
<ele>2874.220703</ele>
<time>2011-04-24T05:58:38Z</time>
<desc>lat.=22.308960, lon.=103.772522, Alt.=2874.220703m. Speed=0.360000m/h.</desc>
<speed>0.100000</speed>
</trkpt>
<trkpt lat="22.308971" lon="103.772522">
<ele>2873.908203</ele>
<time>2011-04-24T05:58:43Z</time>
<desc>lat.=22.308971, lon.=103.772522, Alt.=2873.908203m. Speed=1.296000m/h.</desc>
<speed>0.360000</speed>
</trkpt>
<trkpt lat="22.309002" lon="103.772507">
<ele>2874.220703</ele>
<time>2011-04-24T05:58:48Z</time>
<desc>lat.=22.309002, lon.=103.772507, Alt.=2874.220703m. Speed=1.008000m/h.</desc>
<speed>0.280000</speed>
</trkpt>
<trkpt lat="22.309027" lon="103.772499">
<ele>2873.970703</ele>
<time>2011-04-24T05:58:53Z</time>
<desc>lat.=22.309027, lon.=103.772499, Alt.=2873.970703m. Speed=1.980000m/h.</desc>
<speed>0.550000</speed>
</trkpt>
<trkpt lat="22.309036" lon="103.772522">
<ele>2873.908203</ele>
<time>2011-04-24T05:58:58Z</time>
<desc>lat.=22.309036, lon.=103.772522, Alt.=2873.908203m. Speed=0.864000m/h.</desc>
<speed>0.240000</speed>
</trkpt>
<trkpt lat="22.309042" lon="103.772545">
<ele>2875.720703</ele>
<time>2011-04-24T05:59:03Z</time>
<desc>lat.=22.309042, lon.=103.772545, Alt.=2875.720703m. Speed=0.576000m/h.</desc>
<speed>0.160000</speed>
</trkpt>
<trkpt lat="22.309038" lon="103.772568">
<ele>2874.595703</ele>
<time>2011-04-24T05:59:08Z</time>
<desc>lat.=22.309038, lon.=103.772568, Alt.=2874.595703m. Speed=0.900000m/h.</desc>
<speed>0.250000</speed>
</trkpt>
<trkpt lat="22.309052" lon="103.772575">
<ele>2875.283203</ele>
<time>2011-04-24T05:59:13Z</time>
<desc>lat.=22.309052, lon.=103.772575, Alt.=2875.283203m. Speed=0.432000m/h.</desc>
<speed>0.120000</speed>
</trkpt>
<trkpt lat="22.309053" lon="103.772583">
<ele>2875.470703</ele>
<time>2011-04-24T05:59:18Z</time>
<desc>lat.=22.309053, lon.=103.772583, Alt.=2875.470703m. Speed=0.720000m/h.</desc>
<speed>0.200000</speed>
</trkpt>
<trkpt lat="22.309063" lon="103.772583">
<ele>2875.033203</ele>
<time>2011-04-24T05:59:23Z</time>
<desc>lat.=22.309063, lon.=103.772583, Alt.=2875.033203m. Speed=0.828000m/h.</desc>
<speed>0.230000</speed>
</trkpt>
<trkpt lat="22.309080" lon="103.772568">
<ele>2873.345703</ele>
<time>2011-04-24T05:59:28Z</time>
<desc>lat.=22.309080, lon.=103.772568, Alt.=2873.345703m. Speed=1.908000m/h.</desc>
<speed>0.530000</speed>
</trkpt>
<trkpt lat="22.309099" lon="103.772560">
<ele>2871.783203</ele>
<time>2011-04-24T05:59:33Z</time>
<desc>lat.=22.309099, lon.=103.772560, Alt.=2871.783203m. Speed=1.692000m/h.</desc>
<speed>0.470000</speed>
</trkpt>
<trkpt lat="22.309093" lon="103.772522">
<ele>2871.783203</ele>
<time>2011-04-24T05:59:38Z</time>
<desc>lat.=22.309093, lon.=103.772522, Alt.=2871.783203m. Speed=1.044000m/h.</desc>
<speed>0.290000</speed>
</trkpt>
<trkpt lat="22.309097" lon="103.772522">
<ele>2872.033203</ele>
<time>2011-04-24T05:59:43Z</time>
<desc>lat.=22.309097, lon.=103.772522, Alt.=2872.033203m. Speed=0.900000m/h.</desc>
<speed>0.250000</speed>
</trkpt>
<trkpt lat="22.309105" lon="103.772530">
<ele>2872.220703</ele>
<time>2011-04-24T05:59:48Z</time>
<desc>lat.=22.309105, lon.=103.772530, Alt.=2872.220703m. Speed=0.288000m/h.</desc>
<speed>0.080000</speed>
</trkpt>
<trkpt lat="22.309105" lon="103.772530">
<ele>2872.283203</ele>
<time>2011-04-24T05:59:53Z</time>
<desc>lat.=22.309105, lon.=103.772530, Alt.=2872.283203m. Speed=0.468000m/h.</desc>
<speed>0.130000</speed>
</trkpt>
<trkpt lat="22.309109" lon="103.772530">
<ele>2872.345703</ele>
<time>2011-04-24T05:59:58Z</time>
<desc>lat.=22.309109, lon.=103.772530, Alt.=2872.345703m. Speed=1.152000m/h.</desc>
<speed>0.320000</speed>
</trkpt>
<trkpt lat="22.309107" lon="103.772537">
<ele>2873.408203</ele>
<time>2011-04-24T06:00:03Z</time>
<desc>lat.=22.309107, lon.=103.772537, Alt.=2873.408203m. Speed=0.828000m/h.</desc>
<speed>0.230000</speed>
</trkpt>
<trkpt lat="22.309097" lon="103.772537">
<ele>2873.220703</ele>
<time>2011-04-24T06:00:08Z</time>
<desc>lat.=22.309097, lon.=103.772537, Alt.=2873.220703m. Speed=1.476000m/h.</desc>
<speed>0.410000</speed>
</trkpt>
<trkpt lat="22.309111" lon="103.772552">
<ele>2872.845703</ele>
<time>2011-04-24T06:00:13Z</time>
<desc>lat.=22.309111, lon.=103.772552, Alt.=2872.845703m. Speed=0.756000m/h.</desc>
<speed>0.210000</speed>
</trkpt>
<trkpt lat="22.309099" lon="103.772537">
<ele>2872.595703</ele>
<time>2011-04-24T06:00:18Z</time>
<desc>lat.=22.309099, lon.=103.772537, Alt.=2872.595703m. Speed=1.908000m/h.</desc>
<speed>0.530000</speed>
</trkpt>
<trkpt lat="22.309092" lon="103.772537">
<ele>2872.033203</ele>
<time>2011-04-24T06:00:23Z</time>
<desc>lat.=22.309092, lon.=103.772537, Alt.=2872.033203m. Speed=1.332000m/h.</desc>
<speed>0.370000</speed>
</trkpt>
<trkpt lat="22.309097" lon="103.772530">
<ele>2872.345703</ele>
<time>2011-04-24T06:00:28Z</time>
<desc>lat.=22.309097, lon.=103.772530, Alt.=2872.345703m. Speed=1.764000m/h.</desc>
<speed>0.490000</speed>
</trkpt>
<trkpt lat="22.309101" lon="103.772537">
<ele>2872.095703</ele>
<time>2011-04-24T06:00:33Z</time>
<desc>lat.=22.309101, lon.=103.772537, Alt.=2872.095703m. Speed=0.252000m/h.</desc>
<speed>0.070000</speed>
</trkpt>
<trkpt lat="22.309109" lon="103.772552">
<ele>2871.783203</ele>
<time>2011-04-24T06:00:38Z</time>
<desc>lat.=22.309109, lon.=103.772552, Alt.=2871.783203m. Speed=1.440000m/h.</desc>
<speed>0.400000</speed>
</trkpt>
<trkpt lat="22.309120" lon="103.772552">
<ele>2871.158203</ele>
<time>2011-04-24T06:00:43Z</time>
<desc>lat.=22.309120, lon.=103.772552, Alt.=2871.158203m. Speed=2.592000m/h.</desc>
<speed>0.720000</speed>
</trkpt>
<trkpt lat="22.309137" lon="103.772568">
<ele>2870.908203</ele>
<time>2011-04-24T06:00:48Z</time>
<desc>lat.=22.309137, lon.=103.772568, Alt.=2870.908203m. Speed=1.224000m/h.</desc>
<speed>0.340000</speed>
</trkpt>
<trkpt lat="22.309162" lon="103.772537">
<ele>2870.970703</ele>
<time>2011-04-24T06:00:53Z</time>
<desc>lat.=22.309162, lon.=103.772537, Alt.=2870.970703m. Speed=1.692000m/h.</desc>
<speed>0.470000</speed>
</trkpt>
<trkpt lat="22.309179" lon="103.772530">
<ele>2870.908203</ele>
<time>2011-04-24T06:00:58Z</time>
<desc>lat.=22.309179, lon.=103.772530, Alt.=2870.908203m. Speed=1.404000m/h.</desc>
<speed>0.390000</speed>
</trkpt>
<trkpt lat="22.309195" lon="103.772514">
<ele>2870.658203</ele>
<time>2011-04-24T06:01:03Z</time>
<desc>lat.=22.309195, lon.=103.772514, Alt.=2870.658203m. Speed=1.296000m/h.</desc>
<speed>0.360000</speed>
</trkpt>
<trkpt lat="22.309196" lon="103.772491">
<ele>2870.783203</ele>
<time>2011-04-24T06:01:08Z</time>
<desc>lat.=22.309196, lon.=103.772491, Alt.=2870.783203m. Speed=1.908000m/h.</desc>
<speed>0.530000</speed>
</trkpt>
<trkpt lat="22.309193" lon="103.772446">
<ele>2870.845703</ele>
<time>2011-04-24T06:01:13Z</time>
<desc>lat.=22.309193, lon.=103.772446, Alt.=2870.845703m. Speed=2.628000m/h.</desc>
<speed>0.730000</speed>
</trkpt>
<trkpt lat="22.309217" lon="103.772377">
<ele>2870.908203</ele>
<time>2011-04-24T06:01:18Z</time>
<desc>lat.=22.309217, lon.=103.772377, Alt.=2870.908203m. Speed=3.888000m/h.</desc>
<speed>1.080000</speed>
</trkpt>
<trkpt lat="22.309223" lon="103.772346">
<ele>2870.345703</ele>
<time>2011-04-24T06:01:23Z</time>
<desc>lat.=22.309223, lon.=103.772346, Alt.=2870.345703m. Speed=2.700000m/h.</desc>
<speed>0.750000</speed>
</trkpt>
<trkpt lat="22.309198" lon="103.772324">
<ele>2869.908203</ele>
<time>2011-04-24T06:01:28Z</time>
<desc>lat.=22.309198, lon.=103.772324, Alt.=2869.908203m. Speed=2.196000m/h.</desc>
<speed>0.610000</speed>
</trkpt>
<trkpt lat="22.309210" lon="103.772301">
<ele>2869.720703</ele>
<time>2011-04-24T06:01:33Z</time>
<desc>lat.=22.309210, lon.=103.772301, Alt.=2869.720703m. Speed=2.448000m/h.</desc>
<speed>0.680000</speed>
</trkpt>
<trkpt lat="22.309208" lon="103.772240">
<ele>2869.658203</ele>
<time>2011-04-24T06:01:38Z</time>
<desc>lat.=22.309208, lon.=103.772240, Alt.=2869.658203m. Speed=4.176000m/h.</desc>
<speed>1.160000</speed>
</trkpt>
<trkpt lat="22.309223" lon="103.772217">
<ele>2869.658203</ele>
<time>2011-04-24T06:01:43Z</time>
<desc>lat.=22.309223, lon.=103.772217, Alt.=2869.658203m. Speed=3.312000m/h.</desc>
<speed>0.920000</speed>
</trkpt>
<trkpt lat="22.309248" lon="103.772202">
<ele>2869.283203</ele>
<time>2011-04-24T06:01:48Z</time>
<desc>lat.=22.309248, lon.=103.772202, Alt.=2869.283203m. Speed=2.592000m/h.</desc>
<speed>0.720000</speed>
</trkpt>
<trkpt lat="22.309315" lon="103.772217">
<ele>2868.908203</ele>
<time>2011-04-24T06:01:53Z</time>
<desc>lat.=22.309315, lon.=103.772217, Alt.=2868.908203m. Speed=1.944000m/h.</desc>
<speed>0.540000</speed>
</trkpt>
<trkpt lat="22.309330" lon="103.772232">
<ele>2868.720703</ele>
<time>2011-04-24T06:01:58Z</time>
<desc>lat.=22.309330, lon.=103.772232, Alt.=2868.720703m. Speed=0.972000m/h.</desc>
<speed>0.270000</speed>
</trkpt>
<trkpt lat="22.309341" lon="103.772209">
<ele>2868.408203</ele>
<time>2011-04-24T06:02:03Z</time>
<desc>lat.=22.309341, lon.=103.772209, Alt.=2868.408203m. Speed=1.800000m/h.</desc>
<speed>0.500000</speed>
</trkpt>
<trkpt lat="22.309343" lon="103.772186">
<ele>2868.783203</ele>
<time>2011-04-24T06:02:08Z</time>
<desc>lat.=22.309343, lon.=103.772186, Alt.=2868.783203m. Speed=1.080000m/h.</desc>
<speed>0.300000</speed>
</trkpt>
<trkpt lat="22.309290" lon="103.772194">
<ele>2868.470703</ele>
<time>2011-04-24T06:02:13Z</time>
<desc>lat.=22.309290, lon.=103.772194, Alt.=2868.470703m. Speed=1.872000m/h.</desc>
<speed>0.520000</speed>
</trkpt>
<trkpt lat="22.309315" lon="103.772240">
<ele>2868.970703</ele>
<time>2011-04-24T06:02:18Z</time>
<desc>lat.=22.309315, lon.=103.772240, Alt.=2868.970703m. Speed=0.396000m/h.</desc>
<speed>0.110000</speed>
</trkpt>
<trkpt lat="22.309332" lon="103.772285">
<ele>2869.408203</ele>
<time>2011-04-24T06:02:23Z</time>
<desc>lat.=22.309332, lon.=103.772285, Alt.=2869.408203m. Speed=2.016000m/h.</desc>
<speed>0.560000</speed>
</trkpt>
<trkpt lat="22.309298" lon="103.772285">
<ele>2870.970703</ele>
<time>2011-04-24T06:02:28Z</time>
<desc>lat.=22.309298, lon.=103.772285, Alt.=2870.970703m. Speed=1.368000m/h.</desc>
<speed>0.380000</speed>
</trkpt>
<trkpt lat="22.309340" lon="103.772285">
<ele>2872.033203</ele>
<time>2011-04-24T06:02:33Z</time>
<desc>lat.=22.309340, lon.=103.772285, Alt.=2872.033203m. Speed=5.148000m/h.</desc>
<speed>1.430000</speed>
</trkpt>
<trkpt lat="22.309370" lon="103.772263">
<ele>2873.595703</ele>
<time>2011-04-24T06:02:38Z</time>
<desc>lat.=22.309370, lon.=103.772263, Alt.=2873.595703m. Speed=0.360000m/h.</desc>
<speed>0.100000</speed>
</trkpt>
<trkpt lat="22.309401" lon="103.772263">
<ele>2874.220703</ele>
<time>2011-04-24T06:02:43Z</time>
<desc>lat.=22.309401, lon.=103.772263, Alt.=2874.220703m. Speed=1.332000m/h.</desc>
<speed>0.370000</speed>
</trkpt>
<trkpt lat="22.309443" lon="103.772232">
<ele>2874.908203</ele>
<time>2011-04-24T06:02:48Z</time>
<desc>lat.=22.309443, lon.=103.772232, Alt.=2874.908203m. Speed=2.556000m/h.</desc>
<speed>0.710000</speed>
</trkpt>
<trkpt lat="22.309465" lon="103.772186">
<ele>2875.533203</ele>
<time>2011-04-24T06:02:53Z</time>
<desc>lat.=22.309465, lon.=103.772186, Alt.=2875.533203m. Speed=3.132000m/h.</desc>
<speed>0.870000</speed>
</trkpt>
<trkpt lat="22.309519" lon="103.772148">
<ele>2875.908203</ele>
<time>2011-04-24T06:02:58Z</time>
<desc>lat.=22.309519, lon.=103.772148, Alt.=2875.908203m. Speed=3.384000m/h.</desc>
<speed>0.940000</speed>
</trkpt>
<trkpt lat="22.309534" lon="103.772133">
<ele>2876.033203</ele>
<time>2011-04-24T06:03:03Z</time>
<desc>lat.=22.309534, lon.=103.772133, Alt.=2876.033203m. Speed=2.304000m/h.</desc>
<speed>0.640000</speed>
</trkpt>
<trkpt lat="22.309546" lon="103.772102">
<ele>2876.408203</ele>
<time>2011-04-24T06:03:08Z</time>
<desc>lat.=22.309546, lon.=103.772102, Alt.=2876.408203m. Speed=2.556000m/h.</desc>
<speed>0.710000</speed>
</trkpt>
<trkpt lat="22.309517" lon="103.772064">
<ele>2876.970703</ele>
<time>2011-04-24T06:03:13Z</time>
<desc>lat.=22.309517, lon.=103.772064, Alt.=2876.970703m. Speed=2.304000m/h.</desc>
<speed>0.640000</speed>
</trkpt>
<trkpt lat="22.309553" lon="103.772041">
<ele>2877.220703</ele>
<time>2011-04-24T06:03:18Z</time>
<desc>lat.=22.309553, lon.=103.772041, Alt.=2877.220703m. Speed=2.412000m/h.</desc>
<speed>0.670000</speed>
</trkpt>
<trkpt lat="22.309580" lon="103.772026">
<ele>2876.720703</ele>
<time>2011-04-24T06:03:23Z</time>
<desc>lat.=22.309580, lon.=103.772026, Alt.=2876.720703m. Speed=1.260000m/h.</desc>
<speed>0.350000</speed>
</trkpt>
<trkpt lat="22.309597" lon="103.771988">
<ele>2876.033203</ele>
<time>2011-04-24T06:03:28Z</time>
<desc>lat.=22.309597, lon.=103.771988, Alt.=2876.033203m. Speed=2.124000m/h.</desc>
<speed>0.590000</speed>
</trkpt>
<trkpt lat="22.309591" lon="103.771980">
<ele>2876.158203</ele>
<time>2011-04-24T06:03:33Z</time>
<desc>lat.=22.309591, lon.=103.771980, Alt.=2876.158203m. Speed=0.756000m/h.</desc>
<speed>0.210000</speed>
</trkpt>
<trkpt lat="22.309610" lon="103.771980">
<ele>2876.033203</ele>
<time>2011-04-24T06:03:38Z</time>
<desc>lat.=22.309610, lon.=103.771980, Alt.=2876.033203m. Speed=1.080000m/h.</desc>
<speed>0.300000</speed>
</trkpt>
<trkpt lat="22.309574" lon="103.771912">
<ele>2876.658203</ele>
<time>2011-04-24T06:03:43Z</time>
<desc>lat.=22.309574, lon.=103.771912, Alt.=2876.658203m. Speed=1.332000m/h.</desc>
<speed>0.370000</speed>
</trkpt>
<trkpt lat="22.309597" lon="103.771881">
<ele>2876.970703</ele>
<time>2011-04-24T06:03:48Z</time>
<desc>lat.=22.309597, lon.=103.771881, Alt.=2876.970703m. Speed=1.980000m/h.</desc>
<speed>0.550000</speed>
</trkpt>
<trkpt lat="22.309633" lon="103.771858">
<ele>2877.783203</ele>
<time>2011-04-24T06:03:53Z</time>
<desc>lat.=22.309633, lon.=103.771858, Alt.=2877.783203m. Speed=2.268000m/h.</desc>
<speed>0.630000</speed>
</trkpt>
<trkpt lat="22.309622" lon="103.771866">
<ele>2877.845703</ele>
<time>2011-04-24T06:03:58Z</time>
<desc>lat.=22.309622, lon.=103.771866, Alt.=2877.845703m. Speed=0.900000m/h.</desc>
<speed>0.250000</speed>
</trkpt>
<trkpt lat="22.309626" lon="103.771843">
<ele>2877.345703</ele>
<time>2011-04-24T06:04:03Z</time>
<desc>lat.=22.309626, lon.=103.771843, Alt.=2877.345703m. Speed=0.684000m/h.</desc>
<speed>0.190000</speed>
</trkpt>
<trkpt lat="22.309626" lon="103.771835">
<ele>2877.783203</ele>
<time>2011-04-24T06:04:08Z</time>
<desc>lat.=22.309626, lon.=103.771835, Alt.=2877.783203m. Speed=1.980000m/h.</desc>
<speed>0.550000</speed>
</trkpt>
<trkpt lat="22.309658" lon="103.771858">
<ele>2878.720703</ele>
<time>2011-04-24T06:04:13Z</time>
<desc>lat.=22.309658, lon.=103.771858, Alt.=2878.720703m. Speed=1.764000m/h.</desc>
<speed>0.490000</speed>
</trkpt>
<trkpt lat="22.309664" lon="103.771797">
<ele>2879.095703</ele>
<time>2011-04-24T06:04:18Z</time>
<desc>lat.=22.309664, lon.=103.771797, Alt.=2879.095703m. Speed=2.304000m/h.</desc>
<speed>0.640000</speed>
</trkpt>
<trkpt lat="22.309669" lon="103.771774">
<ele>2879.658203</ele>
<time>2011-04-24T06:04:23Z</time>
<desc>lat.=22.309669, lon.=103.771774, Alt.=2879.658203m. Speed=1.800000m/h.</desc>
<speed>0.500000</speed>
</trkpt>
<trkpt lat="22.309641" lon="103.771729">
<ele>2879.908203</ele>
<time>2011-04-24T06:04:28Z</time>
<desc>lat.=22.309641, lon.=103.771729, Alt.=2879.908203m. Speed=2.628000m/h.</desc>
<speed>0.730000</speed>
</trkpt>
<trkpt lat="22.309664" lon="103.771706">
<ele>2880.970703</ele>
<time>2011-04-24T06:04:33Z</time>
<desc>lat.=22.309664, lon.=103.771706, Alt.=2880.970703m. Speed=2.484000m/h.</desc>
<speed>0.690000</speed>
</trkpt>
<trkpt lat="22.309713" lon="103.771698">
<ele>2882.283203</ele>
<time>2011-04-24T06:04:38Z</time>
<desc>lat.=22.309713, lon.=103.771698, Alt.=2882.283203m. Speed=3.204000m/h.</desc>
<speed>0.890000</speed>
</trkpt>
<trkpt lat="22.309759" lon="103.771713">
<ele>2882.908203</ele>
<time>2011-04-24T06:04:43Z</time>
<desc>lat.=22.309759, lon.=103.771713, Alt.=2882.908203m. Speed=2.556000m/h.</desc>
<speed>0.710000</speed>
</trkpt>
<trkpt lat="22.309870" lon="103.771851">
<ele>2885.658203</ele>
<time>2011-04-24T06:04:48Z</time>
<desc>lat.=22.309870, lon.=103.771851, Alt.=2885.658203m. Speed=3.168000m/h.</desc>
<speed>0.880000</speed>
</trkpt>
<trkpt lat="22.309944" lon="103.771889">
<ele>2886.658203</ele>
<time>2011-04-24T06:04:53Z</time>
<desc>lat.=22.309944, lon.=103.771889, Alt.=2886.658203m. Speed=3.564000m/h.</desc>
<speed>0.990000</speed>
</trkpt>
<trkpt lat="22.309965" lon="103.771904">
<ele>2888.283203</ele>
<time>2011-04-24T06:04:58Z</time>
<desc>lat.=22.309965, lon.=103.771904, Alt.=2888.283203m. Speed=2.412000m/h.</desc>
<speed>0.670000</speed>
</trkpt>
<trkpt lat="22.309984" lon="103.771912">
<ele>2889.658203</ele>
<time>2011-04-24T06:05:03Z</time>
<desc>lat.=22.309984, lon.=103.771912, Alt.=2889.658203m. Speed=2.556000m/h.</desc>
<speed>0.710000</speed>
</trkpt>
<trkpt lat="22.309984" lon="103.771858">
<ele>2891.533203</ele>
<time>2011-04-24T06:05:08Z</time>
<desc>lat.=22.309984, lon.=103.771858, Alt.=2891.533203m. Speed=1.512000m/h.</desc>
<speed>0.420000</speed>
</trkpt>
<trkpt lat="22.310026" lon="103.771866">
<ele>2893.595703</ele>
<time>2011-04-24T06:05:13Z</time>
<desc>lat.=22.310026, lon.=103.771866, Alt.=2893.595703m. Speed=1.548000m/h.</desc>
<speed>0.430000</speed>
</trkpt>
<trkpt lat="22.310047" lon="103.771843">
<ele>2894.908203</ele>
<time>2011-04-24T06:05:18Z</time>
<desc>lat.=22.310047, lon.=103.771843, Alt.=2894.908203m. Speed=1.404000m/h.</desc>
<speed>0.390000</speed>
</trkpt>
<trkpt lat="22.310047" lon="103.771820">
<ele>2895.658203</ele>
<time>2011-04-24T06:05:23Z</time>
<desc>lat.=22.310047, lon.=103.771820, Alt.=2895.658203m. Speed=1.620000m/h.</desc>
<speed>0.450000</speed>
</trkpt>
<trkpt lat="22.309971" lon="103.771851">
<ele>2897.158203</ele>
<time>2011-04-24T06:05:28Z</time>
<desc>lat.=22.309971, lon.=103.771851, Alt.=2897.158203m. Speed=1.368000m/h.</desc>
<speed>0.380000</speed>
</trkpt>
<trkpt lat="22.309967" lon="103.771873">
<ele>2897.845703</ele>
<time>2011-04-24T06:05:33Z</time>
<desc>lat.=22.309967, lon.=103.771873, Alt.=2897.845703m. Speed=0.936000m/h.</desc>
<speed>0.260000</speed>
</trkpt>
<trkpt lat="22.309952" lon="103.771858">
<ele>2897.658203</ele>
<time>2011-04-24T06:05:38Z</time>
<desc>lat.=22.309952, lon.=103.771858, Alt.=2897.658203m. Speed=0.972000m/h.</desc>
<speed>0.270000</speed>
</trkpt>
<trkpt lat="22.309956" lon="103.771873">
<ele>2898.595703</ele>
<time>2011-04-24T06:05:43Z</time>
<desc>lat.=22.309956, lon.=103.771873, Alt.=2898.595703m. Speed=0.324000m/h.</desc>
<speed>0.090000</speed>
</trkpt>
<trkpt lat="22.309961" lon="103.771866">
<ele>2898.720703</ele>
<time>2011-04-24T06:05:48Z</time>
<desc>lat.=22.309961, lon.=103.771866, Alt.=2898.720703m. Speed=1.728000m/h.</desc>
<speed>0.480000</speed>
</trkpt>
<trkpt lat="22.309967" lon="103.771858">
<ele>2898.720703</ele>
<time>2011-04-24T06:05:53Z</time>
<desc>lat.=22.309967, lon.=103.771858, Alt.=2898.720703m. Speed=0.720000m/h.</desc>
<speed>0.200000</speed>
</trkpt>
<trkpt lat="22.309973" lon="103.771843">
<ele>2898.533203</ele>
<time>2011-04-24T06:05:58Z</time>
<desc>lat.=22.309973, lon.=103.771843, Alt.=2898.533203m. Speed=0.864000m/h.</desc>
<speed>0.240000</speed>
</trkpt>
<trkpt lat="22.309969" lon="103.771828">
<ele>2898.595703</ele>
<time>2011-04-24T06:06:03Z</time>
<desc>lat.=22.309969, lon.=103.771828, Alt.=2898.595703m. Speed=0.864000m/h.</desc>
<speed>0.240000</speed>
</trkpt>
<trkpt lat="22.309990" lon="103.771820">
<ele>2898.720703</ele>
<time>2011-04-24T06:06:08Z</time>
<desc>lat.=22.309990, lon.=103.771820, Alt.=2898.720703m. Speed=0.756000m/h.</desc>
<speed>0.210000</speed>
</trkpt>
<trkpt lat="22.309996" lon="103.771812">
<ele>2898.720703</ele>
<time>2011-04-24T06:06:13Z</time>
<desc>lat.=22.309996, lon.=103.771812, Alt.=2898.720703m. Speed=0.324000m/h.</desc>
<speed>0.090000</speed>
</trkpt>
<trkpt lat="22.310001" lon="103.771812">
<ele>2898.720703</ele>
<time>2011-04-24T06:06:18Z</time>
<desc>lat.=22.310001, lon.=103.771812, Alt.=2898.720703m. Speed=0.324000m/h.</desc>
<speed>0.090000</speed>
</trkpt>
<trkpt lat="22.310003" lon="103.771812">
<ele>2898.720703</ele>
<time>2011-04-24T06:06:23Z</time>
<desc>lat.=22.310003, lon.=103.771812, Alt.=2898.720703m. Speed=0.648000m/h.</desc>
<speed>0.180000</speed>
</trkpt>
<trkpt lat="22.309984" lon="103.771805">
<ele>2898.720703</ele>
<time>2011-04-24T06:06:28Z</time>
<desc>lat.=22.309984, lon.=103.771805, Alt.=2898.720703m. Speed=0.684000m/h.</desc>
<speed>0.190000</speed>
</trkpt>
<trkpt lat="22.309988" lon="103.771790">
<ele>2899.033203</ele>
<time>2011-04-24T06:06:33Z</time>
<desc>lat.=22.309988, lon.=103.771790, Alt.=2899.033203m. Speed=0.720000m/h.</desc>
<speed>0.200000</speed>
</trkpt>
<trkpt lat="22.309988" lon="103.771759">
<ele>2899.845703</ele>
<time>2011-04-24T06:06:38Z</time>
<desc>lat.=22.309988, lon.=103.771759, Alt.=2899.845703m. Speed=1.728000m/h.</desc>
<speed>0.480000</speed>
</trkpt>
<trkpt lat="22.310019" lon="103.771729">
<ele>2900.533203</ele>
<time>2011-04-24T06:06:43Z</time>
<desc>lat.=22.310019, lon.=103.771729, Alt.=2900.533203m. Speed=0.972000m/h.</desc>
<speed>0.270000</speed>
</trkpt>
<trkpt lat="22.310062" lon="103.771736">
<ele>2901.783203</ele>
<time>2011-04-24T06:06:48Z</time>
<desc>lat.=22.310062, lon.=103.771736, Alt.=2901.783203m. Speed=1.008000m/h.</desc>
<speed>0.280000</speed>
</trkpt>
<trkpt lat="22.310076" lon="103.771713">
<ele>2902.345703</ele>
<time>2011-04-24T06:06:53Z</time>
<desc>lat.=22.310076, lon.=103.771713, Alt.=2902.345703m. Speed=0.648000m/h.</desc>
<speed>0.180000</speed>
</trkpt>
<trkpt lat="22.310110" lon="103.771721">
<ele>2902.658203</ele>
<time>2011-04-24T06:06:58Z</time>
<desc>lat.=22.310110, lon.=103.771721, Alt.=2902.658203m. Speed=2.988000m/h.</desc>
<speed>0.830000</speed>
</trkpt>
<trkpt lat="22.310120" lon="103.771736">
<ele>2904.533203</ele>
<time>2011-04-24T06:07:03Z</time>
<desc>lat.=22.310120, lon.=103.771736, Alt.=2904.533203m. Speed=1.260000m/h.</desc>
<speed>0.350000</speed>
</trkpt>
<trkpt lat="22.310135" lon="103.771767">
<ele>2908.283203</ele>
<time>2011-04-24T06:07:08Z</time>
<desc>lat.=22.310135, lon.=103.771767, Alt.=2908.283203m. Speed=0.576000m/h.</desc>
<speed>0.160000</speed>
</trkpt>
<trkpt lat="22.310120" lon="103.771751">
<ele>2909.533203</ele>
<time>2011-04-24T06:07:13Z</time>
<desc>lat.=22.310120, lon.=103.771751, Alt.=2909.533203m. Speed=0.972000m/h.</desc>
<speed>0.270000</speed>
</trkpt>
<trkpt lat="22.310116" lon="103.771698">
<ele>2911.220703</ele>
<time>2011-04-24T06:07:18Z</time>
<desc>lat.=22.310116, lon.=103.771698, Alt.=2911.220703m. Speed=3.312000m/h.</desc>
<speed>0.920000</speed>
</trkpt>
<trkpt lat="22.310141" lon="103.771660">
<ele>2916.220703</ele>
<time>2011-04-24T06:07:23Z</time>
<desc>lat.=22.310141, lon.=103.771660, Alt.=2916.220703m. Speed=3.132000m/h.</desc>
<speed>0.870000</speed>
</trkpt>
<trkpt lat="22.310150" lon="103.771622">
<ele>2918.283203</ele>
<time>2011-04-24T06:07:28Z</time>
<desc>lat.=22.310150, lon.=103.771622, Alt.=2918.283203m. Speed=2.520000m/h.</desc>
<speed>0.700000</speed>
</trkpt>
<trkpt lat="22.310150" lon="103.771568">
<ele>2920.845703</ele>
<time>2011-04-24T06:07:33Z</time>
<desc>lat.=22.310150, lon.=103.771568, Alt.=2920.845703m. Speed=3.096000m/h.</desc>
<speed>0.860000</speed>
</trkpt>
<trkpt lat="22.310150" lon="103.771538">
<ele>2922.220703</ele>
<time>2011-04-24T06:07:38Z</time>
<desc>lat.=22.310150, lon.=103.771538, Alt.=2922.220703m. Speed=2.412000m/h.</desc>
<speed>0.670000</speed>
</trkpt>
<trkpt lat="22.310163" lon="103.771492">
<ele>2923.033203</ele>
<time>2011-04-24T06:07:43Z</time>
<desc>lat.=22.310163, lon.=103.771492, Alt.=2923.033203m. Speed=2.448000m/h.</desc>
<speed>0.680000</speed>
</trkpt>
<trkpt lat="22.310167" lon="103.771446">
<ele>2923.783203</ele>
<time>2011-04-24T06:07:48Z</time>
<desc>lat.=22.310167, lon.=103.771446, Alt.=2923.783203m. Speed=2.520000m/h.</desc>
<speed>0.700000</speed>
</trkpt>
<trkpt lat="22.310135" lon="103.771355">
<ele>2925.283203</ele>
<time>2011-04-24T06:07:53Z</time>
<desc>lat.=22.310135, lon.=103.771355, Alt.=2925.283203m. Speed=4.680000m/h.</desc>
<speed>1.300000</speed>
</trkpt>
<trkpt lat="22.310165" lon="103.771286">
<ele>2928.595703</ele>
<time>2011-04-24T06:07:58Z</time>
<desc>lat.=22.310165, lon.=103.771286, Alt.=2928.595703m. Speed=4.392000m/h.</desc>
<speed>1.220000</speed>
</trkpt>
<trkpt lat="22.310163" lon="103.771248">
<ele>2931.408203</ele>
<time>2011-04-24T06:08:03Z</time>
<desc>lat.=22.310163, lon.=103.771248, Alt.=2931.408203m. Speed=2.196000m/h.</desc>
<speed>0.610000</speed>
</trkpt>
<trkpt lat="22.310154" lon="103.771202">
<ele>2933.970703</ele>
<time>2011-04-24T06:08:08Z</time>
<desc>lat.=22.310154, lon.=103.771202, Alt.=2933.970703m. Speed=4.716000m/h.</desc>
<speed>1.310000</speed>
</trkpt>
<trkpt lat="22.310129" lon="103.771156">
<ele>2936.095703</ele>
<time>2011-04-24T06:08:13Z</time>
<desc>lat.=22.310129, lon.=103.771156, Alt.=2936.095703m. Speed=4.752000m/h.</desc>
<speed>1.320000</speed>
</trkpt>
<trkpt lat="22.310104" lon="103.771111">
<ele>2937.720703</ele>
<time>2011-04-24T06:08:18Z</time>
<desc>lat.=22.310104, lon.=103.771111, Alt.=2937.720703m. Speed=2.808000m/h.</desc>
<speed>0.780000</speed>
</trkpt>
<trkpt lat="22.310099" lon="103.771080">
<ele>2938.783203</ele>
<time>2011-04-24T06:08:23Z</time>
<desc>lat.=22.310099, lon.=103.771080, Alt.=2938.783203m. Speed=3.528000m/h.</desc>
<speed>0.980000</speed>
</trkpt>
<trkpt lat="22.310108" lon="103.771057">
<ele>2940.345703</ele>
<time>2011-04-24T06:08:28Z</time>
<desc>lat.=22.310108, lon.=103.771057, Alt.=2940.345703m. Speed=0.936000m/h.</desc>
<speed>0.260000</speed>
</trkpt>
<trkpt lat="22.310106" lon="103.771034">
<ele>2939.533203</ele>
<time>2011-04-24T06:08:33Z</time>
<desc>lat.=22.310106, lon.=103.771034, Alt.=2939.533203m. Speed=3.024000m/h.</desc>
<speed>0.840000</speed>
</trkpt>
<trkpt lat="22.310106" lon="103.771004">
<ele>2939.658203</ele>
<time>2011-04-24T06:08:38Z</time>
<desc>lat.=22.310106, lon.=103.771004, Alt.=2939.658203m. Speed=1.440000m/h.</desc>
<speed>0.400000</speed>
</trkpt>
<trkpt lat="22.310120" lon="103.770996">
<ele>2940.283203</ele>
<time>2011-04-24T06:08:43Z</time>
<desc>lat.=22.310120, lon.=103.770996, Alt.=2940.283203m. Speed=1.440000m/h.</desc>
<speed>0.400000</speed>
</trkpt>
<trkpt lat="22.310123" lon="103.770973">
<ele>2940.220703</ele>
<time>2011-04-24T06:08:48Z</time>
<desc>lat.=22.310123, lon.=103.770973, Alt.=2940.220703m. Speed=0.936000m/h.</desc>
<speed>0.260000</speed>
</trkpt>
<trkpt lat="22.310137" lon="103.770950">
<ele>2940.345703</ele>
<time>2011-04-24T06:08:53Z</time>
<desc>lat.=22.310137, lon.=103.770950, Alt.=2940.345703m. Speed=1.512000m/h.</desc>
<speed>0.420000</speed>
</trkpt>
<trkpt lat="22.310129" lon="103.770920">
<ele>2939.783203</ele>
<time>2011-04-24T06:08:58Z</time>
<desc>lat.=22.310129, lon.=103.770920, Alt.=2939.783203m. Speed=1.548000m/h.</desc>
<speed>0.430000</speed>
</trkpt>
<trkpt lat="22.310131" lon="103.770897">
<ele>2940.470703</ele>
<time>2011-04-24T06:09:03Z</time>
<desc>lat.=22.310131, lon.=103.770897, Alt.=2940.470703m. Speed=1.872000m/h.</desc>
<speed>0.520000</speed>
</trkpt>
<trkpt lat="22.310137" lon="103.770859">
<ele>2940.033203</ele>
<time>2011-04-24T06:09:08Z</time>
<desc>lat.=22.310137, lon.=103.770859, Alt.=2940.033203m. Speed=3.852000m/h.</desc>
<speed>1.070000</speed>
</trkpt>
<trkpt lat="22.310152" lon="103.770821">
<ele>2940.158203</ele>
<time>2011-04-24T06:09:13Z</time>
<desc>lat.=22.310152, lon.=103.770821, Alt.=2940.158203m. Speed=2.628000m/h.</desc>
<speed>0.730000</speed>
</trkpt>
<trkpt lat="22.310158" lon="103.770790">
<ele>2940.283203</ele>
<time>2011-04-24T06:09:18Z</time>
<desc>lat.=22.310158, lon.=103.770790, Alt.=2940.283203m. Speed=2.988000m/h.</desc>
<speed>0.830000</speed>
</trkpt>
<trkpt lat="22.310158" lon="103.770760">
<ele>2940.033203</ele>
<time>2011-04-24T06:09:23Z</time>
<desc>lat.=22.310158, lon.=103.770760, Alt.=2940.033203m. Speed=2.088000m/h.</desc>
<speed>0.580000</speed>
</trkpt>
<trkpt lat="22.310160" lon="103.770737">
<ele>2939.970703</ele>
<time>2011-04-24T06:09:28Z</time>
<desc>lat.=22.310160, lon.=103.770737, Alt.=2939.970703m. Speed=1.476000m/h.</desc>
<speed>0.410000</speed>
</trkpt>
<trkpt lat="22.310156" lon="103.770699">
<ele>2940.470703</ele>
<time>2011-04-24T06:09:33Z</time>
<desc>lat.=22.310156, lon.=103.770699, Alt.=2940.470703m. Speed=2.556000m/h.</desc>
<speed>0.710000</speed>
</trkpt>
<trkpt lat="22.310144" lon="103.770660">
<ele>2940.533203</ele>
<time>2011-04-24T06:09:38Z</time>
<desc>lat.=22.310144, lon.=103.770660, Alt.=2940.533203m. Speed=3.672000m/h.</desc>
<speed>1.020000</speed>
</trkpt>
<trkpt lat="22.310129" lon="103.770638">
<ele>2940.783203</ele>
<time>2011-04-24T06:09:43Z</time>
<desc>lat.=22.310129, lon.=103.770638, Alt.=2940.783203m. Speed=0.972000m/h.</desc>
<speed>0.270000</speed>
</trkpt>
<trkpt lat="22.310125" lon="103.770615">
<ele>2940.845703</ele>
<time>2011-04-24T06:09:48Z</time>
<desc>lat.=22.310125, lon.=103.770615, Alt.=2940.845703m. Speed=2.340000m/h.</desc>
<speed>0.650000</speed>
</trkpt>
<trkpt lat="22.310135" lon="103.770599">
<ele>2940.408203</ele>
<time>2011-04-24T06:09:53Z</time>
<desc>lat.=22.310135, lon.=103.770599, Alt.=2940.408203m. Speed=1.656000m/h.</desc>
<speed>0.460000</speed>
</trkpt>
<trkpt lat="22.310120" lon="103.770592">
<ele>2939.283203</ele>
<time>2011-04-24T06:09:58Z</time>
<desc>lat.=22.310120, lon.=103.770592, Alt.=2939.283203m. Speed=0.792000m/h.</desc>
<speed>0.220000</speed>
</trkpt>
<trkpt lat="22.310129" lon="103.770576">
<ele>2938.595703</ele>
<time>2011-04-24T06:10:03Z</time>
<desc>lat.=22.310129, lon.=103.770576, Alt.=2938.595703m. Speed=3.456000m/h.</desc>
<speed>0.960000</speed>
</trkpt>
<trkpt lat="22.310131" lon="103.770531">
<ele>2937.658203</ele>
<time>2011-04-24T06:10:08Z</time>
<desc>lat.=22.310131, lon.=103.770531, Alt.=2937.658203m. Speed=2.628000m/h.</desc>
<speed>0.730000</speed>
</trkpt>
<trkpt lat="22.310123" lon="103.770493">
<ele>2937.470703</ele>
<time>2011-04-24T06:10:13Z</time>
<desc>lat.=22.310123, lon.=103.770493, Alt.=2937.470703m. Speed=3.744000m/h.</desc>
<speed>1.040000</speed>
</trkpt>
<trkpt lat="22.310112" lon="103.770462">
<ele>2937.720703</ele>
<time>2011-04-24T06:10:18Z</time>
<desc>lat.=22.310112, lon.=103.770462, Alt.=2937.720703m. Speed=1.800000m/h.</desc>
<speed>0.500000</speed>
</trkpt>
<trkpt lat="22.310114" lon="103.770470">
<ele>2937.220703</ele>
<time>2011-04-24T06:10:23Z</time>
<desc>lat.=22.310114, lon.=103.770470, Alt.=2937.220703m. Speed=0.972000m/h.</desc>
<speed>0.270000</speed>
</trkpt>
<trkpt lat="22.310133" lon="103.770470">
<ele>2936.720703</ele>
<time>2011-04-24T06:10:28Z</time>
<desc>lat.=22.310133, lon.=103.770470, Alt.=2936.720703m. Speed=1.656000m/h.</desc>
<speed>0.460000</speed>
</trkpt>
<trkpt lat="22.310163" lon="103.770432">
<ele>2936.908203</ele>
<time>2011-04-24T06:10:33Z</time>
<desc>lat.=22.310163, lon.=103.770432, Alt.=2936.908203m. Speed=2.412000m/h.</desc>
<speed>0.670000</speed>
</trkpt>
<trkpt lat="22.310160" lon="103.770409">
<ele>2936.470703</ele>
<time>2011-04-24T06:10:38Z</time>
<desc>lat.=22.310160, lon.=103.770409, Alt.=2936.470703m. Speed=0.792000m/h.</desc>
<speed>0.220000</speed>
</trkpt>
<trkpt lat="22.310144" lon="103.770401">
<ele>2936.595703</ele>
<time>2011-04-24T06:10:43Z</time>
<desc>lat.=22.310144, lon.=103.770401, Alt.=2936.595703m. Speed=0.324000m/h.</desc>
<speed>0.090000</speed>
</trkpt>
<trkpt lat="22.310152" lon="103.770401">
<ele>2936.595703</ele>
<time>2011-04-24T06:10:48Z</time>
<desc>lat.=22.310152, lon.=103.770401, Alt.=2936.595703m. Speed=0.648000m/h.</desc>
<speed>0.180000</speed>
</trkpt>
<trkpt lat="22.310156" lon="103.770401">
<ele>2936.658203</ele>
<time>2011-04-24T06:10:53Z</time>
<desc>lat.=22.310156, lon.=103.770401, Alt.=2936.658203m. Speed=0.504000m/h.</desc>
<speed>0.140000</speed>
</trkpt>
<trkpt lat="22.310146" lon="103.770386">
<ele>2936.658203</ele>
<time>2011-04-24T06:10:58Z</time>
<desc>lat.=22.310146, lon.=103.770386, Alt.=2936.658203m. Speed=1.260000m/h.</desc>
<speed>0.350000</speed>
</trkpt>
<trkpt lat="22.310141" lon="103.770363">
<ele>2936.345703</ele>
<time>2011-04-24T06:11:03Z</time>
<desc>lat.=22.310141, lon.=103.770363, Alt.=2936.345703m. Speed=0.576000m/h.</desc>
<speed>0.160000</speed>
</trkpt>
<trkpt lat="22.310143" lon="103.770370">
<ele>2936.345703</ele>
<time>2011-04-24T06:11:08Z</time>
<desc>lat.=22.310143, lon.=103.770370, Alt.=2936.345703m. Speed=0.936000m/h.</desc>
<speed>0.260000</speed>
</trkpt>
<trkpt lat="22.310144" lon="103.770370">
<ele>2936.345703</ele>
<time>2011-04-24T06:11:13Z</time>
<desc>lat.=22.310144, lon.=103.770370, Alt.=2936.345703m. Speed=0.756000m/h.</desc>
<speed>0.210000</speed>
</trkpt>
<trkpt lat="22.310152" lon="103.770370">
<ele>2936.345703</ele>
<time>2011-04-24T06:11:18Z</time>
<desc>lat.=22.310152, lon.=103.770370, Alt.=2936.345703m. Speed=0.684000m/h.</desc>
<speed>0.190000</speed>
</trkpt>
<trkpt lat="22.310156" lon="103.770332">
<ele>2936.033203</ele>
<time>2011-04-24T06:11:23Z</time>
<desc>lat.=22.310156, lon.=103.770332, Alt.=2936.033203m. Speed=3.240000m/h.</desc>
<speed>0.900000</speed>
</trkpt>
<trkpt lat="22.310171" lon="103.770271">
<ele>2935.345703</ele>
<time>2011-04-24T06:11:28Z</time>
<desc>lat.=22.310171, lon.=103.770271, Alt.=2935.345703m. Speed=2.952000m/h.</desc>
<speed>0.820000</speed>
</trkpt>
<trkpt lat="22.310160" lon="103.770187">
<ele>2934.033203</ele>
<time>2011-04-24T06:11:33Z</time>
<desc>lat.=22.310160, lon.=103.770187, Alt.=2934.033203m. Speed=3.348000m/h.</desc>
<speed>0.930000</speed>
</trkpt>
<trkpt lat="22.310123" lon="103.770142">
<ele>2933.283203</ele>
<time>2011-04-24T06:11:38Z</time>
<desc>lat.=22.310123, lon.=103.770142, Alt.=2933.283203m. Speed=2.916000m/h.</desc>
<speed>0.810000</speed>
</trkpt>
<trkpt lat="22.310108" lon="103.770096">
<ele>2932.720703</ele>
<time>2011-04-24T06:11:43Z</time>
<desc>lat.=22.310108, lon.=103.770096, Alt.=2932.720703m. Speed=2.412000m/h.</desc>
<speed>0.670000</speed>
</trkpt>
<trkpt lat="22.310089" lon="103.770088">
<ele>2932.470703</ele>
<time>2011-04-24T06:11:48Z</time>
<desc>lat.=22.310089, lon.=103.770088, Alt.=2932.470703m. Speed=1.800000m/h.</desc>
<speed>0.500000</speed>
</trkpt>
<trkpt lat="22.310122" lon="103.770035">
<ele>2932.283203</ele>
<time>2011-04-24T06:11:53Z</time>
<desc>lat.=22.310122, lon.=103.770035, Alt.=2932.283203m. Speed=1.728000m/h.</desc>
<speed>0.480000</speed>
</trkpt>
<trkpt lat="22.310131" lon="103.770004">
<ele>2932.095703</ele>
<time>2011-04-24T06:11:58Z</time>
<desc>lat.=22.310131, lon.=103.770004, Alt.=2932.095703m. Speed=2.052000m/h.</desc>
<speed>0.570000</speed>
</trkpt>
<trkpt lat="22.310118" lon="103.769966">
<ele>2931.908203</ele>
<time>2011-04-24T06:12:03Z</time>
<desc>lat.=22.310118, lon.=103.769966, Alt.=2931.908203m. Speed=1.980000m/h.</desc>
<speed>0.550000</speed>
</trkpt>
<trkpt lat="22.310118" lon="103.769951">
<ele>2931.908203</ele>
<time>2011-04-24T06:12:08Z</time>
<desc>lat.=22.310118, lon.=103.769951, Alt.=2931.908203m. Speed=1.332000m/h.</desc>
<speed>0.370000</speed>
</trkpt>
<trkpt lat="22.310089" lon="103.769958">
<ele>2931.908203</ele>
<time>2011-04-24T06:12:13Z</time>
<desc>lat.=22.310089, lon.=103.769958, Alt.=2931.908203m. Speed=1.008000m/h.</desc>
<speed>0.280000</speed>
</trkpt>
<trkpt lat="22.310072" lon="103.769920">
<ele>2931.720703</ele>
<time>2011-04-24T06:12:18Z</time>
<desc>lat.=22.310072, lon.=103.769920, Alt.=2931.720703m. Speed=1.656000m/h.</desc>
<speed>0.460000</speed>
</trkpt>
<trkpt lat="22.310080" lon="103.769852">
<ele>2931.158203</ele>
<time>2011-04-24T06:12:23Z</time>
<desc>lat.=22.310080, lon.=103.769852, Alt.=2931.158203m. Speed=3.276000m/h.</desc>
<speed>0.910000</speed>
</trkpt>
<trkpt lat="22.310068" lon="103.769836">
<ele>2931.158203</ele>
<time>2011-04-24T06:12:28Z</time>
<desc>lat.=22.310068, lon.=103.769836, Alt.=2931.158203m. Speed=0.720000m/h.</desc>
<speed>0.200000</speed>
</trkpt>
<trkpt lat="22.310091" lon="103.769806">
<ele>2930.908203</ele>
<time>2011-04-24T06:12:33Z</time>
<desc>lat.=22.310091, lon.=103.769806, Alt.=2930.908203m. Speed=2.232000m/h.</desc>
<speed>0.620000</speed>
</trkpt>
<trkpt lat="22.310085" lon="103.769722">
<ele>2930.658203</ele>
<time>2011-04-24T06:12:38Z</time>
<desc>lat.=22.310085, lon.=103.769722, Alt.=2930.658203m. Speed=3.852000m/h.</desc>
<speed>1.070000</speed>
</trkpt>
<trkpt lat="22.310099" lon="103.769669">
<ele>2930.220703</ele>
<time>2011-04-24T06:12:43Z</time>
<desc>lat.=22.310099, lon.=103.769669, Alt.=2930.220703m. Speed=2.556000m/h.</desc>
<speed>0.710000</speed>
</trkpt>
<trkpt lat="22.310102" lon="103.769615">
<ele>2930.095703</ele>
<time>2011-04-24T06:12:48Z</time>
<desc>lat.=22.310102, lon.=103.769615, Alt.=2930.095703m. Speed=2.052000m/h.</desc>
<speed>0.570000</speed>
</trkpt>
<trkpt lat="22.310101" lon="103.769585">
<ele>2929.783203</ele>
<time>2011-04-24T06:12:53Z</time>
<desc>lat.=22.310101, lon.=103.769585, Alt.=2929.783203m. Speed=3.240000m/h.</desc>
<speed>0.900000</speed>
</trkpt>
<trkpt lat="22.310089" lon="103.769554">
<ele>2929.720703</ele>
<time>2011-04-24T06:12:58Z</time>
<desc>lat.=22.310089, lon.=103.769554, Alt.=2929.720703m. Speed=3.024000m/h.</desc>
<speed>0.840000</speed>
</trkpt>
<trkpt lat="22.310083" lon="103.769493">
<ele>2929.658203</ele>
<time>2011-04-24T06:13:03Z</time>
<desc>lat.=22.310083, lon.=103.769493, Alt.=2929.658203m. Speed=4.320000m/h.</desc>
<speed>1.200000</speed>
</trkpt>
<trkpt lat="22.310068" lon="103.769424">
<ele>2929.533203</ele>
<time>2011-04-24T06:13:08Z</time>
<desc>lat.=22.310068, lon.=103.769424, Alt.=2929.533203m. Speed=4.428000m/h.</desc>
<speed>1.230000</speed>
</trkpt>
<trkpt lat="22.310061" lon="103.769363">
<ele>2929.345703</ele>
<time>2011-04-24T06:13:13Z</time>
<desc>lat.=22.310061, lon.=103.769363, Alt.=2929.345703m. Speed=3.744000m/h.</desc>
<speed>1.040000</speed>
</trkpt>
<trkpt lat="22.310047" lon="103.769310">
<ele>2929.158203</ele>
<time>2011-04-24T06:13:18Z</time>
<desc>lat.=22.310047, lon.=103.769310, Alt.=2929.158203m. Speed=3.168000m/h.</desc>
<speed>0.880000</speed>
</trkpt>
<trkpt lat="22.310087" lon="103.769264">
<ele>2929.158203</ele>
<time>2011-04-24T06:13:23Z</time>
<desc>lat.=22.310087, lon.=103.769264, Alt.=2929.158203m. Speed=2.592000m/h.</desc>
<speed>0.720000</speed>
</trkpt>
<trkpt lat="22.310133" lon="103.769226">
<ele>2928.783203</ele>
<time>2011-04-24T06:13:28Z</time>
<desc>lat.=22.310133, lon.=103.769226, Alt.=2928.783203m. Speed=2.556000m/h.</desc>
<speed>0.710000</speed>
</trkpt>
<trkpt lat="22.310186" lon="103.769211">
<ele>2928.095703</ele>
<time>2011-04-24T06:13:33Z</time>
<desc>lat.=22.310186, lon.=103.769211, Alt.=2928.095703m. Speed=3.024000m/h.</desc>
<speed>0.840000</speed>
</trkpt>
<trkpt lat="22.310190" lon="103.769188">
<ele>2927.220703</ele>
<time>2011-04-24T06:13:38Z</time>
<desc>lat.=22.310190, lon.=103.769188, Alt.=2927.220703m. Speed=3.276000m/h.</desc>
<speed>0.910000</speed>
</trkpt>
<trkpt lat="22.310219" lon="103.769150">
<ele>2926.283203</ele>
<time>2011-04-24T06:13:43Z</time>
<desc>lat.=22.310219, lon.=103.769150, Alt.=2926.283203m. Speed=2.052000m/h.</desc>
<speed>0.570000</speed>
</trkpt>
<trkpt lat="22.310221" lon="103.769142">
<ele>2925.033203</ele>
<time>2011-04-24T06:13:48Z</time>
<desc>lat.=22.310221, lon.=103.769142, Alt.=2925.033203m. Speed=0.828000m/h.</desc>
<speed>0.230000</speed>
</trkpt>
<trkpt lat="22.310247" lon="103.769119">
<ele>2924.158203</ele>
<time>2011-04-24T06:13:53Z</time>
<desc>lat.=22.310247, lon.=103.769119, Alt.=2924.158203m. Speed=2.736000m/h.</desc>
<speed>0.760000</speed>
</trkpt>
<trkpt lat="22.310263" lon="103.769104">
<ele>2923.658203</ele>
<time>2011-04-24T06:13:58Z</time>
<desc>lat.=22.310263, lon.=103.769104, Alt.=2923.658203m. Speed=1.044000m/h.</desc>
<speed>0.290000</speed>
</trkpt>
<trkpt lat="22.310286" lon="103.769112">
<ele>2922.783203</ele>
<time>2011-04-24T06:14:03Z</time>
<desc>lat.=22.310286, lon.=103.769112, Alt.=2922.783203m. Speed=1.332000m/h.</desc>
<speed>0.370000</speed>
</trkpt>
<trkpt lat="22.310297" lon="103.769104">
<ele>2922.095703</ele>
<time>2011-04-24T06:14:08Z</time>
<desc>lat.=22.310297, lon.=103.769104, Alt.=2922.095703m. Speed=0.936000m/h.</desc>
<speed>0.260000</speed>
</trkpt>
<trkpt lat="22.310318" lon="103.769089">
<ele>2920.533203</ele>
<time>2011-04-24T06:14:13Z</time>
<desc>lat.=22.310318, lon.=103.769089, Alt.=2920.533203m. Speed=1.332000m/h.</desc>
<speed>0.370000</speed>
</trkpt>
<trkpt lat="22.310368" lon="103.769058">
<ele>2919.595703</ele>
<time>2011-04-24T06:14:18Z</time>
<desc>lat.=22.310368, lon.=103.769058, Alt.=2919.595703m. Speed=3.708000m/h.</desc>
<speed>1.030000</speed>
</trkpt>
<trkpt lat="22.310362" lon="103.769043">
<ele>2918.658203</ele>
<time>2011-04-24T06:14:23Z</time>
<desc>lat.=22.310362, lon.=103.769043, Alt.=2918.658203m. Speed=0.648000m/h.</desc>
<speed>0.180000</speed>
</trkpt>
<trkpt lat="22.310381" lon="103.769043">
<ele>2917.970703</ele>
<time>2011-04-24T06:14:28Z</time>
<desc>lat.=22.310381, lon.=103.769043, Alt.=2917.970703m. Speed=1.656000m/h.</desc>
<speed>0.460000</speed>
</trkpt>
<trkpt lat="22.310389" lon="103.769051">
<ele>2917.533203</ele>
<time>2011-04-24T06:14:33Z</time>
<desc>lat.=22.310389, lon.=103.769051, Alt.=2917.533203m. Speed=0.792000m/h.</desc>
<speed>0.220000</speed>
</trkpt>
<trkpt lat="22.310410" lon="103.769058">
<ele>2917.220703</ele>
<time>2011-04-24T06:14:38Z</time>
<desc>lat.=22.310410, lon.=103.769058, Alt.=2917.220703m. Speed=0.972000m/h.</desc>
<speed>0.270000</speed>
</trkpt>
<trkpt lat="22.310419" lon="103.769051">
<ele>2916.970703</ele>
<time>2011-04-24T06:14:43Z</time>
<desc>lat.=22.310419, lon.=103.769051, Alt.=2916.970703m. Speed=1.656000m/h.</desc>
<speed>0.460000</speed>
</trkpt>
<trkpt lat="22.310459" lon="103.769058">
<ele>2916.408203</ele>
<time>2011-04-24T06:14:48Z</time>
<desc>lat.=22.310459, lon.=103.769058, Alt.=2916.408203m. Speed=2.196000m/h.</desc>
<speed>0.610000</speed>
</trkpt>
<trkpt lat="22.310509" lon="103.769035">
<ele>2916.095703</ele>
<time>2011-04-24T06:14:53Z</time>
<desc>lat.=22.310509, lon.=103.769035, Alt.=2916.095703m. Speed=2.268000m/h.</desc>
<speed>0.630000</speed>
</trkpt>
<trkpt lat="22.310547" lon="103.769005">
<ele>2915.533203</ele>
<time>2011-04-24T06:14:58Z</time>
<desc>lat.=22.310547, lon.=103.769005, Alt.=2915.533203m. Speed=2.736000m/h.</desc>
<speed>0.760000</speed>
</trkpt>
<trkpt lat="22.310596" lon="103.769012">
<ele>2915.095703</ele>
<time>2011-04-24T06:15:03Z</time>
<desc>lat.=22.310596, lon.=103.769012, Alt.=2915.095703m. Speed=2.700000m/h.</desc>
<speed>0.750000</speed>
</trkpt>
<trkpt lat="22.310637" lon="103.769028">
<ele>2913.783203</ele>
<time>2011-04-24T06:15:08Z</time>
<desc>lat.=22.310637, lon.=103.769028, Alt.=2913.783203m. Speed=2.592000m/h.</desc>
<speed>0.720000</speed>
</trkpt>
<trkpt lat="22.310699" lon="103.768997">
<ele>2912.908203</ele>
<time>2011-04-24T06:15:13Z</time>
<desc>lat.=22.310699, lon.=103.768997, Alt.=2912.908203m. Speed=3.096000m/h.</desc>
<speed>0.860000</speed>
</trkpt>
<trkpt lat="22.310734" lon="103.768906">
<ele>2909.470703</ele>
<time>2011-04-24T06:15:18Z</time>
<desc>lat.=22.310734, lon.=103.768906, Alt.=2909.470703m. Speed=3.024000m/h.</desc>
<speed>0.840000</speed>
</trkpt>
<trkpt lat="22.310772" lon="103.768852">
<ele>2907.158203</ele>
<time>2011-04-24T06:15:23Z</time>
<desc>lat.=22.310772, lon.=103.768852, Alt.=2907.158203m. Speed=3.960000m/h.</desc>
<speed>1.100000</speed>
</trkpt>
<trkpt lat="22.310795" lon="103.768829">
<ele>2904.970703</ele>
<time>2011-04-24T06:15:28Z</time>
<desc>lat.=22.310795, lon.=103.768829, Alt.=2904.970703m. Speed=3.852000m/h.</desc>
<speed>1.070000</speed>
</trkpt>
<trkpt lat="22.310823" lon="103.768814">
<ele>2903.533203</ele>
<time>2011-04-24T06:15:33Z</time>
<desc>lat.=22.310823, lon.=103.768814, Alt.=2903.533203m. Speed=3.384000m/h.</desc>
<speed>0.940000</speed>
</trkpt>
<trkpt lat="22.310863" lon="103.768738">
<ele>2901.220703</ele>
<time>2011-04-24T06:15:38Z</time>
<desc>lat.=22.310863, lon.=103.768738, Alt.=2901.220703m. Speed=3.960000m/h.</desc>
<speed>1.100000</speed>
</trkpt>
<trkpt lat="22.310907" lon="103.768684">
<ele>2899.658203</ele>
<time>2011-04-24T06:15:43Z</time>
<desc>lat.=22.310907, lon.=103.768684, Alt.=2899.658203m. Speed=3.708000m/h.</desc>
<speed>1.030000</speed>
</trkpt>
<trkpt lat="22.310968" lon="103.768616">
<ele>2897.533203</ele>
<time>2011-04-24T06:15:48Z</time>
<desc>lat.=22.310968, lon.=103.768616, Alt.=2897.533203m. Speed=3.204000m/h.</desc>
<speed>0.890000</speed>
</trkpt>
<trkpt lat="22.310970" lon="103.768593">
<ele>2895.970703</ele>
<time>2011-04-24T06:15:53Z</time>
<desc>lat.=22.310970, lon.=103.768593, Alt.=2895.970703m. Speed=2.340000m/h.</desc>
<speed>0.650000</speed>
</trkpt>
<trkpt lat="22.310986" lon="103.768562">
<ele>2895.033203</ele>
<time>2011-04-24T06:15:58Z</time>
<desc>lat.=22.310986, lon.=103.768562, Alt.=2895.033203m. Speed=2.520000m/h.</desc>
<speed>0.700000</speed>
</trkpt>
<trkpt lat="22.311005" lon="103.768501">
<ele>2894.158203</ele>
<time>2011-04-24T06:16:03Z</time>
<desc>lat.=22.311005, lon.=103.768501, Alt.=2894.158203m. Speed=3.708000m/h.</desc>
<speed>1.030000</speed>
</trkpt>
<trkpt lat="22.311016" lon="103.768440">
<ele>2893.658203</ele>
<time>2011-04-24T06:16:08Z</time>
<desc>lat.=22.311016, lon.=103.768440, Alt.=2893.658203m. Speed=3.924000m/h.</desc>
<speed>1.090000</speed>
</trkpt>
<trkpt lat="22.311028" lon="103.768410">
<ele>2892.408203</ele>
<time>2011-04-24T06:16:13Z</time>
<desc>lat.=22.311028, lon.=103.768410, Alt.=2892.408203m. Speed=3.528000m/h.</desc>
<speed>0.980000</speed>
</trkpt>
<trkpt lat="22.311069" lon="103.768364">
<ele>2891.283203</ele>
<time>2011-04-24T06:16:18Z</time>
<desc>lat.=22.311069, lon.=103.768364, Alt.=2891.283203m. Speed=3.132000m/h.</desc>
<speed>0.870000</speed>
</trkpt>
<trkpt lat="22.311081" lon="103.768326">
<ele>2890.595703</ele>
<time>2011-04-24T06:16:23Z</time>
<desc>lat.=22.311081, lon.=103.768326, Alt.=2890.595703m. Speed=3.240000m/h.</desc>
<speed>0.900000</speed>
</trkpt>
<trkpt lat="22.311081" lon="103.768295">
<ele>2890.158203</ele>
<time>2011-04-24T06:16:28Z</time>
<desc>lat.=22.311081, lon.=103.768295, Alt.=2890.158203m. Speed=2.664000m/h.</desc>
<speed>0.740000</speed>
</trkpt>
<trkpt lat="22.311100" lon="103.768272">
<ele>2889.283203</ele>
<time>2011-04-24T06:16:33Z</time>
<desc>lat.=22.311100, lon.=103.768272, Alt.=2889.283203m. Speed=2.808000m/h.</desc>
<speed>0.780000</speed>
</trkpt>
<trkpt lat="22.311142" lon="103.768242">
<ele>2888.095703</ele>
<time>2011-04-24T06:16:38Z</time>
<desc>lat.=22.311142, lon.=103.768242, Alt.=2888.095703m. Speed=2.880000m/h.</desc>
<speed>0.800000</speed>
</trkpt>
<trkpt lat="22.311169" lon="103.768227">
<ele>2887.220703</ele>
<time>2011-04-24T06:16:43Z</time>
<desc>lat.=22.311169, lon.=103.768227, Alt.=2887.220703m. Speed=1.800000m/h.</desc>
<speed>0.500000</speed>
</trkpt>
<trkpt lat="22.311176" lon="103.768204">
<ele>2887.158203</ele>
<time>2011-04-24T06:16:48Z</time>
<desc>lat.=22.311176, lon.=103.768204, Alt.=2887.158203m. Speed=1.224000m/h.</desc>
<speed>0.340000</speed>
</trkpt>
<trkpt lat="22.311207" lon="103.768196">
<ele>2886.345703</ele>
<time>2011-04-24T06:16:53Z</time>
<desc>lat.=22.311207, lon.=103.768196, Alt.=2886.345703m. Speed=2.124000m/h.</desc>
<speed>0.590000</speed>
</trkpt>
<trkpt lat="22.311230" lon="103.768204">
<ele>2886.095703</ele>
<time>2011-04-24T06:16:58Z</time>
<desc>lat.=22.311230, lon.=103.768204, Alt.=2886.095703m. Speed=1.188000m/h.</desc>
<speed>0.330000</speed>
</trkpt>
<trkpt lat="22.311260" lon="103.768181">
<ele>2886.283203</ele>
<time>2011-04-24T06:17:03Z</time>
<desc>lat.=22.311260, lon.=103.768181, Alt.=2886.283203m. Speed=1.980000m/h.</desc>
<speed>0.550000</speed>
</trkpt>
<trkpt lat="22.311302" lon="103.768173">
<ele>2886.033203</ele>
<time>2011-04-24T06:17:08Z</time>
<desc>lat.=22.311302, lon.=103.768173, Alt.=2886.033203m. Speed=2.268000m/h.</desc>
<speed>0.630000</speed>
</trkpt>
<trkpt lat="22.311319" lon="103.768166">
<ele>2885.470703</ele>
<time>2011-04-24T06:17:13Z</time>
<desc>lat.=22.311319, lon.=103.768166, Alt.=2885.470703m. Speed=1.692000m/h.</desc>
<speed>0.470000</speed>
</trkpt>
<trkpt lat="22.311365" lon="103.768112">
<ele>2885.533203</ele>
<time>2011-04-24T06:17:18Z</time>
<desc>lat.=22.311365, lon.=103.768112, Alt.=2885.533203m. Speed=2.304000m/h.</desc>
<speed>0.640000</speed>
</trkpt>
<trkpt lat="22.311417" lon="103.768082">
<ele>2885.345703</ele>
<time>2011-04-24T06:17:23Z</time>
<desc>lat.=22.311417, lon.=103.768082, Alt.=2885.345703m. Speed=1.872000m/h.</desc>
<speed>0.520000</speed>
</trkpt>
<trkpt lat="22.311462" lon="103.768074">
<ele>2886.033203</ele>
<time>2011-04-24T06:17:28Z</time>
<desc>lat.=22.311462, lon.=103.768074, Alt.=2886.033203m. Speed=2.124000m/h.</desc>
<speed>0.590000</speed>
</trkpt>
<trkpt lat="22.311501" lon="103.768082">
<ele>2887.970703</ele>
<time>2011-04-24T06:17:33Z</time>
<desc>lat.=22.311501, lon.=103.768082, Alt.=2887.970703m. Speed=3.852000m/h.</desc>
<speed>1.070000</speed>
</trkpt>
<trkpt lat="22.311543" lon="103.768097">
<ele>2888.470703</ele>
<time>2011-04-24T06:17:38Z</time>
<desc>lat.=22.311543, lon.=103.768097, Alt.=2888.470703m. Speed=3.168000m/h.</desc>
<speed>0.880000</speed>
</trkpt>
<trkpt lat="22.311590" lon="103.768082">
<ele>2888.158203</ele>
<time>2011-04-24T06:17:43Z</time>
<desc>lat.=22.311590, lon.=103.768082, Alt.=2888.158203m. Speed=2.844000m/h.</desc>
<speed>0.790000</speed>
</trkpt>
<trkpt lat="22.311646" lon="103.768028">
<ele>2887.533203</ele>
<time>2011-04-24T06:17:48Z</time>
<desc>lat.=22.311646, lon.=103.768028, Alt.=2887.533203m. Speed=5.580000m/h.</desc>
<speed>1.550000</speed>
</trkpt>
<trkpt lat="22.311680" lon="103.767967">
<ele>2887.158203</ele>
<time>2011-04-24T06:17:53Z</time>
<desc>lat.=22.311680, lon.=103.767967, Alt.=2887.158203m. Speed=8.316000m/h.</desc>
<speed>2.310000</speed>
</trkpt>
<trkpt lat="22.311686" lon="103.767929">
<ele>2886.720703</ele>
<time>2011-04-24T06:17:58Z</time>
<desc>lat.=22.311686, lon.=103.767929, Alt.=2886.720703m. Speed=4.788000m/h.</desc>
<speed>1.330000</speed>
</trkpt>
<trkpt lat="22.311710" lon="103.767868">
<ele>2886.845703</ele>
<time>2011-04-24T06:18:03Z</time>
<desc>lat.=22.311710, lon.=103.767868, Alt.=2886.845703m. Speed=4.104000m/h.</desc>
<speed>1.140000</speed>
</trkpt>
<trkpt lat="22.311718" lon="103.767822">
<ele>2886.970703</ele>
<time>2011-04-24T06:18:08Z</time>
<desc>lat.=22.311718, lon.=103.767822, Alt.=2886.970703m. Speed=4.788000m/h.</desc>
<speed>1.330000</speed>
</trkpt>
<trkpt lat="22.311705" lon="103.767769">
<ele>2887.533203</ele>
<time>2011-04-24T06:18:13Z</time>
<desc>lat.=22.311705, lon.=103.767769, Alt.=2887.533203m. Speed=3.024000m/h.</desc>
<speed>0.840000</speed>
</trkpt>
<trkpt lat="22.311718" lon="103.767731">
<ele>2887.283203</ele>
<time>2011-04-24T06:18:18Z</time>
<desc>lat.=22.311718, lon.=103.767731, Alt.=2887.283203m. Speed=2.520000m/h.</desc>
<speed>0.700000</speed>
</trkpt>
<trkpt lat="22.311769" lon="103.767693">
<ele>2887.283203</ele>
<time>2011-04-24T06:18:23Z</time>
<desc>lat.=22.311769, lon.=103.767693, Alt.=2887.283203m. Speed=4.464000m/h.</desc>
<speed>1.240000</speed>
</trkpt>
<trkpt lat="22.311813" lon="103.767670">
<ele>2887.345703</ele>
<time>2011-04-24T06:18:28Z</time>
<desc>lat.=22.311813, lon.=103.767670, Alt.=2887.345703m. Speed=3.168000m/h.</desc>
<speed>0.880000</speed>
</trkpt>
<trkpt lat="22.311825" lon="103.767647">
<ele>2887.158203</ele>
<time>2011-04-24T06:18:33Z</time>
<desc>lat.=22.311825, lon.=103.767647, Alt.=2887.158203m. Speed=1.188000m/h.</desc>
<speed>0.330000</speed>
</trkpt>
<trkpt lat="22.311827" lon="103.767662">
<ele>2886.970703</ele>
<time>2011-04-24T06:18:38Z</time>
<desc>lat.=22.311827, lon.=103.767662, Alt.=2886.970703m. Speed=0.360000m/h.</desc>
<speed>0.100000</speed>
</trkpt>
<trkpt lat="22.311846" lon="103.767662">
<ele>2886.595703</ele>
<time>2011-04-24T06:18:43Z</time>
<desc>lat.=22.311846, lon.=103.767662, Alt.=2886.595703m. Speed=1.260000m/h.</desc>
<speed>0.350000</speed>
</trkpt>
<trkpt lat="22.311901" lon="103.767616">
<ele>2885.845703</ele>
<time>2011-04-24T06:18:48Z</time>
<desc>lat.=22.311901, lon.=103.767616, Alt.=2885.845703m. Speed=3.312000m/h.</desc>
<speed>0.920000</speed>
</trkpt>
<trkpt lat="22.311941" lon="103.767578">
<ele>2885.533203</ele>
<time>2011-04-24T06:18:53Z</time>
<desc>lat.=22.311941, lon.=103.767578, Alt.=2885.533203m. Speed=2.376000m/h.</desc>
<speed>0.660000</speed>
</trkpt>
<trkpt lat="22.311977" lon="103.767540">
<ele>2884.970703</ele>
<time>2011-04-24T06:18:58Z</time>
<desc>lat.=22.311977, lon.=103.767540, Alt.=2884.970703m. Speed=3.924000m/h.</desc>
<speed>1.090000</speed>
</trkpt>
<trkpt lat="22.312000" lon="103.767517">
<ele>2885.033203</ele>
<time>2011-04-24T06:19:03Z</time>
<desc>lat.=22.312000, lon.=103.767517, Alt.=2885.033203m. Speed=2.556000m/h.</desc>
<speed>0.710000</speed>
</trkpt>
<trkpt lat="22.312033" lon="103.767502">
<ele>2884.470703</ele>
<time>2011-04-24T06:19:08Z</time>
<desc>lat.=22.312033, lon.=103.767502, Alt.=2884.470703m. Speed=2.736000m/h.</desc>
<speed>0.760000</speed>
</trkpt>
<trkpt lat="22.312050" lon="103.767479">
<ele>2884.095703</ele>
<time>2011-04-24T06:19:13Z</time>
<desc>lat.=22.312050, lon.=103.767479, Alt.=2884.095703m. Speed=1.368000m/h.</desc>
<speed>0.380000</speed>
</trkpt>
<trkpt lat="22.312071" lon="103.767441">
<ele>2884.033203</ele>
<time>2011-04-24T06:19:18Z</time>
<desc>lat.=22.312071, lon.=103.767441, Alt.=2884.033203m. Speed=3.492000m/h.</desc>
<speed>0.970000</speed>
</trkpt>
<trkpt lat="22.312077" lon="103.767403">
<ele>2884.033203</ele>
<time>2011-04-24T06:19:23Z</time>
<desc>lat.=22.312077, lon.=103.767403, Alt.=2884.033203m. Speed=2.016000m/h.</desc>
<speed>0.560000</speed>
</trkpt>
<trkpt lat="22.312073" lon="103.767395">
<ele>2883.908203</ele>
<time>2011-04-24T06:19:28Z</time>
<desc>lat.=22.312073, lon.=103.767395, Alt.=2883.908203m. Speed=0.720000m/h.</desc>
<speed>0.200000</speed>
</trkpt>
<trkpt lat="22.312071" lon="103.767387">
<ele>2884.033203</ele>
<time>2011-04-24T06:19:33Z</time>
<desc>lat.=22.312071, lon.=103.767387, Alt.=2884.033203m. Speed=0.612000m/h.</desc>
<speed>0.170000</speed>
</trkpt>
<trkpt lat="22.312063" lon="103.767387">
<ele>2884.095703</ele>
<time>2011-04-24T06:19:38Z</time>
<desc>lat.=22.312063, lon.=103.767387, Alt.=2884.095703m. Speed=0.936000m/h.</desc>
<speed>0.260000</speed>
</trkpt>
<trkpt lat="22.312056" lon="103.767387">
<ele>2884.095703</ele>
<time>2011-04-24T06:19:43Z</time>
<desc>lat.=22.312056, lon.=103.767387, Alt.=2884.095703m. Speed=2.088000m/h.</desc>
<speed>0.580000</speed>
</trkpt>
<trkpt lat="22.312038" lon="103.767326">
<ele>2883.970703</ele>
<time>2011-04-24T06:19:48Z</time>
<desc>lat.=22.312038, lon.=103.767326, Alt.=2883.970703m. Speed=4.428000m/h.</desc>
<speed>1.230000</speed>
</trkpt>
<trkpt lat="22.312094" lon="103.767258">
<ele>2883.345703</ele>
<time>2011-04-24T06:19:53Z</time>
<desc>lat.=22.312094, lon.=103.767258, Alt.=2883.345703m. Speed=4.176000m/h.</desc>
<speed>1.160000</speed>
</trkpt>
<trkpt lat="22.312063" lon="103.767227">
<ele>2881.658203</ele>
<time>2011-04-24T06:19:58Z</time>
<desc>lat.=22.312063, lon.=103.767227, Alt.=2881.658203m. Speed=2.376000m/h.</desc>
<speed>0.660000</speed>
</trkpt>
<trkpt lat="22.312052" lon="103.767189">
<ele>2880.220703</ele>
<time>2011-04-24T06:20:03Z</time>
<desc>lat.=22.312052, lon.=103.767189, Alt.=2880.220703m. Speed=4.680000m/h.</desc>
<speed>1.300000</speed>
</trkpt>
<trkpt lat="22.312027" lon="103.767151">
<ele>2879.408203</ele>
<time>2011-04-24T06:20:08Z</time>
<desc>lat.=22.312027, lon.=103.767151, Alt.=2879.408203m. Speed=1.692000m/h.</desc>
<speed>0.470000</speed>
</trkpt>
<trkpt lat="22.312056" lon="103.767120">
<ele>2878.470703</ele>
<time>2011-04-24T06:20:13Z</time>
<desc>lat.=22.312056, lon.=103.767120, Alt.=2878.470703m. Speed=3.060000m/h.</desc>
<speed>0.850000</speed>
</trkpt>
<trkpt lat="22.312065" lon="103.767067">
<ele>2878.158203</ele>
<time>2011-04-24T06:20:18Z</time>
<desc>lat.=22.312065, lon.=103.767067, Alt.=2878.158203m. Speed=4.608000m/h.</desc>
<speed>1.280000</speed>
</trkpt>
<trkpt lat="22.312061" lon="103.767014">
<ele>2877.658203</ele>
<time>2011-04-24T06:20:23Z</time>
<desc>lat.=22.312061, lon.=103.767014, Alt.=2877.658203m. Speed=4.176000m/h.</desc>
<speed>1.160000</speed>
</trkpt>
<trkpt lat="22.312035" lon="103.766975">
<ele>2876.720703</ele>
<time>2011-04-24T06:20:28Z</time>
<desc>lat.=22.312035, lon.=103.766975, Alt.=2876.720703m. Speed=3.132000m/h.</desc>
<speed>0.870000</speed>
</trkpt>
<trkpt lat="22.312042" lon="103.766953">
<ele>2876.595703</ele>
<time>2011-04-24T06:20:33Z</time>
<desc>lat.=22.312042, lon.=103.766953, Alt.=2876.595703m. Speed=1.764000m/h.</desc>
<speed>0.490000</speed>
</trkpt>
<trkpt lat="22.312038" lon="103.766907">
<ele>2876.033203</ele>
<time>2011-04-24T06:20:38Z</time>
<desc>lat.=22.312038, lon.=103.766907, Alt.=2876.033203m. Speed=1.836000m/h.</desc>
<speed>0.510000</speed>
</trkpt>
<trkpt lat="22.312061" lon="103.766869">
<ele>2875.220703</ele>
<time>2011-04-24T06:20:43Z</time>
<desc>lat.=22.312061, lon.=103.766869, Alt.=2875.220703m. Speed=2.160000m/h.</desc>
<speed>0.600000</speed>
</trkpt>
<trkpt lat="22.312059" lon="103.766830">
<ele>2874.595703</ele>
<time>2011-04-24T06:20:48Z</time>
<desc>lat.=22.312059, lon.=103.766830, Alt.=2874.595703m. Speed=2.412000m/h.</desc>
<speed>0.670000</speed>
</trkpt>
<trkpt lat="22.312056" lon="103.766785">
<ele>2873.845703</ele>
<time>2011-04-24T06:20:53Z</time>
<desc>lat.=22.312056, lon.=103.766785, Alt.=2873.845703m. Speed=0.540000m/h.</desc>
<speed>0.150000</speed>
</trkpt>
<trkpt lat="22.312088" lon="103.766739">
<ele>2873.595703</ele>
<time>2011-04-24T06:20:58Z</time>
<desc>lat.=22.312088, lon.=103.766739, Alt.=2873.595703m. Speed=0.900000m/h.</desc>
<speed>0.250000</speed>
</trkpt>
<trkpt lat="22.312113" lon="103.766708">
<ele>2872.908203</ele>
<time>2011-04-24T06:21:03Z</time>
<desc>lat.=22.312113, lon.=103.766708, Alt.=2872.908203m. Speed=0.720000m/h.</desc>
<speed>0.200000</speed>
</trkpt>
<trkpt lat="22.312149" lon="103.766708">
<ele>2872.345703</ele>
<time>2011-04-24T06:21:08Z</time>
<desc>lat.=22.312149, lon.=103.766708, Alt.=2872.345703m. Speed=1.512000m/h.</desc>
<speed>0.420000</speed>
</trkpt>
<trkpt lat="22.312189" lon="103.766693">
<ele>2871.658203</ele>
<time>2011-04-24T06:21:13Z</time>
<desc>lat.=22.312189, lon.=103.766693, Alt.=2871.658203m. Speed=1.944000m/h.</desc>
<speed>0.540000</speed>
</trkpt>
<trkpt lat="22.312225" lon="103.766693">
<ele>2870.845703</ele>
<time>2011-04-24T06:21:18Z</time>
<desc>lat.=22.312225, lon.=103.766693, Alt.=2870.845703m. Speed=1.764000m/h.</desc>
<speed>0.490000</speed>
</trkpt>
<trkpt lat="22.312250" lon="103.766701">
<ele>2870.220703</ele>
<time>2011-04-24T06:21:23Z</time>
<desc>lat.=22.312250, lon.=103.766701, Alt.=2870.220703m. Speed=2.160000m/h.</desc>
<speed>0.600000</speed>
</trkpt>
<trkpt lat="22.312288" lon="103.766685">
<ele>2869.283203</ele>
<time>2011-04-24T06:21:28Z</time>
<desc>lat.=22.312288, lon.=103.766685, Alt.=2869.283203m. Speed=2.772000m/h.</desc>
<speed>0.770000</speed>
</trkpt>
<trkpt lat="22.312302" lon="103.766739">
<ele>2868.970703</ele>
<time>2011-04-24T06:21:33Z</time>
<desc>lat.=22.312302, lon.=103.766739, Alt.=2868.970703m. Speed=1.476000m/h.</desc>
<speed>0.410000</speed>
</trkpt>
<trkpt lat="22.312304" lon="103.766701">
<ele>2867.345703</ele>
<time>2011-04-24T06:21:38Z</time>
<desc>lat.=22.312304, lon.=103.766701, Alt.=2867.345703m. Speed=1.188000m/h.</desc>
<speed>0.330000</speed>
</trkpt>
<trkpt lat="22.312309" lon="103.766693">
<ele>2866.095703</ele>
<time>2011-04-24T06:21:43Z</time>
<desc>lat.=22.312309, lon.=103.766693, Alt.=2866.095703m. Speed=0.288000m/h.</desc>
<speed>0.080000</speed>
</trkpt>
<trkpt lat="22.312317" lon="103.766708">
<ele>2865.970703</ele>
<time>2011-04-24T06:21:48Z</time>
<desc>lat.=22.312317, lon.=103.766708, Alt.=2865.970703m. Speed=0.324000m/h.</desc>
<speed>0.090000</speed>
</trkpt>
<trkpt lat="22.312336" lon="103.766693">
<ele>2866.283203</ele>
<time>2011-04-24T06:21:53Z</time>
<desc>lat.=22.312336, lon.=103.766693, Alt.=2866.283203m. Speed=2.664000m/h.</desc>
<speed>0.740000</speed>
</trkpt>
<trkpt lat="22.312389" lon="103.766693">
<ele>2865.533203</ele>
<time>2011-04-24T06:21:58Z</time>
<desc>lat.=22.312389, lon.=103.766693, Alt.=2865.533203m. Speed=2.952000m/h.</desc>
<speed>0.820000</speed>
</trkpt>
<trkpt lat="22.312454" lon="103.766655">
<ele>2865.908203</ele>
<time>2011-04-24T06:22:03Z</time>
<desc>lat.=22.312454, lon.=103.766655, Alt.=2865.908203m. Speed=3.456000m/h.</desc>
<speed>0.960000</speed>
</trkpt>
<trkpt lat="22.312483" lon="103.766647">
<ele>2866.533203</ele>
<time>2011-04-24T06:22:08Z</time>
<desc>lat.=22.312483, lon.=103.766647, Alt.=2866.533203m. Speed=2.484000m/h.</desc>
<speed>0.690000</speed>
</trkpt>
<trkpt lat="22.312489" lon="103.766663">
<ele>2866.470703</ele>
<time>2011-04-24T06:22:13Z</time>
<desc>lat.=22.312489, lon.=103.766663, Alt.=2866.470703m. Speed=0.612000m/h.</desc>
<speed>0.170000</speed>
</trkpt>
<trkpt lat="22.312485" lon="103.766670">
<ele>2865.720703</ele>
<time>2011-04-24T06:22:18Z</time>
<desc>lat.=22.312485, lon.=103.766670, Alt.=2865.720703m. Speed=0.828000m/h.</desc>
<speed>0.230000</speed>
</trkpt>
<trkpt lat="22.312511" lon="103.766663">
<ele>2863.783203</ele>
<time>2011-04-24T06:22:23Z</time>
<desc>lat.=22.312511, lon.=103.766663, Alt.=2863.783203m. Speed=0.432000m/h.</desc>
<speed>0.120000</speed>
</trkpt>
<trkpt lat="22.312513" lon="103.766670">
<ele>2863.658203</ele>
<time>2011-04-24T06:22:28Z</time>
<desc>lat.=22.312513, lon.=103.766670, Alt.=2863.658203m. Speed=0.252000m/h.</desc>
<speed>0.070000</speed>
</trkpt>
<trkpt lat="22.312527" lon="103.766678">
<ele>2863.283203</ele>
<time>2011-04-24T06:22:33Z</time>
<desc>lat.=22.312527, lon.=103.766678, Alt.=2863.283203m. Speed=1.584000m/h.</desc>
<speed>0.440000</speed>
</trkpt>
<trkpt lat="22.312540" lon="103.766670">
<ele>2862.970703</ele>
<time>2011-04-24T06:22:38Z</time>
<desc>lat.=22.312540, lon.=103.766670, Alt.=2862.970703m. Speed=0.900000m/h.</desc>
<speed>0.250000</speed>
</trkpt>
<trkpt lat="22.312588" lon="103.766647">
<ele>2861.783203</ele>
<time>2011-04-24T06:22:43Z</time>
<desc>lat.=22.312588, lon.=103.766647, Alt.=2861.783203m. Speed=2.304000m/h.</desc>
<speed>0.640000</speed>
</trkpt>
<trkpt lat="22.312628" lon="103.766624">
<ele>2860.845703</ele>
<time>2011-04-24T06:22:48Z</time>
<desc>lat.=22.312628, lon.=103.766624, Alt.=2860.845703m. Speed=2.700000m/h.</desc>
<speed>0.750000</speed>
</trkpt>
<trkpt lat="22.312639" lon="103.766617">
<ele>2861.033203</ele>
<time>2011-04-24T06:22:53Z</time>
<desc>lat.=22.312639, lon.=103.766617, Alt.=2861.033203m. Speed=1.152000m/h.</desc>
<speed>0.320000</speed>
</trkpt>
<trkpt lat="22.312662" lon="103.766571">
<ele>2860.345703</ele>
<time>2011-04-24T06:22:58Z</time>
<desc>lat.=22.312662, lon.=103.766571, Alt.=2860.345703m. Speed=3.240000m/h.</desc>
<speed>0.900000</speed>
</trkpt>
<trkpt lat="22.312679" lon="103.766502">
<ele>2859.658203</ele>
<time>2011-04-24T06:23:03Z</time>
<desc>lat.=22.312679, lon.=103.766502, Alt.=2859.658203m. Speed=2.844000m/h.</desc>
<speed>0.790000</speed>
</trkpt>
<trkpt lat="22.312685" lon="103.766449">
<ele>2859.345703</ele>
<time>2011-04-24T06:23:08Z</time>
<desc>lat.=22.312685, lon.=103.766449, Alt.=2859.345703m. Speed=2.628000m/h.</desc>
<speed>0.730000</speed>
</trkpt>
<trkpt lat="22.312700" lon="103.766373">
<ele>2859.470703</ele>
<time>2011-04-24T06:23:13Z</time>
<desc>lat.=22.312700, lon.=103.766373, Alt.=2859.470703m. Speed=3.816000m/h.</desc>
<speed>1.060000</speed>
</trkpt>
<trkpt lat="22.312723" lon="103.766342">
<ele>2859.658203</ele>
<time>2011-04-24T06:23:18Z</time>
<desc>lat.=22.312723, lon.=103.766342, Alt.=2859.658203m. Speed=1.728000m/h.</desc>
<speed>0.480000</speed>
</trkpt>
<trkpt lat="22.312756" lon="103.766312">
<ele>2859.783203</ele>
<time>2011-04-24T06:23:23Z</time>
<desc>lat.=22.312756, lon.=103.766312, Alt.=2859.783203m. Speed=2.988000m/h.</desc>
<speed>0.830000</speed>
</trkpt>
<trkpt lat="22.312792" lon="103.766251">
<ele>2859.595703</ele>
<time>2011-04-24T06:23:28Z</time>
<desc>lat.=22.312792, lon.=103.766251, Alt.=2859.595703m. Speed=3.060000m/h.</desc>
<speed>0.850000</speed>
</trkpt>
<trkpt lat="22.312786" lon="103.766197">
<ele>2859.408203</ele>
<time>2011-04-24T06:23:33Z</time>
<desc>lat.=22.312786, lon.=103.766197, Alt.=2859.408203m. Speed=2.988000m/h.</desc>
<speed>0.830000</speed>
</trkpt>
<trkpt lat="22.312775" lon="103.766121">
<ele>2858.595703</ele>
<time>2011-04-24T06:23:38Z</time>
<desc>lat.=22.312775, lon.=103.766121, Alt.=2858.595703m. Speed=2.880000m/h.</desc>
<speed>0.800000</speed>
</trkpt>
<trkpt lat="22.312740" lon="103.766083">
<ele>2858.345703</ele>
<time>2011-04-24T06:23:43Z</time>
<desc>lat.=22.312740, lon.=103.766083, Alt.=2858.345703m. Speed=2.088000m/h.</desc>
<speed>0.580000</speed>
</trkpt>
<trkpt lat="22.312727" lon="103.766052">
<ele>2857.845703</ele>
<time>2011-04-24T06:23:48Z</time>
<desc>lat.=22.312727, lon.=103.766052, Alt.=2857.845703m. Speed=1.008000m/h.</desc>
<speed>0.280000</speed>
</trkpt>
<trkpt lat="22.312727" lon="103.766045">
<ele>2857.720703</ele>
<time>2011-04-24T06:23:53Z</time>
<desc>lat.=22.312727, lon.=103.766045, Alt.=2857.720703m. Speed=1.116000m/h.</desc>
<speed>0.310000</speed>
</trkpt>
<trkpt lat="22.312719" lon="103.766014">
<ele>2856.970703</ele>
<time>2011-04-24T06:23:58Z</time>
<desc>lat.=22.312719, lon.=103.766014, Alt.=2856.970703m. Speed=2.988000m/h.</desc>
<speed>0.830000</speed>
</trkpt>
<trkpt lat="22.312740" lon="103.765968">
<ele>2856.345703</ele>
<time>2011-04-24T06:24:03Z</time>
<desc>lat.=22.312740, lon.=103.765968, Alt.=2856.345703m. Speed=2.340000m/h.</desc>
<speed>0.650000</speed>
</trkpt>
<trkpt lat="22.312757" lon="103.765938">
<ele>2855.533203</ele>
<time>2011-04-24T06:24:08Z</time>
<desc>lat.=22.312757, lon.=103.765938, Alt.=2855.533203m. Speed=1.944000m/h.</desc>
<speed>0.540000</speed>
</trkpt>
<trkpt lat="22.312769" lon="103.765915">
<ele>2855.470703</ele>
<time>2011-04-24T06:24:13Z</time>
<desc>lat.=22.312769, lon.=103.765915, Alt.=2855.470703m. Speed=1.656000m/h.</desc>
<speed>0.460000</speed>
</trkpt>
<trkpt lat="22.312777" lon="103.765884">
<ele>2855.033203</ele>
<time>2011-04-24T06:24:18Z</time>
<desc>lat.=22.312777, lon.=103.765884, Alt.=2855.033203m. Speed=1.368000m/h.</desc>
<speed>0.380000</speed>
</trkpt>
<trkpt lat="22.312763" lon="103.765862">
<ele>2855.033203</ele>
<time>2011-04-24T06:24:23Z</time>
<desc>lat.=22.312763, lon.=103.765862, Alt.=2855.033203m. Speed=1.296000m/h.</desc>
<speed>0.360000</speed>
</trkpt>
<trkpt lat="22.312750" lon="103.765854">
<ele>2854.720703</ele>
<time>2011-04-24T06:24:28Z</time>
<desc>lat.=22.312750, lon.=103.765854, Alt.=2854.720703m. Speed=0.252000m/h.</desc>
<speed>0.070000</speed>
</trkpt>
<trkpt lat="22.312756" lon="103.765854">
<ele>2854.783203</ele>
<time>2011-04-24T06:24:33Z</time>
<desc>lat.=22.312756, lon.=103.765854, Alt.=2854.783203m. Speed=0.432000m/h.</desc>
<speed>0.120000</speed>
</trkpt>
<trkpt lat="22.312771" lon="103.765839">
<ele>2854.470703</ele>
<time>2011-04-24T06:24:38Z</time>
<desc>lat.=22.312771, lon.=103.765839, Alt.=2854.470703m. Speed=0.900000m/h.</desc>
<speed>0.250000</speed>
</trkpt>
<trkpt lat="22.312807" lon="103.765778">
<ele>2854.158203</ele>
<time>2011-04-24T06:24:43Z</time>
<desc>lat.=22.312807, lon.=103.765778, Alt.=2854.158203m. Speed=2.628000m/h.</desc>
<speed>0.730000</speed>
</trkpt>
<trkpt lat="22.312832" lon="103.765732">
<ele>2853.970703</ele>
<time>2011-04-24T06:24:48Z</time>
<desc>lat.=22.312832, lon.=103.765732, Alt.=2853.970703m. Speed=1.944000m/h.</desc>
<speed>0.540000</speed>
</trkpt>
<trkpt lat="22.312866" lon="103.765724">
<ele>2853.220703</ele>
<time>2011-04-24T06:24:53Z</time>
<desc>lat.=22.312866, lon.=103.765724, Alt.=2853.220703m. Speed=2.808000m/h.</desc>
<speed>0.780000</speed>
</trkpt>
<trkpt lat="22.312895" lon="103.765701">
<ele>2853.220703</ele>
<time>2011-04-24T06:24:58Z</time>
<desc>lat.=22.312895, lon.=103.765701, Alt.=2853.220703m. Speed=2.772000m/h.</desc>
<speed>0.770000</speed>
</trkpt>
<trkpt lat="22.312941" lon="103.765656">
<ele>2852.783203</ele>
<time>2011-04-24T06:25:03Z</time>
<desc>lat.=22.312941, lon.=103.765656, Alt.=2852.783203m. Speed=3.312000m/h.</desc>
<speed>0.920000</speed>
</trkpt>
<trkpt lat="22.312948" lon="103.765640">
<ele>2852.283203</ele>
<time>2011-04-24T06:25:08Z</time>
<desc>lat.=22.312948, lon.=103.765640, Alt.=2852.283203m. Speed=1.404000m/h.</desc>
<speed>0.390000</speed>
</trkpt>
<trkpt lat="22.312984" lon="103.765602">
<ele>2851.095703</ele>
<time>2011-04-24T06:25:13Z</time>
<desc>lat.=22.312984, lon.=103.765602, Alt.=2851.095703m. Speed=1.872000m/h.</desc>
<speed>0.520000</speed>
</trkpt>
<trkpt lat="22.312996" lon="103.765564">
<ele>2849.845703</ele>
<time>2011-04-24T06:25:18Z</time>
<desc>lat.=22.312996, lon.=103.765564, Alt.=2849.845703m. Speed=2.484000m/h.</desc>
<speed>0.690000</speed>
</trkpt>
<trkpt lat="22.312998" lon="103.765526">
<ele>2849.033203</ele>
<time>2011-04-24T06:25:23Z</time>
<desc>lat.=22.312998, lon.=103.765526, Alt.=2849.033203m. Speed=1.584000m/h.</desc>
<speed>0.440000</speed>
</trkpt>
<trkpt lat="22.313011" lon="103.765533">
<ele>2848.283203</ele>
<time>2011-04-24T06:25:28Z</time>
<desc>lat.=22.313011, lon.=103.765533, Alt.=2848.283203m. Speed=2.484000m/h.</desc>
<speed>0.690000</speed>
</trkpt>
<trkpt lat="22.313015" lon="103.765503">
<ele>2847.283203</ele>
<time>2011-04-24T06:25:33Z</time>
<desc>lat.=22.313015, lon.=103.765503, Alt.=2847.283203m. Speed=1.800000m/h.</desc>
<speed>0.500000</speed>
</trkpt>
<trkpt lat="22.313051" lon="103.765419">
<ele>2845.783203</ele>
<time>2011-04-24T06:25:38Z</time>
<desc>lat.=22.313051, lon.=103.765419, Alt.=2845.783203m. Speed=3.816000m/h.</desc>
<speed>1.060000</speed>
</trkpt>
<trkpt lat="22.313061" lon="103.765381">
<ele>2844.220703</ele>
<time>2011-04-24T06:25:43Z</time>
<desc>lat.=22.313061, lon.=103.765381, Alt.=2844.220703m. Speed=1.764000m/h.</desc>
<speed>0.490000</speed>
</trkpt>
<trkpt lat="22.313061" lon="103.765358">
<ele>2842.845703</ele>
<time>2011-04-24T06:25:48Z</time>
<desc>lat.=22.313061, lon.=103.765358, Alt.=2842.845703m. Speed=1.116000m/h.</desc>
<speed>0.310000</speed>
</trkpt>
<trkpt lat="22.313076" lon="103.765343">
<ele>2841.595703</ele>
<time>2011-04-24T06:25:53Z</time>
<desc>lat.=22.313076, lon.=103.765343, Alt.=2841.595703m. Speed=1.152000m/h.</desc>
<speed>0.320000</speed>
</trkpt>
<trkpt lat="22.313070" lon="103.765335">
<ele>2841.220703</ele>
<time>2011-04-24T06:25:58Z</time>
<desc>lat.=22.313070, lon.=103.765335, Alt.=2841.220703m. Speed=1.512000m/h.</desc>
<speed>0.420000</speed>
</trkpt>
<trkpt lat="22.313101" lon="103.765320">
<ele>2839.845703</ele>
<time>2011-04-24T06:26:03Z</time>
<desc>lat.=22.313101, lon.=103.765320, Alt.=2839.845703m. Speed=0.288000m/h.</desc>
<speed>0.080000</speed>
</trkpt>
<trkpt lat="22.313101" lon="103.765320">
<ele>2839.283203</ele>
<time>2011-04-24T06:26:08Z</time>
<desc>lat.=22.313101, lon.=103.765320, Alt.=2839.283203m. Speed=0.612000m/h.</desc>
<speed>0.170000</speed>
</trkpt>
<trkpt lat="22.313101" lon="103.765312">
<ele>2839.095703</ele>
<time>2011-04-24T06:26:13Z</time>
<desc>lat.=22.313101, lon.=103.765312, Alt.=2839.095703m. Speed=0.828000m/h.</desc>
<speed>0.230000</speed>
</trkpt>
<trkpt lat="22.313093" lon="103.765312">
<ele>2838.783203</ele>
<time>2011-04-24T06:26:18Z</time>
<desc>lat.=22.313093, lon.=103.765312, Alt.=2838.783203m. Speed=0.720000m/h.</desc>
<speed>0.200000</speed>
</trkpt>
<trkpt lat="22.313110" lon="103.765297">
<ele>2838.470703</ele>
<time>2011-04-24T06:26:23Z</time>
<desc>lat.=22.313110, lon.=103.765297, Alt.=2838.470703m. Speed=2.448000m/h.</desc>
<speed>0.680000</speed>
</trkpt>
<trkpt lat="22.313122" lon="103.765297">
<ele>2837.595703</ele>
<time>2011-04-24T06:26:28Z</time>
<desc>lat.=22.313122, lon.=103.765297, Alt.=2837.595703m. Speed=1.440000m/h.</desc>
<speed>0.400000</speed>
</trkpt>
<trkpt lat="22.313118" lon="103.765259">
<ele>2836.908203</ele>
<time>2011-04-24T06:26:33Z</time>
<desc>lat.=22.313118, lon.=103.765259, Alt.=2836.908203m. Speed=2.160000m/h.</desc>
<speed>0.600000</speed>
</trkpt>
<trkpt lat="22.313158" lon="103.765259">
<ele>2835.470703</ele>
<time>2011-04-24T06:26:38Z</time>
<desc>lat.=22.313158, lon.=103.765259, Alt.=2835.470703m. Speed=4.752000m/h.</desc>
<speed>1.320000</speed>
</trkpt>
<trkpt lat="22.313229" lon="103.765221">
<ele>2834.283203</ele>
<time>2011-04-24T06:26:43Z</time>
<desc>lat.=22.313229, lon.=103.765221, Alt.=2834.283203m. Speed=3.852000m/h.</desc>
<speed>1.070000</speed>
</trkpt>
<trkpt lat="22.313292" lon="103.765190">
<ele>2833.220703</ele>
<time>2011-04-24T06:26:48Z</time>
<desc>lat.=22.313292, lon.=103.765190, Alt.=2833.220703m. Speed=4.212000m/h.</desc>
<speed>1.170000</speed>
</trkpt>
<trkpt lat="22.313305" lon="103.765205">
<ele>2831.970703</ele>
<time>2011-04-24T06:26:53Z</time>
<desc>lat.=22.313305, lon.=103.765205, Alt.=2831.970703m. Speed=0.576000m/h.</desc>
<speed>0.160000</speed>
</trkpt>
<trkpt lat="22.313305" lon="103.765236">
<ele>2829.470703</ele>
<time>2011-04-24T06:26:58Z</time>
<desc>lat.=22.313305, lon.=103.765236, Alt.=2829.470703m. Speed=2.160000m/h.</desc>
<speed>0.600000</speed>
</trkpt>
<trkpt lat="22.313305" lon="103.765244">
<ele>2827.345703</ele>
<time>2011-04-24T06:27:03Z</time>
<desc>lat.=22.313305, lon.=103.765244, Alt.=2827.345703m. Speed=2.232000m/h.</desc>
<speed>0.620000</speed>
</trkpt>
<trkpt lat="22.313316" lon="103.765259">
<ele>2825.470703</ele>
<time>2011-04-24T06:27:08Z</time>
<desc>lat.=22.313316, lon.=103.765259, Alt.=2825.470703m. Speed=1.512000m/h.</desc>
<speed>0.420000</speed>
</trkpt>
<trkpt lat="22.313334" lon="103.765266">
<ele>2824.345703</ele>
<time>2011-04-24T06:27:13Z</time>
<desc>lat.=22.313334, lon.=103.765266, Alt.=2824.345703m. Speed=1.404000m/h.</desc>
<speed>0.390000</speed>
</trkpt>
<trkpt lat="22.313353" lon="103.765282">
<ele>2823.408203</ele>
<time>2011-04-24T06:27:18Z</time>
<desc>lat.=22.313353, lon.=103.765282, Alt.=2823.408203m. Speed=1.620000m/h.</desc>
<speed>0.450000</speed>
</trkpt>
<trkpt lat="22.313387" lon="103.765297">
<ele>2821.533203</ele>
<time>2011-04-24T06:27:23Z</time>
<desc>lat.=22.313387, lon.=103.765297, Alt.=2821.533203m. Speed=1.836000m/h.</desc>
<speed>0.510000</speed>
</trkpt>
<trkpt lat="22.313406" lon="103.765327">
<ele>2819.408203</ele>
<time>2011-04-24T06:27:28Z</time>
<desc>lat.=22.313406, lon.=103.765327, Alt.=2819.408203m. Speed=1.368000m/h.</desc>
<speed>0.380000</speed>
</trkpt>
<trkpt lat="22.313406" lon="103.765343">
<ele>2818.345703</ele>
<time>2011-04-24T06:27:33Z</time>
<desc>lat.=22.313406, lon.=103.765343, Alt.=2818.345703m. Speed=1.836000m/h.</desc>
<speed>0.510000</speed>
</trkpt>
<trkpt lat="22.313427" lon="103.765366">
<ele>2817.095703</ele>
<time>2011-04-24T06:27:38Z</time>
<desc>lat.=22.313427, lon.=103.765366, Alt.=2817.095703m. Speed=1.944000m/h.</desc>
<speed>0.540000</speed>
</trkpt>
<trkpt lat="22.313450" lon="103.765373">
<ele>2816.658203</ele>
<time>2011-04-24T06:27:43Z</time>
<desc>lat.=22.313450, lon.=103.765373, Alt.=2816.658203m. Speed=1.764000m/h.</desc>
<speed>0.490000</speed>
</trkpt>
<trkpt lat="22.313461" lon="103.765396">
<ele>2816.158203</ele>
<time>2011-04-24T06:27:48Z</time>
<desc>lat.=22.313461, lon.=103.765396, Alt.=2816.158203m. Speed=0.540000m/h.</desc>
<speed>0.150000</speed>
</trkpt>
<trkpt lat="22.313465" lon="103.765388">
<ele>2815.095703</ele>
<time>2011-04-24T06:27:53Z</time>
<desc>lat.=22.313465, lon.=103.765388, Alt.=2815.095703m. Speed=0.504000m/h.</desc>
<speed>0.140000</speed>
</trkpt>
<trkpt lat="22.313471" lon="103.765388">
<ele>2814.345703</ele>
<time>2011-04-24T06:27:58Z</time>
<desc>lat.=22.313471, lon.=103.765388, Alt.=2814.345703m. Speed=0.612000m/h.</desc>
<speed>0.170000</speed>
</trkpt>
<trkpt lat="22.313478" lon="103.765388">
<ele>2813.533203</ele>
<time>2011-04-24T06:28:03Z</time>
<desc>lat.=22.313478, lon.=103.765388, Alt.=2813.533203m. Speed=1.152000m/h.</desc>
<speed>0.320000</speed>
</trkpt>
<trkpt lat="22.313509" lon="103.765427">
<ele>2812.158203</ele>
<time>2011-04-24T06:28:08Z</time>
<desc>lat.=22.313509, lon.=103.765427, Alt.=2812.158203m. Speed=1.728000m/h.</desc>
<speed>0.480000</speed>
</trkpt>
<trkpt lat="22.313555" lon="103.765480">
<ele>2811.658203</ele>
<time>2011-04-24T06:28:13Z</time>
<desc>lat.=22.313555, lon.=103.765480, Alt.=2811.658203m. Speed=1.944000m/h.</desc>
<speed>0.540000</speed>
</trkpt>
<trkpt lat="22.313585" lon="103.765480">
<ele>2810.095703</ele>
<time>2011-04-24T06:28:18Z</time>
<desc>lat.=22.313585, lon.=103.765480, Alt.=2810.095703m. Speed=2.016000m/h.</desc>
<speed>0.560000</speed>
</trkpt>
<trkpt lat="22.313589" lon="103.765511">
<ele>2809.595703</ele>
<time>2011-04-24T06:28:23Z</time>
<desc>lat.=22.313589, lon.=103.765511, Alt.=2809.595703m. Speed=1.044000m/h.</desc>
<speed>0.290000</speed>
</trkpt>
<trkpt lat="22.313583" lon="103.765533">
<ele>2809.220703</ele>
<time>2011-04-24T06:28:28Z</time>
<desc>lat.=22.313583, lon.=103.765533, Alt.=2809.220703m. Speed=0.900000m/h.</desc>
<speed>0.250000</speed>
</trkpt>
<trkpt lat="22.313589" lon="103.765541">
<ele>2808.283203</ele>
<time>2011-04-24T06:28:33Z</time>
<desc>lat.=22.313589, lon.=103.765541, Alt.=2808.283203m. Speed=0.612000m/h.</desc>
<speed>0.170000</speed>
</trkpt>
<trkpt lat="22.313622" lon="103.765556">
<ele>2807.908203</ele>
<time>2011-04-24T06:28:38Z</time>
<desc>lat.=22.313622, lon.=103.765556, Alt.=2807.908203m. Speed=0.756000m/h.</desc>
<speed>0.210000</speed>
</trkpt>
<trkpt lat="22.313620" lon="103.765549">
<ele>2807.533203</ele>
<time>2011-04-24T06:28:43Z</time>
<desc>lat.=22.313620, lon.=103.765549, Alt.=2807.533203m. Speed=0.360000m/h.</desc>
<speed>0.100000</speed>
</trkpt>
<trkpt lat="22.313644" lon="103.765549">
<ele>2806.595703</ele>
<time>2011-04-24T06:28:48Z</time>
<desc>lat.=22.313644, lon.=103.765549, Alt.=2806.595703m. Speed=2.196000m/h.</desc>
<speed>0.610000</speed>
</trkpt>
<trkpt lat="22.313679" lon="103.765579">
<ele>2805.783203</ele>
<time>2011-04-24T06:28:53Z</time>
<desc>lat.=22.313679, lon.=103.765579, Alt.=2805.783203m. Speed=2.304000m/h.</desc>
<speed>0.640000</speed>
</trkpt>
<trkpt lat="22.313700" lon="103.765564">
<ele>2804.845703</ele>
<time>2011-04-24T06:28:58Z</time>
<desc>lat.=22.313700, lon.=103.765564, Alt.=2804.845703m. Speed=0.972000m/h.</desc>
<speed>0.270000</speed>
</trkpt>
<trkpt lat="22.313707" lon="103.765556">
<ele>2804.658203</ele>
<time>2011-04-24T06:29:03Z</time>
<desc>lat.=22.313707, lon.=103.765556, Alt.=2804.658203m. Speed=1.548000m/h.</desc>
<speed>0.430000</speed>
</trkpt>
<trkpt lat="22.313732" lon="103.765572">
<ele>2803.595703</ele>
<time>2011-04-24T06:29:08Z</time>
<desc>lat.=22.313732, lon.=103.765572, Alt.=2803.595703m. Speed=1.152000m/h.</desc>
<speed>0.320000</speed>
</trkpt>
<trkpt lat="22.313755" lon="103.765541">
<ele>2802.720703</ele>
<time>2011-04-24T06:29:13Z</time>
<desc>lat.=22.313755, lon.=103.765541, Alt.=2802.720703m. Speed=1.980000m/h.</desc>
<speed>0.550000</speed>
</trkpt>
<trkpt lat="22.313786" lon="103.765526">
<ele>2802.033203</ele>
<time>2011-04-24T06:29:18Z</time>
<desc>lat.=22.313786, lon.=103.765526, Alt.=2802.033203m. Speed=2.376000m/h.</desc>
<speed>0.660000</speed>
</trkpt>
<trkpt lat="22.313784" lon="103.765480">
<ele>2800.908203</ele>
<time>2011-04-24T06:29:23Z</time>
<desc>lat.=22.313784, lon.=103.765480, Alt.=2800.908203m. Speed=2.412000m/h.</desc>
<speed>0.670000</speed>
</trkpt>
<trkpt lat="22.313807" lon="103.765434">
<ele>2799.970703</ele>
<time>2011-04-24T06:29:28Z</time>
<desc>lat.=22.313807, lon.=103.765434, Alt.=2799.970703m. Speed=2.700000m/h.</desc>
<speed>0.750000</speed>
</trkpt>
<trkpt lat="22.313812" lon="103.765388">
<ele>2798.220703</ele>
<time>2011-04-24T06:29:33Z</time>
<desc>lat.=22.313812, lon.=103.765388, Alt.=2798.220703m. Speed=1.152000m/h.</desc>
<speed>0.320000</speed>
</trkpt>
<trkpt lat="22.313826" lon="103.765381">
<ele>2797.908203</ele>
<time>2011-04-24T06:29:38Z</time>
<desc>lat.=22.313826, lon.=103.765381, Alt.=2797.908203m. Speed=2.880000m/h.</desc>
<speed>0.800000</speed>
</trkpt>
<trkpt lat="22.313845" lon="103.765358">
<ele>2796.095703</ele>
<time>2011-04-24T06:29:43Z</time>
<desc>lat.=22.313845, lon.=103.765358, Alt.=2796.095703m. Speed=1.116000m/h.</desc>
<speed>0.310000</speed>
</trkpt>
<trkpt lat="22.313829" lon="103.765358">
<ele>2796.658203</ele>
<time>2011-04-24T06:29:48Z</time>
<desc>lat.=22.313829, lon.=103.765358, Alt.=2796.658203m. Speed=1.872000m/h.</desc>
<speed>0.520000</speed>
</trkpt>
<trkpt lat="22.313828" lon="103.765350">
<ele>2796.033203</ele>
<time>2011-04-24T06:29:53Z</time>
<desc>lat.=22.313828, lon.=103.765350, Alt.=2796.033203m. Speed=0.324000m/h.</desc>
<speed>0.090000</speed>
</trkpt>
<trkpt lat="22.313848" lon="103.765350">
<ele>2795.845703</ele>
<time>2011-04-24T06:29:58Z</time>
<desc>lat.=22.313848, lon.=103.765350, Alt.=2795.845703m. Speed=2.664000m/h.</desc>
<speed>0.740000</speed>
</trkpt>
<trkpt lat="22.313883" lon="103.765350">
<ele>2795.845703</ele>
<time>2011-04-24T06:30:03Z</time>
<desc>lat.=22.313883, lon.=103.765350, Alt.=2795.845703m. Speed=3.312000m/h.</desc>
<speed>0.920000</speed>
</trkpt>
<trkpt lat="22.313915" lon="103.765366">
<ele>2795.033203</ele>
<time>2011-04-24T06:30:08Z</time>
<desc>lat.=22.313915, lon.=103.765366, Alt.=2795.033203m. Speed=2.196000m/h.</desc>
<speed>0.610000</speed>
</trkpt>
<trkpt lat="22.313927" lon="103.765350">
<ele>2795.408203</ele>
<time>2011-04-24T06:30:13Z</time>
<desc>lat.=22.313927, lon.=103.765350, Alt.=2795.408203m. Speed=1.872000m/h.</desc>
<speed>0.520000</speed>
</trkpt>
<trkpt lat="22.313946" lon="103.765358">
<ele>2795.033203</ele>
<time>2011-04-24T06:30:18Z</time>
<desc>lat.=22.313946, lon.=103.765358, Alt.=2795.033203m. Speed=1.296000m/h.</desc>
<speed>0.360000</speed>
</trkpt>
<trkpt lat="22.313971" lon="103.765396">
<ele>2794.220703</ele>
<time>2011-04-24T06:30:23Z</time>
<desc>lat.=22.313971, lon.=103.765396, Alt.=2794.220703m. Speed=1.404000m/h.</desc>
<speed>0.390000</speed>
</trkpt>
<trkpt lat="22.313999" lon="103.765419">
<ele>2792.970703</ele>
<time>2011-04-24T06:30:28Z</time>
<desc>lat.=22.313999, lon.=103.765419, Alt.=2792.970703m. Speed=2.124000m/h.</desc>
<speed>0.590000</speed>
</trkpt>
<trkpt lat="22.314026" lon="103.765373">
<ele>2793.095703</ele>
<time>2011-04-24T06:30:33Z</time>
<desc>lat.=22.314026, lon.=103.765373, Alt.=2793.095703m. Speed=1.620000m/h.</desc>
<speed>0.450000</speed>
</trkpt>
<trkpt lat="22.314074" lon="103.765366">
<ele>2793.095703</ele>
<time>2011-04-24T06:30:38Z</time>
<desc>lat.=22.314074, lon.=103.765366, Alt.=2793.095703m. Speed=3.168000m/h.</desc>
<speed>0.880000</speed>
</trkpt>
<trkpt lat="22.314100" lon="103.765358">
<ele>2793.095703</ele>
<time>2011-04-24T06:30:43Z</time>
<desc>lat.=22.314100, lon.=103.765358, Alt.=2793.095703m. Speed=2.340000m/h.</desc>
<speed>0.650000</speed>
</trkpt>
<trkpt lat="22.314146" lon="103.765434">
<ele>2792.845703</ele>
<time>2011-04-24T06:30:48Z</time>
<desc>lat.=22.314146, lon.=103.765434, Alt.=2792.845703m. Speed=3.060000m/h.</desc>
<speed>0.850000</speed>
</trkpt>
<trkpt lat="22.314173" lon="103.765411">
<ele>2792.783203</ele>
<time>2011-04-24T06:30:53Z</time>
<desc>lat.=22.314173, lon.=103.765411, Alt.=2792.783203m. Speed=2.844000m/h.</desc>
<speed>0.790000</speed>
</trkpt>
<trkpt lat="22.314251" lon="103.765434">
<ele>2795.158203</ele>
<time>2011-04-24T06:30:58Z</time>
<desc>lat.=22.314251, lon.=103.765434, Alt.=2795.158203m. Speed=4.248000m/h.</desc>
<speed>1.180000</speed>
</trkpt>
<trkpt lat="22.314287" lon="103.765442">
<ele>2794.220703</ele>
<time>2011-04-24T06:31:03Z</time>
<desc>lat.=22.314287, lon.=103.765442, Alt.=2794.220703m. Speed=2.376000m/h.</desc>
<speed>0.660000</speed>
</trkpt>
<trkpt lat="22.314316" lon="103.765450">
<ele>2794.595703</ele>
<time>2011-04-24T06:31:08Z</time>
<desc>lat.=22.314316, lon.=103.765450, Alt.=2794.595703m. Speed=2.556000m/h.</desc>
<speed>0.710000</speed>
</trkpt>
<trkpt lat="22.314352" lon="103.765465">
<ele>2792.533203</ele>
<time>2011-04-24T06:31:13Z</time>
<desc>lat.=22.314352, lon.=103.765465, Alt.=2792.533203m. Speed=2.016000m/h.</desc>
<speed>0.560000</speed>
</trkpt>
<trkpt lat="22.314409" lon="103.765488">
<ele>2789.595703</ele>
<time>2011-04-24T06:31:18Z</time>
<desc>lat.=22.314409, lon.=103.765488, Alt.=2789.595703m. Speed=2.268000m/h.</desc>
<speed>0.630000</speed>
</trkpt>
<trkpt lat="22.314453" lon="103.765518">
<ele>2788.783203</ele>
<time>2011-04-24T06:31:23Z</time>
<desc>lat.=22.314453, lon.=103.765518, Alt.=2788.783203m. Speed=4.752000m/h.</desc>
<speed>1.320000</speed>
</trkpt>
<trkpt lat="22.314480" lon="103.765549">
<ele>2789.220703</ele>
<time>2011-04-24T06:31:28Z</time>
<desc>lat.=22.314480, lon.=103.765549, Alt.=2789.220703m. Speed=2.268000m/h.</desc>
<speed>0.630000</speed>
</trkpt>
<trkpt lat="22.314508" lon="103.765579">
<ele>2786.283203</ele>
<time>2011-04-24T06:31:33Z</time>
<desc>lat.=22.314508, lon.=103.765579, Alt.=2786.283203m. Speed=1.872000m/h.</desc>
<speed>0.520000</speed>
</trkpt>
<trkpt lat="22.314541" lon="103.765617">
<ele>2782.720703</ele>
<time>2011-04-24T06:31:38Z</time>
<desc>lat.=22.314541, lon.=103.765617, Alt.=2782.720703m. Speed=3.492000m/h.</desc>
<speed>0.970000</speed>
</trkpt>
<trkpt lat="22.314554" lon="103.765648">
<ele>2781.720703</ele>
<time>2011-04-24T06:31:43Z</time>
<desc>lat.=22.314554, lon.=103.765648, Alt.=2781.720703m. Speed=4.608000m/h.</desc>
<speed>1.280000</speed>
</trkpt>
<trkpt lat="22.314556" lon="103.765694">
<ele>2780.970703</ele>
<time>2011-04-24T06:31:48Z</time>
<desc>lat.=22.314556, lon.=103.765694, Alt.=2780.970703m. Speed=1.008000m/h.</desc>
<speed>0.280000</speed>
</trkpt>
<trkpt lat="22.314566" lon="103.765694">
<ele>2780.533203</ele>
<time>2011-04-24T06:31:53Z</time>
<desc>lat.=22.314566, lon.=103.765694, Alt.=2780.533203m. Speed=2.052000m/h.</desc>
<speed>0.570000</speed>
</trkpt>
<trkpt lat="22.314577" lon="103.765701">
<ele>2780.033203</ele>
<time>2011-04-24T06:31:58Z</time>
<desc>lat.=22.314577, lon.=103.765701, Alt.=2780.033203m. Speed=1.044000m/h.</desc>
<speed>0.290000</speed>
</trkpt>
<trkpt lat="22.314575" lon="103.765701">
<ele>2780.033203</ele>
<time>2011-04-24T06:32:03Z</time>
<desc>lat.=22.314575, lon.=103.765701, Alt.=2780.033203m. Speed=0.180000m/h.</desc>
<speed>0.050000</speed>
</trkpt>
<trkpt lat="22.314571" lon="103.765694">
<ele>2779.845703</ele>
<time>2011-04-24T06:32:08Z</time>
<desc>lat.=22.314571, lon.=103.765694, Alt.=2779.845703m. Speed=0.936000m/h.</desc>
<speed>0.260000</speed>
</trkpt>
<trkpt lat="22.314552" lon="103.765678">
<ele>2780.033203</ele>
<time>2011-04-24T06:32:13Z</time>
<desc>lat.=22.314552, lon.=103.765678, Alt.=2780.033203m. Speed=1.908000m/h.</desc>
<speed>0.530000</speed>
</trkpt>
<trkpt lat="22.314564" lon="103.765663">
<ele>2779.970703</ele>
<time>2011-04-24T06:32:18Z</time>
<desc>lat.=22.314564, lon.=103.765663, Alt.=2779.970703m. Speed=1.368000m/h.</desc>
<speed>0.380000</speed>
</trkpt>
<trkpt lat="22.314568" lon="103.765663">
<ele>2781.158203</ele>
<time>2011-04-24T06:32:23Z</time>
<desc>lat.=22.314568, lon.=103.765663, Alt.=2781.158203m. Speed=0.864000m/h.</desc>
<speed>0.240000</speed>
</trkpt>
<trkpt lat="22.314571" lon="103.765663">
<ele>2781.158203</ele>
<time>2011-04-24T06:32:28Z</time>
<desc>lat.=22.314571, lon.=103.765663, Alt.=2781.158203m. Speed=0.000000m/h.</desc>
<speed>0.000000</speed>
</trkpt>
<trkpt lat="22.314571" lon="103.765663">
<ele>2781.095703</ele>
<time>2011-04-24T06:32:33Z</time>
<desc>lat.=22.314571, lon.=103.765663, Alt.=2781.095703m. Speed=0.108000m/h.</desc>
<speed>0.030000</speed>
</trkpt>
<trkpt lat="22.314573" lon="103.765663">
<ele>2781.158203</ele>
<time>2011-04-24T06:32:38Z</time>
<desc>lat.=22.314573, lon.=103.765663, Alt.=2781.158203m. Speed=0.036000m/h.</desc>
<speed>0.010000</speed>
</trkpt>
<trkpt lat="22.314573" lon="103.765663">
<ele>2781.220703</ele>
<time>2011-04-24T06:32:43Z</time>
<desc>lat.=22.314573, lon.=103.765663, Alt.=2781.220703m. Speed=0.036000m/h.</desc>
<speed>0.010000</speed>
</trkpt>
<trkpt lat="22.314573" lon="103.765663">
<ele>2781.220703</ele>
<time>2011-04-24T06:32:48Z</time>
<desc>lat.=22.314573, lon.=103.765663, Alt.=2781.220703m. Speed=0.036000m/h.</desc>
<speed>0.010000</speed>
</trkpt>
<trkpt lat="22.314573" lon="103.765663">
<ele>2781.158203</ele>
<time>2011-04-24T06:32:53Z</time>
<desc>lat.=22.314573, lon.=103.765663, Alt.=2781.158203m. Speed=0.252000m/h.</desc>
<speed>0.070000</speed>
</trkpt>
<trkpt lat="22.314573" lon="103.765663">
<ele>2781.158203</ele>
<time>2011-04-24T06:32:58Z</time>
<desc>lat.=22.314573, lon.=103.765663, Alt.=2781.158203m. Speed=0.252000m/h.</desc>
<speed>0.070000</speed>
</trkpt>
<trkpt lat="22.314571" lon="103.765656">
<ele>2781.158203</ele>
<time>2011-04-24T06:33:03Z</time>
<desc>lat.=22.314571, lon.=103.765656, Alt.=2781.158203m. Speed=0.216000m/h.</desc>
<speed>0.060000</speed>
</trkpt>
<trkpt lat="22.314562" lon="103.765671">
<ele>2781.470703</ele>
<time>2011-04-24T06:33:08Z</time>
<desc>lat.=22.314562, lon.=103.765671, Alt.=2781.470703m. Speed=0.936000m/h.</desc>
<speed>0.260000</speed>
</trkpt>
<trkpt lat="22.314566" lon="103.765686">
<ele>2782.095703</ele>
<time>2011-04-24T06:33:13Z</time>
<desc>lat.=22.314566, lon.=103.765686, Alt.=2782.095703m. Speed=1.620000m/h.</desc>
<speed>0.450000</speed>
</trkpt>
<trkpt lat="22.314571" lon="103.765686">
<ele>2782.595703</ele>
<time>2011-04-24T06:33:18Z</time>
<desc>lat.=22.314571, lon.=103.765686, Alt.=2782.595703m. Speed=0.792000m/h.</desc>
<speed>0.220000</speed>
</trkpt>
<trkpt lat="22.314568" lon="103.765686">
<ele>2782.720703</ele>
<time>2011-04-24T06:33:23Z</time>
<desc>lat.=22.314568, lon.=103.765686, Alt.=2782.720703m. Speed=0.864000m/h.</desc>
<speed>0.240000</speed>
</trkpt>
<trkpt lat="22.314568" lon="103.765671">
<ele>2783.095703</ele>
<time>2011-04-24T06:33:28Z</time>
<desc>lat.=22.314568, lon.=103.765671, Alt.=2783.095703m. Speed=1.044000m/h.</desc>
<speed>0.290000</speed>
</trkpt>
<trkpt lat="22.314568" lon="103.765678">
<ele>2784.283203</ele>
<time>2011-04-24T06:33:33Z</time>
<desc>lat.=22.314568, lon.=103.765678, Alt.=2784.283203m. Speed=0.540000m/h.</desc>
<speed>0.150000</speed>
</trkpt>
<trkpt lat="22.314573" lon="103.765671">
<ele>2784.408203</ele>
<time>2011-04-24T06:33:38Z</time>
<desc>lat.=22.314573, lon.=103.765671, Alt.=2784.408203m. Speed=0.108000m/h.</desc>
<speed>0.030000</speed>
</trkpt>
<trkpt lat="22.314573" lon="103.765671">
<ele>2784.533203</ele>
<time>2011-04-24T06:33:43Z</time>
<desc>lat.=22.314573, lon.=103.765671, Alt.=2784.533203m. Speed=0.396000m/h.</desc>
<speed>0.110000</speed>
</trkpt>
<trkpt lat="22.314571" lon="103.765663">
<ele>2784.595703</ele>
<time>2011-04-24T06:33:48Z</time>
<desc>lat.=22.314571, lon.=103.765663, Alt.=2784.595703m. Speed=0.720000m/h.</desc>
<speed>0.200000</speed>
</trkpt>
<trkpt lat="22.314577" lon="103.765656">
<ele>2784.783203</ele>
<time>2011-04-24T06:33:53Z</time>
<desc>lat.=22.314577, lon.=103.765656, Alt.=2784.783203m. Speed=0.576000m/h.</desc>
<speed>0.160000</speed>
</trkpt>
<trkpt lat="22.314568" lon="103.765656">
<ele>2784.783203</ele>
<time>2011-04-24T06:33:58Z</time>
<desc>lat.=22.314568, lon.=103.765656, Alt.=2784.783203m. Speed=0.432000m/h.</desc>
<speed>0.120000</speed>
</trkpt>
<trkpt lat="22.314560" lon="103.765648">
<ele>2784.783203</ele>
<time>2011-04-24T06:34:03Z</time>
<desc>lat.=22.314560, lon.=103.765648, Alt.=2784.783203m. Speed=0.864000m/h.</desc>
<speed>0.240000</speed>
</trkpt>
<trkpt lat="22.314554" lon="103.765656">
<ele>2784.783203</ele>
<time>2011-04-24T06:34:08Z</time>
<desc>lat.=22.314554, lon.=103.765656, Alt.=2784.783203m. Speed=0.648000m/h.</desc>
<speed>0.180000</speed>
</trkpt>
<trkpt lat="22.314552" lon="103.765663">
<ele>2784.783203</ele>
<time>2011-04-24T06:34:13Z</time>
<desc>lat.=22.314552, lon.=103.765663, Alt.=2784.783203m. Speed=0.180000m/h.</desc>
<speed>0.050000</speed>
</trkpt>
<trkpt lat="22.314545" lon="103.765663">
<ele>2784.783203</ele>
<time>2011-04-24T06:34:18Z</time>
<desc>lat.=22.314545, lon.=103.765663, Alt.=2784.783203m. Speed=1.188000m/h.</desc>
<speed>0.330000</speed>
</trkpt>
<trkpt lat="22.314537" lon="103.765625">
<ele>2784.908203</ele>
<time>2011-04-24T06:34:23Z</time>
<desc>lat.=22.314537, lon.=103.765625, Alt.=2784.908203m. Speed=0.900000m/h.</desc>
<speed>0.250000</speed>
</trkpt>
<trkpt lat="22.314541" lon="103.765610">
<ele>2784.908203</ele>
<time>2011-04-24T06:34:28Z</time>
<desc>lat.=22.314541, lon.=103.765610, Alt.=2784.908203m. Speed=0.756000m/h.</desc>
<speed>0.210000</speed>
</trkpt>
<trkpt lat="22.314537" lon="103.765602">
<ele>2784.908203</ele>
<time>2011-04-24T06:34:33Z</time>
<desc>lat.=22.314537, lon.=103.765602, Alt.=2784.908203m. Speed=0.144000m/h.</desc>
<speed>0.040000</speed>
</trkpt>
<trkpt lat="22.314535" lon="103.765602">
<ele>2784.908203</ele>
<time>2011-04-24T06:34:38Z</time>
<desc>lat.=22.314535, lon.=103.765602, Alt.=2784.908203m. Speed=0.720000m/h.</desc>
<speed>0.200000</speed>
</trkpt>
<trkpt lat="22.314526" lon="103.765610">
<ele>2784.908203</ele>
<time>2011-04-24T06:34:43Z</time>
<desc>lat.=22.314526, lon.=103.765610, Alt.=2784.908203m. Speed=0.936000m/h.</desc>
<speed>0.260000</speed>
</trkpt>
<trkpt lat="22.314554" lon="103.765610">
<ele>2784.720703</ele>
<time>2011-04-24T06:34:48Z</time>
<desc>lat.=22.314554, lon.=103.765610, Alt.=2784.720703m. Speed=0.612000m/h.</desc>
<speed>0.170000</speed>
</trkpt>
<trkpt lat="22.314554" lon="103.765610">
<ele>2784.720703</ele>
<time>2011-04-24T06:34:53Z</time>
<desc>lat.=22.314554, lon.=103.765610, Alt.=2784.720703m. Speed=0.900000m/h.</desc>
<speed>0.250000</speed>
</trkpt>
<trkpt lat="22.314543" lon="103.765579">
<ele>2784.720703</ele>
<time>2011-04-24T06:34:58Z</time>
<desc>lat.=22.314543, lon.=103.765579, Alt.=2784.720703m. Speed=0.864000m/h.</desc>
<speed>0.240000</speed>
</trkpt>
<trkpt lat="22.314520" lon="103.765587">
<ele>2784.783203</ele>
<time>2011-04-24T06:35:03Z</time>
<desc>lat.=22.314520, lon.=103.765587, Alt.=2784.783203m. Speed=0.684000m/h.</desc>
<speed>0.190000</speed>
</trkpt>
<trkpt lat="22.314520" lon="103.765587">
<ele>2784.783203</ele>
<time>2011-04-24T06:35:08Z</time>
<desc>lat.=22.314520, lon.=103.765587, Alt.=2784.783203m. Speed=0.432000m/h.</desc>
<speed>0.120000</speed>
</trkpt>
<trkpt lat="22.314516" lon="103.765587">
<ele>2784.783203</ele>
<time>2011-04-24T06:35:13Z</time>
<desc>lat.=22.314516, lon.=103.765587, Alt.=2784.783203m. Speed=0.288000m/h.</desc>
<speed>0.080000</speed>
</trkpt>
<trkpt lat="22.314520" lon="103.765594">
<ele>2784.783203</ele>
<time>2011-04-24T06:35:18Z</time>
<desc>lat.=22.314520, lon.=103.765594, Alt.=2784.783203m. Speed=0.540000m/h.</desc>
<speed>0.150000</speed>
</trkpt>
<trkpt lat="22.314537" lon="103.765610">
<ele>2784.658203</ele>
<time>2011-04-24T06:35:23Z</time>
<desc>lat.=22.314537, lon.=103.765610, Alt.=2784.658203m. Speed=0.792000m/h.</desc>
<speed>0.220000</speed>
</trkpt>
<trkpt lat="22.314541" lon="103.765625">
<ele>2784.470703</ele>
<time>2011-04-24T06:35:28Z</time>
<desc>lat.=22.314541, lon.=103.765625, Alt.=2784.470703m. Speed=0.252000m/h.</desc>
<speed>0.070000</speed>
</trkpt>
<trkpt lat="22.314518" lon="103.765617">
<ele>2784.470703</ele>
<time>2011-04-24T06:35:33Z</time>
<desc>lat.=22.314518, lon.=103.765617, Alt.=2784.470703m. Speed=1.980000m/h.</desc>
<speed>0.550000</speed>
</trkpt>
<trkpt lat="22.314528" lon="103.765633">
<ele>2784.408203</ele>
<time>2011-04-24T06:35:38Z</time>
<desc>lat.=22.314528, lon.=103.765633, Alt.=2784.408203m. Speed=0.504000m/h.</desc>
<speed>0.140000</speed>
</trkpt>
<trkpt lat="22.314541" lon="103.765633">
<ele>2784.345703</ele>
<time>2011-04-24T06:35:43Z</time>
<desc>lat.=22.314541, lon.=103.765633, Alt.=2784.345703m. Speed=1.764000m/h.</desc>
<speed>0.490000</speed>
</trkpt>
<trkpt lat="22.314548" lon="103.765663">
<ele>2784.283203</ele>
<time>2011-04-24T06:35:48Z</time>
<desc>lat.=22.314548, lon.=103.765663, Alt.=2784.283203m. Speed=1.440000m/h.</desc>
<speed>0.400000</speed>
</trkpt>
<trkpt lat="22.314550" lon="103.765656">
<ele>2784.158203</ele>
<time>2011-04-24T06:35:53Z</time>
<desc>lat.=22.314550, lon.=103.765656, Alt.=2784.158203m. Speed=0.216000m/h.</desc>
<speed>0.060000</speed>
</trkpt>
<trkpt lat="22.314564" lon="103.765656">
<ele>2784.095703</ele>
<time>2011-04-24T06:35:58Z</time>
<desc>lat.=22.314564, lon.=103.765656, Alt.=2784.095703m. Speed=0.648000m/h.</desc>
<speed>0.180000</speed>
</trkpt>
<trkpt lat="22.314562" lon="103.765640">
<ele>2784.158203</ele>
<time>2011-04-24T06:36:03Z</time>
<desc>lat.=22.314562, lon.=103.765640, Alt.=2784.158203m. Speed=1.512000m/h.</desc>
<speed>0.420000</speed>
</trkpt>
<trkpt lat="22.314592" lon="103.765640">
<ele>2784.283203</ele>
<time>2011-04-24T06:36:08Z</time>
<desc>lat.=22.314592, lon.=103.765640, Alt.=2784.283203m. Speed=0.684000m/h.</desc>
<speed>0.190000</speed>
</trkpt>
<trkpt lat="22.314594" lon="103.765625">
<ele>2784.283203</ele>
<time>2011-04-24T06:36:13Z</time>
<desc>lat.=22.314594, lon.=103.765625, Alt.=2784.283203m. Speed=1.044000m/h.</desc>
<speed>0.290000</speed>
</trkpt>
<trkpt lat="22.314585" lon="103.765610">
<ele>2784.220703</ele>
<time>2011-04-24T06:36:18Z</time>
<desc>lat.=22.314585, lon.=103.765610, Alt.=2784.220703m. Speed=0.900000m/h.</desc>
<speed>0.250000</speed>
</trkpt>
<trkpt lat="22.314566" lon="103.765602">
<ele>2784.158203</ele>
<time>2011-04-24T06:36:23Z</time>
<desc>lat.=22.314566, lon.=103.765602, Alt.=2784.158203m. Speed=0.900000m/h.</desc>
<speed>0.250000</speed>
</trkpt>
<trkpt lat="22.314552" lon="103.765594">
<ele>2784.095703</ele>
<time>2011-04-24T06:36:28Z</time>
<desc>lat.=22.314552, lon.=103.765594, Alt.=2784.095703m. Speed=0.612000m/h.</desc>
<speed>0.170000</speed>
</trkpt>
<trkpt lat="22.314541" lon="103.765602">
<ele>2784.095703</ele>
<time>2011-04-24T06:36:33Z</time>
<desc>lat.=22.314541, lon.=103.765602, Alt.=2784.095703m. Speed=1.368000m/h.</desc>
<speed>0.380000</speed>
</trkpt>
<trkpt lat="22.314535" lon="103.765625">
<ele>2784.220703</ele>
<time>2011-04-24T06:36:38Z</time>
<desc>lat.=22.314535, lon.=103.765625, Alt.=2784.220703m. Speed=1.188000m/h.</desc>
<speed>0.330000</speed>
</trkpt>
<trkpt lat="22.314522" lon="103.765656">
<ele>2784.345703</ele>
<time>2011-04-24T06:36:43Z</time>
<desc>lat.=22.314522, lon.=103.765656, Alt.=2784.345703m. Speed=1.620000m/h.</desc>
<speed>0.450000</speed>
</trkpt>
<trkpt lat="22.314554" lon="103.765678">
<ele>2784.470703</ele>
<time>2011-04-24T06:36:48Z</time>
<desc>lat.=22.314554, lon.=103.765678, Alt.=2784.470703m. Speed=0.864000m/h.</desc>
<speed>0.240000</speed>
</trkpt>
<trkpt lat="22.314569" lon="103.765717">
<ele>2784.470703</ele>
<time>2011-04-24T06:36:53Z</time>
<desc>lat.=22.314569, lon.=103.765717, Alt.=2784.470703m. Speed=0.432000m/h.</desc>
<speed>0.120000</speed>
</trkpt>
<trkpt lat="22.314566" lon="103.765724">
<ele>2784.470703</ele>
<time>2011-04-24T06:36:58Z</time>
<desc>lat.=22.314566, lon.=103.765724, Alt.=2784.470703m. Speed=0.900000m/h.</desc>
<speed>0.250000</speed>
</trkpt>
<trkpt lat="22.314528" lon="103.765732">
<ele>2784.408203</ele>
<time>2011-04-24T06:37:03Z</time>
<desc>lat.=22.314528, lon.=103.765732, Alt.=2784.408203m. Speed=0.936000m/h.</desc>
<speed>0.260000</speed>
</trkpt>
<trkpt lat="22.314518" lon="103.765724">
<ele>2784.408203</ele>
<time>2011-04-24T06:37:08Z</time>
<desc>lat.=22.314518, lon.=103.765724, Alt.=2784.408203m. Speed=0.720000m/h.</desc>
<speed>0.200000</speed>
</trkpt>
<trkpt lat="22.314507" lon="103.765694">
<ele>2784.345703</ele>
<time>2011-04-24T06:37:13Z</time>
<desc>lat.=22.314507, lon.=103.765694, Alt.=2784.345703m. Speed=1.656000m/h.</desc>
<speed>0.460000</speed>
</trkpt>
<trkpt lat="22.314474" lon="103.765656">
<ele>2784.345703</ele>
<time>2011-04-24T06:37:18Z</time>
<desc>lat.=22.314474, lon.=103.765656, Alt.=2784.345703m. Speed=2.016000m/h.</desc>
<speed>0.560000</speed>
</trkpt>
<trkpt lat="22.314476" lon="103.765640">
<ele>2784.345703</ele>
<time>2011-04-24T06:37:23Z</time>
<desc>lat.=22.314476, lon.=103.765640, Alt.=2784.345703m. Speed=1.368000m/h.</desc>
<speed>0.380000</speed>
</trkpt>
<trkpt lat="22.314522" lon="103.765648">
<ele>2783.345703</ele>
<time>2011-04-24T06:37:28Z</time>
<desc>lat.=22.314522, lon.=103.765648, Alt.=2783.345703m. Speed=0.576000m/h.</desc>
<speed>0.160000</speed>
</trkpt>
<trkpt lat="22.314529" lon="103.765648">
<ele>2783.345703</ele>
<time>2011-04-24T06:37:33Z</time>
<desc>lat.=22.314529, lon.=103.765648, Alt.=2783.345703m. Speed=0.036000m/h.</desc>
<speed>0.010000</speed>
</trkpt>
<trkpt lat="22.314554" lon="103.765640">
<ele>2783.345703</ele>
<time>2011-04-24T06:37:38Z</time>
<desc>lat.=22.314554, lon.=103.765640, Alt.=2783.345703m. Speed=1.296000m/h.</desc>
<speed>0.360000</speed>
</trkpt>
<trkpt lat="22.314568" lon="103.765640">
<ele>2783.283203</ele>
<time>2011-04-24T06:37:43Z</time>
<desc>lat.=22.314568, lon.=103.765640, Alt.=2783.283203m. Speed=0.396000m/h.</desc>
<speed>0.110000</speed>
</trkpt>
<trkpt lat="22.314571" lon="103.765640">
<ele>2783.283203</ele>
<time>2011-04-24T06:37:48Z</time>
<desc>lat.=22.314571, lon.=103.765640, Alt.=2783.283203m. Speed=0.180000m/h.</desc>
<speed>0.050000</speed>
</trkpt>
<trkpt lat="22.314558" lon="103.765648">
<ele>2783.345703</ele>
<time>2011-04-24T06:37:53Z</time>
<desc>lat.=22.314558, lon.=103.765648, Alt.=2783.345703m. Speed=1.692000m/h.</desc>
<speed>0.470000</speed>
</trkpt>
<trkpt lat="22.314503" lon="103.765610">
<ele>2783.470703</ele>
<time>2011-04-24T06:37:58Z</time>
<desc>lat.=22.314503, lon.=103.765610, Alt.=2783.470703m. Speed=1.476000m/h.</desc>
<speed>0.410000</speed>
</trkpt>
<trkpt lat="22.314455" lon="103.765617">
<ele>2783.783203</ele>
<time>2011-04-24T06:38:03Z</time>
<desc>lat.=22.314455, lon.=103.765617, Alt.=2783.783203m. Speed=1.800000m/h.</desc>
<speed>0.500000</speed>
</trkpt>
<trkpt lat="22.314447" lon="103.765617">
<ele>2783.845703</ele>
<time>2011-04-24T06:38:08Z</time>
<desc>lat.=22.314447, lon.=103.765617, Alt.=2783.845703m. Speed=0.324000m/h.</desc>
<speed>0.090000</speed>
</trkpt>
<trkpt lat="22.314445" lon="103.765610">
<ele>2783.908203</ele>
<time>2011-04-24T06:38:13Z</time>
<desc>lat.=22.314445, lon.=103.765610, Alt.=2783.908203m. Speed=0.684000m/h.</desc>
<speed>0.190000</speed>
</trkpt>
<trkpt lat="22.314430" lon="103.765610">
<ele>2783.845703</ele>
<time>2011-04-24T06:38:18Z</time>
<desc>lat.=22.314430, lon.=103.765610, Alt.=2783.845703m. Speed=1.548000m/h.</desc>
<speed>0.430000</speed>
</trkpt>
<trkpt lat="22.314434" lon="103.765640">
<ele>2783.658203</ele>
<time>2011-04-24T06:38:23Z</time>
<desc>lat.=22.314434, lon.=103.765640, Alt.=2783.658203m. Speed=1.080000m/h.</desc>
<speed>0.300000</speed>
</trkpt>
<trkpt lat="22.314466" lon="103.765671">
<ele>2783.720703</ele>
<time>2011-04-24T06:38:28Z</time>
<desc>lat.=22.314466, lon.=103.765671, Alt.=2783.720703m. Speed=1.512000m/h.</desc>
<speed>0.420000</speed>
</trkpt>
<trkpt lat="22.314472" lon="103.765656">
<ele>2783.533203</ele>
<time>2011-04-24T06:38:33Z</time>
<desc>lat.=22.314472, lon.=103.765656, Alt.=2783.533203m. Speed=0.612000m/h.</desc>
<speed>0.170000</speed>
</trkpt>
<trkpt lat="22.314478" lon="103.765656">
<ele>2783.533203</ele>
<time>2011-04-24T06:38:38Z</time>
<desc>lat.=22.314478, lon.=103.765656, Alt.=2783.533203m. Speed=0.504000m/h.</desc>
<speed>0.140000</speed>
</trkpt>
<trkpt lat="22.314484" lon="103.765656">
<ele>2783.533203</ele>
<time>2011-04-24T06:38:43Z</time>
<desc>lat.=22.314484, lon.=103.765656, Alt.=2783.533203m. Speed=0.396000m/h.</desc>
<speed>0.110000</speed>
</trkpt>
<trkpt lat="22.314491" lon="103.765648">
<ele>2783.533203</ele>
<time>2011-04-24T06:38:48Z</time>
<desc>lat.=22.314491, lon.=103.765648, Alt.=2783.533203m. Speed=0.648000m/h.</desc>
<speed>0.180000</speed>
</trkpt>
<trkpt lat="22.314491" lon="103.765656">
<ele>2783.533203</ele>
<time>2011-04-24T06:38:53Z</time>
<desc>lat.=22.314491, lon.=103.765656, Alt.=2783.533203m. Speed=0.504000m/h.</desc>
<speed>0.140000</speed>
</trkpt>
<trkpt lat="22.314491" lon="103.765663">
<ele>2783.470703</ele>
<time>2011-04-24T06:38:58Z</time>
<desc>lat.=22.314491, lon.=103.765663, Alt.=2783.470703m. Speed=0.540000m/h.</desc>
<speed>0.150000</speed>
</trkpt>
<trkpt lat="22.314491" lon="103.765663">
<ele>2783.470703</ele>
<time>2011-04-24T06:39:03Z</time>
<desc>lat.=22.314491, lon.=103.765663, Alt.=2783.470703m. Speed=0.324000m/h.</desc>
<speed>0.090000</speed>
</trkpt>
<trkpt lat="22.314465" lon="103.765617">
<ele>2783.345703</ele>
<time>2011-04-24T06:39:08Z</time>
<desc>lat.=22.314465, lon.=103.765617, Alt.=2783.345703m. Speed=2.016000m/h.</desc>
<speed>0.560000</speed>
</trkpt>
<trkpt lat="22.314436" lon="103.765579">
<ele>2782.908203</ele>
<time>2011-04-24T06:39:13Z</time>
<desc>lat.=22.314436, lon.=103.765579, Alt.=2782.908203m. Speed=0.972000m/h.</desc>
<speed>0.270000</speed>
</trkpt>
<trkpt lat="22.314426" lon="103.765602">
<ele>2781.658203</ele>
<time>2011-04-24T06:39:18Z</time>
<desc>lat.=22.314426, lon.=103.765602, Alt.=2781.658203m. Speed=1.044000m/h.</desc>
<speed>0.290000</speed>
</trkpt>
<trkpt lat="22.314438" lon="103.765587">
<ele>2781.220703</ele>
<time>2011-04-24T06:39:23Z</time>
<desc>lat.=22.314438, lon.=103.765587, Alt.=2781.220703m. Speed=0.504000m/h.</desc>
<speed>0.140000</speed>
</trkpt>
<trkpt lat="22.314438" lon="103.765587">
<ele>2781.158203</ele>
<time>2011-04-24T06:39:28Z</time>
<desc>lat.=22.314438, lon.=103.765587, Alt.=2781.158203m. Speed=0.432000m/h.</desc>
<speed>0.120000</speed>
</trkpt>
<trkpt lat="22.314440" lon="103.765587">
<ele>2781.095703</ele>
<time>2011-04-24T06:39:33Z</time>
<desc>lat.=22.314440, lon.=103.765587, Alt.=2781.095703m. Speed=0.576000m/h.</desc>
<speed>0.160000</speed>
</trkpt>
<trkpt lat="22.314438" lon="103.765587">
<ele>2781.033203</ele>
<time>2011-04-24T06:39:38Z</time>
<desc>lat.=22.314438, lon.=103.765587, Alt.=2781.033203m. Speed=0.396000m/h.</desc>
<speed>0.110000</speed>
</trkpt>
<trkpt lat="22.314436" lon="103.765587">
<ele>2781.033203</ele>
<time>2011-04-24T06:39:43Z</time>
<desc>lat.=22.314436, lon.=103.765587, Alt.=2781.033203m. Speed=0.324000m/h.</desc>
<speed>0.090000</speed>
</trkpt>
<trkpt lat="22.314434" lon="103.765610">
<ele>2780.783203</ele>
<time>2011-04-24T06:39:48Z</time>
<desc>lat.=22.314434, lon.=103.765610, Alt.=2780.783203m. Speed=0.720000m/h.</desc>
<speed>0.200000</speed>
</trkpt>
<trkpt lat="22.314434" lon="103.765617">
<ele>2780.408203</ele>
<time>2011-04-24T06:39:53Z</time>
<desc>lat.=22.314434, lon.=103.765617, Alt.=2780.408203m. Speed=0.900000m/h.</desc>
<speed>0.250000</speed>
</trkpt>
<trkpt lat="22.314438" lon="103.765640">
<ele>2780.220703</ele>
<time>2011-04-24T06:39:58Z</time>
<desc>lat.=22.314438, lon.=103.765640, Alt.=2780.220703m. Speed=0.576000m/h.</desc>
<speed>0.160000</speed>
</trkpt>
<trkpt lat="22.314432" lon="103.765656">
<ele>2780.095703</ele>
<time>2011-04-24T06:40:03Z</time>
<desc>lat.=22.314432, lon.=103.765656, Alt.=2780.095703m. Speed=0.288000m/h.</desc>
<speed>0.080000</speed>
</trkpt>
<trkpt lat="22.314436" lon="103.765640">
<ele>2779.908203</ele>
<time>2011-04-24T06:40:08Z</time>
<desc>lat.=22.314436, lon.=103.765640, Alt.=2779.908203m. Speed=0.864000m/h.</desc>
<speed>0.240000</speed>
</trkpt>
<trkpt lat="22.314445" lon="103.765648">
<ele>2779.595703</ele>
<time>2011-04-24T06:40:13Z</time>
<desc>lat.=22.314445, lon.=103.765648, Alt.=2779.595703m. Speed=0.972000m/h.</desc>
<speed>0.270000</speed>
</trkpt>
<trkpt lat="22.314451" lon="103.765640">
<ele>2779.345703</ele>
<time>2011-04-24T06:40:18Z</time>
<desc>lat.=22.314451, lon.=103.765640, Alt.=2779.345703m. Speed=0.504000m/h.</desc>
<speed>0.140000</speed>
</trkpt>
<trkpt lat="22.314480" lon="103.765602">
<ele>2778.970703</ele>
<time>2011-04-24T06:40:23Z</time>
<desc>lat.=22.314480, lon.=103.765602, Alt.=2778.970703m. Speed=1.584000m/h.</desc>
<speed>0.440000</speed>
</trkpt>
<trkpt lat="22.314518" lon="103.765572">
<ele>2778.345703</ele>
<time>2011-04-24T06:40:28Z</time>
<desc>lat.=22.314518, lon.=103.765572, Alt.=2778.345703m. Speed=1.548000m/h.</desc>
<speed>0.430000</speed>
</trkpt>
<trkpt lat="22.314564" lon="103.765526">
<ele>2777.845703</ele>
<time>2011-04-24T06:40:33Z</time>
<desc>lat.=22.314564, lon.=103.765526, Alt.=2777.845703m. Speed=2.304000m/h.</desc>
<speed>0.640000</speed>
</trkpt>
<trkpt lat="22.314621" lon="103.765442">
<ele>2777.220703</ele>
<time>2011-04-24T06:40:38Z</time>
<desc>lat.=22.314621, lon.=103.765442, Alt.=2777.220703m. Speed=3.564000m/h.</desc>
<speed>0.990000</speed>
</trkpt>
<trkpt lat="22.314686" lon="103.765419">
<ele>2776.720703</ele>
<time>2011-04-24T06:40:43Z</time>
<desc>lat.=22.314686, lon.=103.765419, Alt.=2776.720703m. Speed=3.060000m/h.</desc>
<speed>0.850000</speed>
</trkpt>
<trkpt lat="22.314775" lon="103.765419">
<ele>2775.970703</ele>
<time>2011-04-24T06:40:48Z</time>
<desc>lat.=22.314775, lon.=103.765419, Alt.=2775.970703m. Speed=3.312000m/h.</desc>
<speed>0.920000</speed>
</trkpt>
<trkpt lat="22.314754" lon="103.765457">
<ele>2775.533203</ele>
<time>2011-04-24T06:40:53Z</time>
<desc>lat.=22.314754, lon.=103.765457, Alt.=2775.533203m. Speed=0.468000m/h.</desc>
<speed>0.130000</speed>
</trkpt>
<trkpt lat="22.314770" lon="103.765450">
<ele>2774.970703</ele>
<time>2011-04-24T06:40:58Z</time>
<desc>lat.=22.314770, lon.=103.765450, Alt.=2774.970703m. Speed=0.396000m/h.</desc>
<speed>0.110000</speed>
</trkpt>
<trkpt lat="22.314775" lon="103.765442">
<ele>2774.970703</ele>
<time>2011-04-24T06:41:03Z</time>
<desc>lat.=22.314775, lon.=103.765442, Alt.=2774.970703m. Speed=0.936000m/h.</desc>
<speed>0.260000</speed>
</trkpt>
<trkpt lat="22.314852" lon="103.765427">
<ele>2774.845703</ele>
<time>2011-04-24T06:41:08Z</time>
<desc>lat.=22.314852, lon.=103.765427, Alt.=2774.845703m. Speed=2.772000m/h.</desc>
<speed>0.770000</speed>
</trkpt>
<trkpt lat="22.314877" lon="103.765427">
<ele>2774.720703</ele>
<time>2011-04-24T06:41:13Z</time>
<desc>lat.=22.314877, lon.=103.765427, Alt.=2774.720703m. Speed=1.332000m/h.</desc>
<speed>0.370000</speed>
</trkpt>
<trkpt lat="22.314865" lon="103.765434">
<ele>2774.533203</ele>
<time>2011-04-24T06:41:18Z</time>
<desc>lat.=22.314865, lon.=103.765434, Alt.=2774.533203m. Speed=1.908000m/h.</desc>
<speed>0.530000</speed>
</trkpt>
<trkpt lat="22.314899" lon="103.765442">
<ele>2773.533203</ele>
<time>2011-04-24T06:41:23Z</time>
<desc>lat.=22.314899, lon.=103.765442, Alt.=2773.533203m. Speed=3.564000m/h.</desc>
<speed>0.990000</speed>
</trkpt>
<trkpt lat="22.314867" lon="103.765472">
<ele>2772.595703</ele>
<time>2011-04-24T06:41:28Z</time>
<desc>lat.=22.314867, lon.=103.765472, Alt.=2772.595703m. Speed=4.860000m/h.</desc>
<speed>1.350000</speed>
</trkpt>
<trkpt lat="22.314938" lon="103.765480">
<ele>2771.220703</ele>
<time>2011-04-24T06:41:33Z</time>
<desc>lat.=22.314938, lon.=103.765480, Alt.=2771.220703m. Speed=5.328000m/h.</desc>
<speed>1.480000</speed>
</trkpt>
<trkpt lat="22.314985" lon="103.765480">
<ele>2769.970703</ele>
<time>2011-04-24T06:41:38Z</time>
<desc>lat.=22.314985, lon.=103.765480, Alt.=2769.970703m. Speed=3.744000m/h.</desc>
<speed>1.040000</speed>
</trkpt>
<trkpt lat="22.314890" lon="103.765518">
<ele>2770.595703</ele>
<time>2011-04-24T06:41:43Z</time>
<desc>lat.=22.314890, lon.=103.765518, Alt.=2770.595703m. Speed=1.116000m/h.</desc>
<speed>0.310000</speed>
</trkpt>
<trkpt lat="22.314747" lon="103.765564">
<ele>2769.095703</ele>
<time>2011-04-24T06:41:48Z</time>
<desc>lat.=22.314747, lon.=103.765564, Alt.=2769.095703m. Speed=0.900000m/h.</desc>
<speed>0.250000</speed>
</trkpt>
<trkpt lat="22.314676" lon="103.765564">
<ele>2768.970703</ele>
<time>2011-04-24T06:41:53Z</time>
<desc>lat.=22.314676, lon.=103.765564, Alt.=2768.970703m. Speed=0.540000m/h.</desc>
<speed>0.150000</speed>
</trkpt>
<trkpt lat="22.314665" lon="103.765572">
<ele>2768.845703</ele>
<time>2011-04-24T06:41:58Z</time>
<desc>lat.=22.314665, lon.=103.765572, Alt.=2768.845703m. Speed=1.368000m/h.</desc>
<speed>0.380000</speed>
</trkpt>
<trkpt lat="22.314596" lon="103.765625">
<ele>2767.720703</ele>
<time>2011-04-24T06:42:03Z</time>
<desc>lat.=22.314596, lon.=103.765625, Alt.=2767.720703m. Speed=1.008000m/h.</desc>
<speed>0.280000</speed>
</trkpt>
<trkpt lat="22.314577" lon="103.765633">
<ele>2767.470703</ele>
<time>2011-04-24T06:42:08Z</time>
<desc>lat.=22.314577, lon.=103.765633, Alt.=2767.470703m. Speed=1.512000m/h.</desc>
<speed>0.420000</speed>
</trkpt>
<trkpt lat="22.314598" lon="103.765648">
<ele>2767.658203</ele>
<time>2011-04-24T06:42:13Z</time>
<desc>lat.=22.314598, lon.=103.765648, Alt.=2767.658203m. Speed=1.224000m/h.</desc>
<speed>0.340000</speed>
</trkpt>
<trkpt lat="22.314575" lon="103.765633">
<ele>2767.720703</ele>
<time>2011-04-24T06:42:18Z</time>
<desc>lat.=22.314575, lon.=103.765633, Alt.=2767.720703m. Speed=1.404000m/h.</desc>
<speed>0.390000</speed>
</trkpt>
<trkpt lat="22.314562" lon="103.765625">
<ele>2767.408203</ele>
<time>2011-04-24T06:42:23Z</time>
<desc>lat.=22.314562, lon.=103.765625, Alt.=2767.408203m. Speed=1.008000m/h.</desc>
<speed>0.280000</speed>
</trkpt>
<trkpt lat="22.314581" lon="103.765617">
<ele>2767.033203</ele>
<time>2011-04-24T06:42:28Z</time>
<desc>lat.=22.314581, lon.=103.765617, Alt.=2767.033203m. Speed=2.376000m/h.</desc>
<speed>0.660000</speed>
</trkpt>
<trkpt lat="22.314615" lon="103.765579">
<ele>2766.095703</ele>
<time>2011-04-24T06:42:33Z</time>
<desc>lat.=22.314615, lon.=103.765579, Alt.=2766.095703m. Speed=1.800000m/h.</desc>
<speed>0.500000</speed>
</trkpt>
<trkpt lat="22.314644" lon="103.765579">
<ele>2765.595703</ele>
<time>2011-04-24T06:42:38Z</time>
<desc>lat.=22.314644, lon.=103.765579, Alt.=2765.595703m. Speed=0.648000m/h.</desc>
<speed>0.180000</speed>
</trkpt>
<trkpt lat="22.314650" lon="103.765587">
<ele>2765.595703</ele>
<time>2011-04-24T06:42:43Z</time>
<desc>lat.=22.314650, lon.=103.765587, Alt.=2765.595703m. Speed=0.144000m/h.</desc>
<speed>0.040000</speed>
</trkpt>
<trkpt lat="22.314613" lon="103.765587">
<ele>2765.970703</ele>
<time>2011-04-24T06:42:48Z</time>
<desc>lat.=22.314613, lon.=103.765587, Alt.=2765.970703m. Speed=1.368000m/h.</desc>
<speed>0.380000</speed>
</trkpt>
<trkpt lat="22.314600" lon="103.765602">
<ele>2766.283203</ele>
<time>2011-04-24T06:42:53Z</time>
<desc>lat.=22.314600, lon.=103.765602, Alt.=2766.283203m. Speed=1.548000m/h.</desc>
<speed>0.430000</speed>
</trkpt>
<trkpt lat="22.314623" lon="103.765625">
<ele>2766.658203</ele>
<time>2011-04-24T06:42:58Z</time>
<desc>lat.=22.314623, lon.=103.765625, Alt.=2766.658203m. Speed=1.152000m/h.</desc>
<speed>0.320000</speed>
</trkpt>
<trkpt lat="22.314631" lon="103.765640">
<ele>2766.408203</ele>
<time>2011-04-24T06:43:03Z</time>
<desc>lat.=22.314631, lon.=103.765640, Alt.=2766.408203m. Speed=1.440000m/h.</desc>
<speed>0.400000</speed>
</trkpt>
<trkpt lat="22.314634" lon="103.765656">
<ele>2766.095703</ele>
<time>2011-04-24T06:43:08Z</time>
<desc>lat.=22.314634, lon.=103.765656, Alt.=2766.095703m. Speed=1.584000m/h.</desc>
<speed>0.440000</speed>
</trkpt>
<trkpt lat="22.314631" lon="103.765610">
<ele>2765.533203</ele>
<time>2011-04-24T06:43:13Z</time>
<desc>lat.=22.314631, lon.=103.765610, Alt.=2765.533203m. Speed=1.944000m/h.</desc>
<speed>0.540000</speed>
</trkpt>
<trkpt lat="22.314606" lon="103.765556">
<ele>2764.470703</ele>
<time>2011-04-24T06:43:18Z</time>
<desc>lat.=22.314606, lon.=103.765556, Alt.=2764.470703m. Speed=1.332000m/h.</desc>
<speed>0.370000</speed>
</trkpt>
<trkpt lat="22.314560" lon="103.765533">
<ele>2766.033203</ele>
<time>2011-04-24T06:43:23Z</time>
<desc>lat.=22.314560, lon.=103.765533, Alt.=2766.033203m. Speed=0.468000m/h.</desc>
<speed>0.130000</speed>
</trkpt>
<trkpt lat="22.314560" lon="103.765533">
<ele>2766.158203</ele>
<time>2011-04-24T06:43:28Z</time>
<desc>lat.=22.314560, lon.=103.765533, Alt.=2766.158203m. Speed=0.972000m/h.</desc>
<speed>0.270000</speed>
</trkpt>
<trkpt lat="22.314524" lon="103.765564">
<ele>2767.095703</ele>
<time>2011-04-24T06:43:33Z</time>
<desc>lat.=22.314524, lon.=103.765564, Alt.=2767.095703m. Speed=2.520000m/h.</desc>
<speed>0.700000</speed>
</trkpt>
<trkpt lat="22.314495" lon="103.765564">
<ele>2767.283203</ele>
<time>2011-04-24T06:43:38Z</time>
<desc>lat.=22.314495, lon.=103.765564, Alt.=2767.283203m. Speed=2.232000m/h.</desc>
<speed>0.620000</speed>
</trkpt>
<trkpt lat="22.314474" lon="103.765587">
<ele>2768.345703</ele>
<time>2011-04-24T06:43:43Z</time>
<desc>lat.=22.314474, lon.=103.765587, Alt.=2768.345703m. Speed=0.936000m/h.</desc>
<speed>0.260000</speed>
</trkpt>
<trkpt lat="22.314447" lon="103.765587">
<ele>2768.283203</ele>
<time>2011-04-24T06:43:48Z</time>
<desc>lat.=22.314447, lon.=103.765587, Alt.=2768.283203m. Speed=2.844000m/h.</desc>
<speed>0.790000</speed>
</trkpt>
<trkpt lat="22.314388" lon="103.765617">
<ele>2767.845703</ele>
<time>2011-04-24T06:43:53Z</time>
<desc>lat.=22.314388, lon.=103.765617, Alt.=2767.845703m. Speed=3.024000m/h.</desc>
<speed>0.840000</speed>
</trkpt>
<trkpt lat="22.314375" lon="103.765625">
<ele>2767.845703</ele>
<time>2011-04-24T06:43:58Z</time>
<desc>lat.=22.314375, lon.=103.765625, Alt.=2767.845703m. Speed=0.972000m/h.</desc>
<speed>0.270000</speed>
</trkpt>
<trkpt lat="22.314400" lon="103.765602">
<ele>2768.158203</ele>
<time>2011-04-24T06:44:03Z</time>
<desc>lat.=22.314400, lon.=103.765602, Alt.=2768.158203m. Speed=0.756000m/h.</desc>
<speed>0.210000</speed>
</trkpt>
<trkpt lat="22.314444" lon="103.765579">
<ele>2768.220703</ele>
<time>2011-04-24T06:44:08Z</time>
<desc>lat.=22.314444, lon.=103.765579, Alt.=2768.220703m. Speed=2.304000m/h.</desc>
<speed>0.640000</speed>
</trkpt>
<trkpt lat="22.314510" lon="103.765556">
<ele>2770.158203</ele>
<time>2011-04-24T06:44:13Z</time>
<desc>lat.=22.314510, lon.=103.765556, Alt.=2770.158203m. Speed=1.692000m/h.</desc>
<speed>0.470000</speed>
</trkpt>
<trkpt lat="22.314518" lon="103.765564">
<ele>2771.783203</ele>
<time>2011-04-24T06:44:18Z</time>
<desc>lat.=22.314518, lon.=103.765564, Alt.=2771.783203m. Speed=2.628000m/h.</desc>
<speed>0.730000</speed>
</trkpt>
<trkpt lat="22.314564" lon="103.765594">
<ele>2773.783203</ele>
<time>2011-04-24T06:44:23Z</time>
<desc>lat.=22.314564, lon.=103.765594, Alt.=2773.783203m. Speed=1.980000m/h.</desc>
<speed>0.550000</speed>
</trkpt>
<trkpt lat="22.314598" lon="103.765633">
<ele>2776.033203</ele>
<time>2011-04-24T06:44:28Z</time>
<desc>lat.=22.314598, lon.=103.765633, Alt.=2776.033203m. Speed=0.792000m/h.</desc>
<speed>0.220000</speed>
</trkpt>
<trkpt lat="22.314594" lon="103.765587">
<ele>2779.533203</ele>
<time>2011-04-24T06:44:33Z</time>
<desc>lat.=22.314594, lon.=103.765587, Alt.=2779.533203m. Speed=3.888000m/h.</desc>
<speed>1.080000</speed>
</trkpt>
<trkpt lat="22.314615" lon="103.765556">
<ele>2782.408203</ele>
<time>2011-04-24T06:44:38Z</time>
<desc>lat.=22.314615, lon.=103.765556, Alt.=2782.408203m. Speed=2.268000m/h.</desc>
<speed>0.630000</speed>
</trkpt>
<trkpt lat="22.314627" lon="103.765472">
<ele>2785.345703</ele>
<time>2011-04-24T06:44:43Z</time>
<desc>lat.=22.314627, lon.=103.765472, Alt.=2785.345703m. Speed=8.748000m/h.</desc>
<speed>2.430000</speed>
</trkpt>
<trkpt lat="22.314613" lon="103.765442">
<ele>2789.783203</ele>
<time>2011-04-24T06:44:48Z</time>
<desc>lat.=22.314613, lon.=103.765442, Alt.=2789.783203m. Speed=2.376000m/h.</desc>
<speed>0.660000</speed>
</trkpt>
<trkpt lat="22.314608" lon="103.765442">
<ele>2793.220703</ele>
<time>2011-04-24T06:44:53Z</time>
<desc>lat.=22.314608, lon.=103.765442, Alt.=2793.220703m. Speed=1.728000m/h.</desc>
<speed>0.480000</speed>
</trkpt>
<trkpt lat="22.314589" lon="103.765495">
<ele>2797.095703</ele>
<time>2011-04-24T06:44:58Z</time>
<desc>lat.=22.314589, lon.=103.765495, Alt.=2797.095703m. Speed=2.232000m/h.</desc>
<speed>0.620000</speed>
</trkpt>
<trkpt lat="22.314550" lon="103.765526">
<ele>2801.345703</ele>
<time>2011-04-24T06:45:03Z</time>
<desc>lat.=22.314550, lon.=103.765526, Alt.=2801.345703m. Speed=0.900000m/h.</desc>
<speed>0.250000</speed>
</trkpt>
<trkpt lat="22.314529" lon="103.765526">
<ele>2804.158203</ele>
<time>2011-04-24T06:45:08Z</time>
<desc>lat.=22.314529, lon.=103.765526, Alt.=2804.158203m. Speed=2.808000m/h.</desc>
<speed>0.780000</speed>
</trkpt>
<trkpt lat="22.314533" lon="103.765480">
<ele>2806.658203</ele>
<time>2011-04-24T06:45:13Z</time>
<desc>lat.=22.314533, lon.=103.765480, Alt.=2806.658203m. Speed=2.124000m/h.</desc>
<speed>0.590000</speed>
</trkpt>
<trkpt lat="22.314518" lon="103.765457">
<ele>2809.095703</ele>
<time>2011-04-24T06:45:18Z</time>
<desc>lat.=22.314518, lon.=103.765457, Alt.=2809.095703m. Speed=4.752000m/h.</desc>
<speed>1.320000</speed>
</trkpt>
<trkpt lat="22.314514" lon="103.765472">
<ele>2811.283203</ele>
<time>2011-04-24T06:45:23Z</time>
<desc>lat.=22.314514, lon.=103.765472, Alt.=2811.283203m. Speed=1.728000m/h.</desc>
<speed>0.480000</speed>
</trkpt>
<trkpt lat="22.314512" lon="103.765503">
<ele>2813.470703</ele>
<time>2011-04-24T06:45:28Z</time>
<desc>lat.=22.314512, lon.=103.765503, Alt.=2813.470703m. Speed=0.648000m/h.</desc>
<speed>0.180000</speed>
</trkpt>
<trkpt lat="22.314528" lon="103.765564">
<ele>2814.283203</ele>
<time>2011-04-24T06:45:33Z</time>
<desc>lat.=22.314528, lon.=103.765564, Alt.=2814.283203m. Speed=0.828000m/h.</desc>
<speed>0.230000</speed>
</trkpt>
<trkpt lat="22.314552" lon="103.765602">
<ele>2814.595703</ele>
<time>2011-04-24T06:45:38Z</time>
<desc>lat.=22.314552, lon.=103.765602, Alt.=2814.595703m. Speed=1.620000m/h.</desc>
<speed>0.450000</speed>
</trkpt>
<trkpt lat="22.314554" lon="103.765625">
<ele>2813.970703</ele>
<time>2011-04-24T06:45:43Z</time>
<desc>lat.=22.314554, lon.=103.765625, Alt.=2813.970703m. Speed=1.764000m/h.</desc>
<speed>0.490000</speed>
</trkpt>
<trkpt lat="22.314594" lon="103.765671">
<ele>2813.470703</ele>
<time>2011-04-24T06:45:48Z</time>
<desc>lat.=22.314594, lon.=103.765671, Alt.=2813.470703m. Speed=1.044000m/h.</desc>
<speed>0.290000</speed>
</trkpt>
<trkpt lat="22.314604" lon="103.765671">
<ele>2813.033203</ele>
<time>2011-04-24T06:45:53Z</time>
<desc>lat.=22.314604, lon.=103.765671, Alt.=2813.033203m. Speed=1.512000m/h.</desc>
<speed>0.420000</speed>
</trkpt>
<trkpt lat="22.314581" lon="103.765656">
<ele>2812.408203</ele>
<time>2011-04-24T06:45:58Z</time>
<desc>lat.=22.314581, lon.=103.765656, Alt.=2812.408203m. Speed=0.828000m/h.</desc>
<speed>0.230000</speed>
</trkpt>
<trkpt lat="22.314579" lon="103.765671">
<ele>2812.033203</ele>
<time>2011-04-24T06:46:03Z</time>
<desc>lat.=22.314579, lon.=103.765671, Alt.=2812.033203m. Speed=1.656000m/h.</desc>
<speed>0.460000</speed>
</trkpt>
<trkpt lat="22.314579" lon="103.765709">
<ele>2811.345703</ele>
<time>2011-04-24T06:46:08Z</time>
<desc>lat.=22.314579, lon.=103.765709, Alt.=2811.345703m. Speed=1.368000m/h.</desc>
<speed>0.380000</speed>
</trkpt>
<trkpt lat="22.314554" lon="103.765755">
<ele>2810.720703</ele>
<time>2011-04-24T06:46:13Z</time>
<desc>lat.=22.314554, lon.=103.765755, Alt.=2810.720703m. Speed=0.756000m/h.</desc>
<speed>0.210000</speed>
</trkpt>
<trkpt lat="22.314507" lon="103.765793">
<ele>2810.033203</ele>
<time>2011-04-24T06:46:18Z</time>
<desc>lat.=22.314507, lon.=103.765793, Alt.=2810.033203m. Speed=2.484000m/h.</desc>
<speed>0.690000</speed>
</trkpt>
<trkpt lat="22.314522" lon="103.765854">
<ele>2809.408203</ele>
<time>2011-04-24T06:46:23Z</time>
<desc>lat.=22.314522, lon.=103.765854, Alt.=2809.408203m. Speed=2.988000m/h.</desc>
<speed>0.830000</speed>
</trkpt>
<trkpt lat="22.314562" lon="103.765869">
<ele>2808.970703</ele>
<time>2011-04-24T06:46:28Z</time>
<desc>lat.=22.314562, lon.=103.765869, Alt.=2808.970703m. Speed=2.556000m/h.</desc>
<speed>0.710000</speed>
</trkpt>
<trkpt lat="22.314583" lon="103.765839">
<ele>2808.658203</ele>
<time>2011-04-24T06:46:33Z</time>
<desc>lat.=22.314583, lon.=103.765839, Alt.=2808.658203m. Speed=3.024000m/h.</desc>
<speed>0.840000</speed>
</trkpt>
<trkpt lat="22.314564" lon="103.765831">
<ele>2808.658203</ele>
<time>2011-04-24T06:46:38Z</time>
<desc>lat.=22.314564, lon.=103.765831, Alt.=2808.658203m. Speed=1.800000m/h.</desc>
<speed>0.500000</speed>
</trkpt>
<trkpt lat="22.314526" lon="103.765808">
<ele>2806.658203</ele>
<time>2011-04-24T06:46:43Z</time>
<desc>lat.=22.314526, lon.=103.765808, Alt.=2806.658203m. Speed=1.224000m/h.</desc>
<speed>0.340000</speed>
</trkpt>
<trkpt lat="22.314476" lon="103.765747">
<ele>2804.345703</ele>
<time>2011-04-24T06:46:48Z</time>
<desc>lat.=22.314476, lon.=103.765747, Alt.=2804.345703m. Speed=2.412000m/h.</desc>
<speed>0.670000</speed>
</trkpt>
<trkpt lat="22.314442" lon="103.765686">
<ele>2804.033203</ele>
<time>2011-04-24T06:46:53Z</time>
<desc>lat.=22.314442, lon.=103.765686, Alt.=2804.033203m. Speed=1.548000m/h.</desc>
<speed>0.430000</speed>
</trkpt>
<trkpt lat="22.314468" lon="103.765678">
<ele>2803.158203</ele>
<time>2011-04-24T06:46:58Z</time>
<desc>lat.=22.314468, lon.=103.765678, Alt.=2803.158203m. Speed=1.440000m/h.</desc>
<speed>0.400000</speed>
</trkpt>
<trkpt lat="22.314526" lon="103.765694">
<ele>2801.658203</ele>
<time>2011-04-24T06:47:03Z</time>
<desc>lat.=22.314526, lon.=103.765694, Alt.=2801.658203m. Speed=0.504000m/h.</desc>
<speed>0.140000</speed>
</trkpt>
<trkpt lat="22.314564" lon="103.765656">
<ele>2798.220703</ele>
<time>2011-04-24T06:47:08Z</time>
<desc>lat.=22.314564, lon.=103.765656, Alt.=2798.220703m. Speed=1.404000m/h.</desc>
<speed>0.390000</speed>
</trkpt>
<trkpt lat="22.314543" lon="103.765640">
<ele>2795.095703</ele>
<time>2011-04-24T06:47:13Z</time>
<desc>lat.=22.314543, lon.=103.765640, Alt.=2795.095703m. Speed=1.728000m/h.</desc>
<speed>0.480000</speed>
</trkpt>
<trkpt lat="22.314516" lon="103.765594">
<ele>2794.658203</ele>
<time>2011-04-24T06:47:18Z</time>
<desc>lat.=22.314516, lon.=103.765594, Alt.=2794.658203m. Speed=1.728000m/h.</desc>
<speed>0.480000</speed>
</trkpt>
<trkpt lat="22.314520" lon="103.765518">
<ele>2793.720703</ele>
<time>2011-04-24T06:47:23Z</time>
<desc>lat.=22.314520, lon.=103.765518, Alt.=2793.720703m. Speed=1.548000m/h.</desc>
<speed>0.430000</speed>
</trkpt>
<trkpt lat="22.314516" lon="103.765488">
<ele>2793.408203</ele>
<time>2011-04-24T06:47:28Z</time>
<desc>lat.=22.314516, lon.=103.765488, Alt.=2793.408203m. Speed=1.224000m/h.</desc>
<speed>0.340000</speed>
</trkpt>
<trkpt lat="22.314520" lon="103.765472">
<ele>2792.283203</ele>
<time>2011-04-24T06:47:33Z</time>
<desc>lat.=22.314520, lon.=103.765472, Alt.=2792.283203m. Speed=0.576000m/h.</desc>
<speed>0.160000</speed>
</trkpt>
<trkpt lat="22.314528" lon="103.765480">
<ele>2790.783203</ele>
<time>2011-04-24T06:47:38Z</time>
<desc>lat.=22.314528, lon.=103.765480, Alt.=2790.783203m. Speed=0.216000m/h.</desc>
<speed>0.060000</speed>
</trkpt>
<trkpt lat="22.314522" lon="103.765480">
<ele>2790.033203</ele>
<time>2011-04-24T06:47:43Z</time>
<desc>lat.=22.314522, lon.=103.765480, Alt.=2790.033203m. Speed=1.332000m/h.</desc>
<speed>0.370000</speed>
</trkpt>
<trkpt lat="22.314541" lon="103.765488">
<ele>2789.970703</ele>
<time>2011-04-24T06:47:48Z</time>
<desc>lat.=22.314541, lon.=103.765488, Alt.=2789.970703m. Speed=0.396000m/h.</desc>
<speed>0.110000</speed>
</trkpt>
<trkpt lat="22.314569" lon="103.765495">
<ele>2789.595703</ele>
<time>2011-04-24T06:47:53Z</time>
<desc>lat.=22.314569, lon.=103.765495, Alt.=2789.595703m. Speed=0.792000m/h.</desc>
<speed>0.220000</speed>
</trkpt>
<trkpt lat="22.314587" lon="103.765526">
<ele>2789.533203</ele>
<time>2011-04-24T06:47:58Z</time>
<desc>lat.=22.314587, lon.=103.765526, Alt.=2789.533203m. Speed=1.332000m/h.</desc>
<speed>0.370000</speed>
</trkpt>
<trkpt lat="22.314575" lon="103.765671">
<ele>2789.595703</ele>
<time>2011-04-24T06:48:03Z</time>
<desc>lat.=22.314575, lon.=103.765671, Alt.=2789.595703m. Speed=1.548000m/h.</desc>
<speed>0.430000</speed>
</trkpt>
<trkpt lat="22.314558" lon="103.765701">
<ele>2789.158203</ele>
<time>2011-04-24T06:48:08Z</time>
<desc>lat.=22.314558, lon.=103.765701, Alt.=2789.158203m. Speed=1.260000m/h.</desc>
<speed>0.350000</speed>
</trkpt>
<trkpt lat="22.314535" lon="103.765686">
<ele>2788.658203</ele>
<time>2011-04-24T06:48:13Z</time>
<desc>lat.=22.314535, lon.=103.765686, Alt.=2788.658203m. Speed=1.080000m/h.</desc>
<speed>0.300000</speed>
</trkpt>
<trkpt lat="22.314526" lon="103.765671">
<ele>2788.720703</ele>
<time>2011-04-24T06:48:18Z</time>
<desc>lat.=22.314526, lon.=103.765671, Alt.=2788.720703m. Speed=1.188000m/h.</desc>
<speed>0.330000</speed>
</trkpt>
<trkpt lat="22.314543" lon="103.765656">
<ele>2788.408203</ele>
<time>2011-04-24T06:48:23Z</time>
<desc>lat.=22.314543, lon.=103.765656, Alt.=2788.408203m. Speed=1.404000m/h.</desc>
<speed>0.390000</speed>
</trkpt>
<trkpt lat="22.314552" lon="103.765633">
<ele>2789.158203</ele>
<time>2011-04-24T06:48:28Z</time>
<desc>lat.=22.314552, lon.=103.765633, Alt.=2789.158203m. Speed=0.756000m/h.</desc>
<speed>0.210000</speed>
</trkpt>
<trkpt lat="22.314556" lon="103.765617">
<ele>2789.345703</ele>
<time>2011-04-24T06:48:33Z</time>
<desc>lat.=22.314556, lon.=103.765617, Alt.=2789.345703m. Speed=0.468000m/h.</desc>
<speed>0.130000</speed>
</trkpt>
<trkpt lat="22.314550" lon="103.765617">
<ele>2789.345703</ele>
<time>2011-04-24T06:48:38Z</time>
<desc>lat.=22.314550, lon.=103.765617, Alt.=2789.345703m. Speed=0.684000m/h.</desc>
<speed>0.190000</speed>
</trkpt>
<trkpt lat="22.314556" lon="103.765617">
<ele>2789.345703</ele>
<time>2011-04-24T06:48:43Z</time>
<desc>lat.=22.314556, lon.=103.765617, Alt.=2789.345703m. Speed=0.648000m/h.</desc>
<speed>0.180000</speed>
</trkpt>
<trkpt lat="22.314558" lon="103.765633">
<ele>2789.408203</ele>
<time>2011-04-24T06:48:48Z</time>
<desc>lat.=22.314558, lon.=103.765633, Alt.=2789.408203m. Speed=0.756000m/h.</desc>
<speed>0.210000</speed>
</trkpt>
<trkpt lat="22.314547" lon="103.765640">
<ele>2789.345703</ele>
<time>2011-04-24T06:48:53Z</time>
<desc>lat.=22.314547, lon.=103.765640, Alt.=2789.345703m. Speed=0.252000m/h.</desc>
<speed>0.070000</speed>
</trkpt>
<trkpt lat="22.314550" lon="103.765648">
<ele>2789.345703</ele>
<time>2011-04-24T06:48:58Z</time>
<desc>lat.=22.314550, lon.=103.765648, Alt.=2789.345703m. Speed=0.540000m/h.</desc>
<speed>0.150000</speed>
</trkpt>
<trkpt lat="22.314548" lon="103.765648">
<ele>2789.345703</ele>
<time>2011-04-24T06:49:03Z</time>
<desc>lat.=22.314548, lon.=103.765648, Alt.=2789.345703m. Speed=0.324000m/h.</desc>
<speed>0.090000</speed>
</trkpt>
<trkpt lat="22.314541" lon="103.765648">
<ele>2789.345703</ele>
<time>2011-04-24T06:49:08Z</time>
<desc>lat.=22.314541, lon.=103.765648, Alt.=2789.345703m. Speed=0.972000m/h.</desc>
<speed>0.270000</speed>
</trkpt>
<trkpt lat="22.314547" lon="103.765694">
<ele>2789.033203</ele>
<time>2011-04-24T06:49:13Z</time>
<desc>lat.=22.314547, lon.=103.765694, Alt.=2789.033203m. Speed=1.404000m/h.</desc>
<speed>0.390000</speed>
</trkpt>
<trkpt lat="22.314548" lon="103.765724">
<ele>2788.595703</ele>
<time>2011-04-24T06:49:18Z</time>
<desc>lat.=22.314548, lon.=103.765724, Alt.=2788.595703m. Speed=1.008000m/h.</desc>
<speed>0.280000</speed>
</trkpt>
<trkpt lat="22.314573" lon="103.765755">
<ele>2788.283203</ele>
<time>2011-04-24T06:49:23Z</time>
<desc>lat.=22.314573, lon.=103.765755, Alt.=2788.283203m. Speed=1.224000m/h.</desc>
<speed>0.340000</speed>
</trkpt>
<trkpt lat="22.314577" lon="103.765732">
<ele>2788.408203</ele>
<time>2011-04-24T06:49:28Z</time>
<desc>lat.=22.314577, lon.=103.765732, Alt.=2788.408203m. Speed=0.360000m/h.</desc>
<speed>0.100000</speed>
</trkpt>
<trkpt lat="22.314587" lon="103.765739">
<ele>2788.408203</ele>
<time>2011-04-24T06:49:33Z</time>
<desc>lat.=22.314587, lon.=103.765739, Alt.=2788.408203m. Speed=0.756000m/h.</desc>
<speed>0.210000</speed>
</trkpt>
<trkpt lat="22.314592" lon="103.765739">
<ele>2788.408203</ele>
<time>2011-04-24T06:49:38Z</time>
<desc>lat.=22.314592, lon.=103.765739, Alt.=2788.408203m. Speed=0.828000m/h.</desc>
<speed>0.230000</speed>
</trkpt>
<trkpt lat="22.314590" lon="103.765724">
<ele>2788.408203</ele>
<time>2011-04-24T06:49:43Z</time>
<desc>lat.=22.314590, lon.=103.765724, Alt.=2788.408203m. Speed=0.324000m/h.</desc>
<speed>0.090000</speed>
</trkpt>
<trkpt lat="22.314583" lon="103.765724">
<ele>2788.470703</ele>
<time>2011-04-24T06:49:48Z</time>
<desc>lat.=22.314583, lon.=103.765724, Alt.=2788.470703m. Speed=0.864000m/h.</desc>
<speed>0.240000</speed>
</trkpt>
<trkpt lat="22.314556" lon="103.765717">
<ele>2788.408203</ele>
<time>2011-04-24T06:49:53Z</time>
<desc>lat.=22.314556, lon.=103.765717, Alt.=2788.408203m. Speed=1.800000m/h.</desc>
<speed>0.500000</speed>
</trkpt>
<trkpt lat="22.314526" lon="103.765709">
<ele>2788.095703</ele>
<time>2011-04-24T06:49:58Z</time>
<desc>lat.=22.314526, lon.=103.765709, Alt.=2788.095703m. Speed=1.152000m/h.</desc>
<speed>0.320000</speed>
</trkpt>
<trkpt lat="22.314514" lon="103.765717">
<ele>2787.908203</ele>
<time>2011-04-24T06:50:03Z</time>
<desc>lat.=22.314514, lon.=103.765717, Alt.=2787.908203m. Speed=0.612000m/h.</desc>
<speed>0.170000</speed>
</trkpt>
<trkpt lat="22.314528" lon="103.765701">
<ele>2787.595703</ele>
<time>2011-04-24T06:50:08Z</time>
<desc>lat.=22.314528, lon.=103.765701, Alt.=2787.595703m. Speed=1.260000m/h.</desc>
<speed>0.350000</speed>
</trkpt>
<trkpt lat="22.314541" lon="103.765709">
<ele>2787.345703</ele>
<time>2011-04-24T06:50:13Z</time>
<desc>lat.=22.314541, lon.=103.765709, Alt.=2787.345703m. Speed=1.080000m/h.</desc>
<speed>0.300000</speed>
</trkpt>
<trkpt lat="22.314589" lon="103.765671">
<ele>2787.220703</ele>
<time>2011-04-24T06:50:18Z</time>
<desc>lat.=22.314589, lon.=103.765671, Alt.=2787.220703m. Speed=2.268000m/h.</desc>
<speed>0.630000</speed>
</trkpt>
<trkpt lat="22.314581" lon="103.765686">
<ele>2786.970703</ele>
<time>2011-04-24T06:50:23Z</time>
<desc>lat.=22.314581, lon.=103.765686, Alt.=2786.970703m. Speed=1.260000m/h.</desc>
<speed>0.350000</speed>
</trkpt>
<trkpt lat="22.314566" lon="103.765686">
<ele>2786.783203</ele>
<time>2011-04-24T06:50:28Z</time>
<desc>lat.=22.314566, lon.=103.765686, Alt.=2786.783203m. Speed=1.476000m/h.</desc>
<speed>0.410000</speed>
</trkpt>
<trkpt lat="22.314568" lon="103.765678">
<ele>2786.783203</ele>
<time>2011-04-24T06:50:33Z</time>
<desc>lat.=22.314568, lon.=103.765678, Alt.=2786.783203m. Speed=0.468000m/h.</desc>
<speed>0.130000</speed>
</trkpt>
<trkpt lat="22.314566" lon="103.765678">
<ele>2786.783203</ele>
<time>2011-04-24T06:50:38Z</time>
<desc>lat.=22.314566, lon.=103.765678, Alt.=2786.783203m. Speed=0.792000m/h.</desc>
<speed>0.220000</speed>
</trkpt>
<trkpt lat="22.314535" lon="103.765694">
<ele>2786.908203</ele>
<time>2011-04-24T06:50:43Z</time>
<desc>lat.=22.314535, lon.=103.765694, Alt.=2786.908203m. Speed=1.728000m/h.</desc>
<speed>0.480000</speed>
</trkpt>
<trkpt lat="22.314512" lon="103.765671">
<ele>2786.720703</ele>
<time>2011-04-24T06:50:48Z</time>
<desc>lat.=22.314512, lon.=103.765671, Alt.=2786.720703m. Speed=1.692000m/h.</desc>
<speed>0.470000</speed>
</trkpt>
<trkpt lat="22.314552" lon="103.765663">
<ele>2786.595703</ele>
<time>2011-04-24T06:50:53Z</time>
<desc>lat.=22.314552, lon.=103.765663, Alt.=2786.595703m. Speed=0.756000m/h.</desc>
<speed>0.210000</speed>
</trkpt>
<trkpt lat="22.314577" lon="103.765663">
<ele>2786.283203</ele>
<time>2011-04-24T06:50:58Z</time>
<desc>lat.=22.314577, lon.=103.765663, Alt.=2786.283203m. Speed=0.540000m/h.</desc>
<speed>0.150000</speed>
</trkpt>
<trkpt lat="22.314573" lon="103.765656">
<ele>2786.220703</ele>
<time>2011-04-24T06:51:03Z</time>
<desc>lat.=22.314573, lon.=103.765656, Alt.=2786.220703m. Speed=0.864000m/h.</desc>
<speed>0.240000</speed>
</trkpt>
<trkpt lat="22.314533" lon="103.765602">
<ele>2786.283203</ele>
<time>2011-04-24T06:51:08Z</time>
<desc>lat.=22.314533, lon.=103.765602, Alt.=2786.283203m. Speed=0.864000m/h.</desc>
<speed>0.240000</speed>
</trkpt>
<trkpt lat="22.314539" lon="103.765602">
<ele>2786.220703</ele>
<time>2011-04-24T06:51:13Z</time>
<desc>lat.=22.314539, lon.=103.765602, Alt.=2786.220703m. Speed=0.504000m/h.</desc>
<speed>0.140000</speed>
</trkpt>
<trkpt lat="22.314545" lon="103.765579">
<ele>2786.095703</ele>
<time>2011-04-24T06:51:18Z</time>
<desc>lat.=22.314545, lon.=103.765579, Alt.=2786.095703m. Speed=1.044000m/h.</desc>
<speed>0.290000</speed>
</trkpt>
<trkpt lat="22.314575" lon="103.765549">
<ele>2786.033203</ele>
<time>2011-04-24T06:51:23Z</time>
<desc>lat.=22.314575, lon.=103.765549, Alt.=2786.033203m. Speed=2.808000m/h.</desc>
<speed>0.780000</speed>
</trkpt>
<trkpt lat="22.314585" lon="103.765541">
<ele>2786.033203</ele>
<time>2011-04-24T06:51:28Z</time>
<desc>lat.=22.314585, lon.=103.765541, Alt.=2786.033203m. Speed=1.908000m/h.</desc>
<speed>0.530000</speed>
</trkpt>
<trkpt lat="22.314600" lon="103.765526">
<ele>2785.908203</ele>
<time>2011-04-24T06:51:33Z</time>
<desc>lat.=22.314600, lon.=103.765526, Alt.=2785.908203m. Speed=1.512000m/h.</desc>
<speed>0.420000</speed>
</trkpt>
<trkpt lat="22.314604" lon="103.765549">
<ele>2785.595703</ele>
<time>2011-04-24T06:51:38Z</time>
<desc>lat.=22.314604, lon.=103.765549, Alt.=2785.595703m. Speed=0.576000m/h.</desc>
<speed>0.160000</speed>
</trkpt>
<trkpt lat="22.314627" lon="103.765518">
<ele>2785.408203</ele>
<time>2011-04-24T06:51:43Z</time>
<desc>lat.=22.314627, lon.=103.765518, Alt.=2785.408203m. Speed=2.160000m/h.</desc>
<speed>0.600000</speed>
</trkpt>
<trkpt lat="22.314701" lon="103.765488">
<ele>2785.158203</ele>
<time>2011-04-24T06:51:48Z</time>
<desc>lat.=22.314701, lon.=103.765488, Alt.=2785.158203m. Speed=2.736000m/h.</desc>
<speed>0.760000</speed>
</trkpt>
<trkpt lat="22.314781" lon="103.765488">
<ele>2784.408203</ele>
<time>2011-04-24T06:51:53Z</time>
<desc>lat.=22.314781, lon.=103.765488, Alt.=2784.408203m. Speed=2.700000m/h.</desc>
<speed>0.750000</speed>
</trkpt>
<trkpt lat="22.314789" lon="103.765488">
<ele>2784.283203</ele>
<time>2011-04-24T06:51:58Z</time>
<desc>lat.=22.314789, lon.=103.765488, Alt.=2784.283203m. Speed=2.124000m/h.</desc>
<speed>0.590000</speed>
</trkpt>
<trkpt lat="22.314743" lon="103.765518">
<ele>2785.220703</ele>
<time>2011-04-24T06:52:03Z</time>
<desc>lat.=22.314743, lon.=103.765518, Alt.=2785.220703m. Speed=0.288000m/h.</desc>
<speed>0.080000</speed>
</trkpt>
<trkpt lat="22.314732" lon="103.765518">
<ele>2785.533203</ele>
<time>2011-04-24T06:52:08Z</time>
<desc>lat.=22.314732, lon.=103.765518, Alt.=2785.533203m. Speed=0.828000m/h.</desc>
<speed>0.230000</speed>
</trkpt>
<trkpt lat="22.314693" lon="103.765533">
<ele>2785.783203</ele>
<time>2011-04-24T06:52:13Z</time>
<desc>lat.=22.314693, lon.=103.765533, Alt.=2785.783203m. Speed=1.188000m/h.</desc>
<speed>0.330000</speed>
</trkpt>
<trkpt lat="22.314709" lon="103.765533">
<ele>2785.658203</ele>
<time>2011-04-24T06:52:18Z</time>
<desc>lat.=22.314709, lon.=103.765533, Alt.=2785.658203m. Speed=0.504000m/h.</desc>
<speed>0.140000</speed>
</trkpt>
<trkpt lat="22.314724" lon="103.765541">
<ele>2785.658203</ele>
<time>2011-04-24T06:52:23Z</time>
<desc>lat.=22.314724, lon.=103.765541, Alt.=2785.658203m. Speed=0.648000m/h.</desc>
<speed>0.180000</speed>
</trkpt>
<trkpt lat="22.314741" lon="103.765556">
<ele>2785.533203</ele>
<time>2011-04-24T06:52:28Z</time>
<desc>lat.=22.314741, lon.=103.765556, Alt.=2785.533203m. Speed=1.260000m/h.</desc>
<speed>0.350000</speed>
</trkpt>
<trkpt lat="22.314739" lon="103.765572">
<ele>2785.533203</ele>
<time>2011-04-24T06:52:33Z</time>
<desc>lat.=22.314739, lon.=103.765572, Alt.=2785.533203m. Speed=0.972000m/h.</desc>
<speed>0.270000</speed>
</trkpt>
<trkpt lat="22.314713" lon="103.765594">
<ele>2785.408203</ele>
<time>2011-04-24T06:52:38Z</time>
<desc>lat.=22.314713, lon.=103.765594, Alt.=2785.408203m. Speed=0.684000m/h.</desc>
<speed>0.190000</speed>
</trkpt>
<trkpt lat="22.314707" lon="103.765602">
<ele>2785.408203</ele>
<time>2011-04-24T06:52:43Z</time>
<desc>lat.=22.314707, lon.=103.765602, Alt.=2785.408203m. Speed=1.008000m/h.</desc>
<speed>0.280000</speed>
</trkpt>
<trkpt lat="22.314686" lon="103.765579">
<ele>2785.283203</ele>
<time>2011-04-24T06:52:48Z</time>
<desc>lat.=22.314686, lon.=103.765579, Alt.=2785.283203m. Speed=0.900000m/h.</desc>
<speed>0.250000</speed>
</trkpt>
<trkpt lat="22.314688" lon="103.765549">
<ele>2785.658203</ele>
<time>2011-04-24T06:52:53Z</time>
<desc>lat.=22.314688, lon.=103.765549, Alt.=2785.658203m. Speed=1.332000m/h.</desc>
<speed>0.370000</speed>
</trkpt>
<trkpt lat="22.314669" lon="103.765541">
<ele>2786.095703</ele>
<time>2011-04-24T06:52:58Z</time>
<desc>lat.=22.314669, lon.=103.765541, Alt.=2786.095703m. Speed=1.692000m/h.</desc>
<speed>0.470000</speed>
</trkpt>
<trkpt lat="22.314697" lon="103.765556">
<ele>2786.595703</ele>
<time>2011-04-24T06:53:03Z</time>
<desc>lat.=22.314697, lon.=103.765556, Alt.=2786.595703m. Speed=1.620000m/h.</desc>
<speed>0.450000</speed>
</trkpt>
<trkpt lat="22.314743" lon="103.765533">
<ele>2787.095703</ele>
<time>2011-04-24T06:53:08Z</time>
<desc>lat.=22.314743, lon.=103.765533, Alt.=2787.095703m. Speed=2.376000m/h.</desc>
<speed>0.660000</speed>
</trkpt>
<trkpt lat="22.314775" lon="103.765549">
<ele>2787.158203</ele>
<time>2011-04-24T06:53:13Z</time>
<desc>lat.=22.314775, lon.=103.765549, Alt.=2787.158203m. Speed=2.376000m/h.</desc>
<speed>0.660000</speed>
</trkpt>
<trkpt lat="22.314775" lon="103.765556">
<ele>2786.970703</ele>
<time>2011-04-24T06:53:18Z</time>
<desc>lat.=22.314775, lon.=103.765556, Alt.=2786.970703m. Speed=1.332000m/h.</desc>
<speed>0.370000</speed>
</trkpt>
<trkpt lat="22.314741" lon="103.765556">
<ele>2786.533203</ele>
<time>2011-04-24T06:53:23Z</time>
<desc>lat.=22.314741, lon.=103.765556, Alt.=2786.533203m. Speed=1.044000m/h.</desc>
<speed>0.290000</speed>
</trkpt>
<trkpt lat="22.314714" lon="103.765556">
<ele>2787.283203</ele>
<time>2011-04-24T06:53:28Z</time>
<desc>lat.=22.314714, lon.=103.765556, Alt.=2787.283203m. Speed=0.432000m/h.</desc>
<speed>0.120000</speed>
</trkpt>
<trkpt lat="22.314692" lon="103.765549">
<ele>2787.033203</ele>
<time>2011-04-24T06:53:33Z</time>
<desc>lat.=22.314692, lon.=103.765549, Alt.=2787.033203m. Speed=1.044000m/h.</desc>
<speed>0.290000</speed>
</trkpt>
<trkpt lat="22.314655" lon="103.765556">
<ele>2786.283203</ele>
<time>2011-04-24T06:53:38Z</time>
<desc>lat.=22.314655, lon.=103.765556, Alt.=2786.283203m. Speed=1.440000m/h.</desc>
<speed>0.400000</speed>
</trkpt>
<trkpt lat="22.314644" lon="103.765556">
<ele>2785.470703</ele>
<time>2011-04-24T06:53:43Z</time>
<desc>lat.=22.314644, lon.=103.765556, Alt.=2785.470703m. Speed=0.540000m/h.</desc>
<speed>0.150000</speed>
</trkpt>
<trkpt lat="22.314650" lon="103.765549">
<ele>2785.470703</ele>
<time>2011-04-24T06:53:48Z</time>
<desc>lat.=22.314650, lon.=103.765549, Alt.=2785.470703m. Speed=0.684000m/h.</desc>
<speed>0.190000</speed>
</trkpt>
<trkpt lat="22.314650" lon="103.765549">
<ele>2785.470703</ele>
<time>2011-04-24T06:53:53Z</time>
<desc>lat.=22.314650, lon.=103.765549, Alt.=2785.470703m. Speed=0.252000m/h.</desc>
<speed>0.070000</speed>
</trkpt>
<trkpt lat="22.314648" lon="103.765549">
<ele>2785.470703</ele>
<time>2011-04-24T06:53:58Z</time>
<desc>lat.=22.314648, lon.=103.765549, Alt.=2785.470703m. Speed=1.152000m/h.</desc>
<speed>0.320000</speed>
</trkpt>
<trkpt lat="22.314619" lon="103.765541">
<ele>2785.595703</ele>
<time>2011-04-24T06:54:03Z</time>
<desc>lat.=22.314619, lon.=103.765541, Alt.=2785.595703m. Speed=1.008000m/h.</desc>
<speed>0.280000</speed>
</trkpt>
<trkpt lat="22.314619" lon="103.765533">
<ele>2785.658203</ele>
<time>2011-04-24T06:54:08Z</time>
<desc>lat.=22.314619, lon.=103.765533, Alt.=2785.658203m. Speed=1.332000m/h.</desc>
<speed>0.370000</speed>
</trkpt>
<trkpt lat="22.314640" lon="103.765541">
<ele>2785.345703</ele>
<time>2011-04-24T06:54:13Z</time>
<desc>lat.=22.314640, lon.=103.765541, Alt.=2785.345703m. Speed=0.972000m/h.</desc>
<speed>0.270000</speed>
</trkpt>
<trkpt lat="22.314651" lon="103.765564">
<ele>2785.470703</ele>
<time>2011-04-24T06:54:18Z</time>
<desc>lat.=22.314651, lon.=103.765564, Alt.=2785.470703m. Speed=1.512000m/h.</desc>
<speed>0.420000</speed>
</trkpt>
<trkpt lat="22.314657" lon="103.765541">
<ele>2785.345703</ele>
<time>2011-04-24T06:54:23Z</time>
<desc>lat.=22.314657, lon.=103.765541, Alt.=2785.345703m. Speed=1.152000m/h.</desc>
<speed>0.320000</speed>
</trkpt>
<trkpt lat="22.314659" lon="103.765549">
<ele>2785.220703</ele>
<time>2011-04-24T06:54:28Z</time>
<desc>lat.=22.314659, lon.=103.765549, Alt.=2785.220703m. Speed=0.144000m/h.</desc>
<speed>0.040000</speed>
</trkpt>
<trkpt lat="22.314663" lon="103.765556">
<ele>2785.408203</ele>
<time>2011-04-24T06:54:33Z</time>
<desc>lat.=22.314663, lon.=103.765556, Alt.=2785.408203m. Speed=0.432000m/h.</desc>
<speed>0.120000</speed>
</trkpt>
<trkpt lat="22.314667" lon="103.765549">
<ele>2785.283203</ele>
<time>2011-04-24T06:54:38Z</time>
<desc>lat.=22.314667, lon.=103.765549, Alt.=2785.283203m. Speed=0.180000m/h.</desc>
<speed>0.050000</speed>
</trkpt>
<trkpt lat="22.314667" lon="103.765556">
<ele>2785.283203</ele>
<time>2011-04-24T06:54:43Z</time>
<desc>lat.=22.314667, lon.=103.765556, Alt.=2785.283203m. Speed=1.008000m/h.</desc>
<speed>0.280000</speed>
</trkpt>
<trkpt lat="22.314672" lon="103.765564">
<ele>2785.345703</ele>
<time>2011-04-24T06:54:48Z</time>
<desc>lat.=22.314672, lon.=103.765564, Alt.=2785.345703m. Speed=1.440000m/h.</desc>
<speed>0.400000</speed>
</trkpt>
<trkpt lat="22.314661" lon="103.765556">
<ele>2785.595703</ele>
<time>2011-04-24T06:54:53Z</time>
<desc>lat.=22.314661, lon.=103.765556, Alt.=2785.595703m. Speed=0.144000m/h.</desc>
<speed>0.040000</speed>
</trkpt>
<trkpt lat="22.314653" lon="103.765533">
<ele>2785.533203</ele>
<time>2011-04-24T06:54:58Z</time>
<desc>lat.=22.314653, lon.=103.765533, Alt.=2785.533203m. Speed=1.044000m/h.</desc>
<speed>0.290000</speed>
</trkpt>
<trkpt lat="22.314653" lon="103.765511">
<ele>2785.908203</ele>
<time>2011-04-24T06:55:03Z</time>
<desc>lat.=22.314653, lon.=103.765511, Alt.=2785.908203m. Speed=0.720000m/h.</desc>
<speed>0.200000</speed>
</trkpt>
<trkpt lat="22.314690" lon="103.765480">
<ele>2786.158203</ele>
<time>2011-04-24T06:55:08Z</time>
<desc>lat.=22.314690, lon.=103.765480, Alt.=2786.158203m. Speed=1.512000m/h.</desc>
<speed>0.420000</speed>
</trkpt>
<trkpt lat="22.314716" lon="103.765526">
<ele>2786.220703</ele>
<time>2011-04-24T06:55:13Z</time>
<desc>lat.=22.314716, lon.=103.765526, Alt.=2786.220703m. Speed=1.008000m/h.</desc>
<speed>0.280000</speed>
</trkpt>
<trkpt lat="22.314726" lon="103.765533">
<ele>2786.220703</ele>
<time>2011-04-24T06:55:18Z</time>
<desc>lat.=22.314726, lon.=103.765533, Alt.=2786.220703m. Speed=0.432000m/h.</desc>
<speed>0.120000</speed>
</trkpt>
<trkpt lat="22.314730" lon="103.765533">
<ele>2786.283203</ele>
<time>2011-04-24T06:55:23Z</time>
<desc>lat.=22.314730, lon.=103.765533, Alt.=2786.283203m. Speed=0.432000m/h.</desc>
<speed>0.120000</speed>
</trkpt>
<trkpt lat="22.314735" lon="103.765526">
<ele>2786.845703</ele>
<time>2011-04-24T06:55:28Z</time>
<desc>lat.=22.314735, lon.=103.765526, Alt.=2786.845703m. Speed=1.944000m/h.</desc>
<speed>0.540000</speed>
</trkpt>
<trkpt lat="22.314728" lon="103.765503">
<ele>2787.783203</ele>
<time>2011-04-24T06:55:33Z</time>
<desc>lat.=22.314728, lon.=103.765503, Alt.=2787.783203m. Speed=0.504000m/h.</desc>
<speed>0.140000</speed>
</trkpt>
<trkpt lat="22.314703" lon="103.765472">
<ele>2788.220703</ele>
<time>2011-04-24T06:55:38Z</time>
<desc>lat.=22.314703, lon.=103.765472, Alt.=2788.220703m. Speed=0.684000m/h.</desc>
<speed>0.190000</speed>
</trkpt>
<trkpt lat="22.314697" lon="103.765465">
<ele>2788.283203</ele>
<time>2011-04-24T06:55:43Z</time>
<desc>lat.=22.314697, lon.=103.765465, Alt.=2788.283203m. Speed=0.540000m/h.</desc>
<speed>0.150000</speed>
</trkpt>
<trkpt lat="22.314692" lon="103.765472">
<ele>2788.283203</ele>
<time>2011-04-24T06:55:48Z</time>
<desc>lat.=22.314692, lon.=103.765472, Alt.=2788.283203m. Speed=0.432000m/h.</desc>
<speed>0.120000</speed>
</trkpt>
<trkpt lat="22.314686" lon="103.765472">
<ele>2788.283203</ele>
<time>2011-04-24T06:55:53Z</time>
<desc>lat.=22.314686, lon.=103.765472, Alt.=2788.283203m. Speed=0.396000m/h.</desc>
<speed>0.110000</speed>
</trkpt>
<trkpt lat="22.314680" lon="103.765472">
<ele>2788.283203</ele>
<time>2011-04-24T06:55:58Z</time>
<desc>lat.=22.314680, lon.=103.765472, Alt.=2788.283203m. Speed=0.648000m/h.</desc>
<speed>0.180000</speed>
</trkpt>
<trkpt lat="22.314678" lon="103.765472">
<ele>2788.283203</ele>
<time>2011-04-24T06:56:03Z</time>
<desc>lat.=22.314678, lon.=103.765472, Alt.=2788.283203m. Speed=0.252000m/h.</desc>
<speed>0.070000</speed>
</trkpt>
<trkpt lat="22.314682" lon="103.765480">
<ele>2788.283203</ele>
<time>2011-04-24T06:56:08Z</time>
<desc>lat.=22.314682, lon.=103.765480, Alt.=2788.283203m. Speed=0.972000m/h.</desc>
<speed>0.270000</speed>
</trkpt>
<trkpt lat="22.314714" lon="103.765511">
<ele>2787.970703</ele>
<time>2011-04-24T06:56:13Z</time>
<desc>lat.=22.314714, lon.=103.765511, Alt.=2787.970703m. Speed=1.908000m/h.</desc>
<speed>0.530000</speed>
</trkpt>
<trkpt lat="22.314737" lon="103.765587">
<ele>2787.283203</ele>
<time>2011-04-24T06:56:18Z</time>
<desc>lat.=22.314737, lon.=103.765587, Alt.=2787.283203m. Speed=2.016000m/h.</desc>
<speed>0.560000</speed>
</trkpt>
<trkpt lat="22.314732" lon="103.765625">
<ele>2786.658203</ele>
<time>2011-04-24T06:56:23Z</time>
<desc>lat.=22.314732, lon.=103.765625, Alt.=2786.658203m. Speed=1.440000m/h.</desc>
<speed>0.400000</speed>
</trkpt>
<trkpt lat="22.314672" lon="103.765648">
<ele>2786.033203</ele>
<time>2011-04-24T06:56:28Z</time>
<desc>lat.=22.314672, lon.=103.765648, Alt.=2786.033203m. Speed=1.764000m/h.</desc>
<speed>0.490000</speed>
</trkpt>
<trkpt lat="22.314644" lon="103.765663">
<ele>2785.283203</ele>
<time>2011-04-24T06:56:33Z</time>
<desc>lat.=22.314644, lon.=103.765663, Alt.=2785.283203m. Speed=0.648000m/h.</desc>
<speed>0.180000</speed>
</trkpt>
<trkpt lat="22.314619" lon="103.765663">
<ele>2785.283203</ele>
<time>2011-04-24T06:56:38Z</time>
<desc>lat.=22.314619, lon.=103.765663, Alt.=2785.283203m. Speed=1.656000m/h.</desc>
<speed>0.460000</speed>
</trkpt>
<trkpt lat="22.314573" lon="103.765610">
<ele>2786.033203</ele>
<time>2011-04-24T06:56:43Z</time>
<desc>lat.=22.314573, lon.=103.765610, Alt.=2786.033203m. Speed=1.836000m/h.</desc>
<speed>0.510000</speed>
</trkpt>
<trkpt lat="22.314541" lon="103.765579">
<ele>2786.533203</ele>
<time>2011-04-24T06:56:48Z</time>
<desc>lat.=22.314541, lon.=103.765579, Alt.=2786.533203m. Speed=0.468000m/h.</desc>
<speed>0.130000</speed>
</trkpt>
<trkpt lat="22.314528" lon="103.765579">
<ele>2786.220703</ele>
<time>2011-04-24T06:56:53Z</time>
<desc>lat.=22.314528, lon.=103.765579, Alt.=2786.220703m. Speed=0.684000m/h.</desc>
<speed>0.190000</speed>
</trkpt>
<trkpt lat="22.314520" lon="103.765572">
<ele>2785.720703</ele>
<time>2011-04-24T06:56:58Z</time>
<desc>lat.=22.314520, lon.=103.765572, Alt.=2785.720703m. Speed=0.540000m/h.</desc>
<speed>0.150000</speed>
</trkpt>
<trkpt lat="22.314528" lon="103.765572">
<ele>2785.720703</ele>
<time>2011-04-24T06:57:03Z</time>
<desc>lat.=22.314528, lon.=103.765572, Alt.=2785.720703m. Speed=1.872000m/h.</desc>
<speed>0.520000</speed>
</trkpt>
<trkpt lat="22.314497" lon="103.765610">
<ele>2785.533203</ele>
<time>2011-04-24T06:57:08Z</time>
<desc>lat.=22.314497, lon.=103.765610, Alt.=2785.533203m. Speed=0.432000m/h.</desc>
<speed>0.120000</speed>
</trkpt>
<trkpt lat="22.314478" lon="103.765602">
<ele>2785.533203</ele>
<time>2011-04-24T06:57:13Z</time>
<desc>lat.=22.314478, lon.=103.765602, Alt.=2785.533203m. Speed=1.476000m/h.</desc>
<speed>0.410000</speed>
</trkpt>
<trkpt lat="22.314459" lon="103.765594">
<ele>2785.408203</ele>
<time>2011-04-24T06:57:18Z</time>
<desc>lat.=22.314459, lon.=103.765594, Alt.=2785.408203m. Speed=0.828000m/h.</desc>
<speed>0.230000</speed>
</trkpt>
<trkpt lat="22.314466" lon="103.765617">
<ele>2785.283203</ele>
<time>2011-04-24T06:57:23Z</time>
<desc>lat.=22.314466, lon.=103.765617, Alt.=2785.283203m. Speed=0.972000m/h.</desc>
<speed>0.270000</speed>
</trkpt>
<trkpt lat="22.314451" lon="103.765602">
<ele>2785.095703</ele>
<time>2011-04-24T06:57:28Z</time>
<desc>lat.=22.314451, lon.=103.765602, Alt.=2785.095703m. Speed=0.252000m/h.</desc>
<speed>0.070000</speed>
</trkpt>
<trkpt lat="22.314449" lon="103.765602">
<ele>2785.095703</ele>
<time>2011-04-24T06:57:33Z</time>
<desc>lat.=22.314449, lon.=103.765602, Alt.=2785.095703m. Speed=0.648000m/h.</desc>
<speed>0.180000</speed>
</trkpt>
<trkpt lat="22.314455" lon="103.765594">
<ele>2785.158203</ele>
<time>2011-04-24T06:57:38Z</time>
<desc>lat.=22.314455, lon.=103.765594, Alt.=2785.158203m. Speed=0.180000m/h.</desc>
<speed>0.050000</speed>
</trkpt>
<trkpt lat="22.314453" lon="103.765587">
<ele>2785.033203</ele>
<time>2011-04-24T06:57:43Z</time>
<desc>lat.=22.314453, lon.=103.765587, Alt.=2785.033203m. Speed=1.224000m/h.</desc>
<speed>0.340000</speed>
</trkpt>
<trkpt lat="22.314449" lon="103.765533">
<ele>2784.658203</ele>
<time>2011-04-24T06:57:48Z</time>
<desc>lat.=22.314449, lon.=103.765533, Alt.=2784.658203m. Speed=2.268000m/h.</desc>
<speed>0.630000</speed>
</trkpt>
<trkpt lat="22.314478" lon="103.765541">
<ele>2784.533203</ele>
<time>2011-04-24T06:57:53Z</time>
<desc>lat.=22.314478, lon.=103.765541, Alt.=2784.533203m. Speed=0.180000m/h.</desc>
<speed>0.050000</speed>
</trkpt>
<trkpt lat="22.314478" lon="103.765526">
<ele>2784.595703</ele>
<time>2011-04-24T06:57:58Z</time>
<desc>lat.=22.314478, lon.=103.765526, Alt.=2784.595703m. Speed=0.360000m/h.</desc>
<speed>0.100000</speed>
</trkpt>
<trkpt lat="22.314480" lon="103.765526">
<ele>2784.595703</ele>
<time>2011-04-24T06:58:03Z</time>
<desc>lat.=22.314480, lon.=103.765526, Alt.=2784.595703m. Speed=0.288000m/h.</desc>
<speed>0.080000</speed>
</trkpt>
<trkpt lat="22.314478" lon="103.765526">
<ele>2784.595703</ele>
<time>2011-04-24T06:58:08Z</time>
<desc>lat.=22.314478, lon.=103.765526, Alt.=2784.595703m. Speed=0.468000m/h.</desc>
<speed>0.130000</speed>
</trkpt>
<trkpt lat="22.314484" lon="103.765533">
<ele>2784.658203</ele>
<time>2011-04-24T06:58:13Z</time>
<desc>lat.=22.314484, lon.=103.765533, Alt.=2784.658203m. Speed=0.936000m/h.</desc>
<speed>0.260000</speed>
</trkpt>
<trkpt lat="22.314489" lon="103.765526">
<ele>2784.595703</ele>
<time>2011-04-24T06:58:18Z</time>
<desc>lat.=22.314489, lon.=103.765526, Alt.=2784.595703m. Speed=0.432000m/h.</desc>
<speed>0.120000</speed>
</trkpt>
<trkpt lat="22.314495" lon="103.765518">
<ele>2784.595703</ele>
<time>2011-04-24T06:58:23Z</time>
<desc>lat.=22.314495, lon.=103.765518, Alt.=2784.595703m. Speed=0.720000m/h.</desc>
<speed>0.200000</speed>
</trkpt>
<trkpt lat="22.314501" lon="103.765518">
<ele>2784.595703</ele>
<time>2011-04-24T06:58:28Z</time>
<desc>lat.=22.314501, lon.=103.765518, Alt.=2784.595703m. Speed=0.324000m/h.</desc>
<speed>0.090000</speed>
</trkpt>
<trkpt lat="22.314503" lon="103.765518">
<ele>2784.533203</ele>
<time>2011-04-24T06:58:33Z</time>
<desc>lat.=22.314503, lon.=103.765518, Alt.=2784.533203m. Speed=0.468000m/h.</desc>
<speed>0.130000</speed>
</trkpt>
<trkpt lat="22.314495" lon="103.765518">
<ele>2784.658203</ele>
<time>2011-04-24T06:58:38Z</time>
<desc>lat.=22.314495, lon.=103.765518, Alt.=2784.658203m. Speed=0.972000m/h.</desc>
<speed>0.270000</speed>
</trkpt>
<trkpt lat="22.314436" lon="103.765587">
<ele>2784.845703</ele>
<time>2011-04-24T06:58:43Z</time>
<desc>lat.=22.314436, lon.=103.765587, Alt.=2784.845703m. Speed=2.196000m/h.</desc>
<speed>0.610000</speed>
</trkpt>
<trkpt lat="22.314415" lon="103.765617">
<ele>2784.845703</ele>
<time>2011-04-24T06:58:48Z</time>
<desc>lat.=22.314415, lon.=103.765617, Alt.=2784.845703m. Speed=0.468000m/h.</desc>
<speed>0.130000</speed>
</trkpt>
<trkpt lat="22.314413" lon="103.765625">
<ele>2784.533203</ele>
<time>2011-04-24T06:58:53Z</time>
<desc>lat.=22.314413, lon.=103.765625, Alt.=2784.533203m. Speed=0.936000m/h.</desc>
<speed>0.260000</speed>
</trkpt>
<trkpt lat="22.314413" lon="103.765633">
<ele>2784.470703</ele>
<time>2011-04-24T06:58:58Z</time>
<desc>lat.=22.314413, lon.=103.765633, Alt.=2784.470703m. Speed=0.792000m/h.</desc>
<speed>0.220000</speed>
</trkpt>
<trkpt lat="22.314400" lon="103.765594">
<ele>2783.158203</ele>
<time>2011-04-24T06:59:03Z</time>
<desc>lat.=22.314400, lon.=103.765594, Alt.=2783.158203m. Speed=1.260000m/h.</desc>
<speed>0.350000</speed>
</trkpt>
<trkpt lat="22.314379" lon="103.765572">
<ele>2780.908203</ele>
<time>2011-04-24T06:59:08Z</time>
<desc>lat.=22.314379, lon.=103.765572, Alt.=2780.908203m. Speed=0.396000m/h.</desc>
<speed>0.110000</speed>
</trkpt>
<trkpt lat="22.314375" lon="103.765579">
<ele>2780.845703</ele>
<time>2011-04-24T06:59:13Z</time>
<desc>lat.=22.314375, lon.=103.765579, Alt.=2780.845703m. Speed=1.152000m/h.</desc>
<speed>0.320000</speed>
</trkpt>
<trkpt lat="22.314352" lon="103.765572">
<ele>2779.220703</ele>
<time>2011-04-24T06:59:18Z</time>
<desc>lat.=22.314352, lon.=103.765572, Alt.=2779.220703m. Speed=1.008000m/h.</desc>
<speed>0.280000</speed>
</trkpt>
<trkpt lat="22.314348" lon="103.765541">
<ele>2779.033203</ele>
<time>2011-04-24T06:59:23Z</time>
<desc>lat.=22.314348, lon.=103.765541, Alt.=2779.033203m. Speed=0.432000m/h.</desc>
<speed>0.120000</speed>
</trkpt>
<trkpt lat="22.314354" lon="103.765533">
<ele>2778.908203</ele>
<time>2011-04-24T06:59:28Z</time>
<desc>lat.=22.314354, lon.=103.765533, Alt.=2778.908203m. Speed=0.828000m/h.</desc>
<speed>0.230000</speed>
</trkpt>
<trkpt lat="22.314360" lon="103.765533">
<ele>2779.220703</ele>
<time>2011-04-24T06:59:33Z</time>
<desc>lat.=22.314360, lon.=103.765533, Alt.=2779.220703m. Speed=0.684000m/h.</desc>
<speed>0.190000</speed>
</trkpt>
<trkpt lat="22.314365" lon="103.765511">
<ele>2779.908203</ele>
<time>2011-04-24T06:59:38Z</time>
<desc>lat.=22.314365, lon.=103.765511, Alt.=2779.908203m. Speed=0.180000m/h.</desc>
<speed>0.050000</speed>
</trkpt>
<trkpt lat="22.314367" lon="103.765511">
<ele>2779.970703</ele>
<time>2011-04-24T06:59:43Z</time>
<desc>lat.=22.314367, lon.=103.765511, Alt.=2779.970703m. Speed=0.324000m/h.</desc>
<speed>0.090000</speed>
</trkpt>
<trkpt lat="22.314362" lon="103.765511">
<ele>2779.970703</ele>
<time>2011-04-24T06:59:48Z</time>
<desc>lat.=22.314362, lon.=103.765511, Alt.=2779.970703m. Speed=0.756000m/h.</desc>
<speed>0.210000</speed>
</trkpt>
<trkpt lat="22.314356" lon="103.765518">
<ele>2779.970703</ele>
<time>2011-04-24T06:59:53Z</time>
<desc>lat.=22.314356, lon.=103.765518, Alt.=2779.970703m. Speed=0.648000m/h.</desc>
<speed>0.180000</speed>
</trkpt>
<trkpt lat="22.314383" lon="103.765549">
<ele>2780.470703</ele>
<time>2011-04-24T06:59:58Z</time>
<desc>lat.=22.314383, lon.=103.765549, Alt.=2780.470703m. Speed=0.936000m/h.</desc>
<speed>0.260000</speed>
</trkpt>
<trkpt lat="22.314386" lon="103.765594">
<ele>2781.283203</ele>
<time>2011-04-24T07:00:03Z</time>
<desc>lat.=22.314386, lon.=103.765594, Alt.=2781.283203m. Speed=1.368000m/h.</desc>
<speed>0.380000</speed>
</trkpt>
<trkpt lat="22.314445" lon="103.765625">
<ele>2783.658203</ele>
<time>2011-04-24T07:00:08Z</time>
<desc>lat.=22.314445, lon.=103.765625, Alt.=2783.658203m. Speed=1.512000m/h.</desc>
<speed>0.420000</speed>
</trkpt>
<trkpt lat="22.314449" lon="103.765602">
<ele>2785.470703</ele>
<time>2011-04-24T07:00:13Z</time>
<desc>lat.=22.314449, lon.=103.765602, Alt.=2785.470703m. Speed=0.252000m/h.</desc>
<speed>0.070000</speed>
</trkpt>
<trkpt lat="22.314445" lon="103.765602">
<ele>2785.595703</ele>
<time>2011-04-24T07:00:18Z</time>
<desc>lat.=22.314445, lon.=103.765602, Alt.=2785.595703m. Speed=0.324000m/h.</desc>
<speed>0.090000</speed>
</trkpt>
<trkpt lat="22.314449" lon="103.765594">
<ele>2785.658203</ele>
<time>2011-04-24T07:00:23Z</time>
<desc>lat.=22.314449, lon.=103.765594, Alt.=2785.658203m. Speed=0.756000m/h.</desc>
<speed>0.210000</speed>
</trkpt>
<trkpt lat="22.314449" lon="103.765594">
<ele>2785.658203</ele>
<time>2011-04-24T07:00:28Z</time>
<desc>lat.=22.314449, lon.=103.765594, Alt.=2785.658203m. Speed=0.360000m/h.</desc>
<speed>0.100000</speed>
</trkpt>
<trkpt lat="22.314447" lon="103.765587">
<ele>2785.720703</ele>
<time>2011-04-24T07:00:33Z</time>
<desc>lat.=22.314447, lon.=103.765587, Alt.=2785.720703m. Speed=0.792000m/h.</desc>
<speed>0.220000</speed>
</trkpt>
<trkpt lat="22.314444" lon="103.765594">
<ele>2785.783203</ele>
<time>2011-04-24T07:00:38Z</time>
<desc>lat.=22.314444, lon.=103.765594, Alt.=2785.783203m. Speed=0.756000m/h.</desc>
<speed>0.210000</speed>
</trkpt>
<trkpt lat="22.314447" lon="103.765579">
<ele>2785.970703</ele>
<time>2011-04-24T07:00:43Z</time>
<desc>lat.=22.314447, lon.=103.765579, Alt.=2785.970703m. Speed=1.512000m/h.</desc>
<speed>0.420000</speed>
</trkpt>
<trkpt lat="22.314447" lon="103.765572">
<ele>2786.908203</ele>
<time>2011-04-24T07:00:48Z</time>
<desc>lat.=22.314447, lon.=103.765572, Alt.=2786.908203m. Speed=1.548000m/h.</desc>
<speed>0.430000</speed>
</trkpt>
<trkpt lat="22.314474" lon="103.765564">
<ele>2787.595703</ele>
<time>2011-04-24T07:00:53Z</time>
<desc>lat.=22.314474, lon.=103.765564, Alt.=2787.595703m. Speed=1.260000m/h.</desc>
<speed>0.350000</speed>
</trkpt>
<trkpt lat="22.314486" lon="103.765556">
<ele>2788.158203</ele>
<time>2011-04-24T07:00:58Z</time>
<desc>lat.=22.314486, lon.=103.765556, Alt.=2788.158203m. Speed=0.540000m/h.</desc>
<speed>0.150000</speed>
</trkpt>
<trkpt lat="22.314480" lon="103.765556">
<ele>2788.220703</ele>
<time>2011-04-24T07:01:03Z</time>
<desc>lat.=22.314480, lon.=103.765556, Alt.=2788.220703m. Speed=0.432000m/h.</desc>
<speed>0.120000</speed>
</trkpt>
<trkpt lat="22.314474" lon="103.765549">
<ele>2788.283203</ele>
<time>2011-04-24T07:01:08Z</time>
<desc>lat.=22.314474, lon.=103.765549, Alt.=2788.283203m. Speed=0.684000m/h.</desc>
<speed>0.190000</speed>
</trkpt>
<trkpt lat="22.314493" lon="103.765511">
<ele>2787.908203</ele>
<time>2011-04-24T07:01:13Z</time>
<desc>lat.=22.314493, lon.=103.765511, Alt.=2787.908203m. Speed=2.736000m/h.</desc>
<speed>0.760000</speed>
</trkpt>
<trkpt lat="22.314507" lon="103.765488">
<ele>2787.533203</ele>
<time>2011-04-24T07:01:18Z</time>
<desc>lat.=22.314507, lon.=103.765488, Alt.=2787.533203m. Speed=1.800000m/h.</desc>
<speed>0.500000</speed>
</trkpt>
<trkpt lat="22.314489" lon="103.765495">
<ele>2786.970703</ele>
<time>2011-04-24T07:01:23Z</time>
<desc>lat.=22.314489, lon.=103.765495, Alt.=2786.970703m. Speed=0.360000m/h.</desc>
<speed>0.100000</speed>
</trkpt>
<trkpt lat="22.314474" lon="103.765503">
<ele>2786.970703</ele>
<time>2011-04-24T07:01:28Z</time>
<desc>lat.=22.314474, lon.=103.765503, Alt.=2786.970703m. Speed=1.296000m/h.</desc>
<speed>0.360000</speed>
</trkpt>
<trkpt lat="22.314445" lon="103.765495">
<ele>2786.658203</ele>
<time>2011-04-24T07:01:33Z</time>
<desc>lat.=22.314445, lon.=103.765495, Alt.=2786.658203m. Speed=0.756000m/h.</desc>
<speed>0.210000</speed>
</trkpt>
<trkpt lat="22.314432" lon="103.765495">
<ele>2786.658203</ele>
<time>2011-04-24T07:01:38Z</time>
<desc>lat.=22.314432, lon.=103.765495, Alt.=2786.658203m. Speed=0.432000m/h.</desc>
<speed>0.120000</speed>
</trkpt>
<trkpt lat="22.314430" lon="103.765480">
<ele>2786.595703</ele>
<time>2011-04-24T07:01:43Z</time>
<desc>lat.=22.314430, lon.=103.765480, Alt.=2786.595703m. Speed=0.900000m/h.</desc>
<speed>0.250000</speed>
</trkpt>
<trkpt lat="22.314432" lon="103.765472">
<ele>2786.595703</ele>
<time>2011-04-24T07:01:48Z</time>
<desc>lat.=22.314432, lon.=103.765472, Alt.=2786.595703m. Speed=0.324000m/h.</desc>
<speed>0.090000</speed>
</trkpt>
<trkpt lat="22.314444" lon="103.765495">
<ele>2786.220703</ele>
<time>2011-04-24T07:01:53Z</time>
<desc>lat.=22.314444, lon.=103.765495, Alt.=2786.220703m. Speed=0.828000m/h.</desc>
<speed>0.230000</speed>
</trkpt>
<trkpt lat="22.314482" lon="103.765480">
<ele>2785.533203</ele>
<time>2011-04-24T07:01:58Z</time>
<desc>lat.=22.314482, lon.=103.765480, Alt.=2785.533203m. Speed=1.764000m/h.</desc>
<speed>0.490000</speed>
</trkpt>
<trkpt lat="22.314484" lon="103.765442">
<ele>2785.595703</ele>
<time>2011-04-24T07:02:03Z</time>
<desc>lat.=22.314484, lon.=103.765442, Alt.=2785.595703m. Speed=1.008000m/h.</desc>
<speed>0.280000</speed>
</trkpt>
<trkpt lat="22.314508" lon="103.765419">
<ele>2785.533203</ele>
<time>2011-04-24T07:02:08Z</time>
<desc>lat.=22.314508, lon.=103.765419, Alt.=2785.533203m. Speed=1.764000m/h.</desc>
<speed>0.490000</speed>
</trkpt>
<trkpt lat="22.314499" lon="103.765450">
<ele>2784.845703</ele>
<time>2011-04-24T07:02:13Z</time>
<desc>lat.=22.314499, lon.=103.765450, Alt.=2784.845703m. Speed=0.324000m/h.</desc>
<speed>0.090000</speed>
</trkpt>
<trkpt lat="22.314499" lon="103.765450">
<ele>2784.095703</ele>
<time>2011-04-24T07:02:18Z</time>
<desc>lat.=22.314499, lon.=103.765450, Alt.=2784.095703m. Speed=0.684000m/h.</desc>
<speed>0.190000</speed>
</trkpt>
<trkpt lat="22.314489" lon="103.765450">
<ele>2783.345703</ele>
<time>2011-04-24T07:02:23Z</time>
<desc>lat.=22.314489, lon.=103.765450, Alt.=2783.345703m. Speed=0.864000m/h.</desc>
<speed>0.240000</speed>
</trkpt>
<trkpt lat="22.314489" lon="103.765457">
<ele>2783.283203</ele>
<time>2011-04-24T07:02:28Z</time>
<desc>lat.=22.314489, lon.=103.765457, Alt.=2783.283203m. Speed=1.080000m/h.</desc>
<speed>0.300000</speed>
</trkpt>
<trkpt lat="22.314451" lon="103.765526">
<ele>2781.470703</ele>
<time>2011-04-24T07:02:33Z</time>
<desc>lat.=22.314451, lon.=103.765526, Alt.=2781.470703m. Speed=1.512000m/h.</desc>
<speed>0.420000</speed>
</trkpt>
<trkpt lat="22.314396" lon="103.765587">
<ele>2780.783203</ele>
<time>2011-04-24T07:02:38Z</time>
<desc>lat.=22.314396, lon.=103.765587, Alt.=2780.783203m. Speed=2.304000m/h.</desc>
<speed>0.640000</speed>
</trkpt>
<trkpt lat="22.314405" lon="103.765602">
<ele>2779.658203</ele>
<time>2011-04-24T07:02:43Z</time>
<desc>lat.=22.314405, lon.=103.765602, Alt.=2779.658203m. Speed=1.800000m/h.</desc>
<speed>0.500000</speed>
</trkpt>
<trkpt lat="22.314388" lon="103.765640">
<ele>2779.845703</ele>
<time>2011-04-24T07:02:48Z</time>
<desc>lat.=22.314388, lon.=103.765640, Alt.=2779.845703m. Speed=1.584000m/h.</desc>
<speed>0.440000</speed>
</trkpt>
<trkpt lat="22.314383" lon="103.765633">
<ele>2779.345703</ele>
<time>2011-04-24T07:02:53Z</time>
<desc>lat.=22.314383, lon.=103.765633, Alt.=2779.345703m. Speed=1.368000m/h.</desc>
<speed>0.380000</speed>
</trkpt>
<trkpt lat="22.314379" lon="103.765602">
<ele>2778.908203</ele>
<time>2011-04-24T07:02:58Z</time>
<desc>lat.=22.314379, lon.=103.765602, Alt.=2778.908203m. Speed=0.360000m/h.</desc>
<speed>0.100000</speed>
</trkpt>
<trkpt lat="22.314381" lon="103.765617">
<ele>2778.970703</ele>
<time>2011-04-24T07:03:03Z</time>
<desc>lat.=22.314381, lon.=103.765617, Alt.=2778.970703m. Speed=0.216000m/h.</desc>
<speed>0.060000</speed>
</trkpt>
<trkpt lat="22.314396" lon="103.765579">
<ele>2778.595703</ele>
<time>2011-04-24T07:03:08Z</time>
<desc>lat.=22.314396, lon.=103.765579, Alt.=2778.595703m. Speed=1.368000m/h.</desc>
<speed>0.380000</speed>
</trkpt>
<trkpt lat="22.314449" lon="103.765541">
<ele>2777.908203</ele>
<time>2011-04-24T07:03:13Z</time>
<desc>lat.=22.314449, lon.=103.765541, Alt.=2777.908203m. Speed=2.232000m/h.</desc>
<speed>0.620000</speed>
</trkpt>
<trkpt lat="22.314449" lon="103.765549">
<ele>2777.533203</ele>
<time>2011-04-24T07:03:18Z</time>
<desc>lat.=22.314449, lon.=103.765549, Alt.=2777.533203m. Speed=1.368000m/h.</desc>
<speed>0.380000</speed>
</trkpt>
<trkpt lat="22.314430" lon="103.765556">
<ele>2776.783203</ele>
<time>2011-04-24T07:03:23Z</time>
<desc>lat.=22.314430, lon.=103.765556, Alt.=2776.783203m. Speed=0.648000m/h.</desc>
<speed>0.180000</speed>
</trkpt>
<trkpt lat="22.314419" lon="103.765549">
<ele>2776.908203</ele>
<time>2011-04-24T07:03:28Z</time>
<desc>lat.=22.314419, lon.=103.765549, Alt.=2776.908203m. Speed=1.188000m/h.</desc>
<speed>0.330000</speed>
</trkpt>
<trkpt lat="22.314434" lon="103.765495">
<ele>2776.533203</ele>
<time>2011-04-24T07:03:33Z</time>
<desc>lat.=22.314434, lon.=103.765495, Alt.=2776.533203m. Speed=0.144000m/h.</desc>
<speed>0.040000</speed>
</trkpt>
<trkpt lat="22.314407" lon="103.765442">
<ele>2776.158203</ele>
<time>2011-04-24T07:03:38Z</time>
<desc>lat.=22.314407, lon.=103.765442, Alt.=2776.158203m. Speed=2.664000m/h.</desc>
<speed>0.740000</speed>
</trkpt>
<trkpt lat="22.314390" lon="103.765404">
<ele>2775.908203</ele>
<time>2011-04-24T07:03:43Z</time>
<desc>lat.=22.314390, lon.=103.765404, Alt.=2775.908203m. Speed=1.728000m/h.</desc>
<speed>0.480000</speed>
</trkpt>
<trkpt lat="22.314363" lon="103.765404">
<ele>2775.783203</ele>
<time>2011-04-24T07:03:48Z</time>
<desc>lat.=22.314363, lon.=103.765404, Alt.=2775.783203m. Speed=2.088000m/h.</desc>
<speed>0.580000</speed>
</trkpt>
<trkpt lat="22.314367" lon="103.765396">
<ele>2775.595703</ele>
<time>2011-04-24T07:03:53Z</time>
<desc>lat.=22.314367, lon.=103.765396, Alt.=2775.595703m. Speed=1.548000m/h.</desc>
<speed>0.430000</speed>
</trkpt>
<trkpt lat="22.314400" lon="103.765419">
<ele>2775.220703</ele>
<time>2011-04-24T07:03:58Z</time>
<desc>lat.=22.314400, lon.=103.765419, Alt.=2775.220703m. Speed=1.440000m/h.</desc>
<speed>0.400000</speed>
</trkpt>
<trkpt lat="22.314407" lon="103.765427">
<ele>2775.095703</ele>
<time>2011-04-24T07:04:03Z</time>
<desc>lat.=22.314407, lon.=103.765427, Alt.=2775.095703m. Speed=0.684000m/h.</desc>
<speed>0.190000</speed>
</trkpt>
<trkpt lat="22.314411" lon="103.765427">
<ele>2775.033203</ele>
<time>2011-04-24T07:04:08Z</time>
<desc>lat.=22.314411, lon.=103.765427, Alt.=2775.033203m. Speed=0.324000m/h.</desc>
<speed>0.090000</speed>
</trkpt>
<trkpt lat="22.314432" lon="103.765457">
<ele>2775.095703</ele>
<time>2011-04-24T07:04:13Z</time>
<desc>lat.=22.314432, lon.=103.765457, Alt.=2775.095703m. Speed=1.440000m/h.</desc>
<speed>0.400000</speed>
</trkpt>
<trkpt lat="22.314466" lon="103.765480">
<ele>2774.908203</ele>
<time>2011-04-24T07:04:18Z</time>
<desc>lat.=22.314466, lon.=103.765480, Alt.=2774.908203m. Speed=0.540000m/h.</desc>
<speed>0.150000</speed>
</trkpt>
<trkpt lat="22.314468" lon="103.765480">
<ele>2774.908203</ele>
<time>2011-04-24T07:04:23Z</time>
<desc>lat.=22.314468, lon.=103.765480, Alt.=2774.908203m. Speed=0.252000m/h.</desc>
<speed>0.070000</speed>
</trkpt>
<trkpt lat="22.314480" lon="103.765503">
<ele>2774.720703</ele>
<time>2011-04-24T07:04:28Z</time>
<desc>lat.=22.314480, lon.=103.765503, Alt.=2774.720703m. Speed=2.448000m/h.</desc>
<speed>0.680000</speed>
</trkpt>
<trkpt lat="22.314501" lon="103.765541">
<ele>2774.533203</ele>
<time>2011-04-24T07:04:33Z</time>
<desc>lat.=22.314501, lon.=103.765541, Alt.=2774.533203m. Speed=2.160000m/h.</desc>
<speed>0.600000</speed>
</trkpt>
<trkpt lat="22.314518" lon="103.765556">
<ele>2774.033203</ele>
<time>2011-04-24T07:04:38Z</time>
<desc>lat.=22.314518, lon.=103.765556, Alt.=2774.033203m. Speed=1.440000m/h.</desc>
<speed>0.400000</speed>
</trkpt>
<trkpt lat="22.314539" lon="103.765587">
<ele>2773.658203</ele>
<time>2011-04-24T07:04:43Z</time>
<desc>lat.=22.314539, lon.=103.765587, Alt.=2773.658203m. Speed=1.764000m/h.</desc>
<speed>0.490000</speed>
</trkpt>
<trkpt lat="22.314537" lon="103.765556">
<ele>2774.033203</ele>
<time>2011-04-24T07:04:48Z</time>
<desc>lat.=22.314537, lon.=103.765556, Alt.=2774.033203m. Speed=0.756000m/h.</desc>
<speed>0.210000</speed>
</trkpt>
<trkpt lat="22.314543" lon="103.765541">
<ele>2774.345703</ele>
<time>2011-04-24T07:04:53Z</time>
<desc>lat.=22.314543, lon.=103.765541, Alt.=2774.345703m. Speed=0.684000m/h.</desc>
<speed>0.190000</speed>
</trkpt>
<trkpt lat="22.314543" lon="103.765541">
<ele>2774.345703</ele>
<time>2011-04-24T07:04:58Z</time>
<desc>lat.=22.314543, lon.=103.765541, Alt.=2774.345703m. Speed=1.368000m/h.</desc>
<speed>0.380000</speed>
</trkpt>
<trkpt lat="22.314529" lon="103.765511">
<ele>2774.970703</ele>
<time>2011-04-24T07:05:03Z</time>
<desc>lat.=22.314529, lon.=103.765511, Alt.=2774.970703m. Speed=1.260000m/h.</desc>
<speed>0.350000</speed>
</trkpt>
<trkpt lat="22.314528" lon="103.765533">
<ele>2775.783203</ele>
<time>2011-04-24T07:05:08Z</time>
<desc>lat.=22.314528, lon.=103.765533, Alt.=2775.783203m. Speed=1.080000m/h.</desc>
<speed>0.300000</speed>
</trkpt>
<trkpt lat="22.314528" lon="103.765541">
<ele>2776.720703</ele>
<time>2011-04-24T07:05:13Z</time>
<desc>lat.=22.314528, lon.=103.765541, Alt.=2776.720703m. Speed=1.476000m/h.</desc>
<speed>0.410000</speed>
</trkpt>
<trkpt lat="22.314520" lon="103.765518">
<ele>2777.220703</ele>
<time>2011-04-24T07:05:18Z</time>
<desc>lat.=22.314520, lon.=103.765518, Alt.=2777.220703m. Speed=2.016000m/h.</desc>
<speed>0.560000</speed>
</trkpt>
<trkpt lat="22.314501" lon="103.765511">
<ele>2777.783203</ele>
<time>2011-04-24T07:05:23Z</time>
<desc>lat.=22.314501, lon.=103.765511, Alt.=2777.783203m. Speed=2.700000m/h.</desc>
<speed>0.750000</speed>
</trkpt>
<trkpt lat="22.314478" lon="103.765533">
<ele>2778.595703</ele>
<time>2011-04-24T07:05:28Z</time>
<desc>lat.=22.314478, lon.=103.765533, Alt.=2778.595703m. Speed=1.116000m/h.</desc>
<speed>0.310000</speed>
</trkpt>
<trkpt lat="22.314465" lon="103.765564">
<ele>2779.283203</ele>
<time>2011-04-24T07:05:33Z</time>
<desc>lat.=22.314465, lon.=103.765564, Alt.=2779.283203m. Speed=1.116000m/h.</desc>
<speed>0.310000</speed>
</trkpt>
<trkpt lat="22.314453" lon="103.765579">
<ele>2779.533203</ele>
<time>2011-04-24T07:05:38Z</time>
<desc>lat.=22.314453, lon.=103.765579, Alt.=2779.533203m. Speed=0.720000m/h.</desc>
<speed>0.200000</speed>
</trkpt>
<trkpt lat="22.314459" lon="103.765572">
<ele>2779.470703</ele>
<time>2011-04-24T07:05:43Z</time>
<desc>lat.=22.314459, lon.=103.765572, Alt.=2779.470703m. Speed=0.396000m/h.</desc>
<speed>0.110000</speed>
</trkpt>
<trkpt lat="22.314472" lon="103.765587">
<ele>2779.408203</ele>
<time>2011-04-24T07:05:48Z</time>
<desc>lat.=22.314472, lon.=103.765587, Alt.=2779.408203m. Speed=0.972000m/h.</desc>
<speed>0.270000</speed>
</trkpt>
<trkpt lat="22.314491" lon="103.765556">
<ele>2779.283203</ele>
<time>2011-04-24T07:05:53Z</time>
<desc>lat.=22.314491, lon.=103.765556, Alt.=2779.283203m. Speed=0.612000m/h.</desc>
<speed>0.170000</speed>
</trkpt>
<trkpt lat="22.314518" lon="103.765533">
<ele>2779.220703</ele>
<time>2011-04-24T07:05:58Z</time>
<desc>lat.=22.314518, lon.=103.765533, Alt.=2779.220703m. Speed=1.296000m/h.</desc>
<speed>0.360000</speed>
</trkpt>
<trkpt lat="22.314529" lon="103.765533">
<ele>2779.095703</ele>
<time>2011-04-24T07:06:03Z</time>
<desc>lat.=22.314529, lon.=103.765533, Alt.=2779.095703m. Speed=1.188000m/h.</desc>
<speed>0.330000</speed>
</trkpt>
<trkpt lat="22.314510" lon="103.765564">
<ele>2779.095703</ele>
<time>2011-04-24T07:06:08Z</time>
<desc>lat.=22.314510, lon.=103.765564, Alt.=2779.095703m. Speed=0.792000m/h.</desc>
<speed>0.220000</speed>
</trkpt>
<trkpt lat="22.314528" lon="103.765594">
<ele>2778.970703</ele>
<time>2011-04-24T07:06:13Z</time>
<desc>lat.=22.314528, lon.=103.765594, Alt.=2778.970703m. Speed=1.332000m/h.</desc>
<speed>0.370000</speed>
</trkpt>
<trkpt lat="22.314533" lon="103.765610">
<ele>2778.845703</ele>
<time>2011-04-24T07:06:18Z</time>
<desc>lat.=22.314533, lon.=103.765610, Alt.=2778.845703m. Speed=1.620000m/h.</desc>
<speed>0.450000</speed>
</trkpt>
<trkpt lat="22.314522" lon="103.765671">
<ele>2778.658203</ele>
<time>2011-04-24T07:06:23Z</time>
<desc>lat.=22.314522, lon.=103.765671, Alt.=2778.658203m. Speed=2.412000m/h.</desc>
<speed>0.670000</speed>
</trkpt>
<trkpt lat="22.314524" lon="103.765686">
<ele>2778.345703</ele>
<time>2011-04-24T07:06:28Z</time>
<desc>lat.=22.314524, lon.=103.765686, Alt.=2778.345703m. Speed=2.052000m/h.</desc>
<speed>0.570000</speed>
</trkpt>
<trkpt lat="22.314510" lon="103.765663">
<ele>2778.158203</ele>
<time>2011-04-24T07:06:33Z</time>
<desc>lat.=22.314510, lon.=103.765663, Alt.=2778.158203m. Speed=0.108000m/h.</desc>
<speed>0.030000</speed>
</trkpt>
<trkpt lat="22.314512" lon="103.765671">
<ele>2778.158203</ele>
<time>2011-04-24T07:06:38Z</time>
<desc>lat.=22.314512, lon.=103.765671, Alt.=2778.158203m. Speed=0.360000m/h.</desc>
<speed>0.100000</speed>
</trkpt>
<trkpt lat="22.314516" lon="103.765671">
<ele>2778.158203</ele>
<time>2011-04-24T07:06:43Z</time>
<desc>lat.=22.314516, lon.=103.765671, Alt.=2778.158203m. Speed=0.720000m/h.</desc>
<speed>0.200000</speed>
</trkpt>
<trkpt lat="22.314524" lon="103.765678">
<ele>2778.095703</ele>
<time>2011-04-24T07:06:48Z</time>
<desc>lat.=22.314524, lon.=103.765678, Alt.=2778.095703m. Speed=0.756000m/h.</desc>
<speed>0.210000</speed>
</trkpt>
<trkpt lat="22.314528" lon="103.765671">
<ele>2778.095703</ele>
<time>2011-04-24T07:06:53Z</time>
<desc>lat.=22.314528, lon.=103.765671, Alt.=2778.095703m. Speed=0.792000m/h.</desc>
<speed>0.220000</speed>
</trkpt>
<trkpt lat="22.314524" lon="103.765678">
<ele>2777.970703</ele>
<time>2011-04-24T07:06:58Z</time>
<desc>lat.=22.314524, lon.=103.765678, Alt.=2777.970703m. Speed=0.756000m/h.</desc>
<speed>0.210000</speed>
</trkpt>
<trkpt lat="22.314518" lon="103.765678">
<ele>2777.845703</ele>
<time>2011-04-24T07:07:03Z</time>
<desc>lat.=22.314518, lon.=103.765678, Alt.=2777.845703m. Speed=0.648000m/h.</desc>
<speed>0.180000</speed>
</trkpt>
<trkpt lat="22.314507" lon="103.765686">
<ele>2777.783203</ele>
<time>2011-04-24T07:07:08Z</time>
<desc>lat.=22.314507, lon.=103.765686, Alt.=2777.783203m. Speed=1.296000m/h.</desc>
<speed>0.360000</speed>
</trkpt>
<trkpt lat="22.314510" lon="103.765686">
<ele>2777.970703</ele>
<time>2011-04-24T07:07:13Z</time>
<desc>lat.=22.314510, lon.=103.765686, Alt.=2777.970703m. Speed=0.540000m/h.</desc>
<speed>0.150000</speed>
</trkpt>
<trkpt lat="22.314508" lon="103.765709">
<ele>2778.220703</ele>
<time>2011-04-24T07:07:18Z</time>
<desc>lat.=22.314508, lon.=103.765709, Alt.=2778.220703m. Speed=2.196000m/h.</desc>
<speed>0.610000</speed>
</trkpt>
<trkpt lat="22.314499" lon="103.765671">
<ele>2778.533203</ele>
<time>2011-04-24T07:07:23Z</time>
<desc>lat.=22.314499, lon.=103.765671, Alt.=2778.533203m. Speed=0.612000m/h.</desc>
<speed>0.170000</speed>
</trkpt>
<trkpt lat="22.314491" lon="103.765640">
<ele>2778.533203</ele>
<time>2011-04-24T07:07:28Z</time>
<desc>lat.=22.314491, lon.=103.765640, Alt.=2778.533203m. Speed=1.800000m/h.</desc>
<speed>0.500000</speed>
</trkpt>
<trkpt lat="22.314461" lon="103.765648">
<ele>2779.033203</ele>
<time>2011-04-24T07:07:33Z</time>
<desc>lat.=22.314461, lon.=103.765648, Alt.=2779.033203m. Speed=0.792000m/h.</desc>
<speed>0.220000</speed>
</trkpt>
<trkpt lat="22.314442" lon="103.765663">
<ele>2778.845703</ele>
<time>2011-04-24T07:07:38Z</time>
<desc>lat.=22.314442, lon.=103.765663, Alt.=2778.845703m. Speed=0.900000m/h.</desc>
<speed>0.250000</speed>
</trkpt>
<trkpt lat="22.314442" lon="103.765656">
<ele>2778.845703</ele>
<time>2011-04-24T07:07:43Z</time>
<desc>lat.=22.314442, lon.=103.765656, Alt.=2778.845703m. Speed=0.324000m/h.</desc>
<speed>0.090000</speed>
</trkpt>
<trkpt lat="22.314449" lon="103.765656">
<ele>2778.845703</ele>
<time>2011-04-24T07:07:48Z</time>
<desc>lat.=22.314449, lon.=103.765656, Alt.=2778.845703m. Speed=1.224000m/h.</desc>
<speed>0.340000</speed>
</trkpt>
<trkpt lat="22.314461" lon="103.765610">
<ele>2777.720703</ele>
<time>2011-04-24T07:07:53Z</time>
<desc>lat.=22.314461, lon.=103.765610, Alt.=2777.720703m. Speed=1.368000m/h.</desc>
<speed>0.380000</speed>
</trkpt>
<trkpt lat="22.314465" lon="103.765625">
<ele>2776.408203</ele>
<time>2011-04-24T07:07:58Z</time>
<desc>lat.=22.314465, lon.=103.765625, Alt.=2776.408203m. Speed=0.324000m/h.</desc>
<speed>0.090000</speed>
</trkpt>
<trkpt lat="22.314468" lon="103.765648">
<ele>2776.033203</ele>
<time>2011-04-24T07:08:03Z</time>
<desc>lat.=22.314468, lon.=103.765648, Alt.=2776.033203m. Speed=1.224000m/h.</desc>
<speed>0.340000</speed>
</trkpt>
<trkpt lat="22.314465" lon="103.765648">
<ele>2775.908203</ele>
<time>2011-04-24T07:08:08Z</time>
<desc>lat.=22.314465, lon.=103.765648, Alt.=2775.908203m. Speed=1.080000m/h.</desc>
<speed>0.300000</speed>
</trkpt>
<trkpt lat="22.314486" lon="103.765633">
<ele>2775.845703</ele>
<time>2011-04-24T07:08:13Z</time>
<desc>lat.=22.314486, lon.=103.765633, Alt.=2775.845703m. Speed=0.576000m/h.</desc>
<speed>0.160000</speed>
</trkpt>
<trkpt lat="22.314489" lon="103.765633">
<ele>2775.783203</ele>
<time>2011-04-24T07:08:18Z</time>
<desc>lat.=22.314489, lon.=103.765633, Alt.=2775.783203m. Speed=0.684000m/h.</desc>
<speed>0.190000</speed>
</trkpt>
<trkpt lat="22.314486" lon="103.765633">
<ele>2775.783203</ele>
<time>2011-04-24T07:08:23Z</time>
<desc>lat.=22.314486, lon.=103.765633, Alt.=2775.783203m. Speed=1.044000m/h.</desc>
<speed>0.290000</speed>
</trkpt>
<trkpt lat="22.314493" lon="103.765648">
<ele>2775.220703</ele>
<time>2011-04-24T07:08:28Z</time>
<desc>lat.=22.314493, lon.=103.765648, Alt.=2775.220703m. Speed=0.036000m/h.</desc>
<speed>0.010000</speed>
</trkpt>
<trkpt lat="22.314499" lon="103.765656">
<ele>2774.908203</ele>
<time>2011-04-24T07:08:33Z</time>
<desc>lat.=22.314499, lon.=103.765656, Alt.=2774.908203m. Speed=0.972000m/h.</desc>
<speed>0.270000</speed>
</trkpt>
<trkpt lat="22.314507" lon="103.765656">
<ele>2774.908203</ele>
<time>2011-04-24T07:08:38Z</time>
<desc>lat.=22.314507, lon.=103.765656, Alt.=2774.908203m. Speed=0.864000m/h.</desc>
<speed>0.240000</speed>
</trkpt>
<trkpt lat="22.314508" lon="103.765663">
<ele>2774.908203</ele>
<time>2011-04-24T07:08:43Z</time>
<desc>lat.=22.314508, lon.=103.765663, Alt.=2774.908203m. Speed=0.396000m/h.</desc>
<speed>0.110000</speed>
</trkpt>
<trkpt lat="22.314518" lon="103.765678">
<ele>2774.220703</ele>
<time>2011-04-24T07:08:48Z</time>
<desc>lat.=22.314518, lon.=103.765678, Alt.=2774.220703m. Speed=0.216000m/h.</desc>
<speed>0.060000</speed>
</trkpt>
<trkpt lat="22.314512" lon="103.765663">
<ele>2774.095703</ele>
<time>2011-04-24T07:08:53Z</time>
<desc>lat.=22.314512, lon.=103.765663, Alt.=2774.095703m. Speed=0.360000m/h.</desc>
<speed>0.100000</speed>
</trkpt>
<trkpt lat="22.314514" lon="103.765663">
<ele>2774.095703</ele>
<time>2011-04-24T07:08:58Z</time>
<desc>lat.=22.314514, lon.=103.765663, Alt.=2774.095703m. Speed=0.252000m/h.</desc>
<speed>0.070000</speed>
</trkpt>
<trkpt lat="22.314514" lon="103.765671">
<ele>2774.095703</ele>
<time>2011-04-24T07:09:03Z</time>
<desc>lat.=22.314514, lon.=103.765671, Alt.=2774.095703m. Speed=0.360000m/h.</desc>
<speed>0.100000</speed>
</trkpt>
<trkpt lat="22.314514" lon="103.765663">
<ele>2774.033203</ele>
<time>2011-04-24T07:09:08Z</time>
<desc>lat.=22.314514, lon.=103.765663, Alt.=2774.033203m. Speed=0.540000m/h.</desc>
<speed>0.150000</speed>
</trkpt>
<trkpt lat="22.314486" lon="103.765625">
<ele>2773.720703</ele>
<time>2011-04-24T07:09:13Z</time>
<desc>lat.=22.314486, lon.=103.765625, Alt.=2773.720703m. Speed=2.016000m/h.</desc>
<speed>0.560000</speed>
</trkpt>
<trkpt lat="22.314451" lon="103.765648">
<ele>2773.470703</ele>
<time>2011-04-24T07:09:18Z</time>
<desc>lat.=22.314451, lon.=103.765648, Alt.=2773.470703m. Speed=0.576000m/h.</desc>
<speed>0.160000</speed>
</trkpt>
<trkpt lat="22.314440" lon="103.765648">
<ele>2773.158203</ele>
<time>2011-04-24T07:09:23Z</time>
<desc>lat.=22.314440, lon.=103.765648, Alt.=2773.158203m. Speed=0.684000m/h.</desc>
<speed>0.190000</speed>
</trkpt>
<trkpt lat="22.314440" lon="103.765656">
<ele>2773.158203</ele>
<time>2011-04-24T07:09:28Z</time>
<desc>lat.=22.314440, lon.=103.765656, Alt.=2773.158203m. Speed=0.432000m/h.</desc>
<speed>0.120000</speed>
</trkpt>
<trkpt lat="22.314438" lon="103.765648">
<ele>2773.158203</ele>
<time>2011-04-24T07:09:33Z</time>
<desc>lat.=22.314438, lon.=103.765648, Alt.=2773.158203m. Speed=0.648000m/h.</desc>
<speed>0.180000</speed>
</trkpt>
<trkpt lat="22.314438" lon="103.765640">
<ele>2773.158203</ele>
<time>2011-04-24T07:09:38Z</time>
<desc>lat.=22.314438, lon.=103.765640, Alt.=2773.158203m. Speed=0.360000m/h.</desc>
<speed>0.100000</speed>
</trkpt>
<trkpt lat="22.314442" lon="103.765633">
<ele>2773.158203</ele>
<time>2011-04-24T07:09:43Z</time>
<desc>lat.=22.314442, lon.=103.765633, Alt.=2773.158203m. Speed=0.468000m/h.</desc>
<speed>0.130000</speed>
</trkpt>
<trkpt lat="22.314449" lon="103.765633">
<ele>2773.158203</ele>
<time>2011-04-24T07:09:48Z</time>
<desc>lat.=22.314449, lon.=103.765633, Alt.=2773.158203m. Speed=1.008000m/h.</desc>
<speed>0.280000</speed>
</trkpt>
<trkpt lat="22.314451" lon="103.765617">
<ele>2773.158203</ele>
<time>2011-04-24T07:09:53Z</time>
<desc>lat.=22.314451, lon.=103.765617, Alt.=2773.158203m. Speed=1.080000m/h.</desc>
<speed>0.300000</speed>
</trkpt>
<trkpt lat="22.314457" lon="103.765564">
<ele>2772.470703</ele>
<time>2011-04-24T07:09:58Z</time>
<desc>lat.=22.314457, lon.=103.765564, Alt.=2772.470703m. Speed=1.116000m/h.</desc>
<speed>0.310000</speed>
</trkpt>
<trkpt lat="22.314445" lon="103.765518">
<ele>2772.533203</ele>
<time>2011-04-24T07:10:03Z</time>
<desc>lat.=22.314445, lon.=103.765518, Alt.=2772.533203m. Speed=0.288000m/h.</desc>
<speed>0.080000</speed>
</trkpt>
<trkpt lat="22.314447" lon="103.765511">
<ele>2772.533203</ele>
<time>2011-04-24T07:10:08Z</time>
<desc>lat.=22.314447, lon.=103.765511, Alt.=2772.533203m. Speed=1.008000m/h.</desc>
<speed>0.280000</speed>
</trkpt>
<trkpt lat="22.314447" lon="103.765495">
<ele>2772.470703</ele>
<time>2011-04-24T07:10:13Z</time>
<desc>lat.=22.314447, lon.=103.765495, Alt.=2772.470703m. Speed=0.648000m/h.</desc>
<speed>0.180000</speed>
</trkpt>
<trkpt lat="22.314449" lon="103.765488">
<ele>2772.533203</ele>
<time>2011-04-24T07:10:18Z</time>
<desc>lat.=22.314449, lon.=103.765488, Alt.=2772.533203m. Speed=0.756000m/h.</desc>
<speed>0.210000</speed>
</trkpt>
<trkpt lat="22.314455" lon="103.765480">
<ele>2772.533203</ele>
<time>2011-04-24T07:10:23Z</time>
<desc>lat.=22.314455, lon.=103.765480, Alt.=2772.533203m. Speed=0.144000m/h.</desc>
<speed>0.040000</speed>
</trkpt>
<trkpt lat="22.314449" lon="103.765488">
<ele>2772.533203</ele>
<time>2011-04-24T07:10:28Z</time>
<desc>lat.=22.314449, lon.=103.765488, Alt.=2772.533203m. Speed=0.576000m/h.</desc>
<speed>0.160000</speed>
</trkpt>
<trkpt lat="22.314491" lon="103.765549">
<ele>2772.595703</ele>
<time>2011-04-24T07:10:33Z</time>
<desc>lat.=22.314491, lon.=103.765549, Alt.=2772.595703m. Speed=1.872000m/h.</desc>
<speed>0.520000</speed>
</trkpt>
<trkpt lat="22.314539" lon="103.765587">
<ele>2772.595703</ele>
<time>2011-04-24T07:10:38Z</time>
<desc>lat.=22.314539, lon.=103.765587, Alt.=2772.595703m. Speed=2.448000m/h.</desc>
<speed>0.680000</speed>
</trkpt>
<trkpt lat="22.314533" lon="103.765572">
<ele>2772.345703</ele>
<time>2011-04-24T07:10:43Z</time>
<desc>lat.=22.314533, lon.=103.765572, Alt.=2772.345703m. Speed=0.360000m/h.</desc>
<speed>0.100000</speed>
</trkpt>
<trkpt lat="22.314533" lon="103.765572">
<ele>2772.345703</ele>
<time>2011-04-24T07:10:48Z</time>
<desc>lat.=22.314533, lon.=103.765572, Alt.=2772.345703m. Speed=0.216000m/h.</desc>
<speed>0.060000</speed>
</trkpt>
<trkpt lat="22.314531" lon="103.765572">
<ele>2772.345703</ele>
<time>2011-04-24T07:10:53Z</time>
<desc>lat.=22.314531, lon.=103.765572, Alt.=2772.345703m. Speed=0.468000m/h.</desc>
<speed>0.130000</speed>
</trkpt>
<trkpt lat="22.314526" lon="103.765579">
<ele>2772.345703</ele>
<time>2011-04-24T07:10:58Z</time>
<desc>lat.=22.314526, lon.=103.765579, Alt.=2772.345703m. Speed=1.332000m/h.</desc>
<speed>0.370000</speed>
</trkpt>
<trkpt lat="22.314531" lon="103.765610">
<ele>2772.283203</ele>
<time>2011-04-24T07:11:03Z</time>
<desc>lat.=22.314531, lon.=103.765610, Alt.=2772.283203m. Speed=1.548000m/h.</desc>
<speed>0.430000</speed>
</trkpt>
<trkpt lat="22.314547" lon="103.765617">
<ele>2772.220703</ele>
<time>2011-04-24T07:11:08Z</time>
<desc>lat.=22.314547, lon.=103.765617, Alt.=2772.220703m. Speed=1.332000m/h.</desc>
<speed>0.370000</speed>
</trkpt>
<trkpt lat="22.314573" lon="103.765656">
<ele>2772.283203</ele>
<time>2011-04-24T07:11:13Z</time>
<desc>lat.=22.314573, lon.=103.765656, Alt.=2772.283203m. Speed=1.116000m/h.</desc>
<speed>0.310000</speed>
</trkpt>
<trkpt lat="22.314638" lon="103.765625">
<ele>2771.970703</ele>
<time>2011-04-24T07:11:18Z</time>
<desc>lat.=22.314638, lon.=103.765625, Alt.=2771.970703m. Speed=2.484000m/h.</desc>
<speed>0.690000</speed>
</trkpt>
<trkpt lat="22.314644" lon="103.765648">
<ele>2771.970703</ele>
<time>2011-04-24T07:11:23Z</time>
<desc>lat.=22.314644, lon.=103.765648, Alt.=2771.970703m. Speed=0.504000m/h.</desc>
<speed>0.140000</speed>
</trkpt>
<trkpt lat="22.314638" lon="103.765625">
<ele>2771.845703</ele>
<time>2011-04-24T07:11:28Z</time>
<desc>lat.=22.314638, lon.=103.765625, Alt.=2771.845703m. Speed=1.404000m/h.</desc>
<speed>0.390000</speed>
</trkpt>
<trkpt lat="22.314604" lon="103.765663">
<ele>2772.220703</ele>
<time>2011-04-24T07:11:33Z</time>
<desc>lat.=22.314604, lon.=103.765663, Alt.=2772.220703m. Speed=0.288000m/h.</desc>
<speed>0.080000</speed>
</trkpt>
<trkpt lat="22.314602" lon="103.765663">
<ele>2772.220703</ele>
<time>2011-04-24T07:11:38Z</time>
<desc>lat.=22.314602, lon.=103.765663, Alt.=2772.220703m. Speed=0.684000m/h.</desc>
<speed>0.190000</speed>
</trkpt>
<trkpt lat="22.314619" lon="103.765694">
<ele>2772.033203</ele>
<time>2011-04-24T07:11:43Z</time>
<desc>lat.=22.314619, lon.=103.765694, Alt.=2772.033203m. Speed=1.548000m/h.</desc>
<speed>0.430000</speed>
</trkpt>
<trkpt lat="22.314629" lon="103.765671">
<ele>2771.908203</ele>
<time>2011-04-24T07:11:48Z</time>
<desc>lat.=22.314629, lon.=103.765671, Alt.=2771.908203m. Speed=0.540000m/h.</desc>
<speed>0.150000</speed>
</trkpt>
<trkpt lat="22.314655" lon="103.765686">
<ele>2771.783203</ele>
<time>2011-04-24T07:11:53Z</time>
<desc>lat.=22.314655, lon.=103.765686, Alt.=2771.783203m. Speed=0.756000m/h.</desc>
<speed>0.210000</speed>
</trkpt>
<trkpt lat="22.314661" lon="103.765671">
<ele>2771.658203</ele>
<time>2011-04-24T07:11:58Z</time>
<desc>lat.=22.314661, lon.=103.765671, Alt.=2771.658203m. Speed=0.252000m/h.</desc>
<speed>0.070000</speed>
</trkpt>
<trkpt lat="22.314659" lon="103.765671">
<ele>2771.658203</ele>
<time>2011-04-24T07:12:03Z</time>
<desc>lat.=22.314659, lon.=103.765671, Alt.=2771.658203m. Speed=1.224000m/h.</desc>
<speed>0.340000</speed>
</trkpt>
<trkpt lat="22.314651" lon="103.765701">
<ele>2771.033203</ele>
<time>2011-04-24T07:12:08Z</time>
<desc>lat.=22.314651, lon.=103.765701, Alt.=2771.033203m. Speed=0.684000m/h.</desc>
<speed>0.190000</speed>
</trkpt>
<trkpt lat="22.314648" lon="103.765701">
<ele>2771.033203</ele>
<time>2011-04-24T07:12:13Z</time>
<desc>lat.=22.314648, lon.=103.765701, Alt.=2771.033203m. Speed=0.504000m/h.</desc>
<speed>0.140000</speed>
</trkpt>
<trkpt lat="22.314650" lon="103.765686">
<ele>2770.908203</ele>
<time>2011-04-24T07:12:18Z</time>
<desc>lat.=22.314650, lon.=103.765686, Alt.=2770.908203m. Speed=1.584000m/h.</desc>
<speed>0.440000</speed>
</trkpt>
<trkpt lat="22.314676" lon="103.765663">
<ele>2770.720703</ele>
<time>2011-04-24T07:12:23Z</time>
<desc>lat.=22.314676, lon.=103.765663, Alt.=2770.720703m. Speed=0.756000m/h.</desc>
<speed>0.210000</speed>
</trkpt>
<trkpt lat="22.314684" lon="103.765656">
<ele>2770.533203</ele>
<time>2011-04-24T07:12:28Z</time>
<desc>lat.=22.314684, lon.=103.765656, Alt.=2770.533203m. Speed=0.108000m/h.</desc>
<speed>0.030000</speed>
</trkpt>
<trkpt lat="22.314682" lon="103.765656">
<ele>2770.470703</ele>
<time>2011-04-24T07:12:33Z</time>
<desc>lat.=22.314682, lon.=103.765656, Alt.=2770.470703m. Speed=0.396000m/h.</desc>
<speed>0.110000</speed>
</trkpt>
<trkpt lat="22.314680" lon="103.765663">
<ele>2770.158203</ele>
<time>2011-04-24T07:12:38Z</time>
<desc>lat.=22.314680, lon.=103.765663, Alt.=2770.158203m. Speed=0.936000m/h.</desc>
<speed>0.260000</speed>
</trkpt>
<trkpt lat="22.314682" lon="103.765663">
<ele>2769.720703</ele>
<time>2011-04-24T07:12:43Z</time>
<desc>lat.=22.314682, lon.=103.765663, Alt.=2769.720703m. Speed=1.260000m/h.</desc>
<speed>0.350000</speed>
</trkpt>
<trkpt lat="22.314693" lon="103.765663">
<ele>2769.408203</ele>
<time>2011-04-24T07:12:48Z</time>
<desc>lat.=22.314693, lon.=103.765663, Alt.=2769.408203m. Speed=0.396000m/h.</desc>
<speed>0.110000</speed>
</trkpt>
<trkpt lat="22.314695" lon="103.765663">
<ele>2769.408203</ele>
<time>2011-04-24T07:12:53Z</time>
<desc>lat.=22.314695, lon.=103.765663, Alt.=2769.408203m. Speed=0.576000m/h.</desc>
<speed>0.160000</speed>
</trkpt>
<trkpt lat="22.314699" lon="103.765694">
<ele>2769.283203</ele>
<time>2011-04-24T07:12:58Z</time>
<desc>lat.=22.314699, lon.=103.765694, Alt.=2769.283203m. Speed=1.944000m/h.</desc>
<speed>0.540000</speed>
</trkpt>
<trkpt lat="22.314680" lon="103.765739">
<ele>2768.908203</ele>
<time>2011-04-24T07:13:03Z</time>
<desc>lat.=22.314680, lon.=103.765739, Alt.=2768.908203m. Speed=1.620000m/h.</desc>
<speed>0.450000</speed>
</trkpt>
<trkpt lat="22.314653" lon="103.765717">
<ele>2768.783203</ele>
<time>2011-04-24T07:13:08Z</time>
<desc>lat.=22.314653, lon.=103.765717, Alt.=2768.783203m. Speed=0.612000m/h.</desc>
<speed>0.170000</speed>
</trkpt>
<trkpt lat="22.314650" lon="103.765717">
<ele>2768.783203</ele>
<time>2011-04-24T07:13:13Z</time>
<desc>lat.=22.314650, lon.=103.765717, Alt.=2768.783203m. Speed=0.360000m/h.</desc>
<speed>0.100000</speed>
</trkpt>
<trkpt lat="22.314655" lon="103.765694">
<ele>2769.283203</ele>
<time>2011-04-24T07:13:18Z</time>
<desc>lat.=22.314655, lon.=103.765694, Alt.=2769.283203m. Speed=2.016000m/h.</desc>
<speed>0.560000</speed>
</trkpt>
<trkpt lat="22.314661" lon="103.765709">
<ele>2770.283203</ele>
<time>2011-04-24T07:13:23Z</time>
<desc>lat.=22.314661, lon.=103.765709, Alt.=2770.283203m. Speed=0.144000m/h.</desc>
<speed>0.040000</speed>
</trkpt>
<trkpt lat="22.314655" lon="103.765717">
<ele>2770.720703</ele>
<time>2011-04-24T07:13:28Z</time>
<desc>lat.=22.314655, lon.=103.765717, Alt.=2770.720703m. Speed=0.180000m/h.</desc>
<speed>0.050000</speed>
</trkpt>
<trkpt lat="22.314651" lon="103.765717">
<ele>2770.720703</ele>
<time>2011-04-24T07:13:33Z</time>
<desc>lat.=22.314651, lon.=103.765717, Alt.=2770.720703m. Speed=2.232000m/h.</desc>
<speed>0.620000</speed>
</trkpt>
<trkpt lat="22.314594" lon="103.765663">
<ele>2772.095703</ele>
<time>2011-04-24T07:13:38Z</time>
<desc>lat.=22.314594, lon.=103.765663, Alt.=2772.095703m. Speed=0.540000m/h.</desc>
<speed>0.150000</speed>
</trkpt>
<trkpt lat="22.314568" lon="103.765633">
<ele>2772.470703</ele>
<time>2011-04-24T07:13:43Z</time>
<desc>lat.=22.314568, lon.=103.765633, Alt.=2772.470703m. Speed=0.612000m/h.</desc>
<speed>0.170000</speed>
</trkpt>
<trkpt lat="22.314537" lon="103.765625">
<ele>2772.220703</ele>
<time>2011-04-24T07:13:48Z</time>
<desc>lat.=22.314537, lon.=103.765625, Alt.=2772.220703m. Speed=1.152000m/h.</desc>
<speed>0.320000</speed>
</trkpt>
<trkpt lat="22.314514" lon="103.765617">
<ele>2772.158203</ele>
<time>2011-04-24T07:13:53Z</time>
<desc>lat.=22.314514, lon.=103.765617, Alt.=2772.158203m. Speed=0.252000m/h.</desc>
<speed>0.070000</speed>
</trkpt>
<trkpt lat="22.314503" lon="103.765617">
<ele>2771.408203</ele>
<time>2011-04-24T07:13:58Z</time>
<desc>lat.=22.314503, lon.=103.765617, Alt.=2771.408203m. Speed=0.000000m/h.</desc>
<speed>0.000000</speed>
</trkpt>
<trkpt lat="22.314505" lon="103.765602">
<ele>2770.970703</ele>
<time>2011-04-24T07:14:03Z</time>
<desc>lat.=22.314505, lon.=103.765602, Alt.=2770.970703m. Speed=0.792000m/h.</desc>
<speed>0.220000</speed>
</trkpt>
<trkpt lat="22.314507" lon="103.765587">
<ele>2770.970703</ele>
<time>2011-04-24T07:14:08Z</time>
<desc>lat.=22.314507, lon.=103.765587, Alt.=2770.970703m. Speed=1.224000m/h.</desc>
<speed>0.340000</speed>
</trkpt>
<trkpt lat="22.314508" lon="103.765587">
<ele>2771.283203</ele>
<time>2011-04-24T07:14:13Z</time>
<desc>lat.=22.314508, lon.=103.765587, Alt.=2771.283203m. Speed=0.792000m/h.</desc>
<speed>0.220000</speed>
</trkpt>
<trkpt lat="22.314507" lon="103.765587">
<ele>2771.283203</ele>
<time>2011-04-24T07:14:18Z</time>
<desc>lat.=22.314507, lon.=103.765587, Alt.=2771.283203m. Speed=0.360000m/h.</desc>
<speed>0.100000</speed>
</trkpt>
<trkpt lat="22.314512" lon="103.765587">
<ele>2771.345703</ele>
<time>2011-04-24T07:14:23Z</time>
<desc>lat.=22.314512, lon.=103.765587, Alt.=2771.345703m. Speed=1.152000m/h.</desc>
<speed>0.320000</speed>
</trkpt>
<trkpt lat="22.314548" lon="103.765556">
<ele>2771.845703</ele>
<time>2011-04-24T07:14:28Z</time>
<desc>lat.=22.314548, lon.=103.765556, Alt.=2771.845703m. Speed=1.188000m/h.</desc>
<speed>0.330000</speed>
</trkpt>
<trkpt lat="22.314566" lon="103.765533">
<ele>2772.033203</ele>
<time>2011-04-24T07:14:33Z</time>
<desc>lat.=22.314566, lon.=103.765533, Alt.=2772.033203m. Speed=1.044000m/h.</desc>
<speed>0.290000</speed>
</trkpt>
<trkpt lat="22.314579" lon="103.765511">
<ele>2771.970703</ele>
<time>2011-04-24T07:14:38Z</time>
<desc>lat.=22.314579, lon.=103.765511, Alt.=2771.970703m. Speed=1.764000m/h.</desc>
<speed>0.490000</speed>
</trkpt>
<trkpt lat="22.314610" lon="103.765488">
<ele>2771.720703</ele>
<time>2011-04-24T07:14:43Z</time>
<desc>lat.=22.314610, lon.=103.765488, Alt.=2771.720703m. Speed=1.296000m/h.</desc>
<speed>0.360000</speed>
</trkpt>
<trkpt lat="22.314627" lon="103.765450">
<ele>2771.595703</ele>
<time>2011-04-24T07:14:48Z</time>
<desc>lat.=22.314627, lon.=103.765450, Alt.=2771.595703m. Speed=0.900000m/h.</desc>
<speed>0.250000</speed>
</trkpt>
<trkpt lat="22.314623" lon="103.765450">
<ele>2771.533203</ele>
<time>2011-04-24T07:14:53Z</time>
<desc>lat.=22.314623, lon.=103.765450, Alt.=2771.533203m. Speed=0.648000m/h.</desc>
<speed>0.180000</speed>
</trkpt>
<trkpt lat="22.314615" lon="103.765457">
<ele>2771.533203</ele>
<time>2011-04-24T07:14:58Z</time>
<desc>lat.=22.314615, lon.=103.765457, Alt.=2771.533203m. Speed=1.008000m/h.</desc>
<speed>0.280000</speed>
</trkpt>
<trkpt lat="22.314613" lon="103.765465">
<ele>2771.533203</ele>
<time>2011-04-24T07:15:03Z</time>
<desc>lat.=22.314613, lon.=103.765465, Alt.=2771.533203m. Speed=1.368000m/h.</desc>
<speed>0.380000</speed>
</trkpt>
<trkpt lat="22.314615" lon="103.765480">
<ele>2771.095703</ele>
<time>2011-04-24T07:15:08Z</time>
<desc>lat.=22.314615, lon.=103.765480, Alt.=2771.095703m. Speed=0.828000m/h.</desc>
<speed>0.230000</speed>
</trkpt>
<trkpt lat="22.314646" lon="103.765495">
<ele>2770.470703</ele>
<time>2011-04-24T07:15:13Z</time>
<desc>lat.=22.314646, lon.=103.765495, Alt.=2770.470703m. Speed=2.556000m/h.</desc>
<speed>0.710000</speed>
</trkpt>
<trkpt lat="22.314669" lon="103.765556">
<ele>2769.845703</ele>
<time>2011-04-24T07:15:18Z</time>
<desc>lat.=22.314669, lon.=103.765556, Alt.=2769.845703m. Speed=1.476000m/h.</desc>
<speed>0.410000</speed>
</trkpt>
<trkpt lat="22.314678" lon="103.765564">
<ele>2769.970703</ele>
<time>2011-04-24T07:15:23Z</time>
<desc>lat.=22.314678, lon.=103.765564, Alt.=2769.970703m. Speed=0.108000m/h.</desc>
<speed>0.030000</speed>
</trkpt>
<trkpt lat="22.314682" lon="103.765564">
<ele>2770.033203</ele>
<time>2011-04-24T07:15:28Z</time>
<desc>lat.=22.314682, lon.=103.765564, Alt.=2770.033203m. Speed=0.396000m/h.</desc>
<speed>0.110000</speed>
</trkpt>
<trkpt lat="22.314688" lon="103.765564">
<ele>2770.033203</ele>
<time>2011-04-24T07:15:33Z</time>
<desc>lat.=22.314688, lon.=103.765564, Alt.=2770.033203m. Speed=0.108000m/h.</desc>
<speed>0.030000</speed>
</trkpt>
<trkpt lat="22.314688" lon="103.765564">
<ele>2770.033203</ele>
<time>2011-04-24T07:15:38Z</time>
<desc>lat.=22.314688, lon.=103.765564, Alt.=2770.033203m. Speed=0.756000m/h.</desc>
<speed>0.210000</speed>
</trkpt>
<trkpt lat="22.314682" lon="103.765572">
<ele>2770.095703</ele>
<time>2011-04-24T07:15:43Z</time>
<desc>lat.=22.314682, lon.=103.765572, Alt.=2770.095703m. Speed=0.972000m/h.</desc>
<speed>0.270000</speed>
</trkpt>
<trkpt lat="22.314663" lon="103.765594">
<ele>2770.158203</ele>
<time>2011-04-24T07:15:48Z</time>
<desc>lat.=22.314663, lon.=103.765594, Alt.=2770.158203m. Speed=0.648000m/h.</desc>
<speed>0.180000</speed>
</trkpt>
<trkpt lat="22.314678" lon="103.765564">
<ele>2770.220703</ele>
<time>2011-04-24T07:15:53Z</time>
<desc>lat.=22.314678, lon.=103.765564, Alt.=2770.220703m. Speed=3.132000m/h.</desc>
<speed>0.870000</speed>
</trkpt>
<trkpt lat="22.314701" lon="103.765526">
<ele>2770.408203</ele>
<time>2011-04-24T07:15:58Z</time>
<desc>lat.=22.314701, lon.=103.765526, Alt.=2770.408203m. Speed=3.204000m/h.</desc>
<speed>0.890000</speed>
</trkpt>
<trkpt lat="22.314684" lon="103.765503">
<ele>2770.470703</ele>
<time>2011-04-24T07:16:03Z</time>
<desc>lat.=22.314684, lon.=103.765503, Alt.=2770.470703m. Speed=0.684000m/h.</desc>
<speed>0.190000</speed>
</trkpt>
<trkpt lat="22.314663" lon="103.765511">
<ele>2771.033203</ele>
<time>2011-04-24T07:16:08Z</time>
<desc>lat.=22.314663, lon.=103.765511, Alt.=2771.033203m. Speed=0.648000m/h.</desc>
<speed>0.180000</speed>
</trkpt>
<trkpt lat="22.314663" lon="103.765503">
<ele>2771.095703</ele>
<time>2011-04-24T07:16:13Z</time>
<desc>lat.=22.314663, lon.=103.765503, Alt.=2771.095703m. Speed=0.144000m/h.</desc>
<speed>0.040000</speed>
</trkpt>
<trkpt lat="22.314642" lon="103.765526">
<ele>2771.345703</ele>
<time>2011-04-24T07:16:18Z</time>
<desc>lat.=22.314642, lon.=103.765526, Alt.=2771.345703m. Speed=1.296000m/h.</desc>
<speed>0.360000</speed>
</trkpt>
<trkpt lat="22.314625" lon="103.765556">
<ele>2771.533203</ele>
<time>2011-04-24T07:16:23Z</time>
<desc>lat.=22.314625, lon.=103.765556, Alt.=2771.533203m. Speed=0.540000m/h.</desc>
<speed>0.150000</speed>
</trkpt>
<trkpt lat="22.314623" lon="103.765587">
<ele>2772.095703</ele>
<time>2011-04-24T07:16:28Z</time>
<desc>lat.=22.314623, lon.=103.765587, Alt.=2772.095703m. Speed=1.008000m/h.</desc>
<speed>0.280000</speed>
</trkpt>
<trkpt lat="22.314611" lon="103.765594">
<ele>2772.283203</ele>
<time>2011-04-24T07:16:33Z</time>
<desc>lat.=22.314611, lon.=103.765594, Alt.=2772.283203m. Speed=1.908000m/h.</desc>
<speed>0.530000</speed>
</trkpt>
<trkpt lat="22.314583" lon="103.765640">
<ele>2772.783203</ele>
<time>2011-04-24T07:16:38Z</time>
<desc>lat.=22.314583, lon.=103.765640, Alt.=2772.783203m. Speed=0.648000m/h.</desc>
<speed>0.180000</speed>
</trkpt>
<trkpt lat="22.314577" lon="103.765625">
<ele>2770.595703</ele>
<time>2011-04-24T07:16:43Z</time>
<desc>lat.=22.314577, lon.=103.765625, Alt.=2770.595703m. Speed=0.360000m/h.</desc>
<speed>0.100000</speed>
</trkpt>
<trkpt lat="22.314560" lon="103.765587">
<ele>2770.470703</ele>
<time>2011-04-24T07:16:48Z</time>
<desc>lat.=22.314560, lon.=103.765587, Alt.=2770.470703m. Speed=1.260000m/h.</desc>
<speed>0.350000</speed>
</trkpt>
<trkpt lat="22.314537" lon="103.765587">
<ele>2769.658203</ele>
<time>2011-04-24T07:16:53Z</time>
<desc>lat.=22.314537, lon.=103.765587, Alt.=2769.658203m. Speed=0.720000m/h.</desc>
<speed>0.200000</speed>
</trkpt>
<trkpt lat="22.314520" lon="103.765556">
<ele>2769.533203</ele>
<time>2011-04-24T07:16:58Z</time>
<desc>lat.=22.314520, lon.=103.765556, Alt.=2769.533203m. Speed=1.476000m/h.</desc>
<speed>0.410000</speed>
</trkpt>
<trkpt lat="22.314533" lon="103.765556">
<ele>2769.595703</ele>
<time>2011-04-24T07:17:03Z</time>
<desc>lat.=22.314533, lon.=103.765556, Alt.=2769.595703m. Speed=0.540000m/h.</desc>
<speed>0.150000</speed>
</trkpt>
<trkpt lat="22.314543" lon="103.765564">
<ele>2769.533203</ele>
<time>2011-04-24T07:17:08Z</time>
<desc>lat.=22.314543, lon.=103.765564, Alt.=2769.533203m. Speed=1.188000m/h.</desc>
<speed>0.330000</speed>
</trkpt>
<trkpt lat="22.314558" lon="103.765594">
<ele>2769.783203</ele>
<time>2011-04-24T07:17:13Z</time>
<desc>lat.=22.314558, lon.=103.765594, Alt.=2769.783203m. Speed=0.684000m/h.</desc>
<speed>0.190000</speed>
</trkpt>
<trkpt lat="22.314581" lon="103.765625">
<ele>2769.658203</ele>
<time>2011-04-24T07:17:18Z</time>
<desc>lat.=22.314581, lon.=103.765625, Alt.=2769.658203m. Speed=0.864000m/h.</desc>
<speed>0.240000</speed>
</trkpt>
<trkpt lat="22.314589" lon="103.765648">
<ele>2769.408203</ele>
<time>2011-04-24T07:17:23Z</time>
<desc>lat.=22.314589, lon.=103.765648, Alt.=2769.408203m. Speed=0.648000m/h.</desc>
<speed>0.180000</speed>
</trkpt>
<trkpt lat="22.314583" lon="103.765656">
<ele>2769.470703</ele>
<time>2011-04-24T07:17:28Z</time>
<desc>lat.=22.314583, lon.=103.765656, Alt.=2769.470703m. Speed=0.936000m/h.</desc>
<speed>0.260000</speed>
</trkpt>
<trkpt lat="22.314589" lon="103.765671">
<ele>2770.345703</ele>
<time>2011-04-24T07:17:33Z</time>
<desc>lat.=22.314589, lon.=103.765671, Alt.=2770.345703m. Speed=0.360000m/h.</desc>
<speed>0.100000</speed>
</trkpt>
<trkpt lat="22.314589" lon="103.765663">
<ele>2770.345703</ele>
<time>2011-04-24T07:17:38Z</time>
<desc>lat.=22.314589, lon.=103.765663, Alt.=2770.345703m. Speed=0.648000m/h.</desc>
<speed>0.180000</speed>
</trkpt>
<trkpt lat="22.314569" lon="103.765663">
<ele>2771.470703</ele>
<time>2011-04-24T07:17:43Z</time>
<desc>lat.=22.314569, lon.=103.765663, Alt.=2771.470703m. Speed=0.684000m/h.</desc>
<speed>0.190000</speed>
</trkpt>
<trkpt lat="22.314568" lon="103.765678">
<ele>2771.720703</ele>
<time>2011-04-24T07:17:48Z</time>
<desc>lat.=22.314568, lon.=103.765678, Alt.=2771.720703m. Speed=0.828000m/h.</desc>
<speed>0.230000</speed>
</trkpt>
<trkpt lat="22.314558" lon="103.765671">
<ele>2772.095703</ele>
<time>2011-04-24T07:17:53Z</time>
<desc>lat.=22.314558, lon.=103.765671, Alt.=2772.095703m. Speed=1.656000m/h.</desc>
<speed>0.460000</speed>
</trkpt>
<trkpt lat="22.314529" lon="103.765625">
<ele>2773.095703</ele>
<time>2011-04-24T07:17:58Z</time>
<desc>lat.=22.314529, lon.=103.765625, Alt.=2773.095703m. Speed=2.664000m/h.</desc>
<speed>0.740000</speed>
</trkpt>
<trkpt lat="22.314505" lon="103.765579">
<ele>2774.533203</ele>
<time>2011-04-24T07:18:03Z</time>
<desc>lat.=22.314505, lon.=103.765579, Alt.=2774.533203m. Speed=2.772000m/h.</desc>
<speed>0.770000</speed>
</trkpt>
<trkpt lat="22.314474" lon="103.765549">
<ele>2775.783203</ele>
<time>2011-04-24T07:18:08Z</time>
<desc>lat.=22.314474, lon.=103.765549, Alt.=2775.783203m. Speed=1.260000m/h.</desc>
<speed>0.350000</speed>
</trkpt>
<trkpt lat="22.314482" lon="103.765533">
<ele>2776.908203</ele>
<time>2011-04-24T07:18:13Z</time>
<desc>lat.=22.314482, lon.=103.765533, Alt.=2776.908203m. Speed=0.936000m/h.</desc>
<speed>0.260000</speed>
</trkpt>
<trkpt lat="22.314474" lon="103.765541">
<ele>2777.095703</ele>
<time>2011-04-24T07:18:18Z</time>
<desc>lat.=22.314474, lon.=103.765541, Alt.=2777.095703m. Speed=0.288000m/h.</desc>
<speed>0.080000</speed>
</trkpt>
<trkpt lat="22.314463" lon="103.765541">
<ele>2777.283203</ele>
<time>2011-04-24T07:18:23Z</time>
<desc>lat.=22.314463, lon.=103.765541, Alt.=2777.283203m. Speed=0.576000m/h.</desc>
<speed>0.160000</speed>
</trkpt>
<trkpt lat="22.314461" lon="103.765541">
<ele>2777.283203</ele>
<time>2011-04-24T07:18:28Z</time>
<desc>lat.=22.314461, lon.=103.765541, Alt.=2777.283203m. Speed=0.216000m/h.</desc>
<speed>0.060000</speed>
</trkpt>
<trkpt lat="22.314468" lon="103.765549">
<ele>2777.158203</ele>
<time>2011-04-24T07:18:33Z</time>
<desc>lat.=22.314468, lon.=103.765549, Alt.=2777.158203m. Speed=0.864000m/h.</desc>
<speed>0.240000</speed>
</trkpt>
<trkpt lat="22.314480" lon="103.765579">
<ele>2776.845703</ele>
<time>2011-04-24T07:18:38Z</time>
<desc>lat.=22.314480, lon.=103.765579, Alt.=2776.845703m. Speed=0.864000m/h.</desc>
<speed>0.240000</speed>
</trkpt>
<trkpt lat="22.314482" lon="103.765579">
<ele>2776.845703</ele>
<time>2011-04-24T07:18:43Z</time>
<desc>lat.=22.314482, lon.=103.765579, Alt.=2776.845703m. Speed=0.828000m/h.</desc>
<speed>0.230000</speed>
</trkpt>
<trkpt lat="22.314487" lon="103.765579">
<ele>2776.845703</ele>
<time>2011-04-24T07:18:48Z</time>
<desc>lat.=22.314487, lon.=103.765579, Alt.=2776.845703m. Speed=1.260000m/h.</desc>
<speed>0.350000</speed>
</trkpt>
<trkpt lat="22.314495" lon="103.765579">
<ele>2776.970703</ele>
<time>2011-04-24T07:18:53Z</time>
<desc>lat.=22.314495, lon.=103.765579, Alt.=2776.970703m. Speed=0.396000m/h.</desc>
<speed>0.110000</speed>
</trkpt>
<trkpt lat="22.314497" lon="103.765587">
<ele>2777.095703</ele>
<time>2011-04-24T07:18:58Z</time>
<desc>lat.=22.314497, lon.=103.765587, Alt.=2777.095703m. Speed=0.288000m/h.</desc>
<speed>0.080000</speed>
</trkpt>
<trkpt lat="22.314482" lon="103.765572">
<ele>2776.283203</ele>
<time>2011-04-24T07:19:03Z</time>
<desc>lat.=22.314482, lon.=103.765572, Alt.=2776.283203m. Speed=0.612000m/h.</desc>
<speed>0.170000</speed>
</trkpt>
<trkpt lat="22.314468" lon="103.765549">
<ele>2775.845703</ele>
<time>2011-04-24T07:19:08Z</time>
<desc>lat.=22.314468, lon.=103.765549, Alt.=2775.845703m. Speed=0.324000m/h.</desc>
<speed>0.090000</speed>
</trkpt>
<trkpt lat="22.314478" lon="103.765549">
<ele>2775.783203</ele>
<time>2011-04-24T07:19:13Z</time>
<desc>lat.=22.314478, lon.=103.765549, Alt.=2775.783203m. Speed=0.468000m/h.</desc>
<speed>0.130000</speed>
</trkpt>
<trkpt lat="22.314484" lon="103.765556">
<ele>2775.783203</ele>
<time>2011-04-24T07:19:18Z</time>
<desc>lat.=22.314484, lon.=103.765556, Alt.=2775.783203m. Speed=0.936000m/h.</desc>
<speed>0.260000</speed>
</trkpt>
<trkpt lat="22.314486" lon="103.765549">
<ele>2775.783203</ele>
<time>2011-04-24T07:19:23Z</time>
<desc>lat.=22.314486, lon.=103.765549, Alt.=2775.783203m. Speed=0.288000m/h.</desc>
<speed>0.080000</speed>
</trkpt>
<trkpt lat="22.314486" lon="103.765541">
<ele>2775.783203</ele>
<time>2011-04-24T07:19:28Z</time>
<desc>lat.=22.314486, lon.=103.765541, Alt.=2775.783203m. Speed=0.684000m/h.</desc>
<speed>0.190000</speed>
</trkpt>
<trkpt lat="22.314491" lon="103.765541">
<ele>2775.783203</ele>
<time>2011-04-24T07:19:33Z</time>
<desc>lat.=22.314491, lon.=103.765541, Alt.=2775.783203m. Speed=1.260000m/h.</desc>
<speed>0.350000</speed>
</trkpt>
<trkpt lat="22.314514" lon="103.765587">
<ele>2775.845703</ele>
<time>2011-04-24T07:19:38Z</time>
<desc>lat.=22.314514, lon.=103.765587, Alt.=2775.845703m. Speed=0.648000m/h.</desc>
<speed>0.180000</speed>
</trkpt>
<trkpt lat="22.314531" lon="103.765579">
<ele>2775.533203</ele>
<time>2011-04-24T07:19:43Z</time>
<desc>lat.=22.314531, lon.=103.765579, Alt.=2775.533203m. Speed=0.792000m/h.</desc>
<speed>0.220000</speed>
</trkpt>
<trkpt lat="22.314541" lon="103.765579">
<ele>2775.283203</ele>
<time>2011-04-24T07:19:48Z</time>
<desc>lat.=22.314541, lon.=103.765579, Alt.=2775.283203m. Speed=0.288000m/h.</desc>
<speed>0.080000</speed>
</trkpt>
<trkpt lat="22.314539" lon="103.765579">
<ele>2775.283203</ele>
<time>2011-04-24T07:19:53Z</time>
<desc>lat.=22.314539, lon.=103.765579, Alt.=2775.283203m. Speed=0.612000m/h.</desc>
<speed>0.170000</speed>
</trkpt>
<trkpt lat="22.314535" lon="103.765579">
<ele>2775.220703</ele>
<time>2011-04-24T07:19:58Z</time>
<desc>lat.=22.314535, lon.=103.765579, Alt.=2775.220703m. Speed=1.080000m/h.</desc>
<speed>0.300000</speed>
</trkpt>
<trkpt lat="22.314545" lon="103.765594">
<ele>2774.845703</ele>
<time>2011-04-24T07:20:03Z</time>
<desc>lat.=22.314545, lon.=103.765594, Alt.=2774.845703m. Speed=0.864000m/h.</desc>
<speed>0.240000</speed>
</trkpt>
<trkpt lat="22.314550" lon="103.765602">
<ele>2774.533203</ele>
<time>2011-04-24T07:20:08Z</time>
<desc>lat.=22.314550, lon.=103.765602, Alt.=2774.533203m. Speed=1.440000m/h.</desc>
<speed>0.400000</speed>
</trkpt>
<trkpt lat="22.314543" lon="103.765594">
<ele>2774.220703</ele>
<time>2011-04-24T07:20:13Z</time>
<desc>lat.=22.314543, lon.=103.765594, Alt.=2774.220703m. Speed=0.612000m/h.</desc>
<speed>0.170000</speed>
</trkpt>
<trkpt lat="22.314547" lon="103.765594">
<ele>2774.345703</ele>
<time>2011-04-24T07:20:18Z</time>
<desc>lat.=22.314547, lon.=103.765594, Alt.=2774.345703m. Speed=0.828000m/h.</desc>
<speed>0.230000</speed>
</trkpt>
<trkpt lat="22.314554" lon="103.765587">
<ele>2774.345703</ele>
<time>2011-04-24T07:20:23Z</time>
<desc>lat.=22.314554, lon.=103.765587, Alt.=2774.345703m. Speed=0.612000m/h.</desc>
<speed>0.170000</speed>
</trkpt>
<trkpt lat="22.314556" lon="103.765587">
<ele>2774.283203</ele>
<time>2011-04-24T07:20:28Z</time>
<desc>lat.=22.314556, lon.=103.765587, Alt.=2774.283203m. Speed=0.396000m/h.</desc>
<speed>0.110000</speed>
</trkpt>
<trkpt lat="22.314562" lon="103.765617">
<ele>2774.345703</ele>
<time>2011-04-24T07:20:33Z</time>
<desc>lat.=22.314562, lon.=103.765617, Alt.=2774.345703m. Speed=0.972000m/h.</desc>
<speed>0.270000</speed>
</trkpt>
<trkpt lat="22.314558" lon="103.765625">
<ele>2774.345703</ele>
<time>2011-04-24T07:20:38Z</time>
<desc>lat.=22.314558, lon.=103.765625, Alt.=2774.345703m. Speed=0.432000m/h.</desc>
<speed>0.120000</speed>
</trkpt>
<trkpt lat="22.314562" lon="103.765625">
<ele>2774.158203</ele>
<time>2011-04-24T07:20:43Z</time>
<desc>lat.=22.314562, lon.=103.765625, Alt.=2774.158203m. Speed=0.252000m/h.</desc>
<speed>0.070000</speed>
</trkpt>
<trkpt lat="22.314562" lon="103.765617">
<ele>2774.033203</ele>
<time>2011-04-24T07:20:48Z</time>
<desc>lat.=22.314562, lon.=103.765617, Alt.=2774.033203m. Speed=0.756000m/h.</desc>
<speed>0.210000</speed>
</trkpt>
<trkpt lat="22.314564" lon="103.765602">
<ele>2774.033203</ele>
<time>2011-04-24T07:20:53Z</time>
<desc>lat.=22.314564, lon.=103.765602, Alt.=2774.033203m. Speed=0.828000m/h.</desc>
<speed>0.230000</speed>
</trkpt>
<trkpt lat="22.314566" lon="103.765594">
<ele>2774.033203</ele>
<time>2011-04-24T07:20:58Z</time>
<desc>lat.=22.314566, lon.=103.765594, Alt.=2774.033203m. Speed=0.720000m/h.</desc>
<speed>0.200000</speed>
</trkpt>
<trkpt lat="22.314558" lon="103.765602">
<ele>2774.095703</ele>
<time>2011-04-24T07:21:03Z</time>
<desc>lat.=22.314558, lon.=103.765602, Alt.=2774.095703m. Speed=0.216000m/h.</desc>
<speed>0.060000</speed>
</trkpt>
<trkpt lat="22.314560" lon="103.765602">
<ele>2774.095703</ele>
<time>2011-04-24T07:21:08Z</time>
<desc>lat.=22.314560, lon.=103.765602, Alt.=2774.095703m. Speed=0.684000m/h.</desc>
<speed>0.190000</speed>
</trkpt>
<trkpt lat="22.314589" lon="103.765633">
<ele>2774.658203</ele>
<time>2011-04-24T07:21:13Z</time>
<desc>lat.=22.314589, lon.=103.765633, Alt.=2774.658203m. Speed=0.792000m/h.</desc>
<speed>0.220000</speed>
</trkpt>
<trkpt lat="22.314589" lon="103.765625">
<ele>2774.720703</ele>
<time>2011-04-24T07:21:18Z</time>
<desc>lat.=22.314589, lon.=103.765625, Alt.=2774.720703m. Speed=1.296000m/h.</desc>
<speed>0.360000</speed>
</trkpt>
<trkpt lat="22.314617" lon="103.765633">
<ele>2774.720703</ele>
<time>2011-04-24T07:21:23Z</time>
<desc>lat.=22.314617, lon.=103.765633, Alt.=2774.720703m. Speed=1.512000m/h.</desc>
<speed>0.420000</speed>
</trkpt>
<trkpt lat="22.314615" lon="103.765625">
<ele>2774.658203</ele>
<time>2011-04-24T07:21:28Z</time>
<desc>lat.=22.314615, lon.=103.765625, Alt.=2774.658203m. Speed=0.252000m/h.</desc>
<speed>0.070000</speed>
</trkpt>
<trkpt lat="22.314615" lon="103.765625">
<ele>2774.720703</ele>
<time>2011-04-24T07:21:33Z</time>
<desc>lat.=22.314615, lon.=103.765625, Alt.=2774.720703m. Speed=0.036000m/h.</desc>
<speed>0.010000</speed>
</trkpt>
<trkpt lat="22.314617" lon="103.765625">
<ele>2774.720703</ele>
<time>2011-04-24T07:21:38Z</time>
<desc>lat.=22.314617, lon.=103.765625, Alt.=2774.720703m. Speed=0.612000m/h.</desc>
<speed>0.170000</speed>
</trkpt>
<trkpt lat="22.314615" lon="103.765633">
<ele>2774.658203</ele>
<time>2011-04-24T07:21:43Z</time>
<desc>lat.=22.314615, lon.=103.765633, Alt.=2774.658203m. Speed=0.396000m/h.</desc>
<speed>0.110000</speed>
</trkpt>
<trkpt lat="22.314610" lon="103.765633">
<ele>2774.658203</ele>
<time>2011-04-24T07:21:48Z</time>
<desc>lat.=22.314610, lon.=103.765633, Alt.=2774.658203m. Speed=0.432000m/h.</desc>
<speed>0.120000</speed>
</trkpt>
<trkpt lat="22.314604" lon="103.765633">
<ele>2774.720703</ele>
<time>2011-04-24T07:21:53Z</time>
<desc>lat.=22.314604, lon.=103.765633, Alt.=2774.720703m. Speed=0.288000m/h.</desc>
<speed>0.080000</speed>
</trkpt>
<trkpt lat="22.314606" lon="103.765633">
<ele>2774.658203</ele>
<time>2011-04-24T07:21:58Z</time>
<desc>lat.=22.314606, lon.=103.765633, Alt.=2774.658203m. Speed=0.972000m/h.</desc>
<speed>0.270000</speed>
</trkpt>
<trkpt lat="22.314602" lon="103.765617">
<ele>2774.658203</ele>
<time>2011-04-24T07:22:03Z</time>
<desc>lat.=22.314602, lon.=103.765617, Alt.=2774.658203m. Speed=0.432000m/h.</desc>
<speed>0.120000</speed>
</trkpt>
<trkpt lat="22.314598" lon="103.765633">
<ele>2774.595703</ele>
<time>2011-04-24T07:22:08Z</time>
<desc>lat.=22.314598, lon.=103.765633, Alt.=2774.595703m. Speed=0.864000m/h.</desc>
<speed>0.240000</speed>
</trkpt>
<trkpt lat="22.314592" lon="103.765640">
<ele>2774.533203</ele>
<time>2011-04-24T07:22:13Z</time>
<desc>lat.=22.314592, lon.=103.765640, Alt.=2774.533203m. Speed=0.288000m/h.</desc>
<speed>0.080000</speed>
</trkpt>
<trkpt lat="22.314587" lon="103.765633">
<ele>2774.345703</ele>
<time>2011-04-24T07:22:18Z</time>
<desc>lat.=22.314587, lon.=103.765633, Alt.=2774.345703m. Speed=1.548000m/h.</desc>
<speed>0.430000</speed>
</trkpt>
<trkpt lat="22.314589" lon="103.765625">
<ele>2772.970703</ele>
<time>2011-04-24T07:22:23Z</time>
<desc>lat.=22.314589, lon.=103.765625, Alt.=2772.970703m. Speed=0.180000m/h.</desc>
<speed>0.050000</speed>
</trkpt>
<trkpt lat="22.314587" lon="103.765617">
<ele>2772.908203</ele>
<time>2011-04-24T07:22:28Z</time>
<desc>lat.=22.314587, lon.=103.765617, Alt.=2772.908203m. Speed=0.504000m/h.</desc>
<speed>0.140000</speed>
</trkpt>
<trkpt lat="22.314590" lon="103.765610">
<ele>2772.970703</ele>
<time>2011-04-24T07:22:33Z</time>
<desc>lat.=22.314590, lon.=103.765610, Alt.=2772.970703m. Speed=1.044000m/h.</desc>
<speed>0.290000</speed>
</trkpt>
<trkpt lat="22.314602" lon="103.765602">
<ele>2772.970703</ele>
<time>2011-04-24T07:22:38Z</time>
<desc>lat.=22.314602, lon.=103.765602, Alt.=2772.970703m. Speed=0.576000m/h.</desc>
<speed>0.160000</speed>
</trkpt>
<trkpt lat="22.314619" lon="103.765594">
<ele>2773.720703</ele>
<time>2011-04-24T07:22:43Z</time>
<desc>lat.=22.314619, lon.=103.765594, Alt.=2773.720703m. Speed=1.152000m/h.</desc>
<speed>0.320000</speed>
</trkpt>
<trkpt lat="22.314602" lon="103.765594">
<ele>2773.720703</ele>
<time>2011-04-24T07:22:48Z</time>
<desc>lat.=22.314602, lon.=103.765594, Alt.=2773.720703m. Speed=0.360000m/h.</desc>
<speed>0.100000</speed>
</trkpt>
<trkpt lat="22.314615" lon="103.765610">
<ele>2773.658203</ele>
<time>2011-04-24T07:22:53Z</time>
<desc>lat.=22.314615, lon.=103.765610, Alt.=2773.658203m. Speed=1.008000m/h.</desc>
<speed>0.280000</speed>
</trkpt>
<trkpt lat="22.314619" lon="103.765617">
<ele>2773.470703</ele>
<time>2011-04-24T07:22:58Z</time>
<desc>lat.=22.314619, lon.=103.765617, Alt.=2773.470703m. Speed=0.504000m/h.</desc>
<speed>0.140000</speed>
</trkpt>
<trkpt lat="22.314625" lon="103.765610">
<ele>2773.533203</ele>
<time>2011-04-24T07:23:03Z</time>
<desc>lat.=22.314625, lon.=103.765610, Alt.=2773.533203m. Speed=0.900000m/h.</desc>
<speed>0.250000</speed>
</trkpt>
<trkpt lat="22.314619" lon="103.765610">
<ele>2773.658203</ele>
<time>2011-04-24T07:23:08Z</time>
<desc>lat.=22.314619, lon.=103.765610, Alt.=2773.658203m. Speed=0.036000m/h.</desc>
<speed>0.010000</speed>
</trkpt>
<trkpt lat="22.314594" lon="103.765594">
<ele>2773.720703</ele>
<time>2011-04-24T07:23:13Z</time>
<desc>lat.=22.314594, lon.=103.765594, Alt.=2773.720703m. Speed=1.260000m/h.</desc>
<speed>0.350000</speed>
</trkpt>
<trkpt lat="22.314547" lon="103.765564">
<ele>2773.345703</ele>
<time>2011-04-24T07:23:18Z</time>
<desc>lat.=22.314547, lon.=103.765564, Alt.=2773.345703m. Speed=1.728000m/h.</desc>
<speed>0.480000</speed>
</trkpt>
<trkpt lat="22.314499" lon="103.765495">
<ele>2773.033203</ele>
<time>2011-04-24T07:23:23Z</time>
<desc>lat.=22.314499, lon.=103.765495, Alt.=2773.033203m. Speed=1.368000m/h.</desc>
<speed>0.380000</speed>
</trkpt>
<trkpt lat="22.314459" lon="103.765442">
<ele>2773.283203</ele>
<time>2011-04-24T07:23:28Z</time>
<desc>lat.=22.314459, lon.=103.765442, Alt.=2773.283203m. Speed=2.052000m/h.</desc>
<speed>0.570000</speed>
</trkpt>
<trkpt lat="22.314451" lon="103.765442">
<ele>2773.720703</ele>
<time>2011-04-24T07:23:33Z</time>
<desc>lat.=22.314451, lon.=103.765442, Alt.=2773.720703m. Speed=0.144000m/h.</desc>
<speed>0.040000</speed>
</trkpt>
<trkpt lat="22.314459" lon="103.765457">
<ele>2773.970703</ele>
<time>2011-04-24T07:23:38Z</time>
<desc>lat.=22.314459, lon.=103.765457, Alt.=2773.970703m. Speed=0.864000m/h.</desc>
<speed>0.240000</speed>
</trkpt>
<trkpt lat="22.314465" lon="103.765457">
<ele>2773.970703</ele>
<time>2011-04-24T07:23:43Z</time>
<desc>lat.=22.314465, lon.=103.765457, Alt.=2773.970703m. Speed=0.216000m/h.</desc>
<speed>0.060000</speed>
</trkpt>
<trkpt lat="22.314463" lon="103.765465">
<ele>2773.970703</ele>
<time>2011-04-24T07:23:48Z</time>
<desc>lat.=22.314463, lon.=103.765465, Alt.=2773.970703m. Speed=0.252000m/h.</desc>
<speed>0.070000</speed>
</trkpt>
<trkpt lat="22.314463" lon="103.765457">
<ele>2773.970703</ele>
<time>2011-04-24T07:23:53Z</time>
<desc>lat.=22.314463, lon.=103.765457, Alt.=2773.970703m. Speed=0.432000m/h.</desc>
<speed>0.120000</speed>
</trkpt>
<trkpt lat="22.314463" lon="103.765457">
<ele>2773.970703</ele>
<time>2011-04-24T07:23:58Z</time>
<desc>lat.=22.314463, lon.=103.765457, Alt.=2773.970703m. Speed=0.288000m/h.</desc>
<speed>0.080000</speed>
</trkpt>
<trkpt lat="22.314461" lon="103.765465">
<ele>2774.033203</ele>
<time>2011-04-24T07:24:03Z</time>
<desc>lat.=22.314461, lon.=103.765465, Alt.=2774.033203m. Speed=0.216000m/h.</desc>
<speed>0.060000</speed>
</trkpt>
<trkpt lat="22.314457" lon="103.765472">
<ele>2774.033203</ele>
<time>2011-04-24T07:24:08Z</time>
<desc>lat.=22.314457, lon.=103.765472, Alt.=2774.033203m. Speed=1.044000m/h.</desc>
<speed>0.290000</speed>
</trkpt>
<trkpt lat="22.314449" lon="103.765480">
<ele>2774.033203</ele>
<time>2011-04-24T07:24:13Z</time>
<desc>lat.=22.314449, lon.=103.765480, Alt.=2774.033203m. Speed=0.828000m/h.</desc>
<speed>0.230000</speed>
</trkpt>
<trkpt lat="22.314463" lon="103.765503">
<ele>2774.408203</ele>
<time>2011-04-24T07:24:18Z</time>
<desc>lat.=22.314463, lon.=103.765503, Alt.=2774.408203m. Speed=0.252000m/h.</desc>
<speed>0.070000</speed>
</trkpt>
<trkpt lat="22.314466" lon="103.765503">
<ele>2774.595703</ele>
<time>2011-04-24T07:24:23Z</time>
<desc>lat.=22.314466, lon.=103.765503, Alt.=2774.595703m. Speed=0.324000m/h.</desc>
<speed>0.090000</speed>
</trkpt>
<trkpt lat="22.314463" lon="103.765511">
<ele>2774.595703</ele>
<time>2011-04-24T07:24:28Z</time>
<desc>lat.=22.314463, lon.=103.765511, Alt.=2774.595703m. Speed=0.324000m/h.</desc>
<speed>0.090000</speed>
</trkpt>
<trkpt lat="22.314465" lon="103.765511">
<ele>2774.595703</ele>
<time>2011-04-24T07:24:33Z</time>
<desc>lat.=22.314465, lon.=103.765511, Alt.=2774.595703m. Speed=0.648000m/h.</desc>
<speed>0.180000</speed>
</trkpt>
<trkpt lat="22.314461" lon="103.765511">
<ele>2774.658203</ele>
<time>2011-04-24T07:24:38Z</time>
<desc>lat.=22.314461, lon.=103.765511, Alt.=2774.658203m. Speed=0.216000m/h.</desc>
<speed>0.060000</speed>
</trkpt>
<trkpt lat="22.314466" lon="103.765511">
<ele>2774.720703</ele>
<time>2011-04-24T07:24:43Z</time>
<desc>lat.=22.314466, lon.=103.765511, Alt.=2774.720703m. Speed=0.216000m/h.</desc>
<speed>0.060000</speed>
</trkpt>
<trkpt lat="22.314465" lon="103.765518">
<ele>2774.720703</ele>
<time>2011-04-24T07:24:48Z</time>
<desc>lat.=22.314465, lon.=103.765518, Alt.=2774.720703m. Speed=0.000000m/h.</desc>
<speed>0.000000</speed>
</trkpt>
<trkpt lat="22.314463" lon="103.765518">
<ele>2774.783203</ele>
<time>2011-04-24T07:24:53Z</time>
<desc>lat.=22.314463, lon.=103.765518, Alt.=2774.783203m. Speed=0.396000m/h.</desc>
<speed>0.110000</speed>
</trkpt>
<trkpt lat="22.314468" lon="103.765511">
<ele>2774.845703</ele>
<time>2011-04-24T07:24:58Z</time>
<desc>lat.=22.314468, lon.=103.765511, Alt.=2774.845703m. Speed=0.864000m/h.</desc>
<speed>0.240000</speed>
</trkpt>
<trkpt lat="22.314472" lon="103.765511">
<ele>2774.908203</ele>
<time>2011-04-24T07:25:03Z</time>
<desc>lat.=22.314472, lon.=103.765511, Alt.=2774.908203m. Speed=0.360000m/h.</desc>
<speed>0.100000</speed>
</trkpt>
<trkpt lat="22.314468" lon="103.765495">
<ele>2774.970703</ele>
<time>2011-04-24T07:25:08Z</time>
<desc>lat.=22.314468, lon.=103.765495, Alt.=2774.970703m. Speed=1.800000m/h.</desc>
<speed>0.500000</speed>
</trkpt>
<trkpt lat="22.314480" lon="103.765511">
<ele>2775.345703</ele>
<time>2011-04-24T07:25:13Z</time>
<desc>lat.=22.314480, lon.=103.765511, Alt.=2775.345703m. Speed=0.216000m/h.</desc>
<speed>0.060000</speed>
</trkpt>
<trkpt lat="22.314476" lon="103.765488">
<ele>2776.158203</ele>
<time>2011-04-24T07:25:18Z</time>
<desc>lat.=22.314476, lon.=103.765488, Alt.=2776.158203m. Speed=0.288000m/h.</desc>
<speed>0.080000</speed>
</trkpt>
<trkpt lat="22.314463" lon="103.765480">
<ele>2775.970703</ele>
<time>2011-04-24T07:25:23Z</time>
<desc>lat.=22.314463, lon.=103.765480, Alt.=2775.970703m. Speed=0.720000m/h.</desc>
<speed>0.200000</speed>
</trkpt>
<trkpt lat="22.314463" lon="103.765480">
<ele>2776.470703</ele>
<time>2011-04-24T07:25:28Z</time>
<desc>lat.=22.314463, lon.=103.765480, Alt.=2776.470703m. Speed=0.360000m/h.</desc>
<speed>0.100000</speed>
</trkpt>
<trkpt lat="22.314455" lon="103.765457">
<ele>2776.283203</ele>
<time>2011-04-24T07:25:33Z</time>
<desc>lat.=22.314455, lon.=103.765457, Alt.=2776.283203m. Speed=1.368000m/h.</desc>
<speed>0.380000</speed>
</trkpt>
<trkpt lat="22.314447" lon="103.765442">
<ele>2775.970703</ele>
<time>2011-04-24T07:25:38Z</time>
<desc>lat.=22.314447, lon.=103.765442, Alt.=2775.970703m. Speed=0.324000m/h.</desc>
<speed>0.090000</speed>
</trkpt>
<trkpt lat="22.314432" lon="103.765465">
<ele>2775.908203</ele>
<time>2011-04-24T07:25:43Z</time>
<desc>lat.=22.314432, lon.=103.765465, Alt.=2775.908203m. Speed=1.116000m/h.</desc>
<speed>0.310000</speed>
</trkpt>
<trkpt lat="22.314455" lon="103.765503">
<ele>2775.220703</ele>
<time>2011-04-24T07:25:48Z</time>
<desc>lat.=22.314455, lon.=103.765503, Alt.=2775.220703m. Speed=1.620000m/h.</desc>
<speed>0.450000</speed>
</trkpt>
<trkpt lat="22.314480" lon="103.765572">
<ele>2774.408203</ele>
<time>2011-04-24T07:25:53Z</time>
<desc>lat.=22.314480, lon.=103.765572, Alt.=2774.408203m. Speed=2.592000m/h.</desc>
<speed>0.720000</speed>
</trkpt>
<trkpt lat="22.314491" lon="103.765587">
<ele>2774.345703</ele>
<time>2011-04-24T07:25:58Z</time>
<desc>lat.=22.314491, lon.=103.765587, Alt.=2774.345703m. Speed=1.476000m/h.</desc>
<speed>0.410000</speed>
</trkpt>
<trkpt lat="22.314497" lon="103.765564">
<ele>2773.970703</ele>
<time>2011-04-24T07:26:03Z</time>
<desc>lat.=22.314497, lon.=103.765564, Alt.=2773.970703m. Speed=0.180000m/h.</desc>
<speed>0.050000</speed>
</trkpt>
<trkpt lat="22.314497" lon="103.765556">
<ele>2773.908203</ele>
<time>2011-04-24T07:26:08Z</time>
<desc>lat.=22.314497, lon.=103.765556, Alt.=2773.908203m. Speed=0.252000m/h.</desc>
<speed>0.070000</speed>
</trkpt>
<trkpt lat="22.314495" lon="103.765556">
<ele>2773.908203</ele>
<time>2011-04-24T07:26:13Z</time>
<desc>lat.=22.314495, lon.=103.765556, Alt.=2773.908203m. Speed=0.540000m/h.</desc>
<speed>0.150000</speed>
</trkpt>
<trkpt lat="22.314491" lon="103.765549">
<ele>2773.845703</ele>
<time>2011-04-24T07:26:18Z</time>
<desc>lat.=22.314491, lon.=103.765549, Alt.=2773.845703m. Speed=0.756000m/h.</desc>
<speed>0.210000</speed>
</trkpt>
<trkpt lat="22.314478" lon="103.765533">
<ele>2773.533203</ele>
<time>2011-04-24T07:26:23Z</time>
<desc>lat.=22.314478, lon.=103.765533, Alt.=2773.533203m. Speed=0.504000m/h.</desc>
<speed>0.140000</speed>
</trkpt>
<trkpt lat="22.314487" lon="103.765526">
<ele>2773.470703</ele>
<time>2011-04-24T07:26:28Z</time>
<desc>lat.=22.314487, lon.=103.765526, Alt.=2773.470703m. Speed=0.576000m/h.</desc>
<speed>0.160000</speed>
</trkpt>
<trkpt lat="22.314487" lon="103.765526">
<ele>2773.470703</ele>
<time>2011-04-24T07:26:33Z</time>
<desc>lat.=22.314487, lon.=103.765526, Alt.=2773.470703m. Speed=0.288000m/h.</desc>
<speed>0.080000</speed>
</trkpt>
<trkpt lat="22.314493" lon="103.765518">
<ele>2773.533203</ele>
<time>2011-04-24T07:26:38Z</time>
<desc>lat.=22.314493, lon.=103.765518, Alt.=2773.533203m. Speed=1.224000m/h.</desc>
<speed>0.340000</speed>
</trkpt>
<trkpt lat="22.314486" lon="103.765518">
<ele>2773.533203</ele>
<time>2011-04-24T07:26:43Z</time>
<desc>lat.=22.314486, lon.=103.765518, Alt.=2773.533203m. Speed=0.288000m/h.</desc>
<speed>0.080000</speed>
</trkpt>
<trkpt lat="22.314486" lon="103.765511">
<ele>2773.533203</ele>
<time>2011-04-24T07:26:48Z</time>
<desc>lat.=22.314486, lon.=103.765511, Alt.=2773.533203m. Speed=0.144000m/h.</desc>
<speed>0.040000</speed>
</trkpt>
<trkpt lat="22.314486" lon="103.765511">
<ele>2773.595703</ele>
<time>2011-04-24T07:26:53Z</time>
<desc>lat.=22.314486, lon.=103.765511, Alt.=2773.595703m. Speed=0.468000m/h.</desc>
<speed>0.130000</speed>
</trkpt>
<trkpt lat="22.314487" lon="103.765511">
<ele>2773.595703</ele>
<time>2011-04-24T07:26:58Z</time>
<desc>lat.=22.314487, lon.=103.765511, Alt.=2773.595703m. Speed=1.008000m/h.</desc>
<speed>0.280000</speed>
</trkpt>
<trkpt lat="22.314478" lon="103.765518">
<ele>2773.595703</ele>
<time>2011-04-24T07:27:03Z</time>
<desc>lat.=22.314478, lon.=103.765518, Alt.=2773.595703m. Speed=1.296000m/h.</desc>
<speed>0.360000</speed>
</trkpt>
<trkpt lat="22.314484" lon="103.765533">
<ele>2773.908203</ele>
<time>2011-04-24T07:27:08Z</time>
<desc>lat.=22.314484, lon.=103.765533, Alt.=2773.908203m. Speed=0.144000m/h.</desc>
<speed>0.040000</speed>
</trkpt>
<trkpt lat="22.314484" lon="103.765541">
<ele>2774.345703</ele>
<time>2011-04-24T07:27:13Z</time>
<desc>lat.=22.314484, lon.=103.765541, Alt.=2774.345703m. Speed=0.864000m/h.</desc>
<speed>0.240000</speed>
</trkpt>
<trkpt lat="22.314489" lon="103.765556">
<ele>2775.658203</ele>
<time>2011-04-24T07:27:18Z</time>
<desc>lat.=22.314489, lon.=103.765556, Alt.=2775.658203m. Speed=0.180000m/h.</desc>
<speed>0.050000</speed>
</trkpt>
<trkpt lat="22.314491" lon="103.765556">
<ele>2775.720703</ele>
<time>2011-04-24T07:27:23Z</time>
<desc>lat.=22.314491, lon.=103.765556, Alt.=2775.720703m. Speed=0.108000m/h.</desc>
<speed>0.030000</speed>
</trkpt>
<trkpt lat="22.314489" lon="103.765564">
<ele>2775.720703</ele>
<time>2011-04-24T07:27:28Z</time>
<desc>lat.=22.314489, lon.=103.765564, Alt.=2775.720703m. Speed=0.396000m/h.</desc>
<speed>0.110000</speed>
</trkpt>
<trkpt lat="22.314493" lon="103.765556">
<ele>2775.720703</ele>
<time>2011-04-24T07:27:33Z</time>
<desc>lat.=22.314493, lon.=103.765556, Alt.=2775.720703m. Speed=0.288000m/h.</desc>
<speed>0.080000</speed>
</trkpt>
<trkpt lat="22.314491" lon="103.765556">
<ele>2775.720703</ele>
<time>2011-04-24T07:27:38Z</time>
<desc>lat.=22.314491, lon.=103.765556, Alt.=2775.720703m. Speed=0.360000m/h.</desc>
<speed>0.100000</speed>
</trkpt>
<trkpt lat="22.314493" lon="103.765556">
<ele>2775.720703</ele>
<time>2011-04-24T07:27:43Z</time>
<desc>lat.=22.314493, lon.=103.765556, Alt.=2775.720703m. Speed=0.216000m/h.</desc>
<speed>0.060000</speed>
</trkpt>
<trkpt lat="22.314493" lon="103.765564">
<ele>2775.720703</ele>
<time>2011-04-24T07:27:48Z</time>
<desc>lat.=22.314493, lon.=103.765564, Alt.=2775.720703m. Speed=0.396000m/h.</desc>
<speed>0.110000</speed>
</trkpt>
<trkpt lat="22.314501" lon="103.765564">
<ele>2775.720703</ele>
<time>2011-04-24T07:27:53Z</time>
<desc>lat.=22.314501, lon.=103.765564, Alt.=2775.720703m. Speed=0.468000m/h.</desc>
<speed>0.130000</speed>
</trkpt>
<trkpt lat="22.314503" lon="103.765556">
<ele>2775.720703</ele>
<time>2011-04-24T07:27:58Z</time>
<desc>lat.=22.314503, lon.=103.765556, Alt.=2775.720703m. Speed=0.396000m/h.</desc>
<speed>0.110000</speed>
</trkpt>
<trkpt lat="22.314505" lon="103.765556">
<ele>2775.720703</ele>
<time>2011-04-24T07:28:03Z</time>
<desc>lat.=22.314505, lon.=103.765556, Alt.=2775.720703m. Speed=0.180000m/h.</desc>
<speed>0.050000</speed>
</trkpt>
<trkpt lat="22.314507" lon="103.765556">
<ele>2775.720703</ele>
<time>2011-04-24T07:28:08Z</time>
<desc>lat.=22.314507, lon.=103.765556, Alt.=2775.720703m. Speed=0.792000m/h.</desc>
<speed>0.220000</speed>
</trkpt>
<trkpt lat="22.314507" lon="103.765564">
<ele>2775.720703</ele>
<time>2011-04-24T07:28:13Z</time>
<desc>lat.=22.314507, lon.=103.765564, Alt.=2775.720703m. Speed=0.288000m/h.</desc>
<speed>0.080000</speed>
</trkpt>
<trkpt lat="22.314501" lon="103.765572">
<ele>2775.845703</ele>
<time>2011-04-24T07:28:18Z</time>
<desc>lat.=22.314501, lon.=103.765572, Alt.=2775.845703m. Speed=0.396000m/h.</desc>
<speed>0.110000</speed>
</trkpt>
<trkpt lat="22.314495" lon="103.765556">
<ele>2776.033203</ele>
<time>2011-04-24T07:28:23Z</time>
<desc>lat.=22.314495, lon.=103.765556, Alt.=2776.033203m. Speed=0.360000m/h.</desc>
<speed>0.100000</speed>
</trkpt>
<trkpt lat="22.314484" lon="103.765533">
<ele>2776.158203</ele>
<time>2011-04-24T07:28:28Z</time>
<desc>lat.=22.314484, lon.=103.765533, Alt.=2776.158203m. Speed=1.404000m/h.</desc>
<speed>0.390000</speed>
</trkpt>
<trkpt lat="22.314510" lon="103.765495">
<ele>2775.908203</ele>
<time>2011-04-24T07:28:33Z</time>
<desc>lat.=22.314510, lon.=103.765495, Alt.=2775.908203m. Speed=1.404000m/h.</desc>
<speed>0.390000</speed>
</trkpt>
<trkpt lat="22.314539" lon="103.765488">
<ele>2776.033203</ele>
<time>2011-04-24T07:28:38Z</time>
<desc>lat.=22.314539, lon.=103.765488, Alt.=2776.033203m. Speed=0.900000m/h.</desc>
<speed>0.250000</speed>
</trkpt>
<trkpt lat="22.314552" lon="103.765465">
<ele>2775.970703</ele>
<time>2011-04-24T07:28:43Z</time>
<desc>lat.=22.314552, lon.=103.765465, Alt.=2775.970703m. Speed=0.936000m/h.</desc>
<speed>0.260000</speed>
</trkpt>
<trkpt lat="22.314558" lon="103.765450">
<ele>2775.720703</ele>
<time>2011-04-24T07:28:48Z</time>
<desc>lat.=22.314558, lon.=103.765450, Alt.=2775.720703m. Speed=0.396000m/h.</desc>
<speed>0.110000</speed>
</trkpt>
<trkpt lat="22.314562" lon="103.765457">
<ele>2775.720703</ele>
<time>2011-04-24T07:28:53Z</time>
<desc>lat.=22.314562, lon.=103.765457, Alt.=2775.720703m. Speed=1.152000m/h.</desc>
<speed>0.320000</speed>
</trkpt>
<trkpt lat="22.314558" lon="103.765457">
<ele>2775.595703</ele>
<time>2011-04-24T07:28:58Z</time>
<desc>lat.=22.314558, lon.=103.765457, Alt.=2775.595703m. Speed=0.540000m/h.</desc>
<speed>0.150000</speed>
</trkpt>
<trkpt lat="22.314562" lon="103.765457">
<ele>2775.533203</ele>
<time>2011-04-24T07:29:03Z</time>
<desc>lat.=22.314562, lon.=103.765457, Alt.=2775.533203m. Speed=0.612000m/h.</desc>
<speed>0.170000</speed>
</trkpt>
<trkpt lat="22.314562" lon="103.765450">
<ele>2775.470703</ele>
<time>2011-04-24T07:29:08Z</time>
<desc>lat.=22.314562, lon.=103.765450, Alt.=2775.470703m. Speed=1.512000m/h.</desc>
<speed>0.420000</speed>
</trkpt>
<trkpt lat="22.314556" lon="103.765450">
<ele>2775.658203</ele>
<time>2011-04-24T07:29:13Z</time>
<desc>lat.=22.314556, lon.=103.765450, Alt.=2775.658203m. Speed=0.288000m/h.</desc>
<speed>0.080000</speed>
</trkpt>
<trkpt lat="22.314556" lon="103.765450">
<ele>2775.658203</ele>
<time>2011-04-24T07:29:18Z</time>
<desc>lat.=22.314556, lon.=103.765450, Alt.=2775.658203m. Speed=1.404000m/h.</desc>
<speed>0.390000</speed>
</trkpt>
<trkpt lat="22.314539" lon="103.765427">
<ele>2775.783203</ele>
<time>2011-04-24T07:29:23Z</time>
<desc>lat.=22.314539, lon.=103.765427, Alt.=2775.783203m. Speed=1.260000m/h.</desc>
<speed>0.350000</speed>
</trkpt>
<trkpt lat="22.314505" lon="103.765396">
<ele>2776.033203</ele>
<time>2011-04-24T07:29:28Z</time>
<desc>lat.=22.314505, lon.=103.765396, Alt.=2776.033203m. Speed=1.872000m/h.</desc>
<speed>0.520000</speed>
</trkpt>
<trkpt lat="22.314480" lon="103.765358">
<ele>2776.470703</ele>
<time>2011-04-24T07:29:33Z</time>
<desc>lat.=22.314480, lon.=103.765358, Alt.=2776.470703m. Speed=1.224000m/h.</desc>
<speed>0.340000</speed>
</trkpt>
<trkpt lat="22.314453" lon="103.765373">
<ele>2776.970703</ele>
<time>2011-04-24T07:29:38Z</time>
<desc>lat.=22.314453, lon.=103.765373, Alt.=2776.970703m. Speed=1.044000m/h.</desc>
<speed>0.290000</speed>
</trkpt>
<trkpt lat="22.314457" lon="103.765381">
<ele>2777.158203</ele>
<time>2011-04-24T07:29:43Z</time>
<desc>lat.=22.314457, lon.=103.765381, Alt.=2777.158203m. Speed=0.792000m/h.</desc>
<speed>0.220000</speed>
</trkpt>
<trkpt lat="22.314457" lon="103.765373">
<ele>2777.220703</ele>
<time>2011-04-24T07:29:48Z</time>
<desc>lat.=22.314457, lon.=103.765373, Alt.=2777.220703m. Speed=0.252000m/h.</desc>
<speed>0.070000</speed>
</trkpt>
<trkpt lat="22.314461" lon="103.765381">
<ele>2777.220703</ele>
<time>2011-04-24T07:29:53Z</time>
<desc>lat.=22.314461, lon.=103.765381, Alt.=2777.220703m. Speed=0.324000m/h.</desc>
<speed>0.090000</speed>
</trkpt>
<trkpt lat="22.314466" lon="103.765381">
<ele>2777.220703</ele>
<time>2011-04-24T07:29:58Z</time>
<desc>lat.=22.314466, lon.=103.765381, Alt.=2777.220703m. Speed=0.972000m/h.</desc>
<speed>0.270000</speed>
</trkpt>
<trkpt lat="22.314482" lon="103.765419">
<ele>2777.220703</ele>
<time>2011-04-24T07:30:03Z</time>
<desc>lat.=22.314482, lon.=103.765419, Alt.=2777.220703m. Speed=1.656000m/h.</desc>
<speed>0.460000</speed>
</trkpt>
<trkpt lat="22.314480" lon="103.765457">
<ele>2777.283203</ele>
<time>2011-04-24T07:30:08Z</time>
<desc>lat.=22.314480, lon.=103.765457, Alt.=2777.283203m. Speed=1.224000m/h.</desc>
<speed>0.340000</speed>
</trkpt>
<trkpt lat="22.314470" lon="103.765480">
<ele>2777.345703</ele>
<time>2011-04-24T07:30:13Z</time>
<desc>lat.=22.314470, lon.=103.765480, Alt.=2777.345703m. Speed=0.504000m/h.</desc>
<speed>0.140000</speed>
</trkpt>
<trkpt lat="22.314468" lon="103.765472">
<ele>2777.345703</ele>
<time>2011-04-24T07:30:18Z</time>
<desc>lat.=22.314468, lon.=103.765472, Alt.=2777.345703m. Speed=1.332000m/h.</desc>
<speed>0.370000</speed>
</trkpt>
<trkpt lat="22.314459" lon="103.765457">
<ele>2777.408203</ele>
<time>2011-04-24T07:30:23Z</time>
<desc>lat.=22.314459, lon.=103.765457, Alt.=2777.408203m. Speed=2.628000m/h.</desc>
<speed>0.730000</speed>
</trkpt>
<trkpt lat="22.314449" lon="103.765411">
<ele>2777.283203</ele>
<time>2011-04-24T07:30:28Z</time>
<desc>lat.=22.314449, lon.=103.765411, Alt.=2777.283203m. Speed=2.484000m/h.</desc>
<speed>0.690000</speed>
</trkpt>
<trkpt lat="22.314453" lon="103.765404">
<ele>2776.970703</ele>
<time>2011-04-24T07:30:33Z</time>
<desc>lat.=22.314453, lon.=103.765404, Alt.=2776.970703m. Speed=0.864000m/h.</desc>
<speed>0.240000</speed>
</trkpt>
<trkpt lat="22.314451" lon="103.765404">
<ele>2776.908203</ele>
<time>2011-04-24T07:30:38Z</time>
<desc>lat.=22.314451, lon.=103.765404, Alt.=2776.908203m. Speed=0.468000m/h.</desc>
<speed>0.130000</speed>
</trkpt>
<trkpt lat="22.314447" lon="103.765396">
<ele>2776.908203</ele>
<time>2011-04-24T07:30:43Z</time>
<desc>lat.=22.314447, lon.=103.765396, Alt.=2776.908203m. Speed=0.180000m/h.</desc>
<speed>0.050000</speed>
</trkpt>
<trkpt lat="22.314457" lon="103.765396">
<ele>2776.845703</ele>
<time>2011-04-24T07:30:48Z</time>
<desc>lat.=22.314457, lon.=103.765396, Alt.=2776.845703m. Speed=1.692000m/h.</desc>
<speed>0.470000</speed>
</trkpt>
<trkpt lat="22.314463" lon="103.765388">
<ele>2776.658203</ele>
<time>2011-04-24T07:30:53Z</time>
<desc>lat.=22.314463, lon.=103.765388, Alt.=2776.658203m. Speed=1.584000m/h.</desc>
<speed>0.440000</speed>
</trkpt>
<trkpt lat="22.314461" lon="103.765442">
<ele>2776.470703</ele>
<time>2011-04-24T07:30:58Z</time>
<desc>lat.=22.314461, lon.=103.765442, Alt.=2776.470703m. Speed=2.160000m/h.</desc>
<speed>0.600000</speed>
</trkpt>
<trkpt lat="22.314472" lon="103.765480">
<ele>2776.408203</ele>
<time>2011-04-24T07:31:03Z</time>
<desc>lat.=22.314472, lon.=103.765480, Alt.=2776.408203m. Speed=1.872000m/h.</desc>
<speed>0.520000</speed>
</trkpt>
<trkpt lat="22.314461" lon="103.765526">
<ele>2776.845703</ele>
<time>2011-04-24T07:31:08Z</time>
<desc>lat.=22.314461, lon.=103.765526, Alt.=2776.845703m. Speed=1.440000m/h.</desc>
<speed>0.400000</speed>
</trkpt>
<trkpt lat="22.314487" lon="103.765541">
<ele>2777.158203</ele>
<time>2011-04-24T07:31:13Z</time>
<desc>lat.=22.314487, lon.=103.765541, Alt.=2777.158203m. Speed=1.548000m/h.</desc>
<speed>0.430000</speed>
</trkpt>
<trkpt lat="22.314487" lon="103.765541">
<ele>2777.345703</ele>
<time>2011-04-24T07:31:18Z</time>
<desc>lat.=22.314487, lon.=103.765541, Alt.=2777.345703m. Speed=1.296000m/h.</desc>
<speed>0.360000</speed>
</trkpt>
<trkpt lat="22.314497" lon="103.765541">
<ele>2777.345703</ele>
<time>2011-04-24T07:31:23Z</time>
<desc>lat.=22.314497, lon.=103.765541, Alt.=2777.345703m. Speed=0.936000m/h.</desc>
<speed>0.260000</speed>
</trkpt>
<trkpt lat="22.314501" lon="103.765549">
<ele>2777.158203</ele>
<time>2011-04-24T07:31:28Z</time>
<desc>lat.=22.314501, lon.=103.765549, Alt.=2777.158203m. Speed=0.828000m/h.</desc>
<speed>0.230000</speed>
</trkpt>
<trkpt lat="22.314508" lon="103.765549">
<ele>2777.345703</ele>
<time>2011-04-24T07:31:33Z</time>
<desc>lat.=22.314508, lon.=103.765549, Alt.=2777.345703m. Speed=0.900000m/h.</desc>
<speed>0.250000</speed>
</trkpt>
<trkpt lat="22.314518" lon="103.765549">
<ele>2778.095703</ele>
<time>2011-04-24T07:31:38Z</time>
<desc>lat.=22.314518, lon.=103.765549, Alt.=2778.095703m. Speed=0.576000m/h.</desc>
<speed>0.160000</speed>
</trkpt>
<trkpt lat="22.314522" lon="103.765549">
<ele>2778.095703</ele>
<time>2011-04-24T07:31:43Z</time>
<desc>lat.=22.314522, lon.=103.765549, Alt.=2778.095703m. Speed=0.288000m/h.</desc>
<speed>0.080000</speed>
</trkpt>
<trkpt lat="22.314529" lon="103.765564">
<ele>2778.158203</ele>
<time>2011-04-24T07:31:48Z</time>
<desc>lat.=22.314529, lon.=103.765564, Alt.=2778.158203m. Speed=0.576000m/h.</desc>
<speed>0.160000</speed>
</trkpt>
<trkpt lat="22.314528" lon="103.765564">
<ele>2778.158203</ele>
<time>2011-04-24T07:31:53Z</time>
<desc>lat.=22.314528, lon.=103.765564, Alt.=2778.158203m. Speed=0.324000m/h.</desc>
<speed>0.090000</speed>
</trkpt>
<trkpt lat="22.314526" lon="103.765549">
<ele>2778.283203</ele>
<time>2011-04-24T07:31:58Z</time>
<desc>lat.=22.314526, lon.=103.765549, Alt.=2778.283203m. Speed=1.080000m/h.</desc>
<speed>0.300000</speed>
</trkpt>
<trkpt lat="22.314526" lon="103.765533">
<ele>2778.470703</ele>
<time>2011-04-24T07:32:03Z</time>
<desc>lat.=22.314526, lon.=103.765533, Alt.=2778.470703m. Speed=1.188000m/h.</desc>
<speed>0.330000</speed>
</trkpt>
<trkpt lat="22.314510" lon="103.765511">
<ele>2778.595703</ele>
<time>2011-04-24T07:32:08Z</time>
<desc>lat.=22.314510, lon.=103.765511, Alt.=2778.595703m. Speed=0.360000m/h.</desc>
<speed>0.100000</speed>
</trkpt>
<trkpt lat="22.314499" lon="103.765511">
<ele>2778.970703</ele>
<time>2011-04-24T07:32:13Z</time>
<desc>lat.=22.314499, lon.=103.765511, Alt.=2778.970703m. Speed=0.324000m/h.</desc>
<speed>0.090000</speed>
</trkpt>
<trkpt lat="22.314493" lon="103.765511">
<ele>2778.970703</ele>
<time>2011-04-24T07:32:18Z</time>
<desc>lat.=22.314493, lon.=103.765511, Alt.=2778.970703m. Speed=0.504000m/h.</desc>
<speed>0.140000</speed>
</trkpt>
<trkpt lat="22.314487" lon="103.765503">
<ele>2779.033203</ele>
<time>2011-04-24T07:32:23Z</time>
<desc>lat.=22.314487, lon.=103.765503, Alt.=2779.033203m. Speed=0.216000m/h.</desc>
<speed>0.060000</speed>
</trkpt>
<trkpt lat="22.314487" lon="103.765511">
<ele>2779.033203</ele>
<time>2011-04-24T07:32:28Z</time>
<desc>lat.=22.314487, lon.=103.765511, Alt.=2779.033203m. Speed=0.792000m/h.</desc>
<speed>0.220000</speed>
</trkpt>
<trkpt lat="22.314493" lon="103.765518">
<ele>2779.095703</ele>
<time>2011-04-24T07:32:33Z</time>
<desc>lat.=22.314493, lon.=103.765518, Alt.=2779.095703m. Speed=0.288000m/h.</desc>
<speed>0.080000</speed>
</trkpt>
<trkpt lat="22.314493" lon="103.765518">
<ele>2779.095703</ele>
<time>2011-04-24T07:32:38Z</time>
<desc>lat.=22.314493, lon.=103.765518, Alt.=2779.095703m. Speed=0.288000m/h.</desc>
<speed>0.080000</speed>
</trkpt>
<trkpt lat="22.314491" lon="103.765526">
<ele>2779.220703</ele>
<time>2011-04-24T07:32:43Z</time>
<desc>lat.=22.314491, lon.=103.765526, Alt.=2779.220703m. Speed=0.324000m/h.</desc>
<speed>0.090000</speed>
</trkpt>
<trkpt lat="22.314493" lon="103.765526">
<ele>2779.220703</ele>
<time>2011-04-24T07:32:48Z</time>
<desc>lat.=22.314493, lon.=103.765526, Alt.=2779.220703m. Speed=0.108000m/h.</desc>
<speed>0.030000</speed>
</trkpt>
<trkpt lat="22.314497" lon="103.765526">
<ele>2779.220703</ele>
<time>2011-04-24T07:32:53Z</time>
<desc>lat.=22.314497, lon.=103.765526, Alt.=2779.220703m. Speed=0.612000m/h.</desc>
<speed>0.170000</speed>
</trkpt>
<trkpt lat="22.314505" lon="103.765526">
<ele>2779.158203</ele>
<time>2011-04-24T07:32:58Z</time>
<desc>lat.=22.314505, lon.=103.765526, Alt.=2779.158203m. Speed=0.396000m/h.</desc>
<speed>0.110000</speed>
</trkpt>
<trkpt lat="22.314508" lon="103.765526">
<ele>2779.095703</ele>
<time>2011-04-24T07:33:03Z</time>
<desc>lat.=22.314508, lon.=103.765526, Alt.=2779.095703m. Speed=0.468000m/h.</desc>
<speed>0.130000</speed>
</trkpt>
<trkpt lat="22.314512" lon="103.765533">
<ele>2779.033203</ele>
<time>2011-04-24T07:33:08Z</time>
<desc>lat.=22.314512, lon.=103.765533, Alt.=2779.033203m. Speed=0.756000m/h.</desc>
<speed>0.210000</speed>
</trkpt>
<trkpt lat="22.314518" lon="103.765541">
<ele>2779.033203</ele>
<time>2011-04-24T07:33:13Z</time>
<desc>lat.=22.314518, lon.=103.765541, Alt.=2779.033203m. Speed=0.540000m/h.</desc>
<speed>0.150000</speed>
</trkpt>
<trkpt lat="22.314520" lon="103.765541">
<ele>2779.033203</ele>
<time>2011-04-24T07:33:18Z</time>
<desc>lat.=22.314520, lon.=103.765541, Alt.=2779.033203m. Speed=0.252000m/h.</desc>
<speed>0.070000</speed>
</trkpt>
<trkpt lat="22.314522" lon="103.765549">
<ele>2779.033203</ele>
<time>2011-04-24T07:33:23Z</time>
<desc>lat.=22.314522, lon.=103.765549, Alt.=2779.033203m. Speed=0.216000m/h.</desc>
<speed>0.060000</speed>
</trkpt>
<trkpt lat="22.314520" lon="103.765549">
<ele>2779.033203</ele>
<time>2011-04-24T07:33:28Z</time>
<desc>lat.=22.314520, lon.=103.765549, Alt.=2779.033203m. Speed=0.432000m/h.</desc>
<speed>0.120000</speed>
</trkpt>
<trkpt lat="22.314520" lon="103.765549">
<ele>2779.095703</ele>
<time>2011-04-24T07:33:33Z</time>
<desc>lat.=22.314520, lon.=103.765549, Alt.=2779.095703m. Speed=0.072000m/h.</desc>
<speed>0.020000</speed>
</trkpt>
<trkpt lat="22.314518" lon="103.765549">
<ele>2779.033203</ele>
<time>2011-04-24T07:33:38Z</time>
<desc>lat.=22.314518, lon.=103.765549, Alt.=2779.033203m. Speed=0.108000m/h.</desc>
<speed>0.030000</speed>
</trkpt>
<trkpt lat="22.314520" lon="103.765549">
<ele>2778.970703</ele>
<time>2011-04-24T07:33:43Z</time>
<desc>lat.=22.314520, lon.=103.765549, Alt.=2778.970703m. Speed=0.072000m/h.</desc>
<speed>0.020000</speed>
</trkpt>
<trkpt lat="22.314518" lon="103.765549">
<ele>2779.033203</ele>
<time>2011-04-24T07:33:48Z</time>
<desc>lat.=22.314518, lon.=103.765549, Alt.=2779.033203m. Speed=0.144000m/h.</desc>
<speed>0.040000</speed>
</trkpt>
<trkpt lat="22.314520" lon="103.765549">
<ele>2779.220703</ele>
<time>2011-04-24T07:33:53Z</time>
<desc>lat.=22.314520, lon.=103.765549, Alt.=2779.220703m. Speed=0.072000m/h.</desc>
<speed>0.020000</speed>
</trkpt>
<trkpt lat="22.314518" lon="103.765549">
<ele>2779.345703</ele>
<time>2011-04-24T07:33:58Z</time>
<desc>lat.=22.314518, lon.=103.765549, Alt.=2779.345703m. Speed=0.144000m/h.</desc>
<speed>0.040000</speed>
</trkpt>
<trkpt lat="22.314518" lon="103.765549">
<ele>2779.408203</ele>
<time>2011-04-24T07:34:03Z</time>
<desc>lat.=22.314518, lon.=103.765549, Alt.=2779.408203m. Speed=0.072000m/h.</desc>
<speed>0.020000</speed>
</trkpt>
<trkpt lat="22.314520" lon="103.765556">
<ele>2779.845703</ele>
<time>2011-04-24T07:34:08Z</time>
<desc>lat.=22.314520, lon.=103.765556, Alt.=2779.845703m. Speed=0.144000m/h.</desc>
<speed>0.040000</speed>
</trkpt>
<trkpt lat="22.314522" lon="103.765556">
<ele>2779.908203</ele>
<time>2011-04-24T07:34:13Z</time>
<desc>lat.=22.314522, lon.=103.765556, Alt.=2779.908203m. Speed=0.936000m/h.</desc>
<speed>0.260000</speed>
</trkpt>
<trkpt lat="22.314520" lon="103.765556">
<ele>2779.970703</ele>
<time>2011-04-24T07:34:18Z</time>
<desc>lat.=22.314520, lon.=103.765556, Alt.=2779.970703m. Speed=0.540000m/h.</desc>
<speed>0.150000</speed>
</trkpt>
<trkpt lat="22.314526" lon="103.765556">
<ele>2779.970703</ele>
<time>2011-04-24T07:34:23Z</time>
<desc>lat.=22.314526, lon.=103.765556, Alt.=2779.970703m. Speed=0.288000m/h.</desc>
<speed>0.080000</speed>
</trkpt>
<trkpt lat="22.314528" lon="103.765556">
<ele>2779.970703</ele>
<time>2011-04-24T07:34:28Z</time>
<desc>lat.=22.314528, lon.=103.765556, Alt.=2779.970703m. Speed=0.612000m/h.</desc>
<speed>0.170000</speed>
</trkpt>
<trkpt lat="22.314526" lon="103.765549">
<ele>2780.033203</ele>
<time>2011-04-24T07:34:33Z</time>
<desc>lat.=22.314526, lon.=103.765549, Alt.=2780.033203m. Speed=3.780000m/h.</desc>
<speed>1.050000</speed>
</trkpt>
<trkpt lat="22.314514" lon="103.765511">
<ele>2780.283203</ele>
<time>2011-04-24T07:34:38Z</time>
<desc>lat.=22.314514, lon.=103.765511, Alt.=2780.283203m. Speed=2.124000m/h.</desc>
<speed>0.590000</speed>
</trkpt>
<trkpt lat="22.314524" lon="103.765526">
<ele>2780.470703</ele>
<time>2011-04-24T07:34:43Z</time>
<desc>lat.=22.314524, lon.=103.765526, Alt.=2780.470703m. Speed=0.792000m/h.</desc>
<speed>0.220000</speed>
</trkpt>
<trkpt lat="22.314531" lon="103.765526">
<ele>2780.533203</ele>
<time>2011-04-24T07:34:48Z</time>
<desc>lat.=22.314531, lon.=103.765526, Alt.=2780.533203m. Speed=0.468000m/h.</desc>
<speed>0.130000</speed>
</trkpt>
<trkpt lat="22.314554" lon="103.765541">
<ele>2780.658203</ele>
<time>2011-04-24T07:34:53Z</time>
<desc>lat.=22.314554, lon.=103.765541, Alt.=2780.658203m. Speed=0.540000m/h.</desc>
<speed>0.150000</speed>
</trkpt>
<trkpt lat="22.314564" lon="103.765541">
<ele>2780.783203</ele>
<time>2011-04-24T07:34:58Z</time>
<desc>lat.=22.314564, lon.=103.765541, Alt.=2780.783203m. Speed=1.008000m/h.</desc>
<speed>0.280000</speed>
</trkpt>
<trkpt lat="22.314560" lon="103.765549">
<ele>2780.845703</ele>
<time>2011-04-24T07:35:03Z</time>
<desc>lat.=22.314560, lon.=103.765549, Alt.=2780.845703m. Speed=2.556000m/h.</desc>
<speed>0.710000</speed>
</trkpt>
<trkpt lat="22.314564" lon="103.765541">
<ele>2780.908203</ele>
<time>2011-04-24T07:35:08Z</time>
<desc>lat.=22.314564, lon.=103.765541, Alt.=2780.908203m. Speed=1.296000m/h.</desc>
<speed>0.360000</speed>
</trkpt>
<trkpt lat="22.314566" lon="103.765533">
<ele>2781.095703</ele>
<time>2011-04-24T07:35:13Z</time>
<desc>lat.=22.314566, lon.=103.765533, Alt.=2781.095703m. Speed=2.196000m/h.</desc>
<speed>0.610000</speed>
</trkpt>
<trkpt lat="22.314589" lon="103.765541">
<ele>2781.283203</ele>
<time>2011-04-24T07:35:18Z</time>
<desc>lat.=22.314589, lon.=103.765541, Alt.=2781.283203m. Speed=0.900000m/h.</desc>
<speed>0.250000</speed>
</trkpt>
<trkpt lat="22.314594" lon="103.765541">
<ele>2781.470703</ele>
<time>2011-04-24T07:35:23Z</time>
<desc>lat.=22.314594, lon.=103.765541, Alt.=2781.470703m. Speed=1.368000m/h.</desc>
<speed>0.380000</speed>
</trkpt>
<trkpt lat="22.314583" lon="103.765549">
<ele>2781.720703</ele>
<time>2011-04-24T07:35:28Z</time>
<desc>lat.=22.314583, lon.=103.765549, Alt.=2781.720703m. Speed=0.288000m/h.</desc>
<speed>0.080000</speed>
</trkpt>
<trkpt lat="22.314541" lon="103.765572">
<ele>2782.283203</ele>
<time>2011-04-24T07:35:33Z</time>
<desc>lat.=22.314541, lon.=103.765572, Alt.=2782.283203m. Speed=0.540000m/h.</desc>
<speed>0.150000</speed>
</trkpt>
<trkpt lat="22.314510" lon="103.765556">
<ele>2782.470703</ele>
<time>2011-04-24T07:35:38Z</time>
<desc>lat.=22.314510, lon.=103.765556, Alt.=2782.470703m. Speed=1.224000m/h.</desc>
<speed>0.340000</speed>
</trkpt>
<trkpt lat="22.314520" lon="103.765533">
<ele>2782.845703</ele>
<time>2011-04-24T07:35:43Z</time>
<desc>lat.=22.314520, lon.=103.765533, Alt.=2782.845703m. Speed=1.260000m/h.</desc>
<speed>0.350000</speed>
</trkpt>
<trkpt lat="22.314518" lon="103.765533">
<ele>2783.095703</ele>
<time>2011-04-24T07:35:48Z</time>
<desc>lat.=22.314518, lon.=103.765533, Alt.=2783.095703m. Speed=3.564000m/h.</desc>
<speed>0.990000</speed>
</trkpt>
<trkpt lat="22.314531" lon="103.765579">
<ele>2783.283203</ele>
<time>2011-04-24T07:35:53Z</time>
<desc>lat.=22.314531, lon.=103.765579, Alt.=2783.283203m. Speed=3.276000m/h.</desc>
<speed>0.910000</speed>
</trkpt>
<trkpt lat="22.314539" lon="103.765587">
<ele>2783.533203</ele>
<time>2011-04-24T07:35:58Z</time>
<desc>lat.=22.314539, lon.=103.765587, Alt.=2783.533203m. Speed=1.584000m/h.</desc>
<speed>0.440000</speed>
</trkpt>
<trkpt lat="22.314528" lon="103.765549">
<ele>2783.720703</ele>
<time>2011-04-24T07:36:03Z</time>
<desc>lat.=22.314528, lon.=103.765549, Alt.=2783.720703m. Speed=1.548000m/h.</desc>
<speed>0.430000</speed>
</trkpt>
<trkpt lat="22.314520" lon="103.765533">
<ele>2783.783203</ele>
<time>2011-04-24T07:36:08Z</time>
<desc>lat.=22.314520, lon.=103.765533, Alt.=2783.783203m. Speed=1.044000m/h.</desc>
<speed>0.290000</speed>
</trkpt>
<trkpt lat="22.314524" lon="103.765518">
<ele>2784.408203</ele>
<time>2011-04-24T07:36:13Z</time>
<desc>lat.=22.314524, lon.=103.765518, Alt.=2784.408203m. Speed=0.252000m/h.</desc>
<speed>0.070000</speed>
</trkpt>
<trkpt lat="22.314522" lon="103.765518">
<ele>2784.470703</ele>
<time>2011-04-24T07:36:18Z</time>
<desc>lat.=22.314522, lon.=103.765518, Alt.=2784.470703m. Speed=0.468000m/h.</desc>
<speed>0.130000</speed>
</trkpt>
<trkpt lat="22.314524" lon="103.765518">
<ele>2784.470703</ele>
<time>2011-04-24T07:36:23Z</time>
<desc>lat.=22.314524, lon.=103.765518, Alt.=2784.470703m. Speed=0.216000m/h.</desc>
<speed>0.060000</speed>
</trkpt>
<trkpt lat="22.314528" lon="103.765526">
<ele>2784.533203</ele>
<time>2011-04-24T07:36:28Z</time>
<desc>lat.=22.314528, lon.=103.765526, Alt.=2784.533203m. Speed=0.504000m/h.</desc>
<speed>0.140000</speed>
</trkpt>
<trkpt lat="22.314529" lon="103.765533">
<ele>2784.533203</ele>
<time>2011-04-24T07:36:33Z</time>
<desc>lat.=22.314529, lon.=103.765533, Alt.=2784.533203m. Speed=0.576000m/h.</desc>
<speed>0.160000</speed>
</trkpt>
<trkpt lat="22.314531" lon="103.765556">
<ele>2787.408203</ele>
<time>2011-04-24T07:36:38Z</time>
<desc>lat.=22.314531, lon.=103.765556, Alt.=2787.408203m. Speed=0.072000m/h.</desc>
<speed>0.020000</speed>
</trkpt>
<trkpt lat="22.314537" lon="103.765556">
<ele>2787.970703</ele>
<time>2011-04-24T07:36:43Z</time>
<desc>lat.=22.314537, lon.=103.765556, Alt.=2787.970703m. Speed=0.000000m/h.</desc>
<speed>0.000000</speed>
</trkpt>
<trkpt lat="22.314537" lon="103.765556">
<ele>2787.970703</ele>
<time>2011-04-24T07:36:48Z</time>
<desc>lat.=22.314537, lon.=103.765556, Alt.=2787.970703m. Speed=0.612000m/h.</desc>
<speed>0.170000</speed>
</trkpt>
<trkpt lat="22.314535" lon="103.765549">
<ele>2788.033203</ele>
<time>2011-04-24T07:36:53Z</time>
<desc>lat.=22.314535, lon.=103.765549, Alt.=2788.033203m. Speed=0.468000m/h.</desc>
<speed>0.130000</speed>
</trkpt>
<trkpt lat="22.314535" lon="103.765549">
<ele>2788.033203</ele>
<time>2011-04-24T07:36:58Z</time>
<desc>lat.=22.314535, lon.=103.765549, Alt.=2788.033203m. Speed=0.288000m/h.</desc>
<speed>0.080000</speed>
</trkpt>
<trkpt lat="22.314533" lon="103.765549">
<ele>2788.095703</ele>
<time>2011-04-24T07:37:03Z</time>
<desc>lat.=22.314533, lon.=103.765549, Alt.=2788.095703m. Speed=0.216000m/h.</desc>
<speed>0.060000</speed>
</trkpt>
<trkpt lat="22.314531" lon="103.765549">
<ele>2788.095703</ele>
<time>2011-04-24T07:37:08Z</time>
<desc>lat.=22.314531, lon.=103.765549, Alt.=2788.095703m. Speed=0.108000m/h.</desc>
<speed>0.030000</speed>
</trkpt>
<trkpt lat="22.314531" lon="103.765549">
<ele>2788.283203</ele>
<time>2011-04-24T07:37:13Z</time>
<desc>lat.=22.314531, lon.=103.765549, Alt.=2788.283203m. Speed=0.108000m/h.</desc>
<speed>0.030000</speed>
</trkpt>
<trkpt lat="22.314531" lon="103.765556">
<ele>2788.345703</ele>
<time>2011-04-24T07:37:18Z</time>
<desc>lat.=22.314531, lon.=103.765556, Alt.=2788.345703m. Speed=0.576000m/h.</desc>
<speed>0.160000</speed>
</trkpt>
<trkpt lat="22.314531" lon="103.765556">
<ele>2788.345703</ele>
<time>2011-04-24T07:37:23Z</time>
<desc>lat.=22.314531, lon.=103.765556, Alt.=2788.345703m. Speed=0.648000m/h.</desc>
<speed>0.180000</speed>
</trkpt>
<trkpt lat="22.314531" lon="103.765549">
<ele>2788.283203</ele>
<time>2011-04-24T07:37:28Z</time>
<desc>lat.=22.314531, lon.=103.765549, Alt.=2788.283203m. Speed=0.468000m/h.</desc>
<speed>0.130000</speed>
</trkpt>
<trkpt lat="22.314529" lon="103.765541">
<ele>2788.283203</ele>
<time>2011-04-24T07:37:33Z</time>
<desc>lat.=22.314529, lon.=103.765541, Alt.=2788.283203m. Speed=0.540000m/h.</desc>
<speed>0.150000</speed>
</trkpt>
<trkpt lat="22.314531" lon="103.765533">
<ele>2788.283203</ele>
<time>2011-04-24T07:37:38Z</time>
<desc>lat.=22.314531, lon.=103.765533, Alt.=2788.283203m. Speed=0.396000m/h.</desc>
<speed>0.110000</speed>
</trkpt>
<trkpt lat="22.314571" lon="103.765602">
<ele>2787.095703</ele>
<time>2011-04-24T07:37:43Z</time>
<desc>lat.=22.314571, lon.=103.765602, Alt.=2787.095703m. Speed=1.188000m/h.</desc>
<speed>0.330000</speed>
</trkpt>
<trkpt lat="22.314583" lon="103.765602">
<ele>2787.908203</ele>
<time>2011-04-24T07:37:48Z</time>
<desc>lat.=22.314583, lon.=103.765602, Alt.=2787.908203m. Speed=0.216000m/h.</desc>
<speed>0.060000</speed>
</trkpt>
<trkpt lat="22.314581" lon="103.765602">
<ele>2787.970703</ele>
<time>2011-04-24T07:37:53Z</time>
<desc>lat.=22.314581, lon.=103.765602, Alt.=2787.970703m. Speed=0.396000m/h.</desc>
<speed>0.110000</speed>
</trkpt>
<trkpt lat="22.314581" lon="103.765610">
<ele>2788.095703</ele>
<time>2011-04-24T07:37:58Z</time>
<desc>lat.=22.314581, lon.=103.765610, Alt.=2788.095703m. Speed=0.252000m/h.</desc>
<speed>0.070000</speed>
</trkpt>
<trkpt lat="22.314585" lon="103.765610">
<ele>2788.220703</ele>
<time>2011-04-24T07:38:03Z</time>
<desc>lat.=22.314585, lon.=103.765610, Alt.=2788.220703m. Speed=0.684000m/h.</desc>
<speed>0.190000</speed>
</trkpt>
<trkpt lat="22.314589" lon="103.765610">
<ele>2788.220703</ele>
<time>2011-04-24T07:38:08Z</time>
<desc>lat.=22.314589, lon.=103.765610, Alt.=2788.220703m. Speed=0.540000m/h.</desc>
<speed>0.150000</speed>
</trkpt>
<trkpt lat="22.314590" lon="103.765610">
<ele>2788.158203</ele>
<time>2011-04-24T07:38:13Z</time>
<desc>lat.=22.314590, lon.=103.765610, Alt.=2788.158203m. Speed=0.144000m/h.</desc>
<speed>0.040000</speed>
</trkpt>
<trkpt lat="22.314590" lon="103.765617">
<ele>2788.158203</ele>
<time>2011-04-24T07:38:18Z</time>
<desc>lat.=22.314590, lon.=103.765617, Alt.=2788.158203m. Speed=0.144000m/h.</desc>
<speed>0.040000</speed>
</trkpt>
<trkpt lat="22.314590" lon="103.765617">
<ele>2788.158203</ele>
<time>2011-04-24T07:38:23Z</time>
<desc>lat.=22.314590, lon.=103.765617, Alt.=2788.158203m. Speed=0.252000m/h.</desc>
<speed>0.070000</speed>
</trkpt>
<trkpt lat="22.314592" lon="103.765625">
<ele>2788.095703</ele>
<time>2011-04-24T07:38:28Z</time>
<desc>lat.=22.314592, lon.=103.765625, Alt.=2788.095703m. Speed=0.324000m/h.</desc>
<speed>0.090000</speed>
</trkpt>
<trkpt lat="22.314594" lon="103.765625">
<ele>2788.095703</ele>
<time>2011-04-24T07:38:33Z</time>
<desc>lat.=22.314594, lon.=103.765625, Alt.=2788.095703m. Speed=0.576000m/h.</desc>
<speed>0.160000</speed>
</trkpt>
<trkpt lat="22.314598" lon="103.765633">
<ele>2788.095703</ele>
<time>2011-04-24T07:38:38Z</time>
<desc>lat.=22.314598, lon.=103.765633, Alt.=2788.095703m. Speed=0.612000m/h.</desc>
<speed>0.170000</speed>
</trkpt>
<trkpt lat="22.314596" lon="103.765633">
<ele>2788.095703</ele>
<time>2011-04-24T07:38:43Z</time>
<desc>lat.=22.314596, lon.=103.765633, Alt.=2788.095703m. Speed=0.216000m/h.</desc>
<speed>0.060000</speed>
</trkpt>
<trkpt lat="22.314598" lon="103.765625">
<ele>2788.095703</ele>
<time>2011-04-24T07:38:48Z</time>
<desc>lat.=22.314598, lon.=103.765625, Alt.=2788.095703m. Speed=0.396000m/h.</desc>
<speed>0.110000</speed>
</trkpt>
<trkpt lat="22.314598" lon="103.765633">
<ele>2788.033203</ele>
<time>2011-04-24T07:38:53Z</time>
<desc>lat.=22.314598, lon.=103.765633, Alt.=2788.033203m. Speed=0.936000m/h.</desc>
<speed>0.260000</speed>
</trkpt>
<trkpt lat="22.314608" lon="103.765617">
<ele>2788.845703</ele>
<time>2011-04-24T07:38:58Z</time>
<desc>lat.=22.314608, lon.=103.765617, Alt.=2788.845703m. Speed=0.504000m/h.</desc>
<speed>0.140000</speed>
</trkpt>
<trkpt lat="22.314613" lon="103.765617">
<ele>2788.970703</ele>
<time>2011-04-24T07:39:03Z</time>
<desc>lat.=22.314613, lon.=103.765617, Alt.=2788.970703m. Speed=0.180000m/h.</desc>
<speed>0.050000</speed>
</trkpt>
<trkpt lat="22.314621" lon="103.765625">
<ele>2788.408203</ele>
<time>2011-04-24T07:39:08Z</time>
<desc>lat.=22.314621, lon.=103.765625, Alt.=2788.408203m. Speed=0.108000m/h.</desc>
<speed>0.030000</speed>
</trkpt>
<trkpt lat="22.314623" lon="103.765625">
<ele>2788.970703</ele>
<time>2011-04-24T07:39:13Z</time>
<desc>lat.=22.314623, lon.=103.765625, Alt.=2788.970703m. Speed=0.036000m/h.</desc>
<speed>0.010000</speed>
</trkpt>
<trkpt lat="22.314619" lon="103.765640">
<ele>2788.908203</ele>
<time>2011-04-24T07:39:18Z</time>
<desc>lat.=22.314619, lon.=103.765640, Alt.=2788.908203m. Speed=0.360000m/h.</desc>
<speed>0.100000</speed>
</trkpt>
<trkpt lat="22.314619" lon="103.765656">
<ele>2788.533203</ele>
<time>2011-04-24T07:39:23Z</time>
<desc>lat.=22.314619, lon.=103.765656, Alt.=2788.533203m. Speed=0.324000m/h.</desc>
<speed>0.090000</speed>
</trkpt>
<trkpt lat="22.314613" lon="103.765663">
<ele>2788.970703</ele>
<time>2011-04-24T07:39:28Z</time>
<desc>lat.=22.314613, lon.=103.765663, Alt.=2788.970703m. Speed=0.756000m/h.</desc>
<speed>0.210000</speed>
</trkpt>
<trkpt lat="22.314615" lon="103.765671">
<ele>2788.970703</ele>
<time>2011-04-24T07:39:33Z</time>
<desc>lat.=22.314615, lon.=103.765671, Alt.=2788.970703m. Speed=0.576000m/h.</desc>
<speed>0.160000</speed>
</trkpt>
<trkpt lat="22.314625" lon="103.765678">
<ele>2788.908203</ele>
<time>2011-04-24T07:39:38Z</time>
<desc>lat.=22.314625, lon.=103.765678, Alt.=2788.908203m. Speed=0.324000m/h.</desc>
<speed>0.090000</speed>
</trkpt>
<trkpt lat="22.314627" lon="103.765671">
<ele>2789.095703</ele>
<time>2011-04-24T07:39:43Z</time>
<desc>lat.=22.314627, lon.=103.765671, Alt.=2789.095703m. Speed=0.396000m/h.</desc>
<speed>0.110000</speed>
</trkpt>
<trkpt lat="22.314629" lon="103.765663">
<ele>2789.283203</ele>
<time>2011-04-24T07:39:48Z</time>
<desc>lat.=22.314629, lon.=103.765663, Alt.=2789.283203m. Speed=0.324000m/h.</desc>
<speed>0.090000</speed>
</trkpt>
<trkpt lat="22.314629" lon="103.765663">
<ele>2789.470703</ele>
<time>2011-04-24T07:39:53Z</time>
<desc>lat.=22.314629, lon.=103.765663, Alt.=2789.470703m. Speed=0.216000m/h.</desc>
<speed>0.060000</speed>
</trkpt>
<trkpt lat="22.314632" lon="103.765663">
<ele>2789.533203</ele>
<time>2011-04-24T07:39:58Z</time>
<desc>lat.=22.314632, lon.=103.765663, Alt.=2789.533203m. Speed=0.324000m/h.</desc>
<speed>0.090000</speed>
</trkpt>
<trkpt lat="22.314636" lon="103.765663">
<ele>2789.720703</ele>
<time>2011-04-24T07:40:03Z</time>
<desc>lat.=22.314636, lon.=103.765663, Alt.=2789.720703m. Speed=0.252000m/h.</desc>
<speed>0.070000</speed>
</trkpt>
<trkpt lat="22.314636" lon="103.765663">
<ele>2789.783203</ele>
<time>2011-04-24T07:40:08Z</time>
<desc>lat.=22.314636, lon.=103.765663, Alt.=2789.783203m. Speed=0.108000m/h.</desc>
<speed>0.030000</speed>
</trkpt>
<trkpt lat="22.314636" lon="103.765663">
<ele>2789.783203</ele>
<time>2011-04-24T07:40:13Z</time>
<desc>lat.=22.314636, lon.=103.765663, Alt.=2789.783203m. Speed=0.000000m/h.</desc>
<speed>0.000000</speed>
</trkpt>
<trkpt lat="22.314636" lon="103.765663">
<ele>2789.783203</ele>
<time>2011-04-24T07:40:18Z</time>
<desc>lat.=22.314636, lon.=103.765663, Alt.=2789.783203m. Speed=0.000000m/h.</desc>
<speed>0.000000</speed>
</trkpt>
<trkpt lat="22.314636" lon="103.765663">
<ele>2789.783203</ele>
<time>2011-04-24T07:40:23Z</time>
<desc>lat.=22.314636, lon.=103.765663, Alt.=2789.783203m. Speed=0.108000m/h.</desc>
<speed>0.030000</speed>
</trkpt>
<trkpt lat="22.314636" lon="103.765663">
<ele>2789.783203</ele>
<time>2011-04-24T07:40:28Z</time>
<desc>lat.=22.314636, lon.=103.765663, Alt.=2789.783203m. Speed=0.108000m/h.</desc>
<speed>0.030000</speed>
</trkpt>
<trkpt lat="22.314636" lon="103.765663">
<ele>2789.783203</ele>
<time>2011-04-24T07:40:33Z</time>
<desc>lat.=22.314636, lon.=103.765663, Alt.=2789.783203m. Speed=0.288000m/h.</desc>
<speed>0.080000</speed>
</trkpt>
<trkpt lat="22.314636" lon="103.765663">
<ele>2789.783203</ele>
<time>2011-04-24T07:40:38Z</time>
<desc>lat.=22.314636, lon.=103.765663, Alt.=2789.783203m. Speed=0.036000m/h.</desc>
<speed>0.010000</speed>
</trkpt>
<trkpt lat="22.314636" lon="103.765663">
<ele>2789.783203</ele>
<time>2011-04-24T07:40:43Z</time>
<desc>lat.=22.314636, lon.=103.765663, Alt.=2789.783203m. Speed=0.360000m/h.</desc>
<speed>0.100000</speed>
</trkpt>
<trkpt lat="22.314638" lon="103.765663">
<ele>2789.595703</ele>
<time>2011-04-24T07:40:48Z</time>
<desc>lat.=22.314638, lon.=103.765663, Alt.=2789.595703m. Speed=0.432000m/h.</desc>
<speed>0.120000</speed>
</trkpt>
<trkpt lat="22.314623" lon="103.765671">
<ele>2788.908203</ele>
<time>2011-04-24T07:40:53Z</time>
<desc>lat.=22.314623, lon.=103.765671, Alt.=2788.908203m. Speed=1.404000m/h.</desc>
<speed>0.390000</speed>
</trkpt>
<trkpt lat="22.314619" lon="103.765671">
<ele>2789.220703</ele>
<time>2011-04-24T07:40:58Z</time>
<desc>lat.=22.314619, lon.=103.765671, Alt.=2789.220703m. Speed=0.072000m/h.</desc>
<speed>0.020000</speed>
</trkpt>
<trkpt lat="22.314619" lon="103.765671">
<ele>2789.283203</ele>
<time>2011-04-24T07:41:03Z</time>
<desc>lat.=22.314619, lon.=103.765671, Alt.=2789.283203m. Speed=0.072000m/h.</desc>
<speed>0.020000</speed>
</trkpt>
<trkpt lat="22.314619" lon="103.765671">
<ele>2789.345703</ele>
<time>2011-04-24T07:41:08Z</time>
<desc>lat.=22.314619, lon.=103.765671, Alt.=2789.345703m. Speed=0.072000m/h.</desc>
<speed>0.020000</speed>
</trkpt>
<trkpt lat="22.314619" lon="103.765671">
<ele>2789.408203</ele>
<time>2011-04-24T07:41:13Z</time>
<desc>lat.=22.314619, lon.=103.765671, Alt.=2789.408203m. Speed=0.756000m/h.</desc>
<speed>0.210000</speed>
</trkpt>
<trkpt lat="22.314606" lon="103.765678">
<ele>2789.783203</ele>
<time>2011-04-24T07:41:18Z</time>
<desc>lat.=22.314606, lon.=103.765678, Alt.=2789.783203m. Speed=0.792000m/h.</desc>
<speed>0.220000</speed>
</trkpt>
<trkpt lat="22.314600" lon="103.765663">
<ele>2790.283203</ele>
<time>2011-04-24T07:41:23Z</time>
<desc>lat.=22.314600, lon.=103.765663, Alt.=2790.283203m. Speed=0.468000m/h.</desc>
<speed>0.130000</speed>
</trkpt>
<trkpt lat="22.314600" lon="103.765656">
<ele>2790.470703</ele>
<time>2011-04-24T07:41:28Z</time>
<desc>lat.=22.314600, lon.=103.765656, Alt.=2790.470703m. Speed=0.144000m/h.</desc>
<speed>0.040000</speed>
</trkpt>
<trkpt lat="22.314604" lon="103.765640">
<ele>2790.783203</ele>
<time>2011-04-24T07:41:33Z</time>
<desc>lat.=22.314604, lon.=103.765640, Alt.=2790.783203m. Speed=2.340000m/h.</desc>
<speed>0.650000</speed>
</trkpt>
<trkpt lat="22.314615" lon="103.765625">
<ele>2791.095703</ele>
<time>2011-04-24T07:41:38Z</time>
<desc>lat.=22.314615, lon.=103.765625, Alt.=2791.095703m. Speed=3.492000m/h.</desc>
<speed>0.970000</speed>
</trkpt>
<trkpt lat="22.314629" lon="103.765648">
<ele>2791.158203</ele>
<time>2011-04-24T07:41:43Z</time>
<desc>lat.=22.314629, lon.=103.765648, Alt.=2791.158203m. Speed=0.576000m/h.</desc>
<speed>0.160000</speed>
</trkpt>
<trkpt lat="22.314632" lon="103.765656">
<ele>2791.345703</ele>
<time>2011-04-24T07:41:48Z</time>
<desc>lat.=22.314632, lon.=103.765656, Alt.=2791.345703m. Speed=0.648000m/h.</desc>
<speed>0.180000</speed>
</trkpt>
<trkpt lat="22.314644" lon="103.765640">
<ele>2791.408203</ele>
<time>2011-04-24T07:41:53Z</time>
<desc>lat.=22.314644, lon.=103.765640, Alt.=2791.408203m. Speed=2.988000m/h.</desc>
<speed>0.830000</speed>
</trkpt>
<trkpt lat="22.314665" lon="103.765625">
<ele>2790.595703</ele>
<time>2011-04-24T07:41:58Z</time>
<desc>lat.=22.314665, lon.=103.765625, Alt.=2790.595703m. Speed=1.764000m/h.</desc>
<speed>0.490000</speed>
</trkpt>
<trkpt lat="22.314692" lon="103.765625">
<ele>2790.408203</ele>
<time>2011-04-24T07:42:03Z</time>
<desc>lat.=22.314692, lon.=103.765625, Alt.=2790.408203m. Speed=2.448000m/h.</desc>
<speed>0.680000</speed>
</trkpt>
<trkpt lat="22.314739" lon="103.765625">
<ele>2790.533203</ele>
<time>2011-04-24T07:42:08Z</time>
<desc>lat.=22.314739, lon.=103.765625, Alt.=2790.533203m. Speed=3.600000m/h.</desc>
<speed>1.000000</speed>
</trkpt>
<trkpt lat="22.314772" lon="103.765594">
<ele>2791.033203</ele>
<time>2011-04-24T07:42:13Z</time>
<desc>lat.=22.314772, lon.=103.765594, Alt.=2791.033203m. Speed=4.608000m/h.</desc>
<speed>1.280000</speed>
</trkpt>
<trkpt lat="22.314806" lon="103.765587">
<ele>2791.033203</ele>
<time>2011-04-24T07:42:18Z</time>
<desc>lat.=22.314806, lon.=103.765587, Alt.=2791.033203m. Speed=3.096000m/h.</desc>
<speed>0.860000</speed>
</trkpt>
<trkpt lat="22.314842" lon="103.765564">
<ele>2789.845703</ele>
<time>2011-04-24T07:42:23Z</time>
<desc>lat.=22.314842, lon.=103.765564, Alt.=2789.845703m. Speed=3.276000m/h.</desc>
<speed>0.910000</speed>
</trkpt>
<trkpt lat="22.314871" lon="103.765526">
<ele>2789.908203</ele>
<time>2011-04-24T07:42:28Z</time>
<desc>lat.=22.314871, lon.=103.765526, Alt.=2789.908203m. Speed=3.024000m/h.</desc>
<speed>0.840000</speed>
</trkpt>
<trkpt lat="22.314919" lon="103.765533">
<ele>2790.220703</ele>
<time>2011-04-24T07:42:33Z</time>
<desc>lat.=22.314919, lon.=103.765533, Alt.=2790.220703m. Speed=4.284000m/h.</desc>
<speed>1.190000</speed>
</trkpt>
<trkpt lat="22.314962" lon="103.765587">
<ele>2790.345703</ele>
<time>2011-04-24T07:42:38Z</time>
<desc>lat.=22.314962, lon.=103.765587, Alt.=2790.345703m. Speed=2.232000m/h.</desc>
<speed>0.620000</speed>
</trkpt>
<trkpt lat="22.315006" lon="103.765617">
<ele>2791.158203</ele>
<time>2011-04-24T07:42:43Z</time>
<desc>lat.=22.315006, lon.=103.765617, Alt.=2791.158203m. Speed=3.312000m/h.</desc>
<speed>0.920000</speed>
</trkpt>
<trkpt lat="22.315033" lon="103.765686">
<ele>2791.908203</ele>
<time>2011-04-24T07:42:48Z</time>
<desc>lat.=22.315033, lon.=103.765686, Alt.=2791.908203m. Speed=4.320000m/h.</desc>
<speed>1.200000</speed>
</trkpt>
<trkpt lat="22.315056" lon="103.765724">
<ele>2792.533203</ele>
<time>2011-04-24T07:42:53Z</time>
<desc>lat.=22.315056, lon.=103.765724, Alt.=2792.533203m. Speed=3.024000m/h.</desc>
<speed>0.840000</speed>
</trkpt>
<trkpt lat="22.315081" lon="103.765770">
<ele>2793.470703</ele>
<time>2011-04-24T07:42:58Z</time>
<desc>lat.=22.315081, lon.=103.765770, Alt.=2793.470703m. Speed=2.700000m/h.</desc>
<speed>0.750000</speed>
</trkpt>
<trkpt lat="22.315105" lon="103.765800">
<ele>2794.408203</ele>
<time>2011-04-24T07:43:03Z</time>
<desc>lat.=22.315105, lon.=103.765800, Alt.=2794.408203m. Speed=4.356000m/h.</desc>
<speed>1.210000</speed>
</trkpt>
<trkpt lat="22.315138" lon="103.765839">
<ele>2794.658203</ele>
<time>2011-04-24T07:43:08Z</time>
<desc>lat.=22.315138, lon.=103.765839, Alt.=2794.658203m. Speed=4.752000m/h.</desc>
<speed>1.320000</speed>
</trkpt>
<trkpt lat="22.315178" lon="103.765869">
<ele>2794.283203</ele>
<time>2011-04-24T07:43:13Z</time>
<desc>lat.=22.315178, lon.=103.765869, Alt.=2794.283203m. Speed=3.888000m/h.</desc>
<speed>1.080000</speed>
</trkpt>
<trkpt lat="22.315207" lon="103.765945">
<ele>2794.033203</ele>
<time>2011-04-24T07:43:18Z</time>
<desc>lat.=22.315207, lon.=103.765945, Alt.=2794.033203m. Speed=5.148000m/h.</desc>
<speed>1.430000</speed>
</trkpt>
<trkpt lat="22.315239" lon="103.765999">
<ele>2794.720703</ele>
<time>2011-04-24T07:43:23Z</time>
<desc>lat.=22.315239, lon.=103.765999, Alt.=2794.720703m. Speed=3.456000m/h.</desc>
<speed>0.960000</speed>
</trkpt>
<trkpt lat="22.315275" lon="103.766022">
<ele>2795.033203</ele>
<time>2011-04-24T07:43:28Z</time>
<desc>lat.=22.315275, lon.=103.766022, Alt.=2795.033203m. Speed=3.816000m/h.</desc>
<speed>1.060000</speed>
</trkpt>
<trkpt lat="22.315325" lon="103.766014">
<ele>2794.283203</ele>
<time>2011-04-24T07:43:33Z</time>
<desc>lat.=22.315325, lon.=103.766014, Alt.=2794.283203m. Speed=4.500000m/h.</desc>
<speed>1.250000</speed>
</trkpt>
<trkpt lat="22.315367" lon="103.765999">
<ele>2793.658203</ele>
<time>2011-04-24T07:43:38Z</time>
<desc>lat.=22.315367, lon.=103.765999, Alt.=2793.658203m. Speed=3.420000m/h.</desc>
<speed>0.950000</speed>
</trkpt>
<trkpt lat="22.315393" lon="103.765976">
<ele>2793.158203</ele>
<time>2011-04-24T07:43:43Z</time>
<desc>lat.=22.315393, lon.=103.765976, Alt.=2793.158203m. Speed=3.600000m/h.</desc>
<speed>1.000000</speed>
</trkpt>
<trkpt lat="22.315439" lon="103.765930">
<ele>2792.908203</ele>
<time>2011-04-24T07:43:48Z</time>
<desc>lat.=22.315439, lon.=103.765930, Alt.=2792.908203m. Speed=4.212000m/h.</desc>
<speed>1.170000</speed>
</trkpt>
<trkpt lat="22.315456" lon="103.765877">
<ele>2792.470703</ele>
<time>2011-04-24T07:43:53Z</time>
<desc>lat.=22.315456, lon.=103.765877, Alt.=2792.470703m. Speed=2.448000m/h.</desc>
<speed>0.680000</speed>
</trkpt>
<trkpt lat="22.315485" lon="103.765831">
<ele>2792.408203</ele>
<time>2011-04-24T07:43:58Z</time>
<desc>lat.=22.315485, lon.=103.765831, Alt.=2792.408203m. Speed=3.024000m/h.</desc>
<speed>0.840000</speed>
</trkpt>
<trkpt lat="22.315533" lon="103.765800">
<ele>2791.970703</ele>
<time>2011-04-24T07:44:03Z</time>
<desc>lat.=22.315533, lon.=103.765800, Alt.=2791.970703m. Speed=3.816000m/h.</desc>
<speed>1.060000</speed>
</trkpt>
<trkpt lat="22.315565" lon="103.765732">
<ele>2792.283203</ele>
<time>2011-04-24T07:44:08Z</time>
<desc>lat.=22.315565, lon.=103.765732, Alt.=2792.283203m. Speed=3.924000m/h.</desc>
<speed>1.090000</speed>
</trkpt>
<trkpt lat="22.315590" lon="103.765709">
<ele>2792.033203</ele>
<time>2011-04-24T07:44:13Z</time>
<desc>lat.=22.315590, lon.=103.765709, Alt.=2792.033203m. Speed=2.412000m/h.</desc>
<speed>0.670000</speed>
</trkpt>
<trkpt lat="22.315617" lon="103.765709">
<ele>2791.533203</ele>
<time>2011-04-24T07:44:18Z</time>
<desc>lat.=22.315617, lon.=103.765709, Alt.=2791.533203m. Speed=1.728000m/h.</desc>
<speed>0.480000</speed>
</trkpt>
<trkpt lat="22.315668" lon="103.765739">
<ele>2791.283203</ele>
<time>2011-04-24T07:44:23Z</time>
<desc>lat.=22.315668, lon.=103.765739, Alt.=2791.283203m. Speed=1.800000m/h.</desc>
<speed>0.500000</speed>
</trkpt>
<trkpt lat="22.315710" lon="103.765770">
<ele>2790.845703</ele>
<time>2011-04-24T07:44:28Z</time>
<desc>lat.=22.315710, lon.=103.765770, Alt.=2790.845703m. Speed=2.592000m/h.</desc>
<speed>0.720000</speed>
</trkpt>
<trkpt lat="22.315744" lon="103.765793">
<ele>2791.033203</ele>
<time>2011-04-24T07:44:33Z</time>
<desc>lat.=22.315744, lon.=103.765793, Alt.=2791.033203m. Speed=1.368000m/h.</desc>
<speed>0.380000</speed>
</trkpt>
<trkpt lat="22.315775" lon="103.765839">
<ele>2791.033203</ele>
<time>2011-04-24T07:44:38Z</time>
<desc>lat.=22.315775, lon.=103.765839, Alt.=2791.033203m. Speed=2.664000m/h.</desc>
<speed>0.740000</speed>
</trkpt>
<trkpt lat="22.315811" lon="103.765869">
<ele>2791.408203</ele>
<time>2011-04-24T07:44:43Z</time>
<desc>lat.=22.315811, lon.=103.765869, Alt.=2791.408203m. Speed=2.304000m/h.</desc>
<speed>0.640000</speed>
</trkpt>
<trkpt lat="22.315855" lon="103.765854">
<ele>2790.908203</ele>
<time>2011-04-24T07:44:48Z</time>
<desc>lat.=22.315855, lon.=103.765854, Alt.=2790.908203m. Speed=4.320000m/h.</desc>
<speed>1.200000</speed>
</trkpt>
<trkpt lat="22.315905" lon="103.765854">
<ele>2789.783203</ele>
<time>2011-04-24T07:44:53Z</time>
<desc>lat.=22.315905, lon.=103.765854, Alt.=2789.783203m. Speed=4.464000m/h.</desc>
<speed>1.240000</speed>
</trkpt>
<trkpt lat="22.315926" lon="103.765869">
<ele>2790.533203</ele>
<time>2011-04-24T07:44:58Z</time>
<desc>lat.=22.315926, lon.=103.765869, Alt.=2790.533203m. Speed=2.376000m/h.</desc>
<speed>0.660000</speed>
</trkpt>
<trkpt lat="22.315964" lon="103.765892">
<ele>2791.033203</ele>
<time>2011-04-24T07:45:03Z</time>
<desc>lat.=22.315964, lon.=103.765892, Alt.=2791.033203m. Speed=2.520000m/h.</desc>
<speed>0.700000</speed>
</trkpt>
<trkpt lat="22.315996" lon="103.765923">
<ele>2792.220703</ele>
<time>2011-04-24T07:45:08Z</time>
<desc>lat.=22.315996, lon.=103.765923, Alt.=2792.220703m. Speed=2.628000m/h.</desc>
<speed>0.730000</speed>
</trkpt>
<trkpt lat="22.316019" lon="103.765953">
<ele>2793.033203</ele>
<time>2011-04-24T07:45:13Z</time>
<desc>lat.=22.316019, lon.=103.765953, Alt.=2793.033203m. Speed=2.232000m/h.</desc>
<speed>0.620000</speed>
</trkpt>
<trkpt lat="22.316031" lon="103.765984">
<ele>2793.408203</ele>
<time>2011-04-24T07:45:18Z</time>
<desc>lat.=22.316031, lon.=103.765984, Alt.=2793.408203m. Speed=1.980000m/h.</desc>
<speed>0.550000</speed>
</trkpt>
<trkpt lat="22.316071" lon="103.766022">
<ele>2793.845703</ele>
<time>2011-04-24T07:45:23Z</time>
<desc>lat.=22.316071, lon.=103.766022, Alt.=2793.845703m. Speed=1.944000m/h.</desc>
<speed>0.540000</speed>
</trkpt>
<trkpt lat="22.316086" lon="103.766037">
<ele>2793.970703</ele>
<time>2011-04-24T07:45:28Z</time>
<desc>lat.=22.316086, lon.=103.766037, Alt.=2793.970703m. Speed=1.116000m/h.</desc>
<speed>0.310000</speed>
</trkpt>
<trkpt lat="22.316103" lon="103.766068">
<ele>2795.033203</ele>
<time>2011-04-24T07:45:33Z</time>
<desc>lat.=22.316103, lon.=103.766068, Alt.=2795.033203m. Speed=2.304000m/h.</desc>
<speed>0.640000</speed>
</trkpt>
<trkpt lat="22.316107" lon="103.766113">
<ele>2795.033203</ele>
<time>2011-04-24T07:45:38Z</time>
<desc>lat.=22.316107, lon.=103.766113, Alt.=2795.033203m. Speed=1.368000m/h.</desc>
<speed>0.380000</speed>
</trkpt>
<trkpt lat="22.316128" lon="103.766113">
<ele>2795.908203</ele>
<time>2011-04-24T07:45:43Z</time>
<desc>lat.=22.316128, lon.=103.766113, Alt.=2795.908203m. Speed=2.376000m/h.</desc>
<speed>0.660000</speed>
</trkpt>
<trkpt lat="22.316170" lon="103.766159">
<ele>2796.345703</ele>
<time>2011-04-24T07:45:48Z</time>
<desc>lat.=22.316170, lon.=103.766159, Alt.=2796.345703m. Speed=4.572000m/h.</desc>
<speed>1.270000</speed>
</trkpt>
<trkpt lat="22.316210" lon="103.766174">
<ele>2796.220703</ele>
<time>2011-04-24T07:45:53Z</time>
<desc>lat.=22.316210, lon.=103.766174, Alt.=2796.220703m. Speed=3.060000m/h.</desc>
<speed>0.850000</speed>
</trkpt>
<trkpt lat="22.316250" lon="103.766197">
<ele>2796.783203</ele>
<time>2011-04-24T07:45:58Z</time>
<desc>lat.=22.316250, lon.=103.766197, Alt.=2796.783203m. Speed=4.860000m/h.</desc>
<speed>1.350000</speed>
</trkpt>
<trkpt lat="22.316305" lon="103.766228">
<ele>2798.720703</ele>
<time>2011-04-24T07:46:03Z</time>
<desc>lat.=22.316305, lon.=103.766228, Alt.=2798.720703m. Speed=3.168000m/h.</desc>
<speed>0.880000</speed>
</trkpt>
<trkpt lat="22.316338" lon="103.766273">
<ele>2800.845703</ele>
<time>2011-04-24T07:46:08Z</time>
<desc>lat.=22.316338, lon.=103.766273, Alt.=2800.845703m. Speed=2.736000m/h.</desc>
<speed>0.760000</speed>
</trkpt>
<trkpt lat="22.316368" lon="103.766296">
<ele>2801.470703</ele>
<time>2011-04-24T07:46:13Z</time>
<desc>lat.=22.316368, lon.=103.766296, Alt.=2801.470703m. Speed=2.736000m/h.</desc>
<speed>0.760000</speed>
</trkpt>
<trkpt lat="22.316389" lon="103.766342">
<ele>2802.095703</ele>
<time>2011-04-24T07:46:18Z</time>
<desc>lat.=22.316389, lon.=103.766342, Alt.=2802.095703m. Speed=2.880000m/h.</desc>
<speed>0.800000</speed>
</trkpt>
<trkpt lat="22.316414" lon="103.766380">
<ele>2802.908203</ele>
<time>2011-04-24T07:46:23Z</time>
<desc>lat.=22.316414, lon.=103.766380, Alt.=2802.908203m. Speed=3.132000m/h.</desc>
<speed>0.870000</speed>
</trkpt>
<trkpt lat="22.316441" lon="103.766441">
<ele>2803.595703</ele>
<time>2011-04-24T07:46:28Z</time>
<desc>lat.=22.316441, lon.=103.766441, Alt.=2803.595703m. Speed=3.816000m/h.</desc>
<speed>1.060000</speed>
</trkpt>
<trkpt lat="22.316465" lon="103.766487">
<ele>2804.658203</ele>
<time>2011-04-24T07:46:33Z</time>
<desc>lat.=22.316465, lon.=103.766487, Alt.=2804.658203m. Speed=2.196000m/h.</desc>
<speed>0.610000</speed>
</trkpt>
<trkpt lat="22.316475" lon="103.766502">
<ele>2805.783203</ele>
<time>2011-04-24T07:46:38Z</time>
<desc>lat.=22.316475, lon.=103.766502, Alt.=2805.783203m. Speed=1.116000m/h.</desc>
<speed>0.310000</speed>
</trkpt>
<trkpt lat="22.316477" lon="103.766525">
<ele>2806.783203</ele>
<time>2011-04-24T07:46:43Z</time>
<desc>lat.=22.316477, lon.=103.766525, Alt.=2806.783203m. Speed=0.972000m/h.</desc>
<speed>0.270000</speed>
</trkpt>
<trkpt lat="22.316494" lon="103.766533">
<ele>2806.970703</ele>
<time>2011-04-24T07:46:48Z</time>
<desc>lat.=22.316494, lon.=103.766533, Alt.=2806.970703m. Speed=0.900000m/h.</desc>
<speed>0.250000</speed>
</trkpt>
<trkpt lat="22.316502" lon="103.766548">
<ele>2807.033203</ele>
<time>2011-04-24T07:46:53Z</time>
<desc>lat.=22.316502, lon.=103.766548, Alt.=2807.033203m. Speed=1.512000m/h.</desc>
<speed>0.420000</speed>
</trkpt>
<trkpt lat="22.316496" lon="103.766556">
<ele>2807.283203</ele>
<time>2011-04-24T07:46:58Z</time>
<desc>lat.=22.316496, lon.=103.766556, Alt.=2807.283203m. Speed=1.224000m/h.</desc>
<speed>0.340000</speed>
</trkpt>
<trkpt lat="22.316536" lon="103.766541">
<ele>2807.033203</ele>
<time>2011-04-24T07:47:03Z</time>
<desc>lat.=22.316536, lon.=103.766541, Alt.=2807.033203m. Speed=1.764000m/h.</desc>
<speed>0.490000</speed>
</trkpt>
<trkpt lat="22.316545" lon="103.766571">
<ele>2807.408203</ele>
<time>2011-04-24T07:47:08Z</time>
<desc>lat.=22.316545, lon.=103.766571, Alt.=2807.408203m. Speed=0.684000m/h.</desc>
<speed>0.190000</speed>
</trkpt>
<trkpt lat="22.316584" lon="103.766541">
<ele>2806.345703</ele>
<time>2011-04-24T07:47:13Z</time>
<desc>lat.=22.316584, lon.=103.766541, Alt.=2806.345703m. Speed=1.836000m/h.</desc>
<speed>0.510000</speed>
</trkpt>
<trkpt lat="22.316597" lon="103.766533">
<ele>2806.470703</ele>
<time>2011-04-24T07:47:18Z</time>
<desc>lat.=22.316597, lon.=103.766533, Alt.=2806.470703m. Speed=1.152000m/h.</desc>
<speed>0.320000</speed>
</trkpt>
<trkpt lat="22.316603" lon="103.766518">
<ele>2806.720703</ele>
<time>2011-04-24T07:47:23Z</time>
<desc>lat.=22.316603, lon.=103.766518, Alt.=2806.720703m. Speed=0.756000m/h.</desc>
<speed>0.210000</speed>
</trkpt>
<trkpt lat="22.316618" lon="103.766510">
<ele>2806.845703</ele>
<time>2011-04-24T07:47:28Z</time>
<desc>lat.=22.316618, lon.=103.766510, Alt.=2806.845703m. Speed=1.512000m/h.</desc>
<speed>0.420000</speed>
</trkpt>
<trkpt lat="22.316645" lon="103.766487">
<ele>2806.533203</ele>
<time>2011-04-24T07:47:33Z</time>
<desc>lat.=22.316645, lon.=103.766487, Alt.=2806.533203m. Speed=3.960000m/h.</desc>
<speed>1.100000</speed>
</trkpt>
<trkpt lat="22.316664" lon="103.766472">
<ele>2806.408203</ele>
<time>2011-04-24T07:47:38Z</time>
<desc>lat.=22.316664, lon.=103.766472, Alt.=2806.408203m. Speed=2.376000m/h.</desc>
<speed>0.660000</speed>
</trkpt>
<trkpt lat="22.316704" lon="103.766479">
<ele>2806.408203</ele>
<time>2011-04-24T07:47:43Z</time>
<desc>lat.=22.316704, lon.=103.766479, Alt.=2806.408203m. Speed=3.600000m/h.</desc>
<speed>1.000000</speed>
</trkpt>
<trkpt lat="22.316740" lon="103.766487">
<ele>2806.658203</ele>
<time>2011-04-24T07:47:48Z</time>
<desc>lat.=22.316740, lon.=103.766487, Alt.=2806.658203m. Speed=2.772000m/h.</desc>
<speed>0.770000</speed>
</trkpt>
<trkpt lat="22.316797" lon="103.766472">
<ele>2807.220703</ele>
<time>2011-04-24T07:47:53Z</time>
<desc>lat.=22.316797, lon.=103.766472, Alt.=2807.220703m. Speed=3.348000m/h.</desc>
<speed>0.930000</speed>
</trkpt>
<trkpt lat="22.316837" lon="103.766495">
<ele>2807.408203</ele>
<time>2011-04-24T07:47:58Z</time>
<desc>lat.=22.316837, lon.=103.766495, Alt.=2807.408203m. Speed=3.852000m/h.</desc>
<speed>1.070000</speed>
</trkpt>
<trkpt lat="22.316879" lon="103.766533">
<ele>2809.158203</ele>
<time>2011-04-24T07:48:03Z</time>
<desc>lat.=22.316879, lon.=103.766533, Alt.=2809.158203m. Speed=1.764000m/h.</desc>
<speed>0.490000</speed>
</trkpt>
<trkpt lat="22.316900" lon="103.766563">
<ele>2810.033203</ele>
<time>2011-04-24T07:48:08Z</time>
<desc>lat.=22.316900, lon.=103.766563, Alt.=2810.033203m. Speed=2.088000m/h.</desc>
<speed>0.580000</speed>
</trkpt>
<trkpt lat="22.316914" lon="103.766602">
<ele>2809.095703</ele>
<time>2011-04-24T07:48:13Z</time>
<desc>lat.=22.316914, lon.=103.766602, Alt.=2809.095703m. Speed=0.612000m/h.</desc>
<speed>0.170000</speed>
</trkpt>
<trkpt lat="22.316916" lon="103.766617">
<ele>2809.095703</ele>
<time>2011-04-24T07:48:18Z</time>
<desc>lat.=22.316916, lon.=103.766617, Alt.=2809.095703m. Speed=1.008000m/h.</desc>
<speed>0.280000</speed>
</trkpt>
<trkpt lat="22.316908" lon="103.766617">
<ele>2808.533203</ele>
<time>2011-04-24T07:48:23Z</time>
<desc>lat.=22.316908, lon.=103.766617, Alt.=2808.533203m. Speed=0.360000m/h.</desc>
<speed>0.100000</speed>
</trkpt>
<trkpt lat="22.316912" lon="103.766617">
<ele>2808.470703</ele>
<time>2011-04-24T07:48:28Z</time>
<desc>lat.=22.316912, lon.=103.766617, Alt.=2808.470703m. Speed=0.216000m/h.</desc>
<speed>0.060000</speed>
</trkpt>
<trkpt lat="22.316916" lon="103.766617">
<ele>2808.470703</ele>
<time>2011-04-24T07:48:33Z</time>
<desc>lat.=22.316916, lon.=103.766617, Alt.=2808.470703m. Speed=1.296000m/h.</desc>
<speed>0.360000</speed>
</trkpt>
<trkpt lat="22.316919" lon="103.766632">
<ele>2807.783203</ele>
<time>2011-04-24T07:48:38Z</time>
<desc>lat.=22.316919, lon.=103.766632, Alt.=2807.783203m. Speed=0.216000m/h.</desc>
<speed>0.060000</speed>
</trkpt>
<trkpt lat="22.316931" lon="103.766647">
<ele>2806.845703</ele>
<time>2011-04-24T07:48:43Z</time>
<desc>lat.=22.316931, lon.=103.766647, Alt.=2806.845703m. Speed=1.944000m/h.</desc>
<speed>0.540000</speed>
</trkpt>
<trkpt lat="22.316952" lon="103.766655">
<ele>2806.908203</ele>
<time>2011-04-24T07:48:48Z</time>
<desc>lat.=22.316952, lon.=103.766655, Alt.=2806.908203m. Speed=1.512000m/h.</desc>
<speed>0.420000</speed>
</trkpt>
<trkpt lat="22.316967" lon="103.766670">
<ele>2806.658203</ele>
<time>2011-04-24T07:48:53Z</time>
<desc>lat.=22.316967, lon.=103.766670, Alt.=2806.658203m. Speed=1.224000m/h.</desc>
<speed>0.340000</speed>
</trkpt>
<trkpt lat="22.316961" lon="103.766685">
<ele>2806.033203</ele>
<time>2011-04-24T07:48:58Z</time>
<desc>lat.=22.316961, lon.=103.766685, Alt.=2806.033203m. Speed=0.972000m/h.</desc>
<speed>0.270000</speed>
</trkpt>
<trkpt lat="22.316963" lon="103.766693">
<ele>2805.908203</ele>
<time>2011-04-24T07:49:03Z</time>
<desc>lat.=22.316963, lon.=103.766693, Alt.=2805.908203m. Speed=0.468000m/h.</desc>
<speed>0.130000</speed>
</trkpt>
<trkpt lat="22.316971" lon="103.766693">
<ele>2805.845703</ele>
<time>2011-04-24T07:49:08Z</time>
<desc>lat.=22.316971, lon.=103.766693, Alt.=2805.845703m. Speed=1.332000m/h.</desc>
<speed>0.370000</speed>
</trkpt>
<trkpt lat="22.316975" lon="103.766693">
<ele>2805.595703</ele>
<time>2011-04-24T07:49:13Z</time>
<desc>lat.=22.316975, lon.=103.766693, Alt.=2805.595703m. Speed=0.900000m/h.</desc>
<speed>0.250000</speed>
</trkpt>
<trkpt lat="22.317022" lon="103.766724">
<ele>2805.845703</ele>
<time>2011-04-24T07:49:18Z</time>
<desc>lat.=22.317022, lon.=103.766724, Alt.=2805.845703m. Speed=1.728000m/h.</desc>
<speed>0.480000</speed>
</trkpt>
<trkpt lat="22.317072" lon="103.766754">
<ele>2805.345703</ele>
<time>2011-04-24T07:49:23Z</time>
<desc>lat.=22.317072, lon.=103.766754, Alt.=2805.345703m. Speed=2.664000m/h.</desc>
<speed>0.740000</speed>
</trkpt>
<trkpt lat="22.317108" lon="103.766747">
<ele>2805.345703</ele>
<time>2011-04-24T07:49:28Z</time>
<desc>lat.=22.317108, lon.=103.766747, Alt.=2805.345703m. Speed=1.692000m/h.</desc>
<speed>0.470000</speed>
</trkpt>
<trkpt lat="22.317139" lon="103.766739">
<ele>2804.408203</ele>
<time>2011-04-24T07:49:33Z</time>
<desc>lat.=22.317139, lon.=103.766739, Alt.=2804.408203m. Speed=1.656000m/h.</desc>
<speed>0.460000</speed>
</trkpt>
<trkpt lat="22.317171" lon="103.766762">
<ele>2804.283203</ele>
<time>2011-04-24T07:49:38Z</time>
<desc>lat.=22.317171, lon.=103.766762, Alt.=2804.283203m. Speed=2.124000m/h.</desc>
<speed>0.590000</speed>
</trkpt>
<trkpt lat="22.317211" lon="103.766792">
<ele>2803.783203</ele>
<time>2011-04-24T07:49:43Z</time>
<desc>lat.=22.317211, lon.=103.766792, Alt.=2803.783203m. Speed=2.736000m/h.</desc>
<speed>0.760000</speed>
</trkpt>
<trkpt lat="22.317244" lon="103.766800">
<ele>2803.533203</ele>
<time>2011-04-24T07:49:48Z</time>
<desc>lat.=22.317244, lon.=103.766800, Alt.=2803.533203m. Speed=2.700000m/h.</desc>
<speed>0.750000</speed>
</trkpt>
<trkpt lat="22.317259" lon="103.766823">
<ele>2802.595703</ele>
<time>2011-04-24T07:49:53Z</time>
<desc>lat.=22.317259, lon.=103.766823, Alt.=2802.595703m. Speed=1.656000m/h.</desc>
<speed>0.460000</speed>
</trkpt>
<trkpt lat="22.317286" lon="103.766815">
<ele>2801.908203</ele>
<time>2011-04-24T07:49:58Z</time>
<desc>lat.=22.317286, lon.=103.766815, Alt.=2801.908203m. Speed=1.512000m/h.</desc>
<speed>0.420000</speed>
</trkpt>
<trkpt lat="22.317295" lon="103.766830">
<ele>2800.345703</ele>
<time>2011-04-24T07:50:03Z</time>
<desc>lat.=22.317295, lon.=103.766830, Alt.=2800.345703m. Speed=1.764000m/h.</desc>
<speed>0.490000</speed>
</trkpt>
<trkpt lat="22.317320" lon="103.766838">
<ele>2799.970703</ele>
<time>2011-04-24T07:50:08Z</time>
<desc>lat.=22.317320, lon.=103.766838, Alt.=2799.970703m. Speed=2.484000m/h.</desc>
<speed>0.690000</speed>
</trkpt>
<trkpt lat="22.317347" lon="103.766876">
<ele>2798.783203</ele>
<time>2011-04-24T07:50:13Z</time>
<desc>lat.=22.317347, lon.=103.766876, Alt.=2798.783203m. Speed=3.456000m/h.</desc>
<speed>0.960000</speed>
</trkpt>
<trkpt lat="22.317383" lon="103.766876">
<ele>2797.908203</ele>
<time>2011-04-24T07:50:18Z</time>
<desc>lat.=22.317383, lon.=103.766876, Alt.=2797.908203m. Speed=2.088000m/h.</desc>
<speed>0.580000</speed>
</trkpt>
<trkpt lat="22.317390" lon="103.766884">
<ele>2797.345703</ele>
<time>2011-04-24T07:50:23Z</time>
<desc>lat.=22.317390, lon.=103.766884, Alt.=2797.345703m. Speed=0.504000m/h.</desc>
<speed>0.140000</speed>
</trkpt>
<trkpt lat="22.317392" lon="103.766891">
<ele>2797.345703</ele>
<time>2011-04-24T07:50:28Z</time>
<desc>lat.=22.317392, lon.=103.766891, Alt.=2797.345703m. Speed=0.432000m/h.</desc>
<speed>0.120000</speed>
</trkpt>
<trkpt lat="22.317394" lon="103.766891">
<ele>2796.845703</ele>
<time>2011-04-24T07:50:33Z</time>
<desc>lat.=22.317394, lon.=103.766891, Alt.=2796.845703m. Speed=0.648000m/h.</desc>
<speed>0.180000</speed>
</trkpt>
<trkpt lat="22.317408" lon="103.766884">
<ele>2796.095703</ele>
<time>2011-04-24T07:50:38Z</time>
<desc>lat.=22.317408, lon.=103.766884, Alt.=2796.095703m. Speed=1.080000m/h.</desc>
<speed>0.300000</speed>
</trkpt>
<trkpt lat="22.317421" lon="103.766876">
<ele>2793.658203</ele>
<time>2011-04-24T07:50:43Z</time>
<desc>lat.=22.317421, lon.=103.766876, Alt.=2793.658203m. Speed=0.864000m/h.</desc>
<speed>0.240000</speed>
</trkpt>
<trkpt lat="22.317425" lon="103.766861">
<ele>2792.908203</ele>
<time>2011-04-24T07:50:48Z</time>
<desc>lat.=22.317425, lon.=103.766861, Alt.=2792.908203m. Speed=1.656000m/h.</desc>
<speed>0.460000</speed>
</trkpt>
<trkpt lat="22.317461" lon="103.766891">
<ele>2790.595703</ele>
<time>2011-04-24T07:50:53Z</time>
<desc>lat.=22.317461, lon.=103.766891, Alt.=2790.595703m. Speed=2.016000m/h.</desc>
<speed>0.560000</speed>
</trkpt>
<trkpt lat="22.317503" lon="103.766907">
<ele>2788.470703</ele>
<time>2011-04-24T07:50:58Z</time>
<desc>lat.=22.317503, lon.=103.766907, Alt.=2788.470703m. Speed=2.484000m/h.</desc>
<speed>0.690000</speed>
</trkpt>
<trkpt lat="22.317509" lon="103.766937">
<ele>2784.845703</ele>
<time>2011-04-24T07:51:03Z</time>
<desc>lat.=22.317509, lon.=103.766937, Alt.=2784.845703m. Speed=2.232000m/h.</desc>
<speed>0.620000</speed>
</trkpt>
<trkpt lat="22.317549" lon="103.766937">
<ele>2782.408203</ele>
<time>2011-04-24T07:51:08Z</time>
<desc>lat.=22.317549, lon.=103.766937, Alt.=2782.408203m. Speed=2.664000m/h.</desc>
<speed>0.740000</speed>
</trkpt>
<trkpt lat="22.317556" lon="103.766953">
<ele>2779.908203</ele>
<time>2011-04-24T07:51:13Z</time>
<desc>lat.=22.317556, lon.=103.766953, Alt.=2779.908203m. Speed=0.792000m/h.</desc>
<speed>0.220000</speed>
</trkpt>
<trkpt lat="22.317554" lon="103.766968">
<ele>2779.345703</ele>
<time>2011-04-24T07:51:18Z</time>
<desc>lat.=22.317554, lon.=103.766968, Alt.=2779.345703m. Speed=1.368000m/h.</desc>
<speed>0.380000</speed>
</trkpt>
<trkpt lat="22.317560" lon="103.766991">
<ele>2776.908203</ele>
<time>2011-04-24T07:51:23Z</time>
<desc>lat.=22.317560, lon.=103.766991, Alt.=2776.908203m. Speed=1.476000m/h.</desc>
<speed>0.410000</speed>
</trkpt>
<trkpt lat="22.317564" lon="103.766983">
<ele>2775.720703</ele>
<time>2011-04-24T07:51:28Z</time>
<desc>lat.=22.317564, lon.=103.766983, Alt.=2775.720703m. Speed=0.648000m/h.</desc>
<speed>0.180000</speed>
</trkpt>
<trkpt lat="22.317572" lon="103.766983">
<ele>2775.470703</ele>
<time>2011-04-24T07:51:33Z</time>
<desc>lat.=22.317572, lon.=103.766983, Alt.=2775.470703m. Speed=0.648000m/h.</desc>
<speed>0.180000</speed>
</trkpt>
<trkpt lat="22.317581" lon="103.766975">
<ele>2774.970703</ele>
<time>2011-04-24T07:51:38Z</time>
<desc>lat.=22.317581, lon.=103.766975, Alt.=2774.970703m. Speed=1.116000m/h.</desc>
<speed>0.310000</speed>
</trkpt>
<trkpt lat="22.317583" lon="103.766975">
<ele>2773.783203</ele>
<time>2011-04-24T07:51:43Z</time>
<desc>lat.=22.317583, lon.=103.766975, Alt.=2773.783203m. Speed=0.540000m/h.</desc>
<speed>0.150000</speed>
</trkpt>
<trkpt lat="22.317583" lon="103.766991">
<ele>2772.345703</ele>
<time>2011-04-24T07:51:48Z</time>
<desc>lat.=22.317583, lon.=103.766991, Alt.=2772.345703m. Speed=0.756000m/h.</desc>
<speed>0.210000</speed>
</trkpt>
<trkpt lat="22.317593" lon="103.766983">
<ele>2771.658203</ele>
<time>2011-04-24T07:51:53Z</time>
<desc>lat.=22.317593, lon.=103.766983, Alt.=2771.658203m. Speed=1.548000m/h.</desc>
<speed>0.430000</speed>
</trkpt>
<trkpt lat="22.317612" lon="103.766998">
<ele>2770.408203</ele>
<time>2011-04-24T07:51:58Z</time>
<desc>lat.=22.317612, lon.=103.766998, Alt.=2770.408203m. Speed=1.260000m/h.</desc>
<speed>0.350000</speed>
</trkpt>
<trkpt lat="22.317623" lon="103.766998">
<ele>2769.783203</ele>
<time>2011-04-24T07:52:03Z</time>
<desc>lat.=22.317623, lon.=103.766998, Alt.=2769.783203m. Speed=1.152000m/h.</desc>
<speed>0.320000</speed>
</trkpt>
<trkpt lat="22.317631" lon="103.766998">
<ele>2769.033203</ele>
<time>2011-04-24T07:52:08Z</time>
<desc>lat.=22.317631, lon.=103.766998, Alt.=2769.033203m. Speed=1.548000m/h.</desc>
<speed>0.430000</speed>
</trkpt>
<trkpt lat="22.317642" lon="103.767014">
<ele>2768.783203</ele>
<time>2011-04-24T07:52:13Z</time>
<desc>lat.=22.317642, lon.=103.767014, Alt.=2768.783203m. Speed=2.556000m/h.</desc>
<speed>0.710000</speed>
</trkpt>
<trkpt lat="22.317663" lon="103.767014">
<ele>2768.345703</ele>
<time>2011-04-24T07:52:18Z</time>
<desc>lat.=22.317663, lon.=103.767014, Alt.=2768.345703m. Speed=1.224000m/h.</desc>
<speed>0.340000</speed>
</trkpt>
<trkpt lat="22.317684" lon="103.767014">
<ele>2767.533203</ele>
<time>2011-04-24T07:52:23Z</time>
<desc>lat.=22.317684, lon.=103.767014, Alt.=2767.533203m. Speed=2.556000m/h.</desc>
<speed>0.710000</speed>
</trkpt>
<trkpt lat="22.317730" lon="103.766998">
<ele>2766.283203</ele>
<time>2011-04-24T07:52:28Z</time>
<desc>lat.=22.317730, lon.=103.766998, Alt.=2766.283203m. Speed=2.556000m/h.</desc>
<speed>0.710000</speed>
</trkpt>
<trkpt lat="22.317739" lon="103.767014">
<ele>2764.970703</ele>
<time>2011-04-24T07:52:33Z</time>
<desc>lat.=22.317739, lon.=103.767014, Alt.=2764.970703m. Speed=0.396000m/h.</desc>
<speed>0.110000</speed>
</trkpt>
<trkpt lat="22.317739" lon="103.767014">
<ele>2764.845703</ele>
<time>2011-04-24T07:52:38Z</time>
<desc>lat.=22.317739, lon.=103.767014, Alt.=2764.845703m. Speed=0.072000m/h.</desc>
<speed>0.020000</speed>
</trkpt>
<trkpt lat="22.317749" lon="103.767021">
<ele>2764.970703</ele>
<time>2011-04-24T07:52:43Z</time>
<desc>lat.=22.317749, lon.=103.767021, Alt.=2764.970703m. Speed=1.584000m/h.</desc>
<speed>0.440000</speed>
</trkpt>
<trkpt lat="22.317747" lon="103.767036">
<ele>2762.908203</ele>
<time>2011-04-24T07:52:48Z</time>
<desc>lat.=22.317747, lon.=103.767036, Alt.=2762.908203m. Speed=0.576000m/h.</desc>
<speed>0.160000</speed>
</trkpt>
<trkpt lat="22.317760" lon="103.767044">
<ele>2761.845703</ele>
<time>2011-04-24T07:52:53Z</time>
<desc>lat.=22.317760, lon.=103.767044, Alt.=2761.845703m. Speed=3.708000m/h.</desc>
<speed>1.030000</speed>
</trkpt>
<trkpt lat="22.317804" lon="103.767052">
<ele>2760.470703</ele>
<time>2011-04-24T07:52:58Z</time>
<desc>lat.=22.317804, lon.=103.767052, Alt.=2760.470703m. Speed=3.132000m/h.</desc>
<speed>0.870000</speed>
</trkpt>
<trkpt lat="22.317858" lon="103.767059">
<ele>2757.970703</ele>
<time>2011-04-24T07:53:03Z</time>
<desc>lat.=22.317858, lon.=103.767059, Alt.=2757.970703m. Speed=3.780000m/h.</desc>
<speed>1.050000</speed>
</trkpt>
<trkpt lat="22.317894" lon="103.767067">
<ele>2755.970703</ele>
<time>2011-04-24T07:53:08Z</time>
<desc>lat.=22.317894, lon.=103.767067, Alt.=2755.970703m. Speed=2.268000m/h.</desc>
<speed>0.630000</speed>
</trkpt>
<trkpt lat="22.317928" lon="103.767075">
<ele>2754.908203</ele>
<time>2011-04-24T07:53:13Z</time>
<desc>lat.=22.317928, lon.=103.767075, Alt.=2754.908203m. Speed=1.800000m/h.</desc>
<speed>0.500000</speed>
</trkpt>
<trkpt lat="22.317949" lon="103.767090">
<ele>2753.408203</ele>
<time>2011-04-24T07:53:18Z</time>
<desc>lat.=22.317949, lon.=103.767090, Alt.=2753.408203m. Speed=1.260000m/h.</desc>
<speed>0.350000</speed>
</trkpt>
<trkpt lat="22.317972" lon="103.767090">
<ele>2751.470703</ele>
<time>2011-04-24T07:53:23Z</time>
<desc>lat.=22.317972, lon.=103.767090, Alt.=2751.470703m. Speed=1.728000m/h.</desc>
<speed>0.480000</speed>
</trkpt>
<trkpt lat="22.317980" lon="103.767097">
<ele>2750.158203</ele>
<time>2011-04-24T07:53:28Z</time>
<desc>lat.=22.317980, lon.=103.767097, Alt.=2750.158203m. Speed=1.260000m/h.</desc>
<speed>0.350000</speed>
</trkpt>
<trkpt lat="22.318005" lon="103.767097">
<ele>2749.408203</ele>
<time>2011-04-24T07:53:33Z</time>
<desc>lat.=22.318005, lon.=103.767097, Alt.=2749.408203m. Speed=1.584000m/h.</desc>
<speed>0.440000</speed>
</trkpt>
<trkpt lat="22.318031" lon="103.767105">
<ele>2748.033203</ele>
<time>2011-04-24T07:53:38Z</time>
<desc>lat.=22.318031, lon.=103.767105, Alt.=2748.033203m. Speed=1.728000m/h.</desc>
<speed>0.480000</speed>
</trkpt>
<trkpt lat="22.318050" lon="103.767120">
<ele>2748.033203</ele>
<time>2011-04-24T07:53:43Z</time>
<desc>lat.=22.318050, lon.=103.767120, Alt.=2748.033203m. Speed=1.512000m/h.</desc>
<speed>0.420000</speed>
</trkpt>
<trkpt lat="22.318087" lon="103.767136">
<ele>2747.470703</ele>
<time>2011-04-24T07:53:48Z</time>
<desc>lat.=22.318087, lon.=103.767136, Alt.=2747.470703m. Speed=1.656000m/h.</desc>
<speed>0.460000</speed>
</trkpt>
<trkpt lat="22.318115" lon="103.767143">
<ele>2746.345703</ele>
<time>2011-04-24T07:53:53Z</time>
<desc>lat.=22.318115, lon.=103.767143, Alt.=2746.345703m. Speed=2.952000m/h.</desc>
<speed>0.820000</speed>
</trkpt>
<trkpt lat="22.318136" lon="103.767159">
<ele>2745.408203</ele>
<time>2011-04-24T07:53:58Z</time>
<desc>lat.=22.318136, lon.=103.767159, Alt.=2745.408203m. Speed=0.648000m/h.</desc>
<speed>0.180000</speed>
</trkpt>
<trkpt lat="22.318144" lon="103.767143">
<ele>2746.220703</ele>
<time>2011-04-24T07:54:03Z</time>
<desc>lat.=22.318144, lon.=103.767143, Alt.=2746.220703m. Speed=1.548000m/h.</desc>
<speed>0.430000</speed>
</trkpt>
<trkpt lat="22.318161" lon="103.767159">
<ele>2746.158203</ele>
<time>2011-04-24T07:54:08Z</time>
<desc>lat.=22.318161, lon.=103.767159, Alt.=2746.158203m. Speed=0.072000m/h.</desc>
<speed>0.020000</speed>
</trkpt>
<trkpt lat="22.318157" lon="103.767166">
<ele>2745.845703</ele>
<time>2011-04-24T07:54:13Z</time>
<desc>lat.=22.318157, lon.=103.767166, Alt.=2745.845703m. Speed=0.288000m/h.</desc>
<speed>0.080000</speed>
</trkpt>
<trkpt lat="22.318176" lon="103.767159">
<ele>2745.595703</ele>
<time>2011-04-24T07:54:18Z</time>
<desc>lat.=22.318176, lon.=103.767159, Alt.=2745.595703m. Speed=1.260000m/h.</desc>
<speed>0.350000</speed>
</trkpt>
<trkpt lat="22.318180" lon="103.767159">
<ele>2745.533203</ele>
<time>2011-04-24T07:54:23Z</time>
<desc>lat.=22.318180, lon.=103.767159, Alt.=2745.533203m. Speed=0.360000m/h.</desc>
<speed>0.100000</speed>
</trkpt>
<trkpt lat="22.318180" lon="103.767159">
<ele>2745.533203</ele>
<time>2011-04-24T07:54:28Z</time>
<desc>lat.=22.318180, lon.=103.767159, Alt.=2745.533203m. Speed=0.396000m/h.</desc>
<speed>0.110000</speed>
</trkpt>
<trkpt lat="22.318182" lon="103.767159">
<ele>2745.470703</ele>
<time>2011-04-24T07:54:33Z</time>
<desc>lat.=22.318182, lon.=103.767159, Alt.=2745.470703m. Speed=0.396000m/h.</desc>
<speed>0.110000</speed>
</trkpt>
<trkpt lat="22.318188" lon="103.767151">
<ele>2745.033203</ele>
<time>2011-04-24T07:54:38Z</time>
<desc>lat.=22.318188, lon.=103.767151, Alt.=2745.033203m. Speed=0.684000m/h.</desc>
<speed>0.190000</speed>
</trkpt>
<trkpt lat="22.318207" lon="103.767151">
<ele>2744.095703</ele>
<time>2011-04-24T07:54:43Z</time>
<desc>lat.=22.318207, lon.=103.767151, Alt.=2744.095703m. Speed=2.124000m/h.</desc>
<speed>0.590000</speed>
</trkpt>
<trkpt lat="22.318224" lon="103.767143">
<ele>2743.533203</ele>
<time>2011-04-24T07:54:48Z</time>
<desc>lat.=22.318224, lon.=103.767143, Alt.=2743.533203m. Speed=0.864000m/h.</desc>
<speed>0.240000</speed>
</trkpt>
<trkpt lat="22.318228" lon="103.767136">
<ele>2742.845703</ele>
<time>2011-04-24T07:54:53Z</time>
<desc>lat.=22.318228, lon.=103.767136, Alt.=2742.845703m. Speed=0.828000m/h.</desc>
<speed>0.230000</speed>
</trkpt>
<trkpt lat="22.318268" lon="103.767113">
<ele>2741.408203</ele>
<time>2011-04-24T07:54:58Z</time>
<desc>lat.=22.318268, lon.=103.767113, Alt.=2741.408203m. Speed=2.988000m/h.</desc>
<speed>0.830000</speed>
</trkpt>
<trkpt lat="22.318319" lon="103.767120">
<ele>2740.533203</ele>
<time>2011-04-24T07:55:03Z</time>
<desc>lat.=22.318319, lon.=103.767120, Alt.=2740.533203m. Speed=2.232000m/h.</desc>
<speed>0.620000</speed>
</trkpt>
<trkpt lat="22.318350" lon="103.767120">
<ele>2738.720703</ele>
<time>2011-04-24T07:55:08Z</time>
<desc>lat.=22.318350, lon.=103.767120, Alt.=2738.720703m. Speed=0.828000m/h.</desc>
<speed>0.230000</speed>
</trkpt>
<trkpt lat="22.318373" lon="103.767151">
<ele>2736.470703</ele>
<time>2011-04-24T07:55:13Z</time>
<desc>lat.=22.318373, lon.=103.767151, Alt.=2736.470703m. Speed=1.044000m/h.</desc>
<speed>0.290000</speed>
</trkpt>
<trkpt lat="22.318371" lon="103.767166">
<ele>2736.533203</ele>
<time>2011-04-24T07:55:18Z</time>
<desc>lat.=22.318371, lon.=103.767166, Alt.=2736.533203m. Speed=0.432000m/h.</desc>
<speed>0.120000</speed>
</trkpt>
<trkpt lat="22.318373" lon="103.767174">
<ele>2736.345703</ele>
<time>2011-04-24T07:55:23Z</time>
<desc>lat.=22.318373, lon.=103.767174, Alt.=2736.345703m. Speed=0.396000m/h.</desc>
<speed>0.110000</speed>
</trkpt>
<trkpt lat="22.318377" lon="103.767174">
<ele>2736.158203</ele>
<time>2011-04-24T07:55:28Z</time>
<desc>lat.=22.318377, lon.=103.767174, Alt.=2736.158203m. Speed=0.252000m/h.</desc>
<speed>0.070000</speed>
</trkpt>
<trkpt lat="22.318380" lon="103.767174">
<ele>2735.908203</ele>
<time>2011-04-24T07:55:33Z</time>
<desc>lat.=22.318380, lon.=103.767174, Alt.=2735.908203m. Speed=0.396000m/h.</desc>
<speed>0.110000</speed>
</trkpt>
<trkpt lat="22.318388" lon="103.767174">
<ele>2735.595703</ele>
<time>2011-04-24T07:55:38Z</time>
<desc>lat.=22.318388, lon.=103.767174, Alt.=2735.595703m. Speed=0.540000m/h.</desc>
<speed>0.150000</speed>
</trkpt>
<trkpt lat="22.318394" lon="103.767181">
<ele>2735.283203</ele>
<time>2011-04-24T07:55:43Z</time>
<desc>lat.=22.318394, lon.=103.767181, Alt.=2735.283203m. Speed=0.756000m/h.</desc>
<speed>0.210000</speed>
</trkpt>
<trkpt lat="22.318403" lon="103.767189">
<ele>2734.908203</ele>
<time>2011-04-24T07:55:48Z</time>
<desc>lat.=22.318403, lon.=103.767189, Alt.=2734.908203m. Speed=1.224000m/h.</desc>
<speed>0.340000</speed>
</trkpt>
<trkpt lat="22.318438" lon="103.767189">
<ele>2734.220703</ele>
<time>2011-04-24T07:55:53Z</time>
<desc>lat.=22.318438, lon.=103.767189, Alt.=2734.220703m. Speed=1.548000m/h.</desc>
<speed>0.430000</speed>
</trkpt>
<trkpt lat="22.318455" lon="103.767204">
<ele>2733.845703</ele>
<time>2011-04-24T07:55:58Z</time>
<desc>lat.=22.318455, lon.=103.767204, Alt.=2733.845703m. Speed=1.188000m/h.</desc>
<speed>0.330000</speed>
</trkpt>
<trkpt lat="22.318480" lon="103.767258">
<ele>2733.220703</ele>
<time>2011-04-24T07:56:03Z</time>
<desc>lat.=22.318480, lon.=103.767258, Alt.=2733.220703m. Speed=1.404000m/h.</desc>
<speed>0.390000</speed>
</trkpt>
<trkpt lat="22.318489" lon="103.767258">
<ele>2733.095703</ele>
<time>2011-04-24T07:56:08Z</time>
<desc>lat.=22.318489, lon.=103.767258, Alt.=2733.095703m. Speed=1.044000m/h.</desc>
<speed>0.290000</speed>
</trkpt>
<trkpt lat="22.318493" lon="103.767258">
<ele>2732.533203</ele>
<time>2011-04-24T07:56:13Z</time>
<desc>lat.=22.318493, lon.=103.767258, Alt.=2732.533203m. Speed=1.188000m/h.</desc>
<speed>0.330000</speed>
</trkpt>
<trkpt lat="22.318510" lon="103.767273">
<ele>2731.845703</ele>
<time>2011-04-24T07:56:18Z</time>
<desc>lat.=22.318510, lon.=103.767273, Alt.=2731.845703m. Speed=1.368000m/h.</desc>
<speed>0.380000</speed>
</trkpt>
<trkpt lat="22.318508" lon="103.767273">
<ele>2731.595703</ele>
<time>2011-04-24T07:56:23Z</time>
<desc>lat.=22.318508, lon.=103.767273, Alt.=2731.595703m. Speed=0.504000m/h.</desc>
<speed>0.140000</speed>
</trkpt>
<trkpt lat="22.318508" lon="103.767281">
<ele>2731.033203</ele>
<time>2011-04-24T07:56:28Z</time>
<desc>lat.=22.318508, lon.=103.767281, Alt.=2731.033203m. Speed=0.288000m/h.</desc>
<speed>0.080000</speed>
</trkpt>
<trkpt lat="22.318512" lon="103.767281">
<ele>2730.595703</ele>
<time>2011-04-24T07:56:33Z</time>
<desc>lat.=22.318512, lon.=103.767281, Alt.=2730.595703m. Speed=0.648000m/h.</desc>
<speed>0.180000</speed>
</trkpt>
<trkpt lat="22.318514" lon="103.767296">
<ele>2730.095703</ele>
<time>2011-04-24T07:56:38Z</time>
<desc>lat.=22.318514, lon.=103.767296, Alt.=2730.095703m. Speed=1.188000m/h.</desc>
<speed>0.330000</speed>
</trkpt>
<trkpt lat="22.318529" lon="103.767311">
<ele>2729.720703</ele>
<time>2011-04-24T07:56:43Z</time>
<desc>lat.=22.318529, lon.=103.767311, Alt.=2729.720703m. Speed=1.044000m/h.</desc>
<speed>0.290000</speed>
</trkpt>
<trkpt lat="22.318529" lon="103.767334">
<ele>2728.220703</ele>
<time>2011-04-24T07:56:48Z</time>
<desc>lat.=22.318529, lon.=103.767334, Alt.=2728.220703m. Speed=0.792000m/h.</desc>
<speed>0.220000</speed>
</trkpt>
<trkpt lat="22.318535" lon="103.767342">
<ele>2727.658203</ele>
<time>2011-04-24T07:56:53Z</time>
<desc>lat.=22.318535, lon.=103.767342, Alt.=2727.658203m. Speed=0.720000m/h.</desc>
<speed>0.200000</speed>
</trkpt>
<trkpt lat="22.318541" lon="103.767349">
<ele>2727.095703</ele>
<time>2011-04-24T07:56:58Z</time>
<desc>lat.=22.318541, lon.=103.767349, Alt.=2727.095703m. Speed=0.648000m/h.</desc>
<speed>0.180000</speed>
</trkpt>
<trkpt lat="22.318548" lon="103.767349">
<ele>2726.533203</ele>
<time>2011-04-24T07:57:03Z</time>
<desc>lat.=22.318548, lon.=103.767349, Alt.=2726.533203m. Speed=0.612000m/h.</desc>
<speed>0.170000</speed>
</trkpt>
<trkpt lat="22.318552" lon="103.767365">
<ele>2725.970703</ele>
<time>2011-04-24T07:57:08Z</time>
<desc>lat.=22.318552, lon.=103.767365, Alt.=2725.970703m. Speed=0.936000m/h.</desc>
<speed>0.260000</speed>
</trkpt>
<trkpt lat="22.318575" lon="103.767380">
<ele>2725.158203</ele>
<time>2011-04-24T07:57:13Z</time>
<desc>lat.=22.318575, lon.=103.767380, Alt.=2725.158203m. Speed=1.512000m/h.</desc>
<speed>0.420000</speed>
</trkpt>
<trkpt lat="22.318584" lon="103.767395">
<ele>2723.158203</ele>
<time>2011-04-24T07:57:18Z</time>
<desc>lat.=22.318584, lon.=103.767395, Alt.=2723.158203m. Speed=1.224000m/h.</desc>
<speed>0.340000</speed>
</trkpt>
<trkpt lat="22.318581" lon="103.767365">
<ele>2721.158203</ele>
<time>2011-04-24T07:57:23Z</time>
<desc>lat.=22.318581, lon.=103.767365, Alt.=2721.158203m. Speed=0.540000m/h.</desc>
<speed>0.150000</speed>
</trkpt>
<trkpt lat="22.318584" lon="103.767357">
<ele>2720.408203</ele>
<time>2011-04-24T07:57:28Z</time>
<desc>lat.=22.318584, lon.=103.767357, Alt.=2720.408203m. Speed=0.432000m/h.</desc>
<speed>0.120000</speed>
</trkpt>
<trkpt lat="22.318588" lon="103.767357">
<ele>2719.658203</ele>
<time>2011-04-24T07:57:33Z</time>
<desc>lat.=22.318588, lon.=103.767357, Alt.=2719.658203m. Speed=0.324000m/h.</desc>
<speed>0.090000</speed>
</trkpt>
<trkpt lat="22.318592" lon="103.767349">
<ele>2718.783203</ele>
<time>2011-04-24T07:57:38Z</time>
<desc>lat.=22.318592, lon.=103.767349, Alt.=2718.783203m. Speed=0.180000m/h.</desc>
<speed>0.050000</speed>
</trkpt>
<trkpt lat="22.318598" lon="103.767349">
<ele>2717.970703</ele>
<time>2011-04-24T07:57:43Z</time>
<desc>lat.=22.318598, lon.=103.767349, Alt.=2717.970703m. Speed=0.576000m/h.</desc>
<speed>0.160000</speed>
</trkpt>
<trkpt lat="22.318602" lon="103.767349">
<ele>2717.158203</ele>
<time>2011-04-24T07:57:48Z</time>
<desc>lat.=22.318602, lon.=103.767349, Alt.=2717.158203m. Speed=0.360000m/h.</desc>
<speed>0.100000</speed>
</trkpt>
<trkpt lat="22.318605" lon="103.767349">
<ele>2716.345703</ele>
<time>2011-04-24T07:57:53Z</time>
<desc>lat.=22.318605, lon.=103.767349, Alt.=2716.345703m. Speed=0.360000m/h.</desc>
<speed>0.100000</speed>
</trkpt>
<trkpt lat="22.318609" lon="103.767349">
<ele>2715.470703</ele>
<time>2011-04-24T07:57:58Z</time>
<desc>lat.=22.318609, lon.=103.767349, Alt.=2715.470703m. Speed=0.468000m/h.</desc>
<speed>0.130000</speed>
</trkpt>
<trkpt lat="22.318615" lon="103.767349">
<ele>2714.595703</ele>
<time>2011-04-24T07:58:03Z</time>
<desc>lat.=22.318615, lon.=103.767349, Alt.=2714.595703m. Speed=0.720000m/h.</desc>
<speed>0.200000</speed>
</trkpt>
<trkpt lat="22.318651" lon="103.767380">
<ele>2713.595703</ele>
<time>2011-04-24T07:58:08Z</time>
<desc>lat.=22.318651, lon.=103.767380, Alt.=2713.595703m. Speed=1.620000m/h.</desc>
<speed>0.450000</speed>
</trkpt>
<trkpt lat="22.318708" lon="103.767395">
<ele>2709.908203</ele>
<time>2011-04-24T07:58:13Z</time>
<desc>lat.=22.318708, lon.=103.767395, Alt.=2709.908203m. Speed=1.584000m/h.</desc>
<speed>0.440000</speed>
</trkpt>
<trkpt lat="22.318722" lon="103.767387">
<ele>2709.283203</ele>
<time>2011-04-24T07:58:18Z</time>
<desc>lat.=22.318722, lon.=103.767387, Alt.=2709.283203m. Speed=1.188000m/h.</desc>
<speed>0.330000</speed>
</trkpt>
<trkpt lat="22.318726" lon="103.767387">
<ele>2706.845703</ele>
<time>2011-04-24T07:58:23Z</time>
<desc>lat.=22.318726, lon.=103.767387, Alt.=2706.845703m. Speed=0.720000m/h.</desc>
<speed>0.200000</speed>
</trkpt>
<trkpt lat="22.318739" lon="103.767387">
<ele>2705.908203</ele>
<time>2011-04-24T07:58:28Z</time>
<desc>lat.=22.318739, lon.=103.767387, Alt.=2705.908203m. Speed=0.468000m/h.</desc>
<speed>0.130000</speed>
</trkpt>
<trkpt lat="22.318747" lon="103.767380">
<ele>2704.908203</ele>
<time>2011-04-24T07:58:33Z</time>
<desc>lat.=22.318747, lon.=103.767380, Alt.=2704.908203m. Speed=0.684000m/h.</desc>
<speed>0.190000</speed>
</trkpt>
<trkpt lat="22.318756" lon="103.767380">
<ele>2704.095703</ele>
<time>2011-04-24T07:58:38Z</time>
<desc>lat.=22.318756, lon.=103.767380, Alt.=2704.095703m. Speed=0.828000m/h.</desc>
<speed>0.230000</speed>
</trkpt>
<trkpt lat="22.318760" lon="103.767372">
<ele>2703.220703</ele>
<time>2011-04-24T07:58:43Z</time>
<desc>lat.=22.318760, lon.=103.767372, Alt.=2703.220703m. Speed=0.324000m/h.</desc>
<speed>0.090000</speed>
</trkpt>
<trkpt lat="22.318764" lon="103.767372">
<ele>2702.470703</ele>
<time>2011-04-24T07:58:48Z</time>
<desc>lat.=22.318764, lon.=103.767372, Alt.=2702.470703m. Speed=0.324000m/h.</desc>
<speed>0.090000</speed>
</trkpt>
<trkpt lat="22.318764" lon="103.767372">
<ele>2701.720703</ele>
<time>2011-04-24T07:58:53Z</time>
<desc>lat.=22.318764, lon.=103.767372, Alt.=2701.720703m. Speed=0.144000m/h.</desc>
<speed>0.040000</speed>
</trkpt>
<trkpt lat="22.318762" lon="103.767372">
<ele>2700.970703</ele>
<time>2011-04-24T07:58:58Z</time>
<desc>lat.=22.318762, lon.=103.767372, Alt.=2700.970703m. Speed=0.180000m/h.</desc>
<speed>0.050000</speed>
</trkpt>
<trkpt lat="22.318756" lon="103.767372">
<ele>2700.283203</ele>
<time>2011-04-24T07:59:03Z</time>
<desc>lat.=22.318756, lon.=103.767372, Alt.=2700.283203m. Speed=0.612000m/h.</desc>
<speed>0.170000</speed>
</trkpt>
<trkpt lat="22.318750" lon="103.767372">
<ele>2699.533203</ele>
<time>2011-04-24T07:59:08Z</time>
<desc>lat.=22.318750, lon.=103.767372, Alt.=2699.533203m. Speed=0.288000m/h.</desc>
<speed>0.080000</speed>
</trkpt>
<trkpt lat="22.318758" lon="103.767380">
<ele>2698.845703</ele>
<time>2011-04-24T07:59:13Z</time>
<desc>lat.=22.318758, lon.=103.767380, Alt.=2698.845703m. Speed=1.152000m/h.</desc>
<speed>0.320000</speed>
</trkpt>
<trkpt lat="22.318756" lon="103.767380">
<ele>2698.658203</ele>
<time>2011-04-24T07:59:18Z</time>
<desc>lat.=22.318756, lon.=103.767380, Alt.=2698.658203m. Speed=0.576000m/h.</desc>
<speed>0.160000</speed>
</trkpt>
<trkpt lat="22.318768" lon="103.767410">
<ele>2697.783203</ele>
<time>2011-04-24T07:59:23Z</time>
<desc>lat.=22.318768, lon.=103.767410, Alt.=2697.783203m. Speed=1.512000m/h.</desc>
<speed>0.420000</speed>
</trkpt>
<trkpt lat="22.318790" lon="103.767441">
<ele>2696.408203</ele>
<time>2011-04-24T07:59:28Z</time>
<desc>lat.=22.318790, lon.=103.767441, Alt.=2696.408203m. Speed=1.476000m/h.</desc>
<speed>0.410000</speed>
</trkpt>
<trkpt lat="22.318821" lon="103.767479">
<ele>2695.720703</ele>
<time>2011-04-24T07:59:33Z</time>
<desc>lat.=22.318821, lon.=103.767479, Alt.=2695.720703m. Speed=3.132000m/h.</desc>
<speed>0.870000</speed>
</trkpt>
<trkpt lat="22.318869" lon="103.767479">
<ele>2697.470703</ele>
<time>2011-04-24T07:59:38Z</time>
<desc>lat.=22.318869, lon.=103.767479, Alt.=2697.470703m. Speed=2.700000m/h.</desc>
<speed>0.750000</speed>
</trkpt>
<trkpt lat="22.318907" lon="103.767471">
<ele>2698.095703</ele>
<time>2011-04-24T07:59:43Z</time>
<desc>lat.=22.318907, lon.=103.767471, Alt.=2698.095703m. Speed=2.268000m/h.</desc>
<speed>0.630000</speed>
</trkpt>
<trkpt lat="22.318945" lon="103.767487">
<ele>2697.158203</ele>
<time>2011-04-24T07:59:48Z</time>
<desc>lat.=22.318945, lon.=103.767487, Alt.=2697.158203m. Speed=2.664000m/h.</desc>
<speed>0.740000</speed>
</trkpt>
<trkpt lat="22.318979" lon="103.767509">
<ele>2696.783203</ele>
<time>2011-04-24T07:59:53Z</time>
<desc>lat.=22.318979, lon.=103.767509, Alt.=2696.783203m. Speed=2.592000m/h.</desc>
<speed>0.720000</speed>
</trkpt>
<trkpt lat="22.319023" lon="103.767548">
<ele>2696.845703</ele>
<time>2011-04-24T07:59:58Z</time>
<desc>lat.=22.319023, lon.=103.767548, Alt.=2696.845703m. Speed=1.944000m/h.</desc>
<speed>0.540000</speed>
</trkpt>
<trkpt lat="22.319036" lon="103.767570">
<ele>2697.095703</ele>
<time>2011-04-24T08:00:03Z</time>
<desc>lat.=22.319036, lon.=103.767570, Alt.=2697.095703m. Speed=0.792000m/h.</desc>
<speed>0.220000</speed>
</trkpt>
<trkpt lat="22.319033" lon="103.767570">
<ele>2696.283203</ele>
<time>2011-04-24T08:00:08Z</time>
<desc>lat.=22.319033, lon.=103.767570, Alt.=2696.283203m. Speed=0.828000m/h.</desc>
<speed>0.230000</speed>
</trkpt>
<trkpt lat="22.319033" lon="103.767578">
<ele>2696.033203</ele>
<time>2011-04-24T08:00:13Z</time>
<desc>lat.=22.319033, lon.=103.767578, Alt.=2696.033203m. Speed=0.252000m/h.</desc>
<speed>0.070000</speed>
</trkpt>
<trkpt lat="22.319036" lon="103.767586">
<ele>2696.095703</ele>
<time>2011-04-24T08:00:18Z</time>
<desc>lat.=22.319036, lon.=103.767586, Alt.=2696.095703m. Speed=0.252000m/h.</desc>
<speed>0.070000</speed>
</trkpt>
<trkpt lat="22.319035" lon="103.767586">
<ele>2696.095703</ele>
<time>2011-04-24T08:00:23Z</time>
<desc>lat.=22.319035, lon.=103.767586, Alt.=2696.095703m. Speed=0.324000m/h.</desc>
<speed>0.090000</speed>
</trkpt>
<trkpt lat="22.319031" lon="103.767593">
<ele>2696.033203</ele>
<time>2011-04-24T08:00:28Z</time>
<desc>lat.=22.319031, lon.=103.767593, Alt.=2696.033203m. Speed=0.540000m/h.</desc>
<speed>0.150000</speed>
</trkpt>
<trkpt lat="22.319033" lon="103.767601">
<ele>2696.033203</ele>
<time>2011-04-24T08:00:33Z</time>
<desc>lat.=22.319033, lon.=103.767601, Alt.=2696.033203m. Speed=0.792000m/h.</desc>
<speed>0.220000</speed>
</trkpt>
<trkpt lat="22.319036" lon="103.767624">
<ele>2696.033203</ele>
<time>2011-04-24T08:00:38Z</time>
<desc>lat.=22.319036, lon.=103.767624, Alt.=2696.033203m. Speed=1.476000m/h.</desc>
<speed>0.410000</speed>
</trkpt>
<trkpt lat="22.319031" lon="103.767654">
<ele>2695.908203</ele>
<time>2011-04-24T08:00:43Z</time>
<desc>lat.=22.319031, lon.=103.767654, Alt.=2695.908203m. Speed=1.836000m/h.</desc>
<speed>0.510000</speed>
</trkpt>
<trkpt lat="22.319035" lon="103.767662">
<ele>2695.033203</ele>
<time>2011-04-24T08:00:48Z</time>
<desc>lat.=22.319035, lon.=103.767662, Alt.=2695.033203m. Speed=1.188000m/h.</desc>
<speed>0.330000</speed>
</trkpt>
<trkpt lat="22.319031" lon="103.767685">
<ele>2694.783203</ele>
<time>2011-04-24T08:00:53Z</time>
<desc>lat.=22.319031, lon.=103.767685, Alt.=2694.783203m. Speed=1.188000m/h.</desc>
<speed>0.330000</speed>
</trkpt>
<trkpt lat="22.319031" lon="103.767685">
<ele>2694.783203</ele>
<time>2011-04-24T08:00:58Z</time>
<desc>lat.=22.319031, lon.=103.767685, Alt.=2694.783203m. Speed=0.720000m/h.</desc>
<speed>0.200000</speed>
</trkpt>
<trkpt lat="22.319042" lon="103.767715">
<ele>2694.658203</ele>
<time>2011-04-24T08:01:03Z</time>
<desc>lat.=22.319042, lon.=103.767715, Alt.=2694.658203m. Speed=1.476000m/h.</desc>
<speed>0.410000</speed>
</trkpt>
<trkpt lat="22.319057" lon="103.767761">
<ele>2693.783203</ele>
<time>2011-04-24T08:01:08Z</time>
<desc>lat.=22.319057, lon.=103.767761, Alt.=2693.783203m. Speed=2.160000m/h.</desc>
<speed>0.600000</speed>
</trkpt>
<trkpt lat="22.319073" lon="103.767784">
<ele>2693.720703</ele>
<time>2011-04-24T08:01:13Z</time>
<desc>lat.=22.319073, lon.=103.767784, Alt.=2693.720703m. Speed=1.404000m/h.</desc>
<speed>0.390000</speed>
</trkpt>
<trkpt lat="22.319078" lon="103.767792">
<ele>2693.095703</ele>
<time>2011-04-24T08:01:18Z</time>
<desc>lat.=22.319078, lon.=103.767792, Alt.=2693.095703m. Speed=1.224000m/h.</desc>
<speed>0.340000</speed>
</trkpt>
<trkpt lat="22.319094" lon="103.767807">
<ele>2692.908203</ele>
<time>2011-04-24T08:01:23Z</time>
<desc>lat.=22.319094, lon.=103.767807, Alt.=2692.908203m. Speed=1.152000m/h.</desc>
<speed>0.320000</speed>
</trkpt>
<trkpt lat="22.319143" lon="103.767868">
<ele>2692.408203</ele>
<time>2011-04-24T08:01:28Z</time>
<desc>lat.=22.319143, lon.=103.767868, Alt.=2692.408203m. Speed=1.944000m/h.</desc>
<speed>0.540000</speed>
</trkpt>
<trkpt lat="22.319160" lon="103.767891">
<ele>2692.158203</ele>
<time>2011-04-24T08:01:33Z</time>
<desc>lat.=22.319160, lon.=103.767891, Alt.=2692.158203m. Speed=1.692000m/h.</desc>
<speed>0.470000</speed>
</trkpt>
<trkpt lat="22.319176" lon="103.767937">
<ele>2691.720703</ele>
<time>2011-04-24T08:01:38Z</time>
<desc>lat.=22.319176, lon.=103.767937, Alt.=2691.720703m. Speed=2.196000m/h.</desc>
<speed>0.610000</speed>
</trkpt>
<trkpt lat="22.319178" lon="103.767975">
<ele>2691.595703</ele>
<time>2011-04-24T08:01:43Z</time>
<desc>lat.=22.319178, lon.=103.767975, Alt.=2691.595703m. Speed=2.016000m/h.</desc>
<speed>0.560000</speed>
</trkpt>
<trkpt lat="22.319199" lon="103.768005">
<ele>2691.220703</ele>
<time>2011-04-24T08:01:48Z</time>
<desc>lat.=22.319199, lon.=103.768005, Alt.=2691.220703m. Speed=1.728000m/h.</desc>
<speed>0.480000</speed>
</trkpt>
<trkpt lat="22.319195" lon="103.768021">
<ele>2691.220703</ele>
<time>2011-04-24T08:01:53Z</time>
<desc>lat.=22.319195, lon.=103.768021, Alt.=2691.220703m. Speed=1.188000m/h.</desc>
<speed>0.330000</speed>
</trkpt>
<trkpt lat="22.319183" lon="103.768036">
<ele>2690.908203</ele>
<time>2011-04-24T08:01:58Z</time>
<desc>lat.=22.319183, lon.=103.768036, Alt.=2690.908203m. Speed=1.188000m/h.</desc>
<speed>0.330000</speed>
</trkpt>
<trkpt lat="22.319212" lon="103.768097">
<ele>2689.908203</ele>
<time>2011-04-24T08:02:03Z</time>
<desc>lat.=22.319212, lon.=103.768097, Alt.=2689.908203m. Speed=2.952000m/h.</desc>
<speed>0.820000</speed>
</trkpt>
<trkpt lat="22.319229" lon="103.768158">
<ele>2688.470703</ele>
<time>2011-04-24T08:02:08Z</time>
<desc>lat.=22.319229, lon.=103.768158, Alt.=2688.470703m. Speed=2.232000m/h.</desc>
<speed>0.620000</speed>
</trkpt>
<trkpt lat="22.319220" lon="103.768204">
<ele>2687.720703</ele>
<time>2011-04-24T08:02:13Z</time>
<desc>lat.=22.319220, lon.=103.768204, Alt.=2687.720703m. Speed=1.908000m/h.</desc>
<speed>0.530000</speed>
</trkpt>
<trkpt lat="22.319221" lon="103.768211">
<ele>2686.845703</ele>
<time>2011-04-24T08:02:18Z</time>
<desc>lat.=22.319221, lon.=103.768211, Alt.=2686.845703m. Speed=1.260000m/h.</desc>
<speed>0.350000</speed>
</trkpt>
<trkpt lat="22.319227" lon="103.768204">
<ele>2686.408203</ele>
<time>2011-04-24T08:02:23Z</time>
<desc>lat.=22.319227, lon.=103.768204, Alt.=2686.408203m. Speed=0.720000m/h.</desc>
<speed>0.200000</speed>
</trkpt>
<trkpt lat="22.319231" lon="103.768211">
<ele>2685.658203</ele>
<time>2011-04-24T08:02:28Z</time>
<desc>lat.=22.319231, lon.=103.768211, Alt.=2685.658203m. Speed=0.828000m/h.</desc>
<speed>0.230000</speed>
</trkpt>
<trkpt lat="22.319225" lon="103.768219">
<ele>2685.158203</ele>
<time>2011-04-24T08:02:33Z</time>
<desc>lat.=22.319225, lon.=103.768219, Alt.=2685.158203m. Speed=0.288000m/h.</desc>
<speed>0.080000</speed>
</trkpt>
<trkpt lat="22.319225" lon="103.768219">
<ele>2684.783203</ele>
<time>2011-04-24T08:02:38Z</time>
<desc>lat.=22.319225, lon.=103.768219, Alt.=2684.783203m. Speed=0.432000m/h.</desc>
<speed>0.120000</speed>
</trkpt>
<trkpt lat="22.319229" lon="103.768211">
<ele>2684.470703</ele>
<time>2011-04-24T08:02:43Z</time>
<desc>lat.=22.319229, lon.=103.768211, Alt.=2684.470703m. Speed=0.504000m/h.</desc>
<speed>0.140000</speed>
</trkpt>
<trkpt lat="22.319231" lon="103.768204">
<ele>2684.158203</ele>
<time>2011-04-24T08:02:48Z</time>
<desc>lat.=22.319231, lon.=103.768204, Alt.=2684.158203m. Speed=0.468000m/h.</desc>
<speed>0.130000</speed>
</trkpt>
<trkpt lat="22.319235" lon="103.768196">
<ele>2683.720703</ele>
<time>2011-04-24T08:02:53Z</time>
<desc>lat.=22.319235, lon.=103.768196, Alt.=2683.720703m. Speed=0.468000m/h.</desc>
<speed>0.130000</speed>
</trkpt>
<trkpt lat="22.319239" lon="103.768188">
<ele>2683.345703</ele>
<time>2011-04-24T08:02:58Z</time>
<desc>lat.=22.319239, lon.=103.768188, Alt.=2683.345703m. Speed=0.396000m/h.</desc>
<speed>0.110000</speed>
</trkpt>
<trkpt lat="22.319242" lon="103.768188">
<ele>2682.845703</ele>
<time>2011-04-24T08:03:03Z</time>
<desc>lat.=22.319242, lon.=103.768188, Alt.=2682.845703m. Speed=0.648000m/h.</desc>
<speed>0.180000</speed>
</trkpt>
<trkpt lat="22.319244" lon="103.768173">
<ele>2682.345703</ele>
<time>2011-04-24T08:03:08Z</time>
<desc>lat.=22.319244, lon.=103.768173, Alt.=2682.345703m. Speed=0.864000m/h.</desc>
<speed>0.240000</speed>
</trkpt>
<trkpt lat="22.319248" lon="103.768166">
<ele>2681.845703</ele>
<time>2011-04-24T08:03:13Z</time>
<desc>lat.=22.319248, lon.=103.768166, Alt.=2681.845703m. Speed=0.972000m/h.</desc>
<speed>0.270000</speed>
</trkpt>
<trkpt lat="22.319250" lon="103.768150">
<ele>2681.283203</ele>
<time>2011-04-24T08:03:18Z</time>
<desc>lat.=22.319250, lon.=103.768150, Alt.=2681.283203m. Speed=0.612000m/h.</desc>
<speed>0.170000</speed>
</trkpt>
<trkpt lat="22.319254" lon="103.768150">
<ele>2680.720703</ele>
<time>2011-04-24T08:03:23Z</time>
<desc>lat.=22.319254, lon.=103.768150, Alt.=2680.720703m. Speed=0.828000m/h.</desc>
<speed>0.230000</speed>
</trkpt>
<trkpt lat="22.319263" lon="103.768158">
<ele>2680.033203</ele>
<time>2011-04-24T08:03:28Z</time>
<desc>lat.=22.319263, lon.=103.768158, Alt.=2680.033203m. Speed=0.936000m/h.</desc>
<speed>0.260000</speed>
</trkpt>
<trkpt lat="22.319269" lon="103.768166">
<ele>2679.345703</ele>
<time>2011-04-24T08:03:33Z</time>
<desc>lat.=22.319269, lon.=103.768166, Alt.=2679.345703m. Speed=0.720000m/h.</desc>
<speed>0.200000</speed>
</trkpt>
<trkpt lat="22.319269" lon="103.768173">
<ele>2678.783203</ele>
<time>2011-04-24T08:03:38Z</time>
<desc>lat.=22.319269, lon.=103.768173, Alt.=2678.783203m. Speed=0.684000m/h.</desc>
<speed>0.190000</speed>
</trkpt>
<trkpt lat="22.319288" lon="103.768173">
<ele>2678.283203</ele>
<time>2011-04-24T08:03:43Z</time>
<desc>lat.=22.319288, lon.=103.768173, Alt.=2678.283203m. Speed=1.656000m/h.</desc>
<speed>0.460000</speed>
</trkpt>
<trkpt lat="22.319313" lon="103.768166">
<ele>2677.470703</ele>
<time>2011-04-24T08:03:48Z</time>
<desc>lat.=22.319313, lon.=103.768166, Alt.=2677.470703m. Speed=1.296000m/h.</desc>
<speed>0.360000</speed>
</trkpt>
<trkpt lat="22.319315" lon="103.768173">
<ele>2677.158203</ele>
<time>2011-04-24T08:03:53Z</time>
<desc>lat.=22.319315, lon.=103.768173, Alt.=2677.158203m. Speed=0.432000m/h.</desc>
<speed>0.120000</speed>
</trkpt>
<trkpt lat="22.319321" lon="103.768173">
<ele>2676.970703</ele>
<time>2011-04-24T08:03:58Z</time>
<desc>lat.=22.319321, lon.=103.768173, Alt.=2676.970703m. Speed=0.468000m/h.</desc>
<speed>0.130000</speed>
</trkpt>
<trkpt lat="22.319328" lon="103.768181">
<ele>2676.783203</ele>
<time>2011-04-24T08:04:03Z</time>
<desc>lat.=22.319328, lon.=103.768181, Alt.=2676.783203m. Speed=0.972000m/h.</desc>
<speed>0.270000</speed>
</trkpt>
<trkpt lat="22.319345" lon="103.768204">
<ele>2675.845703</ele>
<time>2011-04-24T08:04:08Z</time>
<desc>lat.=22.319345, lon.=103.768204, Alt.=2675.845703m. Speed=1.476000m/h.</desc>
<speed>0.410000</speed>
</trkpt>
<trkpt lat="22.319365" lon="103.768227">
<ele>2675.595703</ele>
<time>2011-04-24T08:04:13Z</time>
<desc>lat.=22.319365, lon.=103.768227, Alt.=2675.595703m. Speed=1.224000m/h.</desc>
<speed>0.340000</speed>
</trkpt>
<trkpt lat="22.319372" lon="103.768242">
<ele>2675.408203</ele>
<time>2011-04-24T08:04:18Z</time>
<desc>lat.=22.319372, lon.=103.768242, Alt.=2675.408203m. Speed=1.116000m/h.</desc>
<speed>0.310000</speed>
</trkpt>
<trkpt lat="22.319376" lon="103.768272">
<ele>2674.595703</ele>
<time>2011-04-24T08:04:23Z</time>
<desc>lat.=22.319376, lon.=103.768272, Alt.=2674.595703m. Speed=1.116000m/h.</desc>
<speed>0.310000</speed>
</trkpt>
<trkpt lat="22.319399" lon="103.768303">
<ele>2674.345703</ele>
<time>2011-04-24T08:04:28Z</time>
<desc>lat.=22.319399, lon.=103.768303, Alt.=2674.345703m. Speed=1.548000m/h.</desc>
<speed>0.430000</speed>
</trkpt>
<trkpt lat="22.319384" lon="103.768326">
<ele>2674.283203</ele>
<time>2011-04-24T08:04:33Z</time>
<desc>lat.=22.319384, lon.=103.768326, Alt.=2674.283203m. Speed=1.188000m/h.</desc>
<speed>0.330000</speed>
</trkpt>
<trkpt lat="22.319399" lon="103.768318">
<ele>2673.033203</ele>
<time>2011-04-24T08:04:38Z</time>
<desc>lat.=22.319399, lon.=103.768318, Alt.=2673.033203m. Speed=1.512000m/h.</desc>
<speed>0.420000</speed>
</trkpt>
<trkpt lat="22.319422" lon="103.768341">
<ele>2671.845703</ele>
<time>2011-04-24T08:04:43Z</time>
<desc>lat.=22.319422, lon.=103.768341, Alt.=2671.845703m. Speed=1.800000m/h.</desc>
<speed>0.500000</speed>
</trkpt>
<trkpt lat="22.319441" lon="103.768333">
<ele>2670.408203</ele>
<time>2011-04-24T08:04:48Z</time>
<desc>lat.=22.319441, lon.=103.768333, Alt.=2670.408203m. Speed=1.260000m/h.</desc>
<speed>0.350000</speed>
</trkpt>
<trkpt lat="22.319452" lon="103.768356">
<ele>2668.345703</ele>
<time>2011-04-24T08:04:53Z</time>
<desc>lat.=22.319452, lon.=103.768356, Alt.=2668.345703m. Speed=0.900000m/h.</desc>
<speed>0.250000</speed>
</trkpt>
<trkpt lat="22.319464" lon="103.768364">
<ele>2666.783203</ele>
<time>2011-04-24T08:04:58Z</time>
<desc>lat.=22.319464, lon.=103.768364, Alt.=2666.783203m. Speed=1.116000m/h.</desc>
<speed>0.310000</speed>
</trkpt>
<trkpt lat="22.319473" lon="103.768394">
<ele>2665.345703</ele>
<time>2011-04-24T08:05:03Z</time>
<desc>lat.=22.319473, lon.=103.768394, Alt.=2665.345703m. Speed=1.440000m/h.</desc>
<speed>0.400000</speed>
</trkpt>
<trkpt lat="22.319481" lon="103.768417">
<ele>2663.908203</ele>
<time>2011-04-24T08:05:08Z</time>
<desc>lat.=22.319481, lon.=103.768417, Alt.=2663.908203m. Speed=1.404000m/h.</desc>
<speed>0.390000</speed>
</trkpt>
<trkpt lat="22.319473" lon="103.768448">
<ele>2661.908203</ele>
<time>2011-04-24T08:05:13Z</time>
<desc>lat.=22.319473, lon.=103.768448, Alt.=2661.908203m. Speed=1.044000m/h.</desc>
<speed>0.290000</speed>
</trkpt>
<trkpt lat="22.319479" lon="103.768463">
<ele>2660.345703</ele>
<time>2011-04-24T08:05:18Z</time>
<desc>lat.=22.319479, lon.=103.768463, Alt.=2660.345703m. Speed=0.972000m/h.</desc>
<speed>0.270000</speed>
</trkpt>
<trkpt lat="22.319483" lon="103.768471">
<ele>2659.345703</ele>
<time>2011-04-24T08:05:23Z</time>
<desc>lat.=22.319483, lon.=103.768471, Alt.=2659.345703m. Speed=0.864000m/h.</desc>
<speed>0.240000</speed>
</trkpt>
<trkpt lat="22.319477" lon="103.768509">
<ele>2657.658203</ele>
<time>2011-04-24T08:05:28Z</time>
<desc>lat.=22.319477, lon.=103.768509, Alt.=2657.658203m. Speed=1.944000m/h.</desc>
<speed>0.540000</speed>
</trkpt>
<trkpt lat="22.319471" lon="103.768547">
<ele>2656.783203</ele>
<time>2011-04-24T08:05:33Z</time>
<desc>lat.=22.319471, lon.=103.768547, Alt.=2656.783203m. Speed=3.492000m/h.</desc>
<speed>0.970000</speed>
</trkpt>
<trkpt lat="22.319508" lon="103.768600">
<ele>2655.783203</ele>
<time>2011-04-24T08:05:38Z</time>
<desc>lat.=22.319508, lon.=103.768600, Alt.=2655.783203m. Speed=3.276000m/h.</desc>
<speed>0.910000</speed>
</trkpt>
<trkpt lat="22.319525" lon="103.768623">
<ele>2654.595703</ele>
<time>2011-04-24T08:05:43Z</time>
<desc>lat.=22.319525, lon.=103.768623, Alt.=2654.595703m. Speed=1.800000m/h.</desc>
<speed>0.500000</speed>
</trkpt>
<trkpt lat="22.319544" lon="103.768654">
<ele>2652.533203</ele>
<time>2011-04-24T08:05:48Z</time>
<desc>lat.=22.319544, lon.=103.768654, Alt.=2652.533203m. Speed=3.276000m/h.</desc>
<speed>0.910000</speed>
</trkpt>
<trkpt lat="22.319565" lon="103.768692">
<ele>2652.845703</ele>
<time>2011-04-24T08:05:53Z</time>
<desc>lat.=22.319565, lon.=103.768692, Alt.=2652.845703m. Speed=1.656000m/h.</desc>
<speed>0.460000</speed>
</trkpt>
<trkpt lat="22.319592" lon="103.768700">
<ele>2652.658203</ele>
<time>2011-04-24T08:05:58Z</time>
<desc>lat.=22.319592, lon.=103.768700, Alt.=2652.658203m. Speed=3.996000m/h.</desc>
<speed>1.110000</speed>
</trkpt>
<trkpt lat="22.319637" lon="103.768715">
<ele>2652.908203</ele>
<time>2011-04-24T08:06:03Z</time>
<desc>lat.=22.319637, lon.=103.768715, Alt.=2652.908203m. Speed=1.404000m/h.</desc>
<speed>0.390000</speed>
</trkpt>
<trkpt lat="22.319660" lon="103.768753">
<ele>2654.095703</ele>
<time>2011-04-24T08:06:08Z</time>
<desc>lat.=22.319660, lon.=103.768753, Alt.=2654.095703m. Speed=1.656000m/h.</desc>
<speed>0.460000</speed>
</trkpt>
<trkpt lat="22.319677" lon="103.768784">
<ele>2654.908203</ele>
<time>2011-04-24T08:06:13Z</time>
<desc>lat.=22.319677, lon.=103.768784, Alt.=2654.908203m. Speed=1.584000m/h.</desc>
<speed>0.440000</speed>
</trkpt>
<trkpt lat="22.319687" lon="103.768814">
<ele>2655.158203</ele>
<time>2011-04-24T08:06:18Z</time>
<desc>lat.=22.319687, lon.=103.768814, Alt.=2655.158203m. Speed=2.376000m/h.</desc>
<speed>0.660000</speed>
</trkpt>
<trkpt lat="22.319706" lon="103.768837">
<ele>2656.158203</ele>
<time>2011-04-24T08:06:23Z</time>
<desc>lat.=22.319706, lon.=103.768837, Alt.=2656.158203m. Speed=1.728000m/h.</desc>
<speed>0.480000</speed>
</trkpt>
<trkpt lat="22.319698" lon="103.768845">
<ele>2657.408203</ele>
<time>2011-04-24T08:06:28Z</time>
<desc>lat.=22.319698, lon.=103.768845, Alt.=2657.408203m. Speed=2.304000m/h.</desc>
<speed>0.640000</speed>
</trkpt>
<trkpt lat="22.319700" lon="103.768898">
<ele>2658.470703</ele>
<time>2011-04-24T08:06:33Z</time>
<desc>lat.=22.319700, lon.=103.768898, Alt.=2658.470703m. Speed=2.772000m/h.</desc>
<speed>0.770000</speed>
</trkpt>
<trkpt lat="22.319704" lon="103.768913">
<ele>2658.908203</ele>
<time>2011-04-24T08:06:38Z</time>
<desc>lat.=22.319704, lon.=103.768913, Alt.=2658.908203m. Speed=1.476000m/h.</desc>
<speed>0.410000</speed>
</trkpt>
<trkpt lat="22.319702" lon="103.768913">
<ele>2660.033203</ele>
<time>2011-04-24T08:06:43Z</time>
<desc>lat.=22.319702, lon.=103.768913, Alt.=2660.033203m. Speed=0.684000m/h.</desc>
<speed>0.190000</speed>
</trkpt>
<trkpt lat="22.319712" lon="103.768921">
<ele>2660.908203</ele>
<time>2011-04-24T08:06:48Z</time>
<desc>lat.=22.319712, lon.=103.768921, Alt.=2660.908203m. Speed=3.636000m/h.</desc>
<speed>1.010000</speed>
</trkpt>
<trkpt lat="22.319733" lon="103.768982">
<ele>2660.720703</ele>
<time>2011-04-24T08:06:53Z</time>
<desc>lat.=22.319733, lon.=103.768982, Alt.=2660.720703m. Speed=3.744000m/h.</desc>
<speed>1.040000</speed>
</trkpt>
<trkpt lat="22.319708" lon="103.769035">
<ele>2660.095703</ele>
<time>2011-04-24T08:06:58Z</time>
<desc>lat.=22.319708, lon.=103.769035, Alt.=2660.095703m. Speed=2.448000m/h.</desc>
<speed>0.680000</speed>
</trkpt>
<trkpt lat="22.319683" lon="103.769066">
<ele>2660.220703</ele>
<time>2011-04-24T08:07:03Z</time>
<desc>lat.=22.319683, lon.=103.769066, Alt.=2660.220703m. Speed=2.052000m/h.</desc>
<speed>0.570000</speed>
</trkpt>
<trkpt lat="22.319664" lon="103.769112">
<ele>2659.658203</ele>
<time>2011-04-24T08:07:08Z</time>
<desc>lat.=22.319664, lon.=103.769112, Alt.=2659.658203m. Speed=1.836000m/h.</desc>
<speed>0.510000</speed>
</trkpt>
<trkpt lat="22.319668" lon="103.769119">
<ele>2660.283203</ele>
<time>2011-04-24T08:07:13Z</time>
<desc>lat.=22.319668, lon.=103.769119, Alt.=2660.283203m. Speed=1.080000m/h.</desc>
<speed>0.300000</speed>
</trkpt>
<trkpt lat="22.319675" lon="103.769180">
<ele>2660.158203</ele>
<time>2011-04-24T08:07:18Z</time>
<desc>lat.=22.319675, lon.=103.769180, Alt.=2660.158203m. Speed=3.924000m/h.</desc>
<speed>1.090000</speed>
</trkpt>
<trkpt lat="22.319670" lon="103.769218">
<ele>2660.033203</ele>
<time>2011-04-24T08:07:23Z</time>
<desc>lat.=22.319670, lon.=103.769218, Alt.=2660.033203m. Speed=1.404000m/h.</desc>
<speed>0.390000</speed>
</trkpt>
<trkpt lat="22.319664" lon="103.769218">
<ele>2660.533203</ele>
<time>2011-04-24T08:07:28Z</time>
<desc>lat.=22.319664, lon.=103.769218, Alt.=2660.533203m. Speed=0.144000m/h.</desc>
<speed>0.040000</speed>
</trkpt>
<trkpt lat="22.319666" lon="103.769218">
<ele>2660.470703</ele>
<time>2011-04-24T08:07:33Z</time>
<desc>lat.=22.319666, lon.=103.769218, Alt.=2660.470703m. Speed=0.036000m/h.</desc>
<speed>0.010000</speed>
</trkpt>
<trkpt lat="22.319666" lon="103.769218">
<ele>2660.470703</ele>
<time>2011-04-24T08:07:38Z</time>
<desc>lat.=22.319666, lon.=103.769218, Alt.=2660.470703m. Speed=0.216000m/h.</desc>
<speed>0.060000</speed>
</trkpt>
<trkpt lat="22.319672" lon="103.769226">
<ele>2660.408203</ele>
<time>2011-04-24T08:07:43Z</time>
<desc>lat.=22.319672, lon.=103.769226, Alt.=2660.408203m. Speed=1.152000m/h.</desc>
<speed>0.320000</speed>
</trkpt>
<trkpt lat="22.319683" lon="103.769226">
<ele>2659.908203</ele>
<time>2011-04-24T08:07:48Z</time>
<desc>lat.=22.319683, lon.=103.769226, Alt.=2659.908203m. Speed=1.152000m/h.</desc>
<speed>0.320000</speed>
</trkpt>
<trkpt lat="22.319704" lon="103.769249">
<ele>2658.783203</ele>
<time>2011-04-24T08:07:53Z</time>
<desc>lat.=22.319704, lon.=103.769249, Alt.=2658.783203m. Speed=3.132000m/h.</desc>
<speed>0.870000</speed>
</trkpt>
<trkpt lat="22.319710" lon="103.769287">
<ele>2658.345703</ele>
<time>2011-04-24T08:07:58Z</time>
<desc>lat.=22.319710, lon.=103.769287, Alt.=2658.345703m. Speed=1.008000m/h.</desc>
<speed>0.280000</speed>
</trkpt>
<trkpt lat="22.319710" lon="103.769295">
<ele>2658.345703</ele>
<time>2011-04-24T08:08:03Z</time>
<desc>lat.=22.319710, lon.=103.769295, Alt.=2658.345703m. Speed=1.224000m/h.</desc>
<speed>0.340000</speed>
</trkpt>
<trkpt lat="22.319725" lon="103.769295">
<ele>2657.970703</ele>
<time>2011-04-24T08:08:08Z</time>
<desc>lat.=22.319725, lon.=103.769295, Alt.=2657.970703m. Speed=2.664000m/h.</desc>
<speed>0.740000</speed>
</trkpt>
<trkpt lat="22.319731" lon="103.769310">
<ele>2657.720703</ele>
<time>2011-04-24T08:08:13Z</time>
<desc>lat.=22.319731, lon.=103.769310, Alt.=2657.720703m. Speed=0.468000m/h.</desc>
<speed>0.130000</speed>
</trkpt>
<trkpt lat="22.319733" lon="103.769341">
<ele>2657.408203</ele>
<time>2011-04-24T08:08:18Z</time>
<desc>lat.=22.319733, lon.=103.769341, Alt.=2657.408203m. Speed=1.260000m/h.</desc>
<speed>0.350000</speed>
</trkpt>
<trkpt lat="22.319729" lon="103.769341">
<ele>2656.970703</ele>
<time>2011-04-24T08:08:23Z</time>
<desc>lat.=22.319729, lon.=103.769341, Alt.=2656.970703m. Speed=0.720000m/h.</desc>
<speed>0.200000</speed>
</trkpt>
<trkpt lat="22.319727" lon="103.769348">
<ele>2656.720703</ele>
<time>2011-04-24T08:08:28Z</time>
<desc>lat.=22.319727, lon.=103.769348, Alt.=2656.720703m. Speed=0.396000m/h.</desc>
<speed>0.110000</speed>
</trkpt>
<trkpt lat="22.319725" lon="103.769341">
<ele>2656.783203</ele>
<time>2011-04-24T08:08:33Z</time>
<desc>lat.=22.319725, lon.=103.769341, Alt.=2656.783203m. Speed=0.468000m/h.</desc>
<speed>0.130000</speed>
</trkpt>
<trkpt lat="22.319727" lon="103.769333">
<ele>2656.783203</ele>
<time>2011-04-24T08:08:38Z</time>
<desc>lat.=22.319727, lon.=103.769333, Alt.=2656.783203m. Speed=0.360000m/h.</desc>
<speed>0.100000</speed>
</trkpt>
<trkpt lat="22.319731" lon="103.769333">
<ele>2656.720703</ele>
<time>2011-04-24T08:08:43Z</time>
<desc>lat.=22.319731, lon.=103.769333, Alt.=2656.720703m. Speed=1.908000m/h.</desc>
<speed>0.530000</speed>
</trkpt>
<trkpt lat="22.319742" lon="103.769333">
<ele>2656.908203</ele>
<time>2011-04-24T08:08:48Z</time>
<desc>lat.=22.319742, lon.=103.769333, Alt.=2656.908203m. Speed=0.792000m/h.</desc>
<speed>0.220000</speed>
</trkpt>
<trkpt lat="22.319746" lon="103.769325">
<ele>2657.033203</ele>
<time>2011-04-24T08:08:53Z</time>
<desc>lat.=22.319746, lon.=103.769325, Alt.=2657.033203m. Speed=0.396000m/h.</desc>
<speed>0.110000</speed>
</trkpt>
<trkpt lat="22.319746" lon="103.769325">
<ele>2657.158203</ele>
<time>2011-04-24T08:08:58Z</time>
<desc>lat.=22.319746, lon.=103.769325, Alt.=2657.158203m. Speed=0.108000m/h.</desc>
<speed>0.030000</speed>
</trkpt>
<trkpt lat="22.319750" lon="103.769325">
<ele>2657.220703</ele>
<time>2011-04-24T08:09:03Z</time>
<desc>lat.=22.319750, lon.=103.769325, Alt.=2657.220703m. Speed=0.900000m/h.</desc>
<speed>0.250000</speed>
</trkpt>
<trkpt lat="22.319757" lon="103.769333">
<ele>2657.220703</ele>
<time>2011-04-24T08:09:08Z</time>
<desc>lat.=22.319757, lon.=103.769333, Alt.=2657.220703m. Speed=0.720000m/h.</desc>
<speed>0.200000</speed>
</trkpt>
<trkpt lat="22.319761" lon="103.769341">
<ele>2657.158203</ele>
<time>2011-04-24T08:09:13Z</time>
<desc>lat.=22.319761, lon.=103.769341, Alt.=2657.158203m. Speed=0.720000m/h.</desc>
<speed>0.200000</speed>
</trkpt>
<trkpt lat="22.319759" lon="103.769348">
<ele>2657.158203</ele>
<time>2011-04-24T08:09:18Z</time>
<desc>lat.=22.319759, lon.=103.769348, Alt.=2657.158203m. Speed=0.252000m/h.</desc>
<speed>0.070000</speed>
</trkpt>
<trkpt lat="22.319763" lon="103.769356">
<ele>2657.033203</ele>
<time>2011-04-24T08:09:23Z</time>
<desc>lat.=22.319763, lon.=103.769356, Alt.=2657.033203m. Speed=1.116000m/h.</desc>
<speed>0.310000</speed>
</trkpt>
<trkpt lat="22.319773" lon="103.769371">
<ele>2657.033203</ele>
<time>2011-04-24T08:09:28Z</time>
<desc>lat.=22.319773, lon.=103.769371, Alt.=2657.033203m. Speed=1.224000m/h.</desc>
<speed>0.340000</speed>
</trkpt>
<trkpt lat="22.319765" lon="103.769402">
<ele>2657.533203</ele>
<time>2011-04-24T08:09:33Z</time>
<desc>lat.=22.319765, lon.=103.769402, Alt.=2657.533203m. Speed=1.296000m/h.</desc>
<speed>0.360000</speed>
</trkpt>
<trkpt lat="22.319775" lon="103.769417">
<ele>2657.720703</ele>
<time>2011-04-24T08:09:38Z</time>
<desc>lat.=22.319775, lon.=103.769417, Alt.=2657.720703m. Speed=1.152000m/h.</desc>
<speed>0.320000</speed>
</trkpt>
<trkpt lat="22.319811" lon="103.769463">
<ele>2658.408203</ele>
<time>2011-04-24T08:09:43Z</time>
<desc>lat.=22.319811, lon.=103.769463, Alt.=2658.408203m. Speed=1.476000m/h.</desc>
<speed>0.410000</speed>
</trkpt>
<trkpt lat="22.319834" lon="103.769501">
<ele>2658.158203</ele>
<time>2011-04-24T08:09:48Z</time>
<desc>lat.=22.319834, lon.=103.769501, Alt.=2658.158203m. Speed=1.692000m/h.</desc>
<speed>0.470000</speed>
</trkpt>
<trkpt lat="22.319817" lon="103.769539">
<ele>2659.158203</ele>
<time>2011-04-24T08:09:53Z</time>
<desc>lat.=22.319817, lon.=103.769539, Alt.=2659.158203m. Speed=1.692000m/h.</desc>
<speed>0.470000</speed>
</trkpt>
<trkpt lat="22.319811" lon="103.769562">
<ele>2659.783203</ele>
<time>2011-04-24T08:09:58Z</time>
<desc>lat.=22.319811, lon.=103.769562, Alt.=2659.783203m. Speed=1.476000m/h.</desc>
<speed>0.410000</speed>
</trkpt>
<trkpt lat="22.319824" lon="103.769562">
<ele>2660.158203</ele>
<time>2011-04-24T08:10:03Z</time>
<desc>lat.=22.319824, lon.=103.769562, Alt.=2660.158203m. Speed=0.972000m/h.</desc>
<speed>0.270000</speed>
</trkpt>
<trkpt lat="22.319832" lon="103.769569">
<ele>2660.345703</ele>
<time>2011-04-24T08:10:08Z</time>
<desc>lat.=22.319832, lon.=103.769569, Alt.=2660.345703m. Speed=0.828000m/h.</desc>
<speed>0.230000</speed>
</trkpt>
<trkpt lat="22.319836" lon="103.769577">
<ele>2660.595703</ele>
<time>2011-04-24T08:10:13Z</time>
<desc>lat.=22.319836, lon.=103.769577, Alt.=2660.595703m. Speed=0.684000m/h.</desc>
<speed>0.190000</speed>
</trkpt>
<trkpt lat="22.319841" lon="103.769585">
<ele>2660.783203</ele>
<time>2011-04-24T08:10:18Z</time>
<desc>lat.=22.319841, lon.=103.769585, Alt.=2660.783203m. Speed=0.792000m/h.</desc>
<speed>0.220000</speed>
</trkpt>
<trkpt lat="22.319851" lon="103.769592">
<ele>2661.033203</ele>
<time>2011-04-24T08:10:23Z</time>
<desc>lat.=22.319851, lon.=103.769592, Alt.=2661.033203m. Speed=0.576000m/h.</desc>
<speed>0.160000</speed>
</trkpt>
<trkpt lat="22.319859" lon="103.769592">
<ele>2661.220703</ele>
<time>2011-04-24T08:10:28Z</time>
<desc>lat.=22.319859, lon.=103.769592, Alt.=2661.220703m. Speed=0.540000m/h.</desc>
<speed>0.150000</speed>
</trkpt>
<trkpt lat="22.319864" lon="103.769592">
<ele>2661.408203</ele>
<time>2011-04-24T08:10:33Z</time>
<desc>lat.=22.319864, lon.=103.769592, Alt.=2661.408203m. Speed=0.288000m/h.</desc>
<speed>0.080000</speed>
</trkpt>
<trkpt lat="22.319870" lon="103.769592">
<ele>2661.533203</ele>
<time>2011-04-24T08:10:38Z</time>
<desc>lat.=22.319870, lon.=103.769592, Alt.=2661.533203m. Speed=0.468000m/h.</desc>
<speed>0.130000</speed>
</trkpt>
<trkpt lat="22.319874" lon="103.769600">
<ele>2661.720703</ele>
<time>2011-04-24T08:10:43Z</time>
<desc>lat.=22.319874, lon.=103.769600, Alt.=2661.720703m. Speed=0.504000m/h.</desc>
<speed>0.140000</speed>
</trkpt>
<trkpt lat="22.319897" lon="103.769600">
<ele>2662.220703</ele>
<time>2011-04-24T08:10:48Z</time>
<desc>lat.=22.319897, lon.=103.769600, Alt.=2662.220703m. Speed=1.332000m/h.</desc>
<speed>0.370000</speed>
</trkpt>
<trkpt lat="22.319921" lon="103.769600">
<ele>2662.158203</ele>
<time>2011-04-24T08:10:53Z</time>
<desc>lat.=22.319921, lon.=103.769600, Alt.=2662.158203m. Speed=1.080000m/h.</desc>
<speed>0.300000</speed>
</trkpt>
<trkpt lat="22.319929" lon="103.769615">
<ele>2661.658203</ele>
<time>2011-04-24T08:10:58Z</time>
<desc>lat.=22.319929, lon.=103.769615, Alt.=2661.658203m. Speed=1.044000m/h.</desc>
<speed>0.290000</speed>
</trkpt>
<trkpt lat="22.319973" lon="103.769646">
<ele>2659.783203</ele>
<time>2011-04-24T08:11:03Z</time>
<desc>lat.=22.319973, lon.=103.769646, Alt.=2659.783203m. Speed=1.404000m/h.</desc>
<speed>0.390000</speed>
</trkpt>
<trkpt lat="22.320026" lon="103.769615">
<ele>2658.783203</ele>
<time>2011-04-24T08:11:08Z</time>
<desc>lat.=22.320026, lon.=103.769615, Alt.=2658.783203m. Speed=1.836000m/h.</desc>
<speed>0.510000</speed>
</trkpt>
<trkpt lat="22.320034" lon="103.769638">
<ele>2657.908203</ele>
<time>2011-04-24T08:11:13Z</time>
<desc>lat.=22.320034, lon.=103.769638, Alt.=2657.908203m. Speed=1.584000m/h.</desc>
<speed>0.440000</speed>
</trkpt>
<trkpt lat="22.320002" lon="103.769653">
<ele>2656.033203</ele>
<time>2011-04-24T08:11:18Z</time>
<desc>lat.=22.320002, lon.=103.769653, Alt.=2656.033203m. Speed=0.864000m/h.</desc>
<speed>0.240000</speed>
</trkpt>
<trkpt lat="22.319994" lon="103.769653">
<ele>2655.658203</ele>
<time>2011-04-24T08:11:23Z</time>
<desc>lat.=22.319994, lon.=103.769653, Alt.=2655.658203m. Speed=0.360000m/h.</desc>
<speed>0.100000</speed>
</trkpt>
<trkpt lat="22.320000" lon="103.769653">
<ele>2655.470703</ele>
<time>2011-04-24T08:11:28Z</time>
<desc>lat.=22.320000, lon.=103.769653, Alt.=2655.470703m. Speed=0.612000m/h.</desc>
<speed>0.170000</speed>
</trkpt>
<trkpt lat="22.320007" lon="103.769653">
<ele>2655.220703</ele>
<time>2011-04-24T08:11:33Z</time>
<desc>lat.=22.320007, lon.=103.769653, Alt.=2655.220703m. Speed=0.540000m/h.</desc>
<speed>0.150000</speed>
</trkpt>
<trkpt lat="22.320015" lon="103.769653">
<ele>2654.908203</ele>
<time>2011-04-24T08:11:38Z</time>
<desc>lat.=22.320015, lon.=103.769653, Alt.=2654.908203m. Speed=0.828000m/h.</desc>
<speed>0.230000</speed>
</trkpt>
<trkpt lat="22.320030" lon="103.769661">
<ele>2653.783203</ele>
<time>2011-04-24T08:11:43Z</time>
<desc>lat.=22.320030, lon.=103.769661, Alt.=2653.783203m. Speed=1.152000m/h.</desc>
<speed>0.320000</speed>
</trkpt>
<trkpt lat="22.320059" lon="103.769653">
<ele>2652.658203</ele>
<time>2011-04-24T08:11:48Z</time>
<desc>lat.=22.320059, lon.=103.769653, Alt.=2652.658203m. Speed=1.116000m/h.</desc>
<speed>0.310000</speed>
</trkpt>
<trkpt lat="22.320070" lon="103.769669">
<ele>2651.533203</ele>
<time>2011-04-24T08:11:53Z</time>
<desc>lat.=22.320070, lon.=103.769669, Alt.=2651.533203m. Speed=0.864000m/h.</desc>
<speed>0.240000</speed>
</trkpt>
<trkpt lat="22.320078" lon="103.769676">
<ele>2651.345703</ele>
<time>2011-04-24T08:11:58Z</time>
<desc>lat.=22.320078, lon.=103.769676, Alt.=2651.345703m. Speed=0.972000m/h.</desc>
<speed>0.270000</speed>
</trkpt>
<trkpt lat="22.320101" lon="103.769676">
<ele>2652.783203</ele>
<time>2011-04-24T08:12:03Z</time>
<desc>lat.=22.320101, lon.=103.769676, Alt.=2652.783203m. Speed=0.972000m/h.</desc>
<speed>0.270000</speed>
</trkpt>
<trkpt lat="22.320112" lon="103.769684">
<ele>2652.408203</ele>
<time>2011-04-24T08:12:08Z</time>
<desc>lat.=22.320112, lon.=103.769684, Alt.=2652.408203m. Speed=1.332000m/h.</desc>
<speed>0.370000</speed>
</trkpt>
<trkpt lat="22.320127" lon="103.769707">
<ele>2652.095703</ele>
<time>2011-04-24T08:12:13Z</time>
<desc>lat.=22.320127, lon.=103.769707, Alt.=2652.095703m. Speed=1.476000m/h.</desc>
<speed>0.410000</speed>
</trkpt>
<trkpt lat="22.320095" lon="103.769707">
<ele>2651.783203</ele>
<time>2011-04-24T08:12:18Z</time>
<desc>lat.=22.320095, lon.=103.769707, Alt.=2651.783203m. Speed=0.828000m/h.</desc>
<speed>0.230000</speed>
</trkpt>
<trkpt lat="22.320095" lon="103.769714">
<ele>2651.408203</ele>
<time>2011-04-24T08:12:23Z</time>
<desc>lat.=22.320095, lon.=103.769714, Alt.=2651.408203m. Speed=0.288000m/h.</desc>
<speed>0.080000</speed>
</trkpt>
<trkpt lat="22.320112" lon="103.769722">
<ele>2650.220703</ele>
<time>2011-04-24T08:12:28Z</time>
<desc>lat.=22.320112, lon.=103.769722, Alt.=2650.220703m. Speed=1.224000m/h.</desc>
<speed>0.340000</speed>
</trkpt>
<trkpt lat="22.320091" lon="103.769722">
<ele>2649.720703</ele>
<time>2011-04-24T08:12:33Z</time>
<desc>lat.=22.320091, lon.=103.769722, Alt.=2649.720703m. Speed=0.720000m/h.</desc>
<speed>0.200000</speed>
</trkpt>
<trkpt lat="22.320086" lon="103.769737">
<ele>2649.220703</ele>
<time>2011-04-24T08:12:38Z</time>
<desc>lat.=22.320086, lon.=103.769737, Alt.=2649.220703m. Speed=0.540000m/h.</desc>
<speed>0.150000</speed>
</trkpt>
<trkpt lat="22.320099" lon="103.769730">
<ele>2648.408203</ele>
<time>2011-04-24T08:12:43Z</time>
<desc>lat.=22.320099, lon.=103.769730, Alt.=2648.408203m. Speed=1.188000m/h.</desc>
<speed>0.330000</speed>
</trkpt>
<trkpt lat="22.320108" lon="103.769730">
<ele>2645.658203</ele>
<time>2011-04-24T08:12:48Z</time>
<desc>lat.=22.320108, lon.=103.769730, Alt.=2645.658203m. Speed=1.296000m/h.</desc>
<speed>0.360000</speed>
</trkpt>
<trkpt lat="22.320108" lon="103.769730">
<ele>2645.033203</ele>
<time>2011-04-24T08:12:53Z</time>
<desc>lat.=22.320108, lon.=103.769730, Alt.=2645.033203m. Speed=0.900000m/h.</desc>
<speed>0.250000</speed>
</trkpt>
<trkpt lat="22.320118" lon="103.769737">
<ele>2644.345703</ele>
<time>2011-04-24T08:12:58Z</time>
<desc>lat.=22.320118, lon.=103.769737, Alt.=2644.345703m. Speed=0.828000m/h.</desc>
<speed>0.230000</speed>
</trkpt>
<trkpt lat="22.320122" lon="103.769745">
<ele>2643.658203</ele>
<time>2011-04-24T08:13:03Z</time>
<desc>lat.=22.320122, lon.=103.769745, Alt.=2643.658203m. Speed=0.432000m/h.</desc>
<speed>0.120000</speed>
</trkpt>
<trkpt lat="22.320116" lon="103.769753">
<ele>2642.783203</ele>
<time>2011-04-24T08:13:08Z</time>
<desc>lat.=22.320116, lon.=103.769753, Alt.=2642.783203m. Speed=0.468000m/h.</desc>
<speed>0.130000</speed>
</trkpt>
<trkpt lat="22.320112" lon="103.769753">
<ele>2641.970703</ele>
<time>2011-04-24T08:13:13Z</time>
<desc>lat.=22.320112, lon.=103.769753, Alt.=2641.970703m. Speed=0.216000m/h.</desc>
<speed>0.060000</speed>
</trkpt>
<trkpt lat="22.320110" lon="103.769753">
<ele>2641.033203</ele>
<time>2011-04-24T08:13:18Z</time>
<desc>lat.=22.320110, lon.=103.769753, Alt.=2641.033203m. Speed=0.216000m/h.</desc>
<speed>0.060000</speed>
</trkpt>
<trkpt lat="22.320110" lon="103.769760">
<ele>2640.095703</ele>
<time>2011-04-24T08:13:23Z</time>
<desc>lat.=22.320110, lon.=103.769760, Alt.=2640.095703m. Speed=0.684000m/h.</desc>
<speed>0.190000</speed>
</trkpt>
<trkpt lat="22.320112" lon="103.769768">
<ele>2639.095703</ele>
<time>2011-04-24T08:13:28Z</time>
<desc>lat.=22.320112, lon.=103.769768, Alt.=2639.095703m. Speed=0.468000m/h.</desc>
<speed>0.130000</speed>
</trkpt>
<trkpt lat="22.320110" lon="103.769768">
<ele>2638.095703</ele>
<time>2011-04-24T08:13:33Z</time>
<desc>lat.=22.320110, lon.=103.769768, Alt.=2638.095703m. Speed=0.432000m/h.</desc>
<speed>0.120000</speed>
</trkpt>
<trkpt lat="22.320116" lon="103.769775">
<ele>2637.220703</ele>
<time>2011-04-24T08:13:38Z</time>
<desc>lat.=22.320116, lon.=103.769775, Alt.=2637.220703m. Speed=0.684000m/h.</desc>
<speed>0.190000</speed>
</trkpt>
<trkpt lat="22.320107" lon="103.769798">
<ele>2634.720703</ele>
<time>2011-04-24T08:13:43Z</time>
<desc>lat.=22.320107, lon.=103.769798, Alt.=2634.720703m. Speed=0.576000m/h.</desc>
<speed>0.160000</speed>
</trkpt>
<trkpt lat="22.320108" lon="103.769806">
<ele>2633.533203</ele>
<time>2011-04-24T08:13:48Z</time>
<desc>lat.=22.320108, lon.=103.769806, Alt.=2633.533203m. Speed=0.468000m/h.</desc>
<speed>0.130000</speed>
</trkpt>
<trkpt lat="22.320110" lon="103.769821">
<ele>2632.345703</ele>
<time>2011-04-24T08:13:53Z</time>
<desc>lat.=22.320110, lon.=103.769821, Alt.=2632.345703m. Speed=1.008000m/h.</desc>
<speed>0.280000</speed>
</trkpt>
<trkpt lat="22.320107" lon="103.769859">
<ele>2631.283203</ele>
<time>2011-04-24T08:13:58Z</time>
<desc>lat.=22.320107, lon.=103.769859, Alt.=2631.283203m. Speed=1.332000m/h.</desc>
<speed>0.370000</speed>
</trkpt>
<trkpt lat="22.320089" lon="103.769890">
<ele>2627.845703</ele>
<time>2011-04-24T08:14:03Z</time>
<desc>lat.=22.320089, lon.=103.769890, Alt.=2627.845703m. Speed=1.260000m/h.</desc>
<speed>0.350000</speed>
</trkpt>
<trkpt lat="22.320080" lon="103.769905">
<ele>2625.970703</ele>
<time>2011-04-24T08:14:08Z</time>
<desc>lat.=22.320080, lon.=103.769905, Alt.=2625.970703m. Speed=0.972000m/h.</desc>
<speed>0.270000</speed>
</trkpt>
<trkpt lat="22.320068" lon="103.769897">
<ele>2624.845703</ele>
<time>2011-04-24T08:14:13Z</time>
<desc>lat.=22.320068, lon.=103.769897, Alt.=2624.845703m. Speed=0.252000m/h.</desc>
<speed>0.070000</speed>
</trkpt>
<trkpt lat="22.320070" lon="103.769897">
<ele>2623.595703</ele>
<time>2011-04-24T08:14:18Z</time>
<desc>lat.=22.320070, lon.=103.769897, Alt.=2623.595703m. Speed=0.216000m/h.</desc>
<speed>0.060000</speed>
</trkpt>
<trkpt lat="22.320068" lon="103.769897">
<ele>2622.345703</ele>
<time>2011-04-24T08:14:23Z</time>
<desc>lat.=22.320068, lon.=103.769897, Alt.=2622.345703m. Speed=0.432000m/h.</desc>
<speed>0.120000</speed>
</trkpt>
<trkpt lat="22.320063" lon="103.769890">
<ele>2621.158203</ele>
<time>2011-04-24T08:14:28Z</time>
<desc>lat.=22.320063, lon.=103.769890, Alt.=2621.158203m. Speed=0.576000m/h.</desc>
<speed>0.160000</speed>
</trkpt>
<trkpt lat="22.320057" lon="103.769890">
<ele>2619.908203</ele>
<time>2011-04-24T08:14:33Z</time>
<desc>lat.=22.320057, lon.=103.769890, Alt.=2619.908203m. Speed=0.324000m/h.</desc>
<speed>0.090000</speed>
</trkpt>
<trkpt lat="22.320055" lon="103.769897">
<ele>2618.783203</ele>
<time>2011-04-24T08:14:38Z</time>
<desc>lat.=22.320055, lon.=103.769897, Alt.=2618.783203m. Speed=0.540000m/h.</desc>
<speed>0.150000</speed>
</trkpt>
<trkpt lat="22.320057" lon="103.769897">
<ele>2617.720703</ele>
<time>2011-04-24T08:14:43Z</time>
<desc>lat.=22.320057, lon.=103.769897, Alt.=2617.720703m. Speed=0.108000m/h.</desc>
<speed>0.030000</speed>
</trkpt>
<trkpt lat="22.320059" lon="103.769905">
<ele>2616.595703</ele>
<time>2011-04-24T08:14:48Z</time>
<desc>lat.=22.320059, lon.=103.769905, Alt.=2616.595703m. Speed=0.252000m/h.</desc>
<speed>0.070000</speed>
</trkpt>
<trkpt lat="22.320084" lon="103.769905">
<ele>2616.533203</ele>
<time>2011-04-24T08:14:53Z</time>
<desc>lat.=22.320084, lon.=103.769905, Alt.=2616.533203m. Speed=0.324000m/h.</desc>
<speed>0.090000</speed>
</trkpt>
<trkpt lat="22.320084" lon="103.769897">
<ele>2615.533203</ele>
<time>2011-04-24T08:14:58Z</time>
<desc>lat.=22.320084, lon.=103.769897, Alt.=2615.533203m. Speed=0.756000m/h.</desc>
<speed>0.210000</speed>
</trkpt>
<trkpt lat="22.320086" lon="103.769905">
<ele>2615.283203</ele>
<time>2011-04-24T08:15:03Z</time>
<desc>lat.=22.320086, lon.=103.769905, Alt.=2615.283203m. Speed=0.720000m/h.</desc>
<speed>0.200000</speed>
</trkpt>
<trkpt lat="22.320087" lon="103.769905">
<ele>2615.158203</ele>
<time>2011-04-24T08:15:08Z</time>
<desc>lat.=22.320087, lon.=103.769905, Alt.=2615.158203m. Speed=1.152000m/h.</desc>
<speed>0.320000</speed>
</trkpt>
<trkpt lat="22.320065" lon="103.769844">
<ele>2614.033203</ele>
<time>2011-04-24T08:15:13Z</time>
<desc>lat.=22.320065, lon.=103.769844, Alt.=2614.033203m. Speed=1.584000m/h.</desc>
<speed>0.440000</speed>
</trkpt>
<trkpt lat="22.320057" lon="103.769814">
<ele>2613.970703</ele>
<time>2011-04-24T08:15:18Z</time>
<desc>lat.=22.320057, lon.=103.769814, Alt.=2613.970703m. Speed=1.620000m/h.</desc>
<speed>0.450000</speed>
</trkpt>
<trkpt lat="22.320053" lon="103.769783">
<ele>2614.283203</ele>
<time>2011-04-24T08:15:23Z</time>
<desc>lat.=22.320053, lon.=103.769783, Alt.=2614.283203m. Speed=1.656000m/h.</desc>
<speed>0.460000</speed>
</trkpt>
<trkpt lat="22.320078" lon="103.769775">
<ele>2614.408203</ele>
<time>2011-04-24T08:15:28Z</time>
<desc>lat.=22.320078, lon.=103.769775, Alt.=2614.408203m. Speed=0.828000m/h.</desc>
<speed>0.230000</speed>
</trkpt>
<trkpt lat="22.320082" lon="103.769745">
<ele>2614.158203</ele>
<time>2011-04-24T08:15:33Z</time>
<desc>lat.=22.320082, lon.=103.769745, Alt.=2614.158203m. Speed=0.612000m/h.</desc>
<speed>0.170000</speed>
</trkpt>
<trkpt lat="22.320087" lon="103.769745">
<ele>2613.408203</ele>
<time>2011-04-24T08:15:38Z</time>
<desc>lat.=22.320087, lon.=103.769745, Alt.=2613.408203m. Speed=0.684000m/h.</desc>
<speed>0.190000</speed>
</trkpt>
<trkpt lat="22.320105" lon="103.769753">
<ele>2612.783203</ele>
<time>2011-04-24T08:15:43Z</time>
<desc>lat.=22.320105, lon.=103.769753, Alt.=2612.783203m. Speed=1.152000m/h.</desc>
<speed>0.320000</speed>
</trkpt>
<trkpt lat="22.320103" lon="103.769775">
<ele>2611.908203</ele>
<time>2011-04-24T08:15:48Z</time>
<desc>lat.=22.320103, lon.=103.769775, Alt.=2611.908203m. Speed=1.080000m/h.</desc>
<speed>0.300000</speed>
</trkpt>
<trkpt lat="22.320095" lon="103.769829">
<ele>2610.095703</ele>
<time>2011-04-24T08:15:53Z</time>
<desc>lat.=22.320095, lon.=103.769829, Alt.=2610.095703m. Speed=1.440000m/h.</desc>
<speed>0.400000</speed>
</trkpt>
<trkpt lat="22.320110" lon="103.769867">
<ele>2608.533203</ele>
<time>2011-04-24T08:15:58Z</time>
<desc>lat.=22.320110, lon.=103.769867, Alt.=2608.533203m. Speed=1.188000m/h.</desc>
<speed>0.330000</speed>
</trkpt>
<trkpt lat="22.320127" lon="103.769867">
<ele>2607.783203</ele>
<time>2011-04-24T08:16:03Z</time>
<desc>lat.=22.320127, lon.=103.769867, Alt.=2607.783203m. Speed=1.080000m/h.</desc>
<speed>0.300000</speed>
</trkpt>
<trkpt lat="22.320129" lon="103.769882">
<ele>2607.095703</ele>
<time>2011-04-24T08:16:08Z</time>
<desc>lat.=22.320129, lon.=103.769882, Alt.=2607.095703m. Speed=1.044000m/h.</desc>
<speed>0.290000</speed>
</trkpt>
<trkpt lat="22.320127" lon="103.769905">
<ele>2606.158203</ele>
<time>2011-04-24T08:16:13Z</time>
<desc>lat.=22.320127, lon.=103.769905, Alt.=2606.158203m. Speed=1.152000m/h.</desc>
<speed>0.320000</speed>
</trkpt>
<trkpt lat="22.320131" lon="103.769928">
<ele>2604.033203</ele>
<time>2011-04-24T08:16:18Z</time>
<desc>lat.=22.320131, lon.=103.769928, Alt.=2604.033203m. Speed=1.116000m/h.</desc>
<speed>0.310000</speed>
</trkpt>
<trkpt lat="22.320131" lon="103.769936">
<ele>2602.908203</ele>
<time>2011-04-24T08:16:23Z</time>
<desc>lat.=22.320131, lon.=103.769936, Alt.=2602.908203m. Speed=0.936000m/h.</desc>
<speed>0.260000</speed>
</trkpt>
<trkpt lat="22.320135" lon="103.769936">
<ele>2602.220703</ele>
<time>2011-04-24T08:16:28Z</time>
<desc>lat.=22.320135, lon.=103.769936, Alt.=2602.220703m. Speed=0.792000m/h.</desc>
<speed>0.220000</speed>
</trkpt>
<trkpt lat="22.320139" lon="103.769951">
<ele>2601.533203</ele>
<time>2011-04-24T08:16:33Z</time>
<desc>lat.=22.320139, lon.=103.769951, Alt.=2601.533203m. Speed=0.828000m/h.</desc>
<speed>0.230000</speed>
</trkpt>
<trkpt lat="22.320139" lon="103.769958">
<ele>2600.970703</ele>
<time>2011-04-24T08:16:38Z</time>
<desc>lat.=22.320139, lon.=103.769958, Alt.=2600.970703m. Speed=0.756000m/h.</desc>
<speed>0.210000</speed>
</trkpt>
<trkpt lat="22.320137" lon="103.769966">
<ele>2600.345703</ele>
<time>2011-04-24T08:16:43Z</time>
<desc>lat.=22.320137, lon.=103.769966, Alt.=2600.345703m. Speed=0.036000m/h.</desc>
<speed>0.010000</speed>
</trkpt>
<trkpt lat="22.320137" lon="103.769958">
<ele>2599.720703</ele>
<time>2011-04-24T08:16:48Z</time>
<desc>lat.=22.320137, lon.=103.769958, Alt.=2599.720703m. Speed=0.108000m/h.</desc>
<speed>0.030000</speed>
</trkpt>
<trkpt lat="22.320139" lon="103.769958">
<ele>2599.158203</ele>
<time>2011-04-24T08:16:53Z</time>
<desc>lat.=22.320139, lon.=103.769958, Alt.=2599.158203m. Speed=0.360000m/h.</desc>
<speed>0.100000</speed>
</trkpt>
<trkpt lat="22.320135" lon="103.769951">
<ele>2598.533203</ele>
<time>2011-04-24T08:16:58Z</time>
<desc>lat.=22.320135, lon.=103.769951, Alt.=2598.533203m. Speed=0.864000m/h.</desc>
<speed>0.240000</speed>
</trkpt>
<trkpt lat="22.320143" lon="103.769913">
<ele>2597.970703</ele>
<time>2011-04-24T08:17:03Z</time>
<desc>lat.=22.320143, lon.=103.769913, Alt.=2597.970703m. Speed=1.404000m/h.</desc>
<speed>0.390000</speed>
</trkpt>
<trkpt lat="22.320162" lon="103.769882">
<ele>2597.345703</ele>
<time>2011-04-24T08:17:08Z</time>
<desc>lat.=22.320162, lon.=103.769882, Alt.=2597.345703m. Speed=1.008000m/h.</desc>
<speed>0.280000</speed>
</trkpt>
<trkpt lat="22.320177" lon="103.769836">
<ele>2596.533203</ele>
<time>2011-04-24T08:17:13Z</time>
<desc>lat.=22.320177, lon.=103.769836, Alt.=2596.533203m. Speed=1.620000m/h.</desc>
<speed>0.450000</speed>
</trkpt>
<trkpt lat="22.320194" lon="103.769821">
<ele>2596.158203</ele>
<time>2011-04-24T08:17:18Z</time>
<desc>lat.=22.320194, lon.=103.769821, Alt.=2596.158203m. Speed=1.512000m/h.</desc>
<speed>0.420000</speed>
</trkpt>
<trkpt lat="22.320194" lon="103.769821">
<ele>2595.908203</ele>
<time>2011-04-24T08:17:23Z</time>
<desc>lat.=22.320194, lon.=103.769821, Alt.=2595.908203m. Speed=1.044000m/h.</desc>
<speed>0.290000</speed>
</trkpt>
<trkpt lat="22.320204" lon="103.769821">
<ele>2595.283203</ele>
<time>2011-04-24T08:17:28Z</time>
<desc>lat.=22.320204, lon.=103.769821, Alt.=2595.283203m. Speed=1.008000m/h.</desc>
<speed>0.280000</speed>
</trkpt>
<trkpt lat="22.320210" lon="103.769806">
<ele>2594.658203</ele>
<time>2011-04-24T08:17:33Z</time>
<desc>lat.=22.320210, lon.=103.769806, Alt.=2594.658203m. Speed=0.936000m/h.</desc>
<speed>0.260000</speed>
</trkpt>
<trkpt lat="22.320204" lon="103.769806">
<ele>2594.220703</ele>
<time>2011-04-24T08:17:38Z</time>
<desc>lat.=22.320204, lon.=103.769806, Alt.=2594.220703m. Speed=0.756000m/h.</desc>
<speed>0.210000</speed>
</trkpt>
<trkpt lat="22.320208" lon="103.769783">
<ele>2593.408203</ele>
<time>2011-04-24T08:17:43Z</time>
<desc>lat.=22.320208, lon.=103.769783, Alt.=2593.408203m. Speed=0.756000m/h.</desc>
<speed>0.210000</speed>
</trkpt>
<trkpt lat="22.320223" lon="103.769775">
<ele>2592.658203</ele>
<time>2011-04-24T08:17:48Z</time>
<desc>lat.=22.320223, lon.=103.769775, Alt.=2592.658203m. Speed=1.512000m/h.</desc>
<speed>0.420000</speed>
</trkpt>
<trkpt lat="22.320236" lon="103.769775">
<ele>2591.845703</ele>
<time>2011-04-24T08:17:53Z</time>
<desc>lat.=22.320236, lon.=103.769775, Alt.=2591.845703m. Speed=0.648000m/h.</desc>
<speed>0.180000</speed>
</trkpt>
<trkpt lat="22.320248" lon="103.769783">
<ele>2591.283203</ele>
<time>2011-04-24T08:17:58Z</time>
<desc>lat.=22.320248, lon.=103.769783, Alt.=2591.283203m. Speed=0.324000m/h.</desc>
<speed>0.090000</speed>
</trkpt>
<trkpt lat="22.320248" lon="103.769791">
<ele>2590.720703</ele>
<time>2011-04-24T08:18:03Z</time>
<desc>lat.=22.320248, lon.=103.769791, Alt.=2590.720703m. Speed=0.576000m/h.</desc>
<speed>0.160000</speed>
</trkpt>
<trkpt lat="22.320248" lon="103.769791">
<ele>2590.158203</ele>
<time>2011-04-24T08:18:08Z</time>
<desc>lat.=22.320248, lon.=103.769791, Alt.=2590.158203m. Speed=0.396000m/h.</desc>
<speed>0.110000</speed>
</trkpt>
<trkpt lat="22.320244" lon="103.769783">
<ele>2589.595703</ele>
<time>2011-04-24T08:18:13Z</time>
<desc>lat.=22.320244, lon.=103.769783, Alt.=2589.595703m. Speed=0.684000m/h.</desc>
<speed>0.190000</speed>
</trkpt>
<trkpt lat="22.320242" lon="103.769775">
<ele>2589.033203</ele>
<time>2011-04-24T08:18:18Z</time>
<desc>lat.=22.320242, lon.=103.769775, Alt.=2589.033203m. Speed=0.576000m/h.</desc>
<speed>0.160000</speed>
</trkpt>
<trkpt lat="22.320238" lon="103.769768">
<ele>2588.470703</ele>
<time>2011-04-24T08:18:23Z</time>
<desc>lat.=22.320238, lon.=103.769768, Alt.=2588.470703m. Speed=0.576000m/h.</desc>
<speed>0.160000</speed>
</trkpt>
<trkpt lat="22.320234" lon="103.769760">
<ele>2587.908203</ele>
<time>2011-04-24T08:18:28Z</time>
<desc>lat.=22.320234, lon.=103.769760, Alt.=2587.908203m. Speed=0.936000m/h.</desc>
<speed>0.260000</speed>
</trkpt>
<trkpt lat="22.320204" lon="103.769707">
<ele>2587.033203</ele>
<time>2011-04-24T08:18:33Z</time>
<desc>lat.=22.320204, lon.=103.769707, Alt.=2587.033203m. Speed=1.836000m/h.</desc>
<speed>0.510000</speed>
</trkpt>
<trkpt lat="22.320177" lon="103.769653">
<ele>2586.345703</ele>
<time>2011-04-24T08:18:38Z</time>
<desc>lat.=22.320177, lon.=103.769653, Alt.=2586.345703m. Speed=2.196000m/h.</desc>
<speed>0.610000</speed>
</trkpt>
<trkpt lat="22.320152" lon="103.769630">
<ele>2585.845703</ele>
<time>2011-04-24T08:18:43Z</time>
<desc>lat.=22.320152, lon.=103.769630, Alt.=2585.845703m. Speed=2.196000m/h.</desc>
<speed>0.610000</speed>
</trkpt>
<trkpt lat="22.320124" lon="103.769592">
<ele>2585.595703</ele>
<time>2011-04-24T08:18:48Z</time>
<desc>lat.=22.320124, lon.=103.769592, Alt.=2585.595703m. Speed=2.736000m/h.</desc>
<speed>0.760000</speed>
</trkpt>
<trkpt lat="22.320089" lon="103.769562">
<ele>2585.095703</ele>
<time>2011-04-24T08:18:53Z</time>
<desc>lat.=22.320089, lon.=103.769562, Alt.=2585.095703m. Speed=3.096000m/h.</desc>
<speed>0.860000</speed>
</trkpt>
<trkpt lat="22.320080" lon="103.769577">
<ele>2584.720703</ele>
<time>2011-04-24T08:18:58Z</time>
<desc>lat.=22.320080, lon.=103.769577, Alt.=2584.720703m. Speed=1.080000m/h.</desc>
<speed>0.300000</speed>
</trkpt>
<trkpt lat="22.320086" lon="103.769608">
<ele>2584.408203</ele>
<time>2011-04-24T08:19:03Z</time>
<desc>lat.=22.320086, lon.=103.769608, Alt.=2584.408203m. Speed=0.576000m/h.</desc>
<speed>0.160000</speed>
</trkpt>
<trkpt lat="22.320080" lon="103.769615">
<ele>2583.845703</ele>
<time>2011-04-24T08:19:08Z</time>
<desc>lat.=22.320080, lon.=103.769615, Alt.=2583.845703m. Speed=0.684000m/h.</desc>
<speed>0.190000</speed>
</trkpt>
<trkpt lat="22.320087" lon="103.769638">
<ele>2583.595703</ele>
<time>2011-04-24T08:19:13Z</time>
<desc>lat.=22.320087, lon.=103.769638, Alt.=2583.595703m. Speed=1.188000m/h.</desc>
<speed>0.330000</speed>
</trkpt>
<trkpt lat="22.320095" lon="103.769615">
<ele>2584.345703</ele>
<time>2011-04-24T08:19:18Z</time>
<desc>lat.=22.320095, lon.=103.769615, Alt.=2584.345703m. Speed=0.144000m/h.</desc>
<speed>0.040000</speed>
</trkpt>
<trkpt lat="22.320095" lon="103.769615">
<ele>2583.783203</ele>
<time>2011-04-24T08:19:23Z</time>
<desc>lat.=22.320095, lon.=103.769615, Alt.=2583.783203m. Speed=0.360000m/h.</desc>
<speed>0.100000</speed>
</trkpt>
<trkpt lat="22.320095" lon="103.769608">
<ele>2583.220703</ele>
<time>2011-04-24T08:19:28Z</time>
<desc>lat.=22.320095, lon.=103.769608, Alt.=2583.220703m. Speed=0.828000m/h.</desc>
<speed>0.230000</speed>
</trkpt>
<trkpt lat="22.320099" lon="103.769600">
<ele>2582.658203</ele>
<time>2011-04-24T08:19:33Z</time>
<desc>lat.=22.320099, lon.=103.769600, Alt.=2582.658203m. Speed=0.936000m/h.</desc>
<speed>0.260000</speed>
</trkpt>
<trkpt lat="22.320105" lon="103.769585">
<ele>2582.095703</ele>
<time>2011-04-24T08:19:38Z</time>
<desc>lat.=22.320105, lon.=103.769585, Alt.=2582.095703m. Speed=1.116000m/h.</desc>
<speed>0.310000</speed>
</trkpt>
<trkpt lat="22.320137" lon="103.769600">
<ele>2581.595703</ele>
<time>2011-04-24T08:19:43Z</time>
<desc>lat.=22.320137, lon.=103.769600, Alt.=2581.595703m. Speed=0.900000m/h.</desc>
<speed>0.250000</speed>
</trkpt>
<trkpt lat="22.320145" lon="103.769592">
<ele>2581.033203</ele>
<time>2011-04-24T08:19:48Z</time>
<desc>lat.=22.320145, lon.=103.769592, Alt.=2581.033203m. Speed=0.468000m/h.</desc>
<speed>0.130000</speed>
</trkpt>
<trkpt lat="22.320152" lon="103.769600">
<ele>2580.470703</ele>
<time>2011-04-24T08:19:53Z</time>
<desc>lat.=22.320152, lon.=103.769600, Alt.=2580.470703m. Speed=1.080000m/h.</desc>
<speed>0.300000</speed>
</trkpt>
<trkpt lat="22.320194" lon="103.769676">
<ele>2580.408203</ele>
<time>2011-04-24T08:19:58Z</time>
<desc>lat.=22.320194, lon.=103.769676, Alt.=2580.408203m. Speed=1.620000m/h.</desc>
<speed>0.450000</speed>
</trkpt>
<trkpt lat="22.320253" lon="103.769753">
<ele>2581.595703</ele>
<time>2011-04-24T08:20:03Z</time>
<desc>lat.=22.320253, lon.=103.769753, Alt.=2581.595703m. Speed=1.836000m/h.</desc>
<speed>0.510000</speed>
</trkpt>
<trkpt lat="22.320261" lon="103.769829">
<ele>2582.720703</ele>
<time>2011-04-24T08:20:08Z</time>
<desc>lat.=22.320261, lon.=103.769829, Alt.=2582.720703m. Speed=1.872000m/h.</desc>
<speed>0.520000</speed>
</trkpt>
<trkpt lat="22.320265" lon="103.769882">
<ele>2583.783203</ele>
<time>2011-04-24T08:20:13Z</time>
<desc>lat.=22.320265, lon.=103.769882, Alt.=2583.783203m. Speed=2.124000m/h.</desc>
<speed>0.590000</speed>
</trkpt>
<trkpt lat="22.320314" lon="103.769928">
<ele>2587.283203</ele>
<time>2011-04-24T08:20:18Z</time>
<desc>lat.=22.320314, lon.=103.769928, Alt.=2587.283203m. Speed=1.368000m/h.</desc>
<speed>0.380000</speed>
</trkpt>
<trkpt lat="22.320328" lon="103.769951">
<ele>2588.095703</ele>
<time>2011-04-24T08:20:23Z</time>
<desc>lat.=22.320328, lon.=103.769951, Alt.=2588.095703m. Speed=0.936000m/h.</desc>
<speed>0.260000</speed>
</trkpt>
<trkpt lat="22.320328" lon="103.769966">
<ele>2588.220703</ele>
<time>2011-04-24T08:20:28Z</time>
<desc>lat.=22.320328, lon.=103.769966, Alt.=2588.220703m. Speed=0.936000m/h.</desc>
<speed>0.260000</speed>
</trkpt>
<trkpt lat="22.320328" lon="103.769974">
<ele>2588.033203</ele>
<time>2011-04-24T08:20:33Z</time>
<desc>lat.=22.320328, lon.=103.769974, Alt.=2588.033203m. Speed=0.504000m/h.</desc>
<speed>0.140000</speed>
</trkpt>
<trkpt lat="22.320328" lon="103.769981">
<ele>2587.845703</ele>
<time>2011-04-24T08:20:38Z</time>
<desc>lat.=22.320328, lon.=103.769981, Alt.=2587.845703m. Speed=0.648000m/h.</desc>
<speed>0.180000</speed>
</trkpt>
<trkpt lat="22.320326" lon="103.769989">
<ele>2587.720703</ele>
<time>2011-04-24T08:20:43Z</time>
<desc>lat.=22.320326, lon.=103.769989, Alt.=2587.720703m. Speed=0.036000m/h.</desc>
<speed>0.010000</speed>
</trkpt>
<trkpt lat="22.320324" lon="103.769989">
<ele>2587.658203</ele>
<time>2011-04-24T08:20:48Z</time>
<desc>lat.=22.320324, lon.=103.769989, Alt.=2587.658203m. Speed=0.180000m/h.</desc>
<speed>0.050000</speed>
</trkpt>
<trkpt lat="22.320324" lon="103.769989">
<ele>2587.595703</ele>
<time>2011-04-24T08:20:53Z</time>
<desc>lat.=22.320324, lon.=103.769989, Alt.=2587.595703m. Speed=0.144000m/h.</desc>
<speed>0.040000</speed>
</trkpt>
<trkpt lat="22.320326" lon="103.769981">
<ele>2587.595703</ele>
<time>2011-04-24T08:20:58Z</time>
<desc>lat.=22.320326, lon.=103.769981, Alt.=2587.595703m. Speed=0.468000m/h.</desc>
<speed>0.130000</speed>
</trkpt>
<trkpt lat="22.320330" lon="103.769981">
<ele>2587.595703</ele>
<time>2011-04-24T08:21:03Z</time>
<desc>lat.=22.320330, lon.=103.769981, Alt.=2587.595703m. Speed=0.360000m/h.</desc>
<speed>0.100000</speed>
</trkpt>
<trkpt lat="22.320333" lon="103.769989">
<ele>2587.658203</ele>
<time>2011-04-24T08:21:08Z</time>
<desc>lat.=22.320333, lon.=103.769989, Alt.=2587.658203m. Speed=0.828000m/h.</desc>
<speed>0.230000</speed>
</trkpt>
<trkpt lat="22.320339" lon="103.769997">
<ele>2587.720703</ele>
<time>2011-04-24T08:21:13Z</time>
<desc>lat.=22.320339, lon.=103.769997, Alt.=2587.720703m. Speed=0.792000m/h.</desc>
<speed>0.220000</speed>
</trkpt>
<trkpt lat="22.320364" lon="103.769989">
<ele>2587.783203</ele>
<time>2011-04-24T08:21:18Z</time>
<desc>lat.=22.320364, lon.=103.769989, Alt.=2587.783203m. Speed=1.188000m/h.</desc>
<speed>0.330000</speed>
</trkpt>
<trkpt lat="22.320381" lon="103.770012">
<ele>2587.720703</ele>
<time>2011-04-24T08:21:23Z</time>
<desc>lat.=22.320381, lon.=103.770012, Alt.=2587.720703m. Speed=1.080000m/h.</desc>
<speed>0.300000</speed>
</trkpt>
<trkpt lat="22.320393" lon="103.770012">
<ele>2588.095703</ele>
<time>2011-04-24T08:21:28Z</time>
<desc>lat.=22.320393, lon.=103.770012, Alt.=2588.095703m. Speed=0.792000m/h.</desc>
<speed>0.220000</speed>
</trkpt>
<trkpt lat="22.320404" lon="103.770012">
<ele>2588.220703</ele>
<time>2011-04-24T08:21:33Z</time>
<desc>lat.=22.320404, lon.=103.770012, Alt.=2588.220703m. Speed=0.684000m/h.</desc>
<speed>0.190000</speed>
</trkpt>
<trkpt lat="22.320421" lon="103.770035">
<ele>2588.720703</ele>
<time>2011-04-24T08:21:38Z</time>
<desc>lat.=22.320421, lon.=103.770035, Alt.=2588.720703m. Speed=1.728000m/h.</desc>
<speed>0.480000</speed>
</trkpt>
<trkpt lat="22.320469" lon="103.770035">
<ele>2590.970703</ele>
<time>2011-04-24T08:21:43Z</time>
<desc>lat.=22.320469, lon.=103.770035, Alt.=2590.970703m. Speed=1.692000m/h.</desc>
<speed>0.470000</speed>
</trkpt>
<trkpt lat="22.320471" lon="103.770035">
<ele>2591.720703</ele>
<time>2011-04-24T08:21:48Z</time>
<desc>lat.=22.320471, lon.=103.770035, Alt.=2591.720703m. Speed=0.936000m/h.</desc>
<speed>0.260000</speed>
</trkpt>
<trkpt lat="22.320469" lon="103.770050">
<ele>2592.720703</ele>
<time>2011-04-24T08:21:53Z</time>
<desc>lat.=22.320469, lon.=103.770050, Alt.=2592.720703m. Speed=0.576000m/h.</desc>
<speed>0.160000</speed>
</trkpt>
<trkpt lat="22.320475" lon="103.770050">
<ele>2592.970703</ele>
<time>2011-04-24T08:21:58Z</time>
<desc>lat.=22.320475, lon.=103.770050, Alt.=2592.970703m. Speed=0.252000m/h.</desc>
<speed>0.070000</speed>
</trkpt>
<trkpt lat="22.320478" lon="103.770050">
<ele>2593.283203</ele>
<time>2011-04-24T08:22:03Z</time>
<desc>lat.=22.320478, lon.=103.770050, Alt.=2593.283203m. Speed=0.144000m/h.</desc>
<speed>0.040000</speed>
</trkpt>
<trkpt lat="22.320475" lon="103.770050">
<ele>2593.595703</ele>
<time>2011-04-24T08:22:08Z</time>
<desc>lat.=22.320475, lon.=103.770050, Alt.=2593.595703m. Speed=0.360000m/h.</desc>
<speed>0.100000</speed>
</trkpt>
<trkpt lat="22.320473" lon="103.770058">
<ele>2593.970703</ele>
<time>2011-04-24T08:22:13Z</time>
<desc>lat.=22.320473, lon.=103.770058, Alt.=2593.970703m. Speed=0.288000m/h.</desc>
<speed>0.080000</speed>
</trkpt>
<trkpt lat="22.320511" lon="103.770035">
<ele>2593.158203</ele>
<time>2011-04-24T08:22:18Z</time>
<desc>lat.=22.320511, lon.=103.770035, Alt.=2593.158203m. Speed=2.556000m/h.</desc>
<speed>0.710000</speed>
</trkpt>
<trkpt lat="22.320580" lon="103.770081">
<ele>2591.220703</ele>
<time>2011-04-24T08:22:23Z</time>
<desc>lat.=22.320580, lon.=103.770081, Alt.=2591.220703m. Speed=4.392000m/h.</desc>
<speed>1.220000</speed>
</trkpt>
<trkpt lat="22.320612" lon="103.770096">
<ele>2591.658203</ele>
<time>2011-04-24T08:22:28Z</time>
<desc>lat.=22.320612, lon.=103.770096, Alt.=2591.658203m. Speed=1.116000m/h.</desc>
<speed>0.310000</speed>
</trkpt>
<trkpt lat="22.320621" lon="103.770111">
<ele>2592.033203</ele>
<time>2011-04-24T08:22:33Z</time>
<desc>lat.=22.320621, lon.=103.770111, Alt.=2592.033203m. Speed=1.476000m/h.</desc>
<speed>0.410000</speed>
</trkpt>
<trkpt lat="22.320644" lon="103.770157">
<ele>2591.720703</ele>
<time>2011-04-24T08:22:38Z</time>
<desc>lat.=22.320644, lon.=103.770157, Alt.=2591.720703m. Speed=1.260000m/h.</desc>
<speed>0.350000</speed>
</trkpt>
<trkpt lat="22.320667" lon="103.770187">
<ele>2591.908203</ele>
<time>2011-04-24T08:22:43Z</time>
<desc>lat.=22.320667, lon.=103.770187, Alt.=2591.908203m. Speed=2.016000m/h.</desc>
<speed>0.560000</speed>
</trkpt>
<trkpt lat="22.320679" lon="103.770195">
<ele>2591.908203</ele>
<time>2011-04-24T08:22:48Z</time>
<desc>lat.=22.320679, lon.=103.770195, Alt.=2591.908203m. Speed=0.504000m/h.</desc>
<speed>0.140000</speed>
</trkpt>
<trkpt lat="22.320669" lon="103.770264">
<ele>2591.533203</ele>
<time>2011-04-24T08:22:53Z</time>
<desc>lat.=22.320669, lon.=103.770264, Alt.=2591.533203m. Speed=3.600000m/h.</desc>
<speed>1.000000</speed>
</trkpt>
<trkpt lat="22.320641" lon="103.770355">
<ele>2590.033203</ele>
<time>2011-04-24T08:22:58Z</time>
<desc>lat.=22.320641, lon.=103.770355, Alt.=2590.033203m. Speed=3.744000m/h.</desc>
<speed>1.040000</speed>
</trkpt>
<trkpt lat="22.320620" lon="103.770409">
<ele>2589.970703</ele>
<time>2011-04-24T08:23:03Z</time>
<desc>lat.=22.320620, lon.=103.770409, Alt.=2589.970703m. Speed=3.168000m/h.</desc>
<speed>0.880000</speed>
</trkpt>
<trkpt lat="22.320625" lon="103.770485">
<ele>2589.470703</ele>
<time>2011-04-24T08:23:08Z</time>
<desc>lat.=22.320625, lon.=103.770485, Alt.=2589.470703m. Speed=4.104000m/h.</desc>
<speed>1.140000</speed>
</trkpt>
<trkpt lat="22.320642" lon="103.770500">
<ele>2589.158203</ele>
<time>2011-04-24T08:23:13Z</time>
<desc>lat.=22.320642, lon.=103.770500, Alt.=2589.158203m. Speed=1.188000m/h.</desc>
<speed>0.330000</speed>
</trkpt>
<trkpt lat="22.320679" lon="103.770538">
<ele>2588.783203</ele>
<time>2011-04-24T08:23:18Z</time>
<desc>lat.=22.320679, lon.=103.770538, Alt.=2588.783203m. Speed=2.808000m/h.</desc>
<speed>0.780000</speed>
</trkpt>
<trkpt lat="22.320700" lon="103.770592">
<ele>2586.845703</ele>
<time>2011-04-24T08:23:23Z</time>
<desc>lat.=22.320700, lon.=103.770592, Alt.=2586.845703m. Speed=3.852000m/h.</desc>
<speed>1.070000</speed>
</trkpt>
<trkpt lat="22.320696" lon="103.770653">
<ele>2585.283203</ele>
<time>2011-04-24T08:23:28Z</time>
<desc>lat.=22.320696, lon.=103.770653, Alt.=2585.283203m. Speed=3.852000m/h.</desc>
<speed>1.070000</speed>
</trkpt>
<trkpt lat="22.320702" lon="103.770691">
<ele>2586.158203</ele>
<time>2011-04-24T08:23:33Z</time>
<desc>lat.=22.320702, lon.=103.770691, Alt.=2586.158203m. Speed=2.916000m/h.</desc>
<speed>0.810000</speed>
</trkpt>
<trkpt lat="22.320721" lon="103.770721">
<ele>2587.283203</ele>
<time>2011-04-24T08:23:38Z</time>
<desc>lat.=22.320721, lon.=103.770721, Alt.=2587.283203m. Speed=2.952000m/h.</desc>
<speed>0.820000</speed>
</trkpt>
<trkpt lat="22.320749" lon="103.770752">
<ele>2587.095703</ele>
<time>2011-04-24T08:23:43Z</time>
<desc>lat.=22.320749, lon.=103.770752, Alt.=2587.095703m. Speed=2.268000m/h.</desc>
<speed>0.630000</speed>
</trkpt>
<trkpt lat="22.320795" lon="103.770760">
<ele>2587.533203</ele>
<time>2011-04-24T08:23:48Z</time>
<desc>lat.=22.320795, lon.=103.770760, Alt.=2587.533203m. Speed=2.988000m/h.</desc>
<speed>0.830000</speed>
</trkpt>
<trkpt lat="22.320810" lon="103.770790">
<ele>2587.970703</ele>
<time>2011-04-24T08:23:53Z</time>
<desc>lat.=22.320810, lon.=103.770790, Alt.=2587.970703m. Speed=1.692000m/h.</desc>
<speed>0.470000</speed>
</trkpt>
<trkpt lat="22.320822" lon="103.770790">
<ele>2586.595703</ele>
<time>2011-04-24T08:23:58Z</time>
<desc>lat.=22.320822, lon.=103.770790, Alt.=2586.595703m. Speed=1.656000m/h.</desc>
<speed>0.460000</speed>
</trkpt>
<trkpt lat="22.320850" lon="103.770813">
<ele>2586.158203</ele>
<time>2011-04-24T08:24:03Z</time>
<desc>lat.=22.320850, lon.=103.770813, Alt.=2586.158203m. Speed=3.096000m/h.</desc>
<speed>0.860000</speed>
</trkpt>
<trkpt lat="22.320898" lon="103.770821">
<ele>2585.220703</ele>
<time>2011-04-24T08:24:08Z</time>
<desc>lat.=22.320898, lon.=103.770821, Alt.=2585.220703m. Speed=5.040000m/h.</desc>
<speed>1.400000</speed>
</trkpt>
<trkpt lat="22.320946" lon="103.770836">
<ele>2585.220703</ele>
<time>2011-04-24T08:24:13Z</time>
<desc>lat.=22.320946, lon.=103.770836, Alt.=2585.220703m. Speed=3.924000m/h.</desc>
<speed>1.090000</speed>
</trkpt>
<trkpt lat="22.320976" lon="103.770859">
<ele>2584.470703</ele>
<time>2011-04-24T08:24:18Z</time>
<desc>lat.=22.320976, lon.=103.770859, Alt.=2584.470703m. Speed=0.612000m/h.</desc>
<speed>0.170000</speed>
</trkpt>
<trkpt lat="22.320984" lon="103.770859">
<ele>2583.533203</ele>
<time>2011-04-24T08:24:23Z</time>
<desc>lat.=22.320984, lon.=103.770859, Alt.=2583.533203m. Speed=0.324000m/h.</desc>
<speed>0.090000</speed>
</trkpt>
<trkpt lat="22.320988" lon="103.770866">
<ele>2582.845703</ele>
<time>2011-04-24T08:24:28Z</time>
<desc>lat.=22.320988, lon.=103.770866, Alt.=2582.845703m. Speed=0.396000m/h.</desc>
<speed>0.110000</speed>
</trkpt>
<trkpt lat="22.320992" lon="103.770866">
<ele>2582.408203</ele>
<time>2011-04-24T08:24:33Z</time>
<desc>lat.=22.320992, lon.=103.770866, Alt.=2582.408203m. Speed=1.296000m/h.</desc>
<speed>0.360000</speed>
</trkpt>
<trkpt lat="22.321014" lon="103.770889">
<ele>2582.158203</ele>
<time>2011-04-24T08:24:38Z</time>
<desc>lat.=22.321014, lon.=103.770889, Alt.=2582.158203m. Speed=3.564000m/h.</desc>
<speed>0.990000</speed>
</trkpt>
<trkpt lat="22.321051" lon="103.770897">
<ele>2581.283203</ele>
<time>2011-04-24T08:24:43Z</time>
<desc>lat.=22.321051, lon.=103.770897, Alt.=2581.283203m. Speed=3.564000m/h.</desc>
<speed>0.990000</speed>
</trkpt>
<trkpt lat="22.321075" lon="103.770905">
<ele>2580.408203</ele>
<time>2011-04-24T08:24:48Z</time>
<desc>lat.=22.321075, lon.=103.770905, Alt.=2580.408203m. Speed=1.836000m/h.</desc>
<speed>0.510000</speed>
</trkpt>
<trkpt lat="22.321098" lon="103.770889">
<ele>2580.845703</ele>
<time>2011-04-24T08:24:53Z</time>
<desc>lat.=22.321098, lon.=103.770889, Alt.=2580.845703m. Speed=2.016000m/h.</desc>
<speed>0.560000</speed>
</trkpt>
<trkpt lat="22.321110" lon="103.770882">
<ele>2581.658203</ele>
<time>2011-04-24T08:24:58Z</time>
<desc>lat.=22.321110, lon.=103.770882, Alt.=2581.658203m. Speed=1.116000m/h.</desc>
<speed>0.310000</speed>
</trkpt>
<trkpt lat="22.321106" lon="103.770882">
<ele>2582.470703</ele>
<time>2011-04-24T08:25:03Z</time>
<desc>lat.=22.321106, lon.=103.770882, Alt.=2582.470703m. Speed=0.288000m/h.</desc>
<speed>0.080000</speed>
</trkpt>
<trkpt lat="22.321115" lon="103.770874">
<ele>2582.345703</ele>
<time>2011-04-24T08:25:08Z</time>
<desc>lat.=22.321115, lon.=103.770874, Alt.=2582.345703m. Speed=1.224000m/h.</desc>
<speed>0.340000</speed>
</trkpt>
<trkpt lat="22.321142" lon="103.770866">
<ele>2581.720703</ele>
<time>2011-04-24T08:25:13Z</time>
<desc>lat.=22.321142, lon.=103.770866, Alt.=2581.720703m. Speed=2.160000m/h.</desc>
<speed>0.600000</speed>
</trkpt>
<trkpt lat="22.321171" lon="103.770874">
<ele>2580.908203</ele>
<time>2011-04-24T08:25:18Z</time>
<desc>lat.=22.321171, lon.=103.770874, Alt.=2580.908203m. Speed=2.412000m/h.</desc>
<speed>0.670000</speed>
</trkpt>
<trkpt lat="22.321188" lon="103.770882">
<ele>2580.908203</ele>
<time>2011-04-24T08:25:23Z</time>
<desc>lat.=22.321188, lon.=103.770882, Alt.=2580.908203m. Speed=1.764000m/h.</desc>
<speed>0.490000</speed>
</trkpt>
<trkpt lat="22.321215" lon="103.770882">
<ele>2580.220703</ele>
<time>2011-04-24T08:25:28Z</time>
<desc>lat.=22.321215, lon.=103.770882, Alt.=2580.220703m. Speed=3.564000m/h.</desc>
<speed>0.990000</speed>
</trkpt>
<trkpt lat="22.321257" lon="103.770905">
<ele>2579.220703</ele>
<time>2011-04-24T08:25:33Z</time>
<desc>lat.=22.321257, lon.=103.770905, Alt.=2579.220703m. Speed=1.728000m/h.</desc>
<speed>0.480000</speed>
</trkpt>
<trkpt lat="22.321278" lon="103.770927">
<ele>2577.470703</ele>
<time>2011-04-24T08:25:38Z</time>
<desc>lat.=22.321278, lon.=103.770927, Alt.=2577.470703m. Speed=1.908000m/h.</desc>
<speed>0.530000</speed>
</trkpt>
<trkpt lat="22.321304" lon="103.770927">
<ele>2576.345703</ele>
<time>2011-04-24T08:25:43Z</time>
<desc>lat.=22.321304, lon.=103.770927, Alt.=2576.345703m. Speed=2.160000m/h.</desc>
<speed>0.600000</speed>
</trkpt>
<trkpt lat="22.321321" lon="103.770927">
<ele>2575.720703</ele>
<time>2011-04-24T08:25:48Z</time>
<desc>lat.=22.321321, lon.=103.770927, Alt.=2575.720703m. Speed=1.476000m/h.</desc>
<speed>0.410000</speed>
</trkpt>
<trkpt lat="22.321335" lon="103.770920">
<ele>2574.970703</ele>
<time>2011-04-24T08:25:53Z</time>
<desc>lat.=22.321335, lon.=103.770920, Alt.=2574.970703m. Speed=1.080000m/h.</desc>
<speed>0.300000</speed>
</trkpt>
<trkpt lat="22.321350" lon="103.770912">
<ele>2574.220703</ele>
<time>2011-04-24T08:25:58Z</time>
<desc>lat.=22.321350, lon.=103.770912, Alt.=2574.220703m. Speed=1.296000m/h.</desc>
<speed>0.360000</speed>
</trkpt>
<trkpt lat="22.321369" lon="103.770927">
<ele>2574.283203</ele>
<time>2011-04-24T08:26:03Z</time>
<desc>lat.=22.321369, lon.=103.770927, Alt.=2574.283203m. Speed=1.188000m/h.</desc>
<speed>0.330000</speed>
</trkpt>
<trkpt lat="22.321386" lon="103.770935">
<ele>2572.595703</ele>
<time>2011-04-24T08:26:08Z</time>
<desc>lat.=22.321386, lon.=103.770935, Alt.=2572.595703m. Speed=1.008000m/h.</desc>
<speed>0.280000</speed>
</trkpt>
<trkpt lat="22.321409" lon="103.770920">
<ele>2572.220703</ele>
<time>2011-04-24T08:26:13Z</time>
<desc>lat.=22.321409, lon.=103.770920, Alt.=2572.220703m. Speed=1.332000m/h.</desc>
<speed>0.370000</speed>
</trkpt>
<trkpt lat="22.321438" lon="103.770905">
<ele>2570.908203</ele>
<time>2011-04-24T08:26:18Z</time>
<desc>lat.=22.321438, lon.=103.770905, Alt.=2570.908203m. Speed=2.592000m/h.</desc>
<speed>0.720000</speed>
</trkpt>
<trkpt lat="22.321493" lon="103.770912">
<ele>2569.220703</ele>
<time>2011-04-24T08:26:23Z</time>
<desc>lat.=22.321493, lon.=103.770912, Alt.=2569.220703m. Speed=3.456000m/h.</desc>
<speed>0.960000</speed>
</trkpt>
<trkpt lat="22.321539" lon="103.770912">
<ele>2567.470703</ele>
<time>2011-04-24T08:26:28Z</time>
<desc>lat.=22.321539, lon.=103.770912, Alt.=2567.470703m. Speed=3.636000m/h.</desc>
<speed>1.010000</speed>
</trkpt>
<trkpt lat="22.321589" lon="103.770897">
<ele>2567.408203</ele>
<time>2011-04-24T08:26:33Z</time>
<desc>lat.=22.321589, lon.=103.770897, Alt.=2567.408203m. Speed=4.068000m/h.</desc>
<speed>1.130000</speed>
</trkpt>
<trkpt lat="22.321619" lon="103.770897">
<ele>2566.220703</ele>
<time>2011-04-24T08:26:38Z</time>
<desc>lat.=22.321619, lon.=103.770897, Alt.=2566.220703m. Speed=0.468000m/h.</desc>
<speed>0.130000</speed>
</trkpt>
<trkpt lat="22.321615" lon="103.770905">
<ele>2565.470703</ele>
<time>2011-04-24T08:26:43Z</time>
<desc>lat.=22.321615, lon.=103.770905, Alt.=2565.470703m. Speed=0.072000m/h.</desc>
<speed>0.020000</speed>
</trkpt>
<trkpt lat="22.321613" lon="103.770905">
<ele>2565.470703</ele>
<time>2011-04-24T08:26:48Z</time>
<desc>lat.=22.321613, lon.=103.770905, Alt.=2565.470703m. Speed=0.504000m/h.</desc>
<speed>0.140000</speed>
</trkpt>
<trkpt lat="22.321615" lon="103.770912">
<ele>2565.470703</ele>
<time>2011-04-24T08:26:53Z</time>
<desc>lat.=22.321615, lon.=103.770912, Alt.=2565.470703m. Speed=0.216000m/h.</desc>
<speed>0.060000</speed>
</trkpt>
<trkpt lat="22.321619" lon="103.770912">
<ele>2565.408203</ele>
<time>2011-04-24T08:26:58Z</time>
<desc>lat.=22.321619, lon.=103.770912, Alt.=2565.408203m. Speed=0.432000m/h.</desc>
<speed>0.120000</speed>
</trkpt>
<trkpt lat="22.321623" lon="103.770912">
<ele>2565.408203</ele>
<time>2011-04-24T08:27:03Z</time>
<desc>lat.=22.321623, lon.=103.770912, Alt.=2565.408203m. Speed=0.252000m/h.</desc>
<speed>0.070000</speed>
</trkpt>
<trkpt lat="22.321623" lon="103.770920">
<ele>2565.408203</ele>
<time>2011-04-24T08:27:08Z</time>
<desc>lat.=22.321623, lon.=103.770920, Alt.=2565.408203m. Speed=0.180000m/h.</desc>
<speed>0.050000</speed>
</trkpt>
<trkpt lat="22.321621" lon="103.770920">
<ele>2565.408203</ele>
<time>2011-04-24T08:27:13Z</time>
<desc>lat.=22.321621, lon.=103.770920, Alt.=2565.408203m. Speed=0.072000m/h.</desc>
<speed>0.020000</speed>
</trkpt>
<trkpt lat="22.321608" lon="103.770912">
<ele>2565.658203</ele>
<time>2011-04-24T08:27:18Z</time>
<desc>lat.=22.321608, lon.=103.770912, Alt.=2565.658203m. Speed=1.584000m/h.</desc>
<speed>0.440000</speed>
</trkpt>
<trkpt lat="22.321629" lon="103.770889">
<ele>2566.345703</ele>
<time>2011-04-24T08:27:23Z</time>
<desc>lat.=22.321629, lon.=103.770889, Alt.=2566.345703m. Speed=1.296000m/h.</desc>
<speed>0.360000</speed>
</trkpt>
<trkpt lat="22.321657" lon="103.770889">
<ele>2566.220703</ele>
<time>2011-04-24T08:27:28Z</time>
<desc>lat.=22.321657, lon.=103.770889, Alt.=2566.220703m. Speed=2.448000m/h.</desc>
<speed>0.680000</speed>
</trkpt>
<trkpt lat="22.321692" lon="103.770889">
<ele>2564.658203</ele>
<time>2011-04-24T08:27:33Z</time>
<desc>lat.=22.321692, lon.=103.770889, Alt.=2564.658203m. Speed=3.240000m/h.</desc>
<speed>0.900000</speed>
</trkpt>
<trkpt lat="22.321699" lon="103.770905">
<ele>2563.408203</ele>
<time>2011-04-24T08:27:38Z</time>
<desc>lat.=22.321699, lon.=103.770905, Alt.=2563.408203m. Speed=1.044000m/h.</desc>
<speed>0.290000</speed>
</trkpt>
<trkpt lat="22.321709" lon="103.770912">
<ele>2561.658203</ele>
<time>2011-04-24T08:27:43Z</time>
<desc>lat.=22.321709, lon.=103.770912, Alt.=2561.658203m. Speed=1.008000m/h.</desc>
<speed>0.280000</speed>
</trkpt>
<trkpt lat="22.321716" lon="103.770912">
<ele>2560.033203</ele>
<time>2011-04-24T08:27:48Z</time>
<desc>lat.=22.321716, lon.=103.770912, Alt.=2560.033203m. Speed=0.108000m/h.</desc>
<speed>0.030000</speed>
</trkpt>
<trkpt lat="22.321724" lon="103.770920">
<ele>2558.908203</ele>
<time>2011-04-24T08:27:53Z</time>
<desc>lat.=22.321724, lon.=103.770920, Alt.=2558.908203m. Speed=2.124000m/h.</desc>
<speed>0.590000</speed>
</trkpt>
<trkpt lat="22.321739" lon="103.770920">
<ele>2556.845703</ele>
<time>2011-04-24T08:27:58Z</time>
<desc>lat.=22.321739, lon.=103.770920, Alt.=2556.845703m. Speed=2.412000m/h.</desc>
<speed>0.670000</speed>
</trkpt>
<trkpt lat="22.321764" lon="103.770920">
<ele>2554.970703</ele>
<time>2011-04-24T08:28:03Z</time>
<desc>lat.=22.321764, lon.=103.770920, Alt.=2554.970703m. Speed=1.584000m/h.</desc>
<speed>0.440000</speed>
</trkpt>
<trkpt lat="22.321777" lon="103.770920">
<ele>2553.470703</ele>
<time>2011-04-24T08:28:08Z</time>
<desc>lat.=22.321777, lon.=103.770920, Alt.=2553.470703m. Speed=0.360000m/h.</desc>
<speed>0.100000</speed>
</trkpt>
<trkpt lat="22.321789" lon="103.770943">
<ele>2552.408203</ele>
<time>2011-04-24T08:28:13Z</time>
<desc>lat.=22.321789, lon.=103.770943, Alt.=2552.408203m. Speed=2.124000m/h.</desc>
<speed>0.590000</speed>
</trkpt>
<trkpt lat="22.321806" lon="103.770935">
<ele>2551.658203</ele>
<time>2011-04-24T08:28:18Z</time>
<desc>lat.=22.321806, lon.=103.770935, Alt.=2551.658203m. Speed=0.972000m/h.</desc>
<speed>0.270000</speed>
</trkpt>
<trkpt lat="22.321835" lon="103.770935">
<ele>2550.845703</ele>
<time>2011-04-24T08:28:23Z</time>
<desc>lat.=22.321835, lon.=103.770935, Alt.=2550.845703m. Speed=1.980000m/h.</desc>
<speed>0.550000</speed>
</trkpt>
<trkpt lat="22.321848" lon="103.770958">
<ele>2549.470703</ele>
<time>2011-04-24T08:28:28Z</time>
<desc>lat.=22.321848, lon.=103.770958, Alt.=2549.470703m. Speed=1.944000m/h.</desc>
<speed>0.540000</speed>
</trkpt>
<trkpt lat="22.321859" lon="103.770950">
<ele>2548.033203</ele>
<time>2011-04-24T08:28:33Z</time>
<desc>lat.=22.321859, lon.=103.770950, Alt.=2548.033203m. Speed=0.972000m/h.</desc>
<speed>0.270000</speed>
</trkpt>
<trkpt lat="22.321861" lon="103.770927">
<ele>2547.408203</ele>
<time>2011-04-24T08:28:38Z</time>
<desc>lat.=22.321861, lon.=103.770927, Alt.=2547.408203m. Speed=1.944000m/h.</desc>
<speed>0.540000</speed>
</trkpt>
<trkpt lat="22.321882" lon="103.770920">
<ele>2546.908203</ele>
<time>2011-04-24T08:28:43Z</time>
<desc>lat.=22.321882, lon.=103.770920, Alt.=2546.908203m. Speed=2.088000m/h.</desc>
<speed>0.580000</speed>
</trkpt>
<trkpt lat="22.321913" lon="103.770912">
<ele>2546.033203</ele>
<time>2011-04-24T08:28:48Z</time>
<desc>lat.=22.321913, lon.=103.770912, Alt.=2546.033203m. Speed=2.520000m/h.</desc>
<speed>0.700000</speed>
</trkpt>
<trkpt lat="22.321943" lon="103.770905">
<ele>2544.908203</ele>
<time>2011-04-24T08:28:53Z</time>
<desc>lat.=22.321943, lon.=103.770905, Alt.=2544.908203m. Speed=2.484000m/h.</desc>
<speed>0.690000</speed>
</trkpt>
<trkpt lat="22.321974" lon="103.770897">
<ele>2544.783203</ele>
<time>2011-04-24T08:28:58Z</time>
<desc>lat.=22.321974, lon.=103.770897, Alt.=2544.783203m. Speed=2.016000m/h.</desc>
<speed>0.560000</speed>
</trkpt>
<trkpt lat="22.321970" lon="103.770920">
<ele>2544.345703</ele>
<time>2011-04-24T08:29:03Z</time>
<desc>lat.=22.321970, lon.=103.770920, Alt.=2544.345703m. Speed=0.072000m/h.</desc>
<speed>0.020000</speed>
</trkpt>
<trkpt lat="22.321974" lon="103.770920">
<ele>2544.220703</ele>
<time>2011-04-24T08:29:08Z</time>
<desc>lat.=22.321974, lon.=103.770920, Alt.=2544.220703m. Speed=0.324000m/h.</desc>
<speed>0.090000</speed>
</trkpt>
<trkpt lat="22.321991" lon="103.770912">
<ele>2543.283203</ele>
<time>2011-04-24T08:29:13Z</time>
<desc>lat.=22.321991, lon.=103.770912, Alt.=2543.283203m. Speed=2.052000m/h.</desc>
<speed>0.570000</speed>
</trkpt>
<trkpt lat="22.322004" lon="103.770905">
<ele>2542.720703</ele>
<time>2011-04-24T08:29:18Z</time>
<desc>lat.=22.322004, lon.=103.770905, Alt.=2542.720703m. Speed=1.764000m/h.</desc>
<speed>0.490000</speed>
</trkpt>
<trkpt lat="22.322018" lon="103.770889">
<ele>2542.345703</ele>
<time>2011-04-24T08:29:23Z</time>
<desc>lat.=22.322018, lon.=103.770889, Alt.=2542.345703m. Speed=1.944000m/h.</desc>
<speed>0.540000</speed>
</trkpt>
<trkpt lat="22.322048" lon="103.770897">
<ele>2541.720703</ele>
<time>2011-04-24T08:29:28Z</time>
<desc>lat.=22.322048, lon.=103.770897, Alt.=2541.720703m. Speed=3.276000m/h.</desc>
<speed>0.910000</speed>
</trkpt>
<trkpt lat="22.322067" lon="103.770912">
<ele>2539.283203</ele>
<time>2011-04-24T08:29:33Z</time>
<desc>lat.=22.322067, lon.=103.770912, Alt.=2539.283203m. Speed=1.980000m/h.</desc>
<speed>0.550000</speed>
</trkpt>
<trkpt lat="22.322081" lon="103.770897">
<ele>2538.970703</ele>
<time>2011-04-24T08:29:38Z</time>
<desc>lat.=22.322081, lon.=103.770897, Alt.=2538.970703m. Speed=0.612000m/h.</desc>
<speed>0.170000</speed>
</trkpt>
<trkpt lat="22.322088" lon="103.770874">
<ele>2539.345703</ele>
<time>2011-04-24T08:29:43Z</time>
<desc>lat.=22.322088, lon.=103.770874, Alt.=2539.345703m. Speed=1.368000m/h.</desc>
<speed>0.380000</speed>
</trkpt>
<trkpt lat="22.322113" lon="103.770844">
<ele>2539.095703</ele>
<time>2011-04-24T08:29:48Z</time>
<desc>lat.=22.322113, lon.=103.770844, Alt.=2539.095703m. Speed=2.340000m/h.</desc>
<speed>0.650000</speed>
</trkpt>
<trkpt lat="22.322144" lon="103.770828">
<ele>2538.720703</ele>
<time>2011-04-24T08:29:53Z</time>
<desc>lat.=22.322144, lon.=103.770828, Alt.=2538.720703m. Speed=1.440000m/h.</desc>
<speed>0.400000</speed>
</trkpt>
<trkpt lat="22.322138" lon="103.770836">
<ele>2538.220703</ele>
<time>2011-04-24T08:29:58Z</time>
<desc>lat.=22.322138, lon.=103.770836, Alt.=2538.220703m. Speed=0.432000m/h.</desc>
<speed>0.120000</speed>
</trkpt>
<trkpt lat="22.322155" lon="103.770821">
<ele>2537.658203</ele>
<time>2011-04-24T08:30:03Z</time>
<desc>lat.=22.322155, lon.=103.770821, Alt.=2537.658203m. Speed=2.232000m/h.</desc>
<speed>0.620000</speed>
</trkpt>
<trkpt lat="22.322172" lon="103.770813">
<ele>2537.033203</ele>
<time>2011-04-24T08:30:08Z</time>
<desc>lat.=22.322172, lon.=103.770813, Alt.=2537.033203m. Speed=1.332000m/h.</desc>
<speed>0.370000</speed>
</trkpt>
<trkpt lat="22.322187" lon="103.770813">
<ele>2535.908203</ele>
<time>2011-04-24T08:30:13Z</time>
<desc>lat.=22.322187, lon.=103.770813, Alt.=2535.908203m. Speed=1.512000m/h.</desc>
<speed>0.420000</speed>
</trkpt>
<trkpt lat="22.322206" lon="103.770813">
<ele>2533.720703</ele>
<time>2011-04-24T08:30:18Z</time>
<desc>lat.=22.322206, lon.=103.770813, Alt.=2533.720703m. Speed=2.772000m/h.</desc>
<speed>0.770000</speed>
</trkpt>
<trkpt lat="22.322237" lon="103.770828">
<ele>2532.095703</ele>
<time>2011-04-24T08:30:23Z</time>
<desc>lat.=22.322237, lon.=103.770828, Alt.=2532.095703m. Speed=1.656000m/h.</desc>
<speed>0.460000</speed>
</trkpt>
<trkpt lat="22.322258" lon="103.770813">
<ele>2531.408203</ele>
<time>2011-04-24T08:30:28Z</time>
<desc>lat.=22.322258, lon.=103.770813, Alt.=2531.408203m. Speed=2.052000m/h.</desc>
<speed>0.570000</speed>
</trkpt>
<trkpt lat="22.322315" lon="103.770805">
<ele>2530.408203</ele>
<time>2011-04-24T08:30:33Z</time>
<desc>lat.=22.322315, lon.=103.770805, Alt.=2530.408203m. Speed=4.788000m/h.</desc>
<speed>1.330000</speed>
</trkpt>
<trkpt lat="22.322369" lon="103.770790">
<ele>2530.095703</ele>
<time>2011-04-24T08:30:38Z</time>
<desc>lat.=22.322369, lon.=103.770790, Alt.=2530.095703m. Speed=2.808000m/h.</desc>
<speed>0.780000</speed>
</trkpt>
<trkpt lat="22.322369" lon="103.770782">
<ele>2529.845703</ele>
<time>2011-04-24T08:30:43Z</time>
<desc>lat.=22.322369, lon.=103.770782, Alt.=2529.845703m. Speed=2.196000m/h.</desc>
<speed>0.610000</speed>
</trkpt>
<trkpt lat="22.322395" lon="103.770813">
<ele>2528.533203</ele>
<time>2011-04-24T08:30:48Z</time>
<desc>lat.=22.322395, lon.=103.770813, Alt.=2528.533203m. Speed=1.908000m/h.</desc>
<speed>0.530000</speed>
</trkpt>
<trkpt lat="22.322393" lon="103.770859">
<ele>2527.033203</ele>
<time>2011-04-24T08:30:53Z</time>
<desc>lat.=22.322393, lon.=103.770859, Alt.=2527.033203m. Speed=2.052000m/h.</desc>
<speed>0.570000</speed>
</trkpt>
<trkpt lat="22.322405" lon="103.770866">
<ele>2526.470703</ele>
<time>2011-04-24T08:30:58Z</time>
<desc>lat.=22.322405, lon.=103.770866, Alt.=2526.470703m. Speed=1.008000m/h.</desc>
<speed>0.280000</speed>
</trkpt>
<trkpt lat="22.322420" lon="103.770866">
<ele>2525.345703</ele>
<time>2011-04-24T08:31:03Z</time>
<desc>lat.=22.322420, lon.=103.770866, Alt.=2525.345703m. Speed=0.900000m/h.</desc>
<speed>0.250000</speed>
</trkpt>
<trkpt lat="22.322426" lon="103.770874">
<ele>2524.845703</ele>
<time>2011-04-24T08:31:08Z</time>
<desc>lat.=22.322426, lon.=103.770874, Alt.=2524.845703m. Speed=0.828000m/h.</desc>
<speed>0.230000</speed>
</trkpt>
<trkpt lat="22.322439" lon="103.770905">
<ele>2523.033203</ele>
<time>2011-04-24T08:31:13Z</time>
<desc>lat.=22.322439, lon.=103.770905, Alt.=2523.033203m. Speed=1.836000m/h.</desc>
<speed>0.510000</speed>
</trkpt>
<trkpt lat="22.322451" lon="103.770912">
<ele>2521.158203</ele>
<time>2011-04-24T08:31:18Z</time>
<desc>lat.=22.322451, lon.=103.770912, Alt.=2521.158203m. Speed=0.900000m/h.</desc>
<speed>0.250000</speed>
</trkpt>
<trkpt lat="22.322454" lon="103.770912">
<ele>2520.595703</ele>
<time>2011-04-24T08:31:23Z</time>
<desc>lat.=22.322454, lon.=103.770912, Alt.=2520.595703m. Speed=0.504000m/h.</desc>
<speed>0.140000</speed>
</trkpt>
<trkpt lat="22.322460" lon="103.770912">
<ele>2520.408203</ele>
<time>2011-04-24T08:31:28Z</time>
<desc>lat.=22.322460, lon.=103.770912, Alt.=2520.408203m. Speed=0.720000m/h.</desc>
<speed>0.200000</speed>
</trkpt>
<trkpt lat="22.322464" lon="103.770912">
<ele>2519.533203</ele>
<time>2011-04-24T08:31:33Z</time>
<desc>lat.=22.322464, lon.=103.770912, Alt.=2519.533203m. Speed=0.288000m/h.</desc>
<speed>0.080000</speed>
</trkpt>
<trkpt lat="22.322466" lon="103.770920">
<ele>2518.720703</ele>
<time>2011-04-24T08:31:38Z</time>
<desc>lat.=22.322466, lon.=103.770920, Alt.=2518.720703m. Speed=0.468000m/h.</desc>
<speed>0.130000</speed>
</trkpt>
<trkpt lat="22.322464" lon="103.770943">
<ele>2515.595703</ele>
<time>2011-04-24T08:31:43Z</time>
<desc>lat.=22.322464, lon.=103.770943, Alt.=2515.595703m. Speed=1.080000m/h.</desc>
<speed>0.300000</speed>
</trkpt>
<trkpt lat="22.322464" lon="103.770943">
<ele>2514.658203</ele>
<time>2011-04-24T08:31:48Z</time>
<desc>lat.=22.322464, lon.=103.770943, Alt.=2514.658203m. Speed=0.216000m/h.</desc>
<speed>0.060000</speed>
</trkpt>
<trkpt lat="22.322466" lon="103.770943">
<ele>2513.595703</ele>
<time>2011-04-24T08:31:53Z</time>
<desc>lat.=22.322466, lon.=103.770943, Alt.=2513.595703m. Speed=0.396000m/h.</desc>
<speed>0.110000</speed>
</trkpt>
<trkpt lat="22.322474" lon="103.770950">
<ele>2512.470703</ele>
<time>2011-04-24T08:31:58Z</time>
<desc>lat.=22.322474, lon.=103.770950, Alt.=2512.470703m. Speed=0.828000m/h.</desc>
<speed>0.230000</speed>
</trkpt>
<trkpt lat="22.322481" lon="103.770966">
<ele>2511.658203</ele>
<time>2011-04-24T08:32:03Z</time>
<desc>lat.=22.322481, lon.=103.770966, Alt.=2511.658203m. Speed=0.720000m/h.</desc>
<speed>0.200000</speed>
</trkpt>
<trkpt lat="22.322487" lon="103.770966">
<ele>2510.470703</ele>
<time>2011-04-24T08:32:08Z</time>
<desc>lat.=22.322487, lon.=103.770966, Alt.=2510.470703m. Speed=1.080000m/h.</desc>
<speed>0.300000</speed>
</trkpt>
<trkpt lat="22.322477" lon="103.770973">
<ele>2509.595703</ele>
<time>2011-04-24T08:32:13Z</time>
<desc>lat.=22.322477, lon.=103.770973, Alt.=2509.595703m. Speed=0.288000m/h.</desc>
<speed>0.080000</speed>
</trkpt>
<trkpt lat="22.322479" lon="103.770973">
<ele>2508.533203</ele>
<time>2011-04-24T08:32:18Z</time>
<desc>lat.=22.322479, lon.=103.770973, Alt.=2508.533203m. Speed=0.144000m/h.</desc>
<speed>0.040000</speed>
</trkpt>
<trkpt lat="22.322477" lon="103.770981">
<ele>2507.658203</ele>
<time>2011-04-24T08:32:23Z</time>
<desc>lat.=22.322477, lon.=103.770981, Alt.=2507.658203m. Speed=0.540000m/h.</desc>
<speed>0.150000</speed>
</trkpt>
<trkpt lat="22.322477" lon="103.770988">
<ele>2507.095703</ele>
<time>2011-04-24T08:32:28Z</time>
<desc>lat.=22.322477, lon.=103.770988, Alt.=2507.095703m. Speed=0.756000m/h.</desc>
<speed>0.210000</speed>
</trkpt>
<trkpt lat="22.322481" lon="103.770988">
<ele>2506.533203</ele>
<time>2011-04-24T08:32:33Z</time>
<desc>lat.=22.322481, lon.=103.770988, Alt.=2506.533203m. Speed=0.144000m/h.</desc>
<speed>0.040000</speed>
</trkpt>
<trkpt lat="22.322481" lon="103.770996">
<ele>2505.908203</ele>
<time>2011-04-24T08:32:38Z</time>
<desc>lat.=22.322481, lon.=103.770996, Alt.=2505.908203m. Speed=1.044000m/h.</desc>
<speed>0.290000</speed>
</trkpt>
<trkpt lat="22.322491" lon="103.770988">
<ele>2504.783203</ele>
<time>2011-04-24T08:32:43Z</time>
<desc>lat.=22.322491, lon.=103.770988, Alt.=2504.783203m. Speed=0.900000m/h.</desc>
<speed>0.250000</speed>
</trkpt>
<trkpt lat="22.322498" lon="103.770973">
<ele>2504.033203</ele>
<time>2011-04-24T08:32:48Z</time>
<desc>lat.=22.322498, lon.=103.770973, Alt.=2504.033203m. Speed=0.720000m/h.</desc>
<speed>0.200000</speed>
</trkpt>
<trkpt lat="22.322504" lon="103.770973">
<ele>2503.408203</ele>
<time>2011-04-24T08:32:53Z</time>
<desc>lat.=22.322504, lon.=103.770973, Alt.=2503.408203m. Speed=0.252000m/h.</desc>
<speed>0.070000</speed>
</trkpt>
<trkpt lat="22.322504" lon="103.770973">
<ele>2502.908203</ele>
<time>2011-04-24T08:32:58Z</time>
<desc>lat.=22.322504, lon.=103.770973, Alt.=2502.908203m. Speed=0.180000m/h.</desc>
<speed>0.050000</speed>
</trkpt>
<trkpt lat="22.322502" lon="103.770973">
<ele>2502.408203</ele>
<time>2011-04-24T08:33:03Z</time>
<desc>lat.=22.322502, lon.=103.770973, Alt.=2502.408203m. Speed=0.288000m/h.</desc>
<speed>0.080000</speed>
</trkpt>
<trkpt lat="22.322500" lon="103.770973">
<ele>2502.033203</ele>
<time>2011-04-24T08:33:08Z</time>
<desc>lat.=22.322500, lon.=103.770973, Alt.=2502.033203m. Speed=0.072000m/h.</desc>
<speed>0.020000</speed>
</trkpt>
<trkpt lat="22.322502" lon="103.770973">
<ele>2501.595703</ele>
<time>2011-04-24T08:33:13Z</time>
<desc>lat.=22.322502, lon.=103.770973, Alt.=2501.595703m. Speed=0.144000m/h.</desc>
<speed>0.040000</speed>
</trkpt>
<trkpt lat="22.322502" lon="103.770973">
<ele>2501.408203</ele>
<time>2011-04-24T08:33:18Z</time>
<desc>lat.=22.322502, lon.=103.770973, Alt.=2501.408203m. Speed=0.036000m/h.</desc>
<speed>0.010000</speed>
</trkpt>
<trkpt lat="22.322502" lon="103.770973">
<ele>2501.408203</ele>
<time>2011-04-24T08:33:23Z</time>
<desc>lat.=22.322502, lon.=103.770973, Alt.=2501.408203m. Speed=0.036000m/h.</desc>
<speed>0.010000</speed>
</trkpt>
<trkpt lat="22.322502" lon="103.770973">
<ele>2501.408203</ele>
<time>2011-04-24T08:33:28Z</time>
<desc>lat.=22.322502, lon.=103.770973, Alt.=2501.408203m. Speed=0.072000m/h.</desc>
<speed>0.020000</speed>
</trkpt>
<trkpt lat="22.322502" lon="103.770973">
<ele>2501.345703</ele>
<time>2011-04-24T08:33:33Z</time>
<desc>lat.=22.322502, lon.=103.770973, Alt.=2501.345703m. Speed=0.216000m/h.</desc>
<speed>0.060000</speed>
</trkpt>
<trkpt lat="22.322504" lon="103.770973">
<ele>2501.345703</ele>
<time>2011-04-24T08:33:38Z</time>
<desc>lat.=22.322504, lon.=103.770973, Alt.=2501.345703m. Speed=0.216000m/h.</desc>
<speed>0.060000</speed>
</trkpt>
<trkpt lat="22.322504" lon="103.770973">
<ele>2501.345703</ele>
<time>2011-04-24T08:33:43Z</time>
<desc>lat.=22.322504, lon.=103.770973, Alt.=2501.345703m. Speed=0.468000m/h.</desc>
<speed>0.130000</speed>
</trkpt>
<trkpt lat="22.322504" lon="103.770973">
<ele>2501.283203</ele>
<time>2011-04-24T08:33:48Z</time>
<desc>lat.=22.322504, lon.=103.770973, Alt.=2501.283203m. Speed=0.000000m/h.</desc>
<speed>0.000000</speed>
</trkpt>
<trkpt lat="22.322504" lon="103.770973">
<ele>2501.283203</ele>
<time>2011-04-24T08:33:53Z</time>
<desc>lat.=22.322504, lon.=103.770973, Alt.=2501.283203m. Speed=0.144000m/h.</desc>
<speed>0.040000</speed>
</trkpt>
<trkpt lat="22.322504" lon="103.770973">
<ele>2501.220703</ele>
<time>2011-04-24T08:33:58Z</time>
<desc>lat.=22.322504, lon.=103.770973, Alt.=2501.220703m. Speed=0.036000m/h.</desc>
<speed>0.010000</speed>
</trkpt>
<trkpt lat="22.322506" lon="103.770973">
<ele>2501.220703</ele>
<time>2011-04-24T08:34:03Z</time>
<desc>lat.=22.322506, lon.=103.770973, Alt.=2501.220703m. Speed=0.144000m/h.</desc>
<speed>0.040000</speed>
</trkpt>
<trkpt lat="22.322510" lon="103.770973">
<ele>2501.158203</ele>
<time>2011-04-24T08:34:08Z</time>
<desc>lat.=22.322510, lon.=103.770973, Alt.=2501.158203m. Speed=0.648000m/h.</desc>
<speed>0.180000</speed>
</trkpt>
<trkpt lat="22.322519" lon="103.770973">
<ele>2501.095703</ele>
<time>2011-04-24T08:34:13Z</time>
<desc>lat.=22.322519, lon.=103.770973, Alt.=2501.095703m. Speed=0.612000m/h.</desc>
<speed>0.170000</speed>
</trkpt>
<trkpt lat="22.322535" lon="103.770966">
<ele>2500.595703</ele>
<time>2011-04-24T08:34:18Z</time>
<desc>lat.=22.322535, lon.=103.770966, Alt.=2500.595703m. Speed=1.980000m/h.</desc>
<speed>0.550000</speed>
</trkpt>
<trkpt lat="22.322557" lon="103.770905">
<ele>2499.845703</ele>
<time>2011-04-24T08:34:23Z</time>
<desc>lat.=22.322557, lon.=103.770905, Alt.=2499.845703m. Speed=2.376000m/h.</desc>
<speed>0.660000</speed>
</trkpt>
<trkpt lat="22.322567" lon="103.770866">
<ele>2498.595703</ele>
<time>2011-04-24T08:34:28Z</time>
<desc>lat.=22.322567, lon.=103.770866, Alt.=2498.595703m. Speed=4.896000m/h.</desc>
<speed>1.360000</speed>
</trkpt>
<trkpt lat="22.322582" lon="103.770813">
<ele>2497.970703</ele>
<time>2011-04-24T08:34:33Z</time>
<desc>lat.=22.322582, lon.=103.770813, Alt.=2497.970703m. Speed=4.716000m/h.</desc>
<speed>1.310000</speed>
</trkpt>
<trkpt lat="22.322557" lon="103.770775">
<ele>2497.158203</ele>
<time>2011-04-24T08:34:38Z</time>
<desc>lat.=22.322557, lon.=103.770775, Alt.=2497.158203m. Speed=1.800000m/h.</desc>
<speed>0.500000</speed>
</trkpt>
<trkpt lat="22.322588" lon="103.770744">
<ele>2497.283203</ele>
<time>2011-04-24T08:34:43Z</time>
<desc>lat.=22.322588, lon.=103.770744, Alt.=2497.283203m. Speed=2.340000m/h.</desc>
<speed>0.650000</speed>
</trkpt>
<trkpt lat="22.322622" lon="103.770721">
<ele>2496.345703</ele>
<time>2011-04-24T08:34:48Z</time>
<desc>lat.=22.322622, lon.=103.770721, Alt.=2496.345703m. Speed=2.880000m/h.</desc>
<speed>0.800000</speed>
</trkpt>
<trkpt lat="22.322647" lon="103.770691">
<ele>2496.095703</ele>
<time>2011-04-24T08:34:53Z</time>
<desc>lat.=22.322647, lon.=103.770691, Alt.=2496.095703m. Speed=1.872000m/h.</desc>
<speed>0.520000</speed>
</trkpt>
<trkpt lat="22.322683" lon="103.770668">
<ele>2495.408203</ele>
<time>2011-04-24T08:34:58Z</time>
<desc>lat.=22.322683, lon.=103.770668, Alt.=2495.408203m. Speed=1.224000m/h.</desc>
<speed>0.340000</speed>
</trkpt>
<trkpt lat="22.322691" lon="103.770653">
<ele>2493.283203</ele>
<time>2011-04-24T08:35:03Z</time>
<desc>lat.=22.322691, lon.=103.770653, Alt.=2493.283203m. Speed=1.692000m/h.</desc>
<speed>0.470000</speed>
</trkpt>
<trkpt lat="22.322697" lon="103.770653">
<ele>2490.908203</ele>
<time>2011-04-24T08:35:08Z</time>
<desc>lat.=22.322697, lon.=103.770653, Alt.=2490.908203m. Speed=2.340000m/h.</desc>
<speed>0.650000</speed>
</trkpt>
<trkpt lat="22.322716" lon="103.770668">
<ele>2489.345703</ele>
<time>2011-04-24T08:35:13Z</time>
<desc>lat.=22.322716, lon.=103.770668, Alt.=2489.345703m. Speed=1.440000m/h.</desc>
<speed>0.400000</speed>
</trkpt>
<trkpt lat="22.322714" lon="103.770721">
<ele>2486.283203</ele>
<time>2011-04-24T08:35:18Z</time>
<desc>lat.=22.322714, lon.=103.770721, Alt.=2486.283203m. Speed=1.836000m/h.</desc>
<speed>0.510000</speed>
</trkpt>
<trkpt lat="22.322733" lon="103.770737">
<ele>2484.345703</ele>
<time>2011-04-24T08:35:23Z</time>
<desc>lat.=22.322733, lon.=103.770737, Alt.=2484.345703m. Speed=2.412000m/h.</desc>
<speed>0.670000</speed>
</trkpt>
<trkpt lat="22.322752" lon="103.770760">
<ele>2483.095703</ele>
<time>2011-04-24T08:35:28Z</time>
<desc>lat.=22.322752, lon.=103.770760, Alt.=2483.095703m. Speed=1.728000m/h.</desc>
<speed>0.480000</speed>
</trkpt>
<trkpt lat="22.322777" lon="103.770782">
<ele>2481.345703</ele>
<time>2011-04-24T08:35:33Z</time>
<desc>lat.=22.322777, lon.=103.770782, Alt.=2481.345703m. Speed=3.564000m/h.</desc>
<speed>0.990000</speed>
</trkpt>
<trkpt lat="22.322800" lon="103.770828">
<ele>2479.345703</ele>
<time>2011-04-24T08:35:38Z</time>
<desc>lat.=22.322800, lon.=103.770828, Alt.=2479.345703m. Speed=3.276000m/h.</desc>
<speed>0.910000</speed>
</trkpt>
<trkpt lat="22.322823" lon="103.770859">
<ele>2477.408203</ele>
<time>2011-04-24T08:35:43Z</time>
<desc>lat.=22.322823, lon.=103.770859, Alt.=2477.408203m. Speed=3.024000m/h.</desc>
<speed>0.840000</speed>
</trkpt>
<trkpt lat="22.322840" lon="103.770882">
<ele>2476.220703</ele>
<time>2011-04-24T08:35:48Z</time>
<desc>lat.=22.322840, lon.=103.770882, Alt.=2476.220703m. Speed=1.944000m/h.</desc>
<speed>0.540000</speed>
</trkpt>
<trkpt lat="22.322866" lon="103.770889">
<ele>2474.658203</ele>
<time>2011-04-24T08:35:53Z</time>
<desc>lat.=22.322866, lon.=103.770889, Alt.=2474.658203m. Speed=2.736000m/h.</desc>
<speed>0.760000</speed>
</trkpt>
<trkpt lat="22.322901" lon="103.770859">
<ele>2472.595703</ele>
<time>2011-04-24T08:35:58Z</time>
<desc>lat.=22.322901, lon.=103.770859, Alt.=2472.595703m. Speed=4.284000m/h.</desc>
<speed>1.190000</speed>
</trkpt>
<trkpt lat="22.322941" lon="103.770828">
<ele>2471.095703</ele>
<time>2011-04-24T08:36:03Z</time>
<desc>lat.=22.322941, lon.=103.770828, Alt.=2471.095703m. Speed=4.572000m/h.</desc>
<speed>1.270000</speed>
</trkpt>
<trkpt lat="22.322966" lon="103.770851">
<ele>2470.345703</ele>
<time>2011-04-24T08:36:08Z</time>
<desc>lat.=22.322966, lon.=103.770851, Alt.=2470.345703m. Speed=0.288000m/h.</desc>
<speed>0.080000</speed>
</trkpt>
<trkpt lat="22.322979" lon="103.770866">
<ele>2469.533203</ele>
<time>2011-04-24T08:36:13Z</time>
<desc>lat.=22.322979, lon.=103.770866, Alt.=2469.533203m. Speed=2.232000m/h.</desc>
<speed>0.620000</speed>
</trkpt>
<trkpt lat="22.323023" lon="103.770897">
<ele>2468.595703</ele>
<time>2011-04-24T08:36:18Z</time>
<desc>lat.=22.323023, lon.=103.770897, Alt.=2468.595703m. Speed=5.256000m/h.</desc>
<speed>1.460000</speed>
</trkpt>
<trkpt lat="22.323036" lon="103.770905">
<ele>2468.908203</ele>
<time>2011-04-24T08:36:23Z</time>
<desc>lat.=22.323036, lon.=103.770905, Alt.=2468.908203m. Speed=0.432000m/h.</desc>
<speed>0.120000</speed>
</trkpt>
<trkpt lat="22.323040" lon="103.770912">
<ele>2468.908203</ele>
<time>2011-04-24T08:36:28Z</time>
<desc>lat.=22.323040, lon.=103.770912, Alt.=2468.908203m. Speed=2.052000m/h.</desc>
<speed>0.570000</speed>
</trkpt>
<trkpt lat="22.323055" lon="103.770935">
<ele>2468.658203</ele>
<time>2011-04-24T08:36:33Z</time>
<desc>lat.=22.323055, lon.=103.770935, Alt.=2468.658203m. Speed=1.008000m/h.</desc>
<speed>0.280000</speed>
</trkpt>
<trkpt lat="22.323061" lon="103.770935">
<ele>2468.283203</ele>
<time>2011-04-24T08:36:38Z</time>
<desc>lat.=22.323061, lon.=103.770935, Alt.=2468.283203m. Speed=0.108000m/h.</desc>
<speed>0.030000</speed>
</trkpt>
<trkpt lat="22.323061" lon="103.770935">
<ele>2468.283203</ele>
<time>2011-04-24T08:36:43Z</time>
<desc>lat.=22.323061, lon.=103.770935, Alt.=2468.283203m. Speed=1.800000m/h.</desc>
<speed>0.500000</speed>
</trkpt>
<trkpt lat="22.323078" lon="103.770966">
<ele>2467.970703</ele>
<time>2011-04-24T08:36:48Z</time>
<desc>lat.=22.323078, lon.=103.770966, Alt.=2467.970703m. Speed=2.196000m/h.</desc>
<speed>0.610000</speed>
</trkpt>
<trkpt lat="22.323086" lon="103.771004">
<ele>2467.283203</ele>
<time>2011-04-24T08:36:53Z</time>
<desc>lat.=22.323086, lon.=103.771004, Alt.=2467.283203m. Speed=2.016000m/h.</desc>
<speed>0.560000</speed>
</trkpt>
<trkpt lat="22.323074" lon="103.770996">
<ele>2467.033203</ele>
<time>2011-04-24T08:36:58Z</time>
<desc>lat.=22.323074, lon.=103.770996, Alt.=2467.033203m. Speed=0.504000m/h.</desc>
<speed>0.140000</speed>
</trkpt>
<trkpt lat="22.323078" lon="103.771004">
<ele>2467.220703</ele>
<time>2011-04-24T08:37:03Z</time>
<desc>lat.=22.323078, lon.=103.771004, Alt.=2467.220703m. Speed=0.504000m/h.</desc>
<speed>0.140000</speed>
</trkpt>
<trkpt lat="22.323080" lon="103.771011">
<ele>2467.408203</ele>
<time>2011-04-24T08:37:08Z</time>
<desc>lat.=22.323080, lon.=103.771011, Alt.=2467.408203m. Speed=0.324000m/h.</desc>
<speed>0.090000</speed>
</trkpt>
<trkpt lat="22.323080" lon="103.771011">
<ele>2467.533203</ele>
<time>2011-04-24T08:37:13Z</time>
<desc>lat.=22.323080, lon.=103.771011, Alt.=2467.533203m. Speed=0.108000m/h.</desc>
<speed>0.030000</speed>
</trkpt>
<trkpt lat="22.323082" lon="103.771011">
<ele>2467.658203</ele>
<time>2011-04-24T08:37:18Z</time>
<desc>lat.=22.323082, lon.=103.771011, Alt.=2467.658203m. Speed=0.036000m/h.</desc>
<speed>0.010000</speed>
</trkpt>
<trkpt lat="22.323084" lon="103.771011">
<ele>2467.220703</ele>
<time>2011-04-24T08:37:23Z</time>
<desc>lat.=22.323084, lon.=103.771011, Alt.=2467.220703m. Speed=0.288000m/h.</desc>
<speed>0.080000</speed>
</trkpt>
<trkpt lat="22.323074" lon="103.771034">
<ele>2467.595703</ele>
<time>2011-04-24T08:37:28Z</time>
<desc>lat.=22.323074, lon.=103.771034, Alt.=2467.595703m. Speed=0.252000m/h.</desc>
<speed>0.070000</speed>
</trkpt>
<trkpt lat="22.323076" lon="103.771042">
<ele>2466.970703</ele>
<time>2011-04-24T08:37:33Z</time>
<desc>lat.=22.323076, lon.=103.771042, Alt.=2466.970703m. Speed=0.000000m/h.</desc>
<speed>0.000000</speed>
</trkpt>
<trkpt lat="22.323065" lon="103.771065">
<ele>2467.845703</ele>
<time>2011-04-24T08:37:38Z</time>
<desc>lat.=22.323065, lon.=103.771065, Alt.=2467.845703m. Speed=0.072000m/h.</desc>
<speed>0.020000</speed>
</trkpt>
<trkpt lat="22.323076" lon="103.771065">
<ele>2468.595703</ele>
<time>2011-04-24T08:37:43Z</time>
<desc>lat.=22.323076, lon.=103.771065, Alt.=2468.595703m. Speed=0.684000m/h.</desc>
<speed>0.190000</speed>
</trkpt>
<trkpt lat="22.323092" lon="103.771049">
<ele>2469.095703</ele>
<time>2011-04-24T08:37:48Z</time>
<desc>lat.=22.323092, lon.=103.771049, Alt.=2469.095703m. Speed=0.180000m/h.</desc>
<speed>0.050000</speed>
</trkpt>
<trkpt lat="22.323092" lon="103.771072">
<ele>2466.533203</ele>
<time>2011-04-24T08:37:53Z</time>
<desc>lat.=22.323092, lon.=103.771072, Alt.=2466.533203m. Speed=1.620000m/h.</desc>
<speed>0.450000</speed>
</trkpt>
<trkpt lat="22.323114" lon="103.771095">
<ele>2466.095703</ele>
<time>2011-04-24T08:37:58Z</time>
<desc>lat.=22.323114, lon.=103.771095, Alt.=2466.095703m. Speed=3.384000m/h.</desc>
<speed>0.940000</speed>
</trkpt>
<trkpt lat="22.323133" lon="103.771118">
<ele>2467.033203</ele>
<time>2011-04-24T08:38:03Z</time>
<desc>lat.=22.323133, lon.=103.771118, Alt.=2467.033203m. Speed=0.144000m/h.</desc>
<speed>0.040000</speed>
</trkpt>
<trkpt lat="22.323132" lon="103.771118">
<ele>2467.158203</ele>
<time>2011-04-24T08:38:08Z</time>
<desc>lat.=22.323132, lon.=103.771118, Alt.=2467.158203m. Speed=0.144000m/h.</desc>
<speed>0.040000</speed>
</trkpt>
<trkpt lat="22.323132" lon="103.771118">
<ele>2467.095703</ele>
<time>2011-04-24T08:38:13Z</time>
<desc>lat.=22.323132, lon.=103.771118, Alt.=2467.095703m. Speed=0.036000m/h.</desc>
<speed>0.010000</speed>
</trkpt>
<trkpt lat="22.323132" lon="103.771118">
<ele>2467.033203</ele>
<time>2011-04-24T08:38:18Z</time>
<desc>lat.=22.323132, lon.=103.771118, Alt.=2467.033203m. Speed=0.252000m/h.</desc>
<speed>0.070000</speed>
</trkpt>
<trkpt lat="22.323149" lon="103.771126">
<ele>2466.658203</ele>
<time>2011-04-24T08:38:23Z</time>
<desc>lat.=22.323149, lon.=103.771126, Alt.=2466.658203m. Speed=1.152000m/h.</desc>
<speed>0.320000</speed>
</trkpt>
<trkpt lat="22.323158" lon="103.771126">
<ele>2467.283203</ele>
<time>2011-04-24T08:38:28Z</time>
<desc>lat.=22.323158, lon.=103.771126, Alt.=2467.283203m. Speed=0.216000m/h.</desc>
<speed>0.060000</speed>
</trkpt>
<trkpt lat="22.323158" lon="103.771133">
<ele>2467.158203</ele>
<time>2011-04-24T08:38:33Z</time>
<desc>lat.=22.323158, lon.=103.771133, Alt.=2467.158203m. Speed=0.252000m/h.</desc>
<speed>0.070000</speed>
</trkpt>
<trkpt lat="22.323162" lon="103.771126">
<ele>2467.095703</ele>
<time>2011-04-24T08:38:38Z</time>
<desc>lat.=22.323162, lon.=103.771126, Alt.=2467.095703m. Speed=0.072000m/h.</desc>
<speed>0.020000</speed>
</trkpt>
<trkpt lat="22.323160" lon="103.771126">
<ele>2467.033203</ele>
<time>2011-04-24T08:38:43Z</time>
<desc>lat.=22.323160, lon.=103.771126, Alt.=2467.033203m. Speed=0.432000m/h.</desc>
<speed>0.120000</speed>
</trkpt>
<trkpt lat="22.323160" lon="103.771126">
<ele>2467.033203</ele>
<time>2011-04-24T08:38:48Z</time>
<desc>lat.=22.323160, lon.=103.771126, Alt.=2467.033203m. Speed=0.072000m/h.</desc>
<speed>0.020000</speed>
</trkpt>
<trkpt lat="22.323162" lon="103.771126">
<ele>2467.095703</ele>
<time>2011-04-24T08:38:53Z</time>
<desc>lat.=22.323162, lon.=103.771126, Alt.=2467.095703m. Speed=0.180000m/h.</desc>
<speed>0.050000</speed>
</trkpt>
<trkpt lat="22.323162" lon="103.771126">
<ele>2467.095703</ele>
<time>2011-04-24T08:38:58Z</time>
<desc>lat.=22.323162, lon.=103.771126, Alt.=2467.095703m. Speed=0.504000m/h.</desc>
<speed>0.140000</speed>
</trkpt>
<trkpt lat="22.323162" lon="103.771126">
<ele>2467.033203</ele>
<time>2011-04-24T08:39:03Z</time>
<desc>lat.=22.323162, lon.=103.771126, Alt.=2467.033203m. Speed=0.000000m/h.</desc>
<speed>0.000000</speed>
</trkpt>
<trkpt lat="22.323162" lon="103.771126">
<ele>2467.033203</ele>
<time>2011-04-24T08:39:08Z</time>
<desc>lat.=22.323162, lon.=103.771126, Alt.=2467.033203m. Speed=0.324000m/h.</desc>
<speed>0.090000</speed>
</trkpt>
<trkpt lat="22.323162" lon="103.771133">
<ele>2467.033203</ele>
<time>2011-04-24T08:39:13Z</time>
<desc>lat.=22.323162, lon.=103.771133, Alt.=2467.033203m. Speed=0.576000m/h.</desc>
<speed>0.160000</speed>
</trkpt>
<trkpt lat="22.323162" lon="103.771133">
<ele>2467.033203</ele>
<time>2011-04-24T08:39:18Z</time>
<desc>lat.=22.323162, lon.=103.771133, Alt.=2467.033203m. Speed=0.000000m/h.</desc>
<speed>0.000000</speed>
</trkpt>
<trkpt lat="22.323183" lon="103.771118">
<ele>2466.595703</ele>
<time>2011-04-24T08:39:23Z</time>
<desc>lat.=22.323183, lon.=103.771118, Alt.=2466.595703m. Speed=0.792000m/h.</desc>
<speed>0.220000</speed>
</trkpt>
<trkpt lat="22.323195" lon="103.771103">
<ele>2466.845703</ele>
<time>2011-04-24T08:39:28Z</time>
<desc>lat.=22.323195, lon.=103.771103, Alt.=2466.845703m. Speed=0.360000m/h.</desc>
<speed>0.100000</speed>
</trkpt>
<trkpt lat="22.323198" lon="103.771103">
<ele>2466.908203</ele>
<time>2011-04-24T08:39:33Z</time>
<desc>lat.=22.323198, lon.=103.771103, Alt.=2466.908203m. Speed=0.144000m/h.</desc>
<speed>0.040000</speed>
</trkpt>
<trkpt lat="22.323198" lon="103.771103">
<ele>2466.970703</ele>
<time>2011-04-24T08:39:38Z</time>
<desc>lat.=22.323198, lon.=103.771103, Alt.=2466.970703m. Speed=0.108000m/h.</desc>
<speed>0.030000</speed>
</trkpt>
<trkpt lat="22.323200" lon="103.771103">
<ele>2467.095703</ele>
<time>2011-04-24T08:39:43Z</time>
<desc>lat.=22.323200, lon.=103.771103, Alt.=2467.095703m. Speed=0.072000m/h.</desc>
<speed>0.020000</speed>
</trkpt>
<trkpt lat="22.323200" lon="103.771103">
<ele>2467.033203</ele>
<time>2011-04-24T08:39:48Z</time>
<desc>lat.=22.323200, lon.=103.771103, Alt.=2467.033203m. Speed=0.000000m/h.</desc>
<speed>0.000000</speed>
</trkpt>
<trkpt lat="22.323200" lon="103.771103">
<ele>2467.033203</ele>
<time>2011-04-24T08:39:53Z</time>
<desc>lat.=22.323200, lon.=103.771103, Alt.=2467.033203m. Speed=0.036000m/h.</desc>
<speed>0.010000</speed>
</trkpt>
<trkpt lat="22.323200" lon="103.771103">
<ele>2467.033203</ele>
<time>2011-04-24T08:39:58Z</time>
<desc>lat.=22.323200, lon.=103.771103, Alt.=2467.033203m. Speed=0.180000m/h.</desc>
<speed>0.050000</speed>
</trkpt>
<trkpt lat="22.323200" lon="103.771103">
<ele>2467.033203</ele>
<time>2011-04-24T08:40:03Z</time>
<desc>lat.=22.323200, lon.=103.771103, Alt.=2467.033203m. Speed=0.000000m/h.</desc>
<speed>0.000000</speed>
</trkpt>
<trkpt lat="22.323200" lon="103.771103">
<ele>2467.033203</ele>
<time>2011-04-24T08:40:08Z</time>
<desc>lat.=22.323200, lon.=103.771103, Alt.=2467.033203m. Speed=0.000000m/h.</desc>
<speed>0.000000</speed>
</trkpt>
<trkpt lat="22.323200" lon="103.771103">
<ele>2467.033203</ele>
<time>2011-04-24T08:40:13Z</time>
<desc>lat.=22.323200, lon.=103.771103, Alt.=2467.033203m. Speed=0.000000m/h.</desc>
<speed>0.000000</speed>
</trkpt>
<trkpt lat="22.323200" lon="103.771103">
<ele>2467.033203</ele>
<time>2011-04-24T08:40:18Z</time>
<desc>lat.=22.323200, lon.=103.771103, Alt.=2467.033203m. Speed=0.000000m/h.</desc>
<speed>0.000000</speed>
</trkpt>
<trkpt lat="22.323200" lon="103.771103">
<ele>2466.970703</ele>
<time>2011-04-24T08:40:23Z</time>
<desc>lat.=22.323200, lon.=103.771103, Alt.=2466.970703m. Speed=0.036000m/h.</desc>
<speed>0.010000</speed>
</trkpt>
<trkpt lat="22.323200" lon="103.771103">
<ele>2466.970703</ele>
<time>2011-04-24T08:40:28Z</time>
<desc>lat.=22.323200, lon.=103.771103, Alt.=2466.970703m. Speed=0.036000m/h.</desc>
<speed>0.010000</speed>
</trkpt>
<trkpt lat="22.323200" lon="103.771103">
<ele>2466.970703</ele>
<time>2011-04-24T08:40:33Z</time>
<desc>lat.=22.323200, lon.=103.771103, Alt.=2466.970703m. Speed=0.036000m/h.</desc>
<speed>0.010000</speed>
</trkpt>
<trkpt lat="22.323200" lon="103.771103">
<ele>2466.908203</ele>
<time>2011-04-24T08:40:38Z</time>
<desc>lat.=22.323200, lon.=103.771103, Alt.=2466.908203m. Speed=0.000000m/h.</desc>
<speed>0.000000</speed>
</trkpt>
<trkpt lat="22.323200" lon="103.771103">
<ele>2466.908203</ele>
<time>2011-04-24T08:40:43Z</time>
<desc>lat.=22.323200, lon.=103.771103, Alt.=2466.908203m. Speed=0.036000m/h.</desc>
<speed>0.010000</speed>
</trkpt>
<trkpt lat="22.323200" lon="103.771103">
<ele>2466.908203</ele>
<time>2011-04-24T08:40:48Z</time>
<desc>lat.=22.323200, lon.=103.771103, Alt.=2466.908203m. Speed=0.000000m/h.</desc>
<speed>0.000000</speed>
</trkpt>
<trkpt lat="22.323200" lon="103.771103">
<ele>2466.908203</ele>
<time>2011-04-24T08:40:53Z</time>
<desc>lat.=22.323200, lon.=103.771103, Alt.=2466.908203m. Speed=0.000000m/h.</desc>
<speed>0.000000</speed>
</trkpt>
<trkpt lat="22.323198" lon="103.771103">
<ele>2466.908203</ele>
<time>2011-04-24T08:40:58Z</time>
<desc>lat.=22.323198, lon.=103.771103, Alt.=2466.908203m. Speed=0.000000m/h.</desc>
<speed>0.000000</speed>
</trkpt>
<trkpt lat="22.323198" lon="103.771103">
<ele>2466.908203</ele>
<time>2011-04-24T08:41:03Z</time>
<desc>lat.=22.323198, lon.=103.771103, Alt.=2466.908203m. Speed=0.000000m/h.</desc>
<speed>0.000000</speed>
</trkpt>
<trkpt lat="22.323198" lon="103.771103">
<ele>2466.908203</ele>
<time>2011-04-24T08:41:08Z</time>
<desc>lat.=22.323198, lon.=103.771103, Alt.=2466.908203m. Speed=0.000000m/h.</desc>
<speed>0.000000</speed>
</trkpt>
<trkpt lat="22.323198" lon="103.771103">
<ele>2466.908203</ele>
<time>2011-04-24T08:41:13Z</time>
<desc>lat.=22.323198, lon.=103.771103, Alt.=2466.908203m. Speed=0.036000m/h.</desc>
<speed>0.010000</speed>
</trkpt>
<trkpt lat="22.323198" lon="103.771103">
<ele>2466.845703</ele>
<time>2011-04-24T08:41:18Z</time>
<desc>lat.=22.323198, lon.=103.771103, Alt.=2466.845703m. Speed=0.000000m/h.</desc>
<speed>0.000000</speed>
</trkpt>
<trkpt lat="22.323198" lon="103.771103">
<ele>2466.845703</ele>
<time>2011-04-24T08:41:23Z</time>
<desc>lat.=22.323198, lon.=103.771103, Alt.=2466.845703m. Speed=0.000000m/h.</desc>
<speed>0.000000</speed>
</trkpt>
<trkpt lat="22.323198" lon="103.771103">
<ele>2466.845703</ele>
<time>2011-04-24T08:41:28Z</time>
<desc>lat.=22.323198, lon.=103.771103, Alt.=2466.845703m. Speed=0.000000m/h.</desc>
<speed>0.000000</speed>
</trkpt>
<trkpt lat="22.323198" lon="103.771103">
<ele>2466.845703</ele>
<time>2011-04-24T08:41:33Z</time>
<desc>lat.=22.323198, lon.=103.771103, Alt.=2466.845703m. Speed=0.000000m/h.</desc>
<speed>0.000000</speed>
</trkpt>
<trkpt lat="22.323198" lon="103.771103">
<ele>2466.845703</ele>
<time>2011-04-24T08:41:38Z</time>
<desc>lat.=22.323198, lon.=103.771103, Alt.=2466.845703m. Speed=0.000000m/h.</desc>
<speed>0.000000</speed>
</trkpt>
<trkpt lat="22.323198" lon="103.771103">
<ele>2466.845703</ele>
<time>2011-04-24T08:41:43Z</time>
<desc>lat.=22.323198, lon.=103.771103, Alt.=2466.845703m. Speed=0.000000m/h.</desc>
<speed>0.000000</speed>
</trkpt>
<trkpt lat="22.323198" lon="103.771103">
<ele>2466.845703</ele>
<time>2011-04-24T08:41:48Z</time>
<desc>lat.=22.323198, lon.=103.771103, Alt.=2466.845703m. Speed=0.036000m/h.</desc>
<speed>0.010000</speed>
</trkpt>
<trkpt lat="22.323198" lon="103.771103">
<ele>2466.845703</ele>
<time>2011-04-24T08:41:53Z</time>
<desc>lat.=22.323198, lon.=103.771103, Alt.=2466.845703m. Speed=0.036000m/h.</desc>
<speed>0.010000</speed>
</trkpt>
<trkpt lat="22.323198" lon="103.771103">
<ele>2466.845703</ele>
<time>2011-04-24T08:41:58Z</time>
<desc>lat.=22.323198, lon.=103.771103, Alt.=2466.845703m. Speed=0.000000m/h.</desc>
<speed>0.000000</speed>
</trkpt>
<trkpt lat="22.323198" lon="103.771103">
<ele>2466.845703</ele>
<time>2011-04-24T08:42:03Z</time>
<desc>lat.=22.323198, lon.=103.771103, Alt.=2466.845703m. Speed=0.000000m/h.</desc>
<speed>0.000000</speed>
</trkpt>
<trkpt lat="22.323198" lon="103.771103">
<ele>2466.908203</ele>
<time>2011-04-24T08:42:08Z</time>
<desc>lat.=22.323198, lon.=103.771103, Alt.=2466.908203m. Speed=0.000000m/h.</desc>
<speed>0.000000</speed>
</trkpt>
<trkpt lat="22.323198" lon="103.771103">
<ele>2466.908203</ele>
<time>2011-04-24T08:42:13Z</time>
<desc>lat.=22.323198, lon.=103.771103, Alt.=2466.908203m. Speed=0.000000m/h.</desc>
<speed>0.000000</speed>
</trkpt>
<trkpt lat="22.323198" lon="103.771103">
<ele>2466.908203</ele>
<time>2011-04-24T08:42:18Z</time>
<desc>lat.=22.323198, lon.=103.771103, Alt.=2466.908203m. Speed=0.036000m/h.</desc>
<speed>0.010000</speed>
</trkpt>
<trkpt lat="22.323198" lon="103.771103">
<ele>2466.908203</ele>
<time>2011-04-24T08:42:23Z</time>
<desc>lat.=22.323198, lon.=103.771103, Alt.=2466.908203m. Speed=0.000000m/h.</desc>
<speed>0.000000</speed>
</trkpt>
<trkpt lat="22.323198" lon="103.771103">
<ele>2466.908203</ele>
<time>2011-04-24T08:42:28Z</time>
<desc>lat.=22.323198, lon.=103.771103, Alt.=2466.908203m. Speed=0.000000m/h.</desc>
<speed>0.000000</speed>
</trkpt>
<trkpt lat="22.323198" lon="103.771103">
<ele>2466.908203</ele>
<time>2011-04-24T08:42:33Z</time>
<desc>lat.=22.323198, lon.=103.771103, Alt.=2466.908203m. Speed=0.000000m/h.</desc>
<speed>0.000000</speed>
</trkpt>
<trkpt lat="22.323198" lon="103.771111">
<ele>2466.908203</ele>
<time>2011-04-24T08:42:38Z</time>
<desc>lat.=22.323198, lon.=103.771111, Alt.=2466.908203m. Speed=0.000000m/h.</desc>
<speed>0.000000</speed>
</trkpt>
<trkpt lat="22.323198" lon="103.771111">
<ele>2466.908203</ele>
<time>2011-04-24T08:42:43Z</time>
<desc>lat.=22.323198, lon.=103.771111, Alt.=2466.908203m. Speed=0.000000m/h.</desc>
<speed>0.000000</speed>
</trkpt>
<trkpt lat="22.323198" lon="103.771111">
<ele>2466.908203</ele>
<time>2011-04-24T08:42:48Z</time>
<desc>lat.=22.323198, lon.=103.771111, Alt.=2466.908203m. Speed=0.036000m/h.</desc>
<speed>0.010000</speed>
</trkpt>
<trkpt lat="22.323198" lon="103.771103">
<ele>2466.970703</ele>
<time>2011-04-24T08:42:53Z</time>
<desc>lat.=22.323198, lon.=103.771103, Alt.=2466.970703m. Speed=0.000000m/h.</desc>
<speed>0.000000</speed>
</trkpt>
<trkpt lat="22.323196" lon="103.771103">
<ele>2467.095703</ele>
<time>2011-04-24T08:42:58Z</time>
<desc>lat.=22.323196, lon.=103.771103, Alt.=2467.095703m. Speed=0.000000m/h.</desc>
<speed>0.000000</speed>
</trkpt>
<trkpt lat="22.323195" lon="103.771103">
<ele>2467.908203</ele>
<time>2011-04-24T08:43:03Z</time>
<desc>lat.=22.323195, lon.=103.771103, Alt.=2467.908203m. Speed=0.000000m/h.</desc>
<speed>0.000000</speed>
</trkpt>
<trkpt lat="22.323193" lon="103.771103">
<ele>2468.283203</ele>
<time>2011-04-24T08:43:08Z</time>
<desc>lat.=22.323193, lon.=103.771103, Alt.=2468.283203m. Speed=0.000000m/h.</desc>
<speed>0.000000</speed>
</trkpt>
<trkpt lat="22.323191" lon="103.771103">
<ele>2468.845703</ele>
<time>2011-04-24T08:43:13Z</time>
<desc>lat.=22.323191, lon.=103.771103, Alt.=2468.845703m. Speed=0.036000m/h.</desc>
<speed>0.010000</speed>
</trkpt>
<trkpt lat="22.323189" lon="103.771103">
<ele>2469.595703</ele>
<time>2011-04-24T08:43:18Z</time>
<desc>lat.=22.323189, lon.=103.771103, Alt.=2469.595703m. Speed=0.000000m/h.</desc>
<speed>0.000000</speed>
</trkpt>
<trkpt lat="22.323187" lon="103.771095">
<ele>2470.283203</ele>
<time>2011-04-24T08:43:23Z</time>
<desc>lat.=22.323187, lon.=103.771095, Alt.=2470.283203m. Speed=0.000000m/h.</desc>
<speed>0.000000</speed>
</trkpt>
<trkpt lat="22.323185" lon="103.771095">
<ele>2470.345703</ele>
<time>2011-04-24T08:43:28Z</time>
<desc>lat.=22.323185, lon.=103.771095, Alt.=2470.345703m. Speed=0.036000m/h.</desc>
<speed>0.010000</speed>
</trkpt>
<trkpt lat="22.323185" lon="103.771103">
<ele>2470.408203</ele>
<time>2011-04-24T08:43:33Z</time>
<desc>lat.=22.323185, lon.=103.771103, Alt.=2470.408203m. Speed=0.000000m/h.</desc>
<speed>0.000000</speed>
</trkpt>
<trkpt lat="22.323187" lon="103.771103">
<ele>2469.908203</ele>
<time>2011-04-24T08:43:38Z</time>
<desc>lat.=22.323187, lon.=103.771103, Alt.=2469.908203m. Speed=0.000000m/h.</desc>
<speed>0.000000</speed>
</trkpt>
<trkpt lat="22.323191" lon="103.771103">
<ele>2469.908203</ele>
<time>2011-04-24T08:43:43Z</time>
<desc>lat.=22.323191, lon.=103.771103, Alt.=2469.908203m. Speed=0.036000m/h.</desc>
<speed>0.010000</speed>
</trkpt>
<trkpt lat="22.323191" lon="103.771103">
<ele>2469.908203</ele>
<time>2011-04-24T08:43:48Z</time>
<desc>lat.=22.323191, lon.=103.771103, Alt.=2469.908203m. Speed=0.036000m/h.</desc>
<speed>0.010000</speed>
</trkpt>
<trkpt lat="22.323191" lon="103.771103">
<ele>2469.845703</ele>
<time>2011-04-24T08:43:53Z</time>
<desc>lat.=22.323191, lon.=103.771103, Alt.=2469.845703m. Speed=0.072000m/h.</desc>
<speed>0.020000</speed>
</trkpt>
<trkpt lat="22.323191" lon="103.771103">
<ele>2469.845703</ele>
<time>2011-04-24T08:43:58Z</time>
<desc>lat.=22.323191, lon.=103.771103, Alt.=2469.845703m. Speed=0.072000m/h.</desc>
<speed>0.020000</speed>
</trkpt>
<trkpt lat="22.323191" lon="103.771103">
<ele>2469.845703</ele>
<time>2011-04-24T08:44:03Z</time>
<desc>lat.=22.323191, lon.=103.771103, Alt.=2469.845703m. Speed=0.036000m/h.</desc>
<speed>0.010000</speed>
</trkpt>
<trkpt lat="22.323191" lon="103.771103">
<ele>2469.908203</ele>
<time>2011-04-24T08:44:08Z</time>
<desc>lat.=22.323191, lon.=103.771103, Alt.=2469.908203m. Speed=2.988000m/h.</desc>
<speed>0.830000</speed>
</trkpt>
<trkpt lat="22.323187" lon="103.771111">
<ele>2469.408203</ele>
<time>2011-04-24T08:44:13Z</time>
<desc>lat.=22.323187, lon.=103.771111, Alt.=2469.408203m. Speed=0.036000m/h.</desc>
<speed>0.010000</speed>
</trkpt>
<trkpt lat="22.323187" lon="103.771111">
<ele>2469.408203</ele>
<time>2011-04-24T08:44:18Z</time>
<desc>lat.=22.323187, lon.=103.771111, Alt.=2469.408203m. Speed=0.036000m/h.</desc>
<speed>0.010000</speed>
</trkpt>
<trkpt lat="22.323187" lon="103.771111">
<ele>2469.345703</ele>
<time>2011-04-24T08:44:23Z</time>
<desc>lat.=22.323187, lon.=103.771111, Alt.=2469.345703m. Speed=0.000000m/h.</desc>
<speed>0.000000</speed>
</trkpt>
<trkpt lat="22.323187" lon="103.771111">
<ele>2469.345703</ele>
<time>2011-04-24T08:44:28Z</time>
<desc>lat.=22.323187, lon.=103.771111, Alt.=2469.345703m. Speed=0.000000m/h.</desc>
<speed>0.000000</speed>
</trkpt>
<trkpt lat="22.323187" lon="103.771111">
<ele>2469.408203</ele>
<time>2011-04-24T08:44:33Z</time>
<desc>lat.=22.323187, lon.=103.771111, Alt.=2469.408203m. Speed=0.000000m/h.</desc>
<speed>0.000000</speed>
</trkpt>
<trkpt lat="22.323187" lon="103.771111">
<ele>2469.408203</ele>
<time>2011-04-24T08:44:38Z</time>
<desc>lat.=22.323187, lon.=103.771111, Alt.=2469.408203m. Speed=0.000000m/h.</desc>
<speed>0.000000</speed>
</trkpt>
<trkpt lat="22.323187" lon="103.771111">
<ele>2469.408203</ele>
<time>2011-04-24T08:44:43Z</time>
<desc>lat.=22.323187, lon.=103.771111, Alt.=2469.408203m. Speed=0.000000m/h.</desc>
<speed>0.000000</speed>
</trkpt>
<trkpt lat="22.323187" lon="103.771111">
<ele>2469.408203</ele>
<time>2011-04-24T08:44:48Z</time>
<desc>lat.=22.323187, lon.=103.771111, Alt.=2469.408203m. Speed=0.000000m/h.</desc>
<speed>0.000000</speed>
</trkpt>
<trkpt lat="22.323187" lon="103.771111">
<ele>2469.408203</ele>
<time>2011-04-24T08:44:53Z</time>
<desc>lat.=22.323187, lon.=103.771111, Alt.=2469.408203m. Speed=0.000000m/h.</desc>
<speed>0.000000</speed>
</trkpt>
<trkpt lat="22.323187" lon="103.771111">
<ele>2469.408203</ele>
<time>2011-04-24T08:44:58Z</time>
<desc>lat.=22.323187, lon.=103.771111, Alt.=2469.408203m. Speed=0.000000m/h.</desc>
<speed>0.000000</speed>
</trkpt>
<trkpt lat="22.323187" lon="103.771111">
<ele>2469.408203</ele>
<time>2011-04-24T08:45:03Z</time>
<desc>lat.=22.323187, lon.=103.771111, Alt.=2469.408203m. Speed=0.000000m/h.</desc>
<speed>0.000000</speed>
</trkpt>
<trkpt lat="22.323187" lon="103.771111">
<ele>2469.408203</ele>
<time>2011-04-24T08:45:08Z</time>
<desc>lat.=22.323187, lon.=103.771111, Alt.=2469.408203m. Speed=0.000000m/h.</desc>
<speed>0.000000</speed>
</trkpt>
<trkpt lat="22.323187" lon="103.771111">
<ele>2469.408203</ele>
<time>2011-04-24T08:45:13Z</time>
<desc>lat.=22.323187, lon.=103.771111, Alt.=2469.408203m. Speed=0.036000m/h.</desc>
<speed>0.010000</speed>
</trkpt>
<trkpt lat="22.323187" lon="103.771111">
<ele>2469.408203</ele>
<time>2011-04-24T08:45:18Z</time>
<desc>lat.=22.323187, lon.=103.771111, Alt.=2469.408203m. Speed=0.000000m/h.</desc>
<speed>0.000000</speed>
</trkpt>
<trkpt lat="22.323187" lon="103.771111">
<ele>2469.408203</ele>
<time>2011-04-24T08:45:23Z</time>
<desc>lat.=22.323187, lon.=103.771111, Alt.=2469.408203m. Speed=0.036000m/h.</desc>
<speed>0.010000</speed>
</trkpt>
<trkpt lat="22.323187" lon="103.771111">
<ele>2469.408203</ele>
<time>2011-04-24T08:45:28Z</time>
<desc>lat.=22.323187, lon.=103.771111, Alt.=2469.408203m. Speed=0.000000m/h.</desc>
<speed>0.000000</speed>
</trkpt>
<trkpt lat="22.323187" lon="103.771111">
<ele>2469.408203</ele>
<time>2011-04-24T08:45:33Z</time>
<desc>lat.=22.323187, lon.=103.771111, Alt.=2469.408203m. Speed=0.000000m/h.</desc>
<speed>0.000000</speed>
</trkpt>
<trkpt lat="22.323187" lon="103.771111">
<ele>2469.408203</ele>
<time>2011-04-24T08:45:38Z</time>
<desc>lat.=22.323187, lon.=103.771111, Alt.=2469.408203m. Speed=0.000000m/h.</desc>
<speed>0.000000</speed>
</trkpt>
<trkpt lat="22.323187" lon="103.771111">
<ele>2469.408203</ele>
<time>2011-04-24T08:45:43Z</time>
<desc>lat.=22.323187, lon.=103.771111, Alt.=2469.408203m. Speed=0.432000m/h.</desc>
<speed>0.120000</speed>
</trkpt>
<trkpt lat="22.323187" lon="103.771111">
<ele>2469.408203</ele>
<time>2011-04-24T08:45:48Z</time>
<desc>lat.=22.323187, lon.=103.771111, Alt.=2469.408203m. Speed=0.180000m/h.</desc>
<speed>0.050000</speed>
</trkpt>
<trkpt lat="22.323187" lon="103.771111">
<ele>2469.408203</ele>
<time>2011-04-24T08:45:53Z</time>
<desc>lat.=22.323187, lon.=103.771111, Alt.=2469.408203m. Speed=0.000000m/h.</desc>
<speed>0.000000</speed>
</trkpt>
<trkpt lat="22.323189" lon="103.771111">
<ele>2469.408203</ele>
<time>2011-04-24T08:45:58Z</time>
<desc>lat.=22.323189, lon.=103.771111, Alt.=2469.408203m. Speed=1.008000m/h.</desc>
<speed>0.280000</speed>
</trkpt>
<trkpt lat="22.323191" lon="103.771118">
<ele>2469.408203</ele>
<time>2011-04-24T08:46:03Z</time>
<desc>lat.=22.323191, lon.=103.771118, Alt.=2469.408203m. Speed=0.468000m/h.</desc>
<speed>0.130000</speed>
</trkpt>
<trkpt lat="22.323214" lon="103.771126">
<ele>2468.595703</ele>
<time>2011-04-24T08:46:08Z</time>
<desc>lat.=22.323214, lon.=103.771126, Alt.=2468.595703m. Speed=2.628000m/h.</desc>
<speed>0.730000</speed>
</trkpt>
<trkpt lat="22.323231" lon="103.771141">
<ele>2466.533203</ele>
<time>2011-04-24T08:46:13Z</time>
<desc>lat.=22.323231, lon.=103.771141, Alt.=2466.533203m. Speed=1.008000m/h.</desc>
<speed>0.280000</speed>
</trkpt>
<trkpt lat="22.323244" lon="103.771141">
<ele>2465.408203</ele>
<time>2011-04-24T08:46:18Z</time>
<desc>lat.=22.323244, lon.=103.771141, Alt.=2465.408203m. Speed=2.016000m/h.</desc>
<speed>0.560000</speed>
</trkpt>
<trkpt lat="22.323265" lon="103.771141">
<ele>2464.283203</ele>
<time>2011-04-24T08:46:23Z</time>
<desc>lat.=22.323265, lon.=103.771141, Alt.=2464.283203m. Speed=2.844000m/h.</desc>
<speed>0.790000</speed>
</trkpt>
<trkpt lat="22.323301" lon="103.771141">
<ele>2462.970703</ele>
<time>2011-04-24T08:46:28Z</time>
<desc>lat.=22.323301, lon.=103.771141, Alt.=2462.970703m. Speed=4.176000m/h.</desc>
<speed>1.160000</speed>
</trkpt>
<trkpt lat="22.323332" lon="103.771149">
<ele>2461.408203</ele>
<time>2011-04-24T08:46:33Z</time>
<desc>lat.=22.323332, lon.=103.771149, Alt.=2461.408203m. Speed=1.764000m/h.</desc>
<speed>0.490000</speed>
</trkpt>
<trkpt lat="22.323351" lon="103.771156">
<ele>2460.345703</ele>
<time>2011-04-24T08:46:38Z</time>
<desc>lat.=22.323351, lon.=103.771156, Alt.=2460.345703m. Speed=1.620000m/h.</desc>
<speed>0.450000</speed>
</trkpt>
<trkpt lat="22.323364" lon="103.771156">
<ele>2458.408203</ele>
<time>2011-04-24T08:46:43Z</time>
<desc>lat.=22.323364, lon.=103.771156, Alt.=2458.408203m. Speed=0.864000m/h.</desc>
<speed>0.240000</speed>
</trkpt>
<trkpt lat="22.323387" lon="103.771164">
<ele>2456.908203</ele>
<time>2011-04-24T08:46:48Z</time>
<desc>lat.=22.323387, lon.=103.771164, Alt.=2456.908203m. Speed=1.908000m/h.</desc>
<speed>0.530000</speed>
</trkpt>
<trkpt lat="22.323406" lon="103.771164">
<ele>2455.470703</ele>
<time>2011-04-24T08:46:53Z</time>
<desc>lat.=22.323406, lon.=103.771164, Alt.=2455.470703m. Speed=1.836000m/h.</desc>
<speed>0.510000</speed>
</trkpt>
<trkpt lat="22.323433" lon="103.771164">
<ele>2454.845703</ele>
<time>2011-04-24T08:46:58Z</time>
<desc>lat.=22.323433, lon.=103.771164, Alt.=2454.845703m. Speed=1.584000m/h.</desc>
<speed>0.440000</speed>
</trkpt>
<trkpt lat="22.323454" lon="103.771164">
<ele>2454.095703</ele>
<time>2011-04-24T08:47:03Z</time>
<desc>lat.=22.323454, lon.=103.771164, Alt.=2454.095703m. Speed=1.656000m/h.</desc>
<speed>0.460000</speed>
</trkpt>
<trkpt lat="22.323473" lon="103.771187">
<ele>2453.158203</ele>
<time>2011-04-24T08:47:08Z</time>
<desc>lat.=22.323473, lon.=103.771187, Alt.=2453.158203m. Speed=2.160000m/h.</desc>
<speed>0.600000</speed>
</trkpt>
<trkpt lat="22.323483" lon="103.771217">
<ele>2451.283203</ele>
<time>2011-04-24T08:47:13Z</time>
<desc>lat.=22.323483, lon.=103.771217, Alt.=2451.283203m. Speed=1.440000m/h.</desc>
<speed>0.400000</speed>
</trkpt>
<trkpt lat="22.323498" lon="103.771240">
<ele>2450.283203</ele>
<time>2011-04-24T08:47:18Z</time>
<desc>lat.=22.323498, lon.=103.771240, Alt.=2450.283203m. Speed=2.196000m/h.</desc>
<speed>0.610000</speed>
</trkpt>
<trkpt lat="22.323509" lon="103.771271">
<ele>2448.970703</ele>
<time>2011-04-24T08:47:23Z</time>
<desc>lat.=22.323509, lon.=103.771271, Alt.=2448.970703m. Speed=0.720000m/h.</desc>
<speed>0.200000</speed>
</trkpt>
<trkpt lat="22.323524" lon="103.771286">
<ele>2448.533203</ele>
<time>2011-04-24T08:47:28Z</time>
<desc>lat.=22.323524, lon.=103.771286, Alt.=2448.533203m. Speed=0.972000m/h.</desc>
<speed>0.270000</speed>
</trkpt>
<trkpt lat="22.323536" lon="103.771301">
<ele>2448.283203</ele>
<time>2011-04-24T08:47:33Z</time>
<desc>lat.=22.323536, lon.=103.771301, Alt.=2448.283203m. Speed=1.548000m/h.</desc>
<speed>0.430000</speed>
</trkpt>
<trkpt lat="22.323547" lon="103.771317">
<ele>2447.470703</ele>
<time>2011-04-24T08:47:38Z</time>
<desc>lat.=22.323547, lon.=103.771317, Alt.=2447.470703m. Speed=0.252000m/h.</desc>
<speed>0.070000</speed>
</trkpt>
<trkpt lat="22.323545" lon="103.771317">
<ele>2446.845703</ele>
<time>2011-04-24T08:47:43Z</time>
<desc>lat.=22.323545, lon.=103.771317, Alt.=2446.845703m. Speed=0.432000m/h.</desc>
<speed>0.120000</speed>
</trkpt>
<trkpt lat="22.323549" lon="103.771317">
<ele>2446.283203</ele>
<time>2011-04-24T08:47:48Z</time>
<desc>lat.=22.323549, lon.=103.771317, Alt.=2446.283203m. Speed=1.224000m/h.</desc>
<speed>0.340000</speed>
</trkpt>
<trkpt lat="22.323565" lon="103.771332">
<ele>2445.283203</ele>
<time>2011-04-24T08:47:53Z</time>
<desc>lat.=22.323565, lon.=103.771332, Alt.=2445.283203m. Speed=2.628000m/h.</desc>
<speed>0.730000</speed>
</trkpt>
<trkpt lat="22.323578" lon="103.771362">
<ele>2444.783203</ele>
<time>2011-04-24T08:47:58Z</time>
<desc>lat.=22.323578, lon.=103.771362, Alt.=2444.783203m. Speed=1.764000m/h.</desc>
<speed>0.490000</speed>
</trkpt>
<trkpt lat="22.323582" lon="103.771378">
<ele>2444.283203</ele>
<time>2011-04-24T08:48:03Z</time>
<desc>lat.=22.323582, lon.=103.771378, Alt.=2444.283203m. Speed=0.288000m/h.</desc>
<speed>0.080000</speed>
</trkpt>
<trkpt lat="22.323587" lon="103.771378">
<ele>2444.283203</ele>
<time>2011-04-24T08:48:08Z</time>
<desc>lat.=22.323587, lon.=103.771378, Alt.=2444.283203m. Speed=1.260000m/h.</desc>
<speed>0.350000</speed>
</trkpt>
<trkpt lat="22.323605" lon="103.771408">
<ele>2444.033203</ele>
<time>2011-04-24T08:48:13Z</time>
<desc>lat.=22.323605, lon.=103.771408, Alt.=2444.033203m. Speed=5.112000m/h.</desc>
<speed>1.420000</speed>
</trkpt>
<trkpt lat="22.323668" lon="103.771408">
<ele>2443.658203</ele>
<time>2011-04-24T08:48:18Z</time>
<desc>lat.=22.323668, lon.=103.771408, Alt.=2443.658203m. Speed=4.068000m/h.</desc>
<speed>1.130000</speed>
</trkpt>
<trkpt lat="22.323713" lon="103.771408">
<ele>2444.408203</ele>
<time>2011-04-24T08:48:23Z</time>
<desc>lat.=22.323713, lon.=103.771408, Alt.=2444.408203m. Speed=3.168000m/h.</desc>
<speed>0.880000</speed>
</trkpt>
<trkpt lat="22.323740" lon="103.771431">
<ele>2443.033203</ele>
<time>2011-04-24T08:48:28Z</time>
<desc>lat.=22.323740, lon.=103.771431, Alt.=2443.033203m. Speed=2.088000m/h.</desc>
<speed>0.580000</speed>
</trkpt>
<trkpt lat="22.323740" lon="103.771431">
<ele>2442.720703</ele>
<time>2011-04-24T08:48:33Z</time>
<desc>lat.=22.323740, lon.=103.771431, Alt.=2442.720703m. Speed=1.800000m/h.</desc>
<speed>0.500000</speed>
</trkpt>
<trkpt lat="22.323757" lon="103.771431">
<ele>2441.408203</ele>
<time>2011-04-24T08:48:38Z</time>
<desc>lat.=22.323757, lon.=103.771431, Alt.=2441.408203m. Speed=0.540000m/h.</desc>
<speed>0.150000</speed>
</trkpt>
<trkpt lat="22.323761" lon="103.771439">
<ele>2440.345703</ele>
<time>2011-04-24T08:48:43Z</time>
<desc>lat.=22.323761, lon.=103.771439, Alt.=2440.345703m. Speed=1.836000m/h.</desc>
<speed>0.510000</speed>
</trkpt>
<trkpt lat="22.323771" lon="103.771431">
<ele>2439.408203</ele>
<time>2011-04-24T08:48:48Z</time>
<desc>lat.=22.323771, lon.=103.771431, Alt.=2439.408203m. Speed=1.008000m/h.</desc>
<speed>0.280000</speed>
</trkpt>
<trkpt lat="22.323780" lon="103.771431">
<ele>2438.720703</ele>
<time>2011-04-24T08:48:53Z</time>
<desc>lat.=22.323780, lon.=103.771431, Alt.=2438.720703m. Speed=1.620000m/h.</desc>
<speed>0.450000</speed>
</trkpt>
<trkpt lat="22.323790" lon="103.771423">
<ele>2437.658203</ele>
<time>2011-04-24T08:48:58Z</time>
<desc>lat.=22.323790, lon.=103.771423, Alt.=2437.658203m. Speed=1.332000m/h.</desc>
<speed>0.370000</speed>
</trkpt>
<trkpt lat="22.323797" lon="103.771423">
<ele>2436.533203</ele>
<time>2011-04-24T08:49:03Z</time>
<desc>lat.=22.323797, lon.=103.771423, Alt.=2436.533203m. Speed=0.288000m/h.</desc>
<speed>0.080000</speed>
</trkpt>
<trkpt lat="22.323805" lon="103.771423">
<ele>2434.970703</ele>
<time>2011-04-24T08:49:08Z</time>
<desc>lat.=22.323805, lon.=103.771423, Alt.=2434.970703m. Speed=0.252000m/h.</desc>
<speed>0.070000</speed>
</trkpt>
<trkpt lat="22.323811" lon="103.771408">
<ele>2434.720703</ele>
<time>2011-04-24T08:49:13Z</time>
<desc>lat.=22.323811, lon.=103.771408, Alt.=2434.720703m. Speed=0.180000m/h.</desc>
<speed>0.050000</speed>
</trkpt>
<trkpt lat="22.323822" lon="103.771400">
<ele>2434.220703</ele>
<time>2011-04-24T08:49:18Z</time>
<desc>lat.=22.323822, lon.=103.771400, Alt.=2434.220703m. Speed=2.484000m/h.</desc>
<speed>0.690000</speed>
</trkpt>
<trkpt lat="22.323830" lon="103.771408">
<ele>2433.595703</ele>
<time>2011-04-24T08:49:23Z</time>
<desc>lat.=22.323830, lon.=103.771408, Alt.=2433.595703m. Speed=1.440000m/h.</desc>
<speed>0.400000</speed>
</trkpt>
<trkpt lat="22.323843" lon="103.771416">
<ele>2432.408203</ele>
<time>2011-04-24T08:49:28Z</time>
<desc>lat.=22.323843, lon.=103.771416, Alt.=2432.408203m. Speed=0.504000m/h.</desc>
<speed>0.140000</speed>
</trkpt>
<trkpt lat="22.323847" lon="103.771416">
<ele>2431.533203</ele>
<time>2011-04-24T08:49:33Z</time>
<desc>lat.=22.323847, lon.=103.771416, Alt.=2431.533203m. Speed=1.872000m/h.</desc>
<speed>0.520000</speed>
</trkpt>
<trkpt lat="22.323856" lon="103.771423">
<ele>2430.095703</ele>
<time>2011-04-24T08:49:38Z</time>
<desc>lat.=22.323856, lon.=103.771423, Alt.=2430.095703m. Speed=0.216000m/h.</desc>
<speed>0.060000</speed>
</trkpt>
<trkpt lat="22.323866" lon="103.771431">
<ele>2429.283203</ele>
<time>2011-04-24T08:49:43Z</time>
<desc>lat.=22.323866, lon.=103.771431, Alt.=2429.283203m. Speed=0.504000m/h.</desc>
<speed>0.140000</speed>
</trkpt>
<trkpt lat="22.323879" lon="103.771439">
<ele>2428.658203</ele>
<time>2011-04-24T08:49:48Z</time>
<desc>lat.=22.323879, lon.=103.771439, Alt.=2428.658203m. Speed=1.152000m/h.</desc>
<speed>0.320000</speed>
</trkpt>
<trkpt lat="22.323887" lon="103.771439">
<ele>2428.408203</ele>
<time>2011-04-24T08:49:53Z</time>
<desc>lat.=22.323887, lon.=103.771439, Alt.=2428.408203m. Speed=0.864000m/h.</desc>
<speed>0.240000</speed>
</trkpt>
<trkpt lat="22.323898" lon="103.771446">
<ele>2427.533203</ele>
<time>2011-04-24T08:49:58Z</time>
<desc>lat.=22.323898, lon.=103.771446, Alt.=2427.533203m. Speed=0.396000m/h.</desc>
<speed>0.110000</speed>
</trkpt>
<trkpt lat="22.323917" lon="103.771439">
<ele>2426.658203</ele>
<time>2011-04-24T08:50:03Z</time>
<desc>lat.=22.323917, lon.=103.771439, Alt.=2426.658203m. Speed=1.368000m/h.</desc>
<speed>0.380000</speed>
</trkpt>
<trkpt lat="22.323942" lon="103.771454">
<ele>2425.408203</ele>
<time>2011-04-24T08:50:08Z</time>
<desc>lat.=22.323942, lon.=103.771454, Alt.=2425.408203m. Speed=1.980000m/h.</desc>
<speed>0.550000</speed>
</trkpt>
<trkpt lat="22.323961" lon="103.771461">
<ele>2424.345703</ele>
<time>2011-04-24T08:50:13Z</time>
<desc>lat.=22.323961, lon.=103.771461, Alt.=2424.345703m. Speed=1.368000m/h.</desc>
<speed>0.380000</speed>
</trkpt>
<trkpt lat="22.323975" lon="103.771477">
<ele>2423.095703</ele>
<time>2011-04-24T08:50:18Z</time>
<desc>lat.=22.323975, lon.=103.771477, Alt.=2423.095703m. Speed=1.692000m/h.</desc>
<speed>0.470000</speed>
</trkpt>
<trkpt lat="22.323975" lon="103.771477">
<ele>2423.158203</ele>
<time>2011-04-24T08:50:23Z</time>
<desc>lat.=22.323975, lon.=103.771477, Alt.=2423.158203m. Speed=0.072000m/h.</desc>
<speed>0.020000</speed>
</trkpt>
<trkpt lat="22.323984" lon="103.771477">
<ele>2423.345703</ele>
<time>2011-04-24T08:50:28Z</time>
<desc>lat.=22.323984, lon.=103.771477, Alt.=2423.345703m. Speed=1.512000m/h.</desc>
<speed>0.420000</speed>
</trkpt>
<trkpt lat="22.324005" lon="103.771461">
<ele>2422.220703</ele>
<time>2011-04-24T08:50:33Z</time>
<desc>lat.=22.324005, lon.=103.771461, Alt.=2422.220703m. Speed=2.268000m/h.</desc>
<speed>0.630000</speed>
</trkpt>
<trkpt lat="22.324020" lon="103.771446">
<ele>2421.283203</ele>
<time>2011-04-24T08:50:38Z</time>
<desc>lat.=22.324020, lon.=103.771446, Alt.=2421.283203m. Speed=3.348000m/h.</desc>
<speed>0.930000</speed>
</trkpt>
<trkpt lat="22.324043" lon="103.771423">
<ele>2419.533203</ele>
<time>2011-04-24T08:50:43Z</time>
<desc>lat.=22.324043, lon.=103.771423, Alt.=2419.533203m. Speed=2.412000m/h.</desc>
<speed>0.670000</speed>
</trkpt>
<trkpt lat="22.324045" lon="103.771423">
<ele>2419.720703</ele>
<time>2011-04-24T08:50:48Z</time>
<desc>lat.=22.324045, lon.=103.771423, Alt.=2419.720703m. Speed=0.216000m/h.</desc>
<speed>0.060000</speed>
</trkpt>
<trkpt lat="22.324043" lon="103.771423">
<ele>2419.533203</ele>
<time>2011-04-24T08:50:53Z</time>
<desc>lat.=22.324043, lon.=103.771423, Alt.=2419.533203m. Speed=0.036000m/h.</desc>
<speed>0.010000</speed>
</trkpt>
<trkpt lat="22.324047" lon="103.771423">
<ele>2419.470703</ele>
<time>2011-04-24T08:50:58Z</time>
<desc>lat.=22.324047, lon.=103.771423, Alt.=2419.470703m. Speed=1.224000m/h.</desc>
<speed>0.340000</speed>
</trkpt>
<trkpt lat="22.324062" lon="103.771416">
<ele>2418.908203</ele>
<time>2011-04-24T08:51:03Z</time>
<desc>lat.=22.324062, lon.=103.771416, Alt.=2418.908203m. Speed=1.332000m/h.</desc>
<speed>0.370000</speed>
</trkpt>
<trkpt lat="22.324074" lon="103.771416">
<ele>2417.345703</ele>
<time>2011-04-24T08:51:08Z</time>
<desc>lat.=22.324074, lon.=103.771416, Alt.=2417.345703m. Speed=1.440000m/h.</desc>
<speed>0.400000</speed>
</trkpt>
<trkpt lat="22.324085" lon="103.771408">
<ele>2415.845703</ele>
<time>2011-04-24T08:51:13Z</time>
<desc>lat.=22.324085, lon.=103.771408, Alt.=2415.845703m. Speed=1.692000m/h.</desc>
<speed>0.470000</speed>
</trkpt>
<trkpt lat="22.324106" lon="103.771408">
<ele>2414.345703</ele>
<time>2011-04-24T08:51:18Z</time>
<desc>lat.=22.324106, lon.=103.771408, Alt.=2414.345703m. Speed=2.664000m/h.</desc>
<speed>0.740000</speed>
</trkpt>
<trkpt lat="22.324114" lon="103.771408">
<ele>2413.283203</ele>
<time>2011-04-24T08:51:23Z</time>
<desc>lat.=22.324114, lon.=103.771408, Alt.=2413.283203m. Speed=0.216000m/h.</desc>
<speed>0.060000</speed>
</trkpt>
<trkpt lat="22.324121" lon="103.771408">
<ele>2412.845703</ele>
<time>2011-04-24T08:51:28Z</time>
<desc>lat.=22.324121, lon.=103.771408, Alt.=2412.845703m. Speed=2.196000m/h.</desc>
<speed>0.610000</speed>
</trkpt>
<trkpt lat="22.324144" lon="103.771416">
<ele>2412.658203</ele>
<time>2011-04-24T08:51:33Z</time>
<desc>lat.=22.324144, lon.=103.771416, Alt.=2412.658203m. Speed=1.512000m/h.</desc>
<speed>0.420000</speed>
</trkpt>
<trkpt lat="22.324158" lon="103.771416">
<ele>2411.970703</ele>
<time>2011-04-24T08:51:38Z</time>
<desc>lat.=22.324158, lon.=103.771416, Alt.=2411.970703m. Speed=1.044000m/h.</desc>
<speed>0.290000</speed>
</trkpt>
<trkpt lat="22.324173" lon="103.771423">
<ele>2411.470703</ele>
<time>2011-04-24T08:51:43Z</time>
<desc>lat.=22.324173, lon.=103.771423, Alt.=2411.470703m. Speed=1.296000m/h.</desc>
<speed>0.360000</speed>
</trkpt>
<trkpt lat="22.324196" lon="103.771423">
<ele>2411.158203</ele>
<time>2011-04-24T08:51:48Z</time>
<desc>lat.=22.324196, lon.=103.771423, Alt.=2411.158203m. Speed=0.720000m/h.</desc>
<speed>0.200000</speed>
</trkpt>
<trkpt lat="22.324207" lon="103.771423">
<ele>2411.095703</ele>
<time>2011-04-24T08:51:53Z</time>
<desc>lat.=22.324207, lon.=103.771423, Alt.=2411.095703m. Speed=1.116000m/h.</desc>
<speed>0.310000</speed>
</trkpt>
<trkpt lat="22.324242" lon="103.771469">
<ele>2410.595703</ele>
<time>2011-04-24T08:51:58Z</time>
<desc>lat.=22.324242, lon.=103.771469, Alt.=2410.595703m. Speed=1.116000m/h.</desc>
<speed>0.310000</speed>
</trkpt>
<trkpt lat="22.324226" lon="103.771507">
<ele>2410.095703</ele>
<time>2011-04-24T08:52:03Z</time>
<desc>lat.=22.324226, lon.=103.771507, Alt.=2410.095703m. Speed=3.132000m/h.</desc>
<speed>0.870000</speed>
</trkpt>
<trkpt lat="22.324240" lon="103.771553">
<ele>2409.720703</ele>
<time>2011-04-24T08:52:08Z</time>
<desc>lat.=22.324240, lon.=103.771553, Alt.=2409.720703m. Speed=6.876000m/h.</desc>
<speed>1.910000</speed>
</trkpt>
<trkpt lat="22.324249" lon="103.771614">
<ele>2408.345703</ele>
<time>2011-04-24T08:52:13Z</time>
<desc>lat.=22.324249, lon.=103.771614, Alt.=2408.345703m. Speed=1.764000m/h.</desc>
<speed>0.490000</speed>
</trkpt>
<trkpt lat="22.324247" lon="103.771637">
<ele>2407.783203</ele>
<time>2011-04-24T08:52:18Z</time>
<desc>lat.=22.324247, lon.=103.771637, Alt.=2407.783203m. Speed=1.476000m/h.</desc>
<speed>0.410000</speed>
</trkpt>
<trkpt lat="22.324251" lon="103.771660">
<ele>2406.720703</ele>
<time>2011-04-24T08:52:23Z</time>
<desc>lat.=22.324251, lon.=103.771660, Alt.=2406.720703m. Speed=2.808000m/h.</desc>
<speed>0.780000</speed>
</trkpt>
<trkpt lat="22.324297" lon="103.771690">
<ele>2405.283203</ele>
<time>2011-04-24T08:52:28Z</time>
<desc>lat.=22.324297, lon.=103.771690, Alt.=2405.283203m. Speed=4.536000m/h.</desc>
<speed>1.260000</speed>
</trkpt>
<trkpt lat="22.324329" lon="103.771713">
<ele>2403.470703</ele>
<time>2011-04-24T08:52:33Z</time>
<desc>lat.=22.324329, lon.=103.771713, Alt.=2403.470703m. Speed=2.700000m/h.</desc>
<speed>0.750000</speed>
</trkpt>
<trkpt lat="22.324352" lon="103.771729">
<ele>2401.908203</ele>
<time>2011-04-24T08:52:38Z</time>
<desc>lat.=22.324352, lon.=103.771729, Alt.=2401.908203m. Speed=2.232000m/h.</desc>
<speed>0.620000</speed>
</trkpt>
<trkpt lat="22.324396" lon="103.771774">
<ele>2400.095703</ele>
<time>2011-04-24T08:52:43Z</time>
<desc>lat.=22.324396, lon.=103.771774, Alt.=2400.095703m. Speed=5.472000m/h.</desc>
<speed>1.520000</speed>
</trkpt>
<trkpt lat="22.324440" lon="103.771812">
<ele>2398.783203</ele>
<time>2011-04-24T08:52:48Z</time>
<desc>lat.=22.324440, lon.=103.771812, Alt.=2398.783203m. Speed=4.932000m/h.</desc>
<speed>1.370000</speed>
</trkpt>
<trkpt lat="22.324484" lon="103.771858">
<ele>2397.970703</ele>
<time>2011-04-24T08:52:53Z</time>
<desc>lat.=22.324484, lon.=103.771858, Alt.=2397.970703m. Speed=4.896000m/h.</desc>
<speed>1.360000</speed>
</trkpt>
<trkpt lat="22.324499" lon="103.771919">
<ele>2396.970703</ele>
<time>2011-04-24T08:52:58Z</time>
<desc>lat.=22.324499, lon.=103.771919, Alt.=2396.970703m. Speed=3.420000m/h.</desc>
<speed>0.950000</speed>
</trkpt>
<trkpt lat="22.324514" lon="103.771950">
<ele>2395.408203</ele>
<time>2011-04-24T08:53:03Z</time>
<desc>lat.=22.324514, lon.=103.771950, Alt.=2395.408203m. Speed=5.184000m/h.</desc>
<speed>1.440000</speed>
</trkpt>
<trkpt lat="22.324564" lon="103.771965">
<ele>2395.845703</ele>
<time>2011-04-24T08:53:08Z</time>
<desc>lat.=22.324564, lon.=103.771965, Alt.=2395.845703m. Speed=4.068000m/h.</desc>
<speed>1.130000</speed>
</trkpt>
<trkpt lat="22.324604" lon="103.771996">
<ele>2397.158203</ele>
<time>2011-04-24T08:53:13Z</time>
<desc>lat.=22.324604, lon.=103.771996, Alt.=2397.158203m. Speed=4.104000m/h.</desc>
<speed>1.140000</speed>
</trkpt>
<trkpt lat="22.324614" lon="103.772049">
<ele>2397.658203</ele>
<time>2011-04-24T08:53:18Z</time>
<desc>lat.=22.324614, lon.=103.772049, Alt.=2397.658203m. Speed=3.168000m/h.</desc>
<speed>0.880000</speed>
</trkpt>
<trkpt lat="22.324621" lon="103.772079">
<ele>2397.720703</ele>
<time>2011-04-24T08:53:23Z</time>
<desc>lat.=22.324621, lon.=103.772079, Alt.=2397.720703m. Speed=2.448000m/h.</desc>
<speed>0.680000</speed>
</trkpt>
<trkpt lat="22.324633" lon="103.772110">
<ele>2398.908203</ele>
<time>2011-04-24T08:53:28Z</time>
<desc>lat.=22.324633, lon.=103.772110, Alt.=2398.908203m. Speed=3.276000m/h.</desc>
<speed>0.910000</speed>
</trkpt>
<trkpt lat="22.324654" lon="103.772141">
<ele>2400.720703</ele>
<time>2011-04-24T08:53:33Z</time>
<desc>lat.=22.324654, lon.=103.772141, Alt.=2400.720703m. Speed=4.608000m/h.</desc>
<speed>1.280000</speed>
</trkpt>
<trkpt lat="22.324682" lon="103.772163">
<ele>2400.720703</ele>
<time>2011-04-24T08:53:38Z</time>
<desc>lat.=22.324682, lon.=103.772163, Alt.=2400.720703m. Speed=3.492000m/h.</desc>
<speed>0.970000</speed>
</trkpt>
<trkpt lat="22.324701" lon="103.772179">
<ele>2400.345703</ele>
<time>2011-04-24T08:53:43Z</time>
<desc>lat.=22.324701, lon.=103.772179, Alt.=2400.345703m. Speed=1.368000m/h.</desc>
<speed>0.380000</speed>
</trkpt>
<trkpt lat="22.324713" lon="103.772186">
<ele>2399.533203</ele>
<time>2011-04-24T08:53:48Z</time>
<desc>lat.=22.324713, lon.=103.772186, Alt.=2399.533203m. Speed=1.656000m/h.</desc>
<speed>0.460000</speed>
</trkpt>
<trkpt lat="22.324732" lon="103.772186">
<ele>2398.408203</ele>
<time>2011-04-24T08:53:53Z</time>
<desc>lat.=22.324732, lon.=103.772186, Alt.=2398.408203m. Speed=0.864000m/h.</desc>
<speed>0.240000</speed>
</trkpt>
<trkpt lat="22.324739" lon="103.772186">
<ele>2398.158203</ele>
<time>2011-04-24T08:53:58Z</time>
<desc>lat.=22.324739, lon.=103.772186, Alt.=2398.158203m. Speed=0.756000m/h.</desc>
<speed>0.210000</speed>
</trkpt>
<trkpt lat="22.324751" lon="103.772194">
<ele>2397.470703</ele>
<time>2011-04-24T08:54:03Z</time>
<desc>lat.=22.324751, lon.=103.772194, Alt.=2397.470703m. Speed=2.700000m/h.</desc>
<speed>0.750000</speed>
</trkpt>
<trkpt lat="22.324799" lon="103.772232">
<ele>2396.345703</ele>
<time>2011-04-24T08:54:08Z</time>
<desc>lat.=22.324799, lon.=103.772232, Alt.=2396.345703m. Speed=4.860000m/h.</desc>
<speed>1.350000</speed>
</trkpt>
<trkpt lat="22.324816" lon="103.772285">
<ele>2395.908203</ele>
<time>2011-04-24T08:54:13Z</time>
<desc>lat.=22.324816, lon.=103.772285, Alt.=2395.908203m. Speed=3.672000m/h.</desc>
<speed>1.020000</speed>
</trkpt>
<trkpt lat="22.324806" lon="103.772324">
<ele>2394.783203</ele>
<time>2011-04-24T08:54:18Z</time>
<desc>lat.=22.324806, lon.=103.772324, Alt.=2394.783203m. Speed=1.800000m/h.</desc>
<speed>0.500000</speed>
</trkpt>
<trkpt lat="22.324800" lon="103.772346">
<ele>2393.595703</ele>
<time>2011-04-24T08:54:23Z</time>
<desc>lat.=22.324800, lon.=103.772346, Alt.=2393.595703m. Speed=2.160000m/h.</desc>
<speed>0.600000</speed>
</trkpt>
<trkpt lat="22.324800" lon="103.772377">
<ele>2394.408203</ele>
<time>2011-04-24T08:54:28Z</time>
<desc>lat.=22.324800, lon.=103.772377, Alt.=2394.408203m. Speed=4.464000m/h.</desc>
<speed>1.240000</speed>
</trkpt>
<trkpt lat="22.324825" lon="103.772423">
<ele>2394.408203</ele>
<time>2011-04-24T08:54:33Z</time>
<desc>lat.=22.324825, lon.=103.772423, Alt.=2394.408203m. Speed=3.384000m/h.</desc>
<speed>0.940000</speed>
</trkpt>
<trkpt lat="22.324852" lon="103.772476">
<ele>2392.470703</ele>
<time>2011-04-24T08:54:38Z</time>
<desc>lat.=22.324852, lon.=103.772476, Alt.=2392.470703m. Speed=2.340000m/h.</desc>
<speed>0.650000</speed>
</trkpt>
<trkpt lat="22.324873" lon="103.772476">
<ele>2391.595703</ele>
<time>2011-04-24T08:54:43Z</time>
<desc>lat.=22.324873, lon.=103.772476, Alt.=2391.595703m. Speed=1.980000m/h.</desc>
<speed>0.550000</speed>
</trkpt>
<trkpt lat="22.324890" lon="103.772476">
<ele>2391.095703</ele>
<time>2011-04-24T08:54:48Z</time>
<desc>lat.=22.324890, lon.=103.772476, Alt.=2391.095703m. Speed=0.216000m/h.</desc>
<speed>0.060000</speed>
</trkpt>
<trkpt lat="22.324888" lon="103.772476">
<ele>2390.845703</ele>
<time>2011-04-24T08:54:53Z</time>
<desc>lat.=22.324888, lon.=103.772476, Alt.=2390.845703m. Speed=0.108000m/h.</desc>
<speed>0.030000</speed>
</trkpt>
<trkpt lat="22.324888" lon="103.772476">
<ele>2390.595703</ele>
<time>2011-04-24T08:54:58Z</time>
<desc>lat.=22.324888, lon.=103.772476, Alt.=2390.595703m. Speed=1.404000m/h.</desc>
<speed>0.390000</speed>
</trkpt>
<trkpt lat="22.324911" lon="103.772461">
<ele>2389.658203</ele>
<time>2011-04-24T08:55:03Z</time>
<desc>lat.=22.324911, lon.=103.772461, Alt.=2389.658203m. Speed=1.764000m/h.</desc>
<speed>0.490000</speed>
</trkpt>
<trkpt lat="22.324924" lon="103.772461">
<ele>2389.470703</ele>
<time>2011-04-24T08:55:08Z</time>
<desc>lat.=22.324924, lon.=103.772461, Alt.=2389.470703m. Speed=0.792000m/h.</desc>
<speed>0.220000</speed>
</trkpt>
<trkpt lat="22.324942" lon="103.772453">
<ele>2389.158203</ele>
<time>2011-04-24T08:55:13Z</time>
<desc>lat.=22.324942, lon.=103.772453, Alt.=2389.158203m. Speed=1.584000m/h.</desc>
<speed>0.440000</speed>
</trkpt>
<trkpt lat="22.324945" lon="103.772446">
<ele>2388.845703</ele>
<time>2011-04-24T08:55:18Z</time>
<desc>lat.=22.324945, lon.=103.772446, Alt.=2388.845703m. Speed=0.684000m/h.</desc>
<speed>0.190000</speed>
</trkpt>
<trkpt lat="22.324963" lon="103.772430">
<ele>2388.283203</ele>
<time>2011-04-24T08:55:23Z</time>
<desc>lat.=22.324963, lon.=103.772430, Alt.=2388.283203m. Speed=4.140000m/h.</desc>
<speed>1.150000</speed>
</trkpt>
<trkpt lat="22.325026" lon="103.772400">
<ele>2387.408203</ele>
<time>2011-04-24T08:55:28Z</time>
<desc>lat.=22.325026, lon.=103.772400, Alt.=2387.408203m. Speed=5.184000m/h.</desc>
<speed>1.440000</speed>
</trkpt>
<trkpt lat="22.325071" lon="103.772392">
<ele>2387.595703</ele>
<time>2011-04-24T08:55:33Z</time>
<desc>lat.=22.325071, lon.=103.772392, Alt.=2387.595703m. Speed=2.232000m/h.</desc>
<speed>0.620000</speed>
</trkpt>
<trkpt lat="22.325104" lon="103.772385">
<ele>2386.845703</ele>
<time>2011-04-24T08:55:38Z</time>
<desc>lat.=22.325104, lon.=103.772385, Alt.=2386.845703m. Speed=2.052000m/h.</desc>
<speed>0.570000</speed>
</trkpt>
<trkpt lat="22.325125" lon="103.772385">
<ele>2385.095703</ele>
<time>2011-04-24T08:55:43Z</time>
<desc>lat.=22.325125, lon.=103.772385, Alt.=2385.095703m. Speed=2.232000m/h.</desc>
<speed>0.620000</speed>
</trkpt>
<trkpt lat="22.325138" lon="103.772377">
<ele>2384.408203</ele>
<time>2011-04-24T08:55:48Z</time>
<desc>lat.=22.325138, lon.=103.772377, Alt.=2384.408203m. Speed=0.288000m/h.</desc>
<speed>0.080000</speed>
</trkpt>
<trkpt lat="22.325140" lon="103.772385">
<ele>2384.158203</ele>
<time>2011-04-24T08:55:53Z</time>
<desc>lat.=22.325140, lon.=103.772385, Alt.=2384.158203m. Speed=0.648000m/h.</desc>
<speed>0.180000</speed>
</trkpt>
<trkpt lat="22.325161" lon="103.772377">
<ele>2383.033203</ele>
<time>2011-04-24T08:55:58Z</time>
<desc>lat.=22.325161, lon.=103.772377, Alt.=2383.033203m. Speed=2.448000m/h.</desc>
<speed>0.680000</speed>
</trkpt>
<trkpt lat="22.325184" lon="103.772377">
<ele>2382.095703</ele>
<time>2011-04-24T08:56:03Z</time>
<desc>lat.=22.325184, lon.=103.772377, Alt.=2382.095703m. Speed=1.728000m/h.</desc>
<speed>0.480000</speed>
</trkpt>
<trkpt lat="22.325199" lon="103.772362">
<ele>2381.470703</ele>
<time>2011-04-24T08:56:08Z</time>
<desc>lat.=22.325199, lon.=103.772362, Alt.=2381.470703m. Speed=1.548000m/h.</desc>
<speed>0.430000</speed>
</trkpt>
<trkpt lat="22.325220" lon="103.772354">
<ele>2380.283203</ele>
<time>2011-04-24T08:56:13Z</time>
<desc>lat.=22.325220, lon.=103.772354, Alt.=2380.283203m. Speed=0.216000m/h.</desc>
<speed>0.060000</speed>
</trkpt>
<trkpt lat="22.325235" lon="103.772346">
<ele>2378.658203</ele>
<time>2011-04-24T08:56:18Z</time>
<desc>lat.=22.325235, lon.=103.772346, Alt.=2378.658203m. Speed=1.476000m/h.</desc>
<speed>0.410000</speed>
</trkpt>
<trkpt lat="22.325256" lon="103.772346">
<ele>2377.533203</ele>
<time>2011-04-24T08:56:23Z</time>
<desc>lat.=22.325256, lon.=103.772346, Alt.=2377.533203m. Speed=1.584000m/h.</desc>
<speed>0.440000</speed>
</trkpt>
<trkpt lat="22.325281" lon="103.772354">
<ele>2376.595703</ele>
<time>2011-04-24T08:56:28Z</time>
<desc>lat.=22.325281, lon.=103.772354, Alt.=2376.595703m. Speed=0.504000m/h.</desc>
<speed>0.140000</speed>
</trkpt>
<trkpt lat="22.325317" lon="103.772400">
<ele>2374.908203</ele>
<time>2011-04-24T08:56:33Z</time>
<desc>lat.=22.325317, lon.=103.772400, Alt.=2374.908203m. Speed=4.860000m/h.</desc>
<speed>1.350000</speed>
</trkpt>
<trkpt lat="22.325352" lon="103.772446">
<ele>2374.283203</ele>
<time>2011-04-24T08:56:38Z</time>
<desc>lat.=22.325352, lon.=103.772446, Alt.=2374.283203m. Speed=2.700000m/h.</desc>
<speed>0.750000</speed>
</trkpt>
<trkpt lat="22.325367" lon="103.772507">
<ele>2375.470703</ele>
<time>2011-04-24T08:56:43Z</time>
<desc>lat.=22.325367, lon.=103.772507, Alt.=2375.470703m. Speed=4.464000m/h.</desc>
<speed>1.240000</speed>
</trkpt>
<trkpt lat="22.325384" lon="103.772552">
<ele>2374.595703</ele>
<time>2011-04-24T08:56:48Z</time>
<desc>lat.=22.325384, lon.=103.772552, Alt.=2374.595703m. Speed=4.572000m/h.</desc>
<speed>1.270000</speed>
</trkpt>
<trkpt lat="22.325436" lon="103.772560">
<ele>2373.470703</ele>
<time>2011-04-24T08:56:53Z</time>
<desc>lat.=22.325436, lon.=103.772560, Alt.=2373.470703m. Speed=4.680000m/h.</desc>
<speed>1.300000</speed>
</trkpt>
<trkpt lat="22.325476" lon="103.772568">
<ele>2372.533203</ele>
<time>2011-04-24T08:56:58Z</time>
<desc>lat.=22.325476, lon.=103.772568, Alt.=2372.533203m. Speed=0.900000m/h.</desc>
<speed>0.250000</speed>
</trkpt>
<trkpt lat="22.325485" lon="103.772568">
<ele>2372.408203</ele>
<time>2011-04-24T08:57:03Z</time>
<desc>lat.=22.325485, lon.=103.772568, Alt.=2372.408203m. Speed=2.412000m/h.</desc>
<speed>0.670000</speed>
</trkpt>
<trkpt lat="22.325514" lon="103.772568">
<ele>2372.158203</ele>
<time>2011-04-24T08:57:08Z</time>
<desc>lat.=22.325514, lon.=103.772568, Alt.=2372.158203m. Speed=2.232000m/h.</desc>
<speed>0.620000</speed>
</trkpt>
<trkpt lat="22.325514" lon="103.772568">
<ele>2372.720703</ele>
<time>2011-04-24T08:57:13Z</time>
<desc>lat.=22.325514, lon.=103.772568, Alt.=2372.720703m. Speed=1.296000m/h.</desc>
<speed>0.360000</speed>
</trkpt>
<trkpt lat="22.325544" lon="103.772568">
<ele>2370.908203</ele>
<time>2011-04-24T08:57:18Z</time>
<desc>lat.=22.325544, lon.=103.772568, Alt.=2370.908203m. Speed=3.276000m/h.</desc>
<speed>0.910000</speed>
</trkpt>
<trkpt lat="22.325583" lon="103.772560">
<ele>2370.533203</ele>
<time>2011-04-24T08:57:23Z</time>
<desc>lat.=22.325583, lon.=103.772560, Alt.=2370.533203m. Speed=4.356000m/h.</desc>
<speed>1.210000</speed>
</trkpt>
<trkpt lat="22.325630" lon="103.772552">
<ele>2371.783203</ele>
<time>2011-04-24T08:57:28Z</time>
<desc>lat.=22.325630, lon.=103.772552, Alt.=2371.783203m. Speed=3.708000m/h.</desc>
<speed>1.030000</speed>
</trkpt>
<trkpt lat="22.325672" lon="103.772530">
<ele>2372.970703</ele>
<time>2011-04-24T08:57:33Z</time>
<desc>lat.=22.325672, lon.=103.772530, Alt.=2372.970703m. Speed=2.448000m/h.</desc>
<speed>0.680000</speed>
</trkpt>
<trkpt lat="22.325710" lon="103.772491">
<ele>2373.345703</ele>
<time>2011-04-24T08:57:38Z</time>
<desc>lat.=22.325710, lon.=103.772491, Alt.=2373.345703m. Speed=4.176000m/h.</desc>
<speed>1.160000</speed>
</trkpt>
<trkpt lat="22.325743" lon="103.772491">
<ele>2372.970703</ele>
<time>2011-04-24T08:57:43Z</time>
<desc>lat.=22.325743, lon.=103.772491, Alt.=2372.970703m. Speed=3.816000m/h.</desc>
<speed>1.060000</speed>
</trkpt>
<trkpt lat="22.325775" lon="103.772499">
<ele>2373.033203</ele>
<time>2011-04-24T08:57:48Z</time>
<desc>lat.=22.325775, lon.=103.772499, Alt.=2373.033203m. Speed=4.248000m/h.</desc>
<speed>1.180000</speed>
</trkpt>
<trkpt lat="22.325811" lon="103.772491">
<ele>2373.533203</ele>
<time>2011-04-24T08:57:53Z</time>
<desc>lat.=22.325811, lon.=103.772491, Alt.=2373.533203m. Speed=3.600000m/h.</desc>
<speed>1.000000</speed>
</trkpt>
<trkpt lat="22.325857" lon="103.772484">
<ele>2375.095703</ele>
<time>2011-04-24T08:57:58Z</time>
<desc>lat.=22.325857, lon.=103.772484, Alt.=2375.095703m. Speed=3.780000m/h.</desc>
<speed>1.050000</speed>
</trkpt>
<trkpt lat="22.325903" lon="103.772476">
<ele>2376.033203</ele>
<time>2011-04-24T08:58:03Z</time>
<desc>lat.=22.325903, lon.=103.772476, Alt.=2376.033203m. Speed=3.816000m/h.</desc>
<speed>1.060000</speed>
</trkpt>
<trkpt lat="22.325956" lon="103.772491">
<ele>2376.033203</ele>
<time>2011-04-24T08:58:08Z</time>
<desc>lat.=22.325956, lon.=103.772491, Alt.=2376.033203m. Speed=4.104000m/h.</desc>
<speed>1.140000</speed>
</trkpt>
<trkpt lat="22.325977" lon="103.772491">
<ele>2375.533203</ele>
<time>2011-04-24T08:58:13Z</time>
<desc>lat.=22.325977, lon.=103.772491, Alt.=2375.533203m. Speed=0.144000m/h.</desc>
<speed>0.040000</speed>
</trkpt>
<trkpt lat="22.325977" lon="103.772491">
<ele>2375.220703</ele>
<time>2011-04-24T08:58:18Z</time>
<desc>lat.=22.325977, lon.=103.772491, Alt.=2375.220703m. Speed=0.648000m/h.</desc>
<speed>0.180000</speed>
</trkpt>
<trkpt lat="22.325989" lon="103.772491">
<ele>2374.908203</ele>
<time>2011-04-24T08:58:23Z</time>
<desc>lat.=22.325989, lon.=103.772491, Alt.=2374.908203m. Speed=3.204000m/h.</desc>
<speed>0.890000</speed>
</trkpt>
<trkpt lat="22.326010" lon="103.772491">
<ele>2374.845703</ele>
<time>2011-04-24T08:58:28Z</time>
<desc>lat.=22.326010, lon.=103.772491, Alt.=2374.845703m. Speed=2.412000m/h.</desc>
<speed>0.670000</speed>
</trkpt>
<trkpt lat="22.326052" lon="103.772507">
<ele>2376.345703</ele>
<time>2011-04-24T08:58:33Z</time>
<desc>lat.=22.326052, lon.=103.772507, Alt.=2376.345703m. Speed=2.484000m/h.</desc>
<speed>0.690000</speed>
</trkpt>
<trkpt lat="22.326080" lon="103.772522">
<ele>2376.595703</ele>
<time>2011-04-24T08:58:38Z</time>
<desc>lat.=22.326080, lon.=103.772522, Alt.=2376.595703m. Speed=2.628000m/h.</desc>
<speed>0.730000</speed>
</trkpt>
<trkpt lat="22.326111" lon="103.772560">
<ele>2376.283203</ele>
<time>2011-04-24T08:58:43Z</time>
<desc>lat.=22.326111, lon.=103.772560, Alt.=2376.283203m. Speed=3.420000m/h.</desc>
<speed>0.950000</speed>
</trkpt>
<trkpt lat="22.326117" lon="103.772575">
<ele>2376.970703</ele>
<time>2011-04-24T08:58:48Z</time>
<desc>lat.=22.326117, lon.=103.772575, Alt.=2376.970703m. Speed=1.512000m/h.</desc>
<speed>0.420000</speed>
</trkpt>
<trkpt lat="22.326138" lon="103.772606">
<ele>2376.095703</ele>
<time>2011-04-24T08:58:53Z</time>
<desc>lat.=22.326138, lon.=103.772606, Alt.=2376.095703m. Speed=2.376000m/h.</desc>
<speed>0.660000</speed>
</trkpt>
<trkpt lat="22.326159" lon="103.772629">
<ele>2375.470703</ele>
<time>2011-04-24T08:58:58Z</time>
<desc>lat.=22.326159, lon.=103.772629, Alt.=2375.470703m. Speed=1.512000m/h.</desc>
<speed>0.420000</speed>
</trkpt>
<trkpt lat="22.326170" lon="103.772644">
<ele>2375.220703</ele>
<time>2011-04-24T08:59:03Z</time>
<desc>lat.=22.326170, lon.=103.772644, Alt.=2375.220703m. Speed=1.008000m/h.</desc>
<speed>0.280000</speed>
</trkpt>
<trkpt lat="22.326180" lon="103.772667">
<ele>2375.158203</ele>
<time>2011-04-24T08:59:08Z</time>
<desc>lat.=22.326180, lon.=103.772667, Alt.=2375.158203m. Speed=1.836000m/h.</desc>
<speed>0.510000</speed>
</trkpt>
<trkpt lat="22.326193" lon="103.772682">
<ele>2374.283203</ele>
<time>2011-04-24T08:59:13Z</time>
<desc>lat.=22.326193, lon.=103.772682, Alt.=2374.283203m. Speed=1.656000m/h.</desc>
<speed>0.460000</speed>
</trkpt>
<trkpt lat="22.326210" lon="103.772690">
<ele>2373.095703</ele>
<time>2011-04-24T08:59:18Z</time>
<desc>lat.=22.326210, lon.=103.772690, Alt.=2373.095703m. Speed=0.936000m/h.</desc>
<speed>0.260000</speed>
</trkpt>
<trkpt lat="22.326223" lon="103.772705">
<ele>2372.095703</ele>
<time>2011-04-24T08:59:23Z</time>
<desc>lat.=22.326223, lon.=103.772705, Alt.=2372.095703m. Speed=2.124000m/h.</desc>
<speed>0.590000</speed>
</trkpt>
<trkpt lat="22.326231" lon="103.772728">
<ele>2370.720703</ele>
<time>2011-04-24T08:59:28Z</time>
<desc>lat.=22.326231, lon.=103.772728, Alt.=2370.720703m. Speed=0.252000m/h.</desc>
<speed>0.070000</speed>
</trkpt>
<trkpt lat="22.326235" lon="103.772728">
<ele>2369.908203</ele>
<time>2011-04-24T08:59:33Z</time>
<desc>lat.=22.326235, lon.=103.772728, Alt.=2369.908203m. Speed=1.368000m/h.</desc>
<speed>0.380000</speed>
</trkpt>
<trkpt lat="22.326235" lon="103.772736">
<ele>2368.595703</ele>
<time>2011-04-24T08:59:38Z</time>
<desc>lat.=22.326235, lon.=103.772736, Alt.=2368.595703m. Speed=1.224000m/h.</desc>
<speed>0.340000</speed>
</trkpt>
<trkpt lat="22.326246" lon="103.772751">
<ele>2367.533203</ele>
<time>2011-04-24T08:59:43Z</time>
<desc>lat.=22.326246, lon.=103.772751, Alt.=2367.533203m. Speed=1.440000m/h.</desc>
<speed>0.400000</speed>
</trkpt>
<trkpt lat="22.326271" lon="103.772743">
<ele>2366.345703</ele>
<time>2011-04-24T08:59:48Z</time>
<desc>lat.=22.326271, lon.=103.772743, Alt.=2366.345703m. Speed=1.728000m/h.</desc>
<speed>0.480000</speed>
</trkpt>
<trkpt lat="22.326279" lon="103.772743">
<ele>2365.595703</ele>
<time>2011-04-24T08:59:53Z</time>
<desc>lat.=22.326279, lon.=103.772743, Alt.=2365.595703m. Speed=1.188000m/h.</desc>
<speed>0.330000</speed>
</trkpt>
<trkpt lat="22.326286" lon="103.772736">
<ele>2365.033203</ele>
<time>2011-04-24T08:59:58Z</time>
<desc>lat.=22.326286, lon.=103.772736, Alt.=2365.033203m. Speed=0.288000m/h.</desc>
<speed>0.080000</speed>
</trkpt>
<trkpt lat="22.326296" lon="103.772736">
<ele>2364.220703</ele>
<time>2011-04-24T09:00:03Z</time>
<desc>lat.=22.326296, lon.=103.772736, Alt.=2364.220703m. Speed=0.936000m/h.</desc>
<speed>0.260000</speed>
</trkpt>
<trkpt lat="22.326307" lon="103.772728">
<ele>2363.220703</ele>
<time>2011-04-24T09:00:08Z</time>
<desc>lat.=22.326307, lon.=103.772728, Alt.=2363.220703m. Speed=0.936000m/h.</desc>
<speed>0.260000</speed>
</trkpt>
<trkpt lat="22.326324" lon="103.772728">
<ele>2361.970703</ele>
<time>2011-04-24T09:00:13Z</time>
<desc>lat.=22.326324, lon.=103.772728, Alt.=2361.970703m. Speed=1.188000m/h.</desc>
<speed>0.330000</speed>
</trkpt>
<trkpt lat="22.326340" lon="103.772720">
<ele>2360.908203</ele>
<time>2011-04-24T09:00:18Z</time>
<desc>lat.=22.326340, lon.=103.772720, Alt.=2360.908203m. Speed=1.476000m/h.</desc>
<speed>0.410000</speed>
</trkpt>
<trkpt lat="22.326357" lon="103.772736">
<ele>2359.658203</ele>
<time>2011-04-24T09:00:23Z</time>
<desc>lat.=22.326357, lon.=103.772736, Alt.=2359.658203m. Speed=0.792000m/h.</desc>
<speed>0.220000</speed>
</trkpt>
<trkpt lat="22.326366" lon="103.772736">
<ele>2358.783203</ele>
<time>2011-04-24T09:00:28Z</time>
<desc>lat.=22.326366, lon.=103.772736, Alt.=2358.783203m. Speed=1.260000m/h.</desc>
<speed>0.350000</speed>
</trkpt>
<trkpt lat="22.326382" lon="103.772736">
<ele>2358.533203</ele>
<time>2011-04-24T09:00:33Z</time>
<desc>lat.=22.326382, lon.=103.772736, Alt.=2358.533203m. Speed=1.548000m/h.</desc>
<speed>0.430000</speed>
</trkpt>
<trkpt lat="22.326422" lon="103.772697">
<ele>2358.095703</ele>
<time>2011-04-24T09:00:38Z</time>
<desc>lat.=22.326422, lon.=103.772697, Alt.=2358.095703m. Speed=4.464000m/h.</desc>
<speed>1.240000</speed>
</trkpt>
<trkpt lat="22.326439" lon="103.772682">
<ele>2356.783203</ele>
<time>2011-04-24T09:00:43Z</time>
<desc>lat.=22.326439, lon.=103.772682, Alt.=2356.783203m. Speed=0.180000m/h.</desc>
<speed>0.050000</speed>
</trkpt>
<trkpt lat="22.326464" lon="103.772675">
<ele>2355.720703</ele>
<time>2011-04-24T09:00:48Z</time>
<desc>lat.=22.326464, lon.=103.772675, Alt.=2355.720703m. Speed=2.772000m/h.</desc>
<speed>0.770000</speed>
</trkpt>
<trkpt lat="22.326475" lon="103.772667">
<ele>2355.033203</ele>
<time>2011-04-24T09:00:53Z</time>
<desc>lat.=22.326475, lon.=103.772667, Alt.=2355.033203m. Speed=0.072000m/h.</desc>
<speed>0.020000</speed>
</trkpt>
<trkpt lat="22.326475" lon="103.772667">
<ele>2354.970703</ele>
<time>2011-04-24T09:00:58Z</time>
<desc>lat.=22.326475, lon.=103.772667, Alt.=2354.970703m. Speed=0.108000m/h.</desc>
<speed>0.030000</speed>
</trkpt>
<trkpt lat="22.326477" lon="103.772667">
<ele>2354.970703</ele>
<time>2011-04-24T09:01:03Z</time>
<desc>lat.=22.326477, lon.=103.772667, Alt.=2354.970703m. Speed=1.116000m/h.</desc>
<speed>0.310000</speed>
</trkpt>
<trkpt lat="22.326494" lon="103.772667">
<ele>2354.595703</ele>
<time>2011-04-24T09:01:08Z</time>
<desc>lat.=22.326494, lon.=103.772667, Alt.=2354.595703m. Speed=2.592000m/h.</desc>
<speed>0.720000</speed>
</trkpt>
<trkpt lat="22.326515" lon="103.772659">
<ele>2353.595703</ele>
<time>2011-04-24T09:01:13Z</time>
<desc>lat.=22.326515, lon.=103.772659, Alt.=2353.595703m. Speed=0.828000m/h.</desc>
<speed>0.230000</speed>
</trkpt>
<trkpt lat="22.326538" lon="103.772659">
<ele>2353.158203</ele>
<time>2011-04-24T09:01:18Z</time>
<desc>lat.=22.326538, lon.=103.772659, Alt.=2353.158203m. Speed=1.188000m/h.</desc>
<speed>0.330000</speed>
</trkpt>
<trkpt lat="22.326536" lon="103.772644">
<ele>2352.408203</ele>
<time>2011-04-24T09:01:23Z</time>
<desc>lat.=22.326536, lon.=103.772644, Alt.=2352.408203m. Speed=1.260000m/h.</desc>
<speed>0.350000</speed>
</trkpt>
<trkpt lat="22.326544" lon="103.772629">
<ele>2352.220703</ele>
<time>2011-04-24T09:01:28Z</time>
<desc>lat.=22.326544, lon.=103.772629, Alt.=2352.220703m. Speed=1.044000m/h.</desc>
<speed>0.290000</speed>
</trkpt>
<trkpt lat="22.326551" lon="103.772629">
<ele>2352.408203</ele>
<time>2011-04-24T09:01:33Z</time>
<desc>lat.=22.326551, lon.=103.772629, Alt.=2352.408203m. Speed=1.044000m/h.</desc>
<speed>0.290000</speed>
</trkpt>
<trkpt lat="22.326572" lon="103.772629">
<ele>2352.345703</ele>
<time>2011-04-24T09:01:38Z</time>
<desc>lat.=22.326572, lon.=103.772629, Alt.=2352.345703m. Speed=2.880000m/h.</desc>
<speed>0.800000</speed>
</trkpt>
<trkpt lat="22.326607" lon="103.772621">
<ele>2351.533203</ele>
<time>2011-04-24T09:01:43Z</time>
<desc>lat.=22.326607, lon.=103.772621, Alt.=2351.533203m. Speed=5.652000m/h.</desc>
<speed>1.570000</speed>
</trkpt>
<trkpt lat="22.326679" lon="103.772614">
<ele>2351.970703</ele>
<time>2011-04-24T09:01:48Z</time>
<desc>lat.=22.326679, lon.=103.772614, Alt.=2351.970703m. Speed=7.380000m/h.</desc>
<speed>2.050000</speed>
</trkpt>
<trkpt lat="22.326706" lon="103.772697">
<ele>2353.408203</ele>
<time>2011-04-24T09:01:53Z</time>
<desc>lat.=22.326706, lon.=103.772697, Alt.=2353.408203m. Speed=5.688000m/h.</desc>
<speed>1.580000</speed>
</trkpt>
<trkpt lat="22.326714" lon="103.772766">
<ele>2354.220703</ele>
<time>2011-04-24T09:01:58Z</time>
<desc>lat.=22.326714, lon.=103.772766, Alt.=2354.220703m. Speed=4.860000m/h.</desc>
<speed>1.350000</speed>
</trkpt>
<trkpt lat="22.326717" lon="103.772812">
<ele>2355.783203</ele>
<time>2011-04-24T09:02:03Z</time>
<desc>lat.=22.326717, lon.=103.772812, Alt.=2355.783203m. Speed=2.484000m/h.</desc>
<speed>0.690000</speed>
</trkpt>
<trkpt lat="22.326719" lon="103.772842">
<ele>2356.595703</ele>
<time>2011-04-24T09:02:08Z</time>
<desc>lat.=22.326719, lon.=103.772842, Alt.=2356.595703m. Speed=2.628000m/h.</desc>
<speed>0.730000</speed>
</trkpt>
<trkpt lat="22.326727" lon="103.772896">
<ele>2357.595703</ele>
<time>2011-04-24T09:02:13Z</time>
<desc>lat.=22.326727, lon.=103.772896, Alt.=2357.595703m. Speed=4.392000m/h.</desc>
<speed>1.220000</speed>
</trkpt>
<trkpt lat="22.326723" lon="103.772942">
<ele>2358.345703</ele>
<time>2011-04-24T09:02:18Z</time>
<desc>lat.=22.326723, lon.=103.772942, Alt.=2358.345703m. Speed=4.032000m/h.</desc>
<speed>1.120000</speed>
</trkpt>
<trkpt lat="22.326698" lon="103.772995">
<ele>2359.095703</ele>
<time>2011-04-24T09:02:23Z</time>
<desc>lat.=22.326698, lon.=103.772995, Alt.=2359.095703m. Speed=4.212000m/h.</desc>
<speed>1.170000</speed>
</trkpt>
<trkpt lat="22.326668" lon="103.773048">
<ele>2359.345703</ele>
<time>2011-04-24T09:02:28Z</time>
<desc>lat.=22.326668, lon.=103.773048, Alt.=2359.345703m. Speed=3.924000m/h.</desc>
<speed>1.090000</speed>
</trkpt>
<trkpt lat="22.326645" lon="103.773102">
<ele>2360.158203</ele>
<time>2011-04-24T09:02:33Z</time>
<desc>lat.=22.326645, lon.=103.773102, Alt.=2360.158203m. Speed=4.284000m/h.</desc>
<speed>1.190000</speed>
</trkpt>
<trkpt lat="22.326622" lon="103.773148">
<ele>2360.470703</ele>
<time>2011-04-24T09:02:38Z</time>
<desc>lat.=22.326622, lon.=103.773148, Alt.=2360.470703m. Speed=1.908000m/h.</desc>
<speed>0.530000</speed>
</trkpt>
<trkpt lat="22.326612" lon="103.773193">
<ele>2360.720703</ele>
<time>2011-04-24T09:02:43Z</time>
<desc>lat.=22.326612, lon.=103.773193, Alt.=2360.720703m. Speed=3.204000m/h.</desc>
<speed>0.890000</speed>
</trkpt>
<trkpt lat="22.326612" lon="103.773232">
<ele>2360.720703</ele>
<time>2011-04-24T09:02:48Z</time>
<desc>lat.=22.326612, lon.=103.773232, Alt.=2360.720703m. Speed=3.096000m/h.</desc>
<speed>0.860000</speed>
</trkpt>
<trkpt lat="22.326618" lon="103.773270">
<ele>2362.033203</ele>
<time>2011-04-24T09:02:53Z</time>
<desc>lat.=22.326618, lon.=103.773270, Alt.=2362.033203m. Speed=3.276000m/h.</desc>
<speed>0.910000</speed>
</trkpt>
<trkpt lat="22.326622" lon="103.773300">
<ele>2361.845703</ele>
<time>2011-04-24T09:02:58Z</time>
<desc>lat.=22.326622, lon.=103.773300, Alt.=2361.845703m. Speed=3.384000m/h.</desc>
<speed>0.940000</speed>
</trkpt>
<trkpt lat="22.326639" lon="103.773346">
<ele>2363.283203</ele>
<time>2011-04-24T09:03:03Z</time>
<desc>lat.=22.326639, lon.=103.773346, Alt.=2363.283203m. Speed=4.824000m/h.</desc>
<speed>1.340000</speed>
</trkpt>
<trkpt lat="22.326653" lon="103.773399">
<ele>2364.158203</ele>
<time>2011-04-24T09:03:08Z</time>
<desc>lat.=22.326653, lon.=103.773399, Alt.=2364.158203m. Speed=3.708000m/h.</desc>
<speed>1.030000</speed>
</trkpt>
<trkpt lat="22.326668" lon="103.773445">
<ele>2364.970703</ele>
<time>2011-04-24T09:03:13Z</time>
<desc>lat.=22.326668, lon.=103.773445, Alt.=2364.970703m. Speed=3.348000m/h.</desc>
<speed>0.930000</speed>
</trkpt>
<trkpt lat="22.326689" lon="103.773491">
<ele>2365.533203</ele>
<time>2011-04-24T09:03:18Z</time>
<desc>lat.=22.326689, lon.=103.773491, Alt.=2365.533203m. Speed=3.708000m/h.</desc>
<speed>1.030000</speed>
</trkpt>
<trkpt lat="22.326693" lon="103.773521">
<ele>2365.283203</ele>
<time>2011-04-24T09:03:23Z</time>
<desc>lat.=22.326693, lon.=103.773521, Alt.=2365.283203m. Speed=1.728000m/h.</desc>
<speed>0.480000</speed>
</trkpt>
<trkpt lat="22.326696" lon="103.773552">
<ele>2365.783203</ele>
<time>2011-04-24T09:03:28Z</time>
<desc>lat.=22.326696, lon.=103.773552, Alt.=2365.783203m. Speed=2.376000m/h.</desc>
<speed>0.660000</speed>
</trkpt>
<trkpt lat="22.326702" lon="103.773567">
<ele>2366.595703</ele>
<time>2011-04-24T09:03:33Z</time>
<desc>lat.=22.326702, lon.=103.773567, Alt.=2366.595703m. Speed=0.936000m/h.</desc>
<speed>0.260000</speed>
</trkpt>
<trkpt lat="22.326696" lon="103.773575">
<ele>2366.533203</ele>
<time>2011-04-24T09:03:38Z</time>
<desc>lat.=22.326696, lon.=103.773575, Alt.=2366.533203m. Speed=0.792000m/h.</desc>
<speed>0.220000</speed>
</trkpt>
<trkpt lat="22.326704" lon="103.773582">
<ele>2366.220703</ele>
<time>2011-04-24T09:03:43Z</time>
<desc>lat.=22.326704, lon.=103.773582, Alt.=2366.220703m. Speed=1.008000m/h.</desc>
<speed>0.280000</speed>
</trkpt>
<trkpt lat="22.326706" lon="103.773621">
<ele>2366.908203</ele>
<time>2011-04-24T09:03:48Z</time>
<desc>lat.=22.326706, lon.=103.773621, Alt.=2366.908203m. Speed=4.932000m/h.</desc>
<speed>1.370000</speed>
</trkpt>
<trkpt lat="22.326698" lon="103.773682">
<ele>2367.783203</ele>
<time>2011-04-24T09:03:53Z</time>
<desc>lat.=22.326698, lon.=103.773682, Alt.=2367.783203m. Speed=2.808000m/h.</desc>
<speed>0.780000</speed>
</trkpt>
<trkpt lat="22.326708" lon="103.773705">
<ele>2368.783203</ele>
<time>2011-04-24T09:03:58Z</time>
<desc>lat.=22.326708, lon.=103.773705, Alt.=2368.783203m. Speed=2.808000m/h.</desc>
<speed>0.780000</speed>
</trkpt>
<trkpt lat="22.326725" lon="103.773750">
<ele>2370.095703</ele>
<time>2011-04-24T09:04:03Z</time>
<desc>lat.=22.326725, lon.=103.773750, Alt.=2370.095703m. Speed=3.816000m/h.</desc>
<speed>1.060000</speed>
</trkpt>
<trkpt lat="22.326731" lon="103.773796">
<ele>2370.908203</ele>
<time>2011-04-24T09:04:08Z</time>
<desc>lat.=22.326731, lon.=103.773796, Alt.=2370.908203m. Speed=3.024000m/h.</desc>
<speed>0.840000</speed>
</trkpt>
<trkpt lat="22.326752" lon="103.773842">
<ele>2372.095703</ele>
<time>2011-04-24T09:04:13Z</time>
<desc>lat.=22.326752, lon.=103.773842, Alt.=2372.095703m. Speed=4.320000m/h.</desc>
<speed>1.200000</speed>
</trkpt>
<trkpt lat="22.326767" lon="103.773880">
<ele>2372.595703</ele>
<time>2011-04-24T09:04:18Z</time>
<desc>lat.=22.326767, lon.=103.773880, Alt.=2372.595703m. Speed=2.484000m/h.</desc>
<speed>0.690000</speed>
</trkpt>
<trkpt lat="22.326790" lon="103.773895">
<ele>2373.345703</ele>
<time>2011-04-24T09:04:23Z</time>
<desc>lat.=22.326790, lon.=103.773895, Alt.=2373.345703m. Speed=3.168000m/h.</desc>
<speed>0.880000</speed>
</trkpt>
<trkpt lat="22.326807" lon="103.773926">
<ele>2374.158203</ele>
<time>2011-04-24T09:04:28Z</time>
<desc>lat.=22.326807, lon.=103.773926, Alt.=2374.158203m. Speed=3.852000m/h.</desc>
<speed>1.070000</speed>
</trkpt>
<trkpt lat="22.326832" lon="103.773964">
<ele>2374.283203</ele>
<time>2011-04-24T09:04:33Z</time>
<desc>lat.=22.326832, lon.=103.773964, Alt.=2374.283203m. Speed=5.004000m/h.</desc>
<speed>1.390000</speed>
</trkpt>
<trkpt lat="22.326862" lon="103.773994">
<ele>2374.283203</ele>
<time>2011-04-24T09:04:38Z</time>
<desc>lat.=22.326862, lon.=103.773994, Alt.=2374.283203m. Speed=1.584000m/h.</desc>
<speed>0.440000</speed>
</trkpt>
<trkpt lat="22.326874" lon="103.774017">
<ele>2374.720703</ele>
<time>2011-04-24T09:04:43Z</time>
<desc>lat.=22.326874, lon.=103.774017, Alt.=2374.720703m. Speed=1.332000m/h.</desc>
<speed>0.370000</speed>
</trkpt>
<trkpt lat="22.326881" lon="103.774040">
<ele>2375.283203</ele>
<time>2011-04-24T09:04:48Z</time>
<desc>lat.=22.326881, lon.=103.774040, Alt.=2375.283203m. Speed=2.016000m/h.</desc>
<speed>0.560000</speed>
</trkpt>
<trkpt lat="22.326889" lon="103.774048">
<ele>2375.220703</ele>
<time>2011-04-24T09:04:53Z</time>
<desc>lat.=22.326889, lon.=103.774048, Alt.=2375.220703m. Speed=1.188000m/h.</desc>
<speed>0.330000</speed>
</trkpt>
<trkpt lat="22.326895" lon="103.774055">
<ele>2375.033203</ele>
<time>2011-04-24T09:04:58Z</time>
<desc>lat.=22.326895, lon.=103.774055, Alt.=2375.033203m. Speed=0.972000m/h.</desc>
<speed>0.270000</speed>
</trkpt>
<trkpt lat="22.326902" lon="103.774063">
<ele>2374.658203</ele>
<time>2011-04-24T09:05:03Z</time>
<desc>lat.=22.326902, lon.=103.774063, Alt.=2374.658203m. Speed=1.728000m/h.</desc>
<speed>0.480000</speed>
</trkpt>
<trkpt lat="22.326914" lon="103.774109">
<ele>2374.283203</ele>
<time>2011-04-24T09:05:08Z</time>
<desc>lat.=22.326914, lon.=103.774109, Alt.=2374.283203m. Speed=4.356000m/h.</desc>
<speed>1.210000</speed>
</trkpt>
<trkpt lat="22.326918" lon="103.774147">
<ele>2373.533203</ele>
<time>2011-04-24T09:05:13Z</time>
<desc>lat.=22.326918, lon.=103.774147, Alt.=2373.533203m. Speed=2.088000m/h.</desc>
<speed>0.580000</speed>
</trkpt>
<trkpt lat="22.326920" lon="103.774155">
<ele>2373.033203</ele>
<time>2011-04-24T09:05:18Z</time>
<desc>lat.=22.326920, lon.=103.774155, Alt.=2373.033203m. Speed=0.864000m/h.</desc>
<speed>0.240000</speed>
</trkpt>
<trkpt lat="22.326929" lon="103.774162">
<ele>2372.970703</ele>
<time>2011-04-24T09:05:23Z</time>
<desc>lat.=22.326929, lon.=103.774162, Alt.=2372.970703m. Speed=1.044000m/h.</desc>
<speed>0.290000</speed>
</trkpt>
<trkpt lat="22.326944" lon="103.774193">
<ele>2372.408203</ele>
<time>2011-04-24T09:05:28Z</time>
<desc>lat.=22.326944, lon.=103.774193, Alt.=2372.408203m. Speed=3.168000m/h.</desc>
<speed>0.880000</speed>
</trkpt>
<trkpt lat="22.326952" lon="103.774246">
<ele>2371.845703</ele>
<time>2011-04-24T09:05:33Z</time>
<desc>lat.=22.326952, lon.=103.774246, Alt.=2371.845703m. Speed=3.204000m/h.</desc>
<speed>0.890000</speed>
</trkpt>
<trkpt lat="22.326962" lon="103.774330">
<ele>2370.408203</ele>
<time>2011-04-24T09:05:38Z</time>
<desc>lat.=22.326962, lon.=103.774330, Alt.=2370.408203m. Speed=3.096000m/h.</desc>
<speed>0.860000</speed>
</trkpt>
<trkpt lat="22.326954" lon="103.774399">
<ele>2369.970703</ele>
<time>2011-04-24T09:05:43Z</time>
<desc>lat.=22.326954, lon.=103.774399, Alt.=2369.970703m. Speed=5.040000m/h.</desc>
<speed>1.400000</speed>
</trkpt>
<trkpt lat="22.326981" lon="103.774445">
<ele>2369.470703</ele>
<time>2011-04-24T09:05:48Z</time>
<desc>lat.=22.326981, lon.=103.774445, Alt.=2369.470703m. Speed=2.664000m/h.</desc>
<speed>0.740000</speed>
</trkpt>
<trkpt lat="22.326984" lon="103.774475">
<ele>2368.658203</ele>
<time>2011-04-24T09:05:53Z</time>
<desc>lat.=22.326984, lon.=103.774475, Alt.=2368.658203m. Speed=5.148000m/h.</desc>
<speed>1.430000</speed>
</trkpt>
<trkpt lat="22.327003" lon="103.774513">
<ele>2368.345703</ele>
<time>2011-04-24T09:05:58Z</time>
<desc>lat.=22.327003, lon.=103.774513, Alt.=2368.345703m. Speed=3.312000m/h.</desc>
<speed>0.920000</speed>
</trkpt>
<trkpt lat="22.327017" lon="103.774574">
<ele>2367.158203</ele>
<time>2011-04-24T09:06:03Z</time>
<desc>lat.=22.327017, lon.=103.774574, Alt.=2367.158203m. Speed=4.716000m/h.</desc>
<speed>1.310000</speed>
</trkpt>
<trkpt lat="22.327038" lon="103.774612">
<ele>2367.158203</ele>
<time>2011-04-24T09:06:08Z</time>
<desc>lat.=22.327038, lon.=103.774612, Alt.=2367.158203m. Speed=4.284000m/h.</desc>
<speed>1.190000</speed>
</trkpt>
<trkpt lat="22.327051" lon="103.774651">
<ele>2366.908203</ele>
<time>2011-04-24T09:06:13Z</time>
<desc>lat.=22.327051, lon.=103.774651, Alt.=2366.908203m. Speed=1.980000m/h.</desc>
<speed>0.550000</speed>
</trkpt>
<trkpt lat="22.327061" lon="103.774689">
<ele>2366.970703</ele>
<time>2011-04-24T09:06:18Z</time>
<desc>lat.=22.327061, lon.=103.774689, Alt.=2366.970703m. Speed=5.112000m/h.</desc>
<speed>1.420000</speed>
</trkpt>
<trkpt lat="22.327057" lon="103.774757">
<ele>2366.470703</ele>
<time>2011-04-24T09:06:23Z</time>
<desc>lat.=22.327057, lon.=103.774757, Alt.=2366.470703m. Speed=4.608000m/h.</desc>
<speed>1.280000</speed>
</trkpt>
<trkpt lat="22.327040" lon="103.774811">
<ele>2365.595703</ele>
<time>2011-04-24T09:06:28Z</time>
<desc>lat.=22.327040, lon.=103.774811, Alt.=2365.595703m. Speed=4.068000m/h.</desc>
<speed>1.130000</speed>
</trkpt>
<trkpt lat="22.327049" lon="103.774864">
<ele>2364.970703</ele>
<time>2011-04-24T09:06:33Z</time>
<desc>lat.=22.327049, lon.=103.774864, Alt.=2364.970703m. Speed=3.528000m/h.</desc>
<speed>0.980000</speed>
</trkpt>
<trkpt lat="22.327051" lon="103.774902">
<ele>2364.033203</ele>
<time>2011-04-24T09:06:38Z</time>
<desc>lat.=22.327051, lon.=103.774902, Alt.=2364.033203m. Speed=1.908000m/h.</desc>
<speed>0.530000</speed>
</trkpt>
<trkpt lat="22.327045" lon="103.774940">
<ele>2363.533203</ele>
<time>2011-04-24T09:06:43Z</time>
<desc>lat.=22.327045, lon.=103.774940, Alt.=2363.533203m. Speed=1.368000m/h.</desc>
<speed>0.380000</speed>
</trkpt>
<trkpt lat="22.327049" lon="103.774971">
<ele>2362.908203</ele>
<time>2011-04-24T09:06:48Z</time>
<desc>lat.=22.327049, lon.=103.774971, Alt.=2362.908203m. Speed=0.864000m/h.</desc>
<speed>0.240000</speed>
</trkpt>
<trkpt lat="22.327053" lon="103.774971">
<ele>2362.970703</ele>
<time>2011-04-24T09:06:53Z</time>
<desc>lat.=22.327053, lon.=103.774971, Alt.=2362.970703m. Speed=0.108000m/h.</desc>
<speed>0.030000</speed>
</trkpt>
<trkpt lat="22.327053" lon="103.774979">
<ele>2363.095703</ele>
<time>2011-04-24T09:06:58Z</time>
<desc>lat.=22.327053, lon.=103.774979, Alt.=2363.095703m. Speed=0.144000m/h.</desc>
<speed>0.040000</speed>
</trkpt>
<trkpt lat="22.327053" lon="103.774979">
<ele>2363.158203</ele>
<time>2011-04-24T09:07:03Z</time>
<desc>lat.=22.327053, lon.=103.774979, Alt.=2363.158203m. Speed=0.648000m/h.</desc>
<speed>0.180000</speed>
</trkpt>
<trkpt lat="22.327053" lon="103.774979">
<ele>2362.845703</ele>
<time>2011-04-24T09:07:08Z</time>
<desc>lat.=22.327053, lon.=103.774979, Alt.=2362.845703m. Speed=0.144000m/h.</desc>
<speed>0.040000</speed>
</trkpt>
<trkpt lat="22.327061" lon="103.774986">
<ele>2363.033203</ele>
<time>2011-04-24T09:07:13Z</time>
<desc>lat.=22.327061, lon.=103.774986, Alt.=2363.033203m. Speed=1.332000m/h.</desc>
<speed>0.370000</speed>
</trkpt>
<trkpt lat="22.327068" lon="103.775009">
<ele>2361.845703</ele>
<time>2011-04-24T09:07:18Z</time>
<desc>lat.=22.327068, lon.=103.775009, Alt.=2361.845703m. Speed=2.124000m/h.</desc>
<speed>0.590000</speed>
</trkpt>
<trkpt lat="22.327076" lon="103.775040">
<ele>2360.783203</ele>
<time>2011-04-24T09:07:23Z</time>
<desc>lat.=22.327076, lon.=103.775040, Alt.=2360.783203m. Speed=2.520000m/h.</desc>
<speed>0.700000</speed>
</trkpt>
<trkpt lat="22.327078" lon="103.775063">
<ele>2359.970703</ele>
<time>2011-04-24T09:07:28Z</time>
<desc>lat.=22.327078, lon.=103.775063, Alt.=2359.970703m. Speed=1.152000m/h.</desc>
<speed>0.320000</speed>
</trkpt>
<trkpt lat="22.327080" lon="103.775078">
<ele>2359.533203</ele>
<time>2011-04-24T09:07:33Z</time>
<desc>lat.=22.327080, lon.=103.775078, Alt.=2359.533203m. Speed=0.900000m/h.</desc>
<speed>0.250000</speed>
</trkpt>
<trkpt lat="22.327085" lon="103.775101">
<ele>2358.845703</ele>
<time>2011-04-24T09:07:38Z</time>
<desc>lat.=22.327085, lon.=103.775101, Alt.=2358.845703m. Speed=2.628000m/h.</desc>
<speed>0.730000</speed>
</trkpt>
<trkpt lat="22.327091" lon="103.775154">
<ele>2357.408203</ele>
<time>2011-04-24T09:07:43Z</time>
<desc>lat.=22.327091, lon.=103.775154, Alt.=2357.408203m. Speed=5.832000m/h.</desc>
<speed>1.620000</speed>
</trkpt>
<trkpt lat="22.327059" lon="103.775200">
<ele>2356.408203</ele>
<time>2011-04-24T09:07:48Z</time>
<desc>lat.=22.327059, lon.=103.775200, Alt.=2356.408203m. Speed=4.068000m/h.</desc>
<speed>1.130000</speed>
</trkpt>
<trkpt lat="22.327034" lon="103.775238">
<ele>2354.658203</ele>
<time>2011-04-24T09:07:53Z</time>
<desc>lat.=22.327034, lon.=103.775238, Alt.=2354.658203m. Speed=3.492000m/h.</desc>
<speed>0.970000</speed>
</trkpt>
<trkpt lat="22.327032" lon="103.775276">
<ele>2353.720703</ele>
<time>2011-04-24T09:07:58Z</time>
<desc>lat.=22.327032, lon.=103.775276, Alt.=2353.720703m. Speed=2.484000m/h.</desc>
<speed>0.690000</speed>
</trkpt>
<trkpt lat="22.327026" lon="103.775307">
<ele>2352.658203</ele>
<time>2011-04-24T09:08:03Z</time>
<desc>lat.=22.327026, lon.=103.775307, Alt.=2352.658203m. Speed=3.024000m/h.</desc>
<speed>0.840000</speed>
</trkpt>
<trkpt lat="22.327032" lon="103.775330">
<ele>2352.220703</ele>
<time>2011-04-24T09:08:08Z</time>
<desc>lat.=22.327032, lon.=103.775330, Alt.=2352.220703m. Speed=2.484000m/h.</desc>
<speed>0.690000</speed>
</trkpt>
<trkpt lat="22.327026" lon="103.775352">
<ele>2350.658203</ele>
<time>2011-04-24T09:08:13Z</time>
<desc>lat.=22.327026, lon.=103.775352, Alt.=2350.658203m. Speed=1.800000m/h.</desc>
<speed>0.500000</speed>
</trkpt>
<trkpt lat="22.327023" lon="103.775368">
<ele>2349.158203</ele>
<time>2011-04-24T09:08:18Z</time>
<desc>lat.=22.327023, lon.=103.775368, Alt.=2349.158203m. Speed=0.720000m/h.</desc>
<speed>0.200000</speed>
</trkpt>
<trkpt lat="22.327028" lon="103.775368">
<ele>2349.345703</ele>
<time>2011-04-24T09:08:23Z</time>
<desc>lat.=22.327028, lon.=103.775368, Alt.=2349.345703m. Speed=1.116000m/h.</desc>
<speed>0.310000</speed>
</trkpt>
<trkpt lat="22.327036" lon="103.775391">
<ele>2348.533203</ele>
<time>2011-04-24T09:08:28Z</time>
<desc>lat.=22.327036, lon.=103.775391, Alt.=2348.533203m. Speed=1.728000m/h.</desc>
<speed>0.480000</speed>
</trkpt>
<trkpt lat="22.327026" lon="103.775406">
<ele>2348.095703</ele>
<time>2011-04-24T09:08:33Z</time>
<desc>lat.=22.327026, lon.=103.775406, Alt.=2348.095703m. Speed=2.412000m/h.</desc>
<speed>0.670000</speed>
</trkpt>
<trkpt lat="22.327021" lon="103.775459">
<ele>2348.345703</ele>
<time>2011-04-24T09:08:38Z</time>
<desc>lat.=22.327021, lon.=103.775459, Alt.=2348.345703m. Speed=3.852000m/h.</desc>
<speed>1.070000</speed>
</trkpt>
<trkpt lat="22.327003" lon="103.775505">
<ele>2348.533203</ele>
<time>2011-04-24T09:08:43Z</time>
<desc>lat.=22.327003, lon.=103.775505, Alt.=2348.533203m. Speed=2.988000m/h.</desc>
<speed>0.830000</speed>
</trkpt>
<trkpt lat="22.326969" lon="103.775551">
<ele>2347.658203</ele>
<time>2011-04-24T09:08:48Z</time>
<desc>lat.=22.326969, lon.=103.775551, Alt.=2347.658203m. Speed=3.780000m/h.</desc>
<speed>1.050000</speed>
</trkpt>
<trkpt lat="22.326971" lon="103.775581">
<ele>2347.970703</ele>
<time>2011-04-24T09:08:53Z</time>
<desc>lat.=22.326971, lon.=103.775581, Alt.=2347.970703m. Speed=1.980000m/h.</desc>
<speed>0.550000</speed>
</trkpt>
<trkpt lat="22.326986" lon="103.775612">
<ele>2348.783203</ele>
<time>2011-04-24T09:08:58Z</time>
<desc>lat.=22.326986, lon.=103.775612, Alt.=2348.783203m. Speed=2.844000m/h.</desc>
<speed>0.790000</speed>
</trkpt>
<trkpt lat="22.326992" lon="103.775642">
<ele>2349.470703</ele>
<time>2011-04-24T09:09:03Z</time>
<desc>lat.=22.326992, lon.=103.775642, Alt.=2349.470703m. Speed=1.656000m/h.</desc>
<speed>0.460000</speed>
</trkpt>
<trkpt lat="22.326996" lon="103.775681">
<ele>2348.908203</ele>
<time>2011-04-24T09:09:08Z</time>
<desc>lat.=22.326996, lon.=103.775681, Alt.=2348.908203m. Speed=3.384000m/h.</desc>
<speed>0.940000</speed>
</trkpt>
<trkpt lat="22.326986" lon="103.775734">
<ele>2346.970703</ele>
<time>2011-04-24T09:09:13Z</time>
<desc>lat.=22.326986, lon.=103.775734, Alt.=2346.970703m. Speed=4.068000m/h.</desc>
<speed>1.130000</speed>
</trkpt>
<trkpt lat="22.326965" lon="103.775795">
<ele>2345.908203</ele>
<time>2011-04-24T09:09:18Z</time>
<desc>lat.=22.326965, lon.=103.775795, Alt.=2345.908203m. Speed=4.680000m/h.</desc>
<speed>1.300000</speed>
</trkpt>
<trkpt lat="22.326977" lon="103.775841">
<ele>2343.720703</ele>
<time>2011-04-24T09:09:23Z</time>
<desc>lat.=22.326977, lon.=103.775841, Alt.=2343.720703m. Speed=4.248000m/h.</desc>
<speed>1.180000</speed>
</trkpt>
<trkpt lat="22.326977" lon="103.775894">
<ele>2342.595703</ele>
<time>2011-04-24T09:09:28Z</time>
<desc>lat.=22.326977, lon.=103.775894, Alt.=2342.595703m. Speed=4.320000m/h.</desc>
<speed>1.200000</speed>
</trkpt>
<trkpt lat="22.326967" lon="103.775940">
<ele>2341.970703</ele>
<time>2011-04-24T09:09:33Z</time>
<desc>lat.=22.326967, lon.=103.775940, Alt.=2341.970703m. Speed=1.980000m/h.</desc>
<speed>0.550000</speed>
</trkpt>
<trkpt lat="22.326969" lon="103.775940">
<ele>2341.533203</ele>
<time>2011-04-24T09:09:38Z</time>
<desc>lat.=22.326969, lon.=103.775940, Alt.=2341.533203m. Speed=2.844000m/h.</desc>
<speed>0.790000</speed>
</trkpt>
<trkpt lat="22.326963" lon="103.775970">
<ele>2342.033203</ele>
<time>2011-04-24T09:09:43Z</time>
<desc>lat.=22.326963, lon.=103.775970, Alt.=2342.033203m. Speed=1.980000m/h.</desc>
<speed>0.550000</speed>
</trkpt>
<trkpt lat="22.326981" lon="103.776009">
<ele>2341.970703</ele>
<time>2011-04-24T09:09:48Z</time>
<desc>lat.=22.326981, lon.=103.776009, Alt.=2341.970703m. Speed=4.500000m/h.</desc>
<speed>1.250000</speed>
</trkpt>
<trkpt lat="22.327011" lon="103.776054">
<ele>2341.658203</ele>
<time>2011-04-24T09:09:53Z</time>
<desc>lat.=22.327011, lon.=103.776054, Alt.=2341.658203m. Speed=4.428000m/h.</desc>
<speed>1.230000</speed>
</trkpt>
<trkpt lat="22.326998" lon="103.776115">
<ele>2341.720703</ele>
<time>2011-04-24T09:09:58Z</time>
<desc>lat.=22.326998, lon.=103.776115, Alt.=2341.720703m. Speed=2.520000m/h.</desc>
<speed>0.700000</speed>
</trkpt>
<trkpt lat="22.326994" lon="103.776154">
<ele>2341.095703</ele>
<time>2011-04-24T09:10:03Z</time>
<desc>lat.=22.326994, lon.=103.776154, Alt.=2341.095703m. Speed=2.016000m/h.</desc>
<speed>0.560000</speed>
</trkpt>
<trkpt lat="22.326998" lon="103.776199">
<ele>2340.095703</ele>
<time>2011-04-24T09:10:08Z</time>
<desc>lat.=22.326998, lon.=103.776199, Alt.=2340.095703m. Speed=3.312000m/h.</desc>
<speed>0.920000</speed>
</trkpt>
<trkpt lat="22.327003" lon="103.776237">
<ele>2340.220703</ele>
<time>2011-04-24T09:10:13Z</time>
<desc>lat.=22.327003, lon.=103.776237, Alt.=2340.220703m. Speed=2.808000m/h.</desc>
<speed>0.780000</speed>
</trkpt>
<trkpt lat="22.327000" lon="103.776253">
<ele>2340.095703</ele>
<time>2011-04-24T09:10:18Z</time>
<desc>lat.=22.327000, lon.=103.776253, Alt.=2340.095703m. Speed=0.828000m/h.</desc>
<speed>0.230000</speed>
</trkpt>
<trkpt lat="22.327005" lon="103.776291">
<ele>2339.595703</ele>
<time>2011-04-24T09:10:23Z</time>
<desc>lat.=22.327005, lon.=103.776291, Alt.=2339.595703m. Speed=3.996000m/h.</desc>
<speed>1.110000</speed>
</trkpt>
<trkpt lat="22.327013" lon="103.776321">
<ele>2341.033203</ele>
<time>2011-04-24T09:10:28Z</time>
<desc>lat.=22.327013, lon.=103.776321, Alt.=2341.033203m. Speed=3.492000m/h.</desc>
<speed>0.970000</speed>
</trkpt>
<trkpt lat="22.327007" lon="103.776375">
<ele>2341.595703</ele>
<time>2011-04-24T09:10:33Z</time>
<desc>lat.=22.327007, lon.=103.776375, Alt.=2341.595703m. Speed=2.376000m/h.</desc>
<speed>0.660000</speed>
</trkpt>
<trkpt lat="22.326992" lon="103.776428">
<ele>2340.283203</ele>
<time>2011-04-24T09:10:38Z</time>
<desc>lat.=22.326992, lon.=103.776428, Alt.=2340.283203m. Speed=4.104000m/h.</desc>
<speed>1.140000</speed>
</trkpt>
<trkpt lat="22.326969" lon="103.776474">
<ele>2339.283203</ele>
<time>2011-04-24T09:10:43Z</time>
<desc>lat.=22.326969, lon.=103.776474, Alt.=2339.283203m. Speed=3.348000m/h.</desc>
<speed>0.930000</speed>
</trkpt>
<trkpt lat="22.326954" lon="103.776512">
<ele>2338.720703</ele>
<time>2011-04-24T09:10:48Z</time>
<desc>lat.=22.326954, lon.=103.776512, Alt.=2338.720703m. Speed=2.160000m/h.</desc>
<speed>0.600000</speed>
</trkpt>
<trkpt lat="22.326935" lon="103.776535">
<ele>2338.033203</ele>
<time>2011-04-24T09:10:53Z</time>
<desc>lat.=22.326935, lon.=103.776535, Alt.=2338.033203m. Speed=2.988000m/h.</desc>
<speed>0.830000</speed>
</trkpt>
<trkpt lat="22.326910" lon="103.776566">
<ele>2338.095703</ele>
<time>2011-04-24T09:10:58Z</time>
<desc>lat.=22.326910, lon.=103.776566, Alt.=2338.095703m. Speed=0.648000m/h.</desc>
<speed>0.180000</speed>
</trkpt>
<trkpt lat="22.326897" lon="103.776596">
<ele>2337.408203</ele>
<time>2011-04-24T09:11:03Z</time>
<desc>lat.=22.326897, lon.=103.776596, Alt.=2337.408203m. Speed=2.340000m/h.</desc>
<speed>0.650000</speed>
</trkpt>
<trkpt lat="22.326878" lon="103.776627">
<ele>2336.533203</ele>
<time>2011-04-24T09:11:08Z</time>
<desc>lat.=22.326878, lon.=103.776627, Alt.=2336.533203m. Speed=4.248000m/h.</desc>
<speed>1.180000</speed>
</trkpt>
<trkpt lat="22.326845" lon="103.776649">
<ele>2335.533203</ele>
<time>2011-04-24T09:11:13Z</time>
<desc>lat.=22.326845, lon.=103.776649, Alt.=2335.533203m. Speed=3.672000m/h.</desc>
<speed>1.020000</speed>
</trkpt>
<trkpt lat="22.326792" lon="103.776672">
<ele>2334.783203</ele>
<time>2011-04-24T09:11:18Z</time>
<desc>lat.=22.326792, lon.=103.776672, Alt.=2334.783203m. Speed=3.564000m/h.</desc>
<speed>0.990000</speed>
</trkpt>
<trkpt lat="22.326761" lon="103.776680">
<ele>2334.533203</ele>
<time>2011-04-24T09:11:23Z</time>
<desc>lat.=22.326761, lon.=103.776680, Alt.=2334.533203m. Speed=1.548000m/h.</desc>
<speed>0.430000</speed>
</trkpt>
<trkpt lat="22.326738" lon="103.776695">
<ele>2334.283203</ele>
<time>2011-04-24T09:11:28Z</time>
<desc>lat.=22.326738, lon.=103.776695, Alt.=2334.283203m. Speed=2.664000m/h.</desc>
<speed>0.740000</speed>
</trkpt>
<trkpt lat="22.326723" lon="103.776703">
<ele>2334.220703</ele>
<time>2011-04-24T09:11:33Z</time>
<desc>lat.=22.326723, lon.=103.776703, Alt.=2334.220703m. Speed=1.872000m/h.</desc>
<speed>0.520000</speed>
</trkpt>
<trkpt lat="22.326719" lon="103.776718">
<ele>2334.158203</ele>
<time>2011-04-24T09:11:38Z</time>
<desc>lat.=22.326719, lon.=103.776718, Alt.=2334.158203m. Speed=0.720000m/h.</desc>
<speed>0.200000</speed>
</trkpt>
<trkpt lat="22.326715" lon="103.776726">
<ele>2334.158203</ele>
<time>2011-04-24T09:11:43Z</time>
<desc>lat.=22.326715, lon.=103.776726, Alt.=2334.158203m. Speed=0.612000m/h.</desc>
<speed>0.170000</speed>
</trkpt>
<trkpt lat="22.326710" lon="103.776726">
<ele>2333.970703</ele>
<time>2011-04-24T09:11:48Z</time>
<desc>lat.=22.326710, lon.=103.776726, Alt.=2333.970703m. Speed=0.972000m/h.</desc>
<speed>0.270000</speed>
</trkpt>
<trkpt lat="22.326675" lon="103.776749">
<ele>2333.033203</ele>
<time>2011-04-24T09:11:53Z</time>
<desc>lat.=22.326675, lon.=103.776749, Alt.=2333.033203m. Speed=4.824000m/h.</desc>
<speed>1.340000</speed>
</trkpt>
<trkpt lat="22.326630" lon="103.776741">
<ele>2331.095703</ele>
<time>2011-04-24T09:11:58Z</time>
<desc>lat.=22.326630, lon.=103.776741, Alt.=2331.095703m. Speed=3.600000m/h.</desc>
<speed>1.000000</speed>
</trkpt>
<trkpt lat="22.326597" lon="103.776741">
<ele>2330.095703</ele>
<time>2011-04-24T09:12:03Z</time>
<desc>lat.=22.326597, lon.=103.776741, Alt.=2330.095703m. Speed=3.672000m/h.</desc>
<speed>1.020000</speed>
</trkpt>
<trkpt lat="22.326569" lon="103.776749">
<ele>2329.158203</ele>
<time>2011-04-24T09:12:08Z</time>
<desc>lat.=22.326569, lon.=103.776749, Alt.=2329.158203m. Speed=1.296000m/h.</desc>
<speed>0.360000</speed>
</trkpt>
<trkpt lat="22.326563" lon="103.776749">
<ele>2328.345703</ele>
<time>2011-04-24T09:12:13Z</time>
<desc>lat.=22.326563, lon.=103.776749, Alt.=2328.345703m. Speed=0.072000m/h.</desc>
<speed>0.020000</speed>
</trkpt>
<trkpt lat="22.326536" lon="103.776749">
<ele>2327.408203</ele>
<time>2011-04-24T09:12:18Z</time>
<desc>lat.=22.326536, lon.=103.776749, Alt.=2327.408203m. Speed=2.160000m/h.</desc>
<speed>0.600000</speed>
</trkpt>
<trkpt lat="22.326508" lon="103.776756">
<ele>2326.658203</ele>
<time>2011-04-24T09:12:23Z</time>
<desc>lat.=22.326508, lon.=103.776756, Alt.=2326.658203m. Speed=3.348000m/h.</desc>
<speed>0.930000</speed>
</trkpt>
<trkpt lat="22.326466" lon="103.776779">
<ele>2326.220703</ele>
<time>2011-04-24T09:12:28Z</time>
<desc>lat.=22.326466, lon.=103.776779, Alt.=2326.220703m. Speed=3.132000m/h.</desc>
<speed>0.870000</speed>
</trkpt>
<trkpt lat="22.326448" lon="103.776802">
<ele>2325.720703</ele>
<time>2011-04-24T09:12:33Z</time>
<desc>lat.=22.326448, lon.=103.776802, Alt.=2325.720703m. Speed=1.944000m/h.</desc>
<speed>0.540000</speed>
</trkpt>
<trkpt lat="22.326403" lon="103.776817">
<ele>2324.970703</ele>
<time>2011-04-24T09:12:38Z</time>
<desc>lat.=22.326403, lon.=103.776817, Alt.=2324.970703m. Speed=5.760000m/h.</desc>
<speed>1.600000</speed>
</trkpt>
<trkpt lat="22.326353" lon="103.776894">
<ele>2322.970703</ele>
<time>2011-04-24T09:12:43Z</time>
<desc>lat.=22.326353, lon.=103.776894, Alt.=2322.970703m. Speed=6.012000m/h.</desc>
<speed>1.670000</speed>
</trkpt>
<trkpt lat="22.326323" lon="103.776932">
<ele>2322.283203</ele>
<time>2011-04-24T09:12:48Z</time>
<desc>lat.=22.326323, lon.=103.776932, Alt.=2322.283203m. Speed=1.836000m/h.</desc>
<speed>0.510000</speed>
</trkpt>
<trkpt lat="22.326309" lon="103.776978">
<ele>2321.095703</ele>
<time>2011-04-24T09:12:53Z</time>
<desc>lat.=22.326309, lon.=103.776978, Alt.=2321.095703m. Speed=4.572000m/h.</desc>
<speed>1.270000</speed>
</trkpt>
<trkpt lat="22.326317" lon="103.776993">
<ele>2321.283203</ele>
<time>2011-04-24T09:12:58Z</time>
<desc>lat.=22.326317, lon.=103.776993, Alt.=2321.283203m. Speed=0.216000m/h.</desc>
<speed>0.060000</speed>
</trkpt>
<trkpt lat="22.326324" lon="103.777000">
<ele>2320.658203</ele>
<time>2011-04-24T09:13:03Z</time>
<desc>lat.=22.326324, lon.=103.777000, Alt.=2320.658203m. Speed=0.540000m/h.</desc>
<speed>0.150000</speed>
</trkpt>
<trkpt lat="22.326319" lon="103.776993">
<ele>2320.470703</ele>
<time>2011-04-24T09:13:08Z</time>
<desc>lat.=22.326319, lon.=103.776993, Alt.=2320.470703m. Speed=0.108000m/h.</desc>
<speed>0.030000</speed>
</trkpt>
<trkpt lat="22.326319" lon="103.776993">
<ele>2320.470703</ele>
<time>2011-04-24T09:13:13Z</time>
<desc>lat.=22.326319, lon.=103.776993, Alt.=2320.470703m. Speed=0.072000m/h.</desc>
<speed>0.020000</speed>
</trkpt>
<trkpt lat="22.326321" lon="103.776993">
<ele>2320.470703</ele>
<time>2011-04-24T09:13:18Z</time>
<desc>lat.=22.326321, lon.=103.776993, Alt.=2320.470703m. Speed=0.144000m/h.</desc>
<speed>0.040000</speed>
</trkpt>
<trkpt lat="22.326321" lon="103.776993">
<ele>2320.470703</ele>
<time>2011-04-24T09:13:23Z</time>
<desc>lat.=22.326321, lon.=103.776993, Alt.=2320.470703m. Speed=0.216000m/h.</desc>
<speed>0.060000</speed>
</trkpt>
<trkpt lat="22.326319" lon="103.776993">
<ele>2320.470703</ele>
<time>2011-04-24T09:13:28Z</time>
<desc>lat.=22.326319, lon.=103.776993, Alt.=2320.470703m. Speed=0.000000m/h.</desc>
<speed>0.000000</speed>
</trkpt>
<trkpt lat="22.326319" lon="103.776993">
<ele>2320.533203</ele>
<time>2011-04-24T09:13:33Z</time>
<desc>lat.=22.326319, lon.=103.776993, Alt.=2320.533203m. Speed=0.396000m/h.</desc>
<speed>0.110000</speed>
</trkpt>
<trkpt lat="22.326319" lon="103.776993">
<ele>2320.533203</ele>
<time>2011-04-24T09:13:38Z</time>
<desc>lat.=22.326319, lon.=103.776993, Alt.=2320.533203m. Speed=0.036000m/h.</desc>
<speed>0.010000</speed>
</trkpt>
<trkpt lat="22.326319" lon="103.776993">
<ele>2320.533203</ele>
<time>2011-04-24T09:13:43Z</time>
<desc>lat.=22.326319, lon.=103.776993, Alt.=2320.533203m. Speed=0.072000m/h.</desc>
<speed>0.020000</speed>
</trkpt>
<trkpt lat="22.326319" lon="103.776993">
<ele>2320.533203</ele>
<time>2011-04-24T09:13:48Z</time>
<desc>lat.=22.326319, lon.=103.776993, Alt.=2320.533203m. Speed=0.180000m/h.</desc>
<speed>0.050000</speed>
</trkpt>
<trkpt lat="22.326319" lon="103.776993">
<ele>2320.533203</ele>
<time>2011-04-24T09:13:53Z</time>
<desc>lat.=22.326319, lon.=103.776993, Alt.=2320.533203m. Speed=0.396000m/h.</desc>
<speed>0.110000</speed>
</trkpt>
<trkpt lat="22.326319" lon="103.776993">
<ele>2320.533203</ele>
<time>2011-04-24T09:13:58Z</time>
<desc>lat.=22.326319, lon.=103.776993, Alt.=2320.533203m. Speed=0.144000m/h.</desc>
<speed>0.040000</speed>
</trkpt>
<trkpt lat="22.326317" lon="103.776993">
<ele>2320.533203</ele>
<time>2011-04-24T09:14:03Z</time>
<desc>lat.=22.326317, lon.=103.776993, Alt.=2320.533203m. Speed=0.936000m/h.</desc>
<speed>0.260000</speed>
</trkpt>
<trkpt lat="22.326296" lon="103.777023">
<ele>2321.095703</ele>
<time>2011-04-24T09:14:08Z</time>
<desc>lat.=22.326296, lon.=103.777023, Alt.=2321.095703m. Speed=2.160000m/h.</desc>
<speed>0.600000</speed>
</trkpt>
<trkpt lat="22.326277" lon="103.777069">
<ele>2321.783203</ele>
<time>2011-04-24T09:14:13Z</time>
<desc>lat.=22.326277, lon.=103.777069, Alt.=2321.783203m. Speed=2.952000m/h.</desc>
<speed>0.820000</speed>
</trkpt>
<trkpt lat="22.326256" lon="103.777092">
<ele>2322.283203</ele>
<time>2011-04-24T09:14:18Z</time>
<desc>lat.=22.326256, lon.=103.777092, Alt.=2322.283203m. Speed=1.548000m/h.</desc>
<speed>0.430000</speed>
</trkpt>
<trkpt lat="22.326250" lon="103.777115">
<ele>2322.470703</ele>
<time>2011-04-24T09:14:23Z</time>
<desc>lat.=22.326250, lon.=103.777115, Alt.=2322.470703m. Speed=2.736000m/h.</desc>
<speed>0.760000</speed>
</trkpt>
<trkpt lat="22.326225" lon="103.777138">
<ele>2323.470703</ele>
<time>2011-04-24T09:14:28Z</time>
<desc>lat.=22.326225, lon.=103.777138, Alt.=2323.470703m. Speed=2.844000m/h.</desc>
<speed>0.790000</speed>
</trkpt>
<trkpt lat="22.326199" lon="103.777161">
<ele>2324.095703</ele>
<time>2011-04-24T09:14:33Z</time>
<desc>lat.=22.326199, lon.=103.777161, Alt.=2324.095703m. Speed=3.168000m/h.</desc>
<speed>0.880000</speed>
</trkpt>
<trkpt lat="22.326180" lon="103.777199">
<ele>2324.908203</ele>
<time>2011-04-24T09:14:38Z</time>
<desc>lat.=22.326180, lon.=103.777199, Alt.=2324.908203m. Speed=3.492000m/h.</desc>
<speed>0.970000</speed>
</trkpt>
<trkpt lat="22.326153" lon="103.777245">
<ele>2325.720703</ele>
<time>2011-04-24T09:14:43Z</time>
<desc>lat.=22.326153, lon.=103.777245, Alt.=2325.720703m. Speed=3.384000m/h.</desc>
<speed>0.940000</speed>
</trkpt>
<trkpt lat="22.326134" lon="103.777298">
<ele>2326.283203</ele>
<time>2011-04-24T09:14:48Z</time>
<desc>lat.=22.326134, lon.=103.777298, Alt.=2326.283203m. Speed=4.284000m/h.</desc>
<speed>1.190000</speed>
</trkpt>
<trkpt lat="22.326109" lon="103.777351">
<ele>2326.220703</ele>
<time>2011-04-24T09:14:53Z</time>
<desc>lat.=22.326109, lon.=103.777351, Alt.=2326.220703m. Speed=4.860000m/h.</desc>
<speed>1.350000</speed>
</trkpt>
<trkpt lat="22.326105" lon="103.777374">
<ele>2326.033203</ele>
<time>2011-04-24T09:14:58Z</time>
<desc>lat.=22.326105, lon.=103.777374, Alt.=2326.033203m. Speed=0.468000m/h.</desc>
<speed>0.130000</speed>
</trkpt>
<trkpt lat="22.326105" lon="103.777367">
<ele>2326.220703</ele>
<time>2011-04-24T09:15:03Z</time>
<desc>lat.=22.326105, lon.=103.777367, Alt.=2326.220703m. Speed=0.612000m/h.</desc>
<speed>0.170000</speed>
</trkpt>
<trkpt lat="22.326096" lon="103.777374">
<ele>2325.908203</ele>
<time>2011-04-24T09:15:08Z</time>
<desc>lat.=22.326096, lon.=103.777374, Alt.=2325.908203m. Speed=0.072000m/h.</desc>
<speed>0.020000</speed>
</trkpt>
<trkpt lat="22.326099" lon="103.777390">
<ele>2325.783203</ele>
<time>2011-04-24T09:15:13Z</time>
<desc>lat.=22.326099, lon.=103.777390, Alt.=2325.783203m. Speed=4.536000m/h.</desc>
<speed>1.260000</speed>
</trkpt>
<trkpt lat="22.326097" lon="103.777443">
<ele>2325.845703</ele>
<time>2011-04-24T09:15:18Z</time>
<desc>lat.=22.326097, lon.=103.777443, Alt.=2325.845703m. Speed=5.292000m/h.</desc>
<speed>1.470000</speed>
</trkpt>
<trkpt lat="22.326113" lon="103.777512">
<ele>2325.720703</ele>
<time>2011-04-24T09:15:23Z</time>
<desc>lat.=22.326113, lon.=103.777512, Alt.=2325.720703m. Speed=6.660000m/h.</desc>
<speed>1.850000</speed>
</trkpt>
<trkpt lat="22.326118" lon="103.777626">
<ele>2325.970703</ele>
<time>2011-04-24T09:15:28Z</time>
<desc>lat.=22.326118, lon.=103.777626, Alt.=2325.970703m. Speed=6.732000m/h.</desc>
<speed>1.870000</speed>
</trkpt>
<trkpt lat="22.326103" lon="103.777687">
<ele>2325.595703</ele>
<time>2011-04-24T09:15:33Z</time>
<desc>lat.=22.326103, lon.=103.777687, Alt.=2325.595703m. Speed=3.672000m/h.</desc>
<speed>1.020000</speed>
</trkpt>
<trkpt lat="22.326118" lon="103.777809">
<ele>2324.845703</ele>
<time>2011-04-24T09:15:38Z</time>
<desc>lat.=22.326118, lon.=103.777809, Alt.=2324.845703m. Speed=10.872000m/h.</desc>
<speed>3.020000</speed>
</trkpt>
<trkpt lat="22.326113" lon="103.777969">
<ele>2325.345703</ele>
<time>2011-04-24T09:15:43Z</time>
<desc>lat.=22.326113, lon.=103.777969, Alt.=2325.345703m. Speed=12.096000m/h.</desc>
<speed>3.360000</speed>
</trkpt>
<trkpt lat="22.326094" lon="103.778069">
<ele>2325.658203</ele>
<time>2011-04-24T09:15:48Z</time>
<desc>lat.=22.326094, lon.=103.778069, Alt.=2325.658203m. Speed=4.896000m/h.</desc>
<speed>1.360000</speed>
</trkpt>
<trkpt lat="22.326080" lon="103.778107">
<ele>2326.095703</ele>
<time>2011-04-24T09:15:53Z</time>
<desc>lat.=22.326080, lon.=103.778107, Alt.=2326.095703m. Speed=3.780000m/h.</desc>
<speed>1.050000</speed>
</trkpt>
<trkpt lat="22.326082" lon="103.778145">
<ele>2326.158203</ele>
<time>2011-04-24T09:15:58Z</time>
<desc>lat.=22.326082, lon.=103.778145, Alt.=2326.158203m. Speed=2.160000m/h.</desc>
<speed>0.600000</speed>
</trkpt>
<trkpt lat="22.326069" lon="103.778168">
<ele>2327.283203</ele>
<time>2011-04-24T09:16:03Z</time>
<desc>lat.=22.326069, lon.=103.778168, Alt.=2327.283203m. Speed=3.672000m/h.</desc>
<speed>1.020000</speed>
</trkpt>
<trkpt lat="22.326073" lon="103.778198">
<ele>2328.220703</ele>
<time>2011-04-24T09:16:08Z</time>
<desc>lat.=22.326073, lon.=103.778198, Alt.=2328.220703m. Speed=2.844000m/h.</desc>
<speed>0.790000</speed>
</trkpt>
<trkpt lat="22.326061" lon="103.778244">
<ele>2327.908203</ele>
<time>2011-04-24T09:16:13Z</time>
<desc>lat.=22.326061, lon.=103.778244, Alt.=2327.908203m. Speed=3.276000m/h.</desc>
<speed>0.910000</speed>
</trkpt>
<trkpt lat="22.326046" lon="103.778297">
<ele>2326.783203</ele>
<time>2011-04-24T09:16:18Z</time>
<desc>lat.=22.326046, lon.=103.778297, Alt.=2326.783203m. Speed=3.564000m/h.</desc>
<speed>0.990000</speed>
</trkpt>
<trkpt lat="22.326046" lon="103.778336">
<ele>2326.658203</ele>
<time>2011-04-24T09:16:23Z</time>
<desc>lat.=22.326046, lon.=103.778336, Alt.=2326.658203m. Speed=3.600000m/h.</desc>
<speed>1.000000</speed>
</trkpt>
<trkpt lat="22.326035" lon="103.778389">
<ele>2325.783203</ele>
<time>2011-04-24T09:16:28Z</time>
<desc>lat.=22.326035, lon.=103.778389, Alt.=2325.783203m. Speed=3.672000m/h.</desc>
<speed>1.020000</speed>
</trkpt>
<trkpt lat="22.326017" lon="103.778442">
<ele>2324.783203</ele>
<time>2011-04-24T09:16:33Z</time>
<desc>lat.=22.326017, lon.=103.778442, Alt.=2324.783203m. Speed=5.256000m/h.</desc>
<speed>1.460000</speed>
</trkpt>
<trkpt lat="22.326000" lon="103.778511">
<ele>2324.095703</ele>
<time>2011-04-24T09:16:38Z</time>
<desc>lat.=22.326000, lon.=103.778511, Alt.=2324.095703m. Speed=4.824000m/h.</desc>
<speed>1.340000</speed>
</trkpt>
<trkpt lat="22.326002" lon="103.778564">
<ele>2323.533203</ele>
<time>2011-04-24T09:16:43Z</time>
<desc>lat.=22.326002, lon.=103.778564, Alt.=2323.533203m. Speed=3.204000m/h.</desc>
<speed>0.890000</speed>
</trkpt>
<trkpt lat="22.326010" lon="103.778595">
<ele>2323.158203</ele>
<time>2011-04-24T09:16:48Z</time>
<desc>lat.=22.326010, lon.=103.778595, Alt.=2323.158203m. Speed=1.728000m/h.</desc>
<speed>0.480000</speed>
</trkpt>
<trkpt lat="22.326029" lon="103.778618">
<ele>2322.970703</ele>
<time>2011-04-24T09:16:53Z</time>
<desc>lat.=22.326029, lon.=103.778618, Alt.=2322.970703m. Speed=1.692000m/h.</desc>
<speed>0.470000</speed>
</trkpt>
<trkpt lat="22.326033" lon="103.778648">
<ele>2322.283203</ele>
<time>2011-04-24T09:16:58Z</time>
<desc>lat.=22.326033, lon.=103.778648, Alt.=2322.283203m. Speed=5.580000m/h.</desc>
<speed>1.550000</speed>
</trkpt>
<trkpt lat="22.326054" lon="103.778709">
<ele>2322.845703</ele>
<time>2011-04-24T09:17:03Z</time>
<desc>lat.=22.326054, lon.=103.778709, Alt.=2322.845703m. Speed=2.952000m/h.</desc>
<speed>0.820000</speed>
</trkpt>
<trkpt lat="22.326063" lon="103.778763">
<ele>2322.470703</ele>
<time>2011-04-24T09:17:08Z</time>
<desc>lat.=22.326063, lon.=103.778763, Alt.=2322.470703m. Speed=5.832000m/h.</desc>
<speed>1.620000</speed>
</trkpt>
<trkpt lat="22.326059" lon="103.778839">
<ele>2322.033203</ele>
<time>2011-04-24T09:17:13Z</time>
<desc>lat.=22.326059, lon.=103.778839, Alt.=2322.033203m. Speed=5.436000m/h.</desc>
<speed>1.510000</speed>
</trkpt>
<trkpt lat="22.326061" lon="103.778908">
<ele>2321.345703</ele>
<time>2011-04-24T09:17:18Z</time>
<desc>lat.=22.326061, lon.=103.778908, Alt.=2321.345703m. Speed=3.744000m/h.</desc>
<speed>1.040000</speed>
</trkpt>
<trkpt lat="22.326075" lon="103.778946">
<ele>2320.845703</ele>
<time>2011-04-24T09:17:23Z</time>
<desc>lat.=22.326075, lon.=103.778946, Alt.=2320.845703m. Speed=3.132000m/h.</desc>
<speed>0.870000</speed>
</trkpt>
<trkpt lat="22.326096" lon="103.778984">
<ele>2320.283203</ele>
<time>2011-04-24T09:17:28Z</time>
<desc>lat.=22.326096, lon.=103.778984, Alt.=2320.283203m. Speed=2.664000m/h.</desc>
<speed>0.740000</speed>
</trkpt>
<trkpt lat="22.326103" lon="103.779022">
<ele>2320.033203</ele>
<time>2011-04-24T09:17:33Z</time>
<desc>lat.=22.326103, lon.=103.779022, Alt.=2320.033203m. Speed=3.996000m/h.</desc>
<speed>1.110000</speed>
</trkpt>
<trkpt lat="22.326117" lon="103.779068">
<ele>2319.533203</ele>
<time>2011-04-24T09:17:38Z</time>
<desc>lat.=22.326117, lon.=103.779068, Alt.=2319.533203m. Speed=1.908000m/h.</desc>
<speed>0.530000</speed>
</trkpt>
<trkpt lat="22.326120" lon="103.779099">
<ele>2318.658203</ele>
<time>2011-04-24T09:17:43Z</time>
<desc>lat.=22.326120, lon.=103.779099, Alt.=2318.658203m. Speed=3.060000m/h.</desc>
<speed>0.850000</speed>
</trkpt>
<trkpt lat="22.326134" lon="103.779152">
<ele>2317.720703</ele>
<time>2011-04-24T09:17:48Z</time>
<desc>lat.=22.326134, lon.=103.779152, Alt.=2317.720703m. Speed=5.364000m/h.</desc>
<speed>1.490000</speed>
</trkpt>
<trkpt lat="22.326174" lon="103.779190">
<ele>2316.908203</ele>
<time>2011-04-24T09:17:53Z</time>
<desc>lat.=22.326174, lon.=103.779190, Alt.=2316.908203m. Speed=4.284000m/h.</desc>
<speed>1.190000</speed>
</trkpt>
<trkpt lat="22.326183" lon="103.779243">
<ele>2315.470703</ele>
<time>2011-04-24T09:17:58Z</time>
<desc>lat.=22.326183, lon.=103.779243, Alt.=2315.470703m. Speed=4.824000m/h.</desc>
<speed>1.340000</speed>
</trkpt>
<trkpt lat="22.326191" lon="103.779312">
<ele>2314.595703</ele>
<time>2011-04-24T09:18:03Z</time>
<desc>lat.=22.326191, lon.=103.779312, Alt.=2314.595703m. Speed=5.508000m/h.</desc>
<speed>1.530000</speed>
</trkpt>
<trkpt lat="22.326225" lon="103.779373">
<ele>2313.658203</ele>
<time>2011-04-24T09:18:08Z</time>
<desc>lat.=22.326225, lon.=103.779373, Alt.=2313.658203m. Speed=4.284000m/h.</desc>
<speed>1.190000</speed>
</trkpt>
<trkpt lat="22.326241" lon="103.779419">
<ele>2311.408203</ele>
<time>2011-04-24T09:18:13Z</time>
<desc>lat.=22.326241, lon.=103.779419, Alt.=2311.408203m. Speed=4.536000m/h.</desc>
<speed>1.260000</speed>
</trkpt>
<trkpt lat="22.326273" lon="103.779442">
<ele>2309.533203</ele>
<time>2011-04-24T09:18:18Z</time>
<desc>lat.=22.326273, lon.=103.779442, Alt.=2309.533203m. Speed=4.608000m/h.</desc>
<speed>1.280000</speed>
</trkpt>
<trkpt lat="22.326300" lon="103.779457">
<ele>2308.845703</ele>
<time>2011-04-24T09:18:23Z</time>
<desc>lat.=22.326300, lon.=103.779457, Alt.=2308.845703m. Speed=3.744000m/h.</desc>
<speed>1.040000</speed>
</trkpt>
<trkpt lat="22.326309" lon="103.779503">
<ele>2307.720703</ele>
<time>2011-04-24T09:18:28Z</time>
<desc>lat.=22.326309, lon.=103.779503, Alt.=2307.720703m. Speed=1.224000m/h.</desc>
<speed>0.340000</speed>
</trkpt>
<trkpt lat="22.326309" lon="103.779518">
<ele>2307.033203</ele>
<time>2011-04-24T09:18:33Z</time>
<desc>lat.=22.326309, lon.=103.779518, Alt.=2307.033203m. Speed=0.396000m/h.</desc>
<speed>0.110000</speed>
</trkpt>
<trkpt lat="22.326305" lon="103.779541">
<ele>2306.720703</ele>
<time>2011-04-24T09:18:38Z</time>
<desc>lat.=22.326305, lon.=103.779541, Alt.=2306.720703m. Speed=1.908000m/h.</desc>
<speed>0.530000</speed>
</trkpt>
<trkpt lat="22.326300" lon="103.779564">
<ele>2305.470703</ele>
<time>2011-04-24T09:18:43Z</time>
<desc>lat.=22.326300, lon.=103.779564, Alt.=2305.470703m. Speed=2.376000m/h.</desc>
<speed>0.660000</speed>
</trkpt>
<trkpt lat="22.326330" lon="103.779587">
<ele>2305.095703</ele>
<time>2011-04-24T09:18:48Z</time>
<desc>lat.=22.326330, lon.=103.779587, Alt.=2305.095703m. Speed=2.484000m/h.</desc>
<speed>0.690000</speed>
</trkpt>
<trkpt lat="22.326332" lon="103.779610">
<ele>2304.533203</ele>
<time>2011-04-24T09:18:53Z</time>
<desc>lat.=22.326332, lon.=103.779610, Alt.=2304.533203m. Speed=1.908000m/h.</desc>
<speed>0.530000</speed>
</trkpt>
<trkpt lat="22.326345" lon="103.779633">
<ele>2303.158203</ele>
<time>2011-04-24T09:18:58Z</time>
<desc>lat.=22.326345, lon.=103.779633, Alt.=2303.158203m. Speed=2.160000m/h.</desc>
<speed>0.600000</speed>
</trkpt>
<trkpt lat="22.326347" lon="103.779640">
<ele>2302.283203</ele>
<time>2011-04-24T09:19:03Z</time>
<desc>lat.=22.326347, lon.=103.779640, Alt.=2302.283203m. Speed=0.216000m/h.</desc>
<speed>0.060000</speed>
</trkpt>
<trkpt lat="22.326347" lon="103.779640">
<ele>2302.158203</ele>
<time>2011-04-24T09:19:08Z</time>
<desc>lat.=22.326347, lon.=103.779640, Alt.=2302.158203m. Speed=0.288000m/h.</desc>
<speed>0.080000</speed>
</trkpt>
<trkpt lat="22.326357" lon="103.779655">
<ele>2301.595703</ele>
<time>2011-04-24T09:19:13Z</time>
<desc>lat.=22.326357, lon.=103.779655, Alt.=2301.595703m. Speed=2.052000m/h.</desc>
<speed>0.570000</speed>
</trkpt>
<trkpt lat="22.326372" lon="103.779663">
<ele>2300.720703</ele>
<time>2011-04-24T09:19:18Z</time>
<desc>lat.=22.326372, lon.=103.779663, Alt.=2300.720703m. Speed=2.448000m/h.</desc>
<speed>0.680000</speed>
</trkpt>
<trkpt lat="22.326385" lon="103.779655">
<ele>2300.220703</ele>
<time>2011-04-24T09:19:23Z</time>
<desc>lat.=22.326385, lon.=103.779655, Alt.=2300.220703m. Speed=1.008000m/h.</desc>
<speed>0.280000</speed>
</trkpt>
<trkpt lat="22.326406" lon="103.779671">
<ele>2300.095703</ele>
<time>2011-04-24T09:19:28Z</time>
<desc>lat.=22.326406, lon.=103.779671, Alt.=2300.095703m. Speed=1.512000m/h.</desc>
<speed>0.420000</speed>
</trkpt>
<trkpt lat="22.326410" lon="103.779694">
<ele>2300.220703</ele>
<time>2011-04-24T09:19:33Z</time>
<desc>lat.=22.326410, lon.=103.779694, Alt.=2300.220703m. Speed=0.828000m/h.</desc>
<speed>0.230000</speed>
</trkpt>
<trkpt lat="22.326405" lon="103.779732">
<ele>2300.220703</ele>
<time>2011-04-24T09:19:38Z</time>
<desc>lat.=22.326405, lon.=103.779732, Alt.=2300.220703m. Speed=1.872000m/h.</desc>
<speed>0.520000</speed>
</trkpt>
<trkpt lat="22.326384" lon="103.779762">
<ele>2300.595703</ele>
<time>2011-04-24T09:19:43Z</time>
<desc>lat.=22.326384, lon.=103.779762, Alt.=2300.595703m. Speed=1.872000m/h.</desc>
<speed>0.520000</speed>
</trkpt>
<trkpt lat="22.326372" lon="103.779778">
<ele>2299.845703</ele>
<time>2011-04-24T09:19:48Z</time>
<desc>lat.=22.326372, lon.=103.779778, Alt.=2299.845703m. Speed=1.728000m/h.</desc>
<speed>0.480000</speed>
</trkpt>
<trkpt lat="22.326344" lon="103.779785">
<ele>2299.345703</ele>
<time>2011-04-24T09:19:53Z</time>
<desc>lat.=22.326344, lon.=103.779785, Alt.=2299.345703m. Speed=1.944000m/h.</desc>
<speed>0.540000</speed>
</trkpt>
<trkpt lat="22.326323" lon="103.779785">
<ele>2298.283203</ele>
<time>2011-04-24T09:19:58Z</time>
<desc>lat.=22.326323, lon.=103.779785, Alt.=2298.283203m. Speed=0.540000m/h.</desc>
<speed>0.150000</speed>
</trkpt>
<trkpt lat="22.326309" lon="103.779800">
<ele>2298.220703</ele>
<time>2011-04-24T09:20:03Z</time>
<desc>lat.=22.326309, lon.=103.779800, Alt.=2298.220703m. Speed=2.016000m/h.</desc>
<speed>0.560000</speed>
</trkpt>
<trkpt lat="22.326288" lon="103.779808">
<ele>2297.970703</ele>
<time>2011-04-24T09:20:08Z</time>
<desc>lat.=22.326288, lon.=103.779808, Alt.=2297.970703m. Speed=1.872000m/h.</desc>
<speed>0.520000</speed>
</trkpt>
<trkpt lat="22.326319" lon="103.779831">
<ele>2297.033203</ele>
<time>2011-04-24T09:20:13Z</time>
<desc>lat.=22.326319, lon.=103.779831, Alt.=2297.033203m. Speed=3.528000m/h.</desc>
<speed>0.980000</speed>
</trkpt>
<trkpt lat="22.326338" lon="103.779869">
<ele>2296.033203</ele>
<time>2011-04-24T09:20:18Z</time>
<desc>lat.=22.326338, lon.=103.779869, Alt.=2296.033203m. Speed=2.484000m/h.</desc>
<speed>0.690000</speed>
</trkpt>
<trkpt lat="22.326353" lon="103.779915">
<ele>2296.158203</ele>
<time>2011-04-24T09:20:23Z</time>
<desc>lat.=22.326353, lon.=103.779915, Alt.=2296.158203m. Speed=5.364000m/h.</desc>
<speed>1.490000</speed>
</trkpt>
<trkpt lat="22.326365" lon="103.779961">
<ele>2295.158203</ele>
<time>2011-04-24T09:20:28Z</time>
<desc>lat.=22.326365, lon.=103.779961, Alt.=2295.158203m. Speed=2.808000m/h.</desc>
<speed>0.780000</speed>
</trkpt>
<trkpt lat="22.326366" lon="103.779984">
<ele>2294.470703</ele>
<time>2011-04-24T09:20:33Z</time>
<desc>lat.=22.326366, lon.=103.779984, Alt.=2294.470703m. Speed=2.052000m/h.</desc>
<speed>0.570000</speed>
</trkpt>
<trkpt lat="22.326389" lon="103.780014">
<ele>2293.220703</ele>
<time>2011-04-24T09:20:38Z</time>
<desc>lat.=22.326389, lon.=103.780014, Alt.=2293.220703m. Speed=4.608000m/h.</desc>
<speed>1.280000</speed>
</trkpt>
<trkpt lat="22.326427" lon="103.780060">
<ele>2293.220703</ele>
<time>2011-04-24T09:20:43Z</time>
<desc>lat.=22.326427, lon.=103.780060, Alt.=2293.220703m. Speed=5.508000m/h.</desc>
<speed>1.530000</speed>
</trkpt>
<trkpt lat="22.326462" lon="103.780067">
<ele>2292.095703</ele>
<time>2011-04-24T09:20:48Z</time>
<desc>lat.=22.326462, lon.=103.780067, Alt.=2292.095703m. Speed=3.780000m/h.</desc>
<speed>1.050000</speed>
</trkpt>
<trkpt lat="22.326504" lon="103.780098">
<ele>2292.095703</ele>
<time>2011-04-24T09:20:53Z</time>
<desc>lat.=22.326504, lon.=103.780098, Alt.=2292.095703m. Speed=3.924000m/h.</desc>
<speed>1.090000</speed>
</trkpt>
<trkpt lat="22.326542" lon="103.780144">
<ele>2292.220703</ele>
<time>2011-04-24T09:20:58Z</time>
<desc>lat.=22.326542, lon.=103.780144, Alt.=2292.220703m. Speed=4.644000m/h.</desc>
<speed>1.290000</speed>
</trkpt>
<trkpt lat="22.326574" lon="103.780151">
<ele>2290.595703</ele>
<time>2011-04-24T09:21:03Z</time>
<desc>lat.=22.326574, lon.=103.780151, Alt.=2290.595703m. Speed=2.124000m/h.</desc>
<speed>0.590000</speed>
</trkpt>
<trkpt lat="22.326603" lon="103.780174">
<ele>2290.283203</ele>
<time>2011-04-24T09:21:08Z</time>
<desc>lat.=22.326603, lon.=103.780174, Alt.=2290.283203m. Speed=1.512000m/h.</desc>
<speed>0.420000</speed>
</trkpt>
<trkpt lat="22.326618" lon="103.780190">
<ele>2289.970703</ele>
<time>2011-04-24T09:21:13Z</time>
<desc>lat.=22.326618, lon.=103.780190, Alt.=2289.970703m. Speed=1.656000m/h.</desc>
<speed>0.460000</speed>
</trkpt>
<trkpt lat="22.326632" lon="103.780212">
<ele>2289.783203</ele>
<time>2011-04-24T09:21:18Z</time>
<desc>lat.=22.326632, lon.=103.780212, Alt.=2289.783203m. Speed=1.368000m/h.</desc>
<speed>0.380000</speed>
</trkpt>
<trkpt lat="22.326645" lon="103.780220">
<ele>2288.095703</ele>
<time>2011-04-24T09:21:23Z</time>
<desc>lat.=22.326645, lon.=103.780220, Alt.=2288.095703m. Speed=0.792000m/h.</desc>
<speed>0.220000</speed>
</trkpt>
<trkpt lat="22.326654" lon="103.780243">
<ele>2286.658203</ele>
<time>2011-04-24T09:21:28Z</time>
<desc>lat.=22.326654, lon.=103.780243, Alt.=2286.658203m. Speed=1.512000m/h.</desc>
<speed>0.420000</speed>
</trkpt>
<trkpt lat="22.326668" lon="103.780258">
<ele>2285.845703</ele>
<time>2011-04-24T09:21:33Z</time>
<desc>lat.=22.326668, lon.=103.780258, Alt.=2285.845703m. Speed=3.600000m/h.</desc>
<speed>1.000000</speed>
</trkpt>
<trkpt lat="22.326714" lon="103.780266">
<ele>2285.720703</ele>
<time>2011-04-24T09:21:38Z</time>
<desc>lat.=22.326714, lon.=103.780266, Alt.=2285.720703m. Speed=4.428000m/h.</desc>
<speed>1.230000</speed>
</trkpt>
<trkpt lat="22.326738" lon="103.780258">
<ele>2285.970703</ele>
<time>2011-04-24T09:21:43Z</time>
<desc>lat.=22.326738, lon.=103.780258, Alt.=2285.970703m. Speed=0.720000m/h.</desc>
<speed>0.200000</speed>
</trkpt>
<trkpt lat="22.326759" lon="103.780258">
<ele>2285.345703</ele>
<time>2011-04-24T09:21:48Z</time>
<desc>lat.=22.326759, lon.=103.780258, Alt.=2285.345703m. Speed=3.060000m/h.</desc>
<speed>0.850000</speed>
</trkpt>
<trkpt lat="22.326773" lon="103.780243">
<ele>2285.283203</ele>
<time>2011-04-24T09:21:53Z</time>
<desc>lat.=22.326773, lon.=103.780243, Alt.=2285.283203m. Speed=1.476000m/h.</desc>
<speed>0.410000</speed>
</trkpt>
<trkpt lat="22.326784" lon="103.780235">
<ele>2285.095703</ele>
<time>2011-04-24T09:21:58Z</time>
<desc>lat.=22.326784, lon.=103.780235, Alt.=2285.095703m. Speed=1.080000m/h.</desc>
<speed>0.300000</speed>
</trkpt>
<trkpt lat="22.326797" lon="103.780258">
<ele>2285.095703</ele>
<time>2011-04-24T09:22:03Z</time>
<desc>lat.=22.326797, lon.=103.780258, Alt.=2285.095703m. Speed=2.448000m/h.</desc>
<speed>0.680000</speed>
</trkpt>
<trkpt lat="22.326796" lon="103.780266">
<ele>2283.783203</ele>
<time>2011-04-24T09:22:08Z</time>
<desc>lat.=22.326796, lon.=103.780266, Alt.=2283.783203m. Speed=1.836000m/h.</desc>
<speed>0.510000</speed>
</trkpt>
<trkpt lat="22.326796" lon="103.780319">
<ele>2283.408203</ele>
<time>2011-04-24T09:22:13Z</time>
<desc>lat.=22.326796, lon.=103.780319, Alt.=2283.408203m. Speed=3.384000m/h.</desc>
<speed>0.940000</speed>
</trkpt>
<trkpt lat="22.326797" lon="103.780373">
<ele>2284.408203</ele>
<time>2011-04-24T09:22:18Z</time>
<desc>lat.=22.326797, lon.=103.780373, Alt.=2284.408203m. Speed=2.880000m/h.</desc>
<speed>0.800000</speed>
</trkpt>
<trkpt lat="22.326796" lon="103.780396">
<ele>2283.720703</ele>
<time>2011-04-24T09:22:23Z</time>
<desc>lat.=22.326796, lon.=103.780396, Alt.=2283.720703m. Speed=1.980000m/h.</desc>
<speed>0.550000</speed>
</trkpt>
<trkpt lat="22.326797" lon="103.780441">
<ele>2282.220703</ele>
<time>2011-04-24T09:22:28Z</time>
<desc>lat.=22.326797, lon.=103.780441, Alt.=2282.220703m. Speed=3.276000m/h.</desc>
<speed>0.910000</speed>
</trkpt>
<trkpt lat="22.326792" lon="103.780479">
<ele>2281.533203</ele>
<time>2011-04-24T09:22:33Z</time>
<desc>lat.=22.326792, lon.=103.780479, Alt.=2281.533203m. Speed=2.016000m/h.</desc>
<speed>0.560000</speed>
</trkpt>
<trkpt lat="22.326805" lon="103.780518">
<ele>2280.908203</ele>
<time>2011-04-24T09:22:38Z</time>
<desc>lat.=22.326805, lon.=103.780518, Alt.=2280.908203m. Speed=2.664000m/h.</desc>
<speed>0.740000</speed>
</trkpt>
<trkpt lat="22.326815" lon="103.780563">
<ele>2280.158203</ele>
<time>2011-04-24T09:22:43Z</time>
<desc>lat.=22.326815, lon.=103.780563, Alt.=2280.158203m. Speed=4.500000m/h.</desc>
<speed>1.250000</speed>
</trkpt>
<trkpt lat="22.326824" lon="103.780602">
<ele>2278.845703</ele>
<time>2011-04-24T09:22:48Z</time>
<desc>lat.=22.326824, lon.=103.780602, Alt.=2278.845703m. Speed=2.016000m/h.</desc>
<speed>0.560000</speed>
</trkpt>
<trkpt lat="22.326815" lon="103.780647">
<ele>2276.345703</ele>
<time>2011-04-24T09:22:53Z</time>
<desc>lat.=22.326815, lon.=103.780647, Alt.=2276.345703m. Speed=3.096000m/h.</desc>
<speed>0.860000</speed>
</trkpt>
<trkpt lat="22.326838" lon="103.780693">
<ele>2275.033203</ele>
<time>2011-04-24T09:22:58Z</time>
<desc>lat.=22.326838, lon.=103.780693, Alt.=2275.033203m. Speed=3.888000m/h.</desc>
<speed>1.080000</speed>
</trkpt>
<trkpt lat="22.326860" lon="103.780731">
<ele>2273.720703</ele>
<time>2011-04-24T09:23:03Z</time>
<desc>lat.=22.326860, lon.=103.780731, Alt.=2273.720703m. Speed=4.464000m/h.</desc>
<speed>1.240000</speed>
</trkpt>
<trkpt lat="22.326876" lon="103.780785">
<ele>2273.033203</ele>
<time>2011-04-24T09:23:08Z</time>
<desc>lat.=22.326876, lon.=103.780785, Alt.=2273.033203m. Speed=3.708000m/h.</desc>
<speed>1.030000</speed>
</trkpt>
<trkpt lat="22.326887" lon="103.780830">
<ele>2271.408203</ele>
<time>2011-04-24T09:23:13Z</time>
<desc>lat.=22.326887, lon.=103.780830, Alt.=2271.408203m. Speed=3.924000m/h.</desc>
<speed>1.090000</speed>
</trkpt>
<trkpt lat="22.326885" lon="103.780869">
<ele>2270.283203</ele>
<time>2011-04-24T09:23:18Z</time>
<desc>lat.=22.326885, lon.=103.780869, Alt.=2270.283203m. Speed=2.700000m/h.</desc>
<speed>0.750000</speed>
</trkpt>
<trkpt lat="22.326899" lon="103.780876">
<ele>2270.158203</ele>
<time>2011-04-24T09:23:23Z</time>
<desc>lat.=22.326899, lon.=103.780876, Alt.=2270.158203m. Speed=0.360000m/h.</desc>
<speed>0.100000</speed>
</trkpt>
<trkpt lat="22.326902" lon="103.780884">
<ele>2270.345703</ele>
<time>2011-04-24T09:23:28Z</time>
<desc>lat.=22.326902, lon.=103.780884, Alt.=2270.345703m. Speed=2.232000m/h.</desc>
<speed>0.620000</speed>
</trkpt>
<trkpt lat="22.326916" lon="103.780914">
<ele>2269.345703</ele>
<time>2011-04-24T09:23:33Z</time>
<desc>lat.=22.326916, lon.=103.780914, Alt.=2269.345703m. Speed=2.844000m/h.</desc>
<speed>0.790000</speed>
</trkpt>
<trkpt lat="22.326950" lon="103.780930">
<ele>2269.095703</ele>
<time>2011-04-24T09:23:38Z</time>
<desc>lat.=22.326950, lon.=103.780930, Alt.=2269.095703m. Speed=2.736000m/h.</desc>
<speed>0.760000</speed>
</trkpt>
<trkpt lat="22.326965" lon="103.780930">
<ele>2268.783203</ele>
<time>2011-04-24T09:23:43Z</time>
<desc>lat.=22.326965, lon.=103.780930, Alt.=2268.783203m. Speed=0.648000m/h.</desc>
<speed>0.180000</speed>
</trkpt>
<trkpt lat="22.326973" lon="103.780930">
<ele>2268.595703</ele>
<time>2011-04-24T09:23:48Z</time>
<desc>lat.=22.326973, lon.=103.780930, Alt.=2268.595703m. Speed=0.504000m/h.</desc>
<speed>0.140000</speed>
</trkpt>
<trkpt lat="22.327003" lon="103.780960">
<ele>2268.470703</ele>
<time>2011-04-24T09:23:53Z</time>
<desc>lat.=22.327003, lon.=103.780960, Alt.=2268.470703m. Speed=4.248000m/h.</desc>
<speed>1.180000</speed>
</trkpt>
<trkpt lat="22.327045" lon="103.781006">
<ele>2267.783203</ele>
<time>2011-04-24T09:23:58Z</time>
<desc>lat.=22.327045, lon.=103.781006, Alt.=2267.783203m. Speed=4.896000m/h.</desc>
<speed>1.360000</speed>
</trkpt>
<trkpt lat="22.327082" lon="103.781052">
<ele>2268.095703</ele>
<time>2011-04-24T09:24:03Z</time>
<desc>lat.=22.327082, lon.=103.781052, Alt.=2268.095703m. Speed=4.608000m/h.</desc>
<speed>1.280000</speed>
</trkpt>
<trkpt lat="22.327122" lon="103.781082">
<ele>2267.783203</ele>
<time>2011-04-24T09:24:08Z</time>
<desc>lat.=22.327122, lon.=103.781082, Alt.=2267.783203m. Speed=3.456000m/h.</desc>
<speed>0.960000</speed>
</trkpt>
<trkpt lat="22.327152" lon="103.781097">
<ele>2267.408203</ele>
<time>2011-04-24T09:24:13Z</time>
<desc>lat.=22.327152, lon.=103.781097, Alt.=2267.408203m. Speed=2.484000m/h.</desc>
<speed>0.690000</speed>
</trkpt>
<trkpt lat="22.327192" lon="103.781113">
<ele>2266.595703</ele>
<time>2011-04-24T09:24:18Z</time>
<desc>lat.=22.327192, lon.=103.781113, Alt.=2266.595703m. Speed=4.176000m/h.</desc>
<speed>1.160000</speed>
</trkpt>
<trkpt lat="22.327213" lon="103.781120">
<ele>2266.158203</ele>
<time>2011-04-24T09:24:23Z</time>
<desc>lat.=22.327213, lon.=103.781120, Alt.=2266.158203m. Speed=1.800000m/h.</desc>
<speed>0.500000</speed>
</trkpt>
<trkpt lat="22.327234" lon="103.781113">
<ele>2265.845703</ele>
<time>2011-04-24T09:24:28Z</time>
<desc>lat.=22.327234, lon.=103.781113, Alt.=2265.845703m. Speed=2.484000m/h.</desc>
<speed>0.690000</speed>
</trkpt>
<trkpt lat="22.327259" lon="103.781128">
<ele>2265.845703</ele>
<time>2011-04-24T09:24:33Z</time>
<desc>lat.=22.327259, lon.=103.781128, Alt.=2265.845703m. Speed=0.756000m/h.</desc>
<speed>0.210000</speed>
</trkpt>
<trkpt lat="22.327282" lon="103.781143">
<ele>2265.033203</ele>
<time>2011-04-24T09:24:38Z</time>
<desc>lat.=22.327282, lon.=103.781143, Alt.=2265.033203m. Speed=2.232000m/h.</desc>
<speed>0.620000</speed>
</trkpt>
<trkpt lat="22.327299" lon="103.781158">
<ele>2264.970703</ele>
<time>2011-04-24T09:24:43Z</time>
<desc>lat.=22.327299, lon.=103.781158, Alt.=2264.970703m. Speed=1.584000m/h.</desc>
<speed>0.440000</speed>
</trkpt>
<trkpt lat="22.327320" lon="103.781189">
<ele>2265.158203</ele>
<time>2011-04-24T09:24:48Z</time>
<desc>lat.=22.327320, lon.=103.781189, Alt.=2265.158203m. Speed=3.240000m/h.</desc>
<speed>0.900000</speed>
</trkpt>
<trkpt lat="22.327333" lon="103.781219">
<ele>2264.095703</ele>
<time>2011-04-24T09:24:53Z</time>
<desc>lat.=22.327333, lon.=103.781219, Alt.=2264.095703m. Speed=1.512000m/h.</desc>
<speed>0.420000</speed>
</trkpt>
<trkpt lat="22.327345" lon="103.781242">
<ele>2262.845703</ele>
<time>2011-04-24T09:24:58Z</time>
<desc>lat.=22.327345, lon.=103.781242, Alt.=2262.845703m. Speed=2.484000m/h.</desc>
<speed>0.690000</speed>
</trkpt>
<trkpt lat="22.327337" lon="103.781258">
<ele>2262.095703</ele>
<time>2011-04-24T09:25:03Z</time>
<desc>lat.=22.327337, lon.=103.781258, Alt.=2262.095703m. Speed=1.476000m/h.</desc>
<speed>0.410000</speed>
</trkpt>
<trkpt lat="22.327343" lon="103.781288">
<ele>2260.845703</ele>
<time>2011-04-24T09:25:08Z</time>
<desc>lat.=22.327343, lon.=103.781288, Alt.=2260.845703m. Speed=2.808000m/h.</desc>
<speed>0.780000</speed>
</trkpt>
<trkpt lat="22.327356" lon="103.781296">
<ele>2259.783203</ele>
<time>2011-04-24T09:25:13Z</time>
<desc>lat.=22.327356, lon.=103.781296, Alt.=2259.783203m. Speed=1.944000m/h.</desc>
<speed>0.540000</speed>
</trkpt>
<trkpt lat="22.327370" lon="103.781311">
<ele>2260.033203</ele>
<time>2011-04-24T09:25:18Z</time>
<desc>lat.=22.327370, lon.=103.781311, Alt.=2260.033203m. Speed=1.944000m/h.</desc>
<speed>0.540000</speed>
</trkpt>
<trkpt lat="22.327383" lon="103.781334">
<ele>2259.220703</ele>
<time>2011-04-24T09:25:23Z</time>
<desc>lat.=22.327383, lon.=103.781334, Alt.=2259.220703m. Speed=1.548000m/h.</desc>
<speed>0.430000</speed>
</trkpt>
<trkpt lat="22.327396" lon="103.781342">
<ele>2259.220703</ele>
<time>2011-04-24T09:25:28Z</time>
<desc>lat.=22.327396, lon.=103.781342, Alt.=2259.220703m. Speed=1.548000m/h.</desc>
<speed>0.430000</speed>
</trkpt>
<trkpt lat="22.327410" lon="103.781334">
<ele>2259.158203</ele>
<time>2011-04-24T09:25:33Z</time>
<desc>lat.=22.327410, lon.=103.781334, Alt.=2259.158203m. Speed=1.548000m/h.</desc>
<speed>0.430000</speed>
</trkpt>
<trkpt lat="22.327429" lon="103.781326">
<ele>2258.720703</ele>
<time>2011-04-24T09:25:38Z</time>
<desc>lat.=22.327429, lon.=103.781326, Alt.=2258.720703m. Speed=2.268000m/h.</desc>
<speed>0.630000</speed>
</trkpt>
<trkpt lat="22.327457" lon="103.781342">
<ele>2258.345703</ele>
<time>2011-04-24T09:25:43Z</time>
<desc>lat.=22.327457, lon.=103.781342, Alt.=2258.345703m. Speed=0.216000m/h.</desc>
<speed>0.060000</speed>
</trkpt>
<trkpt lat="22.327459" lon="103.781342">
<ele>2258.158203</ele>
<time>2011-04-24T09:25:48Z</time>
<desc>lat.=22.327459, lon.=103.781342, Alt.=2258.158203m. Speed=0.144000m/h.</desc>
<speed>0.040000</speed>
</trkpt>
<trkpt lat="22.327473" lon="103.781357">
<ele>2258.408203</ele>
<time>2011-04-24T09:25:53Z</time>
<desc>lat.=22.327473, lon.=103.781357, Alt.=2258.408203m. Speed=1.116000m/h.</desc>
<speed>0.310000</speed>
</trkpt>
<trkpt lat="22.327478" lon="103.781357">
<ele>2258.095703</ele>
<time>2011-04-24T09:25:58Z</time>
<desc>lat.=22.327478, lon.=103.781357, Alt.=2258.095703m. Speed=0.504000m/h.</desc>
<speed>0.140000</speed>
</trkpt>
<trkpt lat="22.327486" lon="103.781357">
<ele>2258.158203</ele>
<time>2011-04-24T09:26:03Z</time>
<desc>lat.=22.327486, lon.=103.781357, Alt.=2258.158203m. Speed=0.396000m/h.</desc>
<speed>0.110000</speed>
</trkpt>
<trkpt lat="22.327486" lon="103.781364">
<ele>2258.095703</ele>
<time>2011-04-24T09:26:08Z</time>
<desc>lat.=22.327486, lon.=103.781364, Alt.=2258.095703m. Speed=0.468000m/h.</desc>
<speed>0.130000</speed>
</trkpt>
<trkpt lat="22.327486" lon="103.781364">
<ele>2257.970703</ele>
<time>2011-04-24T09:26:13Z</time>
<desc>lat.=22.327486, lon.=103.781364, Alt.=2257.970703m. Speed=0.216000m/h.</desc>
<speed>0.060000</speed>
</trkpt>
<trkpt lat="22.327490" lon="103.781364">
<ele>2257.970703</ele>
<time>2011-04-24T09:26:18Z</time>
<desc>lat.=22.327490, lon.=103.781364, Alt.=2257.970703m. Speed=0.324000m/h.</desc>
<speed>0.090000</speed>
</trkpt>
<trkpt lat="22.327492" lon="103.781364">
<ele>2257.908203</ele>
<time>2011-04-24T09:26:23Z</time>
<desc>lat.=22.327492, lon.=103.781364, Alt.=2257.908203m. Speed=0.324000m/h.</desc>
<speed>0.090000</speed>
</trkpt>
<trkpt lat="22.327496" lon="103.781364">
<ele>2257.845703</ele>
<time>2011-04-24T09:26:28Z</time>
<desc>lat.=22.327496, lon.=103.781364, Alt.=2257.845703m. Speed=0.396000m/h.</desc>
<speed>0.110000</speed>
</trkpt>
<trkpt lat="22.327505" lon="103.781364">
<ele>2257.595703</ele>
<time>2011-04-24T09:26:33Z</time>
<desc>lat.=22.327505, lon.=103.781364, Alt.=2257.595703m. Speed=0.972000m/h.</desc>
<speed>0.270000</speed>
</trkpt>
<trkpt lat="22.327522" lon="103.781372">
<ele>2257.470703</ele>
<time>2011-04-24T09:26:38Z</time>
<desc>lat.=22.327522, lon.=103.781372, Alt.=2257.470703m. Speed=1.188000m/h.</desc>
<speed>0.330000</speed>
</trkpt>
<trkpt lat="22.327532" lon="103.781372">
<ele>2256.720703</ele>
<time>2011-04-24T09:26:43Z</time>
<desc>lat.=22.327532, lon.=103.781372, Alt.=2256.720703m. Speed=0.720000m/h.</desc>
<speed>0.200000</speed>
</trkpt>
<trkpt lat="22.327549" lon="103.781380">
<ele>2255.970703</ele>
<time>2011-04-24T09:26:48Z</time>
<desc>lat.=22.327549, lon.=103.781380, Alt.=2255.970703m. Speed=1.260000m/h.</desc>
<speed>0.350000</speed>
</trkpt>
<trkpt lat="22.327551" lon="103.781380">
<ele>2254.595703</ele>
<time>2011-04-24T09:26:53Z</time>
<desc>lat.=22.327551, lon.=103.781380, Alt.=2254.595703m. Speed=0.252000m/h.</desc>
<speed>0.070000</speed>
</trkpt>
<trkpt lat="22.327559" lon="103.781380">
<ele>2254.158203</ele>
<time>2011-04-24T09:26:58Z</time>
<desc>lat.=22.327559, lon.=103.781380, Alt.=2254.158203m. Speed=0.612000m/h.</desc>
<speed>0.170000</speed>
</trkpt>
<trkpt lat="22.327566" lon="103.781372">
<ele>2253.845703</ele>
<time>2011-04-24T09:27:03Z</time>
<desc>lat.=22.327566, lon.=103.781372, Alt.=2253.845703m. Speed=0.720000m/h.</desc>
<speed>0.200000</speed>
</trkpt>
<trkpt lat="22.327587" lon="103.781395">
<ele>2253.595703</ele>
<time>2011-04-24T09:27:08Z</time>
<desc>lat.=22.327587, lon.=103.781395, Alt.=2253.595703m. Speed=2.052000m/h.</desc>
<speed>0.570000</speed>
</trkpt>
<trkpt lat="22.327637" lon="103.781425">
<ele>2254.095703</ele>
<time>2011-04-24T09:27:13Z</time>
<desc>lat.=22.327637, lon.=103.781425, Alt.=2254.095703m. Speed=0.468000m/h.</desc>
<speed>0.130000</speed>
</trkpt>
<trkpt lat="22.327641" lon="103.781418">
<ele>2253.783203</ele>
<time>2011-04-24T09:27:18Z</time>
<desc>lat.=22.327641, lon.=103.781418, Alt.=2253.783203m. Speed=0.612000m/h.</desc>
<speed>0.170000</speed>
</trkpt>
<trkpt lat="22.327652" lon="103.781418">
<ele>2253.408203</ele>
<time>2011-04-24T09:27:23Z</time>
<desc>lat.=22.327652, lon.=103.781418, Alt.=2253.408203m. Speed=0.432000m/h.</desc>
<speed>0.120000</speed>
</trkpt>
<trkpt lat="22.327656" lon="103.781418">
<ele>2253.408203</ele>
<time>2011-04-24T09:27:28Z</time>
<desc>lat.=22.327656, lon.=103.781418, Alt.=2253.408203m. Speed=0.468000m/h.</desc>
<speed>0.130000</speed>
</trkpt>
<trkpt lat="22.327662" lon="103.781410">
<ele>2253.408203</ele>
<time>2011-04-24T09:27:33Z</time>
<desc>lat.=22.327662, lon.=103.781410, Alt.=2253.408203m. Speed=0.576000m/h.</desc>
<speed>0.160000</speed>
</trkpt>
<trkpt lat="22.327665" lon="103.781410">
<ele>2253.470703</ele>
<time>2011-04-24T09:27:38Z</time>
<desc>lat.=22.327665, lon.=103.781410, Alt.=2253.470703m. Speed=0.180000m/h.</desc>
<speed>0.050000</speed>
</trkpt>
<trkpt lat="22.327652" lon="103.781403">
<ele>2253.470703</ele>
<time>2011-04-24T09:27:43Z</time>
<desc>lat.=22.327652, lon.=103.781403, Alt.=2253.470703m. Speed=0.396000m/h.</desc>
<speed>0.110000</speed>
</trkpt>
<trkpt lat="22.327660" lon="103.781395">
<ele>2253.533203</ele>
<time>2011-04-24T09:27:48Z</time>
<desc>lat.=22.327660, lon.=103.781395, Alt.=2253.533203m. Speed=2.124000m/h.</desc>
<speed>0.590000</speed>
</trkpt>
<trkpt lat="22.327679" lon="103.781418">
<ele>2253.783203</ele>
<time>2011-04-24T09:27:53Z</time>
<desc>lat.=22.327679, lon.=103.781418, Alt.=2253.783203m. Speed=1.296000m/h.</desc>
<speed>0.360000</speed>
</trkpt>
<trkpt lat="22.327675" lon="103.781441">
<ele>2252.595703</ele>
<time>2011-04-24T09:27:58Z</time>
<desc>lat.=22.327675, lon.=103.781441, Alt.=2252.595703m. Speed=0.504000m/h.</desc>
<speed>0.140000</speed>
</trkpt>
<trkpt lat="22.327677" lon="103.781448">
<ele>2252.720703</ele>
<time>2011-04-24T09:28:03Z</time>
<desc>lat.=22.327677, lon.=103.781448, Alt.=2252.720703m. Speed=0.072000m/h.</desc>
<speed>0.020000</speed>
</trkpt>
<trkpt lat="22.327675" lon="103.781448">
<ele>2252.720703</ele>
<time>2011-04-24T09:28:08Z</time>
<desc>lat.=22.327675, lon.=103.781448, Alt.=2252.720703m. Speed=0.504000m/h.</desc>
<speed>0.140000</speed>
</trkpt>
<trkpt lat="22.327669" lon="103.781448">
<ele>2252.720703</ele>
<time>2011-04-24T09:28:13Z</time>
<desc>lat.=22.327669, lon.=103.781448, Alt.=2252.720703m. Speed=0.648000m/h.</desc>
<speed>0.180000</speed>
</trkpt>
<trkpt lat="22.327665" lon="103.781448">
<ele>2252.720703</ele>
<time>2011-04-24T09:28:18Z</time>
<desc>lat.=22.327665, lon.=103.781448, Alt.=2252.720703m. Speed=1.620000m/h.</desc>
<speed>0.450000</speed>
</trkpt>
<trkpt lat="22.327671" lon="103.781509">
<ele>2252.220703</ele>
<time>2011-04-24T09:28:23Z</time>
<desc>lat.=22.327671, lon.=103.781509, Alt.=2252.220703m. Speed=0.684000m/h.</desc>
<speed>0.190000</speed>
</trkpt>
<trkpt lat="22.327677" lon="103.781509">
<ele>2252.158203</ele>
<time>2011-04-24T09:28:28Z</time>
<desc>lat.=22.327677, lon.=103.781509, Alt.=2252.158203m. Speed=0.576000m/h.</desc>
<speed>0.160000</speed>
</trkpt>
<trkpt lat="22.327681" lon="103.781517">
<ele>2252.095703</ele>
<time>2011-04-24T09:28:33Z</time>
<desc>lat.=22.327681, lon.=103.781517, Alt.=2252.095703m. Speed=0.108000m/h.</desc>
<speed>0.030000</speed>
</trkpt>
<trkpt lat="22.327684" lon="103.781517">
<ele>2252.033203</ele>
<time>2011-04-24T09:28:38Z</time>
<desc>lat.=22.327684, lon.=103.781517, Alt.=2252.033203m. Speed=0.828000m/h.</desc>
<speed>0.230000</speed>
</trkpt>
<trkpt lat="22.327684" lon="103.781525">
<ele>2251.970703</ele>
<time>2011-04-24T09:28:43Z</time>
<desc>lat.=22.327684, lon.=103.781525, Alt.=2251.970703m. Speed=0.576000m/h.</desc>
<speed>0.160000</speed>
</trkpt>
<trkpt lat="22.327692" lon="103.781532">
<ele>2251.595703</ele>
<time>2011-04-24T09:28:48Z</time>
<desc>lat.=22.327692, lon.=103.781532, Alt.=2251.595703m. Speed=1.044000m/h.</desc>
<speed>0.290000</speed>
</trkpt>
<trkpt lat="22.327707" lon="103.781540">
<ele>2251.158203</ele>
<time>2011-04-24T09:28:53Z</time>
<desc>lat.=22.327707, lon.=103.781540, Alt.=2251.158203m. Speed=1.044000m/h.</desc>
<speed>0.290000</speed>
</trkpt>
<trkpt lat="22.327703" lon="103.781563">
<ele>2249.845703</ele>
<time>2011-04-24T09:28:58Z</time>
<desc>lat.=22.327703, lon.=103.781563, Alt.=2249.845703m. Speed=0.648000m/h.</desc>
<speed>0.180000</speed>
</trkpt>
<trkpt lat="22.327724" lon="103.781555">
<ele>2248.783203</ele>
<time>2011-04-24T09:29:03Z</time>
<desc>lat.=22.327724, lon.=103.781555, Alt.=2248.783203m. Speed=0.792000m/h.</desc>
<speed>0.220000</speed>
</trkpt>
<trkpt lat="22.327734" lon="103.781555">
<ele>2248.658203</ele>
<time>2011-04-24T09:29:08Z</time>
<desc>lat.=22.327734, lon.=103.781555, Alt.=2248.658203m. Speed=0.216000m/h.</desc>
<speed>0.060000</speed>
</trkpt>
<trkpt lat="22.327740" lon="103.781563">
<ele>2248.408203</ele>
<time>2011-04-24T09:29:13Z</time>
<desc>lat.=22.327740, lon.=103.781563, Alt.=2248.408203m. Speed=1.512000m/h.</desc>
<speed>0.420000</speed>
</trkpt>
<trkpt lat="22.327759" lon="103.781570">
<ele>2246.970703</ele>
<time>2011-04-24T09:29:18Z</time>
<desc>lat.=22.327759, lon.=103.781570, Alt.=2246.970703m. Speed=0.684000m/h.</desc>
<speed>0.190000</speed>
</trkpt>
<trkpt lat="22.327766" lon="103.781578">
<ele>2246.908203</ele>
<time>2011-04-24T09:29:23Z</time>
<desc>lat.=22.327766, lon.=103.781578, Alt.=2246.908203m. Speed=0.540000m/h.</desc>
<speed>0.150000</speed>
</trkpt>
<trkpt lat="22.327772" lon="103.781578">
<ele>2246.845703</ele>
<time>2011-04-24T09:29:28Z</time>
<desc>lat.=22.327772, lon.=103.781578, Alt.=2246.845703m. Speed=1.512000m/h.</desc>
<speed>0.420000</speed>
</trkpt>
<trkpt lat="22.327757" lon="103.781578">
<ele>2246.533203</ele>
<time>2011-04-24T09:29:33Z</time>
<desc>lat.=22.327757, lon.=103.781578, Alt.=2246.533203m. Speed=1.404000m/h.</desc>
<speed>0.390000</speed>
</trkpt>
<trkpt lat="22.327719" lon="103.781586">
<ele>2245.595703</ele>
<time>2011-04-24T09:29:38Z</time>
<desc>lat.=22.327719, lon.=103.781586, Alt.=2245.595703m. Speed=1.800000m/h.</desc>
<speed>0.500000</speed>
</trkpt>
<trkpt lat="22.327726" lon="103.781593">
<ele>2244.658203</ele>
<time>2011-04-24T09:29:43Z</time>
<desc>lat.=22.327726, lon.=103.781593, Alt.=2244.658203m. Speed=2.880000m/h.</desc>
<speed>0.800000</speed>
</trkpt>
<trkpt lat="22.327770" lon="103.781616">
<ele>2243.845703</ele>
<time>2011-04-24T09:29:48Z</time>
<desc>lat.=22.327770, lon.=103.781616, Alt.=2243.845703m. Speed=4.716000m/h.</desc>
<speed>1.310000</speed>
</trkpt>
<trkpt lat="22.327810" lon="103.781586">
<ele>2244.408203</ele>
<time>2011-04-24T09:29:53Z</time>
<desc>lat.=22.327810, lon.=103.781586, Alt.=2244.408203m. Speed=2.772000m/h.</desc>
<speed>0.770000</speed>
</trkpt>
<trkpt lat="22.327848" lon="103.781570">
<ele>2246.158203</ele>
<time>2011-04-24T09:29:58Z</time>
<desc>lat.=22.327848, lon.=103.781570, Alt.=2246.158203m. Speed=3.636000m/h.</desc>
<speed>1.010000</speed>
</trkpt>
<trkpt lat="22.327898" lon="103.781548">
<ele>2249.095703</ele>
<time>2011-04-24T09:30:03Z</time>
<desc>lat.=22.327898, lon.=103.781548, Alt.=2249.095703m. Speed=3.996000m/h.</desc>
<speed>1.110000</speed>
</trkpt>
<trkpt lat="22.327936" lon="103.781540">
<ele>2251.970703</ele>
<time>2011-04-24T09:30:08Z</time>
<desc>lat.=22.327936, lon.=103.781540, Alt.=2251.970703m. Speed=2.952000m/h.</desc>
<speed>0.820000</speed>
</trkpt>
<trkpt lat="22.328014" lon="103.781563">
<ele>2251.408203</ele>
<time>2011-04-24T09:30:13Z</time>
<desc>lat.=22.328014, lon.=103.781563, Alt.=2251.408203m. Speed=4.644000m/h.</desc>
<speed>1.290000</speed>
</trkpt>
<trkpt lat="22.328077" lon="103.781578">
<ele>2248.845703</ele>
<time>2011-04-24T09:30:18Z</time>
<desc>lat.=22.328077, lon.=103.781578, Alt.=2248.845703m. Speed=4.284000m/h.</desc>
<speed>1.190000</speed>
</trkpt>
<trkpt lat="22.328123" lon="103.781609">
<ele>2246.970703</ele>
<time>2011-04-24T09:30:23Z</time>
<desc>lat.=22.328123, lon.=103.781609, Alt.=2246.970703m. Speed=5.112000m/h.</desc>
<speed>1.420000</speed>
</trkpt>
<trkpt lat="22.328169" lon="103.781647">
<ele>2246.095703</ele>
<time>2011-04-24T09:30:28Z</time>
<desc>lat.=22.328169, lon.=103.781647, Alt.=2246.095703m. Speed=4.500000m/h.</desc>
<speed>1.250000</speed>
</trkpt>
<trkpt lat="22.328251" lon="103.781670">
<ele>2241.658203</ele>
<time>2011-04-24T09:30:33Z</time>
<desc>lat.=22.328251, lon.=103.781670, Alt.=2241.658203m. Speed=3.384000m/h.</desc>
<speed>0.940000</speed>
</trkpt>
<trkpt lat="22.328293" lon="103.781723">
<ele>2237.470703</ele>
<time>2011-04-24T09:30:38Z</time>
<desc>lat.=22.328293, lon.=103.781723, Alt.=2237.470703m. Speed=4.716000m/h.</desc>
<speed>1.310000</speed>
</trkpt>
<trkpt lat="22.328283" lon="103.781738">
<ele>2233.845703</ele>
<time>2011-04-24T09:30:43Z</time>
<desc>lat.=22.328283, lon.=103.781738, Alt.=2233.845703m. Speed=0.720000m/h.</desc>
<speed>0.200000</speed>
</trkpt>
<trkpt lat="22.328276" lon="103.781746">
<ele>2233.283203</ele>
<time>2011-04-24T09:30:48Z</time>
<desc>lat.=22.328276, lon.=103.781746, Alt.=2233.283203m. Speed=0.432000m/h.</desc>
<speed>0.120000</speed>
</trkpt>
<trkpt lat="22.328285" lon="103.781731">
<ele>2231.533203</ele>
<time>2011-04-24T09:30:53Z</time>
<desc>lat.=22.328285, lon.=103.781731, Alt.=2231.533203m. Speed=0.360000m/h.</desc>
<speed>0.100000</speed>
</trkpt>
<trkpt lat="22.328283" lon="103.781731">
<ele>2230.970703</ele>
<time>2011-04-24T09:30:58Z</time>
<desc>lat.=22.328283, lon.=103.781731, Alt.=2230.970703m. Speed=0.072000m/h.</desc>
<speed>0.020000</speed>
</trkpt>
<trkpt lat="22.328285" lon="103.781731">
<ele>2230.783203</ele>
<time>2011-04-24T09:31:03Z</time>
<desc>lat.=22.328285, lon.=103.781731, Alt.=2230.783203m. Speed=0.072000m/h.</desc>
<speed>0.020000</speed>
</trkpt>
<trkpt lat="22.328285" lon="103.781731">
<ele>2230.720703</ele>
<time>2011-04-24T09:31:08Z</time>
<desc>lat.=22.328285, lon.=103.781731, Alt.=2230.720703m. Speed=0.000000m/h.</desc>
<speed>0.000000</speed>
</trkpt>
<trkpt lat="22.328285" lon="103.781731">
<ele>2230.720703</ele>
<time>2011-04-24T09:31:13Z</time>
<desc>lat.=22.328285, lon.=103.781731, Alt.=2230.720703m. Speed=0.000000m/h.</desc>
<speed>0.000000</speed>
</trkpt>
<trkpt lat="22.328285" lon="103.781731">
<ele>2230.720703</ele>
<time>2011-04-24T09:31:18Z</time>
<desc>lat.=22.328285, lon.=103.781731, Alt.=2230.720703m. Speed=0.108000m/h.</desc>
<speed>0.030000</speed>
</trkpt>
<trkpt lat="22.328285" lon="103.781731">
<ele>2230.720703</ele>
<time>2011-04-24T09:31:23Z</time>
<desc>lat.=22.328285, lon.=103.781731, Alt.=2230.720703m. Speed=0.000000m/h.</desc>
<speed>0.000000</speed>
</trkpt>
<trkpt lat="22.328285" lon="103.781731">
<ele>2230.720703</ele>
<time>2011-04-24T09:31:28Z</time>
<desc>lat.=22.328285, lon.=103.781731, Alt.=2230.720703m. Speed=0.036000m/h.</desc>
<speed>0.010000</speed>
</trkpt>
<trkpt lat="22.328285" lon="103.781731">
<ele>2230.658203</ele>
<time>2011-04-24T09:31:33Z</time>
<desc>lat.=22.328285, lon.=103.781731, Alt.=2230.658203m. Speed=0.036000m/h.</desc>
<speed>0.010000</speed>
</trkpt>
<trkpt lat="22.328285" lon="103.781731">
<ele>2230.658203</ele>
<time>2011-04-24T09:31:38Z</time>
<desc>lat.=22.328285, lon.=103.781731, Alt.=2230.658203m. Speed=0.000000m/h.</desc>
<speed>0.000000</speed>
</trkpt>
<trkpt lat="22.328285" lon="103.781731">
<ele>2230.658203</ele>
<time>2011-04-24T09:31:43Z</time>
<desc>lat.=22.328285, lon.=103.781731, Alt.=2230.658203m. Speed=0.000000m/h.</desc>
<speed>0.000000</speed>
</trkpt>
<trkpt lat="22.328285" lon="103.781731">
<ele>2230.658203</ele>
<time>2011-04-24T09:31:48Z</time>
<desc>lat.=22.328285, lon.=103.781731, Alt.=2230.658203m. Speed=0.036000m/h.</desc>
<speed>0.010000</speed>
</trkpt>
<trkpt lat="22.328285" lon="103.781731">
<ele>2230.658203</ele>
<time>2011-04-24T09:31:53Z</time>
<desc>lat.=22.328285, lon.=103.781731, Alt.=2230.658203m. Speed=0.000000m/h.</desc>
<speed>0.000000</speed>
</trkpt>
<trkpt lat="22.328285" lon="103.781731">
<ele>2230.720703</ele>
<time>2011-04-24T09:31:58Z</time>
<desc>lat.=22.328285, lon.=103.781731, Alt.=2230.720703m. Speed=0.036000m/h.</desc>
<speed>0.010000</speed>
</trkpt>
<trkpt lat="22.328285" lon="103.781731">
<ele>2230.720703</ele>
<time>2011-04-24T09:32:03Z</time>
<desc>lat.=22.328285, lon.=103.781731, Alt.=2230.720703m. Speed=0.108000m/h.</desc>
<speed>0.030000</speed>
</trkpt>
<trkpt lat="22.328285" lon="103.781731">
<ele>2230.720703</ele>
<time>2011-04-24T09:32:08Z</time>
<desc>lat.=22.328285, lon.=103.781731, Alt.=2230.720703m. Speed=0.072000m/h.</desc>
<speed>0.020000</speed>
</trkpt>
<trkpt lat="22.328285" lon="103.781731">
<ele>2230.720703</ele>
<time>2011-04-24T09:32:13Z</time>
<desc>lat.=22.328285, lon.=103.781731, Alt.=2230.720703m. Speed=0.036000m/h.</desc>
<speed>0.010000</speed>
</trkpt>
<trkpt lat="22.328285" lon="103.781731">
<ele>2230.720703</ele>
<time>2011-04-24T09:32:18Z</time>
<desc>lat.=22.328285, lon.=103.781731, Alt.=2230.720703m. Speed=0.000000m/h.</desc>
<speed>0.000000</speed>
</trkpt>
<trkpt lat="22.328285" lon="103.781731">
<ele>2230.720703</ele>
<time>2011-04-24T09:32:23Z</time>
<desc>lat.=22.328285, lon.=103.781731, Alt.=2230.720703m. Speed=0.000000m/h.</desc>
<speed>0.000000</speed>
</trkpt>
<trkpt lat="22.328285" lon="103.781731">
<ele>2230.720703</ele>
<time>2011-04-24T09:32:28Z</time>
<desc>lat.=22.328285, lon.=103.781731, Alt.=2230.720703m. Speed=0.000000m/h.</desc>
<speed>0.000000</speed>
</trkpt>
<trkpt lat="22.328285" lon="103.781731">
<ele>2230.720703</ele>
<time>2011-04-24T09:32:33Z</time>
<desc>lat.=22.328285, lon.=103.781731, Alt.=2230.720703m. Speed=0.000000m/h.</desc>
<speed>0.000000</speed>
</trkpt>
<trkpt lat="22.328285" lon="103.781731">
<ele>2230.720703</ele>
<time>2011-04-24T09:32:38Z</time>
<desc>lat.=22.328285, lon.=103.781731, Alt.=2230.720703m. Speed=0.000000m/h.</desc>
<speed>0.000000</speed>
</trkpt>
<trkpt lat="22.328285" lon="103.781731">
<ele>2230.720703</ele>
<time>2011-04-24T09:32:43Z</time>
<desc>lat.=22.328285, lon.=103.781731, Alt.=2230.720703m. Speed=0.000000m/h.</desc>
<speed>0.000000</speed>
</trkpt>
<trkpt lat="22.328285" lon="103.781731">
<ele>2230.720703</ele>
<time>2011-04-24T09:32:48Z</time>
<desc>lat.=22.328285, lon.=103.781731, Alt.=2230.720703m. Speed=0.000000m/h.</desc>
<speed>0.000000</speed>
</trkpt>
<trkpt lat="22.328285" lon="103.781723">
<ele>2230.720703</ele>
<time>2011-04-24T09:32:53Z</time>
<desc>lat.=22.328285, lon.=103.781723, Alt.=2230.720703m. Speed=0.036000m/h.</desc>
<speed>0.010000</speed>
</trkpt>
<trkpt lat="22.328285" lon="103.781723">
<ele>2230.720703</ele>
<time>2011-04-24T09:32:58Z</time>
<desc>lat.=22.328285, lon.=103.781723, Alt.=2230.720703m. Speed=0.072000m/h.</desc>
<speed>0.020000</speed>
</trkpt>
<trkpt lat="22.328287" lon="103.781723">
<ele>2230.720703</ele>
<time>2011-04-24T09:33:03Z</time>
<desc>lat.=22.328287, lon.=103.781723, Alt.=2230.720703m. Speed=0.000000m/h.</desc>
<speed>0.000000</speed>
</trkpt>
<trkpt lat="22.328287" lon="103.781723">
<ele>2230.783203</ele>
<time>2011-04-24T09:33:08Z</time>
<desc>lat.=22.328287, lon.=103.781723, Alt.=2230.783203m. Speed=0.036000m/h.</desc>
<speed>0.010000</speed>
</trkpt>
<trkpt lat="22.328287" lon="103.781723">
<ele>2230.783203</ele>
<time>2011-04-24T09:33:13Z</time>
<desc>lat.=22.328287, lon.=103.781723, Alt.=2230.783203m. Speed=0.000000m/h.</desc>
<speed>0.000000</speed>
</trkpt>
<trkpt lat="22.328287" lon="103.781723">
<ele>2230.720703</ele>
<time>2011-04-24T09:33:18Z</time>
<desc>lat.=22.328287, lon.=103.781723, Alt.=2230.720703m. Speed=0.000000m/h.</desc>
<speed>0.000000</speed>
</trkpt>
<trkpt lat="22.328287" lon="103.781723">
<ele>2230.720703</ele>
<time>2011-04-24T09:33:23Z</time>
<desc>lat.=22.328287, lon.=103.781723, Alt.=2230.720703m. Speed=0.000000m/h.</desc>
<speed>0.000000</speed>
</trkpt>
<trkpt lat="22.328287" lon="103.781723">
<ele>2230.720703</ele>
<time>2011-04-24T09:33:28Z</time>
<desc>lat.=22.328287, lon.=103.781723, Alt.=2230.720703m. Speed=0.036000m/h.</desc>
<speed>0.010000</speed>
</trkpt>
<trkpt lat="22.328287" lon="103.781723">
<ele>2230.720703</ele>
<time>2011-04-24T09:33:33Z</time>
<desc>lat.=22.328287, lon.=103.781723, Alt.=2230.720703m. Speed=0.072000m/h.</desc>
<speed>0.020000</speed>
</trkpt>
<trkpt lat="22.328287" lon="103.781723">
<ele>2230.720703</ele>
<time>2011-04-24T09:33:38Z</time>
<desc>lat.=22.328287, lon.=103.781723, Alt.=2230.720703m. Speed=0.000000m/h.</desc>
<speed>0.000000</speed>
</trkpt>
<trkpt lat="22.328287" lon="103.781723">
<ele>2230.783203</ele>
<time>2011-04-24T09:33:43Z</time>
<desc>lat.=22.328287, lon.=103.781723, Alt.=2230.783203m. Speed=0.000000m/h.</desc>
<speed>0.000000</speed>
</trkpt>
<trkpt lat="22.328287" lon="103.781723">
<ele>2230.783203</ele>
<time>2011-04-24T09:33:48Z</time>
<desc>lat.=22.328287, lon.=103.781723, Alt.=2230.783203m. Speed=0.000000m/h.</desc>
<speed>0.000000</speed>
</trkpt>
<trkpt lat="22.328287" lon="103.781723">
<ele>2230.783203</ele>
<time>2011-04-24T09:33:53Z</time>
<desc>lat.=22.328287, lon.=103.781723, Alt.=2230.783203m. Speed=0.000000m/h.</desc>
<speed>0.000000</speed>
</trkpt>
<trkpt lat="22.328289" lon="103.781723">
<ele>2230.783203</ele>
<time>2011-04-24T09:33:58Z</time>
<desc>lat.=22.328289, lon.=103.781723, Alt.=2230.783203m. Speed=0.000000m/h.</desc>
<speed>0.000000</speed>
</trkpt>
<trkpt lat="22.328289" lon="103.781723">
<ele>2230.783203</ele>
<time>2011-04-24T09:34:03Z</time>
<desc>lat.=22.328289, lon.=103.781723, Alt.=2230.783203m. Speed=0.000000m/h.</desc>
<speed>0.000000</speed>
</trkpt>
<trkpt lat="22.328289" lon="103.781723">
<ele>2230.783203</ele>
<time>2011-04-24T09:34:08Z</time>
<desc>lat.=22.328289, lon.=103.781723, Alt.=2230.783203m. Speed=0.000000m/h.</desc>
<speed>0.000000</speed>
</trkpt>
<trkpt lat="22.328289" lon="103.781723">
<ele>2230.845703</ele>
<time>2011-04-24T09:34:13Z</time>
<desc>lat.=22.328289, lon.=103.781723, Alt.=2230.845703m. Speed=0.036000m/h.</desc>
<speed>0.010000</speed>
</trkpt>
<trkpt lat="22.328289" lon="103.781723">
<ele>2230.845703</ele>
<time>2011-04-24T09:34:18Z</time>
<desc>lat.=22.328289, lon.=103.781723, Alt.=2230.845703m. Speed=0.000000m/h.</desc>
<speed>0.000000</speed>
</trkpt>
<trkpt lat="22.328289" lon="103.781723">
<ele>2230.845703</ele>
<time>2011-04-24T09:34:23Z</time>
<desc>lat.=22.328289, lon.=103.781723, Alt.=2230.845703m. Speed=0.000000m/h.</desc>
<speed>0.000000</speed>
</trkpt>
<trkpt lat="22.328289" lon="103.781723">
<ele>2230.845703</ele>
<time>2011-04-24T09:34:28Z</time>
<desc>lat.=22.328289, lon.=103.781723, Alt.=2230.845703m. Speed=0.000000m/h.</desc>
<speed>0.000000</speed>
</trkpt>
<trkpt lat="22.328289" lon="103.781723">
<ele>2230.845703</ele>
<time>2011-04-24T09:34:33Z</time>
<desc>lat.=22.328289, lon.=103.781723, Alt.=2230.845703m. Speed=0.036000m/h.</desc>
<speed>0.010000</speed>
</trkpt>
<trkpt lat="22.328289" lon="103.781723">
<ele>2230.845703</ele>
<time>2011-04-24T09:34:38Z</time>
<desc>lat.=22.328289, lon.=103.781723, Alt.=2230.845703m. Speed=0.000000m/h.</desc>
<speed>0.000000</speed>
</trkpt>
<trkpt lat="22.328289" lon="103.781723">
<ele>2230.845703</ele>
<time>2011-04-24T09:34:43Z</time>
<desc>lat.=22.328289, lon.=103.781723, Alt.=2230.845703m. Speed=0.000000m/h.</desc>
<speed>0.000000</speed>
</trkpt>
<trkpt lat="22.328289" lon="103.781723">
<ele>2230.845703</ele>
<time>2011-04-24T09:34:48Z</time>
<desc>lat.=22.328289, lon.=103.781723, Alt.=2230.845703m. Speed=0.036000m/h.</desc>
<speed>0.010000</speed>
</trkpt>
<trkpt lat="22.328289" lon="103.781723">
<ele>2230.845703</ele>
<time>2011-04-24T09:34:53Z</time>
<desc>lat.=22.328289, lon.=103.781723, Alt.=2230.845703m. Speed=0.000000m/h.</desc>
<speed>0.000000</speed>
</trkpt>
<trkpt lat="22.328289" lon="103.781723">
<ele>2230.845703</ele>
<time>2011-04-24T09:34:58Z</time>
<desc>lat.=22.328289, lon.=103.781723, Alt.=2230.845703m. Speed=0.072000m/h.</desc>
<speed>0.020000</speed>
</trkpt>
<trkpt lat="22.328289" lon="103.781723">
<ele>2230.845703</ele>
<time>2011-04-24T09:35:03Z</time>
<desc>lat.=22.328289, lon.=103.781723, Alt.=2230.845703m. Speed=0.000000m/h.</desc>
<speed>0.000000</speed>
</trkpt>
<trkpt lat="22.328289" lon="103.781723">
<ele>2230.845703</ele>
<time>2011-04-24T09:35:08Z</time>
<desc>lat.=22.328289, lon.=103.781723, Alt.=2230.845703m. Speed=0.000000m/h.</desc>
<speed>0.000000</speed>
</trkpt>
<trkpt lat="22.328289" lon="103.781723">
<ele>2230.845703</ele>
<time>2011-04-24T09:35:13Z</time>
<desc>lat.=22.328289, lon.=103.781723, Alt.=2230.845703m. Speed=0.072000m/h.</desc>
<speed>0.020000</speed>
</trkpt>
<trkpt lat="22.328289" lon="103.781723">
<ele>2230.845703</ele>
<time>2011-04-24T09:35:18Z</time>
<desc>lat.=22.328289, lon.=103.781723, Alt.=2230.845703m. Speed=0.180000m/h.</desc>
<speed>0.050000</speed>
</trkpt>
<trkpt lat="22.328289" lon="103.781723">
<ele>2230.845703</ele>
<time>2011-04-24T09:35:23Z</time>
<desc>lat.=22.328289, lon.=103.781723, Alt.=2230.845703m. Speed=0.036000m/h.</desc>
<speed>0.010000</speed>
</trkpt>
<trkpt lat="22.328291" lon="103.781723">
<ele>2230.845703</ele>
<time>2011-04-24T09:35:28Z</time>
<desc>lat.=22.328291, lon.=103.781723, Alt.=2230.845703m. Speed=0.216000m/h.</desc>
<speed>0.060000</speed>
</trkpt>
<trkpt lat="22.328289" lon="103.781723">
<ele>2230.845703</ele>
<time>2011-04-24T09:35:33Z</time>
<desc>lat.=22.328289, lon.=103.781723, Alt.=2230.845703m. Speed=0.144000m/h.</desc>
<speed>0.040000</speed>
</trkpt>
<trkpt lat="22.328291" lon="103.781723">
<ele>2230.845703</ele>
<time>2011-04-24T09:35:38Z</time>
<desc>lat.=22.328291, lon.=103.781723, Alt.=2230.845703m. Speed=0.000000m/h.</desc>
<speed>0.000000</speed>
</trkpt>
<trkpt lat="22.328291" lon="103.781723">
<ele>2230.845703</ele>
<time>2011-04-24T09:35:43Z</time>
<desc>lat.=22.328291, lon.=103.781723, Alt.=2230.845703m. Speed=0.000000m/h.</desc>
<speed>0.000000</speed>
</trkpt>
<trkpt lat="22.328291" lon="103.781723">
<ele>2230.845703</ele>
<time>2011-04-24T09:35:48Z</time>
<desc>lat.=22.328291, lon.=103.781723, Alt.=2230.845703m. Speed=0.036000m/h.</desc>
<speed>0.010000</speed>
</trkpt>
<trkpt lat="22.328291" lon="103.781723">
<ele>2230.845703</ele>
<time>2011-04-24T09:35:53Z</time>
<desc>lat.=22.328291, lon.=103.781723, Alt.=2230.845703m. Speed=0.000000m/h.</desc>
<speed>0.000000</speed>
</trkpt>
<trkpt lat="22.328291" lon="103.781723">
<ele>2230.845703</ele>
<time>2011-04-24T09:35:58Z</time>
<desc>lat.=22.328291, lon.=103.781723, Alt.=2230.845703m. Speed=0.900000m/h.</desc>
<speed>0.250000</speed>
</trkpt>
<trkpt lat="22.328295" lon="103.781746">
<ele>2230.533203</ele>
<time>2011-04-24T09:36:03Z</time>
<desc>lat.=22.328295, lon.=103.781746, Alt.=2230.533203m. Speed=0.036000m/h.</desc>
<speed>0.010000</speed>
</trkpt>
<trkpt lat="22.328295" lon="103.781746">
<ele>2230.408203</ele>
<time>2011-04-24T09:36:08Z</time>
<desc>lat.=22.328295, lon.=103.781746, Alt.=2230.408203m. Speed=0.072000m/h.</desc>
<speed>0.020000</speed>
</trkpt>
<trkpt lat="22.328295" lon="103.781746">
<ele>2230.158203</ele>
<time>2011-04-24T09:36:13Z</time>
<desc>lat.=22.328295, lon.=103.781746, Alt.=2230.158203m. Speed=0.684000m/h.</desc>
<speed>0.190000</speed>
</trkpt>
<trkpt lat="22.328304" lon="103.781738">
<ele>2230.095703</ele>
<time>2011-04-24T09:36:18Z</time>
<desc>lat.=22.328304, lon.=103.781738, Alt.=2230.095703m. Speed=0.252000m/h.</desc>
<speed>0.070000</speed>
</trkpt>
<trkpt lat="22.328308" lon="103.781738">
<ele>2230.220703</ele>
<time>2011-04-24T09:36:23Z</time>
<desc>lat.=22.328308, lon.=103.781738, Alt.=2230.220703m. Speed=0.288000m/h.</desc>
<speed>0.080000</speed>
</trkpt>
<trkpt lat="22.328308" lon="103.781738">
<ele>2230.220703</ele>
<time>2011-04-24T09:36:28Z</time>
<desc>lat.=22.328308, lon.=103.781738, Alt.=2230.220703m. Speed=0.252000m/h.</desc>
<speed>0.070000</speed>
</trkpt>
<trkpt lat="22.328308" lon="103.781738">
<ele>2230.220703</ele>
<time>2011-04-24T09:36:33Z</time>
<desc>lat.=22.328308, lon.=103.781738, Alt.=2230.220703m. Speed=0.036000m/h.</desc>
<speed>0.010000</speed>
</trkpt>
<trkpt lat="22.328308" lon="103.781738">
<ele>2230.220703</ele>
<time>2011-04-24T09:36:38Z</time>
<desc>lat.=22.328308, lon.=103.781738, Alt.=2230.220703m. Speed=0.036000m/h.</desc>
<speed>0.010000</speed>
</trkpt>
<trkpt lat="22.328308" lon="103.781738">
<ele>2230.220703</ele>
<time>2011-04-24T09:36:43Z</time>
<desc>lat.=22.328308, lon.=103.781738, Alt.=2230.220703m. Speed=0.000000m/h.</desc>
<speed>0.000000</speed>
</trkpt>
<trkpt lat="22.328308" lon="103.781738">
<ele>2230.220703</ele>
<time>2011-04-24T09:36:48Z</time>
<desc>lat.=22.328308, lon.=103.781738, Alt.=2230.220703m. Speed=0.000000m/h.</desc>
<speed>0.000000</speed>
</trkpt>
<trkpt lat="22.328304" lon="103.781738">
<ele>2230.408203</ele>
<time>2011-04-24T09:36:53Z</time>
<desc>lat.=22.328304, lon.=103.781738, Alt.=2230.408203m. Speed=0.144000m/h.</desc>
<speed>0.040000</speed>
</trkpt>
<trkpt lat="22.328310" lon="103.781738">
<ele>2230.408203</ele>
<time>2011-04-24T09:36:58Z</time>
<desc>lat.=22.328310, lon.=103.781738, Alt.=2230.408203m. Speed=0.936000m/h.</desc>
<speed>0.260000</speed>
</trkpt>
<trkpt lat="22.328318" lon="103.781754">
<ele>2230.220703</ele>
<time>2011-04-24T09:37:03Z</time>
<desc>lat.=22.328318, lon.=103.781754, Alt.=2230.220703m. Speed=5.076000m/h.</desc>
<speed>1.410000</speed>
</trkpt>
<trkpt lat="22.328369" lon="103.781761">
<ele>2231.033203</ele>
<time>2011-04-24T09:37:08Z</time>
<desc>lat.=22.328369, lon.=103.781761, Alt.=2231.033203m. Speed=4.824000m/h.</desc>
<speed>1.340000</speed>
</trkpt>
<trkpt lat="22.328419" lon="103.781754">
<ele>2232.658203</ele>
<time>2011-04-24T09:37:13Z</time>
<desc>lat.=22.328419, lon.=103.781754, Alt.=2232.658203m. Speed=4.428000m/h.</desc>
<speed>1.230000</speed>
</trkpt>
<trkpt lat="22.328461" lon="103.781723">
<ele>2233.783203</ele>
<time>2011-04-24T09:37:18Z</time>
<desc>lat.=22.328461, lon.=103.781723, Alt.=2233.783203m. Speed=3.600000m/h.</desc>
<speed>1.000000</speed>
</trkpt>
<trkpt lat="22.328484" lon="103.781700">
<ele>2234.220703</ele>
<time>2011-04-24T09:37:23Z</time>
<desc>lat.=22.328484, lon.=103.781700, Alt.=2234.220703m. Speed=2.088000m/h.</desc>
<speed>0.580000</speed>
</trkpt>
<trkpt lat="22.328508" lon="103.781693">
<ele>2235.283203</ele>
<time>2011-04-24T09:37:28Z</time>
<desc>lat.=22.328508, lon.=103.781693, Alt.=2235.283203m. Speed=3.528000m/h.</desc>
<speed>0.980000</speed>
</trkpt>
<trkpt lat="22.328545" lon="103.781693">
<ele>2236.470703</ele>
<time>2011-04-24T09:37:33Z</time>
<desc>lat.=22.328545, lon.=103.781693, Alt.=2236.470703m. Speed=1.980000m/h.</desc>
<speed>0.550000</speed>
</trkpt>
<trkpt lat="22.328569" lon="103.781693">
<ele>2236.908203</ele>
<time>2011-04-24T09:37:38Z</time>
<desc>lat.=22.328569, lon.=103.781693, Alt.=2236.908203m. Speed=2.556000m/h.</desc>
<speed>0.710000</speed>
</trkpt>
<trkpt lat="22.328608" lon="103.781685">
<ele>2237.470703</ele>
<time>2011-04-24T09:37:43Z</time>
<desc>lat.=22.328608, lon.=103.781685, Alt.=2237.470703m. Speed=2.556000m/h.</desc>
<speed>0.710000</speed>
</trkpt>
<trkpt lat="22.328629" lon="103.781685">
<ele>2237.908203</ele>
<time>2011-04-24T09:37:48Z</time>
<desc>lat.=22.328629, lon.=103.781685, Alt.=2237.908203m. Speed=0.072000m/h.</desc>
<speed>0.020000</speed>
</trkpt>
<trkpt lat="22.328669" lon="103.781677">
<ele>2238.720703</ele>
<time>2011-04-24T09:37:53Z</time>
<desc>lat.=22.328669, lon.=103.781677, Alt.=2238.720703m. Speed=3.672000m/h.</desc>
<speed>1.020000</speed>
</trkpt>
<trkpt lat="22.328709" lon="103.781677">
<ele>2240.095703</ele>
<time>2011-04-24T09:37:58Z</time>
<desc>lat.=22.328709, lon.=103.781677, Alt.=2240.095703m. Speed=3.024000m/h.</desc>
<speed>0.840000</speed>
</trkpt>
<trkpt lat="22.328737" lon="103.781662">
<ele>2240.845703</ele>
<time>2011-04-24T09:38:03Z</time>
<desc>lat.=22.328737, lon.=103.781662, Alt.=2240.845703m. Speed=3.060000m/h.</desc>
<speed>0.850000</speed>
</trkpt>
<trkpt lat="22.328772" lon="103.781654">
<ele>2241.845703</ele>
<time>2011-04-24T09:38:08Z</time>
<desc>lat.=22.328772, lon.=103.781654, Alt.=2241.845703m. Speed=2.340000m/h.</desc>
<speed>0.650000</speed>
</trkpt>
<trkpt lat="22.328802" lon="103.781647">
<ele>2242.533203</ele>
<time>2011-04-24T09:38:13Z</time>
<desc>lat.=22.328802, lon.=103.781647, Alt.=2242.533203m. Speed=3.312000m/h.</desc>
<speed>0.920000</speed>
</trkpt>
<trkpt lat="22.328842" lon="103.781639">
<ele>2242.658203</ele>
<time>2011-04-24T09:38:18Z</time>
<desc>lat.=22.328842, lon.=103.781639, Alt.=2242.658203m. Speed=2.844000m/h.</desc>
<speed>0.790000</speed>
</trkpt>
<trkpt lat="22.328882" lon="103.781624">
<ele>2242.095703</ele>
<time>2011-04-24T09:38:23Z</time>
<desc>lat.=22.328882, lon.=103.781624, Alt.=2242.095703m. Speed=4.428000m/h.</desc>
<speed>1.230000</speed>
</trkpt>
<trkpt lat="22.328941" lon="103.781609">
<ele>2241.220703</ele>
<time>2011-04-24T09:38:28Z</time>
<desc>lat.=22.328941, lon.=103.781609, Alt.=2241.220703m. Speed=4.644000m/h.</desc>
<speed>1.290000</speed>
</trkpt>
<trkpt lat="22.328960" lon="103.781609">
<ele>2240.595703</ele>
<time>2011-04-24T09:38:33Z</time>
<desc>lat.=22.328960, lon.=103.781609, Alt.=2240.595703m. Speed=0.072000m/h.</desc>
<speed>0.020000</speed>
</trkpt>
<trkpt lat="22.328960" lon="103.781609">
<ele>2240.408203</ele>
<time>2011-04-24T09:38:38Z</time>
<desc>lat.=22.328960, lon.=103.781609, Alt.=2240.408203m. Speed=0.144000m/h.</desc>
<speed>0.040000</speed>
</trkpt>
<trkpt lat="22.328959" lon="103.781609">
<ele>2240.345703</ele>
<time>2011-04-24T09:38:43Z</time>
<desc>lat.=22.328959, lon.=103.781609, Alt.=2240.345703m. Speed=0.036000m/h.</desc>
<speed>0.010000</speed>
</trkpt>
<trkpt lat="22.328960" lon="103.781609">
<ele>2240.283203</ele>
<time>2011-04-24T09:38:48Z</time>
<desc>lat.=22.328960, lon.=103.781609, Alt.=2240.283203m. Speed=0.000000m/h.</desc>
<speed>0.000000</speed>
</trkpt>
<trkpt lat="22.328960" lon="103.781609">
<ele>2240.283203</ele>
<time>2011-04-24T09:38:53Z</time>
<desc>lat.=22.328960, lon.=103.781609, Alt.=2240.283203m. Speed=0.036000m/h.</desc>
<speed>0.010000</speed>
</trkpt>
<trkpt lat="22.328960" lon="103.781609">
<ele>2240.283203</ele>
<time>2011-04-24T09:38:58Z</time>
<desc>lat.=22.328960, lon.=103.781609, Alt.=2240.283203m. Speed=0.000000m/h.</desc>
<speed>0.000000</speed>
</trkpt>
<trkpt lat="22.328960" lon="103.781609">
<ele>2240.283203</ele>
<time>2011-04-24T09:39:03Z</time>
<desc>lat.=22.328960, lon.=103.781609, Alt.=2240.283203m. Speed=0.000000m/h.</desc>
<speed>0.000000</speed>
</trkpt>
<trkpt lat="22.328960" lon="103.781609">
<ele>2240.283203</ele>
<time>2011-04-24T09:39:08Z</time>
<desc>lat.=22.328960, lon.=103.781609, Alt.=2240.283203m. Speed=0.036000m/h.</desc>
<speed>0.010000</speed>
</trkpt>
<trkpt lat="22.328966" lon="103.781609">
<ele>2240.408203</ele>
<time>2011-04-24T09:39:13Z</time>
<desc>lat.=22.328966, lon.=103.781609, Alt.=2240.408203m. Speed=3.240000m/h.</desc>
<speed>0.900000</speed>
</trkpt>
<trkpt lat="22.329010" lon="103.781578">
<ele>2241.033203</ele>
<time>2011-04-24T09:39:18Z</time>
<desc>lat.=22.329010, lon.=103.781578, Alt.=2241.033203m. Speed=3.276000m/h.</desc>
<speed>0.910000</speed>
</trkpt>
<trkpt lat="22.329060" lon="103.781555">
<ele>2241.783203</ele>
<time>2011-04-24T09:39:23Z</time>
<desc>lat.=22.329060, lon.=103.781555, Alt.=2241.783203m. Speed=3.924000m/h.</desc>
<speed>1.090000</speed>
</trkpt>
<trkpt lat="22.329117" lon="103.781525">
<ele>2242.095703</ele>
<time>2011-04-24T09:39:28Z</time>
<desc>lat.=22.329117, lon.=103.781525, Alt.=2242.095703m. Speed=5.832000m/h.</desc>
<speed>1.620000</speed>
</trkpt>
<trkpt lat="22.329189" lon="103.781494">
<ele>2242.595703</ele>
<time>2011-04-24T09:39:33Z</time>
<desc>lat.=22.329189, lon.=103.781494, Alt.=2242.595703m. Speed=5.652000m/h.</desc>
<speed>1.570000</speed>
</trkpt>
<trkpt lat="22.329254" lon="103.781471">
<ele>2243.783203</ele>
<time>2011-04-24T09:39:38Z</time>
<desc>lat.=22.329254, lon.=103.781471, Alt.=2243.783203m. Speed=4.464000m/h.</desc>
<speed>1.240000</speed>
</trkpt>
<trkpt lat="22.329313" lon="103.781448">
<ele>2244.658203</ele>
<time>2011-04-24T09:39:43Z</time>
<desc>lat.=22.329313, lon.=103.781448, Alt.=2244.658203m. Speed=4.932000m/h.</desc>
<speed>1.370000</speed>
</trkpt>
<trkpt lat="22.329374" lon="103.781433">
<ele>2245.345703</ele>
<time>2011-04-24T09:39:48Z</time>
<desc>lat.=22.329374, lon.=103.781433, Alt.=2245.345703m. Speed=5.148000m/h.</desc>
<speed>1.430000</speed>
</trkpt>
<trkpt lat="22.329437" lon="103.781403">
<ele>2245.345703</ele>
<time>2011-04-24T09:39:53Z</time>
<desc>lat.=22.329437, lon.=103.781403, Alt.=2245.345703m. Speed=5.796000m/h.</desc>
<speed>1.610000</speed>
</trkpt>
<trkpt lat="22.329508" lon="103.781410">
<ele>2245.283203</ele>
<time>2011-04-24T09:39:58Z</time>
<desc>lat.=22.329508, lon.=103.781410, Alt.=2245.283203m. Speed=5.832000m/h.</desc>
<speed>1.620000</speed>
</trkpt>
<trkpt lat="22.329569" lon="103.781441">
<ele>2245.533203</ele>
<time>2011-04-24T09:40:03Z</time>
<desc>lat.=22.329569, lon.=103.781441, Alt.=2245.533203m. Speed=5.004000m/h.</desc>
<speed>1.390000</speed>
</trkpt>
<trkpt lat="22.329615" lon="103.781471">
<ele>2244.533203</ele>
<time>2011-04-24T09:40:08Z</time>
<desc>lat.=22.329615, lon.=103.781471, Alt.=2244.533203m. Speed=3.276000m/h.</desc>
<speed>0.910000</speed>
</trkpt>
<trkpt lat="22.329655" lon="103.781487">
<ele>2243.658203</ele>
<time>2011-04-24T09:40:13Z</time>
<desc>lat.=22.329655, lon.=103.781487, Alt.=2243.658203m. Speed=2.520000m/h.</desc>
<speed>0.700000</speed>
</trkpt>
<trkpt lat="22.329695" lon="103.781502">
<ele>2242.970703</ele>
<time>2011-04-24T09:40:18Z</time>
<desc>lat.=22.329695, lon.=103.781502, Alt.=2242.970703m. Speed=2.592000m/h.</desc>
<speed>0.720000</speed>
</trkpt>
<trkpt lat="22.329725" lon="103.781517">
<ele>2242.533203</ele>
<time>2011-04-24T09:40:23Z</time>
<desc>lat.=22.329725, lon.=103.781517, Alt.=2242.533203m. Speed=2.736000m/h.</desc>
<speed>0.760000</speed>
</trkpt>
<trkpt lat="22.329758" lon="103.781540">
<ele>2241.658203</ele>
<time>2011-04-24T09:40:28Z</time>
<desc>lat.=22.329758, lon.=103.781540, Alt.=2241.658203m. Speed=3.384000m/h.</desc>
<speed>0.940000</speed>
</trkpt>
<trkpt lat="22.329796" lon="103.781570">
<ele>2240.033203</ele>
<time>2011-04-24T09:40:33Z</time>
<desc>lat.=22.329796, lon.=103.781570, Alt.=2240.033203m. Speed=4.176000m/h.</desc>
<speed>1.160000</speed>
</trkpt>
<trkpt lat="22.329823" lon="103.781609">
<ele>2238.345703</ele>
<time>2011-04-24T09:40:38Z</time>
<desc>lat.=22.329823, lon.=103.781609, Alt.=2238.345703m. Speed=1.512000m/h.</desc>
<speed>0.420000</speed>
</trkpt>
<trkpt lat="22.329845" lon="103.781601">
<ele>2238.345703</ele>
<time>2011-04-24T09:40:43Z</time>
<desc>lat.=22.329845, lon.=103.781601, Alt.=2238.345703m. Speed=0.864000m/h.</desc>
<speed>0.240000</speed>
</trkpt>
<trkpt lat="22.329844" lon="103.781609">
<ele>2237.470703</ele>
<time>2011-04-24T09:40:48Z</time>
<desc>lat.=22.329844, lon.=103.781609, Alt.=2237.470703m. Speed=1.044000m/h.</desc>
<speed>0.290000</speed>
</trkpt>
<trkpt lat="22.329851" lon="103.781586">
<ele>2237.095703</ele>
<time>2011-04-24T09:40:53Z</time>
<desc>lat.=22.329851, lon.=103.781586, Alt.=2237.095703m. Speed=1.512000m/h.</desc>
<speed>0.420000</speed>
</trkpt>
<trkpt lat="22.329863" lon="103.781586">
<ele>2236.033203</ele>
<time>2011-04-24T09:40:58Z</time>
<desc>lat.=22.329863, lon.=103.781586, Alt.=2236.033203m. Speed=0.864000m/h.</desc>
<speed>0.240000</speed>
</trkpt>
<trkpt lat="22.329863" lon="103.781593">
<ele>2236.033203</ele>
<time>2011-04-24T09:41:03Z</time>
<desc>lat.=22.329863, lon.=103.781593, Alt.=2236.033203m. Speed=0.468000m/h.</desc>
<speed>0.130000</speed>
</trkpt>
<trkpt lat="22.329872" lon="103.781601">
<ele>2235.908203</ele>
<time>2011-04-24T09:41:08Z</time>
<desc>lat.=22.329872, lon.=103.781601, Alt.=2235.908203m. Speed=1.404000m/h.</desc>
<speed>0.390000</speed>
</trkpt>
<trkpt lat="22.329887" lon="103.781609">
<ele>2235.845703</ele>
<time>2011-04-24T09:41:13Z</time>
<desc>lat.=22.329887, lon.=103.781609, Alt.=2235.845703m. Speed=1.404000m/h.</desc>
<speed>0.390000</speed>
</trkpt>
<trkpt lat="22.329901" lon="103.781601">
<ele>2235.720703</ele>
<time>2011-04-24T09:41:18Z</time>
<desc>lat.=22.329901, lon.=103.781601, Alt.=2235.720703m. Speed=1.368000m/h.</desc>
<speed>0.380000</speed>
</trkpt>
<trkpt lat="22.329891" lon="103.781593">
<ele>2235.220703</ele>
<time>2011-04-24T09:41:23Z</time>
<desc>lat.=22.329891, lon.=103.781593, Alt.=2235.220703m. Speed=0.972000m/h.</desc>
<speed>0.270000</speed>
</trkpt>
<trkpt lat="22.329893" lon="103.781593">
<ele>2235.283203</ele>
<time>2011-04-24T09:41:28Z</time>
<desc>lat.=22.329893, lon.=103.781593, Alt.=2235.283203m. Speed=0.252000m/h.</desc>
<speed>0.070000</speed>
</trkpt>
<trkpt lat="22.329897" lon="103.781586">
<ele>2235.345703</ele>
<time>2011-04-24T09:41:33Z</time>
<desc>lat.=22.329897, lon.=103.781586, Alt.=2235.345703m. Speed=2.052000m/h.</desc>
<speed>0.570000</speed>
</trkpt>
<trkpt lat="22.329920" lon="103.781593">
<ele>2234.470703</ele>
<time>2011-04-24T09:41:38Z</time>
<desc>lat.=22.329920, lon.=103.781593, Alt.=2234.470703m. Speed=1.116000m/h.</desc>
<speed>0.310000</speed>
</trkpt>
<trkpt lat="22.329935" lon="103.781593">
<ele>2233.845703</ele>
<time>2011-04-24T09:41:43Z</time>
<desc>lat.=22.329935, lon.=103.781593, Alt.=2233.845703m. Speed=0.792000m/h.</desc>
<speed>0.220000</speed>
</trkpt>
<trkpt lat="22.329958" lon="103.781586">
<ele>2233.658203</ele>
<time>2011-04-24T09:41:48Z</time>
<desc>lat.=22.329958, lon.=103.781586, Alt.=2233.658203m. Speed=1.656000m/h.</desc>
<speed>0.460000</speed>
</trkpt>
<trkpt lat="22.329967" lon="103.781593">
<ele>2234.095703</ele>
<time>2011-04-24T09:41:53Z</time>
<desc>lat.=22.329967, lon.=103.781593, Alt.=2234.095703m. Speed=0.468000m/h.</desc>
<speed>0.130000</speed>
</trkpt>
<trkpt lat="22.329977" lon="103.781593">
<ele>2233.220703</ele>
<time>2011-04-24T09:41:58Z</time>
<desc>lat.=22.329977, lon.=103.781593, Alt.=2233.220703m. Speed=1.476000m/h.</desc>
<speed>0.410000</speed>
</trkpt>
<trkpt lat="22.329994" lon="103.781601">
<ele>2233.408203</ele>
<time>2011-04-24T09:42:03Z</time>
<desc>lat.=22.329994, lon.=103.781601, Alt.=2233.408203m. Speed=0.396000m/h.</desc>
<speed>0.110000</speed>
</trkpt>
<trkpt lat="22.329992" lon="103.781609">
<ele>2233.908203</ele>
<time>2011-04-24T09:42:08Z</time>
<desc>lat.=22.329992, lon.=103.781609, Alt.=2233.908203m. Speed=1.728000m/h.</desc>
<speed>0.480000</speed>
</trkpt>
<trkpt lat="22.329988" lon="103.781609">
<ele>2234.845703</ele>
<time>2011-04-24T09:42:13Z</time>
<desc>lat.=22.329988, lon.=103.781609, Alt.=2234.845703m. Speed=0.288000m/h.</desc>
<speed>0.080000</speed>
</trkpt>
<trkpt lat="22.329988" lon="103.781601">
<ele>2234.970703</ele>
<time>2011-04-24T09:42:18Z</time>
<desc>lat.=22.329988, lon.=103.781601, Alt.=2234.970703m. Speed=0.900000m/h.</desc>
<speed>0.250000</speed>
</trkpt>
<trkpt lat="22.330008" lon="103.781578">
<ele>2234.845703</ele>
<time>2011-04-24T09:42:23Z</time>
<desc>lat.=22.330008, lon.=103.781578, Alt.=2234.845703m. Speed=1.188000m/h.</desc>
<speed>0.330000</speed>
</trkpt>
<trkpt lat="22.330019" lon="103.781563">
<ele>2234.908203</ele>
<time>2011-04-24T09:42:28Z</time>
<desc>lat.=22.330019, lon.=103.781563, Alt.=2234.908203m. Speed=0.792000m/h.</desc>
<speed>0.220000</speed>
</trkpt>
<trkpt lat="22.330027" lon="103.781555">
<ele>2235.095703</ele>
<time>2011-04-24T09:42:33Z</time>
<desc>lat.=22.330027, lon.=103.781555, Alt.=2235.095703m. Speed=0.684000m/h.</desc>
<speed>0.190000</speed>
</trkpt>
<trkpt lat="22.330032" lon="103.781548">
<ele>2235.220703</ele>
<time>2011-04-24T09:42:38Z</time>
<desc>lat.=22.330032, lon.=103.781548, Alt.=2235.220703m. Speed=0.648000m/h.</desc>
<speed>0.180000</speed>
</trkpt>
<trkpt lat="22.330036" lon="103.781540">
<ele>2235.408203</ele>
<time>2011-04-24T09:42:43Z</time>
<desc>lat.=22.330036, lon.=103.781540, Alt.=2235.408203m. Speed=0.324000m/h.</desc>
<speed>0.090000</speed>
</trkpt>
<trkpt lat="22.330040" lon="103.781540">
<ele>2235.533203</ele>
<time>2011-04-24T09:42:48Z</time>
<desc>lat.=22.330040, lon.=103.781540, Alt.=2235.533203m. Speed=0.864000m/h.</desc>
<speed>0.240000</speed>
</trkpt>
<trkpt lat="22.330051" lon="103.781540">
<ele>2235.720703</ele>
<time>2011-04-24T09:42:53Z</time>
<desc>lat.=22.330051, lon.=103.781540, Alt.=2235.720703m. Speed=0.756000m/h.</desc>
<speed>0.210000</speed>
</trkpt>
<trkpt lat="22.330059" lon="103.781540">
<ele>2235.845703</ele>
<time>2011-04-24T09:42:58Z</time>
<desc>lat.=22.330059, lon.=103.781540, Alt.=2235.845703m. Speed=0.756000m/h.</desc>
<speed>0.210000</speed>
</trkpt>
<trkpt lat="22.330084" lon="103.781540">
<ele>2235.658203</ele>
<time>2011-04-24T09:43:03Z</time>
<desc>lat.=22.330084, lon.=103.781540, Alt.=2235.658203m. Speed=0.828000m/h.</desc>
<speed>0.230000</speed>
</trkpt>
<trkpt lat="22.330095" lon="103.781525">
<ele>2235.783203</ele>
<time>2011-04-24T09:43:08Z</time>
<desc>lat.=22.330095, lon.=103.781525, Alt.=2235.783203m. Speed=1.476000m/h.</desc>
<speed>0.410000</speed>
</trkpt>
<trkpt lat="22.330065" lon="103.781471">
<ele>2235.158203</ele>
<time>2011-04-24T09:43:13Z</time>
<desc>lat.=22.330065, lon.=103.781471, Alt.=2235.158203m. Speed=3.168000m/h.</desc>
<speed>0.880000</speed>
</trkpt>
<trkpt lat="22.330050" lon="103.781425">
<ele>2235.533203</ele>
<time>2011-04-24T09:43:18Z</time>
<desc>lat.=22.330050, lon.=103.781425, Alt.=2235.533203m. Speed=2.592000m/h.</desc>
<speed>0.720000</speed>
</trkpt>
<trkpt lat="22.330080" lon="103.781395">
<ele>2236.158203</ele>
<time>2011-04-24T09:43:23Z</time>
<desc>lat.=22.330080, lon.=103.781395, Alt.=2236.158203m. Speed=2.376000m/h.</desc>
<speed>0.660000</speed>
</trkpt>
<trkpt lat="22.330116" lon="103.781372">
<ele>2236.783203</ele>
<time>2011-04-24T09:43:28Z</time>
<desc>lat.=22.330116, lon.=103.781372, Alt.=2236.783203m. Speed=1.368000m/h.</desc>
<speed>0.380000</speed>
</trkpt>
<trkpt lat="22.330149" lon="103.781334">
<ele>2236.908203</ele>
<time>2011-04-24T09:43:33Z</time>
<desc>lat.=22.330149, lon.=103.781334, Alt.=2236.908203m. Speed=2.016000m/h.</desc>
<speed>0.560000</speed>
</trkpt>
<trkpt lat="22.330151" lon="103.781334">
<ele>2237.408203</ele>
<time>2011-04-24T09:43:38Z</time>
<desc>lat.=22.330151, lon.=103.781334, Alt.=2237.408203m. Speed=0.216000m/h.</desc>
<speed>0.060000</speed>
</trkpt>
<trkpt lat="22.330149" lon="103.781296">
<ele>2237.220703</ele>
<time>2011-04-24T09:43:43Z</time>
<desc>lat.=22.330149, lon.=103.781296, Alt.=2237.220703m. Speed=2.628000m/h.</desc>
<speed>0.730000</speed>
</trkpt>
<trkpt lat="22.330164" lon="103.781219">
<ele>2237.220703</ele>
<time>2011-04-24T09:43:48Z</time>
<desc>lat.=22.330164, lon.=103.781219, Alt.=2237.220703m. Speed=3.204000m/h.</desc>
<speed>0.890000</speed>
</trkpt>
<trkpt lat="22.330177" lon="103.781166">
<ele>2235.408203</ele>
<time>2011-04-24T09:43:53Z</time>
<desc>lat.=22.330177, lon.=103.781166, Alt.=2235.408203m. Speed=2.700000m/h.</desc>
<speed>0.750000</speed>
</trkpt>
<trkpt lat="22.330175" lon="103.781143">
<ele>2234.533203</ele>
<time>2011-04-24T09:43:58Z</time>
<desc>lat.=22.330175, lon.=103.781143, Alt.=2234.533203m. Speed=1.476000m/h.</desc>
<speed>0.410000</speed>
</trkpt>
<trkpt lat="22.330156" lon="103.781113">
<ele>2234.658203</ele>
<time>2011-04-24T09:44:03Z</time>
<desc>lat.=22.330156, lon.=103.781113, Alt.=2234.658203m. Speed=1.944000m/h.</desc>
<speed>0.540000</speed>
</trkpt>
<trkpt lat="22.330154" lon="103.781013">
<ele>2234.408203</ele>
<time>2011-04-24T09:44:08Z</time>
<desc>lat.=22.330154, lon.=103.781013, Alt.=2234.408203m. Speed=2.736000m/h.</desc>
<speed>0.760000</speed>
</trkpt>
<trkpt lat="22.330183" lon="103.780975">
<ele>2232.658203</ele>
<time>2011-04-24T09:44:13Z</time>
<desc>lat.=22.330183, lon.=103.780975, Alt.=2232.658203m. Speed=2.052000m/h.</desc>
<speed>0.570000</speed>
</trkpt>
<trkpt lat="22.330185" lon="103.780937">
<ele>2232.345703</ele>
<time>2011-04-24T09:44:18Z</time>
<desc>lat.=22.330185, lon.=103.780937, Alt.=2232.345703m. Speed=2.736000m/h.</desc>
<speed>0.760000</speed>
</trkpt>
<trkpt lat="22.330181" lon="103.780907">
<ele>2231.720703</ele>
<time>2011-04-24T09:44:23Z</time>
<desc>lat.=22.330181, lon.=103.780907, Alt.=2231.720703m. Speed=1.728000m/h.</desc>
<speed>0.480000</speed>
</trkpt>
<trkpt lat="22.330168" lon="103.780891">
<ele>2231.345703</ele>
<time>2011-04-24T09:44:28Z</time>
<desc>lat.=22.330168, lon.=103.780891, Alt.=2231.345703m. Speed=0.972000m/h.</desc>
<speed>0.270000</speed>
</trkpt>
<trkpt lat="22.330166" lon="103.780869">
<ele>2232.158203</ele>
<time>2011-04-24T09:44:33Z</time>
<desc>lat.=22.330166, lon.=103.780869, Alt.=2232.158203m. Speed=0.648000m/h.</desc>
<speed>0.180000</speed>
</trkpt>
<trkpt lat="22.330198" lon="103.780853">
<ele>2232.658203</ele>
<time>2011-04-24T09:44:38Z</time>
<desc>lat.=22.330198, lon.=103.780853, Alt.=2232.658203m. Speed=1.944000m/h.</desc>
<speed>0.540000</speed>
</trkpt>
<trkpt lat="22.330210" lon="103.780807">
<ele>2232.908203</ele>
<time>2011-04-24T09:44:43Z</time>
<desc>lat.=22.330210, lon.=103.780807, Alt.=2232.908203m. Speed=3.600000m/h.</desc>
<speed>1.000000</speed>
</trkpt>
<trkpt lat="22.330227" lon="103.780724">
<ele>2232.720703</ele>
<time>2011-04-24T09:44:48Z</time>
<desc>lat.=22.330227, lon.=103.780724, Alt.=2232.720703m. Speed=4.032000m/h.</desc>
<speed>1.120000</speed>
</trkpt>
<trkpt lat="22.330250" lon="103.780663">
<ele>2233.158203</ele>
<time>2011-04-24T09:44:53Z</time>
<desc>lat.=22.330250, lon.=103.780663, Alt.=2233.158203m. Speed=3.132000m/h.</desc>
<speed>0.870000</speed>
</trkpt>
<trkpt lat="22.330286" lon="103.780594">
<ele>2232.345703</ele>
<time>2011-04-24T09:44:58Z</time>
<desc>lat.=22.330286, lon.=103.780594, Alt.=2232.345703m. Speed=2.304000m/h.</desc>
<speed>0.640000</speed>
</trkpt>
<trkpt lat="22.330290" lon="103.780563">
<ele>2232.158203</ele>
<time>2011-04-24T09:45:03Z</time>
<desc>lat.=22.330290, lon.=103.780563, Alt.=2232.158203m. Speed=0.540000m/h.</desc>
<speed>0.150000</speed>
</trkpt>
<trkpt lat="22.330311" lon="103.780563">
<ele>2231.658203</ele>
<time>2011-04-24T09:45:08Z</time>
<desc>lat.=22.330311, lon.=103.780563, Alt.=2231.658203m. Speed=1.476000m/h.</desc>
<speed>0.410000</speed>
</trkpt>
<trkpt lat="22.330318" lon="103.780548">
<ele>2231.345703</ele>
<time>2011-04-24T09:45:13Z</time>
<desc>lat.=22.330318, lon.=103.780548, Alt.=2231.345703m. Speed=1.980000m/h.</desc>
<speed>0.550000</speed>
</trkpt>
<trkpt lat="22.330303" lon="103.780518">
<ele>2230.970703</ele>
<time>2011-04-24T09:45:18Z</time>
<desc>lat.=22.330303, lon.=103.780518, Alt.=2230.970703m. Speed=0.936000m/h.</desc>
<speed>0.260000</speed>
</trkpt>
<trkpt lat="22.330315" lon="103.780502">
<ele>2230.595703</ele>
<time>2011-04-24T09:45:23Z</time>
<desc>lat.=22.330315, lon.=103.780502, Alt.=2230.595703m. Speed=1.872000m/h.</desc>
<speed>0.520000</speed>
</trkpt>
<trkpt lat="22.330301" lon="103.780472">
<ele>2230.158203</ele>
<time>2011-04-24T09:45:28Z</time>
<desc>lat.=22.330301, lon.=103.780472, Alt.=2230.158203m. Speed=1.224000m/h.</desc>
<speed>0.340000</speed>
</trkpt>
<trkpt lat="22.330353" lon="103.780434">
<ele>2228.908203</ele>
<time>2011-04-24T09:45:33Z</time>
<desc>lat.=22.330353, lon.=103.780434, Alt.=2228.908203m. Speed=1.656000m/h.</desc>
<speed>0.460000</speed>
</trkpt>
<trkpt lat="22.330393" lon="103.780403">
<ele>2227.658203</ele>
<time>2011-04-24T09:45:38Z</time>
<desc>lat.=22.330393, lon.=103.780403, Alt.=2227.658203m. Speed=1.584000m/h.</desc>
<speed>0.440000</speed>
</trkpt>
<trkpt lat="22.330435" lon="103.780357">
<ele>2226.220703</ele>
<time>2011-04-24T09:45:43Z</time>
<desc>lat.=22.330435, lon.=103.780357, Alt.=2226.220703m. Speed=1.728000m/h.</desc>
<speed>0.480000</speed>
</trkpt>
<trkpt lat="22.330460" lon="103.780327">
<ele>2224.908203</ele>
<time>2011-04-24T09:45:48Z</time>
<desc>lat.=22.330460, lon.=103.780327, Alt.=2224.908203m. Speed=1.548000m/h.</desc>
<speed>0.430000</speed>
</trkpt>
<trkpt lat="22.330452" lon="103.780289">
<ele>2224.408203</ele>
<time>2011-04-24T09:45:53Z</time>
<desc>lat.=22.330452, lon.=103.780289, Alt.=2224.408203m. Speed=3.456000m/h.</desc>
<speed>0.960000</speed>
</trkpt>
<trkpt lat="22.330448" lon="103.780251">
<ele>2223.970703</ele>
<time>2011-04-24T09:45:58Z</time>
<desc>lat.=22.330448, lon.=103.780251, Alt.=2223.970703m. Speed=1.440000m/h.</desc>
<speed>0.400000</speed>
</trkpt>
<trkpt lat="22.330481" lon="103.780251">
<ele>2223.345703</ele>
<time>2011-04-24T09:46:03Z</time>
<desc>lat.=22.330481, lon.=103.780251, Alt.=2223.345703m. Speed=1.656000m/h.</desc>
<speed>0.460000</speed>
</trkpt>
<trkpt lat="22.330503" lon="103.780243">
<ele>2222.908203</ele>
<time>2011-04-24T09:46:08Z</time>
<desc>lat.=22.330503, lon.=103.780243, Alt.=2222.908203m. Speed=2.052000m/h.</desc>
<speed>0.570000</speed>
</trkpt>
<trkpt lat="22.330526" lon="103.780205">
<ele>2222.345703</ele>
<time>2011-04-24T09:46:13Z</time>
<desc>lat.=22.330526, lon.=103.780205, Alt.=2222.345703m. Speed=2.520000m/h.</desc>
<speed>0.700000</speed>
</trkpt>
<trkpt lat="22.330526" lon="103.780174">
<ele>2222.470703</ele>
<time>2011-04-24T09:46:18Z</time>
<desc>lat.=22.330526, lon.=103.780174, Alt.=2222.470703m. Speed=2.160000m/h.</desc>
<speed>0.600000</speed>
</trkpt>
<trkpt lat="22.330553" lon="103.780182">
<ele>2222.595703</ele>
<time>2011-04-24T09:46:23Z</time>
<desc>lat.=22.330553, lon.=103.780182, Alt.=2222.595703m. Speed=0.360000m/h.</desc>
<speed>0.100000</speed>
</trkpt>
<trkpt lat="22.330563" lon="103.780151">
<ele>2222.533203</ele>
<time>2011-04-24T09:46:28Z</time>
<desc>lat.=22.330563, lon.=103.780151, Alt.=2222.533203m. Speed=1.440000m/h.</desc>
<speed>0.400000</speed>
</trkpt>
<trkpt lat="22.330570" lon="103.780128">
<ele>2222.845703</ele>
<time>2011-04-24T09:46:33Z</time>
<desc>lat.=22.330570, lon.=103.780128, Alt.=2222.845703m. Speed=1.404000m/h.</desc>
<speed>0.390000</speed>
</trkpt>
<trkpt lat="22.330624" lon="103.780090">
<ele>2221.720703</ele>
<time>2011-04-24T09:46:38Z</time>
<desc>lat.=22.330624, lon.=103.780090, Alt.=2221.720703m. Speed=3.240000m/h.</desc>
<speed>0.900000</speed>
</trkpt>
<trkpt lat="22.330652" lon="103.780060">
<ele>2220.908203</ele>
<time>2011-04-24T09:46:43Z</time>
<desc>lat.=22.330652, lon.=103.780060, Alt.=2220.908203m. Speed=2.016000m/h.</desc>
<speed>0.560000</speed>
</trkpt>
<trkpt lat="22.330677" lon="103.780037">
<ele>2220.595703</ele>
<time>2011-04-24T09:46:48Z</time>
<desc>lat.=22.330677, lon.=103.780037, Alt.=2220.595703m. Speed=1.944000m/h.</desc>
<speed>0.540000</speed>
</trkpt>
<trkpt lat="22.330713" lon="103.780052">
<ele>2221.658203</ele>
<time>2011-04-24T09:46:53Z</time>
<desc>lat.=22.330713, lon.=103.780052, Alt.=2221.658203m. Speed=3.888000m/h.</desc>
<speed>1.080000</speed>
</trkpt>
<trkpt lat="22.330734" lon="103.780083">
<ele>2221.970703</ele>
<time>2011-04-24T09:46:58Z</time>
<desc>lat.=22.330734, lon.=103.780083, Alt.=2221.970703m. Speed=3.420000m/h.</desc>
<speed>0.950000</speed>
</trkpt>
<trkpt lat="22.330753" lon="103.780060">
<ele>2221.533203</ele>
<time>2011-04-24T09:47:03Z</time>
<desc>lat.=22.330753, lon.=103.780060, Alt.=2221.533203m. Speed=3.276000m/h.</desc>
<speed>0.910000</speed>
</trkpt>
<trkpt lat="22.330786" lon="103.779991">
<ele>2221.595703</ele>
<time>2011-04-24T09:47:08Z</time>
<desc>lat.=22.330786, lon.=103.779991, Alt.=2221.595703m. Speed=2.808000m/h.</desc>
<speed>0.780000</speed>
</trkpt>
<trkpt lat="22.330786" lon="103.779953">
<ele>2221.845703</ele>
<time>2011-04-24T09:47:13Z</time>
<desc>lat.=22.330786, lon.=103.779953, Alt.=2221.845703m. Speed=2.124000m/h.</desc>
<speed>0.590000</speed>
</trkpt>
<trkpt lat="22.330803" lon="103.779922">
<ele>2221.970703</ele>
<time>2011-04-24T09:47:18Z</time>
<desc>lat.=22.330803, lon.=103.779922, Alt.=2221.970703m. Speed=1.152000m/h.</desc>
<speed>0.320000</speed>
</trkpt>
<trkpt lat="22.330816" lon="103.779915">
<ele>2221.658203</ele>
<time>2011-04-24T09:47:23Z</time>
<desc>lat.=22.330816, lon.=103.779915, Alt.=2221.658203m. Speed=2.160000m/h.</desc>
<speed>0.600000</speed>
</trkpt>
<trkpt lat="22.330847" lon="103.779900">
<ele>2221.970703</ele>
<time>2011-04-24T09:47:28Z</time>
<desc>lat.=22.330847, lon.=103.779900, Alt.=2221.970703m. Speed=2.340000m/h.</desc>
<speed>0.650000</speed>
</trkpt>
<trkpt lat="22.330881" lon="103.779900">
<ele>2221.970703</ele>
<time>2011-04-24T09:47:33Z</time>
<desc>lat.=22.330881, lon.=103.779900, Alt.=2221.970703m. Speed=1.836000m/h.</desc>
<speed>0.510000</speed>
</trkpt>
<trkpt lat="22.330915" lon="103.779884">
<ele>2222.033203</ele>
<time>2011-04-24T09:47:38Z</time>
<desc>lat.=22.330915, lon.=103.779884, Alt.=2222.033203m. Speed=0.936000m/h.</desc>
<speed>0.260000</speed>
</trkpt>
<trkpt lat="22.330925" lon="103.779869">
<ele>2222.158203</ele>
<time>2011-04-24T09:47:43Z</time>
<desc>lat.=22.330925, lon.=103.779869, Alt.=2222.158203m. Speed=1.080000m/h.</desc>
<speed>0.300000</speed>
</trkpt>
<trkpt lat="22.330948" lon="103.779831">
<ele>2221.783203</ele>
<time>2011-04-24T09:47:48Z</time>
<desc>lat.=22.330948, lon.=103.779831, Alt.=2221.783203m. Speed=2.340000m/h.</desc>
<speed>0.650000</speed>
</trkpt>
<trkpt lat="22.330982" lon="103.779770">
<ele>2220.720703</ele>
<time>2011-04-24T09:47:53Z</time>
<desc>lat.=22.330982, lon.=103.779770, Alt.=2220.720703m. Speed=2.268000m/h.</desc>
<speed>0.630000</speed>
</trkpt>
<trkpt lat="22.331007" lon="103.779724">
<ele>2220.220703</ele>
<time>2011-04-24T09:47:58Z</time>
<desc>lat.=22.331007, lon.=103.779724, Alt.=2220.220703m. Speed=1.980000m/h.</desc>
<speed>0.550000</speed>
</trkpt>
<trkpt lat="22.331024" lon="103.779694">
<ele>2219.970703</ele>
<time>2011-04-24T09:48:03Z</time>
<desc>lat.=22.331024, lon.=103.779694, Alt.=2219.970703m. Speed=2.556000m/h.</desc>
<speed>0.710000</speed>
</trkpt>
<trkpt lat="22.331045" lon="103.779655">
<ele>2220.720703</ele>
<time>2011-04-24T09:48:08Z</time>
<desc>lat.=22.331045, lon.=103.779655, Alt.=2220.720703m. Speed=2.808000m/h.</desc>
<speed>0.780000</speed>
</trkpt>
<trkpt lat="22.331064" lon="103.779625">
<ele>2221.658203</ele>
<time>2011-04-24T09:48:13Z</time>
<desc>lat.=22.331064, lon.=103.779625, Alt.=2221.658203m. Speed=1.620000m/h.</desc>
<speed>0.450000</speed>
</trkpt>
<trkpt lat="22.331093" lon="103.779587">
<ele>2220.908203</ele>
<time>2011-04-24T09:48:18Z</time>
<desc>lat.=22.331093, lon.=103.779587, Alt.=2220.908203m. Speed=2.016000m/h.</desc>
<speed>0.560000</speed>
</trkpt>
<trkpt lat="22.331141" lon="103.779572">
<ele>2221.345703</ele>
<time>2011-04-24T09:48:23Z</time>
<desc>lat.=22.331141, lon.=103.779572, Alt.=2221.345703m. Speed=2.268000m/h.</desc>
<speed>0.630000</speed>
</trkpt>
<trkpt lat="22.331165" lon="103.779549">
<ele>2222.283203</ele>
<time>2011-04-24T09:48:28Z</time>
<desc>lat.=22.331165, lon.=103.779549, Alt.=2222.283203m. Speed=2.484000m/h.</desc>
<speed>0.690000</speed>
</trkpt>
<trkpt lat="22.331171" lon="103.779518">
<ele>2222.720703</ele>
<time>2011-04-24T09:48:33Z</time>
<desc>lat.=22.331171, lon.=103.779518, Alt.=2222.720703m. Speed=2.052000m/h.</desc>
<speed>0.570000</speed>
</trkpt>
<trkpt lat="22.331196" lon="103.779488">
<ele>2223.408203</ele>
<time>2011-04-24T09:48:38Z</time>
<desc>lat.=22.331196, lon.=103.779488, Alt.=2223.408203m. Speed=3.024000m/h.</desc>
<speed>0.840000</speed>
</trkpt>
<trkpt lat="22.331245" lon="103.779449">
<ele>2223.033203</ele>
<time>2011-04-24T09:48:43Z</time>
<desc>lat.=22.331245, lon.=103.779449, Alt.=2223.033203m. Speed=2.088000m/h.</desc>
<speed>0.580000</speed>
</trkpt>
<trkpt lat="22.331266" lon="103.779396">
<ele>2223.095703</ele>
<time>2011-04-24T09:48:48Z</time>
<desc>lat.=22.331266, lon.=103.779396, Alt.=2223.095703m. Speed=2.412000m/h.</desc>
<speed>0.670000</speed>
</trkpt>
<trkpt lat="22.331274" lon="103.779373">
<ele>2223.908203</ele>
<time>2011-04-24T09:48:53Z</time>
<desc>lat.=22.331274, lon.=103.779373, Alt.=2223.908203m. Speed=1.908000m/h.</desc>
<speed>0.530000</speed>
</trkpt>
<trkpt lat="22.331285" lon="103.779358">
<ele>2224.595703</ele>
<time>2011-04-24T09:48:58Z</time>
<desc>lat.=22.331285, lon.=103.779358, Alt.=2224.595703m. Speed=2.304000m/h.</desc>
<speed>0.640000</speed>
</trkpt>
<trkpt lat="22.331295" lon="103.779327">
<ele>2225.408203</ele>
<time>2011-04-24T09:49:03Z</time>
<desc>lat.=22.331295, lon.=103.779327, Alt.=2225.408203m. Speed=2.664000m/h.</desc>
<speed>0.740000</speed>
</trkpt>
<trkpt lat="22.331297" lon="103.779289">
<ele>2226.595703</ele>
<time>2011-04-24T09:49:08Z</time>
<desc>lat.=22.331297, lon.=103.779289, Alt.=2226.595703m. Speed=2.304000m/h.</desc>
<speed>0.640000</speed>
</trkpt>
<trkpt lat="22.331339" lon="103.779266">
<ele>2226.845703</ele>
<time>2011-04-24T09:49:13Z</time>
<desc>lat.=22.331339, lon.=103.779266, Alt.=2226.845703m. Speed=1.836000m/h.</desc>
<speed>0.510000</speed>
</trkpt>
<trkpt lat="22.331377" lon="103.779266">
<ele>2227.720703</ele>
<time>2011-04-24T09:49:18Z</time>
<desc>lat.=22.331377, lon.=103.779266, Alt.=2227.720703m. Speed=2.772000m/h.</desc>
<speed>0.770000</speed>
</trkpt>
<trkpt lat="22.331411" lon="103.779243">
<ele>2229.095703</ele>
<time>2011-04-24T09:49:23Z</time>
<desc>lat.=22.331411, lon.=103.779243, Alt.=2229.095703m. Speed=2.808000m/h.</desc>
<speed>0.780000</speed>
</trkpt>
<trkpt lat="22.331484" lon="103.779243">
<ele>2228.595703</ele>
<time>2011-04-24T09:49:28Z</time>
<desc>lat.=22.331484, lon.=103.779243, Alt.=2228.595703m. Speed=3.168000m/h.</desc>
<speed>0.880000</speed>
</trkpt>
<trkpt lat="22.331549" lon="103.779259">
<ele>2227.970703</ele>
<time>2011-04-24T09:49:33Z</time>
<desc>lat.=22.331549, lon.=103.779259, Alt.=2227.970703m. Speed=3.096000m/h.</desc>
<speed>0.860000</speed>
</trkpt>
<trkpt lat="22.331606" lon="103.779236">
<ele>2227.095703</ele>
<time>2011-04-24T09:49:38Z</time>
<desc>lat.=22.331606, lon.=103.779236, Alt.=2227.095703m. Speed=3.168000m/h.</desc>
<speed>0.880000</speed>
</trkpt>
<trkpt lat="22.331659" lon="103.779221">
<ele>2226.408203</ele>
<time>2011-04-24T09:49:43Z</time>
<desc>lat.=22.331659, lon.=103.779221, Alt.=2226.408203m. Speed=3.060000m/h.</desc>
<speed>0.850000</speed>
</trkpt>
<trkpt lat="22.331673" lon="103.779266">
<ele>2223.845703</ele>
<time>2011-04-24T09:49:48Z</time>
<desc>lat.=22.331673, lon.=103.779266, Alt.=2223.845703m. Speed=1.116000m/h.</desc>
<speed>0.310000</speed>
</trkpt>
<trkpt lat="22.331690" lon="103.779251">
<ele>2222.658203</ele>
<time>2011-04-24T09:49:53Z</time>
<desc>lat.=22.331690, lon.=103.779251, Alt.=2222.658203m. Speed=0.756000m/h.</desc>
<speed>0.210000</speed>
</trkpt>
<trkpt lat="22.331717" lon="103.779236">
<ele>2222.720703</ele>
<time>2011-04-24T09:49:58Z</time>
<desc>lat.=22.331717, lon.=103.779236, Alt.=2222.720703m. Speed=1.908000m/h.</desc>
<speed>0.530000</speed>
</trkpt>
<trkpt lat="22.331764" lon="103.779259">
<ele>2222.158203</ele>
<time>2011-04-24T09:50:03Z</time>
<desc>lat.=22.331764, lon.=103.779259, Alt.=2222.158203m. Speed=1.584000m/h.</desc>
<speed>0.440000</speed>
</trkpt>
<trkpt lat="22.331772" lon="103.779251">
<ele>2222.408203</ele>
<time>2011-04-24T09:50:08Z</time>
<desc>lat.=22.331772, lon.=103.779251, Alt.=2222.408203m. Speed=1.368000m/h.</desc>
<speed>0.380000</speed>
</trkpt>
<trkpt lat="22.331785" lon="103.779251">
<ele>2222.158203</ele>
<time>2011-04-24T09:50:13Z</time>
<desc>lat.=22.331785, lon.=103.779251, Alt.=2222.158203m. Speed=0.972000m/h.</desc>
<speed>0.270000</speed>
</trkpt>
<trkpt lat="22.331829" lon="103.779259">
<ele>2219.595703</ele>
<time>2011-04-24T09:50:18Z</time>
<desc>lat.=22.331829, lon.=103.779259, Alt.=2219.595703m. Speed=2.880000m/h.</desc>
<speed>0.800000</speed>
</trkpt>
<trkpt lat="22.331877" lon="103.779236">
<ele>2218.595703</ele>
<time>2011-04-24T09:50:23Z</time>
<desc>lat.=22.331877, lon.=103.779236, Alt.=2218.595703m. Speed=2.088000m/h.</desc>
<speed>0.580000</speed>
</trkpt>
<trkpt lat="22.331921" lon="103.779236">
<ele>2217.595703</ele>
<time>2011-04-24T09:50:28Z</time>
<desc>lat.=22.331921, lon.=103.779236, Alt.=2217.595703m. Speed=2.340000m/h.</desc>
<speed>0.650000</speed>
</trkpt>
<trkpt lat="22.331944" lon="103.779266">
<ele>2216.533203</ele>
<time>2011-04-24T09:50:33Z</time>
<desc>lat.=22.331944, lon.=103.779266, Alt.=2216.533203m. Speed=0.684000m/h.</desc>
<speed>0.190000</speed>
</trkpt>
<trkpt lat="22.331963" lon="103.779274">
<ele>2215.470703</ele>
<time>2011-04-24T09:50:38Z</time>
<desc>lat.=22.331963, lon.=103.779274, Alt.=2215.470703m. Speed=1.008000m/h.</desc>
<speed>0.280000</speed>
</trkpt>
<trkpt lat="22.331982" lon="103.779259">
<ele>2215.220703</ele>
<time>2011-04-24T09:50:43Z</time>
<desc>lat.=22.331982, lon.=103.779259, Alt.=2215.220703m. Speed=1.224000m/h.</desc>
<speed>0.340000</speed>
</trkpt>
<trkpt lat="22.331976" lon="103.779259">
<ele>2214.845703</ele>
<time>2011-04-24T09:50:48Z</time>
<desc>lat.=22.331976, lon.=103.779259, Alt.=2214.845703m. Speed=0.468000m/h.</desc>
<speed>0.130000</speed>
</trkpt>
<trkpt lat="22.331978" lon="103.779259">
<ele>2214.970703</ele>
<time>2011-04-24T09:50:53Z</time>
<desc>lat.=22.331978, lon.=103.779259, Alt.=2214.970703m. Speed=0.072000m/h.</desc>
<speed>0.020000</speed>
</trkpt>
<trkpt lat="22.331980" lon="103.779259">
<ele>2215.033203</ele>
<time>2011-04-24T09:50:58Z</time>
<desc>lat.=22.331980, lon.=103.779259, Alt.=2215.033203m. Speed=0.540000m/h.</desc>
<speed>0.150000</speed>
</trkpt>
<trkpt lat="22.331989" lon="103.779259">
<ele>2214.970703</ele>
<time>2011-04-24T09:51:03Z</time>
<desc>lat.=22.331989, lon.=103.779259, Alt.=2214.970703m. Speed=2.268000m/h.</desc>
<speed>0.630000</speed>
</trkpt>
<trkpt lat="22.332029" lon="103.779243">
<ele>2213.033203</ele>
<time>2011-04-24T09:51:08Z</time>
<desc>lat.=22.332029, lon.=103.779243, Alt.=2213.033203m. Speed=0.792000m/h.</desc>
<speed>0.220000</speed>
</trkpt>
<trkpt lat="22.332047" lon="103.779251">
<ele>2211.845703</ele>
<time>2011-04-24T09:51:13Z</time>
<desc>lat.=22.332047, lon.=103.779251, Alt.=2211.845703m. Speed=1.260000m/h.</desc>
<speed>0.350000</speed>
</trkpt>
<trkpt lat="22.332090" lon="103.779243">
<ele>2210.783203</ele>
<time>2011-04-24T09:51:18Z</time>
<desc>lat.=22.332090, lon.=103.779243, Alt.=2210.783203m. Speed=3.168000m/h.</desc>
<speed>0.880000</speed>
</trkpt>
<trkpt lat="22.332129" lon="103.779251">
<ele>2211.158203</ele>
<time>2011-04-24T09:51:23Z</time>
<desc>lat.=22.332129, lon.=103.779251, Alt.=2211.158203m. Speed=1.944000m/h.</desc>
<speed>0.540000</speed>
</trkpt>
<trkpt lat="22.332151" lon="103.779236">
<ele>2210.970703</ele>
<time>2011-04-24T09:51:28Z</time>
<desc>lat.=22.332151, lon.=103.779236, Alt.=2210.970703m. Speed=1.548000m/h.</desc>
<speed>0.430000</speed>
</trkpt>
<trkpt lat="22.332148" lon="103.779213">
<ele>2209.845703</ele>
<time>2011-04-24T09:51:33Z</time>
<desc>lat.=22.332148, lon.=103.779213, Alt.=2209.845703m. Speed=2.052000m/h.</desc>
<speed>0.570000</speed>
</trkpt>
<trkpt lat="22.332165" lon="103.779213">
<ele>2210.158203</ele>
<time>2011-04-24T09:51:38Z</time>
<desc>lat.=22.332165, lon.=103.779213, Alt.=2210.158203m. Speed=1.728000m/h.</desc>
<speed>0.480000</speed>
</trkpt>
<trkpt lat="22.332169" lon="103.779228">
<ele>2209.908203</ele>
<time>2011-04-24T09:51:43Z</time>
<desc>lat.=22.332169, lon.=103.779228, Alt.=2209.908203m. Speed=0.540000m/h.</desc>
<speed>0.150000</speed>
</trkpt>
<trkpt lat="22.332218" lon="103.779198">
<ele>2208.345703</ele>
<time>2011-04-24T09:51:48Z</time>
<desc>lat.=22.332218, lon.=103.779198, Alt.=2208.345703m. Speed=2.628000m/h.</desc>
<speed>0.730000</speed>
</trkpt>
<trkpt lat="22.332270" lon="103.779205">
<ele>2206.095703</ele>
<time>2011-04-24T09:51:53Z</time>
<desc>lat.=22.332270, lon.=103.779205, Alt.=2206.095703m. Speed=2.772000m/h.</desc>
<speed>0.770000</speed>
</trkpt>
<trkpt lat="22.332335" lon="103.779198">
<ele>2203.658203</ele>
<time>2011-04-24T09:51:58Z</time>
<desc>lat.=22.332335, lon.=103.779198, Alt.=2203.658203m. Speed=3.060000m/h.</desc>
<speed>0.850000</speed>
</trkpt>
<trkpt lat="22.332357" lon="103.779182">
<ele>2202.095703</ele>
<time>2011-04-24T09:52:03Z</time>
<desc>lat.=22.332357, lon.=103.779182, Alt.=2202.095703m. Speed=2.088000m/h.</desc>
<speed>0.580000</speed>
</trkpt>
<trkpt lat="22.332392" lon="103.779167">
<ele>2201.095703</ele>
<time>2011-04-24T09:52:08Z</time>
<desc>lat.=22.332392, lon.=103.779167, Alt.=2201.095703m. Speed=1.980000m/h.</desc>
<speed>0.550000</speed>
</trkpt>
<trkpt lat="22.332434" lon="103.779175">
<ele>2200.033203</ele>
<time>2011-04-24T09:52:13Z</time>
<desc>lat.=22.332434, lon.=103.779175, Alt.=2200.033203m. Speed=3.240000m/h.</desc>
<speed>0.900000</speed>
</trkpt>
<trkpt lat="22.332455" lon="103.779182">
<ele>2199.470703</ele>
<time>2011-04-24T09:52:18Z</time>
<desc>lat.=22.332455, lon.=103.779182, Alt.=2199.470703m. Speed=1.476000m/h.</desc>
<speed>0.410000</speed>
</trkpt>
<trkpt lat="22.332495" lon="103.779175">
<ele>2199.158203</ele>
<time>2011-04-24T09:52:23Z</time>
<desc>lat.=22.332495, lon.=103.779175, Alt.=2199.158203m. Speed=3.780000m/h.</desc>
<speed>1.050000</speed>
</trkpt>
<trkpt lat="22.332523" lon="103.779182">
<ele>2199.283203</ele>
<time>2011-04-24T09:52:28Z</time>
<desc>lat.=22.332523, lon.=103.779182, Alt.=2199.283203m. Speed=1.404000m/h.</desc>
<speed>0.390000</speed>
</trkpt>
<trkpt lat="22.332556" lon="103.779175">
<ele>2198.533203</ele>
<time>2011-04-24T09:52:33Z</time>
<desc>lat.=22.332556, lon.=103.779175, Alt.=2198.533203m. Speed=1.224000m/h.</desc>
<speed>0.340000</speed>
</trkpt>
<trkpt lat="22.332586" lon="103.779182">
<ele>2197.845703</ele>
<time>2011-04-24T09:52:38Z</time>
<desc>lat.=22.332586, lon.=103.779182, Alt.=2197.845703m. Speed=2.232000m/h.</desc>
<speed>0.620000</speed>
</trkpt>
<trkpt lat="22.332607" lon="103.779152">
<ele>2196.845703</ele>
<time>2011-04-24T09:52:43Z</time>
<desc>lat.=22.332607, lon.=103.779152, Alt.=2196.845703m. Speed=3.600000m/h.</desc>
<speed>1.000000</speed>
</trkpt>
<trkpt lat="22.332670" lon="103.779129">
<ele>2195.595703</ele>
<time>2011-04-24T09:52:48Z</time>
<desc>lat.=22.332670, lon.=103.779129, Alt.=2195.595703m. Speed=3.060000m/h.</desc>
<speed>0.850000</speed>
</trkpt>
<trkpt lat="22.332714" lon="103.779144">
<ele>2193.970703</ele>
<time>2011-04-24T09:52:53Z</time>
<desc>lat.=22.332714, lon.=103.779144, Alt.=2193.970703m. Speed=1.440000m/h.</desc>
<speed>0.400000</speed>
</trkpt>
<trkpt lat="22.332745" lon="103.779137">
<ele>2192.408203</ele>
<time>2011-04-24T09:52:58Z</time>
<desc>lat.=22.332745, lon.=103.779137, Alt.=2192.408203m. Speed=0.972000m/h.</desc>
<speed>0.270000</speed>
</trkpt>
<trkpt lat="22.332758" lon="103.779129">
<ele>2191.095703</ele>
<time>2011-04-24T09:53:03Z</time>
<desc>lat.=22.332758, lon.=103.779129, Alt.=2191.095703m. Speed=2.052000m/h.</desc>
<speed>0.570000</speed>
</trkpt>
<trkpt lat="22.332783" lon="103.779129">
<ele>2191.033203</ele>
<time>2011-04-24T09:53:08Z</time>
<desc>lat.=22.332783, lon.=103.779129, Alt.=2191.033203m. Speed=2.376000m/h.</desc>
<speed>0.660000</speed>
</trkpt>
<trkpt lat="22.332827" lon="103.779144">
<ele>2191.908203</ele>
<time>2011-04-24T09:53:13Z</time>
<desc>lat.=22.332827, lon.=103.779144, Alt.=2191.908203m. Speed=2.484000m/h.</desc>
<speed>0.690000</speed>
</trkpt>
<trkpt lat="22.332867" lon="103.779167">
<ele>2193.345703</ele>
<time>2011-04-24T09:53:18Z</time>
<desc>lat.=22.332867, lon.=103.779167, Alt.=2193.345703m. Speed=3.132000m/h.</desc>
<speed>0.870000</speed>
</trkpt>
<trkpt lat="22.332893" lon="103.779182">
<ele>2193.658203</ele>
<time>2011-04-24T09:53:23Z</time>
<desc>lat.=22.332893, lon.=103.779182, Alt.=2193.658203m. Speed=1.728000m/h.</desc>
<speed>0.480000</speed>
</trkpt>
<trkpt lat="22.332914" lon="103.779205">
<ele>2192.095703</ele>
<time>2011-04-24T09:53:28Z</time>
<desc>lat.=22.332914, lon.=103.779205, Alt.=2192.095703m. Speed=2.664000m/h.</desc>
<speed>0.740000</speed>
</trkpt>
<trkpt lat="22.332945" lon="103.779228">
<ele>2192.158203</ele>
<time>2011-04-24T09:53:33Z</time>
<desc>lat.=22.332945, lon.=103.779228, Alt.=2192.158203m. Speed=1.296000m/h.</desc>
<speed>0.360000</speed>
</trkpt>
<trkpt lat="22.332977" lon="103.779251">
<ele>2191.408203</ele>
<time>2011-04-24T09:53:38Z</time>
<desc>lat.=22.332977, lon.=103.779251, Alt.=2191.408203m. Speed=1.440000m/h.</desc>
<speed>0.400000</speed>
</trkpt>
<trkpt lat="22.333025" lon="103.779297">
<ele>2190.220703</ele>
<time>2011-04-24T09:53:43Z</time>
<desc>lat.=22.333025, lon.=103.779297, Alt.=2190.220703m. Speed=5.328000m/h.</desc>
<speed>1.480000</speed>
</trkpt>
<trkpt lat="22.333075" lon="103.779343">
<ele>2189.408203</ele>
<time>2011-04-24T09:53:48Z</time>
<desc>lat.=22.333075, lon.=103.779343, Alt.=2189.408203m. Speed=4.068000m/h.</desc>
<speed>1.130000</speed>
</trkpt>
<trkpt lat="22.333111" lon="103.779381">
<ele>2186.470703</ele>
<time>2011-04-24T09:53:53Z</time>
<desc>lat.=22.333111, lon.=103.779381, Alt.=2186.470703m. Speed=4.104000m/h.</desc>
<speed>1.140000</speed>
</trkpt>
<trkpt lat="22.333157" lon="103.779434">
<ele>2183.783203</ele>
<time>2011-04-24T09:53:58Z</time>
<desc>lat.=22.333157, lon.=103.779434, Alt.=2183.783203m. Speed=4.752000m/h.</desc>
<speed>1.320000</speed>
</trkpt>
<trkpt lat="22.333189" lon="103.779457">
<ele>2182.783203</ele>
<time>2011-04-24T09:54:03Z</time>
<desc>lat.=22.333189, lon.=103.779457, Alt.=2182.783203m. Speed=3.780000m/h.</desc>
<speed>1.050000</speed>
</trkpt>
<trkpt lat="22.333227" lon="103.779465">
<ele>2181.408203</ele>
<time>2011-04-24T09:54:08Z</time>
<desc>lat.=22.333227, lon.=103.779465, Alt.=2181.408203m. Speed=4.824000m/h.</desc>
<speed>1.340000</speed>
</trkpt>
<trkpt lat="22.333269" lon="103.779495">
<ele>2180.533203</ele>
<time>2011-04-24T09:54:13Z</time>
<desc>lat.=22.333269, lon.=103.779495, Alt.=2180.533203m. Speed=4.464000m/h.</desc>
<speed>1.240000</speed>
</trkpt>
<trkpt lat="22.333319" lon="103.779526">
<ele>2178.908203</ele>
<time>2011-04-24T09:54:18Z</time>
<desc>lat.=22.333319, lon.=103.779526, Alt.=2178.908203m. Speed=4.212000m/h.</desc>
<speed>1.170000</speed>
</trkpt>
<trkpt lat="22.333361" lon="103.779556">
<ele>2177.220703</ele>
<time>2011-04-24T09:54:23Z</time>
<desc>lat.=22.333361, lon.=103.779556, Alt.=2177.220703m. Speed=3.348000m/h.</desc>
<speed>0.930000</speed>
</trkpt>
<trkpt lat="22.333389" lon="103.779602">
<ele>2175.658203</ele>
<time>2011-04-24T09:54:28Z</time>
<desc>lat.=22.333389, lon.=103.779602, Alt.=2175.658203m. Speed=4.680000m/h.</desc>
<speed>1.300000</speed>
</trkpt>
<trkpt lat="22.333433" lon="103.779602">
<ele>2174.158203</ele>
<time>2011-04-24T09:54:33Z</time>
<desc>lat.=22.333433, lon.=103.779602, Alt.=2174.158203m. Speed=4.968000m/h.</desc>
<speed>1.380000</speed>
</trkpt>
<trkpt lat="22.333487" lon="103.779610">
<ele>2172.595703</ele>
<time>2011-04-24T09:54:38Z</time>
<desc>lat.=22.333487, lon.=103.779610, Alt.=2172.595703m. Speed=4.032000m/h.</desc>
<speed>1.120000</speed>
</trkpt>
<trkpt lat="22.333529" lon="103.779625">
<ele>2172.033203</ele>
<time>2011-04-24T09:54:43Z</time>
<desc>lat.=22.333529, lon.=103.779625, Alt.=2172.033203m. Speed=0.936000m/h.</desc>
<speed>0.260000</speed>
</trkpt>
<trkpt lat="22.333549" lon="103.779648">
<ele>2170.408203</ele>
<time>2011-04-24T09:54:48Z</time>
<desc>lat.=22.333549, lon.=103.779648, Alt.=2170.408203m. Speed=1.440000m/h.</desc>
<speed>0.400000</speed>
</trkpt>
<trkpt lat="22.333570" lon="103.779655">
<ele>2168.970703</ele>
<time>2011-04-24T09:54:53Z</time>
<desc>lat.=22.333570, lon.=103.779655, Alt.=2168.970703m. Speed=2.700000m/h.</desc>
<speed>0.750000</speed>
</trkpt>
<trkpt lat="22.333593" lon="103.779663">
<ele>2167.845703</ele>
<time>2011-04-24T09:54:58Z</time>
<desc>lat.=22.333593, lon.=103.779663, Alt.=2167.845703m. Speed=1.728000m/h.</desc>
<speed>0.480000</speed>
</trkpt>
<trkpt lat="22.333595" lon="103.779663">
<ele>2167.533203</ele>
<time>2011-04-24T09:55:03Z</time>
<desc>lat.=22.333595, lon.=103.779663, Alt.=2167.533203m. Speed=1.008000m/h.</desc>
<speed>0.280000</speed>
</trkpt>
<trkpt lat="22.333620" lon="103.779671">
<ele>2167.033203</ele>
<time>2011-04-24T09:55:08Z</time>
<desc>lat.=22.333620, lon.=103.779671, Alt.=2167.033203m. Speed=2.232000m/h.</desc>
<speed>0.620000</speed>
</trkpt>
<trkpt lat="22.333637" lon="103.779694">
<ele>2165.595703</ele>
<time>2011-04-24T09:55:13Z</time>
<desc>lat.=22.333637, lon.=103.779694, Alt.=2165.595703m. Speed=0.828000m/h.</desc>
<speed>0.230000</speed>
</trkpt>
<trkpt lat="22.333647" lon="103.779709">
<ele>2164.845703</ele>
<time>2011-04-24T09:55:18Z</time>
<desc>lat.=22.333647, lon.=103.779709, Alt.=2164.845703m. Speed=1.476000m/h.</desc>
<speed>0.410000</speed>
</trkpt>
<trkpt lat="22.333656" lon="103.779716">
<ele>2163.595703</ele>
<time>2011-04-24T09:55:23Z</time>
<desc>lat.=22.333656, lon.=103.779716, Alt.=2163.595703m. Speed=1.080000m/h.</desc>
<speed>0.300000</speed>
</trkpt>
<trkpt lat="22.333662" lon="103.779724">
<ele>2163.033203</ele>
<time>2011-04-24T09:55:28Z</time>
<desc>lat.=22.333662, lon.=103.779724, Alt.=2163.033203m. Speed=0.180000m/h.</desc>
<speed>0.050000</speed>
</trkpt>
<trkpt lat="22.333662" lon="103.779732">
<ele>2162.783203</ele>
<time>2011-04-24T09:55:33Z</time>
<desc>lat.=22.333662, lon.=103.779732, Alt.=2162.783203m. Speed=1.584000m/h.</desc>
<speed>0.440000</speed>
</trkpt>
<trkpt lat="22.333668" lon="103.779739">
<ele>2162.533203</ele>
<time>2011-04-24T09:55:38Z</time>
<desc>lat.=22.333668, lon.=103.779739, Alt.=2162.533203m. Speed=1.692000m/h.</desc>
<speed>0.470000</speed>
</trkpt>
<trkpt lat="22.333691" lon="103.779762">
<ele>2161.783203</ele>
<time>2011-04-24T09:55:43Z</time>
<desc>lat.=22.333691, lon.=103.779762, Alt.=2161.783203m. Speed=5.004000m/h.</desc>
<speed>1.390000</speed>
</trkpt>
<trkpt lat="22.333719" lon="103.779808">
<ele>2161.845703</ele>
<time>2011-04-24T09:55:48Z</time>
<desc>lat.=22.333719, lon.=103.779808, Alt.=2161.845703m. Speed=5.112000m/h.</desc>
<speed>1.420000</speed>
</trkpt>
<trkpt lat="22.333748" lon="103.779854">
<ele>2162.158203</ele>
<time>2011-04-24T09:55:53Z</time>
<desc>lat.=22.333748, lon.=103.779854, Alt.=2162.158203m. Speed=2.952000m/h.</desc>
<speed>0.820000</speed>
</trkpt>
<trkpt lat="22.333761" lon="103.779877">
<ele>2161.845703</ele>
<time>2011-04-24T09:55:58Z</time>
<desc>lat.=22.333761, lon.=103.779877, Alt.=2161.845703m. Speed=0.684000m/h.</desc>
<speed>0.190000</speed>
</trkpt>
<trkpt lat="22.333775" lon="103.779884">
<ele>2161.908203</ele>
<time>2011-04-24T09:56:03Z</time>
<desc>lat.=22.333775, lon.=103.779884, Alt.=2161.908203m. Speed=1.584000m/h.</desc>
<speed>0.440000</speed>
</trkpt>
<trkpt lat="22.333782" lon="103.779884">
<ele>2161.220703</ele>
<time>2011-04-24T09:56:08Z</time>
<desc>lat.=22.333782, lon.=103.779884, Alt.=2161.220703m. Speed=0.288000m/h.</desc>
<speed>0.080000</speed>
</trkpt>
<trkpt lat="22.333780" lon="103.779884">
<ele>2161.158203</ele>
<time>2011-04-24T09:56:13Z</time>
<desc>lat.=22.333780, lon.=103.779884, Alt.=2161.158203m. Speed=0.072000m/h.</desc>
<speed>0.020000</speed>
</trkpt>
<trkpt lat="22.333786" lon="103.779884">
<ele>2160.845703</ele>
<time>2011-04-24T09:56:18Z</time>
<desc>lat.=22.333786, lon.=103.779884, Alt.=2160.845703m. Speed=0.288000m/h.</desc>
<speed>0.080000</speed>
</trkpt>
<trkpt lat="22.333780" lon="103.779900">
<ele>2159.533203</ele>
<time>2011-04-24T09:56:23Z</time>
<desc>lat.=22.333780, lon.=103.779900, Alt.=2159.533203m. Speed=2.052000m/h.</desc>
<speed>0.570000</speed>
</trkpt>
<trkpt lat="22.333790" lon="103.779907">
<ele>2158.595703</ele>
<time>2011-04-24T09:56:28Z</time>
<desc>lat.=22.333790, lon.=103.779907, Alt.=2158.595703m. Speed=1.152000m/h.</desc>
<speed>0.320000</speed>
</trkpt>
<trkpt lat="22.333788" lon="103.779922">
<ele>2157.783203</ele>
<time>2011-04-24T09:56:33Z</time>
<desc>lat.=22.333788, lon.=103.779922, Alt.=2157.783203m. Speed=0.720000m/h.</desc>
<speed>0.200000</speed>
</trkpt>
<trkpt lat="22.333797" lon="103.779922">
<ele>2157.220703</ele>
<time>2011-04-24T09:56:38Z</time>
<desc>lat.=22.333797, lon.=103.779922, Alt.=2157.220703m. Speed=0.540000m/h.</desc>
<speed>0.150000</speed>
</trkpt>
<trkpt lat="22.333805" lon="103.779930">
<ele>2156.533203</ele>
<time>2011-04-24T09:56:43Z</time>
<desc>lat.=22.333805, lon.=103.779930, Alt.=2156.533203m. Speed=0.756000m/h.</desc>
<speed>0.210000</speed>
</trkpt>
<trkpt lat="22.333809" lon="103.779938">
<ele>2156.283203</ele>
<time>2011-04-24T09:56:48Z</time>
<desc>lat.=22.333809, lon.=103.779938, Alt.=2156.283203m. Speed=0.324000m/h.</desc>
<speed>0.090000</speed>
</trkpt>
<trkpt lat="22.333820" lon="103.779945">
<ele>2155.470703</ele>
<time>2011-04-24T09:56:53Z</time>
<desc>lat.=22.333820, lon.=103.779945, Alt.=2155.470703m. Speed=4.140000m/h.</desc>
<speed>1.150000</speed>
</trkpt>
<trkpt lat="22.333872" lon="103.779953">
<ele>2155.533203</ele>
<time>2011-04-24T09:56:58Z</time>
<desc>lat.=22.333872, lon.=103.779953, Alt.=2155.533203m. Speed=2.448000m/h.</desc>
<speed>0.680000</speed>
</trkpt>
<trkpt lat="22.333889" lon="103.779945">
<ele>2156.408203</ele>
<time>2011-04-24T09:57:03Z</time>
<desc>lat.=22.333889, lon.=103.779945, Alt.=2156.408203m. Speed=1.728000m/h.</desc>
<speed>0.480000</speed>
</trkpt>
<trkpt lat="22.333895" lon="103.779930">
<ele>2156.720703</ele>
<time>2011-04-24T09:57:08Z</time>
<desc>lat.=22.333895, lon.=103.779930, Alt.=2156.720703m. Speed=3.744000m/h.</desc>
<speed>1.040000</speed>
</trkpt>
<trkpt lat="22.333878" lon="103.779922">
<ele>2157.220703</ele>
<time>2011-04-24T09:57:13Z</time>
<desc>lat.=22.333878, lon.=103.779922, Alt.=2157.220703m. Speed=1.080000m/h.</desc>
<speed>0.300000</speed>
</trkpt>
<trkpt lat="22.333878" lon="103.779907">
<ele>2157.158203</ele>
<time>2011-04-24T09:57:18Z</time>
<desc>lat.=22.333878, lon.=103.779907, Alt.=2157.158203m. Speed=1.836000m/h.</desc>
<speed>0.510000</speed>
</trkpt>
<trkpt lat="22.333881" lon="103.779900">
<ele>2157.095703</ele>
<time>2011-04-24T09:57:23Z</time>
<desc>lat.=22.333881, lon.=103.779900, Alt.=2157.095703m. Speed=0.792000m/h.</desc>
<speed>0.220000</speed>
</trkpt>
<trkpt lat="22.333883" lon="103.779884">
<ele>2156.908203</ele>
<time>2011-04-24T09:57:28Z</time>
<desc>lat.=22.333883, lon.=103.779884, Alt.=2156.908203m. Speed=0.648000m/h.</desc>
<speed>0.180000</speed>
</trkpt>
<trkpt lat="22.333904" lon="103.779877">
<ele>2156.845703</ele>
<time>2011-04-24T09:57:33Z</time>
<desc>lat.=22.333904, lon.=103.779877, Alt.=2156.845703m. Speed=1.980000m/h.</desc>
<speed>0.550000</speed>
</trkpt>
<trkpt lat="22.333933" lon="103.779861">
<ele>2156.095703</ele>
<time>2011-04-24T09:57:38Z</time>
<desc>lat.=22.333933, lon.=103.779861, Alt.=2156.095703m. Speed=2.340000m/h.</desc>
<speed>0.650000</speed>
</trkpt>
<trkpt lat="22.333941" lon="103.779854">
<ele>2155.533203</ele>
<time>2011-04-24T09:57:43Z</time>
<desc>lat.=22.333941, lon.=103.779854, Alt.=2155.533203m. Speed=0.252000m/h.</desc>
<speed>0.070000</speed>
</trkpt>
<trkpt lat="22.333942" lon="103.779846">
<ele>2155.845703</ele>
<time>2011-04-24T09:57:48Z</time>
<desc>lat.=22.333942, lon.=103.779846, Alt.=2155.845703m. Speed=0.216000m/h.</desc>
<speed>0.060000</speed>
</trkpt>
<trkpt lat="22.333952" lon="103.779839">
<ele>2155.408203</ele>
<time>2011-04-24T09:57:53Z</time>
<desc>lat.=22.333952, lon.=103.779839, Alt.=2155.408203m. Speed=0.252000m/h.</desc>
<speed>0.070000</speed>
</trkpt>
<trkpt lat="22.333950" lon="103.779839">
<ele>2155.720703</ele>
<time>2011-04-24T09:57:58Z</time>
<desc>lat.=22.333950, lon.=103.779839, Alt.=2155.720703m. Speed=1.512000m/h.</desc>
<speed>0.420000</speed>
</trkpt>
<trkpt lat="22.333963" lon="103.779831">
<ele>2154.345703</ele>
<time>2011-04-24T09:58:03Z</time>
<desc>lat.=22.333963, lon.=103.779831, Alt.=2154.345703m. Speed=0.612000m/h.</desc>
<speed>0.170000</speed>
</trkpt>
<trkpt lat="22.333975" lon="103.779831">
<ele>2154.158203</ele>
<time>2011-04-24T09:58:08Z</time>
<desc>lat.=22.333975, lon.=103.779831, Alt.=2154.158203m. Speed=0.972000m/h.</desc>
<speed>0.270000</speed>
</trkpt>
<trkpt lat="22.333986" lon="103.779839">
<ele>2152.908203</ele>
<time>2011-04-24T09:58:13Z</time>
<desc>lat.=22.333986, lon.=103.779839, Alt.=2152.908203m. Speed=2.952000m/h.</desc>
<speed>0.820000</speed>
</trkpt>
<trkpt lat="22.333988" lon="103.779839">
<ele>2152.720703</ele>
<time>2011-04-24T09:58:18Z</time>
<desc>lat.=22.333988, lon.=103.779839, Alt.=2152.720703m. Speed=0.324000m/h.</desc>
<speed>0.090000</speed>
</trkpt>
<trkpt lat="22.333990" lon="103.779831">
<ele>2152.720703</ele>
<time>2011-04-24T09:58:23Z</time>
<desc>lat.=22.333990, lon.=103.779831, Alt.=2152.720703m. Speed=0.396000m/h.</desc>
<speed>0.110000</speed>
</trkpt>
<trkpt lat="22.333998" lon="103.779831">
<ele>2152.595703</ele>
<time>2011-04-24T09:58:28Z</time>
<desc>lat.=22.333998, lon.=103.779831, Alt.=2152.595703m. Speed=1.728000m/h.</desc>
<speed>0.480000</speed>
</trkpt>
<trkpt lat="22.334023" lon="103.779831">
<ele>2151.533203</ele>
<time>2011-04-24T09:58:33Z</time>
<desc>lat.=22.334023, lon.=103.779831, Alt.=2151.533203m. Speed=2.340000m/h.</desc>
<speed>0.650000</speed>
</trkpt>
<trkpt lat="22.334042" lon="103.779831">
<ele>2151.720703</ele>
<time>2011-04-24T09:58:38Z</time>
<desc>lat.=22.334042, lon.=103.779831, Alt.=2151.720703m. Speed=1.476000m/h.</desc>
<speed>0.410000</speed>
</trkpt>
<trkpt lat="22.334064" lon="103.779823">
<ele>2151.595703</ele>
<time>2011-04-24T09:58:43Z</time>
<desc>lat.=22.334064, lon.=103.779823, Alt.=2151.595703m. Speed=1.764000m/h.</desc>
<speed>0.490000</speed>
</trkpt>
<trkpt lat="22.334087" lon="103.779839">
<ele>2150.845703</ele>
<time>2011-04-24T09:58:48Z</time>
<desc>lat.=22.334087, lon.=103.779839, Alt.=2150.845703m. Speed=1.980000m/h.</desc>
<speed>0.550000</speed>
</trkpt>
<trkpt lat="22.334091" lon="103.779854">
<ele>2149.970703</ele>
<time>2011-04-24T09:58:53Z</time>
<desc>lat.=22.334091, lon.=103.779854, Alt.=2149.970703m. Speed=0.612000m/h.</desc>
<speed>0.170000</speed>
</trkpt>
<trkpt lat="22.334105" lon="103.779839">
<ele>2149.720703</ele>
<time>2011-04-24T09:58:58Z</time>
<desc>lat.=22.334105, lon.=103.779839, Alt.=2149.720703m. Speed=1.908000m/h.</desc>
<speed>0.530000</speed>
</trkpt>
<trkpt lat="22.334112" lon="103.779839">
<ele>2148.158203</ele>
<time>2011-04-24T09:59:03Z</time>
<desc>lat.=22.334112, lon.=103.779839, Alt.=2148.158203m. Speed=0.324000m/h.</desc>
<speed>0.090000</speed>
</trkpt>
<trkpt lat="22.334114" lon="103.779839">
<ele>2147.845703</ele>
<time>2011-04-24T09:59:08Z</time>
<desc>lat.=22.334114, lon.=103.779839, Alt.=2147.845703m. Speed=0.972000m/h.</desc>
<speed>0.270000</speed>
</trkpt>
<trkpt lat="22.334122" lon="103.779823">
<ele>2146.845703</ele>
<time>2011-04-24T09:59:13Z</time>
<desc>lat.=22.334122, lon.=103.779823, Alt.=2146.845703m. Speed=0.036000m/h.</desc>
<speed>0.010000</speed>
</trkpt>
<trkpt lat="22.334124" lon="103.779823">
<ele>2147.033203</ele>
<time>2011-04-24T09:59:18Z</time>
<desc>lat.=22.334124, lon.=103.779823, Alt.=2147.033203m. Speed=1.548000m/h.</desc>
<speed>0.430000</speed>
</trkpt>
<trkpt lat="22.334124" lon="103.779816">
<ele>2145.658203</ele>
<time>2011-04-24T09:59:23Z</time>
<desc>lat.=22.334124, lon.=103.779816, Alt.=2145.658203m. Speed=0.756000m/h.</desc>
<speed>0.210000</speed>
</trkpt>
<trkpt lat="22.334129" lon="103.779808">
<ele>2145.595703</ele>
<time>2011-04-24T09:59:28Z</time>
<desc>lat.=22.334129, lon.=103.779808, Alt.=2145.595703m. Speed=0.432000m/h.</desc>
<speed>0.120000</speed>
</trkpt>
<trkpt lat="22.334146" lon="103.779800">
<ele>2144.408203</ele>
<time>2011-04-24T09:59:33Z</time>
<desc>lat.=22.334146, lon.=103.779800, Alt.=2144.408203m. Speed=0.540000m/h.</desc>
<speed>0.150000</speed>
</trkpt>
<trkpt lat="22.334156" lon="103.779800">
<ele>2143.845703</ele>
<time>2011-04-24T09:59:38Z</time>
<desc>lat.=22.334156, lon.=103.779800, Alt.=2143.845703m. Speed=2.016000m/h.</desc>
<speed>0.560000</speed>
</trkpt>
<trkpt lat="22.334162" lon="103.779785">
<ele>2142.845703</ele>
<time>2011-04-24T09:59:43Z</time>
<desc>lat.=22.334162, lon.=103.779785, Alt.=2142.845703m. Speed=0.576000m/h.</desc>
<speed>0.160000</speed>
</trkpt>
<trkpt lat="22.334169" lon="103.779778">
<ele>2140.220703</ele>
<time>2011-04-24T09:59:48Z</time>
<desc>lat.=22.334169, lon.=103.779778, Alt.=2140.220703m. Speed=2.232000m/h.</desc>
<speed>0.620000</speed>
</trkpt>
<trkpt lat="22.334166" lon="103.779770">
<ele>2139.595703</ele>
<time>2011-04-24T09:59:53Z</time>
<desc>lat.=22.334166, lon.=103.779770, Alt.=2139.595703m. Speed=1.728000m/h.</desc>
<speed>0.480000</speed>
</trkpt>
<trkpt lat="22.334160" lon="103.779762">
<ele>2139.595703</ele>
<time>2011-04-24T09:59:58Z</time>
<desc>lat.=22.334160, lon.=103.779762, Alt.=2139.595703m. Speed=0.936000m/h.</desc>
<speed>0.260000</speed>
</trkpt>
<trkpt lat="22.334171" lon="103.779762">
<ele>2139.033203</ele>
<time>2011-04-24T10:00:03Z</time>
<desc>lat.=22.334171, lon.=103.779762, Alt.=2139.033203m. Speed=0.900000m/h.</desc>
<speed>0.250000</speed>
</trkpt>
<trkpt lat="22.334181" lon="103.779762">
<ele>2138.845703</ele>
<time>2011-04-24T10:00:08Z</time>
<desc>lat.=22.334181, lon.=103.779762, Alt.=2138.845703m. Speed=0.540000m/h.</desc>
<speed>0.150000</speed>
</trkpt>
<trkpt lat="22.334171" lon="103.779755">
<ele>2138.095703</ele>
<time>2011-04-24T10:00:13Z</time>
<desc>lat.=22.334171, lon.=103.779755, Alt.=2138.095703m. Speed=0.504000m/h.</desc>
<speed>0.140000</speed>
</trkpt>
<trkpt lat="22.334171" lon="103.779755">
<ele>2137.408203</ele>
<time>2011-04-24T10:00:18Z</time>
<desc>lat.=22.334171, lon.=103.779755, Alt.=2137.408203m. Speed=0.936000m/h.</desc>
<speed>0.260000</speed>
</trkpt>
<trkpt lat="22.334160" lon="103.779755">
<ele>2137.658203</ele>
<time>2011-04-24T10:00:23Z</time>
<desc>lat.=22.334160, lon.=103.779755, Alt.=2137.658203m. Speed=1.008000m/h.</desc>
<speed>0.280000</speed>
</trkpt>
<trkpt lat="22.334160" lon="103.779755">
<ele>2138.345703</ele>
<time>2011-04-24T10:00:28Z</time>
<desc>lat.=22.334160, lon.=103.779755, Alt.=2138.345703m. Speed=1.836000m/h.</desc>
<speed>0.510000</speed>
</trkpt>
<trkpt lat="22.334158" lon="103.779739">
<ele>2139.345703</ele>
<time>2011-04-24T10:00:33Z</time>
<desc>lat.=22.334158, lon.=103.779739, Alt.=2139.345703m. Speed=1.440000m/h.</desc>
<speed>0.400000</speed>
</trkpt>
<trkpt lat="22.334188" lon="103.779709">
<ele>2140.220703</ele>
<time>2011-04-24T10:00:38Z</time>
<desc>lat.=22.334188, lon.=103.779709, Alt.=2140.220703m. Speed=4.068000m/h.</desc>
<speed>1.130000</speed>
</trkpt>
<trkpt lat="22.334221" lon="103.779694">
<ele>2140.783203</ele>
<time>2011-04-24T10:00:43Z</time>
<desc>lat.=22.334221, lon.=103.779694, Alt.=2140.783203m. Speed=2.160000m/h.</desc>
<speed>0.600000</speed>
</trkpt>
<trkpt lat="22.334229" lon="103.779694">
<ele>2140.283203</ele>
<time>2011-04-24T10:00:48Z</time>
<desc>lat.=22.334229, lon.=103.779694, Alt.=2140.283203m. Speed=0.180000m/h.</desc>
<speed>0.050000</speed>
</trkpt>
<trkpt lat="22.334234" lon="103.779678">
<ele>2139.408203</ele>
<time>2011-04-24T10:00:53Z</time>
<desc>lat.=22.334234, lon.=103.779678, Alt.=2139.408203m. Speed=1.152000m/h.</desc>
<speed>0.320000</speed>
</trkpt>
<trkpt lat="22.334246" lon="103.779678">
<ele>2137.345703</ele>
<time>2011-04-24T10:00:58Z</time>
<desc>lat.=22.334246, lon.=103.779678, Alt.=2137.345703m. Speed=1.152000m/h.</desc>
<speed>0.320000</speed>
</trkpt>
<trkpt lat="22.334261" lon="103.779686">
<ele>2134.908203</ele>
<time>2011-04-24T10:01:03Z</time>
<desc>lat.=22.334261, lon.=103.779686, Alt.=2134.908203m. Speed=1.476000m/h.</desc>
<speed>0.410000</speed>
</trkpt>
<trkpt lat="22.334269" lon="103.779709">
<ele>2133.658203</ele>
<time>2011-04-24T10:01:08Z</time>
<desc>lat.=22.334269, lon.=103.779709, Alt.=2133.658203m. Speed=1.548000m/h.</desc>
<speed>0.430000</speed>
</trkpt>
<trkpt lat="22.334282" lon="103.779716">
<ele>2133.533203</ele>
<time>2011-04-24T10:01:13Z</time>
<desc>lat.=22.334282, lon.=103.779716, Alt.=2133.533203m. Speed=2.916000m/h.</desc>
<speed>0.810000</speed>
</trkpt>
<trkpt lat="22.334320" lon="103.779739">
<ele>2133.345703</ele>
<time>2011-04-24T10:01:18Z</time>
<desc>lat.=22.334320, lon.=103.779739, Alt.=2133.345703m. Speed=2.592000m/h.</desc>
<speed>0.720000</speed>
</trkpt>
<trkpt lat="22.334335" lon="103.779747">
<ele>2131.720703</ele>
<time>2011-04-24T10:01:23Z</time>
<desc>lat.=22.334335, lon.=103.779747, Alt.=2131.720703m. Speed=0.396000m/h.</desc>
<speed>0.110000</speed>
</trkpt>
<trkpt lat="22.334335" lon="103.779739">
<ele>2132.220703</ele>
<time>2011-04-24T10:01:28Z</time>
<desc>lat.=22.334335, lon.=103.779739, Alt.=2132.220703m. Speed=0.216000m/h.</desc>
<speed>0.060000</speed>
</trkpt>
<trkpt lat="22.334360" lon="103.779739">
<ele>2133.158203</ele>
<time>2011-04-24T10:01:33Z</time>
<desc>lat.=22.334360, lon.=103.779739, Alt.=2133.158203m. Speed=2.484000m/h.</desc>
<speed>0.690000</speed>
</trkpt>
<trkpt lat="22.334364" lon="103.779732">
<ele>2133.345703</ele>
<time>2011-04-24T10:01:38Z</time>
<desc>lat.=22.334364, lon.=103.779732, Alt.=2133.345703m. Speed=0.468000m/h.</desc>
<speed>0.130000</speed>
</trkpt>
<trkpt lat="22.334364" lon="103.779732">
<ele>2133.720703</ele>
<time>2011-04-24T10:01:43Z</time>
<desc>lat.=22.334364, lon.=103.779732, Alt.=2133.720703m. Speed=0.108000m/h.</desc>
<speed>0.030000</speed>
</trkpt>
<trkpt lat="22.334377" lon="103.779724">
<ele>2133.158203</ele>
<time>2011-04-24T10:01:48Z</time>
<desc>lat.=22.334377, lon.=103.779724, Alt.=2133.158203m. Speed=2.052000m/h.</desc>
<speed>0.570000</speed>
</trkpt>
<trkpt lat="22.334385" lon="103.779716">
<ele>2132.408203</ele>
<time>2011-04-24T10:01:53Z</time>
<desc>lat.=22.334385, lon.=103.779716, Alt.=2132.408203m. Speed=0.936000m/h.</desc>
<speed>0.260000</speed>
</trkpt>
<trkpt lat="22.334391" lon="103.779709">
<ele>2131.845703</ele>
<time>2011-04-24T10:01:58Z</time>
<desc>lat.=22.334391, lon.=103.779709, Alt.=2131.845703m. Speed=2.448000m/h.</desc>
<speed>0.680000</speed>
</trkpt>
<trkpt lat="22.334393" lon="103.779709">
<ele>2132.220703</ele>
<time>2011-04-24T10:02:03Z</time>
<desc>lat.=22.334393, lon.=103.779709, Alt.=2132.220703m. Speed=0.612000m/h.</desc>
<speed>0.170000</speed>
</trkpt>
<trkpt lat="22.334389" lon="103.779701">
<ele>2132.220703</ele>
<time>2011-04-24T10:02:08Z</time>
<desc>lat.=22.334389, lon.=103.779701, Alt.=2132.220703m. Speed=0.576000m/h.</desc>
<speed>0.160000</speed>
</trkpt>
<trkpt lat="22.334389" lon="103.779686">
<ele>2131.345703</ele>
<time>2011-04-24T10:02:13Z</time>
<desc>lat.=22.334389, lon.=103.779686, Alt.=2131.345703m. Speed=1.620000m/h.</desc>
<speed>0.450000</speed>
</trkpt>
<trkpt lat="22.334400" lon="103.779671">
<ele>2130.845703</ele>
<time>2011-04-24T10:02:18Z</time>
<desc>lat.=22.334400, lon.=103.779671, Alt.=2130.845703m. Speed=0.396000m/h.</desc>
<speed>0.110000</speed>
</trkpt>
<trkpt lat="22.334404" lon="103.779663">
<ele>2130.658203</ele>
<time>2011-04-24T10:02:23Z</time>
<desc>lat.=22.334404, lon.=103.779663, Alt.=2130.658203m. Speed=0.144000m/h.</desc>
<speed>0.040000</speed>
</trkpt>
<trkpt lat="22.334410" lon="103.779663">
<ele>2130.408203</ele>
<time>2011-04-24T10:02:28Z</time>
<desc>lat.=22.334410, lon.=103.779663, Alt.=2130.408203m. Speed=0.612000m/h.</desc>
<speed>0.170000</speed>
</trkpt>
<trkpt lat="22.334425" lon="103.779655">
<ele>2130.345703</ele>
<time>2011-04-24T10:02:33Z</time>
<desc>lat.=22.334425, lon.=103.779655, Alt.=2130.345703m. Speed=2.340000m/h.</desc>
<speed>0.650000</speed>
</trkpt>
<trkpt lat="22.334433" lon="103.779655">
<ele>2129.470703</ele>
<time>2011-04-24T10:02:38Z</time>
<desc>lat.=22.334433, lon.=103.779655, Alt.=2129.470703m. Speed=0.648000m/h.</desc>
<speed>0.180000</speed>
</trkpt>
<trkpt lat="22.334435" lon="103.779663">
<ele>2129.595703</ele>
<time>2011-04-24T10:02:43Z</time>
<desc>lat.=22.334435, lon.=103.779663, Alt.=2129.595703m. Speed=1.152000m/h.</desc>
<speed>0.320000</speed>
</trkpt>
<trkpt lat="22.334436" lon="103.779655">
<ele>2128.595703</ele>
<time>2011-04-24T10:02:48Z</time>
<desc>lat.=22.334436, lon.=103.779655, Alt.=2128.595703m. Speed=0.288000m/h.</desc>
<speed>0.080000</speed>
</trkpt>
<trkpt lat="22.334438" lon="103.779655">
<ele>2128.595703</ele>
<time>2011-04-24T10:02:53Z</time>
<desc>lat.=22.334438, lon.=103.779655, Alt.=2128.595703m. Speed=0.108000m/h.</desc>
<speed>0.030000</speed>
</trkpt>
<trkpt lat="22.334438" lon="103.779655">
<ele>2128.658203</ele>
<time>2011-04-24T10:02:58Z</time>
<desc>lat.=22.334438, lon.=103.779655, Alt.=2128.658203m. Speed=0.864000m/h.</desc>
<speed>0.240000</speed>
</trkpt>
<trkpt lat="22.334455" lon="103.779655">
<ele>2128.283203</ele>
<time>2011-04-24T10:03:03Z</time>
<desc>lat.=22.334455, lon.=103.779655, Alt.=2128.283203m. Speed=0.900000m/h.</desc>
<speed>0.250000</speed>
</trkpt>
<trkpt lat="22.334455" lon="103.779655">
<ele>2127.845703</ele>
<time>2011-04-24T10:03:08Z</time>
<desc>lat.=22.334455, lon.=103.779655, Alt.=2127.845703m. Speed=1.404000m/h.</desc>
<speed>0.390000</speed>
</trkpt>
<trkpt lat="22.334455" lon="103.779640">
<ele>2127.908203</ele>
<time>2011-04-24T10:03:13Z</time>
<desc>lat.=22.334455, lon.=103.779640, Alt.=2127.908203m. Speed=3.096000m/h.</desc>
<speed>0.860000</speed>
</trkpt>
<trkpt lat="22.334450" lon="103.779640">
<ele>2126.283203</ele>
<time>2011-04-24T10:03:18Z</time>
<desc>lat.=22.334450, lon.=103.779640, Alt.=2126.283203m. Speed=0.144000m/h.</desc>
<speed>0.040000</speed>
</trkpt>
<trkpt lat="22.334442" lon="103.779640">
<ele>2125.658203</ele>
<time>2011-04-24T10:03:23Z</time>
<desc>lat.=22.334442, lon.=103.779640, Alt.=2125.658203m. Speed=1.188000m/h.</desc>
<speed>0.330000</speed>
</trkpt>
<trkpt lat="22.334440" lon="103.779625">
<ele>2124.033203</ele>
<time>2011-04-24T10:03:28Z</time>
<desc>lat.=22.334440, lon.=103.779625, Alt.=2124.033203m. Speed=0.720000m/h.</desc>
<speed>0.200000</speed>
</trkpt>
<trkpt lat="22.334450" lon="103.779617">
<ele>2122.970703</ele>
<time>2011-04-24T10:03:33Z</time>
<desc>lat.=22.334450, lon.=103.779617, Alt.=2122.970703m. Speed=1.620000m/h.</desc>
<speed>0.450000</speed>
</trkpt>
<trkpt lat="22.334455" lon="103.779610">
<ele>2122.658203</ele>
<time>2011-04-24T10:03:38Z</time>
<desc>lat.=22.334455, lon.=103.779610, Alt.=2122.658203m. Speed=0.360000m/h.</desc>
<speed>0.100000</speed>
</trkpt>
<trkpt lat="22.334459" lon="103.779587">
<ele>2122.220703</ele>
<time>2011-04-24T10:03:43Z</time>
<desc>lat.=22.334459, lon.=103.779587, Alt.=2122.220703m. Speed=1.116000m/h.</desc>
<speed>0.310000</speed>
</trkpt>
<trkpt lat="22.334457" lon="103.779587">
<ele>2122.345703</ele>
<time>2011-04-24T10:03:48Z</time>
<desc>lat.=22.334457, lon.=103.779587, Alt.=2122.345703m. Speed=0.972000m/h.</desc>
<speed>0.270000</speed>
</trkpt>
<trkpt lat="22.334463" lon="103.779541">
<ele>2121.908203</ele>
<time>2011-04-24T10:03:53Z</time>
<desc>lat.=22.334463, lon.=103.779541, Alt.=2121.908203m. Speed=3.420000m/h.</desc>
<speed>0.950000</speed>
</trkpt>
<trkpt lat="22.334452" lon="103.779533">
<ele>2121.158203</ele>
<time>2011-04-24T10:03:58Z</time>
<desc>lat.=22.334452, lon.=103.779533, Alt.=2121.158203m. Speed=1.512000m/h.</desc>
<speed>0.420000</speed>
</trkpt>
<trkpt lat="22.334442" lon="103.779526">
<ele>2120.345703</ele>
<time>2011-04-24T10:04:03Z</time>
<desc>lat.=22.334442, lon.=103.779526, Alt.=2120.345703m. Speed=0.864000m/h.</desc>
<speed>0.240000</speed>
</trkpt>
<trkpt lat="22.334438" lon="103.779510">
<ele>2120.095703</ele>
<time>2011-04-24T10:04:08Z</time>
<desc>lat.=22.334438, lon.=103.779510, Alt.=2120.095703m. Speed=1.440000m/h.</desc>
<speed>0.400000</speed>
</trkpt>
<trkpt lat="22.334455" lon="103.779495">
<ele>2119.658203</ele>
<time>2011-04-24T10:04:13Z</time>
<desc>lat.=22.334455, lon.=103.779495, Alt.=2119.658203m. Speed=0.720000m/h.</desc>
<speed>0.200000</speed>
</trkpt>
<trkpt lat="22.334459" lon="103.779488">
<ele>2119.783203</ele>
<time>2011-04-24T10:04:18Z</time>
<desc>lat.=22.334459, lon.=103.779488, Alt.=2119.783203m. Speed=1.584000m/h.</desc>
<speed>0.440000</speed>
</trkpt>
<trkpt lat="22.334459" lon="103.779480">
<ele>2119.845703</ele>
<time>2011-04-24T10:04:23Z</time>
<desc>lat.=22.334459, lon.=103.779480, Alt.=2119.845703m. Speed=1.368000m/h.</desc>
<speed>0.380000</speed>
</trkpt>
<trkpt lat="22.334461" lon="103.779465">
<ele>2119.345703</ele>
<time>2011-04-24T10:04:28Z</time>
<desc>lat.=22.334461, lon.=103.779465, Alt.=2119.345703m. Speed=1.440000m/h.</desc>
<speed>0.400000</speed>
</trkpt>
<trkpt lat="22.334461" lon="103.779465">
<ele>2119.533203</ele>
<time>2011-04-24T10:04:33Z</time>
<desc>lat.=22.334461, lon.=103.779465, Alt.=2119.533203m. Speed=1.836000m/h.</desc>
<speed>0.510000</speed>
</trkpt>
<trkpt lat="22.334457" lon="103.779457">
<ele>2118.908203</ele>
<time>2011-04-24T10:04:38Z</time>
<desc>lat.=22.334457, lon.=103.779457, Alt.=2118.908203m. Speed=2.736000m/h.</desc>
<speed>0.760000</speed>
</trkpt>
<trkpt lat="22.334473" lon="103.779449">
<ele>2118.095703</ele>
<time>2011-04-24T10:04:43Z</time>
<desc>lat.=22.334473, lon.=103.779449, Alt.=2118.095703m. Speed=2.304000m/h.</desc>
<speed>0.640000</speed>
</trkpt>
<trkpt lat="22.334484" lon="103.779442">
<ele>2117.658203</ele>
<time>2011-04-24T10:04:48Z</time>
<desc>lat.=22.334484, lon.=103.779442, Alt.=2117.658203m. Speed=1.476000m/h.</desc>
<speed>0.410000</speed>
</trkpt>
<trkpt lat="22.334457" lon="103.779434">
<ele>2118.033203</ele>
<time>2011-04-24T10:04:53Z</time>
<desc>lat.=22.334457, lon.=103.779434, Alt.=2118.033203m. Speed=0.432000m/h.</desc>
<speed>0.120000</speed>
</trkpt>
<trkpt lat="22.334433" lon="103.779442">
<ele>2117.970703</ele>
<time>2011-04-24T10:04:58Z</time>
<desc>lat.=22.334433, lon.=103.779442, Alt.=2117.970703m. Speed=0.792000m/h.</desc>
<speed>0.220000</speed>
</trkpt>
<trkpt lat="22.334415" lon="103.779419">
<ele>2117.595703</ele>
<time>2011-04-24T10:05:03Z</time>
<desc>lat.=22.334415, lon.=103.779419, Alt.=2117.595703m. Speed=0.864000m/h.</desc>
<speed>0.240000</speed>
</trkpt>
<trkpt lat="22.334375" lon="103.779396">
<ele>2117.033203</ele>
<time>2011-04-24T10:05:08Z</time>
<desc>lat.=22.334375, lon.=103.779396, Alt.=2117.033203m. Speed=1.692000m/h.</desc>
<speed>0.470000</speed>
</trkpt>
<trkpt lat="22.334352" lon="103.779373">
<ele>2116.783203</ele>
<time>2011-04-24T10:05:13Z</time>
<desc>lat.=22.334352, lon.=103.779373, Alt.=2116.783203m. Speed=0.432000m/h.</desc>
<speed>0.120000</speed>
</trkpt>
<trkpt lat="22.334337" lon="103.779381">
<ele>2116.908203</ele>
<time>2011-04-24T10:05:18Z</time>
<desc>lat.=22.334337, lon.=103.779381, Alt.=2116.908203m. Speed=1.080000m/h.</desc>
<speed>0.300000</speed>
</trkpt>
<trkpt lat="22.334333" lon="103.779358">
<ele>2116.908203</ele>
<time>2011-04-24T10:05:23Z</time>
<desc>lat.=22.334333, lon.=103.779358, Alt.=2116.908203m. Speed=0.972000m/h.</desc>
<speed>0.270000</speed>
</trkpt>
<trkpt lat="22.334312" lon="103.779358">
<ele>2116.345703</ele>
<time>2011-04-24T10:05:28Z</time>
<desc>lat.=22.334312, lon.=103.779358, Alt.=2116.345703m. Speed=0.468000m/h.</desc>
<speed>0.130000</speed>
</trkpt>
<trkpt lat="22.334311" lon="103.779350">
<ele>2115.720703</ele>
<time>2011-04-24T10:05:33Z</time>
<desc>lat.=22.334311, lon.=103.779350, Alt.=2115.720703m. Speed=0.684000m/h.</desc>
<speed>0.190000</speed>
</trkpt>
<trkpt lat="22.334301" lon="103.779343">
<ele>2115.283203</ele>
<time>2011-04-24T10:05:38Z</time>
<desc>lat.=22.334301, lon.=103.779343, Alt.=2115.283203m. Speed=0.756000m/h.</desc>
<speed>0.210000</speed>
</trkpt>
<trkpt lat="22.334290" lon="103.779343">
<ele>2114.783203</ele>
<time>2011-04-24T10:05:43Z</time>
<desc>lat.=22.334290, lon.=103.779343, Alt.=2114.783203m. Speed=1.476000m/h.</desc>
<speed>0.410000</speed>
</trkpt>
<trkpt lat="22.334305" lon="103.779305">
<ele>2114.283203</ele>
<time>2011-04-24T10:05:48Z</time>
<desc>lat.=22.334305, lon.=103.779305, Alt.=2114.283203m. Speed=0.756000m/h.</desc>
<speed>0.210000</speed>
</trkpt>
<trkpt lat="22.334278" lon="103.779297">
<ele>2113.720703</ele>
<time>2011-04-24T10:05:53Z</time>
<desc>lat.=22.334278, lon.=103.779297, Alt.=2113.720703m. Speed=1.152000m/h.</desc>
<speed>0.320000</speed>
</trkpt>
<trkpt lat="22.334299" lon="103.779282">
<ele>2113.345703</ele>
<time>2011-04-24T10:05:58Z</time>
<desc>lat.=22.334299, lon.=103.779282, Alt.=2113.345703m. Speed=0.936000m/h.</desc>
<speed>0.260000</speed>
</trkpt>
<trkpt lat="22.334311" lon="103.779266">
<ele>2113.158203</ele>
<time>2011-04-24T10:06:03Z</time>
<desc>lat.=22.334311, lon.=103.779266, Alt.=2113.158203m. Speed=1.116000m/h.</desc>
<speed>0.310000</speed>
</trkpt>
<trkpt lat="22.334314" lon="103.779251">
<ele>2112.908203</ele>
<time>2011-04-24T10:06:08Z</time>
<desc>lat.=22.334314, lon.=103.779251, Alt.=2112.908203m. Speed=0.360000m/h.</desc>
<speed>0.100000</speed>
</trkpt>
<trkpt lat="22.334326" lon="103.779259">
<ele>2112.970703</ele>
<time>2011-04-24T10:06:13Z</time>
<desc>lat.=22.334326, lon.=103.779259, Alt.=2112.970703m. Speed=1.080000m/h.</desc>
<speed>0.300000</speed>
</trkpt>
<trkpt lat="22.334330" lon="103.779236">
<ele>2112.345703</ele>
<time>2011-04-24T10:06:18Z</time>
<desc>lat.=22.334330, lon.=103.779236, Alt.=2112.345703m. Speed=0.648000m/h.</desc>
<speed>0.180000</speed>
</trkpt>
<trkpt lat="22.334333" lon="103.779236">
<ele>2112.283203</ele>
<time>2011-04-24T10:06:23Z</time>
<desc>lat.=22.334333, lon.=103.779236, Alt.=2112.283203m. Speed=0.468000m/h.</desc>
<speed>0.130000</speed>
</trkpt>
<trkpt lat="22.334330" lon="103.779228">
<ele>2112.283203</ele>
<time>2011-04-24T10:06:28Z</time>
<desc>lat.=22.334330, lon.=103.779228, Alt.=2112.283203m. Speed=1.260000m/h.</desc>
<speed>0.350000</speed>
</trkpt>
<trkpt lat="22.334330" lon="103.779205">
<ele>2111.970703</ele>
<time>2011-04-24T10:06:33Z</time>
<desc>lat.=22.334330, lon.=103.779205, Alt.=2111.970703m. Speed=1.692000m/h.</desc>
<speed>0.470000</speed>
</trkpt>
<trkpt lat="22.334354" lon="103.779198">
<ele>2111.970703</ele>
<time>2011-04-24T10:06:38Z</time>
<desc>lat.=22.334354, lon.=103.779198, Alt.=2111.970703m. Speed=1.872000m/h.</desc>
<speed>0.520000</speed>
</trkpt>
<trkpt lat="22.334345" lon="103.779160">
<ele>2111.283203</ele>
<time>2011-04-24T10:06:43Z</time>
<desc>lat.=22.334345, lon.=103.779160, Alt.=2111.283203m. Speed=1.620000m/h.</desc>
<speed>0.450000</speed>
</trkpt>
<trkpt lat="22.334364" lon="103.779160">
<ele>2110.908203</ele>
<time>2011-04-24T10:06:48Z</time>
<desc>lat.=22.334364, lon.=103.779160, Alt.=2110.908203m. Speed=1.404000m/h.</desc>
<speed>0.390000</speed>
</trkpt>
<trkpt lat="22.334379" lon="103.779144">
<ele>2110.408203</ele>
<time>2011-04-24T10:06:53Z</time>
<desc>lat.=22.334379, lon.=103.779144, Alt.=2110.408203m. Speed=2.232000m/h.</desc>
<speed>0.620000</speed>
</trkpt>
<trkpt lat="22.334396" lon="103.779160">
<ele>2109.658203</ele>
<time>2011-04-24T10:06:58Z</time>
<desc>lat.=22.334396, lon.=103.779160, Alt.=2109.658203m. Speed=1.620000m/h.</desc>
<speed>0.450000</speed>
</trkpt>
<trkpt lat="22.334425" lon="103.779160">
<ele>2107.845703</ele>
<time>2011-04-24T10:07:03Z</time>
<desc>lat.=22.334425, lon.=103.779160, Alt.=2107.845703m. Speed=2.736000m/h.</desc>
<speed>0.760000</speed>
</trkpt>
<trkpt lat="22.334417" lon="103.779152">
<ele>2107.408203</ele>
<time>2011-04-24T10:07:08Z</time>
<desc>lat.=22.334417, lon.=103.779152, Alt.=2107.408203m. Speed=1.188000m/h.</desc>
<speed>0.330000</speed>
</trkpt>
<trkpt lat="22.334402" lon="103.779114">
<ele>2107.033203</ele>
<time>2011-04-24T10:07:13Z</time>
<desc>lat.=22.334402, lon.=103.779114, Alt.=2107.033203m. Speed=1.620000m/h.</desc>
<speed>0.450000</speed>
</trkpt>
<trkpt lat="22.334393" lon="103.779106">
<ele>2106.720703</ele>
<time>2011-04-24T10:07:18Z</time>
<desc>lat.=22.334393, lon.=103.779106, Alt.=2106.720703m. Speed=3.132000m/h.</desc>
<speed>0.870000</speed>
</trkpt>
<trkpt lat="22.334381" lon="103.779099">
<ele>2106.345703</ele>
<time>2011-04-24T10:07:23Z</time>
<desc>lat.=22.334381, lon.=103.779099, Alt.=2106.345703m. Speed=1.224000m/h.</desc>
<speed>0.340000</speed>
</trkpt>
<trkpt lat="22.334358" lon="103.779083">
<ele>2105.970703</ele>
<time>2011-04-24T10:07:28Z</time>
<desc>lat.=22.334358, lon.=103.779083, Alt.=2105.970703m. Speed=1.152000m/h.</desc>
<speed>0.320000</speed>
</trkpt>
<trkpt lat="22.334332" lon="103.779076">
<ele>2105.595703</ele>
<time>2011-04-24T10:07:33Z</time>
<desc>lat.=22.334332, lon.=103.779076, Alt.=2105.595703m. Speed=0.468000m/h.</desc>
<speed>0.130000</speed>
</trkpt>
<trkpt lat="22.334337" lon="103.779076">
<ele>2105.158203</ele>
<time>2011-04-24T10:07:38Z</time>
<desc>lat.=22.334337, lon.=103.779076, Alt.=2105.158203m. Speed=1.008000m/h.</desc>
<speed>0.280000</speed>
</trkpt>
<trkpt lat="22.334347" lon="103.779076">
<ele>2105.095703</ele>
<time>2011-04-24T10:07:43Z</time>
<desc>lat.=22.334347, lon.=103.779076, Alt.=2105.095703m. Speed=1.332000m/h.</desc>
<speed>0.370000</speed>
</trkpt>
<trkpt lat="22.334345" lon="103.779091">
<ele>2104.033203</ele>
<time>2011-04-24T10:07:48Z</time>
<desc>lat.=22.334345, lon.=103.779091, Alt.=2104.033203m. Speed=0.900000m/h.</desc>
<speed>0.250000</speed>
</trkpt>
<trkpt lat="22.334343" lon="103.779076">
<ele>2103.533203</ele>
<time>2011-04-24T10:07:53Z</time>
<desc>lat.=22.334343, lon.=103.779076, Alt.=2103.533203m. Speed=0.828000m/h.</desc>
<speed>0.230000</speed>
</trkpt>
<trkpt lat="22.334322" lon="103.779045">
<ele>2102.720703</ele>
<time>2011-04-24T10:07:58Z</time>
<desc>lat.=22.334322, lon.=103.779045, Alt.=2102.720703m. Speed=1.584000m/h.</desc>
<speed>0.440000</speed>
</trkpt>
<trkpt lat="22.334307" lon="103.779007">
<ele>2102.033203</ele>
<time>2011-04-24T10:08:03Z</time>
<desc>lat.=22.334307, lon.=103.779007, Alt.=2102.033203m. Speed=1.224000m/h.</desc>
<speed>0.340000</speed>
</trkpt>
<trkpt lat="22.334291" lon="103.779007">
<ele>2101.970703</ele>
<time>2011-04-24T10:08:08Z</time>
<desc>lat.=22.334291, lon.=103.779007, Alt.=2101.970703m. Speed=0.684000m/h.</desc>
<speed>0.190000</speed>
</trkpt>
<trkpt lat="22.334291" lon="103.779007">
<ele>2101.970703</ele>
<time>2011-04-24T10:08:13Z</time>
<desc>lat.=22.334291, lon.=103.779007, Alt.=2101.970703m. Speed=1.008000m/h.</desc>
<speed>0.280000</speed>
</trkpt>
<trkpt lat="22.334301" lon="103.778992">
<ele>2101.783203</ele>
<time>2011-04-24T10:08:18Z</time>
<desc>lat.=22.334301, lon.=103.778992, Alt.=2101.783203m. Speed=1.440000m/h.</desc>
<speed>0.400000</speed>
</trkpt>
<trkpt lat="22.334276" lon="103.778992">
<ele>2101.095703</ele>
<time>2011-04-24T10:08:23Z</time>
<desc>lat.=22.334276, lon.=103.778992, Alt.=2101.095703m. Speed=0.900000m/h.</desc>
<speed>0.250000</speed>
</trkpt>
<trkpt lat="22.334278" lon="103.778969">
<ele>2100.658203</ele>
<time>2011-04-24T10:08:28Z</time>
<desc>lat.=22.334278, lon.=103.778969, Alt.=2100.658203m. Speed=1.620000m/h.</desc>
<speed>0.450000</speed>
</trkpt>
<trkpt lat="22.334328" lon="103.778900">
<ele>2100.283203</ele>
<time>2011-04-24T10:08:33Z</time>
<desc>lat.=22.334328, lon.=103.778900, Alt.=2100.283203m. Speed=2.808000m/h.</desc>
<speed>0.780000</speed>
</trkpt>
<trkpt lat="22.334370" lon="103.778885">
<ele>2099.720703</ele>
<time>2011-04-24T10:08:38Z</time>
<desc>lat.=22.334370, lon.=103.778885, Alt.=2099.720703m. Speed=1.728000m/h.</desc>
<speed>0.480000</speed>
</trkpt>
<trkpt lat="22.334389" lon="103.778862">
<ele>2098.220703</ele>
<time>2011-04-24T10:08:43Z</time>
<desc>lat.=22.334389, lon.=103.778862, Alt.=2098.220703m. Speed=0.396000m/h.</desc>
<speed>0.110000</speed>
</trkpt>
<trkpt lat="22.334391" lon="103.778862">
<ele>2098.408203</ele>
<time>2011-04-24T10:08:48Z</time>
<desc>lat.=22.334391, lon.=103.778862, Alt.=2098.408203m. Speed=0.576000m/h.</desc>
<speed>0.160000</speed>
</trkpt>
<trkpt lat="22.334435" lon="103.778831">
<ele>2098.283203</ele>
<time>2011-04-24T10:08:53Z</time>
<desc>lat.=22.334435, lon.=103.778831, Alt.=2098.283203m. Speed=3.204000m/h.</desc>
<speed>0.890000</speed>
</trkpt>
<trkpt lat="22.334457" lon="103.778816">
<ele>2098.283203</ele>
<time>2011-04-24T10:08:58Z</time>
<desc>lat.=22.334457, lon.=103.778816, Alt.=2098.283203m. Speed=1.728000m/h.</desc>
<speed>0.480000</speed>
</trkpt>
<trkpt lat="22.334467" lon="103.778824">
<ele>2098.158203</ele>
<time>2011-04-24T10:09:03Z</time>
<desc>lat.=22.334467, lon.=103.778824, Alt.=2098.158203m. Speed=0.648000m/h.</desc>
<speed>0.180000</speed>
</trkpt>
<trkpt lat="22.334482" lon="103.778847">
<ele>2098.220703</ele>
<time>2011-04-24T10:09:08Z</time>
<desc>lat.=22.334482, lon.=103.778847, Alt.=2098.220703m. Speed=1.944000m/h.</desc>
<speed>0.540000</speed>
</trkpt>
<trkpt lat="22.334507" lon="103.778847">
<ele>2098.658203</ele>
<time>2011-04-24T10:09:13Z</time>
<desc>lat.=22.334507, lon.=103.778847, Alt.=2098.658203m. Speed=2.016000m/h.</desc>
<speed>0.560000</speed>
</trkpt>
<trkpt lat="22.334526" lon="103.778847">
<ele>2098.470703</ele>
<time>2011-04-24T10:09:18Z</time>
<desc>lat.=22.334526, lon.=103.778847, Alt.=2098.470703m. Speed=1.512000m/h.</desc>
<speed>0.420000</speed>
</trkpt>
<trkpt lat="22.334534" lon="103.778839">
<ele>2099.095703</ele>
<time>2011-04-24T10:09:23Z</time>
<desc>lat.=22.334534, lon.=103.778839, Alt.=2099.095703m. Speed=1.368000m/h.</desc>
<speed>0.380000</speed>
</trkpt>
<trkpt lat="22.334524" lon="103.778847">
<ele>2098.908203</ele>
<time>2011-04-24T10:09:28Z</time>
<desc>lat.=22.334524, lon.=103.778847, Alt.=2098.908203m. Speed=1.188000m/h.</desc>
<speed>0.330000</speed>
</trkpt>
<trkpt lat="22.334581" lon="103.778816">
<ele>2099.095703</ele>
<time>2011-04-24T10:09:33Z</time>
<desc>lat.=22.334581, lon.=103.778816, Alt.=2099.095703m. Speed=5.688000m/h.</desc>
<speed>1.580000</speed>
</trkpt>
<trkpt lat="22.334627" lon="103.778809">
<ele>2099.658203</ele>
<time>2011-04-24T10:09:38Z</time>
<desc>lat.=22.334627, lon.=103.778809, Alt.=2099.658203m. Speed=2.160000m/h.</desc>
<speed>0.600000</speed>
</trkpt>
<trkpt lat="22.334675" lon="103.778847">
<ele>2101.095703</ele>
<time>2011-04-24T10:09:43Z</time>
<desc>lat.=22.334675, lon.=103.778847, Alt.=2101.095703m. Speed=1.404000m/h.</desc>
<speed>0.390000</speed>
</trkpt>
<trkpt lat="22.334711" lon="103.778854">
<ele>2102.408203</ele>
<time>2011-04-24T10:09:48Z</time>
<desc>lat.=22.334711, lon.=103.778854, Alt.=2102.408203m. Speed=1.224000m/h.</desc>
<speed>0.340000</speed>
</trkpt>
<trkpt lat="22.334728" lon="103.778839">
<ele>2103.720703</ele>
<time>2011-04-24T10:09:53Z</time>
<desc>lat.=22.334728, lon.=103.778839, Alt.=2103.720703m. Speed=3.672000m/h.</desc>
<speed>1.020000</speed>
</trkpt>
<trkpt lat="22.334791" lon="103.778870">
<ele>2103.658203</ele>
<time>2011-04-24T10:09:58Z</time>
<desc>lat.=22.334791, lon.=103.778870, Alt.=2103.658203m. Speed=4.860000m/h.</desc>
<speed>1.350000</speed>
</trkpt>
<trkpt lat="22.334803" lon="103.778915">
<ele>2103.470703</ele>
<time>2011-04-24T10:10:03Z</time>
<desc>lat.=22.334803, lon.=103.778915, Alt.=2103.470703m. Speed=1.620000m/h.</desc>
<speed>0.450000</speed>
</trkpt>
<trkpt lat="22.334816" lon="103.778938">
<ele>2102.158203</ele>
<time>2011-04-24T10:10:08Z</time>
<desc>lat.=22.334816, lon.=103.778938, Alt.=2102.158203m. Speed=1.224000m/h.</desc>
<speed>0.340000</speed>
</trkpt>
<trkpt lat="22.334835" lon="103.778961">
<ele>2100.470703</ele>
<time>2011-04-24T10:10:13Z</time>
<desc>lat.=22.334835, lon.=103.778961, Alt.=2100.470703m. Speed=1.944000m/h.</desc>
<speed>0.540000</speed>
</trkpt>
<trkpt lat="22.334846" lon="103.778961">
<ele>2099.345703</ele>
<time>2011-04-24T10:10:18Z</time>
<desc>lat.=22.334846, lon.=103.778961, Alt.=2099.345703m. Speed=3.024000m/h.</desc>
<speed>0.840000</speed>
</trkpt>
<trkpt lat="22.334906" lon="103.778976">
<ele>2099.095703</ele>
<time>2011-04-24T10:10:23Z</time>
<desc>lat.=22.334906, lon.=103.778976, Alt.=2099.095703m. Speed=1.980000m/h.</desc>
<speed>0.550000</speed>
</trkpt>
<trkpt lat="22.334934" lon="103.779015">
<ele>2097.595703</ele>
<time>2011-04-24T10:10:28Z</time>
<desc>lat.=22.334934, lon.=103.779015, Alt.=2097.595703m. Speed=4.644000m/h.</desc>
<speed>1.290000</speed>
</trkpt>
<trkpt lat="22.334948" lon="103.779076">
<ele>2094.408203</ele>
<time>2011-04-24T10:10:33Z</time>
<desc>lat.=22.334948, lon.=103.779076, Alt.=2094.408203m. Speed=4.968000m/h.</desc>
<speed>1.380000</speed>
</trkpt>
<trkpt lat="22.334970" lon="103.779099">
<ele>2093.033203</ele>
<time>2011-04-24T10:10:38Z</time>
<desc>lat.=22.334970, lon.=103.779099, Alt.=2093.033203m. Speed=3.492000m/h.</desc>
<speed>0.970000</speed>
</trkpt>
<trkpt lat="22.334963" lon="103.779182">
<ele>2090.033203</ele>
<time>2011-04-24T10:10:43Z</time>
<desc>lat.=22.334963, lon.=103.779182, Alt.=2090.033203m. Speed=2.988000m/h.</desc>
<speed>0.830000</speed>
</trkpt>
<trkpt lat="22.335003" lon="103.779213">
<ele>2086.783203</ele>
<time>2011-04-24T10:10:48Z</time>
<desc>lat.=22.335003, lon.=103.779213, Alt.=2086.783203m. Speed=3.996000m/h.</desc>
<speed>1.110000</speed>
</trkpt>
<trkpt lat="22.335054" lon="103.779205">
<ele>2083.220703</ele>
<time>2011-04-24T10:10:53Z</time>
<desc>lat.=22.335054, lon.=103.779205, Alt.=2083.220703m. Speed=2.340000m/h.</desc>
<speed>0.650000</speed>
</trkpt>
<trkpt lat="22.335062" lon="103.779228">
<ele>2083.720703</ele>
<time>2011-04-24T10:10:58Z</time>
<desc>lat.=22.335062, lon.=103.779228, Alt.=2083.720703m. Speed=1.908000m/h.</desc>
<speed>0.530000</speed>
</trkpt>
<trkpt lat="22.335083" lon="103.779251">
<ele>2081.783203</ele>
<time>2011-04-24T10:11:03Z</time>
<desc>lat.=22.335083, lon.=103.779251, Alt.=2081.783203m. Speed=5.472000m/h.</desc>
<speed>1.520000</speed>
</trkpt>
<trkpt lat="22.335112" lon="103.779305">
<ele>2080.158203</ele>
<time>2011-04-24T10:11:08Z</time>
<desc>lat.=22.335112, lon.=103.779305, Alt.=2080.158203m. Speed=4.716000m/h.</desc>
<speed>1.310000</speed>
</trkpt>
<trkpt lat="22.335148" lon="103.779358">
<ele>2079.720703</ele>
<time>2011-04-24T10:11:13Z</time>
<desc>lat.=22.335148, lon.=103.779358, Alt.=2079.720703m. Speed=4.752000m/h.</desc>
<speed>1.320000</speed>
</trkpt>
<trkpt lat="22.335196" lon="103.779388">
<ele>2079.283203</ele>
<time>2011-04-24T10:11:18Z</time>
<desc>lat.=22.335196, lon.=103.779388, Alt.=2079.283203m. Speed=4.896000m/h.</desc>
<speed>1.360000</speed>
</trkpt>
<trkpt lat="22.335213" lon="103.779434">
<ele>2078.595703</ele>
<time>2011-04-24T10:11:23Z</time>
<desc>lat.=22.335213, lon.=103.779434, Alt.=2078.595703m. Speed=3.348000m/h.</desc>
<speed>0.930000</speed>
</trkpt>
<trkpt lat="22.335220" lon="103.779434">
<ele>2079.845703</ele>
<time>2011-04-24T10:11:28Z</time>
<desc>lat.=22.335220, lon.=103.779434, Alt.=2079.845703m. Speed=1.116000m/h.</desc>
<speed>0.310000</speed>
</trkpt>
<trkpt lat="22.335253" lon="103.779457">
<ele>2079.595703</ele>
<time>2011-04-24T10:11:33Z</time>
<desc>lat.=22.335253, lon.=103.779457, Alt.=2079.595703m. Speed=2.268000m/h.</desc>
<speed>0.630000</speed>
</trkpt>
<trkpt lat="22.335291" lon="103.779472">
<ele>2078.783203</ele>
<time>2011-04-24T10:11:38Z</time>
<desc>lat.=22.335291, lon.=103.779472, Alt.=2078.783203m. Speed=2.880000m/h.</desc>
<speed>0.800000</speed>
</trkpt>
<trkpt lat="22.335323" lon="103.779503">
<ele>2077.970703</ele>
<time>2011-04-24T10:11:43Z</time>
<desc>lat.=22.335323, lon.=103.779503, Alt.=2077.970703m. Speed=4.824000m/h.</desc>
<speed>1.340000</speed>
</trkpt>
<trkpt lat="22.335358" lon="103.779526">
<ele>2078.345703</ele>
<time>2011-04-24T10:11:48Z</time>
<desc>lat.=22.335358, lon.=103.779526, Alt.=2078.345703m. Speed=4.356000m/h.</desc>
<speed>1.210000</speed>
</trkpt>
<trkpt lat="22.335396" lon="103.779549">
<ele>2078.283203</ele>
<time>2011-04-24T10:11:53Z</time>
<desc>lat.=22.335396, lon.=103.779549, Alt.=2078.283203m. Speed=5.256000m/h.</desc>
<speed>1.460000</speed>
</trkpt>
<trkpt lat="22.335415" lon="103.779564">
<ele>2079.033203</ele>
<time>2011-04-24T10:11:58Z</time>
<desc>lat.=22.335415, lon.=103.779564, Alt.=2079.033203m. Speed=1.872000m/h.</desc>
<speed>0.520000</speed>
</trkpt>
<trkpt lat="22.335457" lon="103.779579">
<ele>2080.533203</ele>
<time>2011-04-24T10:12:03Z</time>
<desc>lat.=22.335457, lon.=103.779579, Alt.=2080.533203m. Speed=2.628000m/h.</desc>
<speed>0.730000</speed>
</trkpt>
<trkpt lat="22.335508" lon="103.779594">
<ele>2081.095703</ele>
<time>2011-04-24T10:12:08Z</time>
<desc>lat.=22.335508, lon.=103.779594, Alt.=2081.095703m. Speed=1.872000m/h.</desc>
<speed>0.520000</speed>
</trkpt>
<trkpt lat="22.335543" lon="103.779587">
<ele>2081.970703</ele>
<time>2011-04-24T10:12:13Z</time>
<desc>lat.=22.335543, lon.=103.779587, Alt.=2081.970703m. Speed=4.500000m/h.</desc>
<speed>1.250000</speed>
</trkpt>
<trkpt lat="22.335596" lon="103.779594">
<ele>2083.158203</ele>
<time>2011-04-24T10:12:18Z</time>
<desc>lat.=22.335596, lon.=103.779594, Alt.=2083.158203m. Speed=4.212000m/h.</desc>
<speed>1.170000</speed>
</trkpt>
<trkpt lat="22.335651" lon="103.779579">
<ele>2084.158203</ele>
<time>2011-04-24T10:12:23Z</time>
<desc>lat.=22.335651, lon.=103.779579, Alt.=2084.158203m. Speed=4.392000m/h.</desc>
<speed>1.220000</speed>
</trkpt>
<trkpt lat="22.335691" lon="103.779602">
<ele>2083.220703</ele>
<time>2011-04-24T10:12:28Z</time>
<desc>lat.=22.335691, lon.=103.779602, Alt.=2083.220703m. Speed=3.060000m/h.</desc>
<speed>0.850000</speed>
</trkpt>
<trkpt lat="22.335726" lon="103.779587">
<ele>2083.533203</ele>
<time>2011-04-24T10:12:33Z</time>
<desc>lat.=22.335726, lon.=103.779587, Alt.=2083.533203m. Speed=4.140000m/h.</desc>
<speed>1.150000</speed>
</trkpt>
<trkpt lat="22.335777" lon="103.779572">
<ele>2083.470703</ele>
<time>2011-04-24T10:12:38Z</time>
<desc>lat.=22.335777, lon.=103.779572, Alt.=2083.470703m. Speed=4.284000m/h.</desc>
<speed>1.190000</speed>
</trkpt>
<trkpt lat="22.335814" lon="103.779572">
<ele>2081.783203</ele>
<time>2011-04-24T10:12:43Z</time>
<desc>lat.=22.335814, lon.=103.779572, Alt.=2081.783203m. Speed=1.548000m/h.</desc>
<speed>0.430000</speed>
</trkpt>
<trkpt lat="22.335854" lon="103.779541">
<ele>2081.095703</ele>
<time>2011-04-24T10:12:48Z</time>
<desc>lat.=22.335854, lon.=103.779541, Alt.=2081.095703m. Speed=4.500000m/h.</desc>
<speed>1.250000</speed>
</trkpt>
<trkpt lat="22.335905" lon="103.779533">
<ele>2081.595703</ele>
<time>2011-04-24T10:12:53Z</time>
<desc>lat.=22.335905, lon.=103.779533, Alt.=2081.595703m. Speed=3.060000m/h.</desc>
<speed>0.850000</speed>
</trkpt>
<trkpt lat="22.335951" lon="103.779549">
<ele>2081.033203</ele>
<time>2011-04-24T10:12:58Z</time>
<desc>lat.=22.335951, lon.=103.779549, Alt.=2081.033203m. Speed=3.744000m/h.</desc>
<speed>1.040000</speed>
</trkpt>
<trkpt lat="22.336000" lon="103.779541">
<ele>2080.408203</ele>
<time>2011-04-24T10:13:03Z</time>
<desc>lat.=22.336000, lon.=103.779541, Alt.=2080.408203m. Speed=3.420000m/h.</desc>
<speed>0.950000</speed>
</trkpt>
<trkpt lat="22.336048" lon="103.779572">
<ele>2080.095703</ele>
<time>2011-04-24T10:13:08Z</time>
<desc>lat.=22.336048, lon.=103.779572, Alt.=2080.095703m. Speed=2.772000m/h.</desc>
<speed>0.770000</speed>
</trkpt>
<trkpt lat="22.336079" lon="103.779564">
<ele>2079.970703</ele>
<time>2011-04-24T10:13:13Z</time>
<desc>lat.=22.336079, lon.=103.779564, Alt.=2079.970703m. Speed=2.376000m/h.</desc>
<speed>0.660000</speed>
</trkpt>
<trkpt lat="22.336094" lon="103.779587">
<ele>2080.345703</ele>
<time>2011-04-24T10:13:18Z</time>
<desc>lat.=22.336094, lon.=103.779587, Alt.=2080.345703m. Speed=1.944000m/h.</desc>
<speed>0.540000</speed>
</trkpt>
<trkpt lat="22.336115" lon="103.779610">
<ele>2080.408203</ele>
<time>2011-04-24T10:13:23Z</time>
<desc>lat.=22.336115, lon.=103.779610, Alt.=2080.408203m. Speed=0.936000m/h.</desc>
<speed>0.260000</speed>
</trkpt>
<trkpt lat="22.336170" lon="103.779625">
<ele>2079.033203</ele>
<time>2011-04-24T10:13:28Z</time>
<desc>lat.=22.336170, lon.=103.779625, Alt.=2079.033203m. Speed=4.320000m/h.</desc>
<speed>1.200000</speed>
</trkpt>
<trkpt lat="22.336227" lon="103.779625">
<ele>2077.658203</ele>
<time>2011-04-24T10:13:33Z</time>
<desc>lat.=22.336227, lon.=103.779625, Alt.=2077.658203m. Speed=4.140000m/h.</desc>
<speed>1.150000</speed>
</trkpt>
<trkpt lat="22.336281" lon="103.779610">
<ele>2075.470703</ele>
<time>2011-04-24T10:13:38Z</time>
<desc>lat.=22.336281, lon.=103.779610, Alt.=2075.470703m. Speed=3.312000m/h.</desc>
<speed>0.920000</speed>
</trkpt>
<trkpt lat="22.336319" lon="103.779610">
<ele>2072.158203</ele>
<time>2011-04-24T10:13:43Z</time>
<desc>lat.=22.336319, lon.=103.779610, Alt.=2072.158203m. Speed=4.716000m/h.</desc>
<speed>1.310000</speed>
</trkpt>
<trkpt lat="22.336349" lon="103.779610">
<ele>2071.158203</ele>
<time>2011-04-24T10:13:48Z</time>
<desc>lat.=22.336349, lon.=103.779610, Alt.=2071.158203m. Speed=1.476000m/h.</desc>
<speed>0.410000</speed>
</trkpt>
<trkpt lat="22.336388" lon="103.779610">
<ele>2070.783203</ele>
<time>2011-04-24T10:13:53Z</time>
<desc>lat.=22.336388, lon.=103.779610, Alt.=2070.783203m. Speed=3.816000m/h.</desc>
<speed>1.060000</speed>
</trkpt>
<trkpt lat="22.336441" lon="103.779648">
<ele>2070.220703</ele>
<time>2011-04-24T10:13:58Z</time>
<desc>lat.=22.336441, lon.=103.779648, Alt.=2070.220703m. Speed=3.924000m/h.</desc>
<speed>1.090000</speed>
</trkpt>
<trkpt lat="22.336485" lon="103.779671">
<ele>2069.658203</ele>
<time>2011-04-24T10:14:03Z</time>
<desc>lat.=22.336485, lon.=103.779671, Alt.=2069.658203m. Speed=2.772000m/h.</desc>
<speed>0.770000</speed>
</trkpt>
<trkpt lat="22.336535" lon="103.779671">
<ele>2068.158203</ele>
<time>2011-04-24T10:14:08Z</time>
<desc>lat.=22.336535, lon.=103.779671, Alt.=2068.158203m. Speed=3.816000m/h.</desc>
<speed>1.060000</speed>
</trkpt>
<trkpt lat="22.336580" lon="103.779663">
<ele>2067.845703</ele>
<time>2011-04-24T10:14:13Z</time>
<desc>lat.=22.336580, lon.=103.779663, Alt.=2067.845703m. Speed=4.176000m/h.</desc>
<speed>1.160000</speed>
</trkpt>
<trkpt lat="22.336630" lon="103.779671">
<ele>2067.533203</ele>
<time>2011-04-24T10:14:18Z</time>
<desc>lat.=22.336630, lon.=103.779671, Alt.=2067.533203m. Speed=2.880000m/h.</desc>
<speed>0.800000</speed>
</trkpt>
<trkpt lat="22.336660" lon="103.779633">
<ele>2067.845703</ele>
<time>2011-04-24T10:14:23Z</time>
<desc>lat.=22.336660, lon.=103.779633, Alt.=2067.845703m. Speed=4.932000m/h.</desc>
<speed>1.370000</speed>
</trkpt>
<trkpt lat="22.336706" lon="103.779617">
<ele>2067.908203</ele>
<time>2011-04-24T10:14:28Z</time>
<desc>lat.=22.336706, lon.=103.779617, Alt.=2067.908203m. Speed=3.456000m/h.</desc>
<speed>0.960000</speed>
</trkpt>
<trkpt lat="22.336754" lon="103.779610">
<ele>2069.408203</ele>
<time>2011-04-24T10:14:33Z</time>
<desc>lat.=22.336754, lon.=103.779610, Alt.=2069.408203m. Speed=3.996000m/h.</desc>
<speed>1.110000</speed>
</trkpt>
<trkpt lat="22.336803" lon="103.779610">
<ele>2069.908203</ele>
<time>2011-04-24T10:14:38Z</time>
<desc>lat.=22.336803, lon.=103.779610, Alt.=2069.908203m. Speed=3.096000m/h.</desc>
<speed>0.860000</speed>
</trkpt>
<trkpt lat="22.336843" lon="103.779594">
<ele>2069.533203</ele>
<time>2011-04-24T10:14:43Z</time>
<desc>lat.=22.336843, lon.=103.779594, Alt.=2069.533203m. Speed=3.600000m/h.</desc>
<speed>1.000000</speed>
</trkpt>
<trkpt lat="22.336870" lon="103.779572">
<ele>2069.220703</ele>
<time>2011-04-24T10:14:48Z</time>
<desc>lat.=22.336870, lon.=103.779572, Alt.=2069.220703m. Speed=3.240000m/h.</desc>
<speed>0.900000</speed>
</trkpt>
<trkpt lat="22.336901" lon="103.779533">
<ele>2070.158203</ele>
<time>2011-04-24T10:14:53Z</time>
<desc>lat.=22.336901, lon.=103.779533, Alt.=2070.158203m. Speed=3.780000m/h.</desc>
<speed>1.050000</speed>
</trkpt>
<trkpt lat="22.336920" lon="103.779541">
<ele>2069.470703</ele>
<time>2011-04-24T10:14:58Z</time>
<desc>lat.=22.336920, lon.=103.779541, Alt.=2069.470703m. Speed=0.180000m/h.</desc>
<speed>0.050000</speed>
</trkpt>
<trkpt lat="22.336929" lon="103.779541">
<ele>2068.908203</ele>
<time>2011-04-24T10:15:03Z</time>
<desc>lat.=22.336929, lon.=103.779541, Alt.=2068.908203m. Speed=0.360000m/h.</desc>
<speed>0.100000</speed>
</trkpt>
<trkpt lat="22.336933" lon="103.779541">
<ele>2068.533203</ele>
<time>2011-04-24T10:15:08Z</time>
<desc>lat.=22.336933, lon.=103.779541, Alt.=2068.533203m. Speed=0.324000m/h.</desc>
<speed>0.090000</speed>
</trkpt>
<trkpt lat="22.336933" lon="103.779549">
<ele>2068.595703</ele>
<time>2011-04-24T10:15:13Z</time>
<desc>lat.=22.336933, lon.=103.779549, Alt.=2068.595703m. Speed=0.504000m/h.</desc>
<speed>0.140000</speed>
</trkpt>
<trkpt lat="22.336927" lon="103.779533">
<ele>2068.408203</ele>
<time>2011-04-24T10:15:18Z</time>
<desc>lat.=22.336927, lon.=103.779533, Alt.=2068.408203m. Speed=1.296000m/h.</desc>
<speed>0.360000</speed>
</trkpt>
<trkpt lat="22.336935" lon="103.779488">
<ele>2067.470703</ele>
<time>2011-04-24T10:15:23Z</time>
<desc>lat.=22.336935, lon.=103.779488, Alt.=2067.470703m. Speed=4.608000m/h.</desc>
<speed>1.280000</speed>
</trkpt>
<trkpt lat="22.336988" lon="103.779449">
<ele>2067.220703</ele>
<time>2011-04-24T10:15:28Z</time>
<desc>lat.=22.336988, lon.=103.779449, Alt.=2067.220703m. Speed=5.508000m/h.</desc>
<speed>1.530000</speed>
</trkpt>
<trkpt lat="22.337036" lon="103.779411">
<ele>2067.158203</ele>
<time>2011-04-24T10:15:33Z</time>
<desc>lat.=22.337036, lon.=103.779411, Alt.=2067.158203m. Speed=5.256000m/h.</desc>
<speed>1.460000</speed>
</trkpt>
<trkpt lat="22.337095" lon="103.779388">
<ele>2066.533203</ele>
<time>2011-04-24T10:15:38Z</time>
<desc>lat.=22.337095, lon.=103.779388, Alt.=2066.533203m. Speed=4.644000m/h.</desc>
<speed>1.290000</speed>
</trkpt>
<trkpt lat="22.337143" lon="103.779388">
<ele>2066.970703</ele>
<time>2011-04-24T10:15:43Z</time>
<desc>lat.=22.337143, lon.=103.779388, Alt.=2066.970703m. Speed=3.600000m/h.</desc>
<speed>1.000000</speed>
</trkpt>
<trkpt lat="22.337179" lon="103.779366">
<ele>2067.533203</ele>
<time>2011-04-24T10:15:48Z</time>
<desc>lat.=22.337179, lon.=103.779366, Alt.=2067.533203m. Speed=3.636000m/h.</desc>
<speed>1.010000</speed>
</trkpt>
<trkpt lat="22.337221" lon="103.779366">
<ele>2067.345703</ele>
<time>2011-04-24T10:15:53Z</time>
<desc>lat.=22.337221, lon.=103.779366, Alt.=2067.345703m. Speed=2.376000m/h.</desc>
<speed>0.660000</speed>
</trkpt>
<trkpt lat="22.337257" lon="103.779350">
<ele>2068.220703</ele>
<time>2011-04-24T10:15:58Z</time>
<desc>lat.=22.337257, lon.=103.779350, Alt.=2068.220703m. Speed=2.952000m/h.</desc>
<speed>0.820000</speed>
</trkpt>
<trkpt lat="22.337299" lon="103.779350">
<ele>2068.345703</ele>
<time>2011-04-24T10:16:03Z</time>
<desc>lat.=22.337299, lon.=103.779350, Alt.=2068.345703m. Speed=5.436000m/h.</desc>
<speed>1.510000</speed>
</trkpt>
<trkpt lat="22.337353" lon="103.779350">
<ele>2067.470703</ele>
<time>2011-04-24T10:16:08Z</time>
<desc>lat.=22.337353, lon.=103.779350, Alt.=2067.470703m. Speed=3.744000m/h.</desc>
<speed>1.040000</speed>
</trkpt>
<trkpt lat="22.337399" lon="103.779373">
<ele>2068.720703</ele>
<time>2011-04-24T10:16:13Z</time>
<desc>lat.=22.337399, lon.=103.779373, Alt.=2068.720703m. Speed=2.268000m/h.</desc>
<speed>0.630000</speed>
</trkpt>
<trkpt lat="22.337446" lon="103.779366">
<ele>2068.345703</ele>
<time>2011-04-24T10:16:18Z</time>
<desc>lat.=22.337446, lon.=103.779366, Alt.=2068.345703m. Speed=3.996000m/h.</desc>
<speed>1.110000</speed>
</trkpt>
<trkpt lat="22.337479" lon="103.779358">
<ele>2067.970703</ele>
<time>2011-04-24T10:16:23Z</time>
<desc>lat.=22.337479, lon.=103.779358, Alt.=2067.970703m. Speed=4.392000m/h.</desc>
<speed>1.220000</speed>
</trkpt>
<trkpt lat="22.337521" lon="103.779327">
<ele>2067.220703</ele>
<time>2011-04-24T10:16:28Z</time>
<desc>lat.=22.337521, lon.=103.779327, Alt.=2067.220703m. Speed=4.680000m/h.</desc>
<speed>1.300000</speed>
</trkpt>
<trkpt lat="22.337543" lon="103.779289">
<ele>2067.408203</ele>
<time>2011-04-24T10:16:33Z</time>
<desc>lat.=22.337543, lon.=103.779289, Alt.=2067.408203m. Speed=2.700000m/h.</desc>
<speed>0.750000</speed>
</trkpt>
<trkpt lat="22.337582" lon="103.779266">
<ele>2066.720703</ele>
<time>2011-04-24T10:16:38Z</time>
<desc>lat.=22.337582, lon.=103.779266, Alt.=2066.720703m. Speed=3.096000m/h.</desc>
<speed>0.860000</speed>
</trkpt>
<trkpt lat="22.337591" lon="103.779228">
<ele>2066.783203</ele>
<time>2011-04-24T10:16:43Z</time>
<desc>lat.=22.337591, lon.=103.779228, Alt.=2066.783203m. Speed=3.960000m/h.</desc>
<speed>1.100000</speed>
</trkpt>
<trkpt lat="22.337605" lon="103.779198">
<ele>2067.408203</ele>
<time>2011-04-24T10:16:48Z</time>
<desc>lat.=22.337605, lon.=103.779198, Alt.=2067.408203m. Speed=3.168000m/h.</desc>
<speed>0.880000</speed>
</trkpt>
<trkpt lat="22.337610" lon="103.779160">
<ele>2069.095703</ele>
<time>2011-04-24T10:16:53Z</time>
<desc>lat.=22.337610, lon.=103.779160, Alt.=2069.095703m. Speed=3.780000m/h.</desc>
<speed>1.050000</speed>
</trkpt>
<trkpt lat="22.337620" lon="103.779106">
<ele>2069.658203</ele>
<time>2011-04-24T10:16:58Z</time>
<desc>lat.=22.337620, lon.=103.779106, Alt.=2069.658203m. Speed=3.708000m/h.</desc>
<speed>1.030000</speed>
</trkpt>
<trkpt lat="22.337618" lon="103.779068">
<ele>2071.345703</ele>
<time>2011-04-24T10:17:03Z</time>
<desc>lat.=22.337618, lon.=103.779068, Alt.=2071.345703m. Speed=2.700000m/h.</desc>
<speed>0.750000</speed>
</trkpt>
<trkpt lat="22.337645" lon="103.779007">
<ele>2071.658203</ele>
<time>2011-04-24T10:17:08Z</time>
<desc>lat.=22.337645, lon.=103.779007, Alt.=2071.658203m. Speed=4.860000m/h.</desc>
<speed>1.350000</speed>
</trkpt>
<trkpt lat="22.337648" lon="103.778969">
<ele>2070.345703</ele>
<time>2011-04-24T10:17:13Z</time>
<desc>lat.=22.337648, lon.=103.778969, Alt.=2070.345703m. Speed=2.808000m/h.</desc>
<speed>0.780000</speed>
</trkpt>
<trkpt lat="22.337669" lon="103.778923">
<ele>2069.908203</ele>
<time>2011-04-24T10:17:18Z</time>
<desc>lat.=22.337669, lon.=103.778923, Alt.=2069.908203m. Speed=3.024000m/h.</desc>
<speed>0.840000</speed>
</trkpt>
<trkpt lat="22.337698" lon="103.778893">
<ele>2069.595703</ele>
<time>2011-04-24T10:17:23Z</time>
<desc>lat.=22.337698, lon.=103.778893, Alt.=2069.595703m. Speed=4.644000m/h.</desc>
<speed>1.290000</speed>
</trkpt>
<trkpt lat="22.337721" lon="103.778847">
<ele>2070.158203</ele>
<time>2011-04-24T10:17:28Z</time>
<desc>lat.=22.337721, lon.=103.778847, Alt.=2070.158203m. Speed=1.944000m/h.</desc>
<speed>0.540000</speed>
</trkpt>
<trkpt lat="22.337729" lon="103.778809">
<ele>2070.970703</ele>
<time>2011-04-24T10:17:33Z</time>
<desc>lat.=22.337729, lon.=103.778809, Alt.=2070.970703m. Speed=2.844000m/h.</desc>
<speed>0.790000</speed>
</trkpt>
<trkpt lat="22.337738" lon="103.778778">
<ele>2071.533203</ele>
<time>2011-04-24T10:17:38Z</time>
<desc>lat.=22.337738, lon.=103.778778, Alt.=2071.533203m. Speed=1.224000m/h.</desc>
<speed>0.340000</speed>
</trkpt>
<trkpt lat="22.337740" lon="103.778748">
<ele>2072.158203</ele>
<time>2011-04-24T10:17:43Z</time>
<desc>lat.=22.337740, lon.=103.778748, Alt.=2072.158203m. Speed=2.808000m/h.</desc>
<speed>0.780000</speed>
</trkpt>
<trkpt lat="22.337774" lon="103.778725">
<ele>2072.720703</ele>
<time>2011-04-24T10:17:48Z</time>
<desc>lat.=22.337774, lon.=103.778725, Alt.=2072.720703m. Speed=2.268000m/h.</desc>
<speed>0.630000</speed>
</trkpt>
<trkpt lat="22.337818" lon="103.778687">
<ele>2074.470703</ele>
<time>2011-04-24T10:17:53Z</time>
<desc>lat.=22.337818, lon.=103.778687, Alt.=2074.470703m. Speed=3.096000m/h.</desc>
<speed>0.860000</speed>
</trkpt>
<trkpt lat="22.337831" lon="103.778664">
<ele>2075.908203</ele>
<time>2011-04-24T10:17:58Z</time>
<desc>lat.=22.337831, lon.=103.778664, Alt.=2075.908203m. Speed=3.528000m/h.</desc>
<speed>0.980000</speed>
</trkpt>
<trkpt lat="22.337847" lon="103.778625">
<ele>2077.283203</ele>
<time>2011-04-24T10:18:03Z</time>
<desc>lat.=22.337847, lon.=103.778625, Alt.=2077.283203m. Speed=2.016000m/h.</desc>
<speed>0.560000</speed>
</trkpt>
<trkpt lat="22.337860" lon="103.778610">
<ele>2077.908203</ele>
<time>2011-04-24T10:18:08Z</time>
<desc>lat.=22.337860, lon.=103.778610, Alt.=2077.908203m. Speed=0.828000m/h.</desc>
<speed>0.230000</speed>
</trkpt>
<trkpt lat="22.337872" lon="103.778610">
<ele>2078.345703</ele>
<time>2011-04-24T10:18:13Z</time>
<desc>lat.=22.337872, lon.=103.778610, Alt.=2078.345703m. Speed=0.900000m/h.</desc>
<speed>0.250000</speed>
</trkpt>
<trkpt lat="22.337887" lon="103.778595">
<ele>2078.845703</ele>
<time>2011-04-24T10:18:18Z</time>
<desc>lat.=22.337887, lon.=103.778595, Alt.=2078.845703m. Speed=2.268000m/h.</desc>
<speed>0.630000</speed>
</trkpt>
<trkpt lat="22.337893" lon="103.778580">
<ele>2079.408203</ele>
<time>2011-04-24T10:18:23Z</time>
<desc>lat.=22.337893, lon.=103.778580, Alt.=2079.408203m. Speed=1.656000m/h.</desc>
<speed>0.460000</speed>
</trkpt>
<trkpt lat="22.337923" lon="103.778572">
<ele>2080.283203</ele>
<time>2011-04-24T10:18:28Z</time>
<desc>lat.=22.337923, lon.=103.778572, Alt.=2080.283203m. Speed=2.304000m/h.</desc>
<speed>0.640000</speed>
</trkpt>
<trkpt lat="22.337955" lon="103.778572">
<ele>2081.095703</ele>
<time>2011-04-24T10:18:33Z</time>
<desc>lat.=22.337955, lon.=103.778572, Alt.=2081.095703m. Speed=2.520000m/h.</desc>
<speed>0.700000</speed>
</trkpt>
<trkpt lat="22.337997" lon="103.778564">
<ele>2081.720703</ele>
<time>2011-04-24T10:18:38Z</time>
<desc>lat.=22.337997, lon.=103.778564, Alt.=2081.720703m. Speed=3.168000m/h.</desc>
<speed>0.880000</speed>
</trkpt>
<trkpt lat="22.337984" lon="103.778580">
<ele>2081.095703</ele>
<time>2011-04-24T10:18:43Z</time>
<desc>lat.=22.337984, lon.=103.778580, Alt.=2081.095703m. Speed=0.540000m/h.</desc>
<speed>0.150000</speed>
</trkpt>
<trkpt lat="22.338024" lon="103.778519">
<ele>2079.158203</ele>
<time>2011-04-24T10:18:48Z</time>
<desc>lat.=22.338024, lon.=103.778519, Alt.=2079.158203m. Speed=1.944000m/h.</desc>
<speed>0.540000</speed>
</trkpt>
<trkpt lat="22.338049" lon="103.778503">
<ele>2079.345703</ele>
<time>2011-04-24T10:18:53Z</time>
<desc>lat.=22.338049, lon.=103.778503, Alt.=2079.345703m. Speed=2.196000m/h.</desc>
<speed>0.610000</speed>
</trkpt>
<trkpt lat="22.338093" lon="103.778458">
<ele>2079.158203</ele>
<time>2011-04-24T10:18:58Z</time>
<desc>lat.=22.338093, lon.=103.778458, Alt.=2079.158203m. Speed=4.248000m/h.</desc>
<speed>1.180000</speed>
</trkpt>
<trkpt lat="22.338120" lon="103.778427">
<ele>2078.158203</ele>
<time>2011-04-24T10:19:03Z</time>
<desc>lat.=22.338120, lon.=103.778427, Alt.=2078.158203m. Speed=4.428000m/h.</desc>
<speed>1.230000</speed>
</trkpt>
<trkpt lat="22.338156" lon="103.778381">
<ele>2075.908203</ele>
<time>2011-04-24T10:19:08Z</time>
<desc>lat.=22.338156, lon.=103.778381, Alt.=2075.908203m. Speed=5.724000m/h.</desc>
<speed>1.590000</speed>
</trkpt>
<trkpt lat="22.338156" lon="103.778313">
<ele>2075.095703</ele>
<time>2011-04-24T10:19:13Z</time>
<desc>lat.=22.338156, lon.=103.778313, Alt.=2075.095703m. Speed=2.628000m/h.</desc>
<speed>0.730000</speed>
</trkpt>
<trkpt lat="22.338148" lon="103.778267">
<ele>2073.533203</ele>
<time>2011-04-24T10:19:18Z</time>
<desc>lat.=22.338148, lon.=103.778267, Alt.=2073.533203m. Speed=2.160000m/h.</desc>
<speed>0.600000</speed>
</trkpt>
<trkpt lat="22.338158" lon="103.778229">
<ele>2074.220703</ele>
<time>2011-04-24T10:19:23Z</time>
<desc>lat.=22.338158, lon.=103.778229, Alt.=2074.220703m. Speed=1.764000m/h.</desc>
<speed>0.490000</speed>
</trkpt>
<trkpt lat="22.338179" lon="103.778206">
<ele>2073.658203</ele>
<time>2011-04-24T10:19:28Z</time>
<desc>lat.=22.338179, lon.=103.778206, Alt.=2073.658203m. Speed=1.656000m/h.</desc>
<speed>0.460000</speed>
</trkpt>
<trkpt lat="22.338205" lon="103.778160">
<ele>2072.908203</ele>
<time>2011-04-24T10:19:33Z</time>
<desc>lat.=22.338205, lon.=103.778160, Alt.=2072.908203m. Speed=2.304000m/h.</desc>
<speed>0.640000</speed>
</trkpt>
<trkpt lat="22.338192" lon="103.778122">
<ele>2072.658203</ele>
<time>2011-04-24T10:19:38Z</time>
<desc>lat.=22.338192, lon.=103.778122, Alt.=2072.658203m. Speed=3.132000m/h.</desc>
<speed>0.870000</speed>
</trkpt>
<trkpt lat="22.338194" lon="103.778061">
<ele>2071.283203</ele>
<time>2011-04-24T10:19:43Z</time>
<desc>lat.=22.338194, lon.=103.778061, Alt.=2071.283203m. Speed=3.312000m/h.</desc>
<speed>0.920000</speed>
</trkpt>
<trkpt lat="22.338175" lon="103.778008">
<ele>2070.783203</ele>
<time>2011-04-24T10:19:48Z</time>
<desc>lat.=22.338175, lon.=103.778008, Alt.=2070.783203m. Speed=4.500000m/h.</desc>
<speed>1.250000</speed>
</trkpt>
<trkpt lat="22.338139" lon="103.777985">
<ele>2070.783203</ele>
<time>2011-04-24T10:19:53Z</time>
<desc>lat.=22.338139, lon.=103.777985, Alt.=2070.783203m. Speed=3.528000m/h.</desc>
<speed>0.980000</speed>
</trkpt>
<trkpt lat="22.338127" lon="103.777946">
<ele>2071.095703</ele>
<time>2011-04-24T10:19:58Z</time>
<desc>lat.=22.338127, lon.=103.777946, Alt.=2071.095703m. Speed=1.188000m/h.</desc>
<speed>0.330000</speed>
</trkpt>
<trkpt lat="22.338137" lon="103.777931">
<ele>2071.158203</ele>
<time>2011-04-24T10:20:03Z</time>
<desc>lat.=22.338137, lon.=103.777931, Alt.=2071.158203m. Speed=1.692000m/h.</desc>
<speed>0.470000</speed>
</trkpt>
<trkpt lat="22.338121" lon="103.777939">
<ele>2071.158203</ele>
<time>2011-04-24T10:20:08Z</time>
<desc>lat.=22.338121, lon.=103.777939, Alt.=2071.158203m. Speed=0.864000m/h.</desc>
<speed>0.240000</speed>
</trkpt>
<trkpt lat="22.338104" lon="103.777931">
<ele>2071.345703</ele>
<time>2011-04-24T10:20:13Z</time>
<desc>lat.=22.338104, lon.=103.777931, Alt.=2071.345703m. Speed=2.052000m/h.</desc>
<speed>0.570000</speed>
</trkpt>
<trkpt lat="22.338093" lon="103.777855">
<ele>2071.158203</ele>
<time>2011-04-24T10:20:18Z</time>
<desc>lat.=22.338093, lon.=103.777855, Alt.=2071.158203m. Speed=6.408000m/h.</desc>
<speed>1.780000</speed>
</trkpt>
<trkpt lat="22.338097" lon="103.777802">
<ele>2071.595703</ele>
<time>2011-04-24T10:20:23Z</time>
<desc>lat.=22.338097, lon.=103.777802, Alt.=2071.595703m. Speed=0.360000m/h.</desc>
<speed>0.100000</speed>
</trkpt>
<trkpt lat="22.338099" lon="103.777794">
<ele>2071.408203</ele>
<time>2011-04-24T10:20:28Z</time>
<desc>lat.=22.338099, lon.=103.777794, Alt.=2071.408203m. Speed=1.152000m/h.</desc>
<speed>0.320000</speed>
</trkpt>
<trkpt lat="22.338085" lon="103.777794">
<ele>2072.220703</ele>
<time>2011-04-24T10:20:33Z</time>
<desc>lat.=22.338085, lon.=103.777794, Alt.=2072.220703m. Speed=1.260000m/h.</desc>
<speed>0.350000</speed>
</trkpt>
<trkpt lat="22.338079" lon="103.777786">
<ele>2073.408203</ele>
<time>2011-04-24T10:20:38Z</time>
<desc>lat.=22.338079, lon.=103.777786, Alt.=2073.408203m. Speed=2.808000m/h.</desc>
<speed>0.780000</speed>
</trkpt>
<trkpt lat="22.338087" lon="103.777748">
<ele>2074.845703</ele>
<time>2011-04-24T10:20:43Z</time>
<desc>lat.=22.338087, lon.=103.777748, Alt.=2074.845703m. Speed=3.096000m/h.</desc>
<speed>0.860000</speed>
</trkpt>
<trkpt lat="22.338099" lon="103.777718">
<ele>2076.220703</ele>
<time>2011-04-24T10:20:48Z</time>
<desc>lat.=22.338099, lon.=103.777718, Alt.=2076.220703m. Speed=3.132000m/h.</desc>
<speed>0.870000</speed>
</trkpt>
<trkpt lat="22.338118" lon="103.777702">
<ele>2079.595703</ele>
<time>2011-04-24T10:20:53Z</time>
<desc>lat.=22.338118, lon.=103.777702, Alt.=2079.595703m. Speed=1.224000m/h.</desc>
<speed>0.340000</speed>
</trkpt>
<trkpt lat="22.338121" lon="103.777672">
<ele>2080.220703</ele>
<time>2011-04-24T10:20:58Z</time>
<desc>lat.=22.338121, lon.=103.777672, Alt.=2080.220703m. Speed=4.428000m/h.</desc>
<speed>1.230000</speed>
</trkpt>
<trkpt lat="22.338137" lon="103.777618">
<ele>2081.158203</ele>
<time>2011-04-24T10:21:03Z</time>
<desc>lat.=22.338137, lon.=103.777618, Alt.=2081.158203m. Speed=3.204000m/h.</desc>
<speed>0.890000</speed>
</trkpt>
<trkpt lat="22.338140" lon="103.777573">
<ele>2082.970703</ele>
<time>2011-04-24T10:21:08Z</time>
<desc>lat.=22.338140, lon.=103.777573, Alt.=2082.970703m. Speed=3.132000m/h.</desc>
<speed>0.870000</speed>
</trkpt>
<trkpt lat="22.338165" lon="103.777512">
<ele>2083.845703</ele>
<time>2011-04-24T10:21:13Z</time>
<desc>lat.=22.338165, lon.=103.777512, Alt.=2083.845703m. Speed=2.592000m/h.</desc>
<speed>0.720000</speed>
</trkpt>
<trkpt lat="22.338173" lon="103.777458">
<ele>2082.908203</ele>
<time>2011-04-24T10:21:18Z</time>
<desc>lat.=22.338173, lon.=103.777458, Alt.=2082.908203m. Speed=4.068000m/h.</desc>
<speed>1.130000</speed>
</trkpt>
<trkpt lat="22.338179" lon="103.777412">
<ele>2083.158203</ele>
<time>2011-04-24T10:21:23Z</time>
<desc>lat.=22.338179, lon.=103.777412, Alt.=2083.158203m. Speed=2.484000m/h.</desc>
<speed>0.690000</speed>
</trkpt>
<trkpt lat="22.338181" lon="103.777359">
<ele>2083.845703</ele>
<time>2011-04-24T10:21:28Z</time>
<desc>lat.=22.338181, lon.=103.777359, Alt.=2083.845703m. Speed=3.744000m/h.</desc>
<speed>1.040000</speed>
</trkpt>
<trkpt lat="22.338202" lon="103.777313">
<ele>2083.470703</ele>
<time>2011-04-24T10:21:33Z</time>
<desc>lat.=22.338202, lon.=103.777313, Alt.=2083.470703m. Speed=4.464000m/h.</desc>
<speed>1.240000</speed>
</trkpt>
<trkpt lat="22.338215" lon="103.777252">
<ele>2083.158203</ele>
<time>2011-04-24T10:21:38Z</time>
<desc>lat.=22.338215, lon.=103.777252, Alt.=2083.158203m. Speed=2.268000m/h.</desc>
<speed>0.630000</speed>
</trkpt>
<trkpt lat="22.338207" lon="103.777168">
<ele>2080.783203</ele>
<time>2011-04-24T10:21:43Z</time>
<desc>lat.=22.338207, lon.=103.777168, Alt.=2080.783203m. Speed=1.908000m/h.</desc>
<speed>0.530000</speed>
</trkpt>
<trkpt lat="22.338230" lon="103.777145">
<ele>2080.658203</ele>
<time>2011-04-24T10:21:48Z</time>
<desc>lat.=22.338230, lon.=103.777145, Alt.=2080.658203m. Speed=1.188000m/h.</desc>
<speed>0.330000</speed>
</trkpt>
<trkpt lat="22.338261" lon="103.777130">
<ele>2081.595703</ele>
<time>2011-04-24T10:21:53Z</time>
<desc>lat.=22.338261, lon.=103.777130, Alt.=2081.595703m. Speed=2.520000m/h.</desc>
<speed>0.700000</speed>
</trkpt>
<trkpt lat="22.338285" lon="103.777100">
<ele>2082.408203</ele>
<time>2011-04-24T10:21:58Z</time>
<desc>lat.=22.338285, lon.=103.777100, Alt.=2082.408203m. Speed=2.052000m/h.</desc>
<speed>0.570000</speed>
</trkpt>
<trkpt lat="22.338282" lon="103.777069">
<ele>2083.220703</ele>
<time>2011-04-24T10:22:03Z</time>
<desc>lat.=22.338282, lon.=103.777069, Alt.=2083.220703m. Speed=1.116000m/h.</desc>
<speed>0.310000</speed>
</trkpt>
<trkpt lat="22.338264" lon="103.777016">
<ele>2083.595703</ele>
<time>2011-04-24T10:22:08Z</time>
<desc>lat.=22.338264, lon.=103.777016, Alt.=2083.595703m. Speed=2.124000m/h.</desc>
<speed>0.590000</speed>
</trkpt>
<trkpt lat="22.338247" lon="103.776978">
<ele>2084.095703</ele>
<time>2011-04-24T10:22:13Z</time>
<desc>lat.=22.338247, lon.=103.776978, Alt.=2084.095703m. Speed=3.852000m/h.</desc>
<speed>1.070000</speed>
</trkpt>
<trkpt lat="22.338238" lon="103.776939">
<ele>2084.408203</ele>
<time>2011-04-24T10:22:18Z</time>
<desc>lat.=22.338238, lon.=103.776939, Alt.=2084.408203m. Speed=2.016000m/h.</desc>
<speed>0.560000</speed>
</trkpt>
<trkpt lat="22.338221" lon="103.776947">
<ele>2085.283203</ele>
<time>2011-04-24T10:22:23Z</time>
<desc>lat.=22.338221, lon.=103.776947, Alt.=2085.283203m. Speed=0.972000m/h.</desc>
<speed>0.270000</speed>
</trkpt>
<trkpt lat="22.338226" lon="103.776932">
<ele>2085.845703</ele>
<time>2011-04-24T10:22:28Z</time>
<desc>lat.=22.338226, lon.=103.776932, Alt.=2085.845703m. Speed=2.772000m/h.</desc>
<speed>0.770000</speed>
</trkpt>
<trkpt lat="22.338276" lon="103.776901">
<ele>2086.595703</ele>
<time>2011-04-24T10:22:33Z</time>
<desc>lat.=22.338276, lon.=103.776901, Alt.=2086.595703m. Speed=2.340000m/h.</desc>
<speed>0.650000</speed>
</trkpt>
<trkpt lat="22.338284" lon="103.776886">
<ele>2087.595703</ele>
<time>2011-04-24T10:22:38Z</time>
<desc>lat.=22.338284, lon.=103.776886, Alt.=2087.595703m. Speed=0.828000m/h.</desc>
<speed>0.230000</speed>
</trkpt>
<trkpt lat="22.338354" lon="103.776840">
<ele>2088.470703</ele>
<time>2011-04-24T10:22:43Z</time>
<desc>lat.=22.338354, lon.=103.776840, Alt.=2088.470703m. Speed=1.368000m/h.</desc>
<speed>0.380000</speed>
</trkpt>
<trkpt lat="22.338390" lon="103.776817">
<ele>2088.845703</ele>
<time>2011-04-24T10:22:48Z</time>
<desc>lat.=22.338390, lon.=103.776817, Alt.=2088.845703m. Speed=2.664000m/h.</desc>
<speed>0.740000</speed>
</trkpt>
<trkpt lat="22.338436" lon="103.776787">
<ele>2089.533203</ele>
<time>2011-04-24T10:22:53Z</time>
<desc>lat.=22.338436, lon.=103.776787, Alt.=2089.533203m. Speed=3.996000m/h.</desc>
<speed>1.110000</speed>
</trkpt>
<trkpt lat="22.338455" lon="103.776741">
<ele>2090.408203</ele>
<time>2011-04-24T10:22:58Z</time>
<desc>lat.=22.338455, lon.=103.776741, Alt.=2090.408203m. Speed=0.900000m/h.</desc>
<speed>0.250000</speed>
</trkpt>
<trkpt lat="22.338497" lon="103.776703">
<ele>2090.783203</ele>
<time>2011-04-24T10:23:03Z</time>
<desc>lat.=22.338497, lon.=103.776703, Alt.=2090.783203m. Speed=5.472000m/h.</desc>
<speed>1.520000</speed>
</trkpt>
<trkpt lat="22.338560" lon="103.776718">
<ele>2090.595703</ele>
<time>2011-04-24T10:23:08Z</time>
<desc>lat.=22.338560, lon.=103.776718, Alt.=2090.595703m. Speed=3.348000m/h.</desc>
<speed>0.930000</speed>
</trkpt>
<trkpt lat="22.338598" lon="103.776688">
<ele>2090.408203</ele>
<time>2011-04-24T10:23:13Z</time>
<desc>lat.=22.338598, lon.=103.776688, Alt.=2090.408203m. Speed=5.364000m/h.</desc>
<speed>1.490000</speed>
</trkpt>
<trkpt lat="22.338671" lon="103.776703">
<ele>2089.095703</ele>
<time>2011-04-24T10:23:18Z</time>
<desc>lat.=22.338671, lon.=103.776703, Alt.=2089.095703m. Speed=3.672000m/h.</desc>
<speed>1.020000</speed>
</trkpt>
<trkpt lat="22.338703" lon="103.776680">
<ele>2089.220703</ele>
<time>2011-04-24T10:23:23Z</time>
<desc>lat.=22.338703, lon.=103.776680, Alt.=2089.220703m. Speed=3.564000m/h.</desc>
<speed>0.990000</speed>
</trkpt>
<trkpt lat="22.338705" lon="103.776665">
<ele>2088.970703</ele>
<time>2011-04-24T10:23:28Z</time>
<desc>lat.=22.338705, lon.=103.776665, Alt.=2088.970703m. Speed=0.792000m/h.</desc>
<speed>0.220000</speed>
</trkpt>
<trkpt lat="22.338718" lon="103.776649">
<ele>2088.408203</ele>
<time>2011-04-24T10:23:33Z</time>
<desc>lat.=22.338718, lon.=103.776649, Alt.=2088.408203m. Speed=3.132000m/h.</desc>
<speed>0.870000</speed>
</trkpt>
<trkpt lat="22.338745" lon="103.776634">
<ele>2087.845703</ele>
<time>2011-04-24T10:23:38Z</time>
<desc>lat.=22.338745, lon.=103.776634, Alt.=2087.845703m. Speed=2.160000m/h.</desc>
<speed>0.600000</speed>
</trkpt>
<trkpt lat="22.338760" lon="103.776634">
<ele>2087.158203</ele>
<time>2011-04-24T10:23:43Z</time>
<desc>lat.=22.338760, lon.=103.776634, Alt.=2087.158203m. Speed=3.060000m/h.</desc>
<speed>0.850000</speed>
</trkpt>
<trkpt lat="22.338793" lon="103.776619">
<ele>2084.845703</ele>
<time>2011-04-24T10:23:48Z</time>
<desc>lat.=22.338793, lon.=103.776619, Alt.=2084.845703m. Speed=3.924000m/h.</desc>
<speed>1.090000</speed>
</trkpt>
<trkpt lat="22.338827" lon="103.776596">
<ele>2080.220703</ele>
<time>2011-04-24T10:23:53Z</time>
<desc>lat.=22.338827, lon.=103.776596, Alt.=2080.220703m. Speed=1.224000m/h.</desc>
<speed>0.340000</speed>
</trkpt>
<trkpt lat="22.338837" lon="103.776566">
<ele>2077.720703</ele>
<time>2011-04-24T10:23:58Z</time>
<desc>lat.=22.338837, lon.=103.776566, Alt.=2077.720703m. Speed=3.780000m/h.</desc>
<speed>1.050000</speed>
</trkpt>
<trkpt lat="22.338850" lon="103.776535">
<ele>2076.408203</ele>
<time>2011-04-24T10:24:03Z</time>
<desc>lat.=22.338850, lon.=103.776535, Alt.=2076.408203m. Speed=1.656000m/h.</desc>
<speed>0.460000</speed>
</trkpt>
<trkpt lat="22.338856" lon="103.776505">
<ele>2074.533203</ele>
<time>2011-04-24T10:24:08Z</time>
<desc>lat.=22.338856, lon.=103.776505, Alt.=2074.533203m. Speed=0.684000m/h.</desc>
<speed>0.190000</speed>
</trkpt>
<trkpt lat="22.338856" lon="103.776489">
<ele>2074.533203</ele>
<time>2011-04-24T10:24:13Z</time>
<desc>lat.=22.338856, lon.=103.776489, Alt.=2074.533203m. Speed=1.080000m/h.</desc>
<speed>0.300000</speed>
</trkpt>
<trkpt lat="22.338881" lon="103.776466">
<ele>2073.470703</ele>
<time>2011-04-24T10:24:18Z</time>
<desc>lat.=22.338881, lon.=103.776466, Alt.=2073.470703m. Speed=1.764000m/h.</desc>
<speed>0.490000</speed>
</trkpt>
<trkpt lat="22.338888" lon="103.776459">
<ele>2073.095703</ele>
<time>2011-04-24T10:24:23Z</time>
<desc>lat.=22.338888, lon.=103.776459, Alt.=2073.095703m. Speed=1.044000m/h.</desc>
<speed>0.290000</speed>
</trkpt>
<trkpt lat="22.338890" lon="103.776428">
<ele>2073.220703</ele>
<time>2011-04-24T10:24:28Z</time>
<desc>lat.=22.338890, lon.=103.776428, Alt.=2073.220703m. Speed=0.216000m/h.</desc>
<speed>0.060000</speed>
</trkpt>
<trkpt lat="22.338884" lon="103.776421">
<ele>2073.908203</ele>
<time>2011-04-24T10:24:33Z</time>
<desc>lat.=22.338884, lon.=103.776421, Alt.=2073.908203m. Speed=0.144000m/h.</desc>
<speed>0.040000</speed>
</trkpt>
<trkpt lat="22.338882" lon="103.776421">
<ele>2073.845703</ele>
<time>2011-04-24T10:24:38Z</time>
<desc>lat.=22.338882, lon.=103.776421, Alt.=2073.845703m. Speed=0.972000m/h.</desc>
<speed>0.270000</speed>
</trkpt>
<trkpt lat="22.338869" lon="103.776405">
<ele>2074.158203</ele>
<time>2011-04-24T10:24:43Z</time>
<desc>lat.=22.338869, lon.=103.776405, Alt.=2074.158203m. Speed=1.656000m/h.</desc>
<speed>0.460000</speed>
</trkpt>
<trkpt lat="22.338858" lon="103.776367">
<ele>2073.158203</ele>
<time>2011-04-24T10:24:48Z</time>
<desc>lat.=22.338858, lon.=103.776367, Alt.=2073.158203m. Speed=1.584000m/h.</desc>
<speed>0.440000</speed>
</trkpt>
<trkpt lat="22.338856" lon="103.776329">
<ele>2072.158203</ele>
<time>2011-04-24T10:24:53Z</time>
<desc>lat.=22.338856, lon.=103.776329, Alt.=2072.158203m. Speed=2.916000m/h.</desc>
<speed>0.810000</speed>
</trkpt>
<trkpt lat="22.338898" lon="103.776276">
<ele>2071.720703</ele>
<time>2011-04-24T10:24:58Z</time>
<desc>lat.=22.338898, lon.=103.776276, Alt.=2071.720703m. Speed=5.436000m/h.</desc>
<speed>1.510000</speed>
</trkpt>
<trkpt lat="22.338955" lon="103.776276">
<ele>2071.345703</ele>
<time>2011-04-24T10:25:03Z</time>
<desc>lat.=22.338955, lon.=103.776276, Alt.=2071.345703m. Speed=3.456000m/h.</desc>
<speed>0.960000</speed>
</trkpt>
<trkpt lat="22.338976" lon="103.776260">
<ele>2070.595703</ele>
<time>2011-04-24T10:25:08Z</time>
<desc>lat.=22.338976, lon.=103.776260, Alt.=2070.595703m. Speed=0.756000m/h.</desc>
<speed>0.210000</speed>
</trkpt>
<trkpt lat="22.338970" lon="103.776260">
<ele>2070.283203</ele>
<time>2011-04-24T10:25:13Z</time>
<desc>lat.=22.338970, lon.=103.776260, Alt.=2070.283203m. Speed=2.844000m/h.</desc>
<speed>0.790000</speed>
</trkpt>
<trkpt lat="22.338959" lon="103.776260">
<ele>2069.720703</ele>
<time>2011-04-24T10:25:18Z</time>
<desc>lat.=22.338959, lon.=103.776260, Alt.=2069.720703m. Speed=0.972000m/h.</desc>
<speed>0.270000</speed>
</trkpt>
<trkpt lat="22.338974" lon="103.776245">
<ele>2069.220703</ele>
<time>2011-04-24T10:25:23Z</time>
<desc>lat.=22.338974, lon.=103.776245, Alt.=2069.220703m. Speed=0.540000m/h.</desc>
<speed>0.150000</speed>
</trkpt>
<trkpt lat="22.338976" lon="103.776245">
<ele>2068.845703</ele>
<time>2011-04-24T10:25:28Z</time>
<desc>lat.=22.338976, lon.=103.776245, Alt.=2068.845703m. Speed=0.684000m/h.</desc>
<speed>0.190000</speed>
</trkpt>
<trkpt lat="22.338980" lon="103.776222">
<ele>2069.533203</ele>
<time>2011-04-24T10:25:33Z</time>
<desc>lat.=22.338980, lon.=103.776222, Alt.=2069.533203m. Speed=0.108000m/h.</desc>
<speed>0.030000</speed>
</trkpt>
<trkpt lat="22.338989" lon="103.776184">
<ele>2068.220703</ele>
<time>2011-04-24T10:25:38Z</time>
<desc>lat.=22.338989, lon.=103.776184, Alt.=2068.220703m. Speed=1.620000m/h.</desc>
<speed>0.450000</speed>
</trkpt>
<trkpt lat="22.338995" lon="103.776154">
<ele>2066.408203</ele>
<time>2011-04-24T10:25:43Z</time>
<desc>lat.=22.338995, lon.=103.776154, Alt.=2066.408203m. Speed=0.864000m/h.</desc>
<speed>0.240000</speed>
</trkpt>
<trkpt lat="22.338997" lon="103.776146">
<ele>2066.220703</ele>
<time>2011-04-24T10:25:48Z</time>
<desc>lat.=22.338997, lon.=103.776146, Alt.=2066.220703m. Speed=1.080000m/h.</desc>
<speed>0.300000</speed>
</trkpt>
<trkpt lat="22.338997" lon="103.776131">
<ele>2066.158203</ele>
<time>2011-04-24T10:25:53Z</time>
<desc>lat.=22.338997, lon.=103.776131, Alt.=2066.158203m. Speed=1.224000m/h.</desc>
<speed>0.340000</speed>
</trkpt>
<trkpt lat="22.339012" lon="103.776146">
<ele>2065.783203</ele>
<time>2011-04-24T10:25:58Z</time>
<desc>lat.=22.339012, lon.=103.776146, Alt.=2065.783203m. Speed=2.232000m/h.</desc>
<speed>0.620000</speed>
</trkpt>
<trkpt lat="22.339037" lon="103.776115">
<ele>2066.158203</ele>
<time>2011-04-24T10:26:03Z</time>
<desc>lat.=22.339037, lon.=103.776115, Alt.=2066.158203m. Speed=4.320000m/h.</desc>
<speed>1.200000</speed>
</trkpt>
<trkpt lat="22.339079" lon="103.776047">
<ele>2067.033203</ele>
<time>2011-04-24T10:26:08Z</time>
<desc>lat.=22.339079, lon.=103.776047, Alt.=2067.033203m. Speed=5.004000m/h.</desc>
<speed>1.390000</speed>
</trkpt>
<trkpt lat="22.339123" lon="103.776031">
<ele>2067.595703</ele>
<time>2011-04-24T10:26:13Z</time>
<desc>lat.=22.339123, lon.=103.776031, Alt.=2067.595703m. Speed=2.340000m/h.</desc>
<speed>0.650000</speed>
</trkpt>
<trkpt lat="22.339149" lon="103.776031">
<ele>2066.533203</ele>
<time>2011-04-24T10:26:18Z</time>
<desc>lat.=22.339149, lon.=103.776031, Alt.=2066.533203m. Speed=3.312000m/h.</desc>
<speed>0.920000</speed>
</trkpt>
<trkpt lat="22.339190" lon="103.776009">
<ele>2067.470703</ele>
<time>2011-04-24T10:26:23Z</time>
<desc>lat.=22.339190, lon.=103.776009, Alt.=2067.470703m. Speed=3.096000m/h.</desc>
<speed>0.860000</speed>
</trkpt>
<trkpt lat="22.339237" lon="103.776016">
<ele>2066.845703</ele>
<time>2011-04-24T10:26:28Z</time>
<desc>lat.=22.339237, lon.=103.776016, Alt.=2066.845703m. Speed=4.500000m/h.</desc>
<speed>1.250000</speed>
</trkpt>
<trkpt lat="22.339264" lon="103.775978">
<ele>2067.783203</ele>
<time>2011-04-24T10:26:33Z</time>
<desc>lat.=22.339264, lon.=103.775978, Alt.=2067.783203m. Speed=1.764000m/h.</desc>
<speed>0.490000</speed>
</trkpt>
<trkpt lat="22.339308" lon="103.775940">
<ele>2069.095703</ele>
<time>2011-04-24T10:26:38Z</time>
<desc>lat.=22.339308, lon.=103.775940, Alt.=2069.095703m. Speed=3.996000m/h.</desc>
<speed>1.110000</speed>
</trkpt>
<trkpt lat="22.339334" lon="103.775902">
<ele>2067.970703</ele>
<time>2011-04-24T10:26:43Z</time>
<desc>lat.=22.339334, lon.=103.775902, Alt.=2067.970703m. Speed=3.780000m/h.</desc>
<speed>1.050000</speed>
</trkpt>
<trkpt lat="22.339361" lon="103.775879">
<ele>2067.658203</ele>
<time>2011-04-24T10:26:48Z</time>
<desc>lat.=22.339361, lon.=103.775879, Alt.=2067.658203m. Speed=1.368000m/h.</desc>
<speed>0.380000</speed>
</trkpt>
<trkpt lat="22.339376" lon="103.775856">
<ele>2067.283203</ele>
<time>2011-04-24T10:26:53Z</time>
<desc>lat.=22.339376, lon.=103.775856, Alt.=2067.283203m. Speed=3.168000m/h.</desc>
<speed>0.880000</speed>
</trkpt>
<trkpt lat="22.339401" lon="103.775841">
<ele>2066.970703</ele>
<time>2011-04-24T10:26:58Z</time>
<desc>lat.=22.339401, lon.=103.775841, Alt.=2066.970703m. Speed=1.368000m/h.</desc>
<speed>0.380000</speed>
</trkpt>
<trkpt lat="22.339430" lon="103.775826">
<ele>2067.783203</ele>
<time>2011-04-24T10:27:03Z</time>
<desc>lat.=22.339430, lon.=103.775826, Alt.=2067.783203m. Speed=2.592000m/h.</desc>
<speed>0.720000</speed>
</trkpt>
<trkpt lat="22.339430" lon="103.775818">
<ele>2066.658203</ele>
<time>2011-04-24T10:27:08Z</time>
<desc>lat.=22.339430, lon.=103.775818, Alt.=2066.658203m. Speed=1.908000m/h.</desc>
<speed>0.530000</speed>
</trkpt>
<trkpt lat="22.339445" lon="103.775826">
<ele>2065.408203</ele>
<time>2011-04-24T10:27:13Z</time>
<desc>lat.=22.339445, lon.=103.775826, Alt.=2065.408203m. Speed=2.844000m/h.</desc>
<speed>0.790000</speed>
</trkpt>
<trkpt lat="22.339466" lon="103.775833">
<ele>2065.220703</ele>
<time>2011-04-24T10:27:18Z</time>
<desc>lat.=22.339466, lon.=103.775833, Alt.=2065.220703m. Speed=0.360000m/h.</desc>
<speed>0.100000</speed>
</trkpt>
<trkpt lat="22.339481" lon="103.775841">
<ele>2064.845703</ele>
<time>2011-04-24T10:27:23Z</time>
<desc>lat.=22.339481, lon.=103.775841, Alt.=2064.845703m. Speed=1.620000m/h.</desc>
<speed>0.450000</speed>
</trkpt>
<trkpt lat="22.339495" lon="103.775833">
<ele>2064.845703</ele>
<time>2011-04-24T10:27:28Z</time>
<desc>lat.=22.339495, lon.=103.775833, Alt.=2064.845703m. Speed=1.188000m/h.</desc>
<speed>0.330000</speed>
</trkpt>
<trkpt lat="22.339512" lon="103.775841">
<ele>2064.158203</ele>
<time>2011-04-24T10:27:33Z</time>
<desc>lat.=22.339512, lon.=103.775841, Alt.=2064.158203m. Speed=1.008000m/h.</desc>
<speed>0.280000</speed>
</trkpt>
<trkpt lat="22.339533" lon="103.775841">
<ele>2063.845703</ele>
<time>2011-04-24T10:27:38Z</time>
<desc>lat.=22.339533, lon.=103.775841, Alt.=2063.845703m. Speed=2.124000m/h.</desc>
<speed>0.590000</speed>
</trkpt>
<trkpt lat="22.339573" lon="103.775856">
<ele>2060.970703</ele>
<time>2011-04-24T10:27:43Z</time>
<desc>lat.=22.339573, lon.=103.775856, Alt.=2060.970703m. Speed=2.988000m/h.</desc>
<speed>0.830000</speed>
</trkpt>
<trkpt lat="22.339613" lon="103.775871">
<ele>2057.908203</ele>
<time>2011-04-24T10:27:48Z</time>
<desc>lat.=22.339613, lon.=103.775871, Alt.=2057.908203m. Speed=3.240000m/h.</desc>
<speed>0.900000</speed>
</trkpt>
<trkpt lat="22.339632" lon="103.775864">
<ele>2056.220703</ele>
<time>2011-04-24T10:27:53Z</time>
<desc>lat.=22.339632, lon.=103.775864, Alt.=2056.220703m. Speed=1.080000m/h.</desc>
<speed>0.300000</speed>
</trkpt>
<trkpt lat="22.339649" lon="103.775864">
<ele>2054.783203</ele>
<time>2011-04-24T10:27:58Z</time>
<desc>lat.=22.339649, lon.=103.775864, Alt.=2054.783203m. Speed=1.836000m/h.</desc>
<speed>0.510000</speed>
</trkpt>
<trkpt lat="22.339668" lon="103.775871">
<ele>2053.533203</ele>
<time>2011-04-24T10:28:03Z</time>
<desc>lat.=22.339668, lon.=103.775871, Alt.=2053.533203m. Speed=1.332000m/h.</desc>
<speed>0.370000</speed>
</trkpt>
<trkpt lat="22.339685" lon="103.775871">
<ele>2052.783203</ele>
<time>2011-04-24T10:28:08Z</time>
<desc>lat.=22.339685, lon.=103.775871, Alt.=2052.783203m. Speed=1.476000m/h.</desc>
<speed>0.410000</speed>
</trkpt>
<trkpt lat="22.339703" lon="103.775879">
<ele>2052.033203</ele>
<time>2011-04-24T10:28:13Z</time>
<desc>lat.=22.339703, lon.=103.775879, Alt.=2052.033203m. Speed=1.332000m/h.</desc>
<speed>0.370000</speed>
</trkpt>
<trkpt lat="22.339699" lon="103.775887">
<ele>2051.595703</ele>
<time>2011-04-24T10:28:18Z</time>
<desc>lat.=22.339699, lon.=103.775887, Alt.=2051.595703m. Speed=0.216000m/h.</desc>
<speed>0.060000</speed>
</trkpt>
<trkpt lat="22.339703" lon="103.775887">
<ele>2051.533203</ele>
<time>2011-04-24T10:28:23Z</time>
<desc>lat.=22.339703, lon.=103.775887, Alt.=2051.533203m. Speed=1.152000m/h.</desc>
<speed>0.320000</speed>
</trkpt>
<trkpt lat="22.339716" lon="103.775887">
<ele>2052.033203</ele>
<time>2011-04-24T10:28:28Z</time>
<desc>lat.=22.339716, lon.=103.775887, Alt.=2052.033203m. Speed=0.936000m/h.</desc>
<speed>0.260000</speed>
</trkpt>
<trkpt lat="22.339724" lon="103.775894">
<ele>2052.095703</ele>
<time>2011-04-24T10:28:33Z</time>
<desc>lat.=22.339724, lon.=103.775894, Alt.=2052.095703m. Speed=0.684000m/h.</desc>
<speed>0.190000</speed>
</trkpt>
<trkpt lat="22.339720" lon="103.775894">
<ele>2051.845703</ele>
<time>2011-04-24T10:28:38Z</time>
<desc>lat.=22.339720, lon.=103.775894, Alt.=2051.845703m. Speed=1.368000m/h.</desc>
<speed>0.380000</speed>
</trkpt>
<trkpt lat="22.339735" lon="103.775894">
<ele>2051.345703</ele>
<time>2011-04-24T10:28:43Z</time>
<desc>lat.=22.339735, lon.=103.775894, Alt.=2051.345703m. Speed=1.080000m/h.</desc>
<speed>0.300000</speed>
</trkpt>
<trkpt lat="22.339769" lon="103.775902">
<ele>2051.095703</ele>
<time>2011-04-24T10:28:48Z</time>
<desc>lat.=22.339769, lon.=103.775902, Alt.=2051.095703m. Speed=4.428000m/h.</desc>
<speed>1.230000</speed>
</trkpt>
<trkpt lat="22.339815" lon="103.775925">
<ele>2051.845703</ele>
<time>2011-04-24T10:28:53Z</time>
<desc>lat.=22.339815, lon.=103.775925, Alt.=2051.845703m. Speed=4.428000m/h.</desc>
<speed>1.230000</speed>
</trkpt>
<trkpt lat="22.339840" lon="103.775925">
<ele>2052.845703</ele>
<time>2011-04-24T10:28:58Z</time>
<desc>lat.=22.339840, lon.=103.775925, Alt.=2052.845703m. Speed=0.468000m/h.</desc>
<speed>0.130000</speed>
</trkpt>
<trkpt lat="22.339853" lon="103.775970">
<ele>2052.158203</ele>
<time>2011-04-24T10:29:03Z</time>
<desc>lat.=22.339853, lon.=103.775970, Alt.=2052.158203m. Speed=1.872000m/h.</desc>
<speed>0.520000</speed>
</trkpt>
<trkpt lat="22.339869" lon="103.775978">
<ele>2052.595703</ele>
<time>2011-04-24T10:29:08Z</time>
<desc>lat.=22.339869, lon.=103.775978, Alt.=2052.595703m. Speed=1.404000m/h.</desc>
<speed>0.390000</speed>
</trkpt>
<trkpt lat="22.339872" lon="103.775993">
<ele>2052.783203</ele>
<time>2011-04-24T10:29:13Z</time>
<desc>lat.=22.339872, lon.=103.775993, Alt.=2052.783203m. Speed=1.044000m/h.</desc>
<speed>0.290000</speed>
</trkpt>
<trkpt lat="22.339901" lon="103.775986">
<ele>2053.033203</ele>
<time>2011-04-24T10:29:18Z</time>
<desc>lat.=22.339901, lon.=103.775986, Alt.=2053.033203m. Speed=3.168000m/h.</desc>
<speed>0.880000</speed>
</trkpt>
<trkpt lat="22.339943" lon="103.775948">
<ele>2052.220703</ele>
<time>2011-04-24T10:29:23Z</time>
<desc>lat.=22.339943, lon.=103.775948, Alt.=2052.220703m. Speed=4.572000m/h.</desc>
<speed>1.270000</speed>
</trkpt>
<trkpt lat="22.339987" lon="103.775940">
<ele>2052.470703</ele>
<time>2011-04-24T10:29:28Z</time>
<desc>lat.=22.339987, lon.=103.775940, Alt.=2052.470703m. Speed=2.340000m/h.</desc>
<speed>0.650000</speed>
</trkpt>
<trkpt lat="22.340002" lon="103.775925">
<ele>2052.220703</ele>
<time>2011-04-24T10:29:33Z</time>
<desc>lat.=22.340002, lon.=103.775925, Alt.=2052.220703m. Speed=0.108000m/h.</desc>
<speed>0.030000</speed>
</trkpt>
<trkpt lat="22.340029" lon="103.775917">
<ele>2052.220703</ele>
<time>2011-04-24T10:29:38Z</time>
<desc>lat.=22.340029, lon.=103.775917, Alt.=2052.220703m. Speed=2.664000m/h.</desc>
<speed>0.740000</speed>
</trkpt>
<trkpt lat="22.340082" lon="103.775940">
<ele>2051.095703</ele>
<time>2011-04-24T10:29:43Z</time>
<desc>lat.=22.340082, lon.=103.775940, Alt.=2051.095703m. Speed=3.240000m/h.</desc>
<speed>0.900000</speed>
</trkpt>
<trkpt lat="22.340120" lon="103.775940">
<ele>2050.845703</ele>
<time>2011-04-24T10:29:48Z</time>
<desc>lat.=22.340120, lon.=103.775940, Alt.=2050.845703m. Speed=1.656000m/h.</desc>
<speed>0.460000</speed>
</trkpt>
<trkpt lat="22.340126" lon="103.775940">
<ele>2049.783203</ele>
<time>2011-04-24T10:29:53Z</time>
<desc>lat.=22.340126, lon.=103.775940, Alt.=2049.783203m. Speed=0.828000m/h.</desc>
<speed>0.230000</speed>
</trkpt>
<trkpt lat="22.340157" lon="103.775963">
<ele>2049.783203</ele>
<time>2011-04-24T10:29:58Z</time>
<desc>lat.=22.340157, lon.=103.775963, Alt.=2049.783203m. Speed=1.260000m/h.</desc>
<speed>0.350000</speed>
</trkpt>
<trkpt lat="22.340155" lon="103.775970">
<ele>2048.908203</ele>
<time>2011-04-24T10:30:03Z</time>
<desc>lat.=22.340155, lon.=103.775970, Alt.=2048.908203m. Speed=0.540000m/h.</desc>
<speed>0.150000</speed>
</trkpt>
<trkpt lat="22.340185" lon="103.775970">
<ele>2048.720703</ele>
<time>2011-04-24T10:30:08Z</time>
<desc>lat.=22.340185, lon.=103.775970, Alt.=2048.720703m. Speed=3.456000m/h.</desc>
<speed>0.960000</speed>
</trkpt>
<trkpt lat="22.340242" lon="103.776016">
<ele>2046.422852</ele>
<time>2011-04-24T10:30:13Z</time>
<desc>lat.=22.340242, lon.=103.776016, Alt.=2046.422852m. Speed=2.160000m/h.</desc>
<speed>0.600000</speed>
</trkpt>
<trkpt lat="22.340265" lon="103.776031">
<ele>2045.266602</ele>
<time>2011-04-24T10:30:18Z</time>
<desc>lat.=22.340265, lon.=103.776031, Alt.=2045.266602m. Speed=1.548000m/h.</desc>
<speed>0.430000</speed>
</trkpt>
<trkpt lat="22.340305" lon="103.776047">
<ele>2044.485352</ele>
<time>2011-04-24T10:30:23Z</time>
<desc>lat.=22.340305, lon.=103.776047, Alt.=2044.485352m. Speed=1.800000m/h.</desc>
<speed>0.500000</speed>
</trkpt>
<trkpt lat="22.340353" lon="103.776062">
<ele>2043.985352</ele>
<time>2011-04-24T10:30:28Z</time>
<desc>lat.=22.340353, lon.=103.776062, Alt.=2043.985352m. Speed=1.620000m/h.</desc>
<speed>0.450000</speed>
</trkpt>
<trkpt lat="22.340380" lon="103.776077">
<ele>2043.391602</ele>
<time>2011-04-24T10:30:33Z</time>
<desc>lat.=22.340380, lon.=103.776077, Alt.=2043.391602m. Speed=1.332000m/h.</desc>
<speed>0.370000</speed>
</trkpt>
<trkpt lat="22.340380" lon="103.776115">
<ele>2041.110352</ele>
<time>2011-04-24T10:30:38Z</time>
<desc>lat.=22.340380, lon.=103.776115, Alt.=2041.110352m. Speed=1.296000m/h.</desc>
<speed>0.360000</speed>
</trkpt>
<trkpt lat="22.340420" lon="103.776115">
<ele>2040.204102</ele>
<time>2011-04-24T10:30:43Z</time>
<desc>lat.=22.340420, lon.=103.776115, Alt.=2040.204102m. Speed=1.224000m/h.</desc>
<speed>0.340000</speed>
</trkpt>
<trkpt lat="22.340460" lon="103.776138">
<ele>2038.579102</ele>
<time>2011-04-24T10:30:48Z</time>
<desc>lat.=22.340460, lon.=103.776138, Alt.=2038.579102m. Speed=2.880000m/h.</desc>
<speed>0.800000</speed>
</trkpt>
<trkpt lat="22.340485" lon="103.776131">
<ele>2037.829102</ele>
<time>2011-04-24T10:30:53Z</time>
<desc>lat.=22.340485, lon.=103.776131, Alt.=2037.829102m. Speed=2.304000m/h.</desc>
<speed>0.640000</speed>
</trkpt>
<trkpt lat="22.340496" lon="103.776108">
<ele>2036.922852</ele>
<time>2011-04-24T10:30:58Z</time>
<desc>lat.=22.340496, lon.=103.776108, Alt.=2036.922852m. Speed=0.828000m/h.</desc>
<speed>0.230000</speed>
</trkpt>
<trkpt lat="22.340511" lon="103.776108">
<ele>2036.172852</ele>
<time>2011-04-24T10:31:03Z</time>
<desc>lat.=22.340511, lon.=103.776108, Alt.=2036.172852m. Speed=1.512000m/h.</desc>
<speed>0.420000</speed>
</trkpt>
<trkpt lat="22.340538" lon="103.776108">
<ele>2035.454102</ele>
<time>2011-04-24T10:31:08Z</time>
<desc>lat.=22.340538, lon.=103.776108, Alt.=2035.454102m. Speed=2.412000m/h.</desc>
<speed>0.670000</speed>
</trkpt>
<trkpt lat="22.340548" lon="103.776108">
<ele>2034.672852</ele>
<time>2011-04-24T10:31:13Z</time>
<desc>lat.=22.340548, lon.=103.776108, Alt.=2034.672852m. Speed=1.080000m/h.</desc>
<speed>0.300000</speed>
</trkpt>
<trkpt lat="22.340559" lon="103.776108">
<ele>2034.391602</ele>
<time>2011-04-24T10:31:18Z</time>
<desc>lat.=22.340559, lon.=103.776108, Alt.=2034.391602m. Speed=0.972000m/h.</desc>
<speed>0.270000</speed>
</trkpt>
<trkpt lat="22.340578" lon="103.776131">
<ele>2033.860352</ele>
<time>2011-04-24T10:31:23Z</time>
<desc>lat.=22.340578, lon.=103.776131, Alt.=2033.860352m. Speed=0.900000m/h.</desc>
<speed>0.250000</speed>
</trkpt>
<trkpt lat="22.340588" lon="103.776131">
<ele>2033.579102</ele>
<time>2011-04-24T10:31:28Z</time>
<desc>lat.=22.340588, lon.=103.776131, Alt.=2033.579102m. Speed=1.116000m/h.</desc>
<speed>0.310000</speed>
</trkpt>
<trkpt lat="22.340630" lon="103.776161">
<ele>2032.672852</ele>
<time>2011-04-24T10:31:33Z</time>
<desc>lat.=22.340630, lon.=103.776161, Alt.=2032.672852m. Speed=1.944000m/h.</desc>
<speed>0.540000</speed>
</trkpt>
<trkpt lat="22.340622" lon="103.776176">
<ele>2031.579102</ele>
<time>2011-04-24T10:31:38Z</time>
<desc>lat.=22.340622, lon.=103.776176, Alt.=2031.579102m. Speed=0.252000m/h.</desc>
<speed>0.070000</speed>
</trkpt>
<trkpt lat="22.340614" lon="103.776199">
<ele>2030.860352</ele>
<time>2011-04-24T10:31:43Z</time>
<desc>lat.=22.340614, lon.=103.776199, Alt.=2030.860352m. Speed=0.108000m/h.</desc>
<speed>0.030000</speed>
</trkpt>
<trkpt lat="22.340616" lon="103.776199">
<ele>2030.297852</ele>
<time>2011-04-24T10:31:48Z</time>
<desc>lat.=22.340616, lon.=103.776199, Alt.=2030.297852m. Speed=1.584000m/h.</desc>
<speed>0.440000</speed>
</trkpt>
<trkpt lat="22.340633" lon="103.776215">
<ele>2028.829102</ele>
<time>2011-04-24T10:31:53Z</time>
<desc>lat.=22.340633, lon.=103.776215, Alt.=2028.829102m. Speed=1.404000m/h.</desc>
<speed>0.390000</speed>
</trkpt>
<trkpt lat="22.340635" lon="103.776222">
<ele>2026.922852</ele>
<time>2011-04-24T10:31:58Z</time>
<desc>lat.=22.340635, lon.=103.776222, Alt.=2026.922852m. Speed=0.432000m/h.</desc>
<speed>0.120000</speed>
</trkpt>
<trkpt lat="22.340628" lon="103.776222">
<ele>2026.766602</ele>
<time>2011-04-24T10:32:03Z</time>
<desc>lat.=22.340628, lon.=103.776222, Alt.=2026.766602m. Speed=0.792000m/h.</desc>
<speed>0.220000</speed>
</trkpt>
<trkpt lat="22.340620" lon="103.776222">
<ele>2026.204102</ele>
<time>2011-04-24T10:32:08Z</time>
<desc>lat.=22.340620, lon.=103.776222, Alt.=2026.204102m. Speed=1.656000m/h.</desc>
<speed>0.460000</speed>
</trkpt>
<trkpt lat="22.340635" lon="103.776207">
<ele>2025.735352</ele>
<time>2011-04-24T10:32:13Z</time>
<desc>lat.=22.340635, lon.=103.776207, Alt.=2025.735352m. Speed=0.864000m/h.</desc>
<speed>0.240000</speed>
</trkpt>
<trkpt lat="22.340662" lon="103.776215">
<ele>2025.329102</ele>
<time>2011-04-24T10:32:18Z</time>
<desc>lat.=22.340662, lon.=103.776215, Alt.=2025.329102m. Speed=2.052000m/h.</desc>
<speed>0.570000</speed>
</trkpt>
<trkpt lat="22.340717" lon="103.776207">
<ele>2024.516602</ele>
<time>2011-04-24T10:32:23Z</time>
<desc>lat.=22.340717, lon.=103.776207, Alt.=2024.516602m. Speed=1.908000m/h.</desc>
<speed>0.530000</speed>
</trkpt>
<trkpt lat="22.340714" lon="103.776207">
<ele>2023.954102</ele>
<time>2011-04-24T10:32:28Z</time>
<desc>lat.=22.340714, lon.=103.776207, Alt.=2023.954102m. Speed=1.224000m/h.</desc>
<speed>0.340000</speed>
</trkpt>
<trkpt lat="22.340748" lon="103.776169">
<ele>2023.266602</ele>
<time>2011-04-24T10:32:33Z</time>
<desc>lat.=22.340748, lon.=103.776169, Alt.=2023.266602m. Speed=1.728000m/h.</desc>
<speed>0.480000</speed>
</trkpt>
<trkpt lat="22.340807" lon="103.776192">
<ele>2022.735352</ele>
<time>2011-04-24T10:32:38Z</time>
<desc>lat.=22.340807, lon.=103.776192, Alt.=2022.735352m. Speed=4.212000m/h.</desc>
<speed>1.170000</speed>
</trkpt>
<trkpt lat="22.340832" lon="103.776222">
<ele>2023.329102</ele>
<time>2011-04-24T10:32:43Z</time>
<desc>lat.=22.340832, lon.=103.776222, Alt.=2023.329102m. Speed=1.620000m/h.</desc>
<speed>0.450000</speed>
</trkpt>
<trkpt lat="22.340845" lon="103.776199">
<ele>2024.485352</ele>
<time>2011-04-24T10:32:48Z</time>
<desc>lat.=22.340845, lon.=103.776199, Alt.=2024.485352m. Speed=2.520000m/h.</desc>
<speed>0.700000</speed>
</trkpt>
<trkpt lat="22.340876" lon="103.776192">
<ele>2025.110352</ele>
<time>2011-04-24T10:32:53Z</time>
<desc>lat.=22.340876, lon.=103.776192, Alt.=2025.110352m. Speed=4.392000m/h.</desc>
<speed>1.220000</speed>
</trkpt>
<trkpt lat="22.340923" lon="103.776176">
<ele>2025.954102</ele>
<time>2011-04-24T10:32:58Z</time>
<desc>lat.=22.340923, lon.=103.776176, Alt.=2025.954102m. Speed=4.212000m/h.</desc>
<speed>1.170000</speed>
</trkpt>
<trkpt lat="22.340963" lon="103.776161">
<ele>2026.422852</ele>
<time>2011-04-24T10:33:03Z</time>
<desc>lat.=22.340963, lon.=103.776161, Alt.=2026.422852m. Speed=4.500000m/h.</desc>
<speed>1.250000</speed>
</trkpt>
<trkpt lat="22.340992" lon="103.776138">
<ele>2027.047852</ele>
<time>2011-04-24T10:33:08Z</time>
<desc>lat.=22.340992, lon.=103.776138, Alt.=2027.047852m. Speed=2.592000m/h.</desc>
<speed>0.720000</speed>
</trkpt>
<trkpt lat="22.341034" lon="103.776161">
<ele>2025.454102</ele>
<time>2011-04-24T10:33:13Z</time>
<desc>lat.=22.341034, lon.=103.776161, Alt.=2025.454102m. Speed=2.088000m/h.</desc>
<speed>0.580000</speed>
</trkpt>
<trkpt lat="22.341074" lon="103.776138">
<ele>2025.766602</ele>
<time>2011-04-24T10:33:18Z</time>
<desc>lat.=22.341074, lon.=103.776138, Alt.=2025.766602m. Speed=4.068000m/h.</desc>
<speed>1.130000</speed>
</trkpt>
<trkpt lat="22.341139" lon="103.776138">
<ele>2026.141602</ele>
<time>2011-04-24T10:33:23Z</time>
<desc>lat.=22.341139, lon.=103.776138, Alt.=2026.141602m. Speed=4.680000m/h.</desc>
<speed>1.300000</speed>
</trkpt>
<trkpt lat="22.341196" lon="103.776115">
<ele>2026.735352</ele>
<time>2011-04-24T10:33:28Z</time>
<desc>lat.=22.341196, lon.=103.776115, Alt.=2026.735352m. Speed=2.772000m/h.</desc>
<speed>0.770000</speed>
</trkpt>
<trkpt lat="22.341211" lon="103.776093">
<ele>2026.547852</ele>
<time>2011-04-24T10:33:33Z</time>
<desc>lat.=22.341211, lon.=103.776093, Alt.=2026.547852m. Speed=2.988000m/h.</desc>
<speed>0.830000</speed>
</trkpt>
<trkpt lat="22.341223" lon="103.776085">
<ele>2026.704102</ele>
<time>2011-04-24T10:33:38Z</time>
<desc>lat.=22.341223, lon.=103.776085, Alt.=2026.704102m. Speed=1.656000m/h.</desc>
<speed>0.460000</speed>
</trkpt>
<trkpt lat="22.341261" lon="103.776123">
<ele>2025.954102</ele>
<time>2011-04-24T10:33:43Z</time>
<desc>lat.=22.341261, lon.=103.776123, Alt.=2025.954102m. Speed=2.808000m/h.</desc>
<speed>0.780000</speed>
</trkpt>
<trkpt lat="22.341291" lon="103.776154">
<ele>2025.422852</ele>
<time>2011-04-24T10:33:48Z</time>
<desc>lat.=22.341291, lon.=103.776154, Alt.=2025.422852m. Speed=2.088000m/h.</desc>
<speed>0.580000</speed>
</trkpt>
<trkpt lat="22.341316" lon="103.776176">
<ele>2024.829102</ele>
<time>2011-04-24T10:33:53Z</time>
<desc>lat.=22.341316, lon.=103.776176, Alt.=2024.829102m. Speed=1.512000m/h.</desc>
<speed>0.420000</speed>
</trkpt>
<trkpt lat="22.341349" lon="103.776169">
<ele>2025.016602</ele>
<time>2011-04-24T10:33:58Z</time>
<desc>lat.=22.341349, lon.=103.776169, Alt.=2025.016602m. Speed=1.908000m/h.</desc>
<speed>0.530000</speed>
</trkpt>
<trkpt lat="22.341402" lon="103.776222">
<ele>2024.954102</ele>
<time>2011-04-24T10:34:03Z</time>
<desc>lat.=22.341402, lon.=103.776222, Alt.=2024.954102m. Speed=3.132000m/h.</desc>
<speed>0.870000</speed>
</trkpt>
<trkpt lat="22.341446" lon="103.776268">
<ele>2024.547852</ele>
<time>2011-04-24T10:34:08Z</time>
<desc>lat.=22.341446, lon.=103.776268, Alt.=2024.547852m. Speed=2.988000m/h.</desc>
<speed>0.830000</speed>
</trkpt>
<trkpt lat="22.341469" lon="103.776291">
<ele>2024.297852</ele>
<time>2011-04-24T10:34:13Z</time>
<desc>lat.=22.341469, lon.=103.776291, Alt.=2024.297852m. Speed=1.260000m/h.</desc>
<speed>0.350000</speed>
</trkpt>
<trkpt lat="22.341478" lon="103.776306">
<ele>2024.110352</ele>
<time>2011-04-24T10:34:18Z</time>
<desc>lat.=22.341478, lon.=103.776306, Alt.=2024.110352m. Speed=2.736000m/h.</desc>
<speed>0.760000</speed>
</trkpt>
<trkpt lat="22.341503" lon="103.776329">
<ele>2022.360352</ele>
<time>2011-04-24T10:34:23Z</time>
<desc>lat.=22.341503, lon.=103.776329, Alt.=2022.360352m. Speed=3.132000m/h.</desc>
<speed>0.870000</speed>
</trkpt>
<trkpt lat="22.341515" lon="103.776314">
<ele>2015.829102</ele>
<time>2011-04-24T10:34:28Z</time>
<desc>lat.=22.341515, lon.=103.776314, Alt.=2015.829102m. Speed=3.168000m/h.</desc>
<speed>0.880000</speed>
</trkpt>
<trkpt lat="22.341539" lon="103.776329">
<ele>2012.047852</ele>
<time>2011-04-24T10:34:33Z</time>
<desc>lat.=22.341539, lon.=103.776329, Alt.=2012.047852m. Speed=4.392000m/h.</desc>
<speed>1.220000</speed>
</trkpt>
<trkpt lat="22.341570" lon="103.776352">
<ele>2009.766602</ele>
<time>2011-04-24T10:34:38Z</time>
<desc>lat.=22.341570, lon.=103.776352, Alt.=2009.766602m. Speed=4.248000m/h.</desc>
<speed>1.180000</speed>
</trkpt>
<trkpt lat="22.341602" lon="103.776344">
<ele>2009.360352</ele>
<time>2011-04-24T10:34:43Z</time>
<desc>lat.=22.341602, lon.=103.776344, Alt.=2009.360352m. Speed=3.636000m/h.</desc>
<speed>1.010000</speed>
</trkpt>
<trkpt lat="22.341648" lon="103.776360">
<ele>2009.235352</ele>
<time>2011-04-24T10:34:48Z</time>
<desc>lat.=22.341648, lon.=103.776360, Alt.=2009.235352m. Speed=3.492000m/h.</desc>
<speed>0.970000</speed>
</trkpt>
<trkpt lat="22.341702" lon="103.776344">
<ele>2010.141602</ele>
<time>2011-04-24T10:34:53Z</time>
<desc>lat.=22.341702, lon.=103.776344, Alt.=2010.141602m. Speed=5.112000m/h.</desc>
<speed>1.420000</speed>
</trkpt>
<trkpt lat="22.341763" lon="103.776352">
<ele>2011.704102</ele>
<time>2011-04-24T10:34:58Z</time>
<desc>lat.=22.341763, lon.=103.776352, Alt.=2011.704102m. Speed=4.176000m/h.</desc>
<speed>1.160000</speed>
</trkpt>
<trkpt lat="22.341814" lon="103.776337">
<ele>2011.329102</ele>
<time>2011-04-24T10:35:03Z</time>
<desc>lat.=22.341814, lon.=103.776337, Alt.=2011.329102m. Speed=4.680000m/h.</desc>
<speed>1.300000</speed>
</trkpt>
<trkpt lat="22.341871" lon="103.776337">
<ele>2011.516602</ele>
<time>2011-04-24T10:35:08Z</time>
<desc>lat.=22.341871, lon.=103.776337, Alt.=2011.516602m. Speed=5.400000m/h.</desc>
<speed>1.500000</speed>
</trkpt>
<trkpt lat="22.341923" lon="103.776329">
<ele>2008.547852</ele>
<time>2011-04-24T10:35:13Z</time>
<desc>lat.=22.341923, lon.=103.776329, Alt.=2008.547852m. Speed=4.068000m/h.</desc>
<speed>1.130000</speed>
</trkpt>
<trkpt lat="22.341965" lon="103.776329">
<ele>2005.985352</ele>
<time>2011-04-24T10:35:18Z</time>
<desc>lat.=22.341965, lon.=103.776329, Alt.=2005.985352m. Speed=3.240000m/h.</desc>
<speed>0.900000</speed>
</trkpt>
<trkpt lat="22.342010" lon="103.776321">
<ele>2005.985352</ele>
<time>2011-04-24T10:35:23Z</time>
<desc>lat.=22.342010, lon.=103.776321, Alt.=2005.985352m. Speed=4.320000m/h.</desc>
<speed>1.200000</speed>
</trkpt>
<trkpt lat="22.342068" lon="103.776329">
<ele>2006.329102</ele>
<time>2011-04-24T10:35:28Z</time>
<desc>lat.=22.342068, lon.=103.776329, Alt.=2006.329102m. Speed=4.428000m/h.</desc>
<speed>1.230000</speed>
</trkpt>
<trkpt lat="22.342119" lon="103.776314">
<ele>2005.735352</ele>
<time>2011-04-24T10:35:33Z</time>
<desc>lat.=22.342119, lon.=103.776314, Alt.=2005.735352m. Speed=3.888000m/h.</desc>
<speed>1.080000</speed>
</trkpt>
<trkpt lat="22.342144" lon="103.776283">
<ele>2003.579102</ele>
<time>2011-04-24T10:35:38Z</time>
<desc>lat.=22.342144, lon.=103.776283, Alt.=2003.579102m. Speed=4.788000m/h.</desc>
<speed>1.330000</speed>
</trkpt>
<trkpt lat="22.342178" lon="103.776291">
<ele>2003.454102</ele>
<time>2011-04-24T10:35:43Z</time>
<desc>lat.=22.342178, lon.=103.776291, Alt.=2003.454102m. Speed=1.044000m/h.</desc>
<speed>0.290000</speed>
</trkpt>
<trkpt lat="22.342182" lon="103.776291">
<ele>2003.610352</ele>
<time>2011-04-24T10:35:48Z</time>
<desc>lat.=22.342182, lon.=103.776291, Alt.=2003.610352m. Speed=0.036000m/h.</desc>
<speed>0.010000</speed>
</trkpt>
<trkpt lat="22.342184" lon="103.776291">
<ele>2003.360352</ele>
<time>2011-04-24T10:35:53Z</time>
<desc>lat.=22.342184, lon.=103.776291, Alt.=2003.360352m. Speed=0.792000m/h.</desc>
<speed>0.220000</speed>
</trkpt>
<trkpt lat="22.342188" lon="103.776299">
<ele>2002.204102</ele>
<time>2011-04-24T10:35:58Z</time>
<desc>lat.=22.342188, lon.=103.776299, Alt.=2002.204102m. Speed=0.288000m/h.</desc>
<speed>0.080000</speed>
</trkpt>
<trkpt lat="22.342213" lon="103.776314">
<ele>2001.485352</ele>
<time>2011-04-24T10:36:03Z</time>
<desc>lat.=22.342213, lon.=103.776314, Alt.=2001.485352m. Speed=1.980000m/h.</desc>
<speed>0.550000</speed>
</trkpt>
<trkpt lat="22.342234" lon="103.776321">
<ele>2001.704102</ele>
<time>2011-04-24T10:36:08Z</time>
<desc>lat.=22.342234, lon.=103.776321, Alt.=2001.704102m. Speed=3.960000m/h.</desc>
<speed>1.100000</speed>
</trkpt>
<trkpt lat="22.342268" lon="103.776299">
<ele>2001.297852</ele>
<time>2011-04-24T10:36:13Z</time>
<desc>lat.=22.342268, lon.=103.776299, Alt.=2001.297852m. Speed=4.176000m/h.</desc>
<speed>1.160000</speed>
</trkpt>
<trkpt lat="22.342308" lon="103.776329">
<ele>2000.422852</ele>
<time>2011-04-24T10:36:18Z</time>
<desc>lat.=22.342308, lon.=103.776329, Alt.=2000.422852m. Speed=4.032000m/h.</desc>
<speed>1.120000</speed>
</trkpt>
<trkpt lat="22.342352" lon="103.776321">
<ele>1999.641602</ele>
<time>2011-04-24T10:36:23Z</time>
<desc>lat.=22.342352, lon.=103.776321, Alt.=1999.641602m. Speed=3.240000m/h.</desc>
<speed>0.900000</speed>
</trkpt>
<trkpt lat="22.342396" lon="103.776306">
<ele>1999.360352</ele>
<time>2011-04-24T10:36:28Z</time>
<desc>lat.=22.342396, lon.=103.776306, Alt.=1999.360352m. Speed=4.752000m/h.</desc>
<speed>1.320000</speed>
</trkpt>
<trkpt lat="22.342430" lon="103.776283">
<ele>1999.922852</ele>
<time>2011-04-24T10:36:33Z</time>
<desc>lat.=22.342430, lon.=103.776283, Alt.=1999.922852m. Speed=2.664000m/h.</desc>
<speed>0.740000</speed>
</trkpt>
<trkpt lat="22.342434" lon="103.776268">
<ele>2000.266602</ele>
<time>2011-04-24T10:36:38Z</time>
<desc>lat.=22.342434, lon.=103.776268, Alt.=2000.266602m. Speed=0.360000m/h.</desc>
<speed>0.100000</speed>
</trkpt>
<trkpt lat="22.342440" lon="103.776253">
<ele>2000.766602</ele>
<time>2011-04-24T10:36:43Z</time>
<desc>lat.=22.342440, lon.=103.776253, Alt.=2000.766602m. Speed=0.972000m/h.</desc>
<speed>0.270000</speed>
</trkpt>
<trkpt lat="22.342455" lon="103.776237">
<ele>2001.329102</ele>
<time>2011-04-24T10:36:48Z</time>
<desc>lat.=22.342455, lon.=103.776237, Alt.=2001.329102m. Speed=3.312000m/h.</desc>
<speed>0.920000</speed>
</trkpt>
<trkpt lat="22.342482" lon="103.776215">
<ele>2001.579102</ele>
<time>2011-04-24T10:36:53Z</time>
<desc>lat.=22.342482, lon.=103.776215, Alt.=2001.579102m. Speed=3.132000m/h.</desc>
<speed>0.870000</speed>
</trkpt>
<trkpt lat="22.342508" lon="103.776199">
<ele>2002.672852</ele>
<time>2011-04-24T10:36:58Z</time>
<desc>lat.=22.342508, lon.=103.776199, Alt.=2002.672852m. Speed=2.592000m/h.</desc>
<speed>0.720000</speed>
</trkpt>
<trkpt lat="22.342550" lon="103.776192">
<ele>2003.735352</ele>
<time>2011-04-24T10:37:03Z</time>
<desc>lat.=22.342550, lon.=103.776192, Alt.=2003.735352m. Speed=4.032000m/h.</desc>
<speed>1.120000</speed>
</trkpt>
<trkpt lat="22.342600" lon="103.776192">
<ele>2003.985352</ele>
<time>2011-04-24T10:37:08Z</time>
<desc>lat.=22.342600, lon.=103.776192, Alt.=2003.985352m. Speed=4.644000m/h.</desc>
<speed>1.290000</speed>
</trkpt>
<trkpt lat="22.342636" lon="103.776199">
<ele>2004.485352</ele>
<time>2011-04-24T10:37:13Z</time>
<desc>lat.=22.342636, lon.=103.776199, Alt.=2004.485352m. Speed=2.268000m/h.</desc>
<speed>0.630000</speed>
</trkpt>
<trkpt lat="22.342665" lon="103.776176">
<ele>2006.172852</ele>
<time>2011-04-24T10:37:18Z</time>
<desc>lat.=22.342665, lon.=103.776176, Alt.=2006.172852m. Speed=1.188000m/h.</desc>
<speed>0.330000</speed>
</trkpt>
<trkpt lat="22.342705" lon="103.776184">
<ele>2004.735352</ele>
<time>2011-04-24T10:37:23Z</time>
<desc>lat.=22.342705, lon.=103.776184, Alt.=2004.735352m. Speed=2.736000m/h.</desc>
<speed>0.760000</speed>
</trkpt>
<trkpt lat="22.342743" lon="103.776176">
<ele>2005.360352</ele>
<time>2011-04-24T10:37:28Z</time>
<desc>lat.=22.342743, lon.=103.776176, Alt.=2005.360352m. Speed=2.340000m/h.</desc>
<speed>0.650000</speed>
</trkpt>
<trkpt lat="22.342752" lon="103.776154">
<ele>2006.047852</ele>
<time>2011-04-24T10:37:33Z</time>
<desc>lat.=22.342752, lon.=103.776154, Alt.=2006.047852m. Speed=2.268000m/h.</desc>
<speed>0.630000</speed>
</trkpt>
<trkpt lat="22.342779" lon="103.776131">
<ele>2006.266602</ele>
<time>2011-04-24T10:37:38Z</time>
<desc>lat.=22.342779, lon.=103.776131, Alt.=2006.266602m. Speed=2.628000m/h.</desc>
<speed>0.730000</speed>
</trkpt>
<trkpt lat="22.342793" lon="103.776123">
<ele>2006.610352</ele>
<time>2011-04-24T10:37:43Z</time>
<desc>lat.=22.342793, lon.=103.776123, Alt.=2006.610352m. Speed=1.692000m/h.</desc>
<speed>0.470000</speed>
</trkpt>
<trkpt lat="22.342823" lon="103.776100">
<ele>2006.922852</ele>
<time>2011-04-24T10:37:48Z</time>
<desc>lat.=22.342823, lon.=103.776100, Alt.=2006.922852m. Speed=2.088000m/h.</desc>
<speed>0.580000</speed>
</trkpt>
<trkpt lat="22.342852" lon="103.776062">
<ele>2007.360352</ele>
<time>2011-04-24T10:37:53Z</time>
<desc>lat.=22.342852, lon.=103.776062, Alt.=2007.360352m. Speed=1.440000m/h.</desc>
<speed>0.400000</speed>
</trkpt>
<trkpt lat="22.342857" lon="103.776047">
<ele>2008.391602</ele>
<time>2011-04-24T10:37:58Z</time>
<desc>lat.=22.342857, lon.=103.776047, Alt.=2008.391602m. Speed=0.684000m/h.</desc>
<speed>0.190000</speed>
</trkpt>
<trkpt lat="22.342865" lon="103.776031">
<ele>2008.329102</ele>
<time>2011-04-24T10:38:03Z</time>
<desc>lat.=22.342865, lon.=103.776031, Alt.=2008.329102m. Speed=0.504000m/h.</desc>
<speed>0.140000</speed>
</trkpt>
<trkpt lat="22.342869" lon="103.776016">
<ele>2008.485352</ele>
<time>2011-04-24T10:38:08Z</time>
<desc>lat.=22.342869, lon.=103.776016, Alt.=2008.485352m. Speed=1.692000m/h.</desc>
<speed>0.470000</speed>
</trkpt>
<trkpt lat="22.342876" lon="103.775986">
<ele>2009.422852</ele>
<time>2011-04-24T10:38:13Z</time>
<desc>lat.=22.342876, lon.=103.775986, Alt.=2009.422852m. Speed=1.476000m/h.</desc>
<speed>0.410000</speed>
</trkpt>
<trkpt lat="22.342882" lon="103.775955">
<ele>2009.204102</ele>
<time>2011-04-24T10:38:18Z</time>
<desc>lat.=22.342882, lon.=103.775955, Alt.=2009.204102m. Speed=1.224000m/h.</desc>
<speed>0.340000</speed>
</trkpt>
<trkpt lat="22.342899" lon="103.775925">
<ele>2009.454102</ele>
<time>2011-04-24T10:38:23Z</time>
<desc>lat.=22.342899, lon.=103.775925, Alt.=2009.454102m. Speed=1.584000m/h.</desc>
<speed>0.440000</speed>
</trkpt>
<trkpt lat="22.342913" lon="103.775887">
<ele>2009.860352</ele>
<time>2011-04-24T10:38:28Z</time>
<desc>lat.=22.342913, lon.=103.775887, Alt.=2009.860352m. Speed=2.124000m/h.</desc>
<speed>0.590000</speed>
</trkpt>
<trkpt lat="22.342953" lon="103.775848">
<ele>2010.797852</ele>
<time>2011-04-24T10:38:33Z</time>
<desc>lat.=22.342953, lon.=103.775848, Alt.=2010.797852m. Speed=1.872000m/h.</desc>
<speed>0.520000</speed>
</trkpt>
<trkpt lat="22.342970" lon="103.775833">
<ele>2011.391602</ele>
<time>2011-04-24T10:38:38Z</time>
<desc>lat.=22.342970, lon.=103.775833, Alt.=2011.391602m. Speed=1.368000m/h.</desc>
<speed>0.380000</speed>
</trkpt>
<trkpt lat="22.342974" lon="103.775803">
<ele>2011.266602</ele>
<time>2011-04-24T10:38:43Z</time>
<desc>lat.=22.342974, lon.=103.775803, Alt.=2011.266602m. Speed=1.332000m/h.</desc>
<speed>0.370000</speed>
</trkpt>
<trkpt lat="22.342983" lon="103.775787">
<ele>2011.954102</ele>
<time>2011-04-24T10:38:48Z</time>
<desc>lat.=22.342983, lon.=103.775787, Alt.=2011.954102m. Speed=0.936000m/h.</desc>
<speed>0.260000</speed>
</trkpt>
<trkpt lat="22.342991" lon="103.775795">
<ele>2012.735352</ele>
<time>2011-04-24T10:38:53Z</time>
<desc>lat.=22.342991, lon.=103.775795, Alt.=2012.735352m. Speed=0.612000m/h.</desc>
<speed>0.170000</speed>
</trkpt>
<trkpt lat="22.343000" lon="103.775787">
<ele>2012.797852</ele>
<time>2011-04-24T10:38:58Z</time>
<desc>lat.=22.343000, lon.=103.775787, Alt.=2012.797852m. Speed=1.512000m/h.</desc>
<speed>0.420000</speed>
</trkpt>
<trkpt lat="22.343033" lon="103.775749">
<ele>2012.829102</ele>
<time>2011-04-24T10:39:03Z</time>
<desc>lat.=22.343033, lon.=103.775749, Alt.=2012.829102m. Speed=1.944000m/h.</desc>
<speed>0.540000</speed>
</trkpt>
<trkpt lat="22.343050" lon="103.775726">
<ele>2013.204102</ele>
<time>2011-04-24T10:39:08Z</time>
<desc>lat.=22.343050, lon.=103.775726, Alt.=2013.204102m. Speed=1.764000m/h.</desc>
<speed>0.490000</speed>
</trkpt>
<trkpt lat="22.343075" lon="103.775688">
<ele>2014.422852</ele>
<time>2011-04-24T10:39:13Z</time>
<desc>lat.=22.343075, lon.=103.775688, Alt.=2014.422852m. Speed=1.800000m/h.</desc>
<speed>0.500000</speed>
</trkpt>
<trkpt lat="22.343088" lon="103.775673">
<ele>2015.454102</ele>
<time>2011-04-24T10:39:18Z</time>
<desc>lat.=22.343088, lon.=103.775673, Alt.=2015.454102m. Speed=1.908000m/h.</desc>
<speed>0.530000</speed>
</trkpt>
<trkpt lat="22.343103" lon="103.775658">
<ele>2016.204102</ele>
<time>2011-04-24T10:39:23Z</time>
<desc>lat.=22.343103, lon.=103.775658, Alt.=2016.204102m. Speed=0.000000m/h.</desc>
<speed>0.000000</speed>
</trkpt>
<trkpt lat="22.343100" lon="103.775642">
<ele>2016.172852</ele>
<time>2011-04-24T10:39:28Z</time>
<desc>lat.=22.343100, lon.=103.775642, Alt.=2016.172852m. Speed=1.368000m/h.</desc>
<speed>0.380000</speed>
</trkpt>
<trkpt lat="22.343151" lon="103.775612">
<ele>2015.672852</ele>
<time>2011-04-24T10:39:33Z</time>
<desc>lat.=22.343151, lon.=103.775612, Alt.=2015.672852m. Speed=2.916000m/h.</desc>
<speed>0.810000</speed>
</trkpt>
<trkpt lat="22.343197" lon="103.775574">
<ele>2014.922852</ele>
<time>2011-04-24T10:39:38Z</time>
<desc>lat.=22.343197, lon.=103.775574, Alt.=2014.922852m. Speed=3.276000m/h.</desc>
<speed>0.910000</speed>
</trkpt>
<trkpt lat="22.343258" lon="103.775505">
<ele>2016.954102</ele>
<time>2011-04-24T10:39:43Z</time>
<desc>lat.=22.343258, lon.=103.775505, Alt.=2016.954102m. Speed=5.940000m/h.</desc>
<speed>1.650000</speed>
</trkpt>
<trkpt lat="22.343317" lon="103.775475">
<ele>2017.891602</ele>
<time>2011-04-24T10:39:48Z</time>
<desc>lat.=22.343317, lon.=103.775475, Alt.=2017.891602m. Speed=4.032000m/h.</desc>
<speed>1.120000</speed>
</trkpt>
<trkpt lat="22.343376" lon="103.775444">
<ele>2018.579102</ele>
<time>2011-04-24T10:39:53Z</time>
<desc>lat.=22.343376, lon.=103.775444, Alt.=2018.579102m. Speed=3.960000m/h.</desc>
<speed>1.100000</speed>
</trkpt>
<trkpt lat="22.343428" lon="103.775406">
<ele>2019.860352</ele>
<time>2011-04-24T10:39:58Z</time>
<desc>lat.=22.343428, lon.=103.775406, Alt.=2019.860352m. Speed=4.032000m/h.</desc>
<speed>1.120000</speed>
</trkpt>
<trkpt lat="22.343466" lon="103.775360">
<ele>2020.297852</ele>
<time>2011-04-24T10:40:03Z</time>
<desc>lat.=22.343466, lon.=103.775360, Alt.=2020.297852m. Speed=4.212000m/h.</desc>
<speed>1.170000</speed>
</trkpt>
<trkpt lat="22.343508" lon="103.775330">
<ele>2020.922852</ele>
<time>2011-04-24T10:40:08Z</time>
<desc>lat.=22.343508, lon.=103.775330, Alt.=2020.922852m. Speed=4.428000m/h.</desc>
<speed>1.230000</speed>
</trkpt>
<trkpt lat="22.343548" lon="103.775299">
<ele>2021.016602</ele>
<time>2011-04-24T10:40:13Z</time>
<desc>lat.=22.343548, lon.=103.775299, Alt.=2021.016602m. Speed=4.464000m/h.</desc>
<speed>1.240000</speed>
</trkpt>
<trkpt lat="22.343590" lon="103.775276">
<ele>2020.891602</ele>
<time>2011-04-24T10:40:18Z</time>
<desc>lat.=22.343590, lon.=103.775276, Alt.=2020.891602m. Speed=3.672000m/h.</desc>
<speed>1.020000</speed>
</trkpt>
<trkpt lat="22.343613" lon="103.775246">
<ele>2020.297852</ele>
<time>2011-04-24T10:40:23Z</time>
<desc>lat.=22.343613, lon.=103.775246, Alt.=2020.297852m. Speed=3.816000m/h.</desc>
<speed>1.060000</speed>
</trkpt>
<trkpt lat="22.343668" lon="103.775246">
<ele>2019.860352</ele>
<time>2011-04-24T10:40:28Z</time>
<desc>lat.=22.343668, lon.=103.775246, Alt.=2019.860352m. Speed=4.176000m/h.</desc>
<speed>1.160000</speed>
</trkpt>
<trkpt lat="22.343721" lon="103.775261">
<ele>2019.735352</ele>
<time>2011-04-24T10:40:33Z</time>
<desc>lat.=22.343721, lon.=103.775261, Alt.=2019.735352m. Speed=3.888000m/h.</desc>
<speed>1.080000</speed>
</trkpt>
<trkpt lat="22.343765" lon="103.775246">
<ele>2019.985352</ele>
<time>2011-04-24T10:40:38Z</time>
<desc>lat.=22.343765, lon.=103.775246, Alt.=2019.985352m. Speed=3.600000m/h.</desc>
<speed>1.000000</speed>
</trkpt>
<trkpt lat="22.343819" lon="103.775246">
<ele>2019.985352</ele>
<time>2011-04-24T10:40:43Z</time>
<desc>lat.=22.343819, lon.=103.775246, Alt.=2019.985352m. Speed=4.320000m/h.</desc>
<speed>1.200000</speed>
</trkpt>
<trkpt lat="22.343859" lon="103.775238">
<ele>2020.454102</ele>
<time>2011-04-24T10:40:48Z</time>
<desc>lat.=22.343859, lon.=103.775238, Alt.=2020.454102m. Speed=4.176000m/h.</desc>
<speed>1.160000</speed>
</trkpt>
<trkpt lat="22.343912" lon="103.775246">
<ele>2020.422852</ele>
<time>2011-04-24T10:40:53Z</time>
<desc>lat.=22.343912, lon.=103.775246, Alt.=2020.422852m. Speed=4.464000m/h.</desc>
<speed>1.240000</speed>
</trkpt>
<trkpt lat="22.343964" lon="103.775276">
<ele>2020.422852</ele>
<time>2011-04-24T10:40:58Z</time>
<desc>lat.=22.343964, lon.=103.775276, Alt.=2020.422852m. Speed=3.888000m/h.</desc>
<speed>1.080000</speed>
</trkpt>
<trkpt lat="22.344013" lon="103.775307">
<ele>2020.579102</ele>
<time>2011-04-24T10:41:03Z</time>
<desc>lat.=22.344013, lon.=103.775307, Alt.=2020.579102m. Speed=4.176000m/h.</desc>
<speed>1.160000</speed>
</trkpt>
<trkpt lat="22.344059" lon="103.775322">
<ele>2020.860352</ele>
<time>2011-04-24T10:41:08Z</time>
<desc>lat.=22.344059, lon.=103.775322, Alt.=2020.860352m. Speed=4.320000m/h.</desc>
<speed>1.200000</speed>
</trkpt>
<trkpt lat="22.344112" lon="103.775330">
<ele>2021.391602</ele>
<time>2011-04-24T10:41:13Z</time>
<desc>lat.=22.344112, lon.=103.775330, Alt.=2021.391602m. Speed=4.068000m/h.</desc>
<speed>1.130000</speed>
</trkpt>
<trkpt lat="22.344156" lon="103.775314">
<ele>2021.485352</ele>
<time>2011-04-24T10:41:18Z</time>
<desc>lat.=22.344156, lon.=103.775314, Alt.=2021.485352m. Speed=3.924000m/h.</desc>
<speed>1.090000</speed>
</trkpt>
<trkpt lat="22.344213" lon="103.775307">
<ele>2021.797852</ele>
<time>2011-04-24T10:41:23Z</time>
<desc>lat.=22.344213, lon.=103.775307, Alt.=2021.797852m. Speed=4.356000m/h.</desc>
<speed>1.210000</speed>
</trkpt>
<trkpt lat="22.344261" lon="103.775299">
<ele>2021.985352</ele>
<time>2011-04-24T10:41:28Z</time>
<desc>lat.=22.344261, lon.=103.775299, Alt.=2021.985352m. Speed=4.392000m/h.</desc>
<speed>1.220000</speed>
</trkpt>
<trkpt lat="22.344307" lon="103.775299">
<ele>2022.235352</ele>
<time>2011-04-24T10:41:33Z</time>
<desc>lat.=22.344307, lon.=103.775299, Alt.=2022.235352m. Speed=2.268000m/h.</desc>
<speed>0.630000</speed>
</trkpt>
<trkpt lat="22.344351" lon="103.775299">
<ele>2022.579102</ele>
<time>2011-04-24T10:41:38Z</time>
<desc>lat.=22.344351, lon.=103.775299, Alt.=2022.579102m. Speed=3.420000m/h.</desc>
<speed>0.950000</speed>
</trkpt>
<trkpt lat="22.344400" lon="103.775291">
<ele>2022.922852</ele>
<time>2011-04-24T10:41:43Z</time>
<desc>lat.=22.344400, lon.=103.775291, Alt.=2022.922852m. Speed=4.392000m/h.</desc>
<speed>1.220000</speed>
</trkpt>
<trkpt lat="22.344454" lon="103.775284">
<ele>2022.547852</ele>
<time>2011-04-24T10:41:48Z</time>
<desc>lat.=22.344454, lon.=103.775284, Alt.=2022.547852m. Speed=4.500000m/h.</desc>
<speed>1.250000</speed>
</trkpt>
<trkpt lat="22.344507" lon="103.775269">
<ele>2021.454102</ele>
<time>2011-04-24T10:41:53Z</time>
<desc>lat.=22.344507, lon.=103.775269, Alt.=2021.454102m. Speed=3.924000m/h.</desc>
<speed>1.090000</speed>
</trkpt>
<trkpt lat="22.344566" lon="103.775261">
<ele>2020.516602</ele>
<time>2011-04-24T10:41:58Z</time>
<desc>lat.=22.344566, lon.=103.775261, Alt.=2020.516602m. Speed=5.544000m/h.</desc>
<speed>1.540000</speed>
</trkpt>
<trkpt lat="22.344627" lon="103.775269">
<ele>2020.110352</ele>
<time>2011-04-24T10:42:03Z</time>
<desc>lat.=22.344627, lon.=103.775269, Alt.=2020.110352m. Speed=4.932000m/h.</desc>
<speed>1.370000</speed>
</trkpt>
<trkpt lat="22.344677" lon="103.775284">
<ele>2020.079102</ele>
<time>2011-04-24T10:42:08Z</time>
<desc>lat.=22.344677, lon.=103.775284, Alt.=2020.079102m. Speed=3.348000m/h.</desc>
<speed>0.930000</speed>
</trkpt>
<trkpt lat="22.344711" lon="103.775269">
<ele>2020.172852</ele>
<time>2011-04-24T10:42:13Z</time>
<desc>lat.=22.344711, lon.=103.775269, Alt.=2020.172852m. Speed=0.792000m/h.</desc>
<speed>0.220000</speed>
</trkpt>
<trkpt lat="22.344704" lon="103.775269">
<ele>2020.360352</ele>
<time>2011-04-24T10:42:18Z</time>
<desc>lat.=22.344704, lon.=103.775269, Alt.=2020.360352m. Speed=3.060000m/h.</desc>
<speed>0.850000</speed>
</trkpt>
<trkpt lat="22.344753" lon="103.775253">
<ele>2020.360352</ele>
<time>2011-04-24T10:42:23Z</time>
<desc>lat.=22.344753, lon.=103.775253, Alt.=2020.360352m. Speed=3.924000m/h.</desc>
<speed>1.090000</speed>
</trkpt>
<trkpt lat="22.344801" lon="103.775246">
<ele>2019.954102</ele>
<time>2011-04-24T10:42:28Z</time>
<desc>lat.=22.344801, lon.=103.775246, Alt.=2019.954102m. Speed=4.716000m/h.</desc>
<speed>1.310000</speed>
</trkpt>
<trkpt lat="22.344841" lon="103.775215">
<ele>2019.891602</ele>
<time>2011-04-24T10:42:33Z</time>
<desc>lat.=22.344841, lon.=103.775215, Alt.=2019.891602m. Speed=3.816000m/h.</desc>
<speed>1.060000</speed>
</trkpt>
<trkpt lat="22.344891" lon="103.775192">
<ele>2019.485352</ele>
<time>2011-04-24T10:42:38Z</time>
<desc>lat.=22.344891, lon.=103.775192, Alt.=2019.485352m. Speed=4.356000m/h.</desc>
<speed>1.210000</speed>
</trkpt>
<trkpt lat="22.344950" lon="103.775169">
<ele>2019.735352</ele>
<time>2011-04-24T10:42:43Z</time>
<desc>lat.=22.344950, lon.=103.775169, Alt.=2019.735352m. Speed=5.040000m/h.</desc>
<speed>1.400000</speed>
</trkpt>
<trkpt lat="22.345001" lon="103.775146">
<ele>2019.891602</ele>
<time>2011-04-24T10:42:48Z</time>
<desc>lat.=22.345001, lon.=103.775146, Alt.=2019.891602m. Speed=3.852000m/h.</desc>
<speed>1.070000</speed>
</trkpt>
<trkpt lat="22.345068" lon="103.775146">
<ele>2019.704102</ele>
<time>2011-04-24T10:42:53Z</time>
<desc>lat.=22.345068, lon.=103.775146, Alt.=2019.704102m. Speed=5.112000m/h.</desc>
<speed>1.420000</speed>
</trkpt>
<trkpt lat="22.345131" lon="103.775162">
<ele>2019.891602</ele>
<time>2011-04-24T10:42:58Z</time>
<desc>lat.=22.345131, lon.=103.775162, Alt.=2019.891602m. Speed=4.464000m/h.</desc>
<speed>1.240000</speed>
</trkpt>
<trkpt lat="22.345179" lon="103.775154">
<ele>2020.391602</ele>
<time>2011-04-24T10:43:03Z</time>
<desc>lat.=22.345179, lon.=103.775154, Alt.=2020.391602m. Speed=2.340000m/h.</desc>
<speed>0.650000</speed>
</trkpt>
<trkpt lat="22.345224" lon="103.775154">
<ele>2020.797852</ele>
<time>2011-04-24T10:43:08Z</time>
<desc>lat.=22.345224, lon.=103.775154, Alt.=2020.797852m. Speed=3.960000m/h.</desc>
<speed>1.100000</speed>
</trkpt>
<trkpt lat="22.345282" lon="103.775154">
<ele>2021.141602</ele>
<time>2011-04-24T10:43:13Z</time>
<desc>lat.=22.345282, lon.=103.775154, Alt.=2021.141602m. Speed=5.364000m/h.</desc>
<speed>1.490000</speed>
</trkpt>
<trkpt lat="22.345341" lon="103.775154">
<ele>2021.641602</ele>
<time>2011-04-24T10:43:18Z</time>
<desc>lat.=22.345341, lon.=103.775154, Alt.=2021.641602m. Speed=4.464000m/h.</desc>
<speed>1.240000</speed>
</trkpt>
<trkpt lat="22.345400" lon="103.775146">
<ele>2021.672852</ele>
<time>2011-04-24T10:43:23Z</time>
<desc>lat.=22.345400, lon.=103.775146, Alt.=2021.672852m. Speed=5.076000m/h.</desc>
<speed>1.410000</speed>
</trkpt>
<trkpt lat="22.345453" lon="103.775131">
<ele>2022.297852</ele>
<time>2011-04-24T10:43:28Z</time>
<desc>lat.=22.345453, lon.=103.775131, Alt.=2022.297852m. Speed=4.644000m/h.</desc>
<speed>1.290000</speed>
</trkpt>
<trkpt lat="22.345510" lon="103.775124">
<ele>2022.797852</ele>
<time>2011-04-24T10:43:33Z</time>
<desc>lat.=22.345510, lon.=103.775124, Alt.=2022.797852m. Speed=4.392000m/h.</desc>
<speed>1.220000</speed>
</trkpt>
<trkpt lat="22.345568" lon="103.775131">
<ele>2023.079102</ele>
<time>2011-04-24T10:43:38Z</time>
<desc>lat.=22.345568, lon.=103.775131, Alt.=2023.079102m. Speed=5.004000m/h.</desc>
<speed>1.390000</speed>
</trkpt>
<trkpt lat="22.345606" lon="103.775116">
<ele>2022.516602</ele>
<time>2011-04-24T10:43:43Z</time>
<desc>lat.=22.345606, lon.=103.775116, Alt.=2022.516602m. Speed=3.348000m/h.</desc>
<speed>0.930000</speed>
</trkpt>
<trkpt lat="22.345650" lon="103.775093">
<ele>2021.672852</ele>
<time>2011-04-24T10:43:48Z</time>
<desc>lat.=22.345650, lon.=103.775093, Alt.=2021.672852m. Speed=5.220000m/h.</desc>
<speed>1.450000</speed>
</trkpt>
<trkpt lat="22.345695" lon="103.775055">
<ele>2021.329102</ele>
<time>2011-04-24T10:43:53Z</time>
<desc>lat.=22.345695, lon.=103.775055, Alt.=2021.329102m. Speed=4.968000m/h.</desc>
<speed>1.380000</speed>
</trkpt>
<trkpt lat="22.345718" lon="103.774994">
<ele>2020.235352</ele>
<time>2011-04-24T10:43:58Z</time>
<desc>lat.=22.345718, lon.=103.774994, Alt.=2020.235352m. Speed=4.932000m/h.</desc>
<speed>1.370000</speed>
</trkpt>
<trkpt lat="22.345728" lon="103.774925">
<ele>2019.329102</ele>
<time>2011-04-24T10:44:03Z</time>
<desc>lat.=22.345728, lon.=103.774925, Alt.=2019.329102m. Speed=5.184000m/h.</desc>
<speed>1.440000</speed>
</trkpt>
<trkpt lat="22.345758" lon="103.774879">
<ele>2018.297852</ele>
<time>2011-04-24T10:44:08Z</time>
<desc>lat.=22.345758, lon.=103.774879, Alt.=2018.297852m. Speed=4.284000m/h.</desc>
<speed>1.190000</speed>
</trkpt>
<trkpt lat="22.345770" lon="103.774841">
<ele>2017.954102</ele>
<time>2011-04-24T10:44:13Z</time>
<desc>lat.=22.345770, lon.=103.774841, Alt.=2017.954102m. Speed=1.368000m/h.</desc>
<speed>0.380000</speed>
</trkpt>
<trkpt lat="22.345772" lon="103.774834">
<ele>2017.485352</ele>
<time>2011-04-24T10:44:18Z</time>
<desc>lat.=22.345772, lon.=103.774834, Alt.=2017.485352m. Speed=0.180000m/h.</desc>
<speed>0.050000</speed>
</trkpt>
<trkpt lat="22.345772" lon="103.774834">
<ele>2017.360352</ele>
<time>2011-04-24T10:44:23Z</time>
<desc>lat.=22.345772, lon.=103.774834, Alt.=2017.360352m. Speed=0.252000m/h.</desc>
<speed>0.070000</speed>
</trkpt>
<trkpt lat="22.345772" lon="103.774834">
<ele>2017.360352</ele>
<time>2011-04-24T10:44:28Z</time>
<desc>lat.=22.345772, lon.=103.774834, Alt.=2017.360352m. Speed=0.072000m/h.</desc>
<speed>0.020000</speed>
</trkpt>
<trkpt lat="22.345774" lon="103.774834">
<ele>2017.360352</ele>
<time>2011-04-24T10:44:33Z</time>
<desc>lat.=22.345774, lon.=103.774834, Alt.=2017.360352m. Speed=2.160000m/h.</desc>
<speed>0.600000</speed>
</trkpt>
<trkpt lat="22.345825" lon="103.774803">
<ele>2017.360352</ele>
<time>2011-04-24T10:44:38Z</time>
<desc>lat.=22.345825, lon.=103.774803, Alt.=2017.360352m. Speed=4.752000m/h.</desc>
<speed>1.320000</speed>
</trkpt>
<trkpt lat="22.345884" lon="103.774780">
<ele>2017.954102</ele>
<time>2011-04-24T10:44:43Z</time>
<desc>lat.=22.345884, lon.=103.774780, Alt.=2017.954102m. Speed=4.284000m/h.</desc>
<speed>1.190000</speed>
</trkpt>
<trkpt lat="22.345915" lon="103.774727">
<ele>2018.047852</ele>
<time>2011-04-24T10:44:48Z</time>
<desc>lat.=22.345915, lon.=103.774727, Alt.=2018.047852m. Speed=3.024000m/h.</desc>
<speed>0.840000</speed>
</trkpt>
<trkpt lat="22.345934" lon="103.774689">
<ele>2018.672852</ele>
<time>2011-04-24T10:44:53Z</time>
<desc>lat.=22.345934, lon.=103.774689, Alt.=2018.672852m. Speed=3.816000m/h.</desc>
<speed>1.060000</speed>
</trkpt>
<trkpt lat="22.345976" lon="103.774658">
<ele>2018.922852</ele>
<time>2011-04-24T10:44:58Z</time>
<desc>lat.=22.345976, lon.=103.774658, Alt.=2018.922852m. Speed=4.680000m/h.</desc>
<speed>1.300000</speed>
</trkpt>
<trkpt lat="22.346014" lon="103.774620">
<ele>2019.454102</ele>
<time>2011-04-24T10:45:03Z</time>
<desc>lat.=22.346014, lon.=103.774620, Alt.=2019.454102m. Speed=3.564000m/h.</desc>
<speed>0.990000</speed>
</trkpt>
<trkpt lat="22.346035" lon="103.774590">
<ele>2020.110352</ele>
<time>2011-04-24T10:45:08Z</time>
<desc>lat.=22.346035, lon.=103.774590, Alt.=2020.110352m. Speed=2.160000m/h.</desc>
<speed>0.600000</speed>
</trkpt>
<trkpt lat="22.346052" lon="103.774574">
<ele>2020.672852</ele>
<time>2011-04-24T10:45:13Z</time>
<desc>lat.=22.346052, lon.=103.774574, Alt.=2020.672852m. Speed=0.936000m/h.</desc>
<speed>0.260000</speed>
</trkpt>
<trkpt lat="22.346064" lon="103.774574">
<ele>2020.204102</ele>
<time>2011-04-24T10:45:18Z</time>
<desc>lat.=22.346064, lon.=103.774574, Alt.=2020.204102m. Speed=1.188000m/h.</desc>
<speed>0.330000</speed>
</trkpt>
<trkpt lat="22.346083" lon="103.774551">
<ele>2018.829102</ele>
<time>2011-04-24T10:45:23Z</time>
<desc>lat.=22.346083, lon.=103.774551, Alt.=2018.829102m. Speed=2.520000m/h.</desc>
<speed>0.700000</speed>
</trkpt>
<trkpt lat="22.346104" lon="103.774536">
<ele>2019.266602</ele>
<time>2011-04-24T10:45:28Z</time>
<desc>lat.=22.346104, lon.=103.774536, Alt.=2019.266602m. Speed=3.060000m/h.</desc>
<speed>0.850000</speed>
</trkpt>
<trkpt lat="22.346153" lon="103.774506">
<ele>2020.047852</ele>
<time>2011-04-24T10:45:33Z</time>
<desc>lat.=22.346153, lon.=103.774506, Alt.=2020.047852m. Speed=1.980000m/h.</desc>
<speed>0.550000</speed>
</trkpt>
<trkpt lat="22.346182" lon="103.774483">
<ele>2019.547852</ele>
<time>2011-04-24T10:45:38Z</time>
<desc>lat.=22.346182, lon.=103.774483, Alt.=2019.547852m. Speed=3.780000m/h.</desc>
<speed>1.050000</speed>
</trkpt>
<trkpt lat="22.346188" lon="103.774483">
<ele>2020.110352</ele>
<time>2011-04-24T10:45:43Z</time>
<desc>lat.=22.346188, lon.=103.774483, Alt.=2020.110352m. Speed=0.288000m/h.</desc>
<speed>0.080000</speed>
</trkpt>
<trkpt lat="22.346197" lon="103.774475">
<ele>2021.079102</ele>
<time>2011-04-24T10:45:48Z</time>
<desc>lat.=22.346197, lon.=103.774475, Alt.=2021.079102m. Speed=2.088000m/h.</desc>
<speed>0.580000</speed>
</trkpt>
<trkpt lat="22.346214" lon="103.774467">
<ele>2022.547852</ele>
<time>2011-04-24T10:45:53Z</time>
<desc>lat.=22.346214, lon.=103.774467, Alt.=2022.547852m. Speed=1.476000m/h.</desc>
<speed>0.410000</speed>
</trkpt>
<trkpt lat="22.346239" lon="103.774452">
<ele>2023.047852</ele>
<time>2011-04-24T10:45:58Z</time>
<desc>lat.=22.346239, lon.=103.774452, Alt.=2023.047852m. Speed=1.908000m/h.</desc>
<speed>0.530000</speed>
</trkpt>
<trkpt lat="22.346266" lon="103.774437">
<ele>2023.766602</ele>
<time>2011-04-24T10:46:03Z</time>
<desc>lat.=22.346266, lon.=103.774437, Alt.=2023.766602m. Speed=2.628000m/h.</desc>
<speed>0.730000</speed>
</trkpt>
<trkpt lat="22.346294" lon="103.774422">
<ele>2023.391602</ele>
<time>2011-04-24T10:46:08Z</time>
<desc>lat.=22.346294, lon.=103.774422, Alt.=2023.391602m. Speed=1.692000m/h.</desc>
<speed>0.470000</speed>
</trkpt>
<trkpt lat="22.346315" lon="103.774429">
<ele>2021.329102</ele>
<time>2011-04-24T10:46:13Z</time>
<desc>lat.=22.346315, lon.=103.774429, Alt.=2021.329102m. Speed=1.944000m/h.</desc>
<speed>0.540000</speed>
</trkpt>
<trkpt lat="22.346336" lon="103.774429">
<ele>2019.454102</ele>
<time>2011-04-24T10:46:18Z</time>
<desc>lat.=22.346336, lon.=103.774429, Alt.=2019.454102m. Speed=2.232000m/h.</desc>
<speed>0.620000</speed>
</trkpt>
<trkpt lat="22.346371" lon="103.774422">
<ele>2019.766602</ele>
<time>2011-04-24T10:46:23Z</time>
<desc>lat.=22.346371, lon.=103.774422, Alt.=2019.766602m. Speed=4.248000m/h.</desc>
<speed>1.180000</speed>
</trkpt>
<trkpt lat="22.346407" lon="103.774399">
<ele>2020.079102</ele>
<time>2011-04-24T10:46:28Z</time>
<desc>lat.=22.346407, lon.=103.774399, Alt.=2020.079102m. Speed=2.772000m/h.</desc>
<speed>0.770000</speed>
</trkpt>
<trkpt lat="22.346445" lon="103.774422">
<ele>2018.329102</ele>
<time>2011-04-24T10:46:33Z</time>
<desc>lat.=22.346445, lon.=103.774422, Alt.=2018.329102m. Speed=2.016000m/h.</desc>
<speed>0.560000</speed>
</trkpt>
<trkpt lat="22.346462" lon="103.774422">
<ele>2017.641602</ele>
<time>2011-04-24T10:46:38Z</time>
<desc>lat.=22.346462, lon.=103.774422, Alt.=2017.641602m. Speed=1.260000m/h.</desc>
<speed>0.350000</speed>
</trkpt>
<trkpt lat="22.346458" lon="103.774437">
<ele>2017.016602</ele>
<time>2011-04-24T10:46:43Z</time>
<desc>lat.=22.346458, lon.=103.774437, Alt.=2017.016602m. Speed=0.216000m/h.</desc>
<speed>0.060000</speed>
</trkpt>
<trkpt lat="22.346458" lon="103.774437">
<ele>2016.891602</ele>
<time>2011-04-24T10:46:48Z</time>
<desc>lat.=22.346458, lon.=103.774437, Alt.=2016.891602m. Speed=0.648000m/h.</desc>
<speed>0.180000</speed>
</trkpt>
<trkpt lat="22.346451" lon="103.774437">
<ele>2016.422852</ele>
<time>2011-04-24T10:46:53Z</time>
<desc>lat.=22.346451, lon.=103.774437, Alt.=2016.422852m. Speed=1.008000m/h.</desc>
<speed>0.280000</speed>
</trkpt>
<trkpt lat="22.346453" lon="103.774437">
<ele>2015.829102</ele>
<time>2011-04-24T10:46:58Z</time>
<desc>lat.=22.346453, lon.=103.774437, Alt.=2015.829102m. Speed=0.180000m/h.</desc>
<speed>0.050000</speed>
</trkpt>
<trkpt lat="22.346464" lon="103.774429">
<ele>2015.454102</ele>
<time>2011-04-24T10:47:03Z</time>
<desc>lat.=22.346464, lon.=103.774429, Alt.=2015.454102m. Speed=0.576000m/h.</desc>
<speed>0.160000</speed>
</trkpt>
<trkpt lat="22.346464" lon="103.774422">
<ele>2015.454102</ele>
<time>2011-04-24T10:47:08Z</time>
<desc>lat.=22.346464, lon.=103.774422, Alt.=2015.454102m. Speed=1.008000m/h.</desc>
<speed>0.280000</speed>
</trkpt>
<trkpt lat="22.346458" lon="103.774406">
<ele>2015.204102</ele>
<time>2011-04-24T10:47:13Z</time>
<desc>lat.=22.346458, lon.=103.774406, Alt.=2015.204102m. Speed=1.116000m/h.</desc>
<speed>0.310000</speed>
</trkpt>
<trkpt lat="22.346451" lon="103.774384">
<ele>2013.360352</ele>
<time>2011-04-24T10:47:18Z</time>
<desc>lat.=22.346451, lon.=103.774384, Alt.=2013.360352m. Speed=0.504000m/h.</desc>
<speed>0.140000</speed>
</trkpt>
<trkpt lat="22.346453" lon="103.774384">
<ele>2013.391602</ele>
<time>2011-04-24T10:47:23Z</time>
<desc>lat.=22.346453, lon.=103.774384, Alt.=2013.391602m. Speed=0.396000m/h.</desc>
<speed>0.110000</speed>
</trkpt>
<trkpt lat="22.346453" lon="103.774384">
<ele>2013.454102</ele>
<time>2011-04-24T10:47:28Z</time>
<desc>lat.=22.346453, lon.=103.774384, Alt.=2013.454102m. Speed=0.720000m/h.</desc>
<speed>0.200000</speed>
</trkpt>
<trkpt lat="22.346449" lon="103.774391">
<ele>2013.454102</ele>
<time>2011-04-24T10:47:33Z</time>
<desc>lat.=22.346449, lon.=103.774391, Alt.=2013.454102m. Speed=1.080000m/h.</desc>
<speed>0.300000</speed>
</trkpt>
<trkpt lat="22.346436" lon="103.774406">
<ele>2013.266602</ele>
<time>2011-04-24T10:47:38Z</time>
<desc>lat.=22.346436, lon.=103.774406, Alt.=2013.266602m. Speed=0.864000m/h.</desc>
<speed>0.240000</speed>
</trkpt>
<trkpt lat="22.346432" lon="103.774406">
<ele>2013.204102</ele>
<time>2011-04-24T10:47:43Z</time>
<desc>lat.=22.346432, lon.=103.774406, Alt.=2013.204102m. Speed=0.648000m/h.</desc>
<speed>0.180000</speed>
</trkpt>
<trkpt lat="22.346439" lon="103.774384">
<ele>2013.204102</ele>
<time>2011-04-24T10:47:48Z</time>
<desc>lat.=22.346439, lon.=103.774384, Alt.=2013.204102m. Speed=2.124000m/h.</desc>
<speed>0.590000</speed>
</trkpt>
<trkpt lat="22.346445" lon="103.774368">
<ele>2012.360352</ele>
<time>2011-04-24T10:47:52Z</time>
<desc>lat.=22.346445, lon.=103.774368, Alt.=2012.360352m. Speed=0.684000m/h.</desc>
<speed>0.190000</speed>
</trkpt>
<trkpt lat="22.346445" lon="103.774361">
<ele>2012.172852</ele>
<time>2011-04-24T10:47:58Z</time>
<desc>lat.=22.346445, lon.=103.774361, Alt.=2012.172852m. Speed=0.720000m/h.</desc>
<speed>0.200000</speed>
</trkpt>
<trkpt lat="22.346445" lon="103.774338">
<ele>2011.422852</ele>
<time>2011-04-24T10:48:03Z</time>
<desc>lat.=22.346445, lon.=103.774338, Alt.=2011.422852m. Speed=0.864000m/h.</desc>
<speed>0.240000</speed>
</trkpt>
<trkpt lat="22.346453" lon="103.774330">
<ele>2011.797852</ele>
<time>2011-04-24T10:48:08Z</time>
<desc>lat.=22.346453, lon.=103.774330, Alt.=2011.797852m. Speed=0.252000m/h.</desc>
<speed>0.070000</speed>
</trkpt>
<trkpt lat="22.346455" lon="103.774330">
<ele>2011.922852</ele>
<time>2011-04-24T10:48:13Z</time>
<desc>lat.=22.346455, lon.=103.774330, Alt.=2011.922852m. Speed=0.144000m/h.</desc>
<speed>0.040000</speed>
</trkpt>
<trkpt lat="22.346458" lon="103.774323">
<ele>2011.860352</ele>
<time>2011-04-24T10:48:18Z</time>
<desc>lat.=22.346458, lon.=103.774323, Alt.=2011.860352m. Speed=0.648000m/h.</desc>
<speed>0.180000</speed>
</trkpt>
<trkpt lat="22.346458" lon="103.774323">
<ele>2011.891602</ele>
<time>2011-04-24T10:48:23Z</time>
<desc>lat.=22.346458, lon.=103.774323, Alt.=2011.891602m. Speed=0.936000m/h.</desc>
<speed>0.260000</speed>
</trkpt>
<trkpt lat="22.346462" lon="103.774315">
<ele>2011.360352</ele>
<time>2011-04-24T10:48:28Z</time>
<desc>lat.=22.346462, lon.=103.774315, Alt.=2011.360352m. Speed=0.828000m/h.</desc>
<speed>0.230000</speed>
</trkpt>
<trkpt lat="22.346464" lon="103.774292">
<ele>2010.516602</ele>
<time>2011-04-24T10:48:33Z</time>
<desc>lat.=22.346464, lon.=103.774292, Alt.=2010.516602m. Speed=2.268000m/h.</desc>
<speed>0.630000</speed>
</trkpt>
<trkpt lat="22.346472" lon="103.774261">
<ele>2009.672852</ele>
<time>2011-04-24T10:48:38Z</time>
<desc>lat.=22.346472, lon.=103.774261, Alt.=2009.672852m. Speed=1.656000m/h.</desc>
<speed>0.460000</speed>
</trkpt>
<trkpt lat="22.346483" lon="103.774254">
<ele>2010.141602</ele>
<time>2011-04-24T10:48:43Z</time>
<desc>lat.=22.346483, lon.=103.774254, Alt.=2010.141602m. Speed=2.160000m/h.</desc>
<speed>0.600000</speed>
</trkpt>
<trkpt lat="22.346510" lon="103.774246">
<ele>2009.766602</ele>
<time>2011-04-24T10:48:48Z</time>
<desc>lat.=22.346510, lon.=103.774246, Alt.=2009.766602m. Speed=1.512000m/h.</desc>
<speed>0.420000</speed>
</trkpt>
<trkpt lat="22.346556" lon="103.774246">
<ele>2009.547852</ele>
<time>2011-04-24T10:48:53Z</time>
<desc>lat.=22.346556, lon.=103.774246, Alt.=2009.547852m. Speed=0.864000m/h.</desc>
<speed>0.240000</speed>
</trkpt>
<trkpt lat="22.346571" lon="103.774246">
<ele>2009.454102</ele>
<time>2011-04-24T10:48:58Z</time>
<desc>lat.=22.346571, lon.=103.774246, Alt.=2009.454102m. Speed=0.936000m/h.</desc>
<speed>0.260000</speed>
</trkpt>
<trkpt lat="22.346575" lon="103.774269">
<ele>2009.110352</ele>
<time>2011-04-24T10:49:03Z</time>
<desc>lat.=22.346575, lon.=103.774269, Alt.=2009.110352m. Speed=0.612000m/h.</desc>
<speed>0.170000</speed>
</trkpt>
<trkpt lat="22.346590" lon="103.774269">
<ele>2009.266602</ele>
<time>2011-04-24T10:49:08Z</time>
<desc>lat.=22.346590, lon.=103.774269, Alt.=2009.266602m. Speed=2.880000m/h.</desc>
<speed>0.800000</speed>
</trkpt>
<trkpt lat="22.346601" lon="103.774239">
<ele>2009.141602</ele>
<time>2011-04-24T10:49:13Z</time>
<desc>lat.=22.346601, lon.=103.774239, Alt.=2009.141602m. Speed=1.080000m/h.</desc>
<speed>0.300000</speed>
</trkpt>
<trkpt lat="22.346615" lon="103.774223">
<ele>2009.391602</ele>
<time>2011-04-24T10:49:18Z</time>
<desc>lat.=22.346615, lon.=103.774223, Alt.=2009.391602m. Speed=0.792000m/h.</desc>
<speed>0.220000</speed>
</trkpt>
<trkpt lat="22.346624" lon="103.774223">
<ele>2009.422852</ele>
<time>2011-04-24T10:49:23Z</time>
<desc>lat.=22.346624, lon.=103.774223, Alt.=2009.422852m. Speed=0.468000m/h.</desc>
<speed>0.130000</speed>
</trkpt>
<trkpt lat="22.346636" lon="103.774208">
<ele>2009.797852</ele>
<time>2011-04-24T10:49:28Z</time>
<desc>lat.=22.346636, lon.=103.774208, Alt.=2009.797852m. Speed=0.792000m/h.</desc>
<speed>0.220000</speed>
</trkpt>
<trkpt lat="22.346642" lon="103.774208">
<ele>2010.110352</ele>
<time>2011-04-24T10:49:33Z</time>
<desc>lat.=22.346642, lon.=103.774208, Alt.=2010.110352m. Speed=0.828000m/h.</desc>
<speed>0.230000</speed>
</trkpt>
<trkpt lat="22.346645" lon="103.774155">
<ele>2009.766602</ele>
<time>2011-04-24T10:49:38Z</time>
<desc>lat.=22.346645, lon.=103.774155, Alt.=2009.766602m. Speed=2.304000m/h.</desc>
<speed>0.640000</speed>
</trkpt>
<trkpt lat="22.346664" lon="103.774117">
<ele>2008.047852</ele>
<time>2011-04-24T10:49:43Z</time>
<desc>lat.=22.346664, lon.=103.774117, Alt.=2008.047852m. Speed=1.296000m/h.</desc>
<speed>0.360000</speed>
</trkpt>
<trkpt lat="22.346684" lon="103.774078">
<ele>2007.454102</ele>
<time>2011-04-24T10:49:48Z</time>
<desc>lat.=22.346684, lon.=103.774078, Alt.=2007.454102m. Speed=2.952000m/h.</desc>
<speed>0.820000</speed>
</trkpt>
<trkpt lat="22.346703" lon="103.774048">
<ele>2007.110352</ele>
<time>2011-04-24T10:49:53Z</time>
<desc>lat.=22.346703, lon.=103.774048, Alt.=2007.110352m. Speed=2.232000m/h.</desc>
<speed>0.620000</speed>
</trkpt>
<trkpt lat="22.346756" lon="103.774025">
<ele>2006.797852</ele>
<time>2011-04-24T10:49:58Z</time>
<desc>lat.=22.346756, lon.=103.774025, Alt.=2006.797852m. Speed=4.320000m/h.</desc>
<speed>1.200000</speed>
</trkpt>
<trkpt lat="22.346815" lon="103.774002">
<ele>2002.360352</ele>
<time>2011-04-24T10:50:03Z</time>
<desc>lat.=22.346815, lon.=103.774002, Alt.=2002.360352m. Speed=2.808000m/h.</desc>
<speed>0.780000</speed>
</trkpt>
<trkpt lat="22.346846" lon="103.773994">
<ele>2000.079102</ele>
<time>2011-04-24T10:50:08Z</time>
<desc>lat.=22.346846, lon.=103.773994, Alt.=2000.079102m. Speed=2.268000m/h.</desc>
<speed>0.630000</speed>
</trkpt>
<trkpt lat="22.346865" lon="103.773956">
<ele>1997.922852</ele>
<time>2011-04-24T10:50:13Z</time>
<desc>lat.=22.346865, lon.=103.773956, Alt.=1997.922852m. Speed=2.808000m/h.</desc>
<speed>0.780000</speed>
</trkpt>
<trkpt lat="22.346880" lon="103.773933">
<ele>1997.297852</ele>
<time>2011-04-24T10:50:18Z</time>
<desc>lat.=22.346880, lon.=103.773933, Alt.=1997.297852m. Speed=0.180000m/h.</desc>
<speed>0.050000</speed>
</trkpt>
<trkpt lat="22.346882" lon="103.773933">
<ele>1996.954102</ele>
<time>2011-04-24T10:50:23Z</time>
<desc>lat.=22.346882, lon.=103.773933, Alt.=1996.954102m. Speed=0.828000m/h.</desc>
<speed>0.230000</speed>
</trkpt>
<trkpt lat="22.346901" lon="103.773918">
<ele>1996.422852</ele>
<time>2011-04-24T10:50:28Z</time>
<desc>lat.=22.346901, lon.=103.773918, Alt.=1996.422852m. Speed=0.936000m/h.</desc>
<speed>0.260000</speed>
</trkpt>
<trkpt lat="22.346912" lon="103.773918">
<ele>1996.954102</ele>
<time>2011-04-24T10:50:33Z</time>
<desc>lat.=22.346912, lon.=103.773918, Alt.=1996.954102m. Speed=1.116000m/h.</desc>
<speed>0.310000</speed>
</trkpt>
<trkpt lat="22.346926" lon="103.773903">
<ele>1996.672852</ele>
<time>2011-04-24T10:50:38Z</time>
<desc>lat.=22.346926, lon.=103.773903, Alt.=1996.672852m. Speed=1.332000m/h.</desc>
<speed>0.370000</speed>
</trkpt>
<trkpt lat="22.346933" lon="103.773903">
<ele>1995.329102</ele>
<time>2011-04-24T10:50:43Z</time>
<desc>lat.=22.346933, lon.=103.773903, Alt.=1995.329102m. Speed=2.484000m/h.</desc>
<speed>0.690000</speed>
</trkpt>
<trkpt lat="22.346937" lon="103.773888">
<ele>1995.141602</ele>
<time>2011-04-24T10:50:48Z</time>
<desc>lat.=22.346937, lon.=103.773888, Alt.=1995.141602m. Speed=2.232000m/h.</desc>
<speed>0.620000</speed>
</trkpt>
<trkpt lat="22.346949" lon="103.773872">
<ele>1995.579102</ele>
<time>2011-04-24T10:50:53Z</time>
<desc>lat.=22.346949, lon.=103.773872, Alt.=1995.579102m. Speed=1.980000m/h.</desc>
<speed>0.550000</speed>
</trkpt>
<trkpt lat="22.346962" lon="103.773857">
<ele>1995.735352</ele>
<time>2011-04-24T10:50:58Z</time>
<desc>lat.=22.346962, lon.=103.773857, Alt.=1995.735352m. Speed=2.448000m/h.</desc>
<speed>0.680000</speed>
</trkpt>
<trkpt lat="22.346985" lon="103.773857">
<ele>1995.829102</ele>
<time>2011-04-24T10:51:03Z</time>
<desc>lat.=22.346985, lon.=103.773857, Alt.=1995.829102m. Speed=1.728000m/h.</desc>
<speed>0.480000</speed>
</trkpt>
<trkpt lat="22.346983" lon="103.773857">
<ele>1996.110352</ele>
<time>2011-04-24T10:51:08Z</time>
<desc>lat.=22.346983, lon.=103.773857, Alt.=1996.110352m. Speed=1.296000m/h.</desc>
<speed>0.360000</speed>
</trkpt>
<trkpt lat="22.346992" lon="103.773865">
<ele>1995.797852</ele>
<time>2011-04-24T10:51:13Z</time>
<desc>lat.=22.346992, lon.=103.773865, Alt.=1995.797852m. Speed=0.576000m/h.</desc>
<speed>0.160000</speed>
</trkpt>
<trkpt lat="22.346996" lon="103.773880">
<ele>1995.610352</ele>
<time>2011-04-24T10:51:18Z</time>
<desc>lat.=22.346996, lon.=103.773880, Alt.=1995.610352m. Speed=0.468000m/h.</desc>
<speed>0.130000</speed>
</trkpt>
<trkpt lat="22.347000" lon="103.773888">
<ele>1995.797852</ele>
<time>2011-04-24T10:51:23Z</time>
<desc>lat.=22.347000, lon.=103.773888, Alt.=1995.797852m. Speed=0.756000m/h.</desc>
<speed>0.210000</speed>
</trkpt>
<trkpt lat="22.347012" lon="103.773872">
<ele>1995.985352</ele>
<time>2011-04-24T10:51:28Z</time>
<desc>lat.=22.347012, lon.=103.773872, Alt.=1995.985352m. Speed=0.468000m/h.</desc>
<speed>0.130000</speed>
</trkpt>
<trkpt lat="22.347034" lon="103.773842">
<ele>1995.079102</ele>
<time>2011-04-24T10:51:33Z</time>
<desc>lat.=22.347034, lon.=103.773842, Alt.=1995.079102m. Speed=1.224000m/h.</desc>
<speed>0.340000</speed>
</trkpt>
<trkpt lat="22.347052" lon="103.773834">
<ele>1996.016602</ele>
<time>2011-04-24T10:51:38Z</time>
<desc>lat.=22.347052, lon.=103.773834, Alt.=1996.016602m. Speed=2.340000m/h.</desc>
<speed>0.650000</speed>
</trkpt>
<trkpt lat="22.347057" lon="103.773819">
<ele>1996.829102</ele>
<time>2011-04-24T10:51:43Z</time>
<desc>lat.=22.347057, lon.=103.773819, Alt.=1996.829102m. Speed=0.828000m/h.</desc>
<speed>0.230000</speed>
</trkpt>
<trkpt lat="22.347092" lon="103.773811">
<ele>1997.172852</ele>
<time>2011-04-24T10:51:48Z</time>
<desc>lat.=22.347092, lon.=103.773811, Alt.=1997.172852m. Speed=2.556000m/h.</desc>
<speed>0.710000</speed>
</trkpt>
<trkpt lat="22.347099" lon="103.773819">
<ele>1996.797852</ele>
<time>2011-04-24T10:51:53Z</time>
<desc>lat.=22.347099, lon.=103.773819, Alt.=1996.797852m. Speed=0.576000m/h.</desc>
<speed>0.160000</speed>
</trkpt>
<trkpt lat="22.347101" lon="103.773819">
<ele>1996.422852</ele>
<time>2011-04-24T10:51:58Z</time>
<desc>lat.=22.347101, lon.=103.773819, Alt.=1996.422852m. Speed=0.720000m/h.</desc>
<speed>0.200000</speed>
</trkpt>
<trkpt lat="22.347120" lon="103.773819">
<ele>1996.579102</ele>
<time>2011-04-24T10:52:03Z</time>
<desc>lat.=22.347120, lon.=103.773819, Alt.=1996.579102m. Speed=1.152000m/h.</desc>
<speed>0.320000</speed>
</trkpt>
<trkpt lat="22.347151" lon="103.773819">
<ele>1995.235352</ele>
<time>2011-04-24T10:52:08Z</time>
<desc>lat.=22.347151, lon.=103.773819, Alt.=1995.235352m. Speed=1.404000m/h.</desc>
<speed>0.390000</speed>
</trkpt>
<trkpt lat="22.347164" lon="103.773796">
<ele>1994.454102</ele>
<time>2011-04-24T10:52:13Z</time>
<desc>lat.=22.347164, lon.=103.773796, Alt.=1994.454102m. Speed=1.836000m/h.</desc>
<speed>0.510000</speed>
</trkpt>
<trkpt lat="22.347176" lon="103.773788">
<ele>1994.297852</ele>
<time>2011-04-24T10:52:18Z</time>
<desc>lat.=22.347176, lon.=103.773788, Alt.=1994.297852m. Speed=0.648000m/h.</desc>
<speed>0.180000</speed>
</trkpt>
<trkpt lat="22.347174" lon="103.773788">
<ele>1993.735352</ele>
<time>2011-04-24T10:52:23Z</time>
<desc>lat.=22.347174, lon.=103.773788, Alt.=1993.735352m. Speed=0.216000m/h.</desc>
<speed>0.060000</speed>
</trkpt>
<trkpt lat="22.347179" lon="103.773773">
<ele>1993.141602</ele>
<time>2011-04-24T10:52:28Z</time>
<desc>lat.=22.347179, lon.=103.773773, Alt.=1993.141602m. Speed=0.360000m/h.</desc>
<speed>0.100000</speed>
</trkpt>
<trkpt lat="22.347195" lon="103.773788">
<ele>1993.047852</ele>
<time>2011-04-24T10:52:33Z</time>
<desc>lat.=22.347195, lon.=103.773788, Alt.=1993.047852m. Speed=3.528000m/h.</desc>
<speed>0.980000</speed>
</trkpt>
<trkpt lat="22.347202" lon="103.773804">
<ele>1993.235352</ele>
<time>2011-04-24T10:52:38Z</time>
<desc>lat.=22.347202, lon.=103.773804, Alt.=1993.235352m. Speed=1.332000m/h.</desc>
<speed>0.370000</speed>
</trkpt>
<trkpt lat="22.347214" lon="103.773811">
<ele>1993.547852</ele>
<time>2011-04-24T10:52:43Z</time>
<desc>lat.=22.347214, lon.=103.773811, Alt.=1993.547852m. Speed=0.648000m/h.</desc>
<speed>0.180000</speed>
</trkpt>
<trkpt lat="22.347233" lon="103.773796">
<ele>1993.360352</ele>
<time>2011-04-24T10:52:48Z</time>
<desc>lat.=22.347233, lon.=103.773796, Alt.=1993.360352m. Speed=0.972000m/h.</desc>
<speed>0.270000</speed>
</trkpt>
<trkpt lat="22.347237" lon="103.773811">
<ele>1993.079102</ele>
<time>2011-04-24T10:52:53Z</time>
<desc>lat.=22.347237, lon.=103.773811, Alt.=1993.079102m. Speed=0.360000m/h.</desc>
<speed>0.100000</speed>
</trkpt>
<trkpt lat="22.347260" lon="103.773880">
<ele>1992.297852</ele>
<time>2011-04-24T10:52:58Z</time>
<desc>lat.=22.347260, lon.=103.773880, Alt.=1992.297852m. Speed=1.836000m/h.</desc>
<speed>0.510000</speed>
</trkpt>
<trkpt lat="22.347267" lon="103.773857">
<ele>1991.891602</ele>
<time>2011-04-24T10:53:03Z</time>
<desc>lat.=22.347267, lon.=103.773857, Alt.=1991.891602m. Speed=0.756000m/h.</desc>
<speed>0.210000</speed>
</trkpt>
<trkpt lat="22.347261" lon="103.773842">
<ele>1990.641602</ele>
<time>2011-04-24T10:53:08Z</time>
<desc>lat.=22.347261, lon.=103.773842, Alt.=1990.641602m. Speed=0.864000m/h.</desc>
<speed>0.240000</speed>
</trkpt>
<trkpt lat="22.347263" lon="103.773834">
<ele>1989.922852</ele>
<time>2011-04-24T10:53:13Z</time>
<desc>lat.=22.347263, lon.=103.773834, Alt.=1989.922852m. Speed=0.036000m/h.</desc>
<speed>0.010000</speed>
</trkpt>
<trkpt lat="22.347261" lon="103.773827">
<ele>1989.954102</ele>
<time>2011-04-24T10:53:18Z</time>
<desc>lat.=22.347261, lon.=103.773827, Alt.=1989.954102m. Speed=0.036000m/h.</desc>
<speed>0.010000</speed>
</trkpt>
<trkpt lat="22.347261" lon="103.773819">
<ele>1990.110352</ele>
<time>2011-04-24T10:53:23Z</time>
<desc>lat.=22.347261, lon.=103.773819, Alt.=1990.110352m. Speed=0.396000m/h.</desc>
<speed>0.110000</speed>
</trkpt>
<trkpt lat="22.347263" lon="103.773819">
<ele>1989.766602</ele>
<time>2011-04-24T10:53:28Z</time>
<desc>lat.=22.347263, lon.=103.773819, Alt.=1989.766602m. Speed=0.036000m/h.</desc>
<speed>0.010000</speed>
</trkpt>
<trkpt lat="22.347260" lon="103.773819">
<ele>1989.547852</ele>
<time>2011-04-24T10:53:33Z</time>
<desc>lat.=22.347260, lon.=103.773819, Alt.=1989.547852m. Speed=0.288000m/h.</desc>
<speed>0.080000</speed>
</trkpt>
<trkpt lat="22.347284" lon="103.773788">
<ele>1988.329102</ele>
<time>2011-04-24T10:53:38Z</time>
<desc>lat.=22.347284, lon.=103.773788, Alt.=1988.329102m. Speed=1.584000m/h.</desc>
<speed>0.440000</speed>
</trkpt>
<trkpt lat="22.347296" lon="103.773781">
<ele>1987.485352</ele>
<time>2011-04-24T10:53:43Z</time>
<desc>lat.=22.347296, lon.=103.773781, Alt.=1987.485352m. Speed=1.764000m/h.</desc>
<speed>0.490000</speed>
</trkpt>
<trkpt lat="22.347296" lon="103.773773">
<ele>1986.610352</ele>
<time>2011-04-24T10:53:48Z</time>
<desc>lat.=22.347296, lon.=103.773773, Alt.=1986.610352m. Speed=0.504000m/h.</desc>
<speed>0.140000</speed>
</trkpt>
<trkpt lat="22.347288" lon="103.773750">
<ele>1986.204102</ele>
<time>2011-04-24T10:53:53Z</time>
<desc>lat.=22.347288, lon.=103.773750, Alt.=1986.204102m. Speed=1.944000m/h.</desc>
<speed>0.540000</speed>
</trkpt>
<trkpt lat="22.347290" lon="103.773735">
<ele>1986.079102</ele>
<time>2011-04-24T10:53:58Z</time>
<desc>lat.=22.347290, lon.=103.773735, Alt.=1986.079102m. Speed=2.448000m/h.</desc>
<speed>0.680000</speed>
</trkpt>
<trkpt lat="22.347298" lon="103.773705">
<ele>1983.954102</ele>
<time>2011-04-24T10:54:03Z</time>
<desc>lat.=22.347298, lon.=103.773705, Alt.=1983.954102m. Speed=1.656000m/h.</desc>
<speed>0.460000</speed>
</trkpt>
<trkpt lat="22.347313" lon="103.773697">
<ele>1983.829102</ele>
<time>2011-04-24T10:54:08Z</time>
<desc>lat.=22.347313, lon.=103.773697, Alt.=1983.829102m. Speed=0.900000m/h.</desc>
<speed>0.250000</speed>
</trkpt>
<trkpt lat="22.347326" lon="103.773689">
<ele>1983.422852</ele>
<time>2011-04-24T10:54:13Z</time>
<desc>lat.=22.347326, lon.=103.773689, Alt.=1983.422852m. Speed=1.692000m/h.</desc>
<speed>0.470000</speed>
</trkpt>
<trkpt lat="22.347340" lon="103.773697">
<ele>1983.579102</ele>
<time>2011-04-24T10:54:18Z</time>
<desc>lat.=22.347340, lon.=103.773697, Alt.=1983.579102m. Speed=1.404000m/h.</desc>
<speed>0.390000</speed>
</trkpt>
<trkpt lat="22.347347" lon="103.773651">
<ele>1983.641602</ele>
<time>2011-04-24T10:54:23Z</time>
<desc>lat.=22.347347, lon.=103.773651, Alt.=1983.641602m. Speed=2.772000m/h.</desc>
<speed>0.770000</speed>
</trkpt>
<trkpt lat="22.347372" lon="103.773628">
<ele>1983.204102</ele>
<time>2011-04-24T10:54:28Z</time>
<desc>lat.=22.347372, lon.=103.773628, Alt.=1983.204102m. Speed=3.384000m/h.</desc>
<speed>0.940000</speed>
</trkpt>
<trkpt lat="22.347393" lon="103.773613">
<ele>1981.985352</ele>
<time>2011-04-24T10:54:33Z</time>
<desc>lat.=22.347393, lon.=103.773613, Alt.=1981.985352m. Speed=1.440000m/h.</desc>
<speed>0.400000</speed>
</trkpt>
<trkpt lat="22.347397" lon="103.773590">
<ele>1980.610352</ele>
<time>2011-04-24T10:54:38Z</time>
<desc>lat.=22.347397, lon.=103.773590, Alt.=1980.610352m. Speed=2.448000m/h.</desc>
<speed>0.680000</speed>
</trkpt>
<trkpt lat="22.347425" lon="103.773582">
<ele>1980.454102</ele>
<time>2011-04-24T10:54:43Z</time>
<desc>lat.=22.347425, lon.=103.773582, Alt.=1980.454102m. Speed=2.088000m/h.</desc>
<speed>0.580000</speed>
</trkpt>
<trkpt lat="22.347446" lon="103.773560">
<ele>1980.360352</ele>
<time>2011-04-24T10:54:48Z</time>
<desc>lat.=22.347446, lon.=103.773560, Alt.=1980.360352m. Speed=2.952000m/h.</desc>
<speed>0.820000</speed>
</trkpt>
<trkpt lat="22.347462" lon="103.773575">
<ele>1979.891602</ele>
<time>2011-04-24T10:54:53Z</time>
<desc>lat.=22.347462, lon.=103.773575, Alt.=1979.891602m. Speed=1.440000m/h.</desc>
<speed>0.400000</speed>
</trkpt>
<trkpt lat="22.347490" lon="103.773560">
<ele>1980.172852</ele>
<time>2011-04-24T10:54:58Z</time>
<desc>lat.=22.347490, lon.=103.773560, Alt.=1980.172852m. Speed=2.628000m/h.</desc>
<speed>0.730000</speed>
</trkpt>
<trkpt lat="22.347527" lon="103.773552">
<ele>1980.016602</ele>
<time>2011-04-24T10:55:03Z</time>
<desc>lat.=22.347527, lon.=103.773552, Alt.=1980.016602m. Speed=1.800000m/h.</desc>
<speed>0.500000</speed>
</trkpt>
<trkpt lat="22.347559" lon="103.773560">
<ele>1980.829102</ele>
<time>2011-04-24T10:55:08Z</time>
<desc>lat.=22.347559, lon.=103.773560, Alt.=1980.829102m. Speed=2.880000m/h.</desc>
<speed>0.800000</speed>
</trkpt>
<trkpt lat="22.347574" lon="103.773567">
<ele>1980.860352</ele>
<time>2011-04-24T10:55:13Z</time>
<desc>lat.=22.347574, lon.=103.773567, Alt.=1980.860352m. Speed=0.576000m/h.</desc>
<speed>0.160000</speed>
</trkpt>
<trkpt lat="22.347582" lon="103.773590">
<ele>1980.547852</ele>
<time>2011-04-24T10:55:18Z</time>
<desc>lat.=22.347582, lon.=103.773590, Alt.=1980.547852m. Speed=0.792000m/h.</desc>
<speed>0.220000</speed>
</trkpt>
<trkpt lat="22.347599" lon="103.773598">
<ele>1980.579102</ele>
<time>2011-04-24T10:55:23Z</time>
<desc>lat.=22.347599, lon.=103.773598, Alt.=1980.579102m. Speed=1.764000m/h.</desc>
<speed>0.490000</speed>
</trkpt>
<trkpt lat="22.347637" lon="103.773582">
<ele>1981.422852</ele>
<time>2011-04-24T10:55:28Z</time>
<desc>lat.=22.347637, lon.=103.773582, Alt.=1981.422852m. Speed=2.412000m/h.</desc>
<speed>0.670000</speed>
</trkpt>
<trkpt lat="22.347683" lon="103.773621">
<ele>1981.797852</ele>
<time>2011-04-24T10:55:33Z</time>
<desc>lat.=22.347683, lon.=103.773621, Alt.=1981.797852m. Speed=2.160000m/h.</desc>
<speed>0.600000</speed>
</trkpt>
<trkpt lat="22.347725" lon="103.773636">
<ele>1981.641602</ele>
<time>2011-04-24T10:55:38Z</time>
<desc>lat.=22.347725, lon.=103.773636, Alt.=1981.641602m. Speed=2.808000m/h.</desc>
<speed>0.780000</speed>
</trkpt>
<trkpt lat="22.347761" lon="103.773651">
<ele>1982.766602</ele>
<time>2011-04-24T10:55:43Z</time>
<desc>lat.=22.347761, lon.=103.773651, Alt.=1982.766602m. Speed=3.456000m/h.</desc>
<speed>0.960000</speed>
</trkpt>
<trkpt lat="22.347790" lon="103.773689">
<ele>1983.297852</ele>
<time>2011-04-24T10:55:48Z</time>
<desc>lat.=22.347790, lon.=103.773689, Alt.=1983.297852m. Speed=2.916000m/h.</desc>
<speed>0.810000</speed>
</trkpt>
<trkpt lat="22.347811" lon="103.773712">
<ele>1984.391602</ele>
<time>2011-04-24T10:55:53Z</time>
<desc>lat.=22.347811, lon.=103.773712, Alt.=1984.391602m. Speed=2.160000m/h.</desc>
<speed>0.600000</speed>
</trkpt>
<trkpt lat="22.347836" lon="103.773743">
<ele>1985.110352</ele>
<time>2011-04-24T10:55:58Z</time>
<desc>lat.=22.347836, lon.=103.773743, Alt.=1985.110352m. Speed=3.096000m/h.</desc>
<speed>0.860000</speed>
</trkpt>
<trkpt lat="22.347870" lon="103.773773">
<ele>1985.454102</ele>
<time>2011-04-24T10:56:03Z</time>
<desc>lat.=22.347870, lon.=103.773773, Alt.=1985.454102m. Speed=1.260000m/h.</desc>
<speed>0.350000</speed>
</trkpt>
<trkpt lat="22.347898" lon="103.773811">
<ele>1986.891602</ele>
<time>2011-04-24T10:56:08Z</time>
<desc>lat.=22.347898, lon.=103.773811, Alt.=1986.891602m. Speed=2.484000m/h.</desc>
<speed>0.690000</speed>
</trkpt>
<trkpt lat="22.347918" lon="103.773834">
<ele>1987.891602</ele>
<time>2011-04-24T10:56:13Z</time>
<desc>lat.=22.347918, lon.=103.773834, Alt.=1987.891602m. Speed=2.088000m/h.</desc>
<speed>0.580000</speed>
</trkpt>
<trkpt lat="22.347948" lon="103.773865">
<ele>1988.641602</ele>
<time>2011-04-24T10:56:18Z</time>
<desc>lat.=22.347948, lon.=103.773865, Alt.=1988.641602m. Speed=1.080000m/h.</desc>
<speed>0.300000</speed>
</trkpt>
<trkpt lat="22.347967" lon="103.773895">
<ele>1989.454102</ele>
<time>2011-04-24T10:56:23Z</time>
<desc>lat.=22.347967, lon.=103.773895, Alt.=1989.454102m. Speed=1.980000m/h.</desc>
<speed>0.550000</speed>
</trkpt>
<trkpt lat="22.347977" lon="103.773911">
<ele>1989.391602</ele>
<time>2011-04-24T10:56:28Z</time>
<desc>lat.=22.347977, lon.=103.773911, Alt.=1989.391602m. Speed=1.404000m/h.</desc>
<speed>0.390000</speed>
</trkpt>
<trkpt lat="22.347992" lon="103.773933">
<ele>1989.235352</ele>
<time>2011-04-24T10:56:33Z</time>
<desc>lat.=22.347992, lon.=103.773933, Alt.=1989.235352m. Speed=3.240000m/h.</desc>
<speed>0.900000</speed>
</trkpt>
<trkpt lat="22.348005" lon="103.773949">
<ele>1987.922852</ele>
<time>2011-04-24T10:56:38Z</time>
<desc>lat.=22.348005, lon.=103.773949, Alt.=1987.922852m. Speed=1.512000m/h.</desc>
<speed>0.420000</speed>
</trkpt>
<trkpt lat="22.348030" lon="103.773956">
<ele>1986.985352</ele>
<time>2011-04-24T10:56:43Z</time>
<desc>lat.=22.348030, lon.=103.773956, Alt.=1986.985352m. Speed=1.008000m/h.</desc>
<speed>0.280000</speed>
</trkpt>
<trkpt lat="22.348059" lon="103.773972">
<ele>1985.579102</ele>
<time>2011-04-24T10:56:48Z</time>
<desc>lat.=22.348059, lon.=103.773972, Alt.=1985.579102m. Speed=2.268000m/h.</desc>
<speed>0.630000</speed>
</trkpt>
<trkpt lat="22.348072" lon="103.773964">
<ele>1985.610352</ele>
<time>2011-04-24T10:56:53Z</time>
<desc>lat.=22.348072, lon.=103.773964, Alt.=1985.610352m. Speed=1.260000m/h.</desc>
<speed>0.350000</speed>
</trkpt>
<trkpt lat="22.348087" lon="103.773964">
<ele>1986.235352</ele>
<time>2011-04-24T10:56:58Z</time>
<desc>lat.=22.348087, lon.=103.773964, Alt.=1986.235352m. Speed=1.404000m/h.</desc>
<speed>0.390000</speed>
</trkpt>
<trkpt lat="22.348125" lon="103.774002">
<ele>1986.391602</ele>
<time>2011-04-24T10:57:03Z</time>
<desc>lat.=22.348125, lon.=103.774002, Alt.=1986.391602m. Speed=2.196000m/h.</desc>
<speed>0.610000</speed>
</trkpt>
<trkpt lat="22.348181" lon="103.774025">
<ele>1986.329102</ele>
<time>2011-04-24T10:57:08Z</time>
<desc>lat.=22.348181, lon.=103.774025, Alt.=1986.329102m. Speed=2.916000m/h.</desc>
<speed>0.810000</speed>
</trkpt>
<trkpt lat="22.348219" lon="103.774025">
<ele>1985.235352</ele>
<time>2011-04-24T10:57:13Z</time>
<desc>lat.=22.348219, lon.=103.774025, Alt.=1985.235352m. Speed=0.396000m/h.</desc>
<speed>0.110000</speed>
</trkpt>
<trkpt lat="22.348242" lon="103.774048">
<ele>1984.360352</ele>
<time>2011-04-24T10:57:18Z</time>
<desc>lat.=22.348242, lon.=103.774048, Alt.=1984.360352m. Speed=1.080000m/h.</desc>
<speed>0.300000</speed>
</trkpt>
<trkpt lat="22.348265" lon="103.774109">
<ele>1982.922852</ele>
<time>2011-04-24T10:57:23Z</time>
<desc>lat.=22.348265, lon.=103.774109, Alt.=1982.922852m. Speed=2.736000m/h.</desc>
<speed>0.760000</speed>
</trkpt>
<trkpt lat="22.348289" lon="103.774139">
<ele>1981.704102</ele>
<time>2011-04-24T10:57:28Z</time>
<desc>lat.=22.348289, lon.=103.774139, Alt.=1981.704102m. Speed=3.924000m/h.</desc>
<speed>1.090000</speed>
</trkpt>
<trkpt lat="22.348312" lon="103.774162">
<ele>1981.641602</ele>
<time>2011-04-24T10:57:33Z</time>
<desc>lat.=22.348312, lon.=103.774162, Alt.=1981.641602m. Speed=2.124000m/h.</desc>
<speed>0.590000</speed>
</trkpt>
<trkpt lat="22.348368" lon="103.774216">
<ele>1981.704102</ele>
<time>2011-04-24T10:57:38Z</time>
<desc>lat.=22.348368, lon.=103.774216, Alt.=1981.704102m. Speed=2.484000m/h.</desc>
<speed>0.690000</speed>
</trkpt>
<trkpt lat="22.348392" lon="103.774231">
<ele>1981.610352</ele>
<time>2011-04-24T10:57:43Z</time>
<desc>lat.=22.348392, lon.=103.774231, Alt.=1981.610352m. Speed=0.612000m/h.</desc>
<speed>0.170000</speed>
</trkpt>
<trkpt lat="22.348434" lon="103.774239">
<ele>1981.391602</ele>
<time>2011-04-24T10:57:48Z</time>
<desc>lat.=22.348434, lon.=103.774239, Alt.=1981.391602m. Speed=2.736000m/h.</desc>
<speed>0.760000</speed>
</trkpt>
<trkpt lat="22.348490" lon="103.774254">
<ele>1981.422852</ele>
<time>2011-04-24T10:57:53Z</time>
<desc>lat.=22.348490, lon.=103.774254, Alt.=1981.422852m. Speed=1.872000m/h.</desc>
<speed>0.520000</speed>
</trkpt>
<trkpt lat="22.348537" lon="103.774277">
<ele>1980.141602</ele>
<time>2011-04-24T10:57:58Z</time>
<desc>lat.=22.348537, lon.=103.774277, Alt.=1980.141602m. Speed=2.052000m/h.</desc>
<speed>0.570000</speed>
</trkpt>
<trkpt lat="22.348568" lon="103.774284">
<ele>1979.016602</ele>
<time>2011-04-24T10:58:03Z</time>
<desc>lat.=22.348568, lon.=103.774284, Alt.=1979.016602m. Speed=0.900000m/h.</desc>
<speed>0.250000</speed>
</trkpt>
<trkpt lat="22.348593" lon="103.774307">
<ele>1978.297852</ele>
<time>2011-04-24T10:58:08Z</time>
<desc>lat.=22.348593, lon.=103.774307, Alt.=1978.297852m. Speed=1.512000m/h.</desc>
<speed>0.420000</speed>
</trkpt>
<trkpt lat="22.348606" lon="103.774307">
<ele>1976.922852</ele>
<time>2011-04-24T10:58:13Z</time>
<desc>lat.=22.348606, lon.=103.774307, Alt.=1976.922852m. Speed=1.044000m/h.</desc>
<speed>0.290000</speed>
</trkpt>
<trkpt lat="22.348623" lon="103.774300">
<ele>1975.704102</ele>
<time>2011-04-24T10:58:18Z</time>
<desc>lat.=22.348623, lon.=103.774300, Alt.=1975.704102m. Speed=0.972000m/h.</desc>
<speed>0.270000</speed>
</trkpt>
<trkpt lat="22.348629" lon="103.774315">
<ele>1975.704102</ele>
<time>2011-04-24T10:58:23Z</time>
<desc>lat.=22.348629, lon.=103.774315, Alt.=1975.704102m. Speed=0.792000m/h.</desc>
<speed>0.220000</speed>
</trkpt>
<trkpt lat="22.348667" lon="103.774315">
<ele>1975.110352</ele>
<time>2011-04-24T10:58:28Z</time>
<desc>lat.=22.348667, lon.=103.774315, Alt.=1975.110352m. Speed=2.088000m/h.</desc>
<speed>0.580000</speed>
</trkpt>
<trkpt lat="22.348696" lon="103.774338">
<ele>1974.079102</ele>
<time>2011-04-24T10:58:33Z</time>
<desc>lat.=22.348696, lon.=103.774338, Alt.=1974.079102m. Speed=1.584000m/h.</desc>
<speed>0.440000</speed>
</trkpt>
<trkpt lat="22.348715" lon="103.774345">
<ele>1973.329102</ele>
<time>2011-04-24T10:58:38Z</time>
<desc>lat.=22.348715, lon.=103.774345, Alt.=1973.329102m. Speed=2.052000m/h.</desc>
<speed>0.570000</speed>
</trkpt>
<trkpt lat="22.348730" lon="103.774361">
<ele>1972.641602</ele>
<time>2011-04-24T10:58:43Z</time>
<desc>lat.=22.348730, lon.=103.774361, Alt.=1972.641602m. Speed=0.792000m/h.</desc>
<speed>0.220000</speed>
</trkpt>
<trkpt lat="22.348740" lon="103.774384">
<ele>1970.485352</ele>
<time>2011-04-24T10:58:48Z</time>
<desc>lat.=22.348740, lon.=103.774384, Alt.=1970.485352m. Speed=1.476000m/h.</desc>
<speed>0.410000</speed>
</trkpt>
<trkpt lat="22.348740" lon="103.774399">
<ele>1967.891602</ele>
<time>2011-04-24T10:58:53Z</time>
<desc>lat.=22.348740, lon.=103.774399, Alt.=1967.891602m. Speed=0.000000m/h.</desc>
<speed>0.000000</speed>
</trkpt>
<trkpt lat="22.348740" lon="103.774399">
<ele>1967.860352</ele>
<time>2011-04-24T10:58:58Z</time>
<desc>lat.=22.348740, lon.=103.774399, Alt.=1967.860352m. Speed=1.584000m/h.</desc>
<speed>0.440000</speed>
</trkpt>
<trkpt lat="22.348738" lon="103.774399">
<ele>1967.579102</ele>
<time>2011-04-24T10:59:03Z</time>
<desc>lat.=22.348738, lon.=103.774399, Alt.=1967.579102m. Speed=0.180000m/h.</desc>
<speed>0.050000</speed>
</trkpt>
<trkpt lat="22.348740" lon="103.774391">
<ele>1967.516602</ele>
<time>2011-04-24T10:59:08Z</time>
<desc>lat.=22.348740, lon.=103.774391, Alt.=1967.516602m. Speed=0.720000m/h.</desc>
<speed>0.200000</speed>
</trkpt>
<trkpt lat="22.348743" lon="103.774384">
<ele>1967.485352</ele>
<time>2011-04-24T10:59:13Z</time>
<desc>lat.=22.348743, lon.=103.774384, Alt.=1967.485352m. Speed=0.648000m/h.</desc>
<speed>0.180000</speed>
</trkpt>
<trkpt lat="22.348751" lon="103.774384">
<ele>1967.485352</ele>
<time>2011-04-24T10:59:18Z</time>
<desc>lat.=22.348751, lon.=103.774384, Alt.=1967.485352m. Speed=0.936000m/h.</desc>
<speed>0.260000</speed>
</trkpt>
<trkpt lat="22.348789" lon="103.774384">
<ele>1966.860352</ele>
<time>2011-04-24T10:59:23Z</time>
<desc>lat.=22.348789, lon.=103.774384, Alt.=1966.860352m. Speed=1.476000m/h.</desc>
<speed>0.410000</speed>
</trkpt>
<trkpt lat="22.348825" lon="103.774376">
<ele>1965.922852</ele>
<time>2011-04-24T10:59:28Z</time>
<desc>lat.=22.348825, lon.=103.774376, Alt.=1965.922852m. Speed=1.332000m/h.</desc>
<speed>0.370000</speed>
</trkpt>
<trkpt lat="22.348850" lon="103.774353">
<ele>1965.797852</ele>
<time>2011-04-24T10:59:33Z</time>
<desc>lat.=22.348850, lon.=103.774353, Alt.=1965.797852m. Speed=1.008000m/h.</desc>
<speed>0.280000</speed>
</trkpt>
<trkpt lat="22.348881" lon="103.774361">
<ele>1965.454102</ele>
<time>2011-04-24T10:59:38Z</time>
<desc>lat.=22.348881, lon.=103.774361, Alt.=1965.454102m. Speed=1.260000m/h.</desc>
<speed>0.350000</speed>
</trkpt>
<trkpt lat="22.348890" lon="103.774361">
<ele>1965.579102</ele>
<time>2011-04-24T10:59:43Z</time>
<desc>lat.=22.348890, lon.=103.774361, Alt.=1965.579102m. Speed=0.000000m/h.</desc>
<speed>0.000000</speed>
</trkpt>
<trkpt lat="22.348900" lon="103.774361">
<ele>1965.454102</ele>
<time>2011-04-24T10:59:48Z</time>
<desc>lat.=22.348900, lon.=103.774361, Alt.=1965.454102m. Speed=2.088000m/h.</desc>
<speed>0.580000</speed>
</trkpt>
<trkpt lat="22.348921" lon="103.774361">
<ele>1965.297852</ele>
<time>2011-04-24T10:59:53Z</time>
<desc>lat.=22.348921, lon.=103.774361, Alt.=1965.297852m. Speed=0.828000m/h.</desc>
<speed>0.230000</speed>
</trkpt>
<trkpt lat="22.348932" lon="103.774353">
<ele>1965.266602</ele>
<time>2011-04-24T10:59:58Z</time>
<desc>lat.=22.348932, lon.=103.774353, Alt.=1965.266602m. Speed=0.288000m/h.</desc>
<speed>0.080000</speed>
</trkpt>
<trkpt lat="22.348953" lon="103.774353">
<ele>1965.172852</ele>
<time>2011-04-24T11:00:03Z</time>
<desc>lat.=22.348953, lon.=103.774353, Alt.=1965.172852m. Speed=1.764000m/h.</desc>
<speed>0.490000</speed>
</trkpt>
<trkpt lat="22.348974" lon="103.774345">
<ele>1965.047852</ele>
<time>2011-04-24T11:00:08Z</time>
<desc>lat.=22.348974, lon.=103.774345, Alt.=1965.047852m. Speed=1.440000m/h.</desc>
<speed>0.400000</speed>
</trkpt>
<trkpt lat="22.348999" lon="103.774330">
<ele>1964.985352</ele>
<time>2011-04-24T11:00:13Z</time>
<desc>lat.=22.348999, lon.=103.774330, Alt.=1964.985352m. Speed=1.476000m/h.</desc>
<speed>0.410000</speed>
</trkpt>
<trkpt lat="22.349062" lon="103.774353">
<ele>1964.204102</ele>
<time>2011-04-24T11:00:18Z</time>
<desc>lat.=22.349062, lon.=103.774353, Alt.=1964.204102m. Speed=2.664000m/h.</desc>
<speed>0.740000</speed>
</trkpt>
<trkpt lat="22.349092" lon="103.774323">
<ele>1962.516602</ele>
<time>2011-04-24T11:00:23Z</time>
<desc>lat.=22.349092, lon.=103.774323, Alt.=1962.516602m. Speed=1.008000m/h.</desc>
<speed>0.280000</speed>
</trkpt>
<trkpt lat="22.349117" lon="103.774315">
<ele>1962.141602</ele>
<time>2011-04-24T11:00:28Z</time>
<desc>lat.=22.349117, lon.=103.774315, Alt.=1962.141602m. Speed=2.268000m/h.</desc>
<speed>0.630000</speed>
</trkpt>
<trkpt lat="22.349144" lon="103.774300">
<ele>1962.516602</ele>
<time>2011-04-24T11:00:33Z</time>
<desc>lat.=22.349144, lon.=103.774300, Alt.=1962.516602m. Speed=2.052000m/h.</desc>
<speed>0.570000</speed>
</trkpt>
<trkpt lat="22.349203" lon="103.774315">
<ele>1962.579102</ele>
<time>2011-04-24T11:00:38Z</time>
<desc>lat.=22.349203, lon.=103.774315, Alt.=1962.579102m. Speed=2.844000m/h.</desc>
<speed>0.790000</speed>
</trkpt>
<trkpt lat="22.349230" lon="103.774300">
<ele>1962.079102</ele>
<time>2011-04-24T11:00:43Z</time>
<desc>lat.=22.349230, lon.=103.774300, Alt.=1962.079102m. Speed=1.008000m/h.</desc>
<speed>0.280000</speed>
</trkpt>
<trkpt lat="22.349245" lon="103.774300">
<ele>1961.110352</ele>
<time>2011-04-24T11:00:48Z</time>
<desc>lat.=22.349245, lon.=103.774300, Alt.=1961.110352m. Speed=2.160000m/h.</desc>
<speed>0.600000</speed>
</trkpt>
<trkpt lat="22.349281" lon="103.774269">
<ele>1960.047852</ele>
<time>2011-04-24T11:00:53Z</time>
<desc>lat.=22.349281, lon.=103.774269, Alt.=1960.047852m. Speed=3.672000m/h.</desc>
<speed>1.020000</speed>
</trkpt>
<trkpt lat="22.349319" lon="103.774269">
<ele>1958.485352</ele>
<time>2011-04-24T11:00:58Z</time>
<desc>lat.=22.349319, lon.=103.774269, Alt.=1958.485352m. Speed=2.592000m/h.</desc>
<speed>0.720000</speed>
</trkpt>
<trkpt lat="22.349354" lon="103.774261">
<ele>1953.672852</ele>
<time>2011-04-24T11:01:03Z</time>
<desc>lat.=22.349354, lon.=103.774261, Alt.=1953.672852m. Speed=2.016000m/h.</desc>
<speed>0.560000</speed>
</trkpt>
<trkpt lat="22.349373" lon="103.774269">
<ele>1952.110352</ele>
<time>2011-04-24T11:01:08Z</time>
<desc>lat.=22.349373, lon.=103.774269, Alt.=1952.110352m. Speed=1.548000m/h.</desc>
<speed>0.430000</speed>
</trkpt>
<trkpt lat="22.349392" lon="103.774246">
<ele>1951.235352</ele>
<time>2011-04-24T11:01:13Z</time>
<desc>lat.=22.349392, lon.=103.774246, Alt.=1951.235352m. Speed=1.332000m/h.</desc>
<speed>0.370000</speed>
</trkpt>
<trkpt lat="22.349426" lon="103.774246">
<ele>1950.516602</ele>
<time>2011-04-24T11:01:18Z</time>
<desc>lat.=22.349426, lon.=103.774246, Alt.=1950.516602m. Speed=2.232000m/h.</desc>
<speed>0.620000</speed>
</trkpt>
<trkpt lat="22.349459" lon="103.774231">
<ele>1949.172852</ele>
<time>2011-04-24T11:01:23Z</time>
<desc>lat.=22.349459, lon.=103.774231, Alt.=1949.172852m. Speed=1.332000m/h.</desc>
<speed>0.370000</speed>
</trkpt>
<trkpt lat="22.349472" lon="103.774231">
<ele>1946.735352</ele>
<time>2011-04-24T11:01:28Z</time>
<desc>lat.=22.349472, lon.=103.774231, Alt.=1946.735352m. Speed=1.584000m/h.</desc>
<speed>0.440000</speed>
</trkpt>
<trkpt lat="22.349497" lon="103.774216">
<ele>1945.516602</ele>
<time>2011-04-24T11:01:33Z</time>
<desc>lat.=22.349497, lon.=103.774216, Alt.=1945.516602m. Speed=2.448000m/h.</desc>
<speed>0.680000</speed>
</trkpt>
<trkpt lat="22.349531" lon="103.774208">
<ele>1942.891602</ele>
<time>2011-04-24T11:01:38Z</time>
<desc>lat.=22.349531, lon.=103.774208, Alt.=1942.891602m. Speed=3.672000m/h.</desc>
<speed>1.020000</speed>
</trkpt>
<trkpt lat="22.349552" lon="103.774193">
<ele>1940.735352</ele>
<time>2011-04-24T11:01:43Z</time>
<desc>lat.=22.349552, lon.=103.774193, Alt.=1940.735352m. Speed=3.456000m/h.</desc>
<speed>0.960000</speed>
</trkpt>
<trkpt lat="22.349585" lon="103.774193">
<ele>1939.641602</ele>
<time>2011-04-24T11:01:48Z</time>
<desc>lat.=22.349585, lon.=103.774193, Alt.=1939.641602m. Speed=3.312000m/h.</desc>
<speed>0.920000</speed>
</trkpt>
<trkpt lat="22.349617" lon="103.774200">
<ele>1937.422852</ele>
<time>2011-04-24T11:01:53Z</time>
<desc>lat.=22.349617, lon.=103.774200, Alt.=1937.422852m. Speed=2.556000m/h.</desc>
<speed>0.710000</speed>
</trkpt>
<trkpt lat="22.349644" lon="103.774231">
<ele>1936.829102</ele>
<time>2011-04-24T11:01:58Z</time>
<desc>lat.=22.349644, lon.=103.774231, Alt.=1936.829102m. Speed=2.232000m/h.</desc>
<speed>0.620000</speed>
</trkpt>
<trkpt lat="22.349684" lon="103.774246">
<ele>1935.297852</ele>
<time>2011-04-24T11:02:03Z</time>
<desc>lat.=22.349684, lon.=103.774246, Alt.=1935.297852m. Speed=2.016000m/h.</desc>
<speed>0.560000</speed>
</trkpt>
<trkpt lat="22.349703" lon="103.774239">
<ele>1934.329102</ele>
<time>2011-04-24T11:02:08Z</time>
<desc>lat.=22.349703, lon.=103.774239, Alt.=1934.329102m. Speed=1.332000m/h.</desc>
<speed>0.370000</speed>
</trkpt>
<trkpt lat="22.349712" lon="103.774246">
<ele>1933.766602</ele>
<time>2011-04-24T11:02:13Z</time>
<desc>lat.=22.349712, lon.=103.774246, Alt.=1933.766602m. Speed=1.512000m/h.</desc>
<speed>0.420000</speed>
</trkpt>
<trkpt lat="22.349730" lon="103.774231">
<ele>1933.860352</ele>
<time>2011-04-24T11:02:18Z</time>
<desc>lat.=22.349730, lon.=103.774231, Alt.=1933.860352m. Speed=1.296000m/h.</desc>
<speed>0.360000</speed>
</trkpt>
<trkpt lat="22.349764" lon="103.774216">
<ele>1932.047852</ele>
<time>2011-04-24T11:02:23Z</time>
<desc>lat.=22.349764, lon.=103.774216, Alt.=1932.047852m. Speed=1.944000m/h.</desc>
<speed>0.540000</speed>
</trkpt>
<trkpt lat="22.349789" lon="103.774208">
<ele>1931.579102</ele>
<time>2011-04-24T11:02:28Z</time>
<desc>lat.=22.349789, lon.=103.774208, Alt.=1931.579102m. Speed=0.828000m/h.</desc>
<speed>0.230000</speed>
</trkpt>
<trkpt lat="22.349792" lon="103.774216">
<ele>1932.172852</ele>
<time>2011-04-24T11:02:33Z</time>
<desc>lat.=22.349792, lon.=103.774216, Alt.=1932.172852m. Speed=1.080000m/h.</desc>
<speed>0.300000</speed>
</trkpt>
<trkpt lat="22.349813" lon="103.774216">
<ele>1931.516602</ele>
<time>2011-04-24T11:02:38Z</time>
<desc>lat.=22.349813, lon.=103.774216, Alt.=1931.516602m. Speed=0.648000m/h.</desc>
<speed>0.180000</speed>
</trkpt>
<trkpt lat="22.349817" lon="103.774223">
<ele>1931.360352</ele>
<time>2011-04-24T11:02:43Z</time>
<desc>lat.=22.349817, lon.=103.774223, Alt.=1931.360352m. Speed=0.684000m/h.</desc>
<speed>0.190000</speed>
</trkpt>
<trkpt lat="22.349831" lon="103.774223">
<ele>1930.985352</ele>
<time>2011-04-24T11:02:48Z</time>
<desc>lat.=22.349831, lon.=103.774223, Alt.=1930.985352m. Speed=0.396000m/h.</desc>
<speed>0.110000</speed>
</trkpt>
<trkpt lat="22.349842" lon="103.774223">
<ele>1930.110352</ele>
<time>2011-04-24T11:02:53Z</time>
<desc>lat.=22.349842, lon.=103.774223, Alt.=1930.110352m. Speed=0.972000m/h.</desc>
<speed>0.270000</speed>
</trkpt>
<trkpt lat="22.349863" lon="103.774223">
<ele>1929.266602</ele>
<time>2011-04-24T11:02:58Z</time>
<desc>lat.=22.349863, lon.=103.774223, Alt.=1929.266602m. Speed=0.612000m/h.</desc>
<speed>0.170000</speed>
</trkpt>
<trkpt lat="22.349867" lon="103.774223">
<ele>1928.766602</ele>
<time>2011-04-24T11:03:03Z</time>
<desc>lat.=22.349867, lon.=103.774223, Alt.=1928.766602m. Speed=0.540000m/h.</desc>
<speed>0.150000</speed>
</trkpt>
<trkpt lat="22.349865" lon="103.774231">
<ele>1928.735352</ele>
<time>2011-04-24T11:03:08Z</time>
<desc>lat.=22.349865, lon.=103.774231, Alt.=1928.735352m. Speed=0.072000m/h.</desc>
<speed>0.020000</speed>
</trkpt>
<trkpt lat="22.349867" lon="103.774231">
<ele>1928.735352</ele>
<time>2011-04-24T11:03:13Z</time>
<desc>lat.=22.349867, lon.=103.774231, Alt.=1928.735352m. Speed=0.072000m/h.</desc>
<speed>0.020000</speed>
</trkpt>
<trkpt lat="22.349869" lon="103.774231">
<ele>1928.672852</ele>
<time>2011-04-24T11:03:18Z</time>
<desc>lat.=22.349869, lon.=103.774231, Alt.=1928.672852m. Speed=0.900000m/h.</desc>
<speed>0.250000</speed>
</trkpt>
<trkpt lat="22.349878" lon="103.774223">
<ele>1928.516602</ele>
<time>2011-04-24T11:03:23Z</time>
<desc>lat.=22.349878, lon.=103.774223, Alt.=1928.516602m. Speed=1.944000m/h.</desc>
<speed>0.540000</speed>
</trkpt>
<trkpt lat="22.349884" lon="103.774223">
<ele>1927.735352</ele>
<time>2011-04-24T11:03:28Z</time>
<desc>lat.=22.349884, lon.=103.774223, Alt.=1927.735352m. Speed=0.720000m/h.</desc>
<speed>0.200000</speed>
</trkpt>
<trkpt lat="22.349892" lon="103.774231">
<ele>1927.266602</ele>
<time>2011-04-24T11:03:33Z</time>
<desc>lat.=22.349892, lon.=103.774231, Alt.=1927.266602m. Speed=0.792000m/h.</desc>
<speed>0.220000</speed>
</trkpt>
<trkpt lat="22.349895" lon="103.774223">
<ele>1927.297852</ele>
<time>2011-04-24T11:03:38Z</time>
<desc>lat.=22.349895, lon.=103.774223, Alt.=1927.297852m. Speed=1.404000m/h.</desc>
<speed>0.390000</speed>
</trkpt>
<trkpt lat="22.349936" lon="103.774223">
<ele>1927.172852</ele>
<time>2011-04-24T11:03:43Z</time>
<desc>lat.=22.349936, lon.=103.774223, Alt.=1927.172852m. Speed=1.188000m/h.</desc>
<speed>0.330000</speed>
</trkpt>
<trkpt lat="22.349968" lon="103.774208">
<ele>1926.329102</ele>
<time>2011-04-24T11:03:48Z</time>
<desc>lat.=22.349968, lon.=103.774208, Alt.=1926.329102m. Speed=1.944000m/h.</desc>
<speed>0.540000</speed>
</trkpt>
<trkpt lat="22.349997" lon="103.774239">
<ele>1925.891602</ele>
<time>2011-04-24T11:03:53Z</time>
<desc>lat.=22.349997, lon.=103.774239, Alt.=1925.891602m. Speed=2.340000m/h.</desc>
<speed>0.650000</speed>
</trkpt>
<trkpt lat="22.350006" lon="103.774254">
<ele>1925.579102</ele>
<time>2011-04-24T11:03:58Z</time>
<desc>lat.=22.350006, lon.=103.774254, Alt.=1925.579102m. Speed=0.684000m/h.</desc>
<speed>0.190000</speed>
</trkpt>
<trkpt lat="22.350014" lon="103.774254">
<ele>1925.610352</ele>
<time>2011-04-24T11:04:03Z</time>
<desc>lat.=22.350014, lon.=103.774254, Alt.=1925.610352m. Speed=0.828000m/h.</desc>
<speed>0.230000</speed>
</trkpt>
<trkpt lat="22.350029" lon="103.774254">
<ele>1924.391602</ele>
<time>2011-04-24T11:04:08Z</time>
<desc>lat.=22.350029, lon.=103.774254, Alt.=1924.391602m. Speed=2.916000m/h.</desc>
<speed>0.810000</speed>
</trkpt>
<trkpt lat="22.350044" lon="103.774277">
<ele>1923.672852</ele>
<time>2011-04-24T11:04:13Z</time>
<desc>lat.=22.350044, lon.=103.774277, Alt.=1923.672852m. Speed=2.520000m/h.</desc>
<speed>0.700000</speed>
</trkpt>
<trkpt lat="22.350058" lon="103.774284">
<ele>1922.204102</ele>
<time>2011-04-24T11:04:18Z</time>
<desc>lat.=22.350058, lon.=103.774284, Alt.=1922.204102m. Speed=1.116000m/h.</desc>
<speed>0.310000</speed>
</trkpt>
<trkpt lat="22.350075" lon="103.774300">
<ele>1921.422852</ele>
<time>2011-04-24T11:04:23Z</time>
<desc>lat.=22.350075, lon.=103.774300, Alt.=1921.422852m. Speed=1.440000m/h.</desc>
<speed>0.400000</speed>
</trkpt>
<trkpt lat="22.350086" lon="103.774323">
<ele>1921.016602</ele>
<time>2011-04-24T11:04:28Z</time>
<desc>lat.=22.350086, lon.=103.774323, Alt.=1921.016602m. Speed=1.548000m/h.</desc>
<speed>0.430000</speed>
</trkpt>
<trkpt lat="22.350098" lon="103.774323">
<ele>1920.454102</ele>
<time>2011-04-24T11:04:33Z</time>
<desc>lat.=22.350098, lon.=103.774323, Alt.=1920.454102m. Speed=0.504000m/h.</desc>
<speed>0.140000</speed>
</trkpt>
<trkpt lat="22.350101" lon="103.774323">
<ele>1919.454102</ele>
<time>2011-04-24T11:04:38Z</time>
<desc>lat.=22.350101, lon.=103.774323, Alt.=1919.454102m. Speed=1.152000m/h.</desc>
<speed>0.320000</speed>
</trkpt>
<trkpt lat="22.350113" lon="103.774330">
<ele>1918.204102</ele>
<time>2011-04-24T11:04:43Z</time>
<desc>lat.=22.350113, lon.=103.774330, Alt.=1918.204102m. Speed=1.872000m/h.</desc>
<speed>0.520000</speed>
</trkpt>
<trkpt lat="22.350128" lon="103.774338">
<ele>1916.891602</ele>
<time>2011-04-24T11:04:48Z</time>
<desc>lat.=22.350128, lon.=103.774338, Alt.=1916.891602m. Speed=0.612000m/h.</desc>
<speed>0.170000</speed>
</trkpt>
<trkpt lat="22.350132" lon="103.774345">
<ele>1916.016602</ele>
<time>2011-04-24T11:04:53Z</time>
<desc>lat.=22.350132, lon.=103.774345, Alt.=1916.016602m. Speed=0.612000m/h.</desc>
<speed>0.170000</speed>
</trkpt>
<trkpt lat="22.350138" lon="103.774353">
<ele>1915.110352</ele>
<time>2011-04-24T11:04:58Z</time>
<desc>lat.=22.350138, lon.=103.774353, Alt.=1915.110352m. Speed=2.232000m/h.</desc>
<speed>0.620000</speed>
</trkpt>
<trkpt lat="22.350132" lon="103.774361">
<ele>1913.547852</ele>
<time>2011-04-24T11:05:03Z</time>
<desc>lat.=22.350132, lon.=103.774361, Alt.=1913.547852m. Speed=0.792000m/h.</desc>
<speed>0.220000</speed>
</trkpt>
<trkpt lat="22.350134" lon="103.774361">
<ele>1912.329102</ele>
<time>2011-04-24T11:05:08Z</time>
<desc>lat.=22.350134, lon.=103.774361, Alt.=1912.329102m. Speed=0.288000m/h.</desc>
<speed>0.080000</speed>
</trkpt>
<trkpt lat="22.350136" lon="103.774376">
<ele>1911.610352</ele>
<time>2011-04-24T11:05:13Z</time>
<desc>lat.=22.350136, lon.=103.774376, Alt.=1911.610352m. Speed=0.756000m/h.</desc>
<speed>0.210000</speed>
</trkpt>
<trkpt lat="22.350140" lon="103.774384">
<ele>1911.485352</ele>
<time>2011-04-24T11:05:18Z</time>
<desc>lat.=22.350140, lon.=103.774384, Alt.=1911.485352m. Speed=0.252000m/h.</desc>
<speed>0.070000</speed>
</trkpt>
<trkpt lat="22.350143" lon="103.774384">
<ele>1911.204102</ele>
<time>2011-04-24T11:05:23Z</time>
<desc>lat.=22.350143, lon.=103.774384, Alt.=1911.204102m. Speed=0.504000m/h.</desc>
<speed>0.140000</speed>
</trkpt>
<trkpt lat="22.350159" lon="103.774391">
<ele>1909.797852</ele>
<time>2011-04-24T11:05:28Z</time>
<desc>lat.=22.350159, lon.=103.774391, Alt.=1909.797852m. Speed=2.916000m/h.</desc>
<speed>0.810000</speed>
</trkpt>
<trkpt lat="22.350157" lon="103.774406">
<ele>1908.922852</ele>
<time>2011-04-24T11:05:33Z</time>
<desc>lat.=22.350157, lon.=103.774406, Alt.=1908.922852m. Speed=1.728000m/h.</desc>
<speed>0.480000</speed>
</trkpt>
<trkpt lat="22.350166" lon="103.774414">
<ele>1908.297852</ele>
<time>2011-04-24T11:05:38Z</time>
<desc>lat.=22.350166, lon.=103.774414, Alt.=1908.297852m. Speed=1.080000m/h.</desc>
<speed>0.300000</speed>
</trkpt>
<trkpt lat="22.350185" lon="103.774406">
<ele>1907.954102</ele>
<time>2011-04-24T11:05:43Z</time>
<desc>lat.=22.350185, lon.=103.774406, Alt.=1907.954102m. Speed=2.160000m/h.</desc>
<speed>0.600000</speed>
</trkpt>
<trkpt lat="22.350214" lon="103.774391">
<ele>1907.797852</ele>
<time>2011-04-24T11:05:48Z</time>
<desc>lat.=22.350214, lon.=103.774391, Alt.=1907.797852m. Speed=1.800000m/h.</desc>
<speed>0.500000</speed>
</trkpt>
<trkpt lat="22.350233" lon="103.774384">
<ele>1907.329102</ele>
<time>2011-04-24T11:05:53Z</time>
<desc>lat.=22.350233, lon.=103.774384, Alt.=1907.329102m. Speed=2.160000m/h.</desc>
<speed>0.600000</speed>
</trkpt>
<trkpt lat="22.350254" lon="103.774391">
<ele>1907.079102</ele>
<time>2011-04-24T11:05:58Z</time>
<desc>lat.=22.350254, lon.=103.774391, Alt.=1907.079102m. Speed=3.348000m/h.</desc>
<speed>0.930000</speed>
</trkpt>
<trkpt lat="22.350266" lon="103.774391">
<ele>1904.829102</ele>
<time>2011-04-24T11:06:03Z</time>
<desc>lat.=22.350266, lon.=103.774391, Alt.=1904.829102m. Speed=3.888000m/h.</desc>
<speed>1.080000</speed>
</trkpt>
<trkpt lat="22.350286" lon="103.774384">
<ele>1903.954102</ele>
<time>2011-04-24T11:06:08Z</time>
<desc>lat.=22.350286, lon.=103.774384, Alt.=1903.954102m. Speed=4.104000m/h.</desc>
<speed>1.140000</speed>
</trkpt>
<trkpt lat="22.350304" lon="103.774376">
<ele>1904.672852</ele>
<time>2011-04-24T11:06:13Z</time>
<desc>lat.=22.350304, lon.=103.774376, Alt.=1904.672852m. Speed=4.104000m/h.</desc>
<speed>1.140000</speed>
</trkpt>
<trkpt lat="22.350336" lon="103.774368">
<ele>1905.422852</ele>
<time>2011-04-24T11:06:18Z</time>
<desc>lat.=22.350336, lon.=103.774368, Alt.=1905.422852m. Speed=2.592000m/h.</desc>
<speed>0.720000</speed>
</trkpt>
<trkpt lat="22.350361" lon="103.774361">
<ele>1908.297852</ele>
<time>2011-04-24T11:06:23Z</time>
<desc>lat.=22.350361, lon.=103.774361, Alt.=1908.297852m. Speed=1.728000m/h.</desc>
<speed>0.480000</speed>
</trkpt>
<trkpt lat="22.350382" lon="103.774368">
<ele>1909.829102</ele>
<time>2011-04-24T11:06:28Z</time>
<desc>lat.=22.350382, lon.=103.774368, Alt.=1909.829102m. Speed=1.908000m/h.</desc>
<speed>0.530000</speed>
</trkpt>
<trkpt lat="22.350407" lon="103.774376">
<ele>1911.422852</ele>
<time>2011-04-24T11:06:33Z</time>
<desc>lat.=22.350407, lon.=103.774376, Alt.=1911.422852m. Speed=0.612000m/h.</desc>
<speed>0.170000</speed>
</trkpt>
<trkpt lat="22.350460" lon="103.774391">
<ele>1912.079102</ele>
<time>2011-04-24T11:06:38Z</time>
<desc>lat.=22.350460, lon.=103.774391, Alt.=1912.079102m. Speed=2.448000m/h.</desc>
<speed>0.680000</speed>
</trkpt>
<trkpt lat="22.350489" lon="103.774429">
<ele>1912.329102</ele>
<time>2011-04-24T11:06:43Z</time>
<desc>lat.=22.350489, lon.=103.774429, Alt.=1912.329102m. Speed=2.160000m/h.</desc>
<speed>0.600000</speed>
</trkpt>
<trkpt lat="22.350506" lon="103.774445">
<ele>1913.172852</ele>
<time>2011-04-24T11:06:48Z</time>
<desc>lat.=22.350506, lon.=103.774445, Alt.=1913.172852m. Speed=2.412000m/h.</desc>
<speed>0.670000</speed>
</trkpt>
<trkpt lat="22.350523" lon="103.774460">
<ele>1913.766602</ele>
<time>2011-04-24T11:06:53Z</time>
<desc>lat.=22.350523, lon.=103.774460, Alt.=1913.766602m. Speed=2.160000m/h.</desc>
<speed>0.600000</speed>
</trkpt>
<trkpt lat="22.350569" lon="103.774452">
<ele>1914.047852</ele>
<time>2011-04-24T11:06:58Z</time>
<desc>lat.=22.350569, lon.=103.774452, Alt.=1914.047852m. Speed=2.592000m/h.</desc>
<speed>0.720000</speed>
</trkpt>
<trkpt lat="22.350592" lon="103.774467">
<ele>1913.829102</ele>
<time>2011-04-24T11:07:03Z</time>
<desc>lat.=22.350592, lon.=103.774467, Alt.=1913.829102m. Speed=0.576000m/h.</desc>
<speed>0.160000</speed>
</trkpt>
<trkpt lat="22.350594" lon="103.774475">
<ele>1913.735352</ele>
<time>2011-04-24T11:07:08Z</time>
<desc>lat.=22.350594, lon.=103.774475, Alt.=1913.735352m. Speed=0.648000m/h.</desc>
<speed>0.180000</speed>
</trkpt>
<trkpt lat="22.350607" lon="103.774490">
<ele>1913.735352</ele>
<time>2011-04-24T11:07:13Z</time>
<desc>lat.=22.350607, lon.=103.774490, Alt.=1913.735352m. Speed=2.124000m/h.</desc>
<speed>0.590000</speed>
</trkpt>
<trkpt lat="22.350632" lon="103.774506">
<ele>1914.235352</ele>
<time>2011-04-24T11:07:18Z</time>
<desc>lat.=22.350632, lon.=103.774506, Alt.=1914.235352m. Speed=1.800000m/h.</desc>
<speed>0.500000</speed>
</trkpt>
<trkpt lat="22.350651" lon="103.774513">
<ele>1914.547852</ele>
<time>2011-04-24T11:07:23Z</time>
<desc>lat.=22.350651, lon.=103.774513, Alt.=1914.547852m. Speed=1.620000m/h.</desc>
<speed>0.450000</speed>
</trkpt>
<trkpt lat="22.350674" lon="103.774521">
<ele>1915.047852</ele>
<time>2011-04-24T11:07:28Z</time>
<desc>lat.=22.350674, lon.=103.774521, Alt.=1915.047852m. Speed=2.088000m/h.</desc>
<speed>0.580000</speed>
</trkpt>
<trkpt lat="22.350700" lon="103.774544">
<ele>1915.110352</ele>
<time>2011-04-24T11:07:33Z</time>
<desc>lat.=22.350700, lon.=103.774544, Alt.=1915.110352m. Speed=3.024000m/h.</desc>
<speed>0.840000</speed>
</trkpt>
<trkpt lat="22.350727" lon="103.774590">
<ele>1915.266602</ele>
<time>2011-04-24T11:07:38Z</time>
<desc>lat.=22.350727, lon.=103.774590, Alt.=1915.266602m. Speed=3.312000m/h.</desc>
<speed>0.920000</speed>
</trkpt>
<trkpt lat="22.350754" lon="103.774605">
<ele>1915.735352</ele>
<time>2011-04-24T11:07:43Z</time>
<desc>lat.=22.350754, lon.=103.774605, Alt.=1915.735352m. Speed=1.908000m/h.</desc>
<speed>0.530000</speed>
</trkpt>
<trkpt lat="22.350773" lon="103.774628">
<ele>1916.110352</ele>
<time>2011-04-24T11:07:48Z</time>
<desc>lat.=22.350773, lon.=103.774628, Alt.=1916.110352m. Speed=1.224000m/h.</desc>
<speed>0.340000</speed>
</trkpt>
<trkpt lat="22.350775" lon="103.774635">
<ele>1916.266602</ele>
<time>2011-04-24T11:07:53Z</time>
<desc>lat.=22.350775, lon.=103.774635, Alt.=1916.266602m. Speed=0.216000m/h.</desc>
<speed>0.060000</speed>
</trkpt>
<trkpt lat="22.350780" lon="103.774635">
<ele>1916.297852</ele>
<time>2011-04-24T11:07:58Z</time>
<desc>lat.=22.350780, lon.=103.774635, Alt.=1916.297852m. Speed=1.548000m/h.</desc>
<speed>0.430000</speed>
</trkpt>
<trkpt lat="22.350819" lon="103.774582">
<ele>1916.985352</ele>
<time>2011-04-24T11:08:03Z</time>
<desc>lat.=22.350819, lon.=103.774582, Alt.=1916.985352m. Speed=1.332000m/h.</desc>
<speed>0.370000</speed>
</trkpt>
<trkpt lat="22.350826" lon="103.774612">
<ele>1917.485352</ele>
<time>2011-04-24T11:08:08Z</time>
<desc>lat.=22.350826, lon.=103.774612, Alt.=1917.485352m. Speed=2.304000m/h.</desc>
<speed>0.640000</speed>
</trkpt>
<trkpt lat="22.350836" lon="103.774612">
<ele>1918.922852</ele>
<time>2011-04-24T11:08:13Z</time>
<desc>lat.=22.350836, lon.=103.774612, Alt.=1918.922852m. Speed=0.360000m/h.</desc>
<speed>0.100000</speed>
</trkpt>
<trkpt lat="22.350859" lon="103.774612">
<ele>1919.141602</ele>
<time>2011-04-24T11:08:18Z</time>
<desc>lat.=22.350859, lon.=103.774612, Alt.=1919.141602m. Speed=1.332000m/h.</desc>
<speed>0.370000</speed>
</trkpt>
<trkpt lat="22.350895" lon="103.774590">
<ele>1920.047852</ele>
<time>2011-04-24T11:08:23Z</time>
<desc>lat.=22.350895, lon.=103.774590, Alt.=1920.047852m. Speed=2.628000m/h.</desc>
<speed>0.730000</speed>
</trkpt>
<trkpt lat="22.350920" lon="103.774544">
<ele>1921.235352</ele>
<time>2011-04-24T11:08:28Z</time>
<desc>lat.=22.350920, lon.=103.774544, Alt.=1921.235352m. Speed=2.556000m/h.</desc>
<speed>0.710000</speed>
</trkpt>
<trkpt lat="22.350941" lon="103.774551">
<ele>1923.110352</ele>
<time>2011-04-24T11:08:33Z</time>
<desc>lat.=22.350941, lon.=103.774551, Alt.=1923.110352m. Speed=3.312000m/h.</desc>
<speed>0.920000</speed>
</trkpt>
<trkpt lat="22.350960" lon="103.774590">
<ele>1925.454102</ele>
<time>2011-04-24T11:08:38Z</time>
<desc>lat.=22.350960, lon.=103.774590, Alt.=1925.454102m. Speed=2.808000m/h.</desc>
<speed>0.780000</speed>
</trkpt>
<trkpt lat="22.350988" lon="103.774628">
<ele>1927.141602</ele>
<time>2011-04-24T11:08:43Z</time>
<desc>lat.=22.350988, lon.=103.774628, Alt.=1927.141602m. Speed=2.520000m/h.</desc>
<speed>0.700000</speed>
</trkpt>
<trkpt lat="22.351009" lon="103.774658">
<ele>1928.985352</ele>
<time>2011-04-24T11:08:48Z</time>
<desc>lat.=22.351009, lon.=103.774658, Alt.=1928.985352m. Speed=2.340000m/h.</desc>
<speed>0.650000</speed>
</trkpt>
<trkpt lat="22.351053" lon="103.774689">
<ele>1930.954102</ele>
<time>2011-04-24T11:08:53Z</time>
<desc>lat.=22.351053, lon.=103.774689, Alt.=1930.954102m. Speed=2.376000m/h.</desc>
<speed>0.660000</speed>
</trkpt>
<trkpt lat="22.351093" lon="103.774734">
<ele>1932.797852</ele>
<time>2011-04-24T11:08:58Z</time>
<desc>lat.=22.351093, lon.=103.774734, Alt.=1932.797852m. Speed=3.060000m/h.</desc>
<speed>0.850000</speed>
</trkpt>
<trkpt lat="22.351128" lon="103.774757">
<ele>1934.016602</ele>
<time>2011-04-24T11:09:03Z</time>
<desc>lat.=22.351128, lon.=103.774757, Alt.=1934.016602m. Speed=1.476000m/h.</desc>
<speed>0.410000</speed>
</trkpt>
<trkpt lat="22.351166" lon="103.774788">
<ele>1935.454102</ele>
<time>2011-04-24T11:09:08Z</time>
<desc>lat.=22.351166, lon.=103.774788, Alt.=1935.454102m. Speed=2.988000m/h.</desc>
<speed>0.830000</speed>
</trkpt>
<trkpt lat="22.351208" lon="103.774765">
<ele>1937.204102</ele>
<time>2011-04-24T11:09:13Z</time>
<desc>lat.=22.351208, lon.=103.774765, Alt.=1937.204102m. Speed=3.672000m/h.</desc>
<speed>1.020000</speed>
</trkpt>
<trkpt lat="22.351248" lon="103.774712">
<ele>1938.204102</ele>
<time>2011-04-24T11:09:18Z</time>
<desc>lat.=22.351248, lon.=103.774712, Alt.=1938.204102m. Speed=2.844000m/h.</desc>
<speed>0.790000</speed>
</trkpt>
<trkpt lat="22.351278" lon="103.774681">
<ele>1939.829102</ele>
<time>2011-04-24T11:09:23Z</time>
<desc>lat.=22.351278, lon.=103.774681, Alt.=1939.829102m. Speed=3.816000m/h.</desc>
<speed>1.060000</speed>
</trkpt>
<trkpt lat="22.351320" lon="103.774666">
<ele>1941.641602</ele>
<time>2011-04-24T11:09:28Z</time>
<desc>lat.=22.351320, lon.=103.774666, Alt.=1941.641602m. Speed=3.240000m/h.</desc>
<speed>0.900000</speed>
</trkpt>
<trkpt lat="22.351339" lon="103.774666">
<ele>1942.079102</ele>
<time>2011-04-24T11:09:33Z</time>
<desc>lat.=22.351339, lon.=103.774666, Alt.=1942.079102m. Speed=0.828000m/h.</desc>
<speed>0.230000</speed>
</trkpt>
<trkpt lat="22.351349" lon="103.774666">
<ele>1941.454102</ele>
<time>2011-04-24T11:09:38Z</time>
<desc>lat.=22.351349, lon.=103.774666, Alt.=1941.454102m. Speed=1.440000m/h.</desc>
<speed>0.400000</speed>
</trkpt>
<trkpt lat="22.351377" lon="103.774696">
<ele>1940.391602</ele>
<time>2011-04-24T11:09:43Z</time>
<desc>lat.=22.351377, lon.=103.774696, Alt.=1940.391602m. Speed=2.340000m/h.</desc>
<speed>0.650000</speed>
</trkpt>
<trkpt lat="22.351402" lon="103.774734">
<ele>1940.047852</ele>
<time>2011-04-24T11:09:48Z</time>
<desc>lat.=22.351402, lon.=103.774734, Alt.=1940.047852m. Speed=2.736000m/h.</desc>
<speed>0.760000</speed>
</trkpt>
<trkpt lat="22.351439" lon="103.774734">
<ele>1939.735352</ele>
<time>2011-04-24T11:09:53Z</time>
<desc>lat.=22.351439, lon.=103.774734, Alt.=1939.735352m. Speed=4.140000m/h.</desc>
<speed>1.150000</speed>
</trkpt>
<trkpt lat="22.351469" lon="103.774727">
<ele>1941.610352</ele>
<time>2011-04-24T11:09:58Z</time>
<desc>lat.=22.351469, lon.=103.774727, Alt.=1941.610352m. Speed=2.988000m/h.</desc>
<speed>0.830000</speed>
</trkpt>
<trkpt lat="22.351513" lon="103.774742">
<ele>1942.485352</ele>
<time>2011-04-24T11:10:03Z</time>
<desc>lat.=22.351513, lon.=103.774742, Alt.=1942.485352m. Speed=2.628000m/h.</desc>
<speed>0.730000</speed>
</trkpt>
<trkpt lat="22.351540" lon="103.774734">
<ele>1942.954102</ele>
<time>2011-04-24T11:10:08Z</time>
<desc>lat.=22.351540, lon.=103.774734, Alt.=1942.954102m. Speed=2.916000m/h.</desc>
<speed>0.810000</speed>
</trkpt>
<trkpt lat="22.351570" lon="103.774727">
<ele>1941.454102</ele>
<time>2011-04-24T11:10:13Z</time>
<desc>lat.=22.351570, lon.=103.774727, Alt.=1941.454102m. Speed=1.260000m/h.</desc>
<speed>0.350000</speed>
</trkpt>
<trkpt lat="22.351585" lon="103.774734">
<ele>1940.297852</ele>
<time>2011-04-24T11:10:18Z</time>
<desc>lat.=22.351585, lon.=103.774734, Alt.=1940.297852m. Speed=1.872000m/h.</desc>
<speed>0.520000</speed>
</trkpt>
<trkpt lat="22.351610" lon="103.774727">
<ele>1939.110352</ele>
<time>2011-04-24T11:10:23Z</time>
<desc>lat.=22.351610, lon.=103.774727, Alt.=1939.110352m. Speed=2.844000m/h.</desc>
<speed>0.790000</speed>
</trkpt>
<trkpt lat="22.351650" lon="103.774704">
<ele>1937.641602</ele>
<time>2011-04-24T11:10:28Z</time>
<desc>lat.=22.351650, lon.=103.774704, Alt.=1937.641602m. Speed=2.736000m/h.</desc>
<speed>0.760000</speed>
</trkpt>
<trkpt lat="22.351667" lon="103.774681">
<ele>1939.079102</ele>
<time>2011-04-24T11:10:33Z</time>
<desc>lat.=22.351667, lon.=103.774681, Alt.=1939.079102m. Speed=1.044000m/h.</desc>
<speed>0.290000</speed>
</trkpt>
<trkpt lat="22.351702" lon="103.774673">
<ele>1938.922852</ele>
<time>2011-04-24T11:10:38Z</time>
<desc>lat.=22.351702, lon.=103.774673, Alt.=1938.922852m. Speed=3.888000m/h.</desc>
<speed>1.080000</speed>
</trkpt>
<trkpt lat="22.351736" lon="103.774681">
<ele>1937.922852</ele>
<time>2011-04-24T11:10:43Z</time>
<desc>lat.=22.351736, lon.=103.774681, Alt.=1937.922852m. Speed=1.260000m/h.</desc>
<speed>0.350000</speed>
</trkpt>
<trkpt lat="22.351753" lon="103.774712">
<ele>1936.016602</ele>
<time>2011-04-24T11:10:48Z</time>
<desc>lat.=22.351753, lon.=103.774712, Alt.=1936.016602m. Speed=1.188000m/h.</desc>
<speed>0.330000</speed>
</trkpt>
<trkpt lat="22.351776" lon="103.774719">
<ele>1935.422852</ele>
<time>2011-04-24T11:10:53Z</time>
<desc>lat.=22.351776, lon.=103.774719, Alt.=1935.422852m. Speed=2.988000m/h.</desc>
<speed>0.830000</speed>
</trkpt>
<trkpt lat="22.351805" lon="103.774696">
<ele>1936.079102</ele>
<time>2011-04-24T11:10:58Z</time>
<desc>lat.=22.351805, lon.=103.774696, Alt.=1936.079102m. Speed=2.016000m/h.</desc>
<speed>0.560000</speed>
</trkpt>
<trkpt lat="22.351822" lon="103.774666">
<ele>1936.172852</ele>
<time>2011-04-24T11:11:03Z</time>
<desc>lat.=22.351822, lon.=103.774666, Alt.=1936.172852m. Speed=3.348000m/h.</desc>
<speed>0.930000</speed>
</trkpt>
<trkpt lat="22.351833" lon="103.774635">
<ele>1936.985352</ele>
<time>2011-04-24T11:11:08Z</time>
<desc>lat.=22.351833, lon.=103.774635, Alt.=1936.985352m. Speed=1.836000m/h.</desc>
<speed>0.510000</speed>
</trkpt>
<trkpt lat="22.351826" lon="103.774635">
<ele>1937.891602</ele>
<time>2011-04-24T11:11:13Z</time>
<desc>lat.=22.351826, lon.=103.774635, Alt.=1937.891602m. Speed=0.144000m/h.</desc>
<speed>0.040000</speed>
</trkpt>
<trkpt lat="22.351835" lon="103.774635">
<ele>1937.641602</ele>
<time>2011-04-24T11:11:18Z</time>
<desc>lat.=22.351835, lon.=103.774635, Alt.=1937.641602m. Speed=1.044000m/h.</desc>
<speed>0.290000</speed>
</trkpt>
<trkpt lat="22.351856" lon="103.774658">
<ele>1938.422852</ele>
<time>2011-04-24T11:11:23Z</time>
<desc>lat.=22.351856, lon.=103.774658, Alt.=1938.422852m. Speed=1.476000m/h.</desc>
<speed>0.410000</speed>
</trkpt>
<trkpt lat="22.351875" lon="103.774689">
<ele>1938.610352</ele>
<time>2011-04-24T11:11:28Z</time>
<desc>lat.=22.351875, lon.=103.774689, Alt.=1938.610352m. Speed=1.656000m/h.</desc>
<speed>0.460000</speed>
</trkpt>
<trkpt lat="22.351894" lon="103.774673">
<ele>1938.735352</ele>
<time>2011-04-24T11:11:33Z</time>
<desc>lat.=22.351894, lon.=103.774673, Alt.=1938.735352m. Speed=1.836000m/h.</desc>
<speed>0.510000</speed>
</trkpt>
<trkpt lat="22.351915" lon="103.774658">
<ele>1938.110352</ele>
<time>2011-04-24T11:11:38Z</time>
<desc>lat.=22.351915, lon.=103.774658, Alt.=1938.110352m. Speed=1.944000m/h.</desc>
<speed>0.540000</speed>
</trkpt>
<trkpt lat="22.351952" lon="103.774651">
<ele>1938.922852</ele>
<time>2011-04-24T11:11:43Z</time>
<desc>lat.=22.351952, lon.=103.774651, Alt.=1938.922852m. Speed=3.636000m/h.</desc>
<speed>1.010000</speed>
</trkpt>
<trkpt lat="22.352001" lon="103.774651">
<ele>1939.079102</ele>
<time>2011-04-24T11:11:48Z</time>
<desc>lat.=22.352001, lon.=103.774651, Alt.=1939.079102m. Speed=3.924000m/h.</desc>
<speed>1.090000</speed>
</trkpt>
<trkpt lat="22.352045" lon="103.774666">
<ele>1938.516602</ele>
<time>2011-04-24T11:11:53Z</time>
<desc>lat.=22.352045, lon.=103.774666, Alt.=1938.516602m. Speed=2.088000m/h.</desc>
<speed>0.580000</speed>
</trkpt>
<trkpt lat="22.352085" lon="103.774666">
<ele>1938.297852</ele>
<time>2011-04-24T11:11:58Z</time>
<desc>lat.=22.352085, lon.=103.774666, Alt.=1938.297852m. Speed=4.572000m/h.</desc>
<speed>1.270000</speed>
</trkpt>
<trkpt lat="22.352129" lon="103.774696">
<ele>1938.454102</ele>
<time>2011-04-24T11:12:03Z</time>
<desc>lat.=22.352129, lon.=103.774696, Alt.=1938.454102m. Speed=3.420000m/h.</desc>
<speed>0.950000</speed>
</trkpt>
<trkpt lat="22.352144" lon="103.774712">
<ele>1938.922852</ele>
<time>2011-04-24T11:12:08Z</time>
<desc>lat.=22.352144, lon.=103.774712, Alt.=1938.922852m. Speed=0.000000m/h.</desc>
<speed>0.000000</speed>
</trkpt>
<trkpt lat="22.352152" lon="103.774719">
<ele>1938.891602</ele>
<time>2011-04-24T11:12:13Z</time>
<desc>lat.=22.352152, lon.=103.774719, Alt.=1938.891602m. Speed=2.772000m/h.</desc>
<speed>0.770000</speed>
</trkpt>
<trkpt lat="22.352186" lon="103.774742">
<ele>1938.735352</ele>
<time>2011-04-24T11:12:18Z</time>
<desc>lat.=22.352186, lon.=103.774742, Alt.=1938.735352m. Speed=3.636000m/h.</desc>
<speed>1.010000</speed>
</trkpt>
<trkpt lat="22.352224" lon="103.774750">
<ele>1939.797852</ele>
<time>2011-04-24T11:12:23Z</time>
<desc>lat.=22.352224, lon.=103.774750, Alt.=1939.797852m. Speed=4.356000m/h.</desc>
<speed>1.210000</speed>
</trkpt>
<trkpt lat="22.352270" lon="103.774727">
<ele>1940.079102</ele>
<time>2011-04-24T11:12:28Z</time>
<desc>lat.=22.352270, lon.=103.774727, Alt.=1940.079102m. Speed=4.572000m/h.</desc>
<speed>1.270000</speed>
</trkpt>
<trkpt lat="22.352312" lon="103.774742">
<ele>1941.766602</ele>
<time>2011-04-24T11:12:33Z</time>
<desc>lat.=22.352312, lon.=103.774742, Alt.=1941.766602m. Speed=4.248000m/h.</desc>
<speed>1.180000</speed>
</trkpt>
<trkpt lat="22.352343" lon="103.774750">
<ele>1942.329102</ele>
<time>2011-04-24T11:12:38Z</time>
<desc>lat.=22.352343, lon.=103.774750, Alt.=1942.329102m. Speed=2.340000m/h.</desc>
<speed>0.650000</speed>
</trkpt>
<trkpt lat="22.352388" lon="103.774742">
<ele>1941.829102</ele>
<time>2011-04-24T11:12:43Z</time>
<desc>lat.=22.352388, lon.=103.774742, Alt.=1941.829102m. Speed=4.104000m/h.</desc>
<speed>1.140000</speed>
</trkpt>
<trkpt lat="22.352425" lon="103.774734">
<ele>1943.454102</ele>
<time>2011-04-24T11:12:48Z</time>
<desc>lat.=22.352425, lon.=103.774734, Alt.=1943.454102m. Speed=3.240000m/h.</desc>
<speed>0.900000</speed>
</trkpt>
<trkpt lat="22.352474" lon="103.774727">
<ele>1944.235352</ele>
<time>2011-04-24T11:12:53Z</time>
<desc>lat.=22.352474, lon.=103.774727, Alt.=1944.235352m. Speed=3.492000m/h.</desc>
<speed>0.970000</speed>
</trkpt>
<trkpt lat="22.352505" lon="103.774727">
<ele>1945.672852</ele>
<time>2011-04-24T11:12:58Z</time>
<desc>lat.=22.352505, lon.=103.774727, Alt.=1945.672852m. Speed=0.756000m/h.</desc>
<speed>0.210000</speed>
</trkpt>
<trkpt lat="22.352512" lon="103.774727">
<ele>1945.735352</ele>
<time>2011-04-24T11:13:03Z</time>
<desc>lat.=22.352512, lon.=103.774727, Alt.=1945.735352m. Speed=3.276000m/h.</desc>
<speed>0.910000</speed>
</trkpt>
<trkpt lat="22.352547" lon="103.774696">
<ele>1945.641602</ele>
<time>2011-04-24T11:13:08Z</time>
<desc>lat.=22.352547, lon.=103.774696, Alt.=1945.641602m. Speed=3.816000m/h.</desc>
<speed>1.060000</speed>
</trkpt>
<trkpt lat="22.352598" lon="103.774696">
<ele>1945.547852</ele>
<time>2011-04-24T11:13:13Z</time>
<desc>lat.=22.352598, lon.=103.774696, Alt.=1945.547852m. Speed=2.556000m/h.</desc>
<speed>0.710000</speed>
</trkpt>
<trkpt lat="22.352602" lon="103.774689">
<ele>1945.672852</ele>
<time>2011-04-24T11:13:18Z</time>
<desc>lat.=22.352602, lon.=103.774689, Alt.=1945.672852m. Speed=0.036000m/h.</desc>
<speed>0.010000</speed>
</trkpt>
<trkpt lat="22.352610" lon="103.774689">
<ele>1945.641602</ele>
<time>2011-04-24T11:13:23Z</time>
<desc>lat.=22.352610, lon.=103.774689, Alt.=1945.641602m. Speed=0.252000m/h.</desc>
<speed>0.070000</speed>
</trkpt>
<trkpt lat="22.352650" lon="103.774696">
<ele>1945.797852</ele>
<time>2011-04-24T11:13:28Z</time>
<desc>lat.=22.352650, lon.=103.774696, Alt.=1945.797852m. Speed=3.924000m/h.</desc>
<speed>1.090000</speed>
</trkpt>
<trkpt lat="22.352701" lon="103.774696">
<ele>1946.454102</ele>
<time>2011-04-24T11:13:33Z</time>
<desc>lat.=22.352701, lon.=103.774696, Alt.=1946.454102m. Speed=3.168000m/h.</desc>
<speed>0.880000</speed>
</trkpt>
<trkpt lat="22.352751" lon="103.774719">
<ele>1946.204102</ele>
<time>2011-04-24T11:13:38Z</time>
<desc>lat.=22.352751, lon.=103.774719, Alt.=1946.204102m. Speed=3.708000m/h.</desc>
<speed>1.030000</speed>
</trkpt>
<trkpt lat="22.352797" lon="103.774765">
<ele>1945.985352</ele>
<time>2011-04-24T11:13:43Z</time>
<desc>lat.=22.352797, lon.=103.774765, Alt.=1945.985352m. Speed=4.248000m/h.</desc>
<speed>1.180000</speed>
</trkpt>
<trkpt lat="22.352825" lon="103.774788">
<ele>1945.954102</ele>
<time>2011-04-24T11:13:48Z</time>
<desc>lat.=22.352825, lon.=103.774788, Alt.=1945.954102m. Speed=2.700000m/h.</desc>
<speed>0.750000</speed>
</trkpt>
<trkpt lat="22.352848" lon="103.774796">
<ele>1946.016602</ele>
<time>2011-04-24T11:13:53Z</time>
<desc>lat.=22.352848, lon.=103.774796, Alt.=1946.016602m. Speed=0.072000m/h.</desc>
<speed>0.020000</speed>
</trkpt>
<trkpt lat="22.352852" lon="103.774796">
<ele>1945.891602</ele>
<time>2011-04-24T11:13:58Z</time>
<desc>lat.=22.352852, lon.=103.774796, Alt.=1945.891602m. Speed=1.152000m/h.</desc>
<speed>0.320000</speed>
</trkpt>
<trkpt lat="22.352859" lon="103.774796">
<ele>1945.766602</ele>
<time>2011-04-24T11:14:03Z</time>
<desc>lat.=22.352859, lon.=103.774796, Alt.=1945.766602m. Speed=0.180000m/h.</desc>
<speed>0.050000</speed>
</trkpt>
<trkpt lat="22.352861" lon="103.774796">
<ele>1945.735352</ele>
<time>2011-04-24T11:14:08Z</time>
<desc>lat.=22.352861, lon.=103.774796, Alt.=1945.735352m. Speed=2.340000m/h.</desc>
<speed>0.650000</speed>
</trkpt>
<trkpt lat="22.352877" lon="103.774803">
<ele>1945.922852</ele>
<time>2011-04-24T11:14:13Z</time>
<desc>lat.=22.352877, lon.=103.774803, Alt.=1945.922852m. Speed=0.144000m/h.</desc>
<speed>0.040000</speed>
</trkpt>
<trkpt lat="22.352879" lon="103.774796">
<ele>1946.047852</ele>
<time>2011-04-24T11:14:18Z</time>
<desc>lat.=22.352879, lon.=103.774796, Alt.=1946.047852m. Speed=0.036000m/h.</desc>
<speed>0.010000</speed>
</trkpt>
<trkpt lat="22.352875" lon="103.774803">
<ele>1945.985352</ele>
<time>2011-04-24T11:14:23Z</time>
<desc>lat.=22.352875, lon.=103.774803, Alt.=1945.985352m. Speed=0.324000m/h.</desc>
<speed>0.090000</speed>
</trkpt>
<trkpt lat="22.352875" lon="103.774811">
<ele>1946.110352</ele>
<time>2011-04-24T11:14:28Z</time>
<desc>lat.=22.352875, lon.=103.774811, Alt.=1946.110352m. Speed=1.656000m/h.</desc>
<speed>0.460000</speed>
</trkpt>
<trkpt lat="22.352875" lon="103.774818">
<ele>1945.985352</ele>
<time>2011-04-24T11:14:33Z</time>
<desc>lat.=22.352875, lon.=103.774818, Alt.=1945.985352m. Speed=0.144000m/h.</desc>
<speed>0.040000</speed>
</trkpt>
<trkpt lat="22.352875" lon="103.774811">
<ele>1945.891602</ele>
<time>2011-04-24T11:14:38Z</time>
<desc>lat.=22.352875, lon.=103.774811, Alt.=1945.891602m. Speed=0.036000m/h.</desc>
<speed>0.010000</speed>
</trkpt>
<trkpt lat="22.352875" lon="103.774818">
<ele>1945.704102</ele>
<time>2011-04-24T11:14:43Z</time>
<desc>lat.=22.352875, lon.=103.774818, Alt.=1945.704102m. Speed=0.108000m/h.</desc>
<speed>0.030000</speed>
</trkpt>
<trkpt lat="22.352875" lon="103.774818">
<ele>1945.704102</ele>
<time>2011-04-24T11:14:48Z</time>
<desc>lat.=22.352875, lon.=103.774818, Alt.=1945.704102m. Speed=0.108000m/h.</desc>
<speed>0.030000</speed>
</trkpt>
<trkpt lat="22.352875" lon="103.774818">
<ele>1945.641602</ele>
<time>2011-04-24T11:14:53Z</time>
<desc>lat.=22.352875, lon.=103.774818, Alt.=1945.641602m. Speed=0.036000m/h.</desc>
<speed>0.010000</speed>
</trkpt>
<trkpt lat="22.352875" lon="103.774818">
<ele>1945.641602</ele>
<time>2011-04-24T11:14:58Z</time>
<desc>lat.=22.352875, lon.=103.774818, Alt.=1945.641602m. Speed=0.144000m/h.</desc>
<speed>0.040000</speed>
</trkpt>
<trkpt lat="22.352875" lon="103.774818">
<ele>1945.704102</ele>
<time>2011-04-24T11:15:03Z</time>
<desc>lat.=22.352875, lon.=103.774818, Alt.=1945.704102m. Speed=0.108000m/h.</desc>
<speed>0.030000</speed>
</trkpt>
<trkpt lat="22.352875" lon="103.774818">
<ele>1945.704102</ele>
<time>2011-04-24T11:15:08Z</time>
<desc>lat.=22.352875, lon.=103.774818, Alt.=1945.704102m. Speed=0.252000m/h.</desc>
<speed>0.070000</speed>
</trkpt>
<trkpt lat="22.352875" lon="103.774818">
<ele>1945.704102</ele>
<time>2011-04-24T11:15:13Z</time>
<desc>lat.=22.352875, lon.=103.774818, Alt.=1945.704102m. Speed=0.468000m/h.</desc>
<speed>0.130000</speed>
</trkpt>
<trkpt lat="22.352875" lon="103.774818">
<ele>1945.766602</ele>
<time>2011-04-24T11:15:18Z</time>
<desc>lat.=22.352875, lon.=103.774818, Alt.=1945.766602m. Speed=0.468000m/h.</desc>
<speed>0.130000</speed>
</trkpt>
<trkpt lat="22.352875" lon="103.774818">
<ele>1945.672852</ele>
<time>2011-04-24T11:15:23Z</time>
<desc>lat.=22.352875, lon.=103.774818, Alt.=1945.672852m. Speed=0.180000m/h.</desc>
<speed>0.050000</speed>
</trkpt>
<trkpt lat="22.352879" lon="103.774818">
<ele>1945.266602</ele>
<time>2011-04-24T11:15:28Z</time>
<desc>lat.=22.352879, lon.=103.774818, Alt.=1945.266602m. Speed=0.252000m/h.</desc>
<speed>0.070000</speed>
</trkpt>
<trkpt lat="22.352879" lon="103.774826">
<ele>1944.829102</ele>
<time>2011-04-24T11:15:33Z</time>
<desc>lat.=22.352879, lon.=103.774826, Alt.=1944.829102m. Speed=0.036000m/h.</desc>
<speed>0.010000</speed>
</trkpt>
<trkpt lat="22.352879" lon="103.774826">
<ele>1944.829102</ele>
<time>2011-04-24T11:15:38Z</time>
<desc>lat.=22.352879, lon.=103.774826, Alt.=1944.829102m. Speed=0.036000m/h.</desc>
<speed>0.010000</speed>
</trkpt>
<trkpt lat="22.352879" lon="103.774826">
<ele>1944.829102</ele>
<time>2011-04-24T11:15:43Z</time>
<desc>lat.=22.352879, lon.=103.774826, Alt.=1944.829102m. Speed=0.072000m/h.</desc>
<speed>0.020000</speed>
</trkpt>
<trkpt lat="22.352879" lon="103.774826">
<ele>1944.829102</ele>
<time>2011-04-24T11:15:48Z</time>
<desc>lat.=22.352879, lon.=103.774826, Alt.=1944.829102m. Speed=0.000000m/h.</desc>
<speed>0.000000</speed>
</trkpt>
<trkpt lat="22.352879" lon="103.774826">
<ele>1944.797852</ele>
<time>2011-04-24T11:15:53Z</time>
<desc>lat.=22.352879, lon.=103.774826, Alt.=1944.797852m. Speed=0.468000m/h.</desc>
<speed>0.130000</speed>
</trkpt>
<trkpt lat="22.352879" lon="103.774826">
<ele>1944.735352</ele>
<time>2011-04-24T11:15:58Z</time>
<desc>lat.=22.352879, lon.=103.774826, Alt.=1944.735352m. Speed=0.036000m/h.</desc>
<speed>0.010000</speed>
</trkpt>
<trkpt lat="22.352879" lon="103.774834">
<ele>1944.610352</ele>
<time>2011-04-24T11:16:03Z</time>
<desc>lat.=22.352879, lon.=103.774834, Alt.=1944.610352m. Speed=0.036000m/h.</desc>
<speed>0.010000</speed>
</trkpt>
<trkpt lat="22.352879" lon="103.774834">
<ele>1944.610352</ele>
<time>2011-04-24T11:16:08Z</time>
<desc>lat.=22.352879, lon.=103.774834, Alt.=1944.610352m. Speed=0.072000m/h.</desc>
<speed>0.020000</speed>
</trkpt>
<trkpt lat="22.352879" lon="103.774834">
<ele>1944.610352</ele>
<time>2011-04-24T11:16:13Z</time>
<desc>lat.=22.352879, lon.=103.774834, Alt.=1944.610352m. Speed=0.000000m/h.</desc>
<speed>0.000000</speed>
</trkpt>
<trkpt lat="22.352879" lon="103.774834">
<ele>1944.579102</ele>
<time>2011-04-24T11:16:18Z</time>
<desc>lat.=22.352879, lon.=103.774834, Alt.=1944.579102m. Speed=0.000000m/h.</desc>
<speed>0.000000</speed>
</trkpt>
<trkpt lat="22.352879" lon="103.774834">
<ele>1944.579102</ele>
<time>2011-04-24T11:16:23Z</time>
<desc>lat.=22.352879, lon.=103.774834, Alt.=1944.579102m. Speed=0.180000m/h.</desc>
<speed>0.050000</speed>
</trkpt>
<trkpt lat="22.352879" lon="103.774834">
<ele>1944.579102</ele>
<time>2011-04-24T11:16:28Z</time>
<desc>lat.=22.352879, lon.=103.774834, Alt.=1944.579102m. Speed=0.072000m/h.</desc>
<speed>0.020000</speed>
</trkpt>
<trkpt lat="22.352877" lon="103.774834">
<ele>1944.579102</ele>
<time>2011-04-24T11:16:33Z</time>
<desc>lat.=22.352877, lon.=103.774834, Alt.=1944.579102m. Speed=0.432000m/h.</desc>
<speed>0.120000</speed>
</trkpt>
<trkpt lat="22.352880" lon="103.774841">
<ele>1944.422852</ele>
<time>2011-04-24T11:16:38Z</time>
<desc>lat.=22.352880, lon.=103.774841, Alt.=1944.422852m. Speed=0.612000m/h.</desc>
<speed>0.170000</speed>
</trkpt>
<trkpt lat="22.352879" lon="103.774841">
<ele>1944.235352</ele>
<time>2011-04-24T11:16:43Z</time>
<desc>lat.=22.352879, lon.=103.774841, Alt.=1944.235352m. Speed=0.144000m/h.</desc>
<speed>0.040000</speed>
</trkpt>
<trkpt lat="22.352879" lon="103.774841">
<ele>1944.235352</ele>
<time>2011-04-24T11:16:48Z</time>
<desc>lat.=22.352879, lon.=103.774841, Alt.=1944.235352m. Speed=0.000000m/h.</desc>
<speed>0.000000</speed>
</trkpt>
<trkpt lat="22.352879" lon="103.774841">
<ele>1944.204102</ele>
<time>2011-04-24T11:16:53Z</time>
<desc>lat.=22.352879, lon.=103.774841, Alt.=1944.204102m. Speed=0.000000m/h.</desc>
<speed>0.000000</speed>
</trkpt>
<trkpt lat="22.352879" lon="103.774841">
<ele>1944.204102</ele>
<time>2011-04-24T11:16:58Z</time>
<desc>lat.=22.352879, lon.=103.774841, Alt.=1944.204102m. Speed=0.036000m/h.</desc>
<speed>0.010000</speed>
</trkpt>
<trkpt lat="22.352880" lon="103.774841">
<ele>1944.172852</ele>
<time>2011-04-24T11:17:03Z</time>
<desc>lat.=22.352880, lon.=103.774841, Alt.=1944.172852m. Speed=0.072000m/h.</desc>
<speed>0.020000</speed>
</trkpt>
<trkpt lat="22.352882" lon="103.774849">
<ele>1944.235352</ele>
<time>2011-04-24T11:17:08Z</time>
<desc>lat.=22.352882, lon.=103.774849, Alt.=1944.235352m. Speed=0.072000m/h.</desc>
<speed>0.020000</speed>
</trkpt>
<trkpt lat="22.352879" lon="103.774857">
<ele>1943.985352</ele>
<time>2011-04-24T11:17:13Z</time>
<desc>lat.=22.352879, lon.=103.774857, Alt.=1943.985352m. Speed=0.072000m/h.</desc>
<speed>0.020000</speed>
</trkpt>
<trkpt lat="22.352879" lon="103.774857">
<ele>1944.047852</ele>
<time>2011-04-24T11:17:18Z</time>
<desc>lat.=22.352879, lon.=103.774857, Alt.=1944.047852m. Speed=0.000000m/h.</desc>
<speed>0.000000</speed>
</trkpt>
<trkpt lat="22.352879" lon="103.774857">
<ele>1943.704102</ele>
<time>2011-04-24T11:17:23Z</time>
<desc>lat.=22.352879, lon.=103.774857, Alt.=1943.704102m. Speed=0.036000m/h.</desc>
<speed>0.010000</speed>
</trkpt>
<trkpt lat="22.352879" lon="103.774857">
<ele>1943.579102</ele>
<time>2011-04-24T11:17:28Z</time>
<desc>lat.=22.352879, lon.=103.774857, Alt.=1943.579102m. Speed=0.000000m/h.</desc>
<speed>0.000000</speed>
</trkpt>
<trkpt lat="22.352882" lon="103.774849">
<ele>1943.704102</ele>
<time>2011-04-24T11:17:33Z</time>
<desc>lat.=22.352882, lon.=103.774849, Alt.=1943.704102m. Speed=0.000000m/h.</desc>
<speed>0.000000</speed>
</trkpt>
<trkpt lat="22.352879" lon="103.774849">
<ele>1943.485352</ele>
<time>2011-04-24T11:17:38Z</time>
<desc>lat.=22.352879, lon.=103.774849, Alt.=1943.485352m. Speed=0.000000m/h.</desc>
<speed>0.000000</speed>
</trkpt>
<trkpt lat="22.352877" lon="103.774841">
<ele>1943.454102</ele>
<time>2011-04-24T11:17:43Z</time>
<desc>lat.=22.352877, lon.=103.774841, Alt.=1943.454102m. Speed=0.000000m/h.</desc>
<speed>0.000000</speed>
</trkpt>
<trkpt lat="22.352884" lon="103.774841">
<ele>1943.329102</ele>
<time>2011-04-24T11:17:48Z</time>
<desc>lat.=22.352884, lon.=103.774841, Alt.=1943.329102m. Speed=0.072000m/h.</desc>
<speed>0.020000</speed>
</trkpt>
	</trkseg></trk>
</gpx>
